<?xml version="1.0"?>
<gpx
 version="1.1"
 creator="Satmap Active 20"
 xmlns:xsi="http://www.w3.org/2001/XMLSchema-instance"
 xmlns="http://www.topografix.com/GPX/1/1"
 xmlns:satmap="http://www.satmap.com/updates/xmlschemas/GpxExtensions/v2/GpxExtensions_v2.xsd"
 xsi:schemaLocation="http://www.topografix.com/GPX/1/1 http://www.topografix.com/GPX/1/1/gpx.xsd">
<metadata>
<time>2021-12-08T12:18:30Z</time>
<extensions>
<satmap:platform>43</satmap:platform>
<satmap:software version="3.13.037">SM15.exe</satmap:software>
<satmap:username>pieter metz</satmap:username>
<satmap:network_ids>
<satmap:network_id type="wifi">00-23-A7-CA-E3-5C</satmap:network_id>
<satmap:network_id type="bluetooth">80-BB-EB-78-4F-29</satmap:network_id>
</satmap:network_ids>
<satmap:snap_type>simple</satmap:snap_type>
</extensions>
</metadata>
<trk>
<name>2021-12-08_1218</name>
<desc>Track 1</desc>
<number>1</number>
<trkseg>
<trkpt lat="53.084197" lon="04.873762"><ele>3</ele><time>2021-12-08T12:18:30Z</time><name>PT1</name></trkpt>
<trkpt lat="53.084198" lon="04.873762"><ele>3.1</ele><time>2021-12-08T12:18:32Z</time><name>PT2</name></trkpt>
<trkpt lat="53.084198" lon="04.873760"><ele>3.3</ele><time>2021-12-08T12:18:33Z</time><name>PT3</name></trkpt>
<trkpt lat="53.084197" lon="04.873758"><ele>3.2</ele><time>2021-12-08T12:18:34Z</time><name>PT4</name></trkpt>
<trkpt lat="53.084198" lon="04.873754"><ele>3.3</ele><time>2021-12-08T12:18:37Z</time><name>PT5</name></trkpt>
<trkpt lat="53.084205" lon="04.873748"><ele>3.3</ele><time>2021-12-08T12:18:38Z</time><name>PT6</name></trkpt>
<trkpt lat="53.084215" lon="04.873741"><ele>3.5</ele><time>2021-12-08T12:18:39Z</time><name>PT7</name></trkpt>
<trkpt lat="53.084223" lon="04.873735"><ele>3.5</ele><time>2021-12-08T12:18:40Z</time><name>PT8</name></trkpt>
<trkpt lat="53.084228" lon="04.873727"><ele>3.8</ele><time>2021-12-08T12:18:41Z</time><name>PT9</name></trkpt>
<trkpt lat="53.084239" lon="04.873718"><ele>4</ele><time>2021-12-08T12:18:42Z</time><name>PT10</name></trkpt>
<trkpt lat="53.084247" lon="04.873714"><ele>4</ele><time>2021-12-08T12:18:43Z</time><name>PT11</name></trkpt>
<trkpt lat="53.084254" lon="04.873708"><ele>4</ele><time>2021-12-08T12:18:44Z</time><name>PT12</name></trkpt>
<trkpt lat="53.084263" lon="04.873702"><ele>3.9</ele><time>2021-12-08T12:18:45Z</time><name>PT13</name></trkpt>
<trkpt lat="53.084271" lon="04.873696"><ele>3.8</ele><time>2021-12-08T12:18:46Z</time><name>PT14</name></trkpt>
<trkpt lat="53.084278" lon="04.873688"><ele>3.7</ele><time>2021-12-08T12:18:47Z</time><name>PT15</name></trkpt>
<trkpt lat="53.084286" lon="04.873680"><ele>3.5</ele><time>2021-12-08T12:18:48Z</time><name>PT16</name></trkpt>
<trkpt lat="53.084293" lon="04.873675"><ele>3.4</ele><time>2021-12-08T12:18:49Z</time><name>PT17</name></trkpt>
<trkpt lat="53.084300" lon="04.873669"><ele>3.4</ele><time>2021-12-08T12:18:50Z</time><name>PT18</name></trkpt>
<trkpt lat="53.084306" lon="04.873661"><ele>3.3</ele><time>2021-12-08T12:18:51Z</time><name>PT19</name></trkpt>
<trkpt lat="53.084312" lon="04.873654"><ele>3.5</ele><time>2021-12-08T12:18:51Z</time><name>PT20</name></trkpt>
<trkpt lat="53.084314" lon="04.873653"><ele>3.5</ele><time>2021-12-08T12:18:53Z</time><name>PT21</name></trkpt>
<trkpt lat="53.084317" lon="04.873656"><ele>3.8</ele><time>2021-12-08T12:18:54Z</time><name>PT22</name></trkpt>
<trkpt lat="53.084317" lon="04.873655"><ele>4</ele><time>2021-12-08T12:18:54Z</time><name>PT23</name></trkpt>
<trkpt lat="53.084321" lon="04.873637"><ele>4</ele><time>2021-12-08T12:18:59Z</time><name>PT24</name></trkpt>
<trkpt lat="53.084331" lon="04.873625"><ele>3.8</ele><time>2021-12-08T12:19:00Z</time><name>PT25</name></trkpt>
<trkpt lat="53.084339" lon="04.873613"><ele>3.8</ele><time>2021-12-08T12:19:00Z</time><name>PT26</name></trkpt>
<trkpt lat="53.084349" lon="04.873603"><ele>3.5</ele><time>2021-12-08T12:19:02Z</time><name>PT27</name></trkpt>
<trkpt lat="53.084358" lon="04.873588"><ele>3.4</ele><time>2021-12-08T12:19:03Z</time><name>PT28</name></trkpt>
<trkpt lat="53.084368" lon="04.873581"><ele>3.3</ele><time>2021-12-08T12:19:03Z</time><name>PT29</name></trkpt>
<trkpt lat="53.084376" lon="04.873574"><ele>3.5</ele><time>2021-12-08T12:19:05Z</time><name>PT30</name></trkpt>
<trkpt lat="53.084386" lon="04.873569"><ele>3.5</ele><time>2021-12-08T12:19:06Z</time><name>PT31</name></trkpt>
<trkpt lat="53.084393" lon="04.873563"><ele>3.6</ele><time>2021-12-08T12:19:06Z</time><name>PT32</name></trkpt>
<trkpt lat="53.084399" lon="04.873555"><ele>3.7</ele><time>2021-12-08T12:19:08Z</time><name>PT33</name></trkpt>
<trkpt lat="53.084405" lon="04.873546"><ele>3.8</ele><time>2021-12-08T12:19:09Z</time><name>PT34</name></trkpt>
<trkpt lat="53.084413" lon="04.873539"><ele>3.7</ele><time>2021-12-08T12:19:09Z</time><name>PT35</name></trkpt>
<trkpt lat="53.084423" lon="04.873530"><ele>3.6</ele><time>2021-12-08T12:19:11Z</time><name>PT36</name></trkpt>
<trkpt lat="53.084433" lon="04.873520"><ele>3.5</ele><time>2021-12-08T12:19:12Z</time><name>PT37</name></trkpt>
<trkpt lat="53.084443" lon="04.873509"><ele>3.5</ele><time>2021-12-08T12:19:12Z</time><name>PT38</name></trkpt>
<trkpt lat="53.084450" lon="04.873508"><ele>3.5</ele><time>2021-12-08T12:19:14Z</time><name>PT39</name></trkpt>
<trkpt lat="53.084453" lon="04.873507"><ele>3.4</ele><time>2021-12-08T12:19:15Z</time><name>PT40</name></trkpt>
<trkpt lat="53.084456" lon="04.873507"><ele>3.5</ele><time>2021-12-08T12:19:15Z</time><name>PT41</name></trkpt>
<trkpt lat="53.084458" lon="04.873506"><ele>3.6</ele><time>2021-12-08T12:19:17Z</time><name>PT42</name></trkpt>
<trkpt lat="53.084463" lon="04.873502"><ele>3.7</ele><time>2021-12-08T12:19:18Z</time><name>PT43</name></trkpt>
<trkpt lat="53.084473" lon="04.873492"><ele>3.7</ele><time>2021-12-08T12:19:20Z</time><name>PT44</name></trkpt>
<trkpt lat="53.084482" lon="04.873483"><ele>3.5</ele><time>2021-12-08T12:19:21Z</time><name>PT45</name></trkpt>
<trkpt lat="53.084492" lon="04.873472"><ele>3.5</ele><time>2021-12-08T12:19:21Z</time><name>PT46</name></trkpt>
<trkpt lat="53.084502" lon="04.873462"><ele>3.4</ele><time>2021-12-08T12:19:23Z</time><name>PT47</name></trkpt>
<trkpt lat="53.084512" lon="04.873455"><ele>3.4</ele><time>2021-12-08T12:19:24Z</time><name>PT48</name></trkpt>
<trkpt lat="53.084522" lon="04.873451"><ele>3.4</ele><time>2021-12-08T12:19:24Z</time><name>PT49</name></trkpt>
<trkpt lat="53.084533" lon="04.873446"><ele>3.5</ele><time>2021-12-08T12:19:26Z</time><name>PT50</name></trkpt>
<trkpt lat="53.084545" lon="04.873447"><ele>3.3</ele><time>2021-12-08T12:19:27Z</time><name>PT51</name></trkpt>
<trkpt lat="53.084557" lon="04.873456"><ele>3.1</ele><time>2021-12-08T12:19:27Z</time><name>PT52</name></trkpt>
<trkpt lat="53.084567" lon="04.873468"><ele>3</ele><time>2021-12-08T12:19:29Z</time><name>PT53</name></trkpt>
<trkpt lat="53.084576" lon="04.873480"><ele>3</ele><time>2021-12-08T12:19:30Z</time><name>PT54</name></trkpt>
<trkpt lat="53.084585" lon="04.873492"><ele>3</ele><time>2021-12-08T12:19:30Z</time><name>PT55</name></trkpt>
<trkpt lat="53.084592" lon="04.873501"><ele>3</ele><time>2021-12-08T12:19:32Z</time><name>PT56</name></trkpt>
<trkpt lat="53.084597" lon="04.873515"><ele>3.5</ele><time>2021-12-08T12:19:33Z</time><name>PT57</name></trkpt>
<trkpt lat="53.084601" lon="04.873532"><ele>3.4</ele><time>2021-12-08T12:19:33Z</time><name>PT58</name></trkpt>
<trkpt lat="53.084605" lon="04.873551"><ele>3.3</ele><time>2021-12-08T12:19:35Z</time><name>PT59</name></trkpt>
<trkpt lat="53.084611" lon="04.873567"><ele>3.1</ele><time>2021-12-08T12:19:36Z</time><name>PT60</name></trkpt>
<trkpt lat="53.084617" lon="04.873584"><ele>3</ele><time>2021-12-08T12:19:36Z</time><name>PT61</name></trkpt>
<trkpt lat="53.084620" lon="04.873603"><ele>2.9</ele><time>2021-12-08T12:19:38Z</time><name>PT62</name></trkpt>
<trkpt lat="53.084622" lon="04.873618"><ele>2.9</ele><time>2021-12-08T12:19:39Z</time><name>PT63</name></trkpt>
<trkpt lat="53.084626" lon="04.873627"><ele>2.8</ele><time>2021-12-08T12:19:39Z</time><name>PT64</name></trkpt>
<trkpt lat="53.084630" lon="04.873640"><ele>2.6</ele><time>2021-12-08T12:19:41Z</time><name>PT65</name></trkpt>
<trkpt lat="53.084634" lon="04.873656"><ele>2.6</ele><time>2021-12-08T12:19:42Z</time><name>PT66</name></trkpt>
<trkpt lat="53.084639" lon="04.873675"><ele>2.6</ele><time>2021-12-08T12:19:42Z</time><name>PT67</name></trkpt>
<trkpt lat="53.084644" lon="04.873693"><ele>2.5</ele><time>2021-12-08T12:19:44Z</time><name>PT68</name></trkpt>
<trkpt lat="53.084650" lon="04.873713"><ele>2.4</ele><time>2021-12-08T12:19:45Z</time><name>PT69</name></trkpt>
<trkpt lat="53.084654" lon="04.873732"><ele>2.6</ele><time>2021-12-08T12:19:45Z</time><name>PT70</name></trkpt>
<trkpt lat="53.084660" lon="04.873749"><ele>2.4</ele><time>2021-12-08T12:19:47Z</time><name>PT71</name></trkpt>
<trkpt lat="53.084667" lon="04.873764"><ele>2.2</ele><time>2021-12-08T12:19:48Z</time><name>PT72</name></trkpt>
<trkpt lat="53.084672" lon="04.873779"><ele>2.2</ele><time>2021-12-08T12:19:49Z</time><name>PT73</name></trkpt>
<trkpt lat="53.084678" lon="04.873792"><ele>2.3</ele><time>2021-12-08T12:19:50Z</time><name>PT74</name></trkpt>
<trkpt lat="53.084685" lon="04.873804"><ele>2.4</ele><time>2021-12-08T12:19:51Z</time><name>PT75</name></trkpt>
<trkpt lat="53.084689" lon="04.873819"><ele>2.5</ele><time>2021-12-08T12:19:52Z</time><name>PT76</name></trkpt>
<trkpt lat="53.084692" lon="04.873837"><ele>2.8</ele><time>2021-12-08T12:19:53Z</time><name>PT77</name></trkpt>
<trkpt lat="53.084695" lon="04.873852"><ele>2.9</ele><time>2021-12-08T12:19:54Z</time><name>PT78</name></trkpt>
<trkpt lat="53.084700" lon="04.873860"><ele>2.8</ele><time>2021-12-08T12:19:55Z</time><name>PT79</name></trkpt>
<trkpt lat="53.084705" lon="04.873869"><ele>2.5</ele><time>2021-12-08T12:19:56Z</time><name>PT80</name></trkpt>
<trkpt lat="53.084707" lon="04.873871"><ele>2.5</ele><time>2021-12-08T12:19:57Z</time><name>PT81</name></trkpt>
<trkpt lat="53.084707" lon="04.873869"><ele>2.3</ele><time>2021-12-08T12:19:58Z</time><name>PT82</name></trkpt>
<trkpt lat="53.084707" lon="04.873871"><ele>2.2</ele><time>2021-12-08T12:19:59Z</time><name>PT83</name></trkpt>
<trkpt lat="53.084707" lon="04.873879"><ele>2</ele><time>2021-12-08T12:20:00Z</time><name>PT84</name></trkpt>
<trkpt lat="53.084710" lon="04.873883"><ele>2.1</ele><time>2021-12-08T12:20:01Z</time><name>PT85</name></trkpt>
<trkpt lat="53.084713" lon="04.873892"><ele>2.1</ele><time>2021-12-08T12:20:02Z</time><name>PT86</name></trkpt>
<trkpt lat="53.084716" lon="04.873908"><ele>2.2</ele><time>2021-12-08T12:20:03Z</time><name>PT87</name></trkpt>
<trkpt lat="53.084721" lon="04.873924"><ele>2.3</ele><time>2021-12-08T12:20:04Z</time><name>PT88</name></trkpt>
<trkpt lat="53.084725" lon="04.873939"><ele>2.4</ele><time>2021-12-08T12:20:05Z</time><name>PT89</name></trkpt>
<trkpt lat="53.084729" lon="04.873960"><ele>2.2</ele><time>2021-12-08T12:20:06Z</time><name>PT90</name></trkpt>
<trkpt lat="53.084733" lon="04.873978"><ele>2.2</ele><time>2021-12-08T12:20:06Z</time><name>PT91</name></trkpt>
<trkpt lat="53.084737" lon="04.873997"><ele>2.1</ele><time>2021-12-08T12:20:08Z</time><name>PT92</name></trkpt>
<trkpt lat="53.084742" lon="04.874014"><ele>2.3</ele><time>2021-12-08T12:20:09Z</time><name>PT93</name></trkpt>
<trkpt lat="53.084748" lon="04.874029"><ele>2.1</ele><time>2021-12-08T12:20:09Z</time><name>PT94</name></trkpt>
<trkpt lat="53.084751" lon="04.874044"><ele>2.2</ele><time>2021-12-08T12:20:11Z</time><name>PT95</name></trkpt>
<trkpt lat="53.084753" lon="04.874060"><ele>2.2</ele><time>2021-12-08T12:20:12Z</time><name>PT96</name></trkpt>
<trkpt lat="53.084757" lon="04.874079"><ele>2.2</ele><time>2021-12-08T12:20:12Z</time><name>PT97</name></trkpt>
<trkpt lat="53.084762" lon="04.874095"><ele>2</ele><time>2021-12-08T12:20:14Z</time><name>PT98</name></trkpt>
<trkpt lat="53.084767" lon="04.874113"><ele>2.1</ele><time>2021-12-08T12:20:15Z</time><name>PT99</name></trkpt>
<trkpt lat="53.084773" lon="04.874129"><ele>2</ele><time>2021-12-08T12:20:15Z</time><name>PT100</name></trkpt>
<trkpt lat="53.084779" lon="04.874143"><ele>1.9</ele><time>2021-12-08T12:20:17Z</time><name>PT101</name></trkpt>
<trkpt lat="53.084785" lon="04.874156"><ele>1.9</ele><time>2021-12-08T12:20:18Z</time><name>PT102</name></trkpt>
<trkpt lat="53.084789" lon="04.874169"><ele>1.9</ele><time>2021-12-08T12:20:18Z</time><name>PT103</name></trkpt>
<trkpt lat="53.084793" lon="04.874183"><ele>1.9</ele><time>2021-12-08T12:20:20Z</time><name>PT104</name></trkpt>
<trkpt lat="53.084797" lon="04.874196"><ele>1.9</ele><time>2021-12-08T12:20:21Z</time><name>PT105</name></trkpt>
<trkpt lat="53.084802" lon="04.874208"><ele>1.9</ele><time>2021-12-08T12:20:21Z</time><name>PT106</name></trkpt>
<trkpt lat="53.084808" lon="04.874221"><ele>1.9</ele><time>2021-12-08T12:20:23Z</time><name>PT107</name></trkpt>
<trkpt lat="53.084817" lon="04.874236"><ele>1.9</ele><time>2021-12-08T12:20:24Z</time><name>PT108</name></trkpt>
<trkpt lat="53.084824" lon="04.874251"><ele>2</ele><time>2021-12-08T12:20:24Z</time><name>PT109</name></trkpt>
<trkpt lat="53.084829" lon="04.874260"><ele>2</ele><time>2021-12-08T12:20:26Z</time><name>PT110</name></trkpt>
<trkpt lat="53.084833" lon="04.874273"><ele>2.2</ele><time>2021-12-08T12:20:27Z</time><name>PT111</name></trkpt>
<trkpt lat="53.084834" lon="04.874288"><ele>2.1</ele><time>2021-12-08T12:20:27Z</time><name>PT112</name></trkpt>
<trkpt lat="53.084839" lon="04.874296"><ele>2.1</ele><time>2021-12-08T12:20:29Z</time><name>PT113</name></trkpt>
<trkpt lat="53.084843" lon="04.874306"><ele>1.9</ele><time>2021-12-08T12:20:30Z</time><name>PT114</name></trkpt>
<trkpt lat="53.084851" lon="04.874323"><ele>1.9</ele><time>2021-12-08T12:20:30Z</time><name>PT115</name></trkpt>
<trkpt lat="53.084858" lon="04.874338"><ele>1.9</ele><time>2021-12-08T12:20:32Z</time><name>PT116</name></trkpt>
<trkpt lat="53.084864" lon="04.874349"><ele>1.8</ele><time>2021-12-08T12:20:33Z</time><name>PT117</name></trkpt>
<trkpt lat="53.084867" lon="04.874361"><ele>1.8</ele><time>2021-12-08T12:20:33Z</time><name>PT118</name></trkpt>
<trkpt lat="53.084870" lon="04.874374"><ele>1.6</ele><time>2021-12-08T12:20:35Z</time><name>PT119</name></trkpt>
<trkpt lat="53.084874" lon="04.874391"><ele>1.4</ele><time>2021-12-08T12:20:36Z</time><name>PT120</name></trkpt>
<trkpt lat="53.084881" lon="04.874410"><ele>1.4</ele><time>2021-12-08T12:20:36Z</time><name>PT121</name></trkpt>
<trkpt lat="53.084889" lon="04.874430"><ele>1.5</ele><time>2021-12-08T12:20:38Z</time><name>PT122</name></trkpt>
<trkpt lat="53.084895" lon="04.874449"><ele>1.4</ele><time>2021-12-08T12:20:39Z</time><name>PT123</name></trkpt>
<trkpt lat="53.084900" lon="04.874466"><ele>1.5</ele><time>2021-12-08T12:20:39Z</time><name>PT124</name></trkpt>
<trkpt lat="53.084907" lon="04.874480"><ele>1.4</ele><time>2021-12-08T12:20:41Z</time><name>PT125</name></trkpt>
<trkpt lat="53.084911" lon="04.874493"><ele>1.4</ele><time>2021-12-08T12:20:42Z</time><name>PT126</name></trkpt>
<trkpt lat="53.084915" lon="04.874507"><ele>1.4</ele><time>2021-12-08T12:20:42Z</time><name>PT127</name></trkpt>
<trkpt lat="53.084920" lon="04.874524"><ele>1.4</ele><time>2021-12-08T12:20:44Z</time><name>PT128</name></trkpt>
<trkpt lat="53.084924" lon="04.874542"><ele>1.5</ele><time>2021-12-08T12:20:45Z</time><name>PT129</name></trkpt>
<trkpt lat="53.084930" lon="04.874561"><ele>1.7</ele><time>2021-12-08T12:20:45Z</time><name>PT130</name></trkpt>
<trkpt lat="53.084932" lon="04.874588"><ele>1.6</ele><time>2021-12-08T12:20:47Z</time><name>PT131</name></trkpt>
<trkpt lat="53.084937" lon="04.874609"><ele>1.7</ele><time>2021-12-08T12:20:48Z</time><name>PT132</name></trkpt>
<trkpt lat="53.084940" lon="04.874627"><ele>1.9</ele><time>2021-12-08T12:20:48Z</time><name>PT133</name></trkpt>
<trkpt lat="53.084945" lon="04.874632"><ele>1.9</ele><time>2021-12-08T12:20:50Z</time><name>PT134</name></trkpt>
<trkpt lat="53.084947" lon="04.874639"><ele>1.9</ele><time>2021-12-08T12:20:51Z</time><name>PT135</name></trkpt>
<trkpt lat="53.084950" lon="04.874650"><ele>1.9</ele><time>2021-12-08T12:20:51Z</time><name>PT136</name></trkpt>
<trkpt lat="53.084951" lon="04.874666"><ele>1.9</ele><time>2021-12-08T12:20:53Z</time><name>PT137</name></trkpt>
<trkpt lat="53.084958" lon="04.874686"><ele>1.8</ele><time>2021-12-08T12:20:54Z</time><name>PT138</name></trkpt>
<trkpt lat="53.084961" lon="04.874702"><ele>1.8</ele><time>2021-12-08T12:20:54Z</time><name>PT139</name></trkpt>
<trkpt lat="53.084967" lon="04.874707"><ele>1.9</ele><time>2021-12-08T12:20:56Z</time><name>PT140</name></trkpt>
<trkpt lat="53.084966" lon="04.874707"><ele>1.9</ele><time>2021-12-08T12:20:57Z</time><name>PT141</name></trkpt>
<trkpt lat="53.084971" lon="04.874715"><ele>1.9</ele><time>2021-12-08T12:20:57Z</time><name>PT142</name></trkpt>
<trkpt lat="53.084977" lon="04.874727"><ele>1.9</ele><time>2021-12-08T12:20:59Z</time><name>PT143</name></trkpt>
<trkpt lat="53.084984" lon="04.874737"><ele>1.8</ele><time>2021-12-08T12:21:00Z</time><name>PT144</name></trkpt>
<trkpt lat="53.084986" lon="04.874746"><ele>1.7</ele><time>2021-12-08T12:21:00Z</time><name>PT145</name></trkpt>
<trkpt lat="53.084991" lon="04.874757"><ele>1.5</ele><time>2021-12-08T12:21:02Z</time><name>PT146</name></trkpt>
<trkpt lat="53.084997" lon="04.874771"><ele>1.7</ele><time>2021-12-08T12:21:03Z</time><name>PT147</name></trkpt>
<trkpt lat="53.084999" lon="04.874784"><ele>1.7</ele><time>2021-12-08T12:21:03Z</time><name>PT148</name></trkpt>
<trkpt lat="53.085002" lon="04.874788"><ele>1.8</ele><time>2021-12-08T12:21:05Z</time><name>PT149</name></trkpt>
<trkpt lat="53.085001" lon="04.874786"><ele>1.9</ele><time>2021-12-08T12:21:06Z</time><name>PT150</name></trkpt>
<trkpt lat="53.085000" lon="04.874784"><ele>2</ele><time>2021-12-08T12:21:06Z</time><name>PT151</name></trkpt>
<trkpt lat="53.085002" lon="04.874790"><ele>1.9</ele><time>2021-12-08T12:21:08Z</time><name>PT152</name></trkpt>
<trkpt lat="53.085006" lon="04.874802"><ele>1.7</ele><time>2021-12-08T12:21:09Z</time><name>PT153</name></trkpt>
<trkpt lat="53.085007" lon="04.874811"><ele>1.7</ele><time>2021-12-08T12:21:09Z</time><name>PT154</name></trkpt>
<trkpt lat="53.085006" lon="04.874819"><ele>1.5</ele><time>2021-12-08T12:21:11Z</time><name>PT155</name></trkpt>
<trkpt lat="53.085004" lon="04.874825"><ele>1.4</ele><time>2021-12-08T12:21:12Z</time><name>PT156</name></trkpt>
<trkpt lat="53.085005" lon="04.874824"><ele>1.4</ele><time>2021-12-08T12:21:13Z</time><name>PT157</name></trkpt>
<trkpt lat="53.085004" lon="04.874820"><ele>1.3</ele><time>2021-12-08T12:21:14Z</time><name>PT158</name></trkpt>
<trkpt lat="53.085004" lon="04.874812"><ele>1.4</ele><time>2021-12-08T12:21:15Z</time><name>PT159</name></trkpt>
<trkpt lat="53.085012" lon="04.874822"><ele>1.7</ele><time>2021-12-08T12:21:19Z</time><name>PT160</name></trkpt>
<trkpt lat="53.085024" lon="04.874844"><ele>1.7</ele><time>2021-12-08T12:21:20Z</time><name>PT161</name></trkpt>
<trkpt lat="53.085031" lon="04.874867"><ele>1.8</ele><time>2021-12-08T12:21:21Z</time><name>PT162</name></trkpt>
<trkpt lat="53.085036" lon="04.874887"><ele>1.9</ele><time>2021-12-08T12:21:22Z</time><name>PT163</name></trkpt>
<trkpt lat="53.085044" lon="04.874903"><ele>1.9</ele><time>2021-12-08T12:21:23Z</time><name>PT164</name></trkpt>
<trkpt lat="53.085046" lon="04.874923"><ele>1.9</ele><time>2021-12-08T12:21:24Z</time><name>PT165</name></trkpt>
<trkpt lat="53.085050" lon="04.874938"><ele>2.1</ele><time>2021-12-08T12:21:25Z</time><name>PT166</name></trkpt>
<trkpt lat="53.085054" lon="04.874958"><ele>2</ele><time>2021-12-08T12:21:26Z</time><name>PT167</name></trkpt>
<trkpt lat="53.085060" lon="04.874983"><ele>2</ele><time>2021-12-08T12:21:27Z</time><name>PT168</name></trkpt>
<trkpt lat="53.085062" lon="04.875004"><ele>1.9</ele><time>2021-12-08T12:21:28Z</time><name>PT169</name></trkpt>
<trkpt lat="53.085072" lon="04.875024"><ele>1.9</ele><time>2021-12-08T12:21:29Z</time><name>PT170</name></trkpt>
<trkpt lat="53.085077" lon="04.875041"><ele>1.5</ele><time>2021-12-08T12:21:30Z</time><name>PT171</name></trkpt>
<trkpt lat="53.085082" lon="04.875059"><ele>1.4</ele><time>2021-12-08T12:21:30Z</time><name>PT172</name></trkpt>
<trkpt lat="53.085083" lon="04.875073"><ele>1.4</ele><time>2021-12-08T12:21:32Z</time><name>PT173</name></trkpt>
<trkpt lat="53.085087" lon="04.875086"><ele>1.5</ele><time>2021-12-08T12:21:33Z</time><name>PT174</name></trkpt>
<trkpt lat="53.085093" lon="04.875100"><ele>1.6</ele><time>2021-12-08T12:21:33Z</time><name>PT175</name></trkpt>
<trkpt lat="53.085097" lon="04.875118"><ele>1.8</ele><time>2021-12-08T12:21:35Z</time><name>PT176</name></trkpt>
<trkpt lat="53.085101" lon="04.875134"><ele>2</ele><time>2021-12-08T12:21:36Z</time><name>PT177</name></trkpt>
<trkpt lat="53.085105" lon="04.875154"><ele>2.1</ele><time>2021-12-08T12:21:36Z</time><name>PT178</name></trkpt>
<trkpt lat="53.085109" lon="04.875170"><ele>2.2</ele><time>2021-12-08T12:21:38Z</time><name>PT179</name></trkpt>
<trkpt lat="53.085111" lon="04.875181"><ele>2.3</ele><time>2021-12-08T12:21:39Z</time><name>PT180</name></trkpt>
<trkpt lat="53.085114" lon="04.875195"><ele>2.3</ele><time>2021-12-08T12:21:39Z</time><name>PT181</name></trkpt>
<trkpt lat="53.085119" lon="04.875212"><ele>2.4</ele><time>2021-12-08T12:21:41Z</time><name>PT182</name></trkpt>
<trkpt lat="53.085123" lon="04.875234"><ele>2.4</ele><time>2021-12-08T12:21:42Z</time><name>PT183</name></trkpt>
<trkpt lat="53.085123" lon="04.875260"><ele>2.3</ele><time>2021-12-08T12:21:42Z</time><name>PT184</name></trkpt>
<trkpt lat="53.085123" lon="04.875280"><ele>2.4</ele><time>2021-12-08T12:21:44Z</time><name>PT185</name></trkpt>
<trkpt lat="53.085130" lon="04.875301"><ele>2.3</ele><time>2021-12-08T12:21:45Z</time><name>PT186</name></trkpt>
<trkpt lat="53.085138" lon="04.875316"><ele>2.2</ele><time>2021-12-08T12:21:45Z</time><name>PT187</name></trkpt>
<trkpt lat="53.085142" lon="04.875331"><ele>1.9</ele><time>2021-12-08T12:21:47Z</time><name>PT188</name></trkpt>
<trkpt lat="53.085146" lon="04.875340"><ele>1.6</ele><time>2021-12-08T12:21:48Z</time><name>PT189</name></trkpt>
<trkpt lat="53.085146" lon="04.875344"><ele>1.4</ele><time>2021-12-08T12:21:48Z</time><name>PT190</name></trkpt>
<trkpt lat="53.085142" lon="04.875347"><ele>1.4</ele><time>2021-12-08T12:21:50Z</time><name>PT191</name></trkpt>
<trkpt lat="53.085144" lon="04.875346"><ele>1.4</ele><time>2021-12-08T12:21:51Z</time><name>PT192</name></trkpt>
<trkpt lat="53.085143" lon="04.875344"><ele>1.4</ele><time>2021-12-08T12:21:51Z</time><name>PT193</name></trkpt>
<trkpt lat="53.085142" lon="04.875346"><ele>1.5</ele><time>2021-12-08T12:21:53Z</time><name>PT194</name></trkpt>
<trkpt lat="53.085140" lon="04.875356"><ele>1.6</ele><time>2021-12-08T12:21:54Z</time><name>PT195</name></trkpt>
<trkpt lat="53.085125" lon="04.875335"><ele>1.7</ele><time>2021-12-08T12:21:56Z</time><name>PT196</name></trkpt>
<trkpt lat="53.085130" lon="04.875340"><ele>1.7</ele><time>2021-12-08T12:21:57Z</time><name>PT197</name></trkpt>
<trkpt lat="53.085127" lon="04.875344"><ele>1.5</ele><time>2021-12-08T12:21:57Z</time><name>PT198</name></trkpt>
<trkpt lat="53.085128" lon="04.875349"><ele>1.4</ele><time>2021-12-08T12:21:59Z</time><name>PT199</name></trkpt>
<trkpt lat="53.085126" lon="04.875362"><ele>1.1</ele><time>2021-12-08T12:22:02Z</time><name>PT200</name></trkpt>
<trkpt lat="53.085133" lon="04.875377"><ele>1.4</ele><time>2021-12-08T12:22:03Z</time><name>PT201</name></trkpt>
<trkpt lat="53.085139" lon="04.875391"><ele>1.6</ele><time>2021-12-08T12:22:03Z</time><name>PT202</name></trkpt>
<trkpt lat="53.085132" lon="04.875396"><ele>1.7</ele><time>2021-12-08T12:22:05Z</time><name>PT203</name></trkpt>
<trkpt lat="53.085135" lon="04.875398"><ele>1.8</ele><time>2021-12-08T12:22:06Z</time><name>PT204</name></trkpt>
<trkpt lat="53.085137" lon="04.875407"><ele>1.8</ele><time>2021-12-08T12:22:06Z</time><name>PT205</name></trkpt>
<trkpt lat="53.085143" lon="04.875415"><ele>1.7</ele><time>2021-12-08T12:22:08Z</time><name>PT206</name></trkpt>
<trkpt lat="53.085147" lon="04.875428"><ele>1.5</ele><time>2021-12-08T12:22:09Z</time><name>PT207</name></trkpt>
<trkpt lat="53.085149" lon="04.875439"><ele>1.5</ele><time>2021-12-08T12:22:09Z</time><name>PT208</name></trkpt>
<trkpt lat="53.085152" lon="04.875455"><ele>1.4</ele><time>2021-12-08T12:22:11Z</time><name>PT209</name></trkpt>
<trkpt lat="53.085152" lon="04.875476"><ele>1.3</ele><time>2021-12-08T12:22:12Z</time><name>PT210</name></trkpt>
<trkpt lat="53.085151" lon="04.875492"><ele>1.4</ele><time>2021-12-08T12:22:12Z</time><name>PT211</name></trkpt>
<trkpt lat="53.085160" lon="04.875495"><ele>1.3</ele><time>2021-12-08T12:22:14Z</time><name>PT212</name></trkpt>
<trkpt lat="53.085166" lon="04.875511"><ele>1.4</ele><time>2021-12-08T12:22:15Z</time><name>PT213</name></trkpt>
<trkpt lat="53.085170" lon="04.875523"><ele>1.4</ele><time>2021-12-08T12:22:15Z</time><name>PT214</name></trkpt>
<trkpt lat="53.085175" lon="04.875533"><ele>1.6</ele><time>2021-12-08T12:22:17Z</time><name>PT215</name></trkpt>
<trkpt lat="53.085177" lon="04.875547"><ele>1.8</ele><time>2021-12-08T12:22:18Z</time><name>PT216</name></trkpt>
<trkpt lat="53.085179" lon="04.875560"><ele>1.8</ele><time>2021-12-08T12:22:18Z</time><name>PT217</name></trkpt>
<trkpt lat="53.085182" lon="04.875572"><ele>1.7</ele><time>2021-12-08T12:22:20Z</time><name>PT218</name></trkpt>
<trkpt lat="53.085190" lon="04.875583"><ele>1.6</ele><time>2021-12-08T12:22:21Z</time><name>PT219</name></trkpt>
<trkpt lat="53.085193" lon="04.875593"><ele>1.5</ele><time>2021-12-08T12:22:21Z</time><name>PT220</name></trkpt>
<trkpt lat="53.085192" lon="04.875596"><ele>1.5</ele><time>2021-12-08T12:22:23Z</time><name>PT221</name></trkpt>
<trkpt lat="53.085190" lon="04.875596"><ele>1.4</ele><time>2021-12-08T12:22:24Z</time><name>PT222</name></trkpt>
<trkpt lat="53.085188" lon="04.875596"><ele>1.4</ele><time>2021-12-08T12:22:24Z</time><name>PT223</name></trkpt>
<trkpt lat="53.085189" lon="04.875604"><ele>1.4</ele><time>2021-12-08T12:22:32Z</time><name>PT224</name></trkpt>
<trkpt lat="53.085188" lon="04.875615"><ele>1.4</ele><time>2021-12-08T12:22:33Z</time><name>PT225</name></trkpt>
<trkpt lat="53.085185" lon="04.875622"><ele>1.5</ele><time>2021-12-08T12:22:33Z</time><name>PT226</name></trkpt>
<trkpt lat="53.085187" lon="04.875625"><ele>1.5</ele><time>2021-12-08T12:22:35Z</time><name>PT227</name></trkpt>
<trkpt lat="53.085191" lon="04.875626"><ele>1.5</ele><time>2021-12-08T12:22:36Z</time><name>PT228</name></trkpt>
<trkpt lat="53.085191" lon="04.875634"><ele>1.4</ele><time>2021-12-08T12:22:36Z</time><name>PT229</name></trkpt>
<trkpt lat="53.085188" lon="04.875631"><ele>1.4</ele><time>2021-12-08T12:22:38Z</time><name>PT230</name></trkpt>
<trkpt lat="53.085182" lon="04.875625"><ele>1.4</ele><time>2021-12-08T12:22:39Z</time><name>PT231</name></trkpt>
<trkpt lat="53.085178" lon="04.875619"><ele>1.4</ele><time>2021-12-08T12:22:39Z</time><name>PT232</name></trkpt>
<trkpt lat="53.085177" lon="04.875619"><ele>1.4</ele><time>2021-12-08T12:22:41Z</time><name>PT233</name></trkpt>
<trkpt lat="53.085179" lon="04.875625"><ele>1.3</ele><time>2021-12-08T12:22:42Z</time><name>PT234</name></trkpt>
<trkpt lat="53.085180" lon="04.875625"><ele>1.1</ele><time>2021-12-08T12:22:42Z</time><name>PT235</name></trkpt>
<trkpt lat="53.085182" lon="04.875625"><ele>0.8</ele><time>2021-12-08T12:22:44Z</time><name>PT236</name></trkpt>
<trkpt lat="53.085180" lon="04.875625"><ele>0.8</ele><time>2021-12-08T12:22:45Z</time><name>PT237</name></trkpt>
<trkpt lat="53.085180" lon="04.875622"><ele>0.8</ele><time>2021-12-08T12:22:45Z</time><name>PT238</name></trkpt>
<trkpt lat="53.085178" lon="04.875620"><ele>0.8</ele><time>2021-12-08T12:22:47Z</time><name>PT239</name></trkpt>
<trkpt lat="53.085178" lon="04.875619"><ele>1.1</ele><time>2021-12-08T12:22:48Z</time><name>PT240</name></trkpt>
<trkpt lat="53.085180" lon="04.875622"><ele>1.2</ele><time>2021-12-08T12:22:48Z</time><name>PT241</name></trkpt>
<trkpt lat="53.085183" lon="04.875626"><ele>1.5</ele><time>2021-12-08T12:22:50Z</time><name>PT242</name></trkpt>
<trkpt lat="53.085183" lon="04.875637"><ele>1.9</ele><time>2021-12-08T12:22:51Z</time><name>PT243</name></trkpt>
<trkpt lat="53.085184" lon="04.875655"><ele>2</ele><time>2021-12-08T12:22:52Z</time><name>PT244</name></trkpt>
<trkpt lat="53.085190" lon="04.875667"><ele>2.1</ele><time>2021-12-08T12:22:53Z</time><name>PT245</name></trkpt>
<trkpt lat="53.085196" lon="04.875681"><ele>2</ele><time>2021-12-08T12:22:54Z</time><name>PT246</name></trkpt>
<trkpt lat="53.085203" lon="04.875690"><ele>1.9</ele><time>2021-12-08T12:22:55Z</time><name>PT247</name></trkpt>
<trkpt lat="53.085213" lon="04.875702"><ele>1.7</ele><time>2021-12-08T12:22:56Z</time><name>PT248</name></trkpt>
<trkpt lat="53.085222" lon="04.875721"><ele>1.3</ele><time>2021-12-08T12:22:57Z</time><name>PT249</name></trkpt>
<trkpt lat="53.085230" lon="04.875734"><ele>1.2</ele><time>2021-12-08T12:22:57Z</time><name>PT250</name></trkpt>
<trkpt lat="53.085238" lon="04.875744"><ele>1.1</ele><time>2021-12-08T12:22:59Z</time><name>PT251</name></trkpt>
<trkpt lat="53.085242" lon="04.875758"><ele>1.2</ele><time>2021-12-08T12:23:00Z</time><name>PT252</name></trkpt>
<trkpt lat="53.085244" lon="04.875771"><ele>1.1</ele><time>2021-12-08T12:23:00Z</time><name>PT253</name></trkpt>
<trkpt lat="53.085248" lon="04.875793"><ele>1.4</ele><time>2021-12-08T12:23:02Z</time><name>PT254</name></trkpt>
<trkpt lat="53.085254" lon="04.875815"><ele>1.3</ele><time>2021-12-08T12:23:03Z</time><name>PT255</name></trkpt>
<trkpt lat="53.085258" lon="04.875833"><ele>1.4</ele><time>2021-12-08T12:23:03Z</time><name>PT256</name></trkpt>
<trkpt lat="53.085263" lon="04.875850"><ele>1.4</ele><time>2021-12-08T12:23:05Z</time><name>PT257</name></trkpt>
<trkpt lat="53.085265" lon="04.875865"><ele>1.5</ele><time>2021-12-08T12:23:06Z</time><name>PT258</name></trkpt>
<trkpt lat="53.085267" lon="04.875882"><ele>1.4</ele><time>2021-12-08T12:23:07Z</time><name>PT259</name></trkpt>
<trkpt lat="53.085270" lon="04.875899"><ele>1.5</ele><time>2021-12-08T12:23:08Z</time><name>PT260</name></trkpt>
<trkpt lat="53.085277" lon="04.875918"><ele>1.4</ele><time>2021-12-08T12:23:09Z</time><name>PT261</name></trkpt>
<trkpt lat="53.085283" lon="04.875941"><ele>1.3</ele><time>2021-12-08T12:23:10Z</time><name>PT262</name></trkpt>
<trkpt lat="53.085288" lon="04.875968"><ele>1.2</ele><time>2021-12-08T12:23:11Z</time><name>PT263</name></trkpt>
<trkpt lat="53.085294" lon="04.875987"><ele>1.3</ele><time>2021-12-08T12:23:12Z</time><name>PT264</name></trkpt>
<trkpt lat="53.085300" lon="04.876003"><ele>1.3</ele><time>2021-12-08T12:23:13Z</time><name>PT265</name></trkpt>
<trkpt lat="53.085304" lon="04.876019"><ele>1.4</ele><time>2021-12-08T12:23:14Z</time><name>PT266</name></trkpt>
<trkpt lat="53.085304" lon="04.876039"><ele>1.3</ele><time>2021-12-08T12:23:15Z</time><name>PT267</name></trkpt>
<trkpt lat="53.085305" lon="04.876057"><ele>1.2</ele><time>2021-12-08T12:23:16Z</time><name>PT268</name></trkpt>
<trkpt lat="53.085311" lon="04.876076"><ele>1</ele><time>2021-12-08T12:23:17Z</time><name>PT269</name></trkpt>
<trkpt lat="53.085316" lon="04.876096"><ele>0.8</ele><time>2021-12-08T12:23:18Z</time><name>PT270</name></trkpt>
<trkpt lat="53.085322" lon="04.876112"><ele>0.8</ele><time>2021-12-08T12:23:19Z</time><name>PT271</name></trkpt>
<trkpt lat="53.085327" lon="04.876127"><ele>0.6</ele><time>2021-12-08T12:23:20Z</time><name>PT272</name></trkpt>
<trkpt lat="53.085332" lon="04.876145"><ele>0.7</ele><time>2021-12-08T12:23:21Z</time><name>PT273</name></trkpt>
<trkpt lat="53.085336" lon="04.876162"><ele>0.7</ele><time>2021-12-08T12:23:22Z</time><name>PT274</name></trkpt>
<trkpt lat="53.085341" lon="04.876179"><ele>0.8</ele><time>2021-12-08T12:23:23Z</time><name>PT275</name></trkpt>
<trkpt lat="53.085346" lon="04.876198"><ele>0.8</ele><time>2021-12-08T12:23:24Z</time><name>PT276</name></trkpt>
<trkpt lat="53.085351" lon="04.876216"><ele>0.9</ele><time>2021-12-08T12:23:24Z</time><name>PT277</name></trkpt>
<trkpt lat="53.085354" lon="04.876238"><ele>0.8</ele><time>2021-12-08T12:23:26Z</time><name>PT278</name></trkpt>
<trkpt lat="53.085362" lon="04.876256"><ele>0.8</ele><time>2021-12-08T12:23:27Z</time><name>PT279</name></trkpt>
<trkpt lat="53.085367" lon="04.876269"><ele>0.9</ele><time>2021-12-08T12:23:27Z</time><name>PT280</name></trkpt>
<trkpt lat="53.085370" lon="04.876283"><ele>0.8</ele><time>2021-12-08T12:23:29Z</time><name>PT281</name></trkpt>
<trkpt lat="53.085376" lon="04.876297"><ele>0.8</ele><time>2021-12-08T12:23:30Z</time><name>PT282</name></trkpt>
<trkpt lat="53.085380" lon="04.876314"><ele>0.8</ele><time>2021-12-08T12:23:30Z</time><name>PT283</name></trkpt>
<trkpt lat="53.085392" lon="04.876330"><ele>0.7</ele><time>2021-12-08T12:23:32Z</time><name>PT284</name></trkpt>
<trkpt lat="53.085397" lon="04.876347"><ele>0.8</ele><time>2021-12-08T12:23:33Z</time><name>PT285</name></trkpt>
<trkpt lat="53.085402" lon="04.876362"><ele>0.8</ele><time>2021-12-08T12:23:33Z</time><name>PT286</name></trkpt>
<trkpt lat="53.085405" lon="04.876377"><ele>0.9</ele><time>2021-12-08T12:23:35Z</time><name>PT287</name></trkpt>
<trkpt lat="53.085411" lon="04.876393"><ele>1.1</ele><time>2021-12-08T12:23:36Z</time><name>PT288</name></trkpt>
<trkpt lat="53.085420" lon="04.876402"><ele>1.1</ele><time>2021-12-08T12:23:36Z</time><name>PT289</name></trkpt>
<trkpt lat="53.085427" lon="04.876418"><ele>1</ele><time>2021-12-08T12:23:38Z</time><name>PT290</name></trkpt>
<trkpt lat="53.085431" lon="04.876435"><ele>0.9</ele><time>2021-12-08T12:23:39Z</time><name>PT291</name></trkpt>
<trkpt lat="53.085438" lon="04.876451"><ele>1</ele><time>2021-12-08T12:23:39Z</time><name>PT292</name></trkpt>
<trkpt lat="53.085446" lon="04.876470"><ele>1</ele><time>2021-12-08T12:23:41Z</time><name>PT293</name></trkpt>
<trkpt lat="53.085455" lon="04.876490"><ele>1</ele><time>2021-12-08T12:23:42Z</time><name>PT294</name></trkpt>
<trkpt lat="53.085464" lon="04.876506"><ele>1.1</ele><time>2021-12-08T12:23:42Z</time><name>PT295</name></trkpt>
<trkpt lat="53.085470" lon="04.876522"><ele>1.2</ele><time>2021-12-08T12:23:44Z</time><name>PT296</name></trkpt>
<trkpt lat="53.085474" lon="04.876533"><ele>1.1</ele><time>2021-12-08T12:23:45Z</time><name>PT297</name></trkpt>
<trkpt lat="53.085476" lon="04.876543"><ele>1</ele><time>2021-12-08T12:23:45Z</time><name>PT298</name></trkpt>
<trkpt lat="53.085482" lon="04.876557"><ele>0.9</ele><time>2021-12-08T12:23:47Z</time><name>PT299</name></trkpt>
<trkpt lat="53.085489" lon="04.876570"><ele>0.8</ele><time>2021-12-08T12:23:48Z</time><name>PT300</name></trkpt>
<trkpt lat="53.085497" lon="04.876589"><ele>1</ele><time>2021-12-08T12:23:48Z</time><name>PT301</name></trkpt>
<trkpt lat="53.085502" lon="04.876602"><ele>1.4</ele><time>2021-12-08T12:23:50Z</time><name>PT302</name></trkpt>
<trkpt lat="53.085512" lon="04.876617"><ele>1.5</ele><time>2021-12-08T12:23:51Z</time><name>PT303</name></trkpt>
<trkpt lat="53.085520" lon="04.876631"><ele>1.6</ele><time>2021-12-08T12:23:51Z</time><name>PT304</name></trkpt>
<trkpt lat="53.085527" lon="04.876635"><ele>1.7</ele><time>2021-12-08T12:23:53Z</time><name>PT305</name></trkpt>
<trkpt lat="53.085534" lon="04.876645"><ele>1.3</ele><time>2021-12-08T12:23:54Z</time><name>PT306</name></trkpt>
<trkpt lat="53.085537" lon="04.876655"><ele>1</ele><time>2021-12-08T12:23:54Z</time><name>PT307</name></trkpt>
<trkpt lat="53.085543" lon="04.876673"><ele>0.6</ele><time>2021-12-08T12:23:56Z</time><name>PT308</name></trkpt>
<trkpt lat="53.085548" lon="04.876690"><ele>0.4</ele><time>2021-12-08T12:23:57Z</time><name>PT309</name></trkpt>
<trkpt lat="53.085555" lon="04.876710"><ele>0.2</ele><time>2021-12-08T12:23:57Z</time><name>PT310</name></trkpt>
<trkpt lat="53.085561" lon="04.876721"><ele>0</ele><time>2021-12-08T12:23:59Z</time><name>PT311</name></trkpt>
<trkpt lat="53.085563" lon="04.876731"><ele>0.1</ele><time>2021-12-08T12:24:00Z</time><name>PT312</name></trkpt>
<trkpt lat="53.085565" lon="04.876745"><ele>0.2</ele><time>2021-12-08T12:24:00Z</time><name>PT313</name></trkpt>
<trkpt lat="53.085565" lon="04.876755"><ele>0.3</ele><time>2021-12-08T12:24:02Z</time><name>PT314</name></trkpt>
<trkpt lat="53.085563" lon="04.876761"><ele>0.6</ele><time>2021-12-08T12:24:03Z</time><name>PT315</name></trkpt>
<trkpt lat="53.085563" lon="04.876765"><ele>0.8</ele><time>2021-12-08T12:24:03Z</time><name>PT316</name></trkpt>
<trkpt lat="53.085563" lon="04.876767"><ele>0.8</ele><time>2021-12-08T12:24:05Z</time><name>PT317</name></trkpt>
<trkpt lat="53.085565" lon="04.876784"><ele>0.4</ele><time>2021-12-08T12:24:17Z</time><name>PT318</name></trkpt>
<trkpt lat="53.085568" lon="04.876801"><ele>0.4</ele><time>2021-12-08T12:24:18Z</time><name>PT319</name></trkpt>
<trkpt lat="53.085573" lon="04.876814"><ele>0.4</ele><time>2021-12-08T12:24:18Z</time><name>PT320</name></trkpt>
<trkpt lat="53.085579" lon="04.876828"><ele>0.6</ele><time>2021-12-08T12:24:20Z</time><name>PT321</name></trkpt>
<trkpt lat="53.085579" lon="04.876846"><ele>0.8</ele><time>2021-12-08T12:24:21Z</time><name>PT322</name></trkpt>
<trkpt lat="53.085579" lon="04.876862"><ele>0.7</ele><time>2021-12-08T12:24:21Z</time><name>PT323</name></trkpt>
<trkpt lat="53.085576" lon="04.876872"><ele>0.7</ele><time>2021-12-08T12:24:23Z</time><name>PT324</name></trkpt>
<trkpt lat="53.085575" lon="04.876890"><ele>0.6</ele><time>2021-12-08T12:24:24Z</time><name>PT325</name></trkpt>
<trkpt lat="53.085570" lon="04.876909"><ele>0.6</ele><time>2021-12-08T12:24:24Z</time><name>PT326</name></trkpt>
<trkpt lat="53.085566" lon="04.876921"><ele>0.7</ele><time>2021-12-08T12:24:26Z</time><name>PT327</name></trkpt>
<trkpt lat="53.085562" lon="04.876931"><ele>0.8</ele><time>2021-12-08T12:24:27Z</time><name>PT328</name></trkpt>
<trkpt lat="53.085557" lon="04.876939"><ele>0.8</ele><time>2021-12-08T12:24:27Z</time><name>PT329</name></trkpt>
<trkpt lat="53.085551" lon="04.876948"><ele>1</ele><time>2021-12-08T12:24:29Z</time><name>PT330</name></trkpt>
<trkpt lat="53.085545" lon="04.876952"><ele>0.9</ele><time>2021-12-08T12:24:30Z</time><name>PT331</name></trkpt>
<trkpt lat="53.085537" lon="04.876964"><ele>1</ele><time>2021-12-08T12:24:31Z</time><name>PT332</name></trkpt>
<trkpt lat="53.085528" lon="04.876977"><ele>0.8</ele><time>2021-12-08T12:24:32Z</time><name>PT333</name></trkpt>
<trkpt lat="53.085518" lon="04.876994"><ele>0.8</ele><time>2021-12-08T12:24:33Z</time><name>PT334</name></trkpt>
<trkpt lat="53.085508" lon="04.877011"><ele>0.8</ele><time>2021-12-08T12:24:34Z</time><name>PT335</name></trkpt>
<trkpt lat="53.085498" lon="04.877026"><ele>1</ele><time>2021-12-08T12:24:35Z</time><name>PT336</name></trkpt>
<trkpt lat="53.085488" lon="04.877040"><ele>1.1</ele><time>2021-12-08T12:24:36Z</time><name>PT337</name></trkpt>
<trkpt lat="53.085479" lon="04.877053"><ele>1.2</ele><time>2021-12-08T12:24:37Z</time><name>PT338</name></trkpt>
<trkpt lat="53.085473" lon="04.877070"><ele>1.3</ele><time>2021-12-08T12:24:38Z</time><name>PT339</name></trkpt>
<trkpt lat="53.085467" lon="04.877081"><ele>1.1</ele><time>2021-12-08T12:24:39Z</time><name>PT340</name></trkpt>
<trkpt lat="53.085463" lon="04.877089"><ele>1.2</ele><time>2021-12-08T12:24:40Z</time><name>PT341</name></trkpt>
<trkpt lat="53.085454" lon="04.877102"><ele>0.9</ele><time>2021-12-08T12:24:41Z</time><name>PT342</name></trkpt>
<trkpt lat="53.085442" lon="04.877116"><ele>0.8</ele><time>2021-12-08T12:24:42Z</time><name>PT343</name></trkpt>
<trkpt lat="53.085433" lon="04.877124"><ele>0.8</ele><time>2021-12-08T12:24:43Z</time><name>PT344</name></trkpt>
<trkpt lat="53.085425" lon="04.877136"><ele>0.8</ele><time>2021-12-08T12:24:44Z</time><name>PT345</name></trkpt>
<trkpt lat="53.085418" lon="04.877148"><ele>0.6</ele><time>2021-12-08T12:24:45Z</time><name>PT346</name></trkpt>
<trkpt lat="53.085411" lon="04.877160"><ele>0.6</ele><time>2021-12-08T12:24:45Z</time><name>PT347</name></trkpt>
<trkpt lat="53.085404" lon="04.877169"><ele>0.7</ele><time>2021-12-08T12:24:47Z</time><name>PT348</name></trkpt>
<trkpt lat="53.085395" lon="04.877177"><ele>0.6</ele><time>2021-12-08T12:24:48Z</time><name>PT349</name></trkpt>
<trkpt lat="53.085385" lon="04.877187"><ele>0.5</ele><time>2021-12-08T12:24:48Z</time><name>PT350</name></trkpt>
<trkpt lat="53.085375" lon="04.877194"><ele>0.5</ele><time>2021-12-08T12:24:50Z</time><name>PT351</name></trkpt>
<trkpt lat="53.085365" lon="04.877202"><ele>0.4</ele><time>2021-12-08T12:24:51Z</time><name>PT352</name></trkpt>
<trkpt lat="53.085355" lon="04.877213"><ele>0.5</ele><time>2021-12-08T12:24:52Z</time><name>PT353</name></trkpt>
<trkpt lat="53.085344" lon="04.877224"><ele>0.8</ele><time>2021-12-08T12:24:53Z</time><name>PT354</name></trkpt>
<trkpt lat="53.085333" lon="04.877231"><ele>0.9</ele><time>2021-12-08T12:24:54Z</time><name>PT355</name></trkpt>
<trkpt lat="53.085321" lon="04.877237"><ele>1.1</ele><time>2021-12-08T12:24:55Z</time><name>PT356</name></trkpt>
<trkpt lat="53.085312" lon="04.877241"><ele>1.3</ele><time>2021-12-08T12:24:56Z</time><name>PT357</name></trkpt>
<trkpt lat="53.085303" lon="04.877245"><ele>1.2</ele><time>2021-12-08T12:24:57Z</time><name>PT358</name></trkpt>
<trkpt lat="53.085295" lon="04.877251"><ele>0.9</ele><time>2021-12-08T12:24:58Z</time><name>PT359</name></trkpt>
<trkpt lat="53.085287" lon="04.877259"><ele>0.8</ele><time>2021-12-08T12:24:59Z</time><name>PT360</name></trkpt>
<trkpt lat="53.085281" lon="04.877264"><ele>0.7</ele><time>2021-12-08T12:25:00Z</time><name>PT361</name></trkpt>
<trkpt lat="53.085274" lon="04.877272"><ele>0.7</ele><time>2021-12-08T12:25:01Z</time><name>PT362</name></trkpt>
<trkpt lat="53.085265" lon="04.877278"><ele>0.5</ele><time>2021-12-08T12:25:02Z</time><name>PT363</name></trkpt>
<trkpt lat="53.085258" lon="04.877293"><ele>0.5</ele><time>2021-12-08T12:25:03Z</time><name>PT364</name></trkpt>
<trkpt lat="53.085249" lon="04.877302"><ele>0.7</ele><time>2021-12-08T12:25:04Z</time><name>PT365</name></trkpt>
<trkpt lat="53.085241" lon="04.877309"><ele>0.4</ele><time>2021-12-08T12:25:05Z</time><name>PT366</name></trkpt>
<trkpt lat="53.085233" lon="04.877315"><ele>0.3</ele><time>2021-12-08T12:25:06Z</time><name>PT367</name></trkpt>
<trkpt lat="53.085222" lon="04.877325"><ele>0.3</ele><time>2021-12-08T12:25:07Z</time><name>PT368</name></trkpt>
<trkpt lat="53.085209" lon="04.877335"><ele>0.3</ele><time>2021-12-08T12:25:08Z</time><name>PT369</name></trkpt>
<trkpt lat="53.085196" lon="04.877344"><ele>0</ele><time>2021-12-08T12:25:09Z</time><name>PT370</name></trkpt>
<trkpt lat="53.085186" lon="04.877351"><ele>0.1</ele><time>2021-12-08T12:25:09Z</time><name>PT371</name></trkpt>
<trkpt lat="53.085176" lon="04.877355"><ele>0</ele><time>2021-12-08T12:25:11Z</time><name>PT372</name></trkpt>
<trkpt lat="53.085168" lon="04.877359"><ele>0</ele><time>2021-12-08T12:25:12Z</time><name>PT373</name></trkpt>
<trkpt lat="53.085160" lon="04.877355"><ele>0</ele><time>2021-12-08T12:25:12Z</time><name>PT374</name></trkpt>
<trkpt lat="53.085151" lon="04.877352"><ele>0</ele><time>2021-12-08T12:25:14Z</time><name>PT375</name></trkpt>
<trkpt lat="53.085140" lon="04.877353"><ele>0.2</ele><time>2021-12-08T12:25:15Z</time><name>PT376</name></trkpt>
<trkpt lat="53.085122" lon="04.877349"><ele>0.4</ele><time>2021-12-08T12:25:15Z</time><name>PT377</name></trkpt>
<trkpt lat="53.085110" lon="04.877352"><ele>0.3</ele><time>2021-12-08T12:25:17Z</time><name>PT378</name></trkpt>
<trkpt lat="53.085099" lon="04.877355"><ele>0.4</ele><time>2021-12-08T12:25:18Z</time><name>PT379</name></trkpt>
<trkpt lat="53.085090" lon="04.877357"><ele>0.5</ele><time>2021-12-08T12:25:18Z</time><name>PT380</name></trkpt>
<trkpt lat="53.085082" lon="04.877364"><ele>0.7</ele><time>2021-12-08T12:25:20Z</time><name>PT381</name></trkpt>
<trkpt lat="53.085070" lon="04.877369"><ele>0.6</ele><time>2021-12-08T12:25:21Z</time><name>PT382</name></trkpt>
<trkpt lat="53.085057" lon="04.877374"><ele>0.7</ele><time>2021-12-08T12:25:21Z</time><name>PT383</name></trkpt>
<trkpt lat="53.085046" lon="04.877380"><ele>0.8</ele><time>2021-12-08T12:25:23Z</time><name>PT384</name></trkpt>
<trkpt lat="53.085035" lon="04.877386"><ele>0.6</ele><time>2021-12-08T12:25:24Z</time><name>PT385</name></trkpt>
<trkpt lat="53.085025" lon="04.877395"><ele>0.4</ele><time>2021-12-08T12:25:24Z</time><name>PT386</name></trkpt>
<trkpt lat="53.085013" lon="04.877405"><ele>0.3</ele><time>2021-12-08T12:25:26Z</time><name>PT387</name></trkpt>
<trkpt lat="53.085002" lon="04.877417"><ele>0</ele><time>2021-12-08T12:25:27Z</time><name>PT388</name></trkpt>
<trkpt lat="53.084993" lon="04.877429"><ele>0.1</ele><time>2021-12-08T12:25:27Z</time><name>PT389</name></trkpt>
<trkpt lat="53.084979" lon="04.877443"><ele>0.2</ele><time>2021-12-08T12:25:29Z</time><name>PT390</name></trkpt>
<trkpt lat="53.084966" lon="04.877454"><ele>0.1</ele><time>2021-12-08T12:25:30Z</time><name>PT391</name></trkpt>
<trkpt lat="53.084957" lon="04.877464"><ele>0</ele><time>2021-12-08T12:25:30Z</time><name>PT392</name></trkpt>
<trkpt lat="53.084948" lon="04.877475"><ele>0</ele><time>2021-12-08T12:25:32Z</time><name>PT393</name></trkpt>
<trkpt lat="53.084939" lon="04.877492"><ele>0.1</ele><time>2021-12-08T12:25:33Z</time><name>PT394</name></trkpt>
<trkpt lat="53.084931" lon="04.877511"><ele>0.1</ele><time>2021-12-08T12:25:33Z</time><name>PT395</name></trkpt>
<trkpt lat="53.084922" lon="04.877530"><ele>0.1</ele><time>2021-12-08T12:25:35Z</time><name>PT396</name></trkpt>
<trkpt lat="53.084915" lon="04.877544"><ele>0.2</ele><time>2021-12-08T12:25:36Z</time><name>PT397</name></trkpt>
<trkpt lat="53.084906" lon="04.877550"><ele>0.2</ele><time>2021-12-08T12:25:36Z</time><name>PT398</name></trkpt>
<trkpt lat="53.084895" lon="04.877558"><ele>0.1</ele><time>2021-12-08T12:25:38Z</time><name>PT399</name></trkpt>
<trkpt lat="53.084883" lon="04.877568"><ele>0</ele><time>2021-12-08T12:25:39Z</time><name>PT400</name></trkpt>
<trkpt lat="53.084879" lon="04.877581"><ele>0</ele><time>2021-12-08T12:25:39Z</time><name>PT401</name></trkpt>
<trkpt lat="53.084869" lon="04.877588"><ele>0.1</ele><time>2021-12-08T12:25:41Z</time><name>PT402</name></trkpt>
<trkpt lat="53.084855" lon="04.877596"><ele>0.2</ele><time>2021-12-08T12:25:42Z</time><name>PT403</name></trkpt>
<trkpt lat="53.084843" lon="04.877605"><ele>0.1</ele><time>2021-12-08T12:25:42Z</time><name>PT404</name></trkpt>
<trkpt lat="53.084837" lon="04.877611"><ele>0.1</ele><time>2021-12-08T12:25:44Z</time><name>PT405</name></trkpt>
<trkpt lat="53.084832" lon="04.877616"><ele>0</ele><time>2021-12-08T12:25:45Z</time><name>PT406</name></trkpt>
<trkpt lat="53.084823" lon="04.877621"><ele>0</ele><time>2021-12-08T12:25:45Z</time><name>PT407</name></trkpt>
<trkpt lat="53.084813" lon="04.877629"><ele>0.3</ele><time>2021-12-08T12:25:47Z</time><name>PT408</name></trkpt>
<trkpt lat="53.084802" lon="04.877641"><ele>0.3</ele><time>2021-12-08T12:25:48Z</time><name>PT409</name></trkpt>
<trkpt lat="53.084791" lon="04.877648"><ele>0.4</ele><time>2021-12-08T12:25:49Z</time><name>PT410</name></trkpt>
<trkpt lat="53.084782" lon="04.877654"><ele>0.5</ele><time>2021-12-08T12:25:50Z</time><name>PT411</name></trkpt>
<trkpt lat="53.084773" lon="04.877658"><ele>0.4</ele><time>2021-12-08T12:25:51Z</time><name>PT412</name></trkpt>
<trkpt lat="53.084763" lon="04.877662"><ele>0.3</ele><time>2021-12-08T12:25:52Z</time><name>PT413</name></trkpt>
<trkpt lat="53.084752" lon="04.877663"><ele>0.3</ele><time>2021-12-08T12:25:53Z</time><name>PT414</name></trkpt>
<trkpt lat="53.084739" lon="04.877667"><ele>0.3</ele><time>2021-12-08T12:25:54Z</time><name>PT415</name></trkpt>
<trkpt lat="53.084726" lon="04.877666"><ele>0.4</ele><time>2021-12-08T12:25:55Z</time><name>PT416</name></trkpt>
<trkpt lat="53.084714" lon="04.877668"><ele>0.6</ele><time>2021-12-08T12:25:56Z</time><name>PT417</name></trkpt>
<trkpt lat="53.084707" lon="04.877677"><ele>0.8</ele><time>2021-12-08T12:25:57Z</time><name>PT418</name></trkpt>
<trkpt lat="53.084699" lon="04.877680"><ele>0.8</ele><time>2021-12-08T12:25:58Z</time><name>PT419</name></trkpt>
<trkpt lat="53.084689" lon="04.877682"><ele>0.6</ele><time>2021-12-08T12:25:59Z</time><name>PT420</name></trkpt>
<trkpt lat="53.084682" lon="04.877690"><ele>0.4</ele><time>2021-12-08T12:26:00Z</time><name>PT421</name></trkpt>
<trkpt lat="53.084670" lon="04.877697"><ele>0.3</ele><time>2021-12-08T12:26:01Z</time><name>PT422</name></trkpt>
<trkpt lat="53.084658" lon="04.877710"><ele>0.3</ele><time>2021-12-08T12:26:02Z</time><name>PT423</name></trkpt>
<trkpt lat="53.084650" lon="04.877721"><ele>0.4</ele><time>2021-12-08T12:26:03Z</time><name>PT424</name></trkpt>
<trkpt lat="53.084643" lon="04.877730"><ele>0.5</ele><time>2021-12-08T12:26:03Z</time><name>PT425</name></trkpt>
<trkpt lat="53.084636" lon="04.877735"><ele>0.6</ele><time>2021-12-08T12:26:05Z</time><name>PT426</name></trkpt>
<trkpt lat="53.084624" lon="04.877745"><ele>0.5</ele><time>2021-12-08T12:26:06Z</time><name>PT427</name></trkpt>
<trkpt lat="53.084614" lon="04.877760"><ele>0.4</ele><time>2021-12-08T12:26:06Z</time><name>PT428</name></trkpt>
<trkpt lat="53.084605" lon="04.877764"><ele>0.4</ele><time>2021-12-08T12:26:08Z</time><name>PT429</name></trkpt>
<trkpt lat="53.084596" lon="04.877766"><ele>0.4</ele><time>2021-12-08T12:26:09Z</time><name>PT430</name></trkpt>
<trkpt lat="53.084586" lon="04.877768"><ele>0.6</ele><time>2021-12-08T12:26:09Z</time><name>PT431</name></trkpt>
<trkpt lat="53.084577" lon="04.877774"><ele>0.7</ele><time>2021-12-08T12:26:11Z</time><name>PT432</name></trkpt>
<trkpt lat="53.084566" lon="04.877779"><ele>0.6</ele><time>2021-12-08T12:26:12Z</time><name>PT433</name></trkpt>
<trkpt lat="53.084557" lon="04.877789"><ele>0.7</ele><time>2021-12-08T12:26:12Z</time><name>PT434</name></trkpt>
<trkpt lat="53.084549" lon="04.877797"><ele>0.6</ele><time>2021-12-08T12:26:14Z</time><name>PT435</name></trkpt>
<trkpt lat="53.084541" lon="04.877804"><ele>0.4</ele><time>2021-12-08T12:26:15Z</time><name>PT436</name></trkpt>
<trkpt lat="53.084531" lon="04.877807"><ele>0.4</ele><time>2021-12-08T12:26:15Z</time><name>PT437</name></trkpt>
<trkpt lat="53.084522" lon="04.877811"><ele>0.8</ele><time>2021-12-08T12:26:17Z</time><name>PT438</name></trkpt>
<trkpt lat="53.084511" lon="04.877816"><ele>0.9</ele><time>2021-12-08T12:26:18Z</time><name>PT439</name></trkpt>
<trkpt lat="53.084499" lon="04.877826"><ele>1</ele><time>2021-12-08T12:26:18Z</time><name>PT440</name></trkpt>
<trkpt lat="53.084489" lon="04.877834"><ele>1.2</ele><time>2021-12-08T12:26:20Z</time><name>PT441</name></trkpt>
<trkpt lat="53.084481" lon="04.877842"><ele>1.4</ele><time>2021-12-08T12:26:21Z</time><name>PT442</name></trkpt>
<trkpt lat="53.084472" lon="04.877846"><ele>1.3</ele><time>2021-12-08T12:26:21Z</time><name>PT443</name></trkpt>
<trkpt lat="53.084460" lon="04.877844"><ele>1.1</ele><time>2021-12-08T12:26:23Z</time><name>PT444</name></trkpt>
<trkpt lat="53.084445" lon="04.877838"><ele>1.1</ele><time>2021-12-08T12:26:24Z</time><name>PT445</name></trkpt>
<trkpt lat="53.084429" lon="04.877840"><ele>1.1</ele><time>2021-12-08T12:26:24Z</time><name>PT446</name></trkpt>
<trkpt lat="53.084416" lon="04.877856"><ele>0.8</ele><time>2021-12-08T12:26:26Z</time><name>PT447</name></trkpt>
<trkpt lat="53.084405" lon="04.877863"><ele>0.8</ele><time>2021-12-08T12:26:27Z</time><name>PT448</name></trkpt>
<trkpt lat="53.084395" lon="04.877867"><ele>0.7</ele><time>2021-12-08T12:26:27Z</time><name>PT449</name></trkpt>
<trkpt lat="53.084386" lon="04.877868"><ele>0.6</ele><time>2021-12-08T12:26:29Z</time><name>PT450</name></trkpt>
<trkpt lat="53.084377" lon="04.877865"><ele>0.7</ele><time>2021-12-08T12:26:30Z</time><name>PT451</name></trkpt>
<trkpt lat="53.084364" lon="04.877863"><ele>0.8</ele><time>2021-12-08T12:26:30Z</time><name>PT452</name></trkpt>
<trkpt lat="53.084353" lon="04.877862"><ele>0.6</ele><time>2021-12-08T12:26:32Z</time><name>PT453</name></trkpt>
<trkpt lat="53.084345" lon="04.877862"><ele>0.7</ele><time>2021-12-08T12:26:33Z</time><name>PT454</name></trkpt>
<trkpt lat="53.084337" lon="04.877860"><ele>0.7</ele><time>2021-12-08T12:26:33Z</time><name>PT455</name></trkpt>
<trkpt lat="53.084327" lon="04.877858"><ele>0.3</ele><time>2021-12-08T12:26:35Z</time><name>PT456</name></trkpt>
<trkpt lat="53.084320" lon="04.877852"><ele>0.4</ele><time>2021-12-08T12:26:36Z</time><name>PT457</name></trkpt>
<trkpt lat="53.084308" lon="04.877846"><ele>0.4</ele><time>2021-12-08T12:26:37Z</time><name>PT458</name></trkpt>
<trkpt lat="53.084294" lon="04.877840"><ele>0.5</ele><time>2021-12-08T12:26:38Z</time><name>PT459</name></trkpt>
<trkpt lat="53.084282" lon="04.877835"><ele>0.6</ele><time>2021-12-08T12:26:39Z</time><name>PT460</name></trkpt>
<trkpt lat="53.084272" lon="04.877828"><ele>0.7</ele><time>2021-12-08T12:26:40Z</time><name>PT461</name></trkpt>
<trkpt lat="53.084263" lon="04.877821"><ele>0.5</ele><time>2021-12-08T12:26:41Z</time><name>PT462</name></trkpt>
<trkpt lat="53.084254" lon="04.877815"><ele>0.5</ele><time>2021-12-08T12:26:42Z</time><name>PT463</name></trkpt>
<trkpt lat="53.084247" lon="04.877806"><ele>0.4</ele><time>2021-12-08T12:26:43Z</time><name>PT464</name></trkpt>
<trkpt lat="53.084237" lon="04.877794"><ele>0.4</ele><time>2021-12-08T12:26:44Z</time><name>PT465</name></trkpt>
<trkpt lat="53.084224" lon="04.877786"><ele>0.4</ele><time>2021-12-08T12:26:45Z</time><name>PT466</name></trkpt>
<trkpt lat="53.084211" lon="04.877779"><ele>0.4</ele><time>2021-12-08T12:26:45Z</time><name>PT467</name></trkpt>
<trkpt lat="53.084202" lon="04.877774"><ele>0.7</ele><time>2021-12-08T12:26:47Z</time><name>PT468</name></trkpt>
<trkpt lat="53.084191" lon="04.877769"><ele>0.8</ele><time>2021-12-08T12:26:48Z</time><name>PT469</name></trkpt>
<trkpt lat="53.084182" lon="04.877762"><ele>0.8</ele><time>2021-12-08T12:26:49Z</time><name>PT470</name></trkpt>
<trkpt lat="53.084173" lon="04.877755"><ele>0.8</ele><time>2021-12-08T12:26:50Z</time><name>PT471</name></trkpt>
<trkpt lat="53.084164" lon="04.877741"><ele>0.9</ele><time>2021-12-08T12:26:51Z</time><name>PT472</name></trkpt>
<trkpt lat="53.084152" lon="04.877730"><ele>0.9</ele><time>2021-12-08T12:26:51Z</time><name>PT473</name></trkpt>
<trkpt lat="53.084139" lon="04.877723"><ele>0.9</ele><time>2021-12-08T12:26:53Z</time><name>PT474</name></trkpt>
<trkpt lat="53.084127" lon="04.877718"><ele>0.9</ele><time>2021-12-08T12:26:54Z</time><name>PT475</name></trkpt>
<trkpt lat="53.084117" lon="04.877712"><ele>0.9</ele><time>2021-12-08T12:26:54Z</time><name>PT476</name></trkpt>
<trkpt lat="53.084107" lon="04.877710"><ele>0.8</ele><time>2021-12-08T12:26:56Z</time><name>PT477</name></trkpt>
<trkpt lat="53.084098" lon="04.877709"><ele>0.8</ele><time>2021-12-08T12:26:57Z</time><name>PT478</name></trkpt>
<trkpt lat="53.084088" lon="04.877708"><ele>0.8</ele><time>2021-12-08T12:26:57Z</time><name>PT479</name></trkpt>
<trkpt lat="53.084077" lon="04.877710"><ele>0.8</ele><time>2021-12-08T12:26:59Z</time><name>PT480</name></trkpt>
<trkpt lat="53.084066" lon="04.877710"><ele>0.7</ele><time>2021-12-08T12:27:00Z</time><name>PT481</name></trkpt>
<trkpt lat="53.084054" lon="04.877717"><ele>0.6</ele><time>2021-12-08T12:27:00Z</time><name>PT482</name></trkpt>
<trkpt lat="53.084046" lon="04.877724"><ele>0.6</ele><time>2021-12-08T12:27:02Z</time><name>PT483</name></trkpt>
<trkpt lat="53.084036" lon="04.877727"><ele>0.6</ele><time>2021-12-08T12:27:03Z</time><name>PT484</name></trkpt>
<trkpt lat="53.084027" lon="04.877727"><ele>0.6</ele><time>2021-12-08T12:27:03Z</time><name>PT485</name></trkpt>
<trkpt lat="53.084017" lon="04.877731"><ele>0.6</ele><time>2021-12-08T12:27:05Z</time><name>PT486</name></trkpt>
<trkpt lat="53.084004" lon="04.877731"><ele>0.7</ele><time>2021-12-08T12:27:06Z</time><name>PT487</name></trkpt>
<trkpt lat="53.083992" lon="04.877738"><ele>0.8</ele><time>2021-12-08T12:27:06Z</time><name>PT488</name></trkpt>
<trkpt lat="53.083979" lon="04.877749"><ele>0.8</ele><time>2021-12-08T12:27:08Z</time><name>PT489</name></trkpt>
<trkpt lat="53.083969" lon="04.877760"><ele>1</ele><time>2021-12-08T12:27:09Z</time><name>PT490</name></trkpt>
<trkpt lat="53.083958" lon="04.877770"><ele>1</ele><time>2021-12-08T12:27:09Z</time><name>PT491</name></trkpt>
<trkpt lat="53.083947" lon="04.877780"><ele>0.8</ele><time>2021-12-08T12:27:11Z</time><name>PT492</name></trkpt>
<trkpt lat="53.083935" lon="04.877783"><ele>0.6</ele><time>2021-12-08T12:27:12Z</time><name>PT493</name></trkpt>
<trkpt lat="53.083921" lon="04.877777"><ele>0.5</ele><time>2021-12-08T12:27:12Z</time><name>PT494</name></trkpt>
<trkpt lat="53.083908" lon="04.877783"><ele>0.4</ele><time>2021-12-08T12:27:14Z</time><name>PT495</name></trkpt>
<trkpt lat="53.083895" lon="04.877795"><ele>0.4</ele><time>2021-12-08T12:27:15Z</time><name>PT496</name></trkpt>
<trkpt lat="53.083886" lon="04.877803"><ele>0.6</ele><time>2021-12-08T12:27:15Z</time><name>PT497</name></trkpt>
<trkpt lat="53.083877" lon="04.877812"><ele>0.6</ele><time>2021-12-08T12:27:17Z</time><name>PT498</name></trkpt>
<trkpt lat="53.083868" lon="04.877819"><ele>0.7</ele><time>2021-12-08T12:27:18Z</time><name>PT499</name></trkpt>
<trkpt lat="53.083858" lon="04.877825"><ele>0.7</ele><time>2021-12-08T12:27:18Z</time><name>PT500</name></trkpt>
<trkpt lat="53.083847" lon="04.877829"><ele>0.7</ele><time>2021-12-08T12:27:20Z</time><name>PT501</name></trkpt>
<trkpt lat="53.083838" lon="04.877840"><ele>0.8</ele><time>2021-12-08T12:27:21Z</time><name>PT502</name></trkpt>
<trkpt lat="53.083828" lon="04.877857"><ele>0.8</ele><time>2021-12-08T12:27:21Z</time><name>PT503</name></trkpt>
<trkpt lat="53.083820" lon="04.877881"><ele>1</ele><time>2021-12-08T12:27:23Z</time><name>PT504</name></trkpt>
<trkpt lat="53.083813" lon="04.877902"><ele>0.9</ele><time>2021-12-08T12:27:24Z</time><name>PT505</name></trkpt>
<trkpt lat="53.083806" lon="04.877921"><ele>0.9</ele><time>2021-12-08T12:27:24Z</time><name>PT506</name></trkpt>
<trkpt lat="53.083801" lon="04.877939"><ele>1</ele><time>2021-12-08T12:27:26Z</time><name>PT507</name></trkpt>
<trkpt lat="53.083800" lon="04.877953"><ele>0.8</ele><time>2021-12-08T12:27:27Z</time><name>PT508</name></trkpt>
<trkpt lat="53.083801" lon="04.877970"><ele>0.7</ele><time>2021-12-08T12:27:27Z</time><name>PT509</name></trkpt>
<trkpt lat="53.083799" lon="04.877985"><ele>0.8</ele><time>2021-12-08T12:27:29Z</time><name>PT510</name></trkpt>
<trkpt lat="53.083794" lon="04.878003"><ele>0.8</ele><time>2021-12-08T12:27:30Z</time><name>PT511</name></trkpt>
<trkpt lat="53.083788" lon="04.878027"><ele>0.7</ele><time>2021-12-08T12:27:30Z</time><name>PT512</name></trkpt>
<trkpt lat="53.083784" lon="04.878047"><ele>0.8</ele><time>2021-12-08T12:27:32Z</time><name>PT513</name></trkpt>
<trkpt lat="53.083783" lon="04.878068"><ele>0.8</ele><time>2021-12-08T12:27:33Z</time><name>PT514</name></trkpt>
<trkpt lat="53.083780" lon="04.878085"><ele>0.8</ele><time>2021-12-08T12:27:33Z</time><name>PT515</name></trkpt>
<trkpt lat="53.083779" lon="04.878105"><ele>0.7</ele><time>2021-12-08T12:27:35Z</time><name>PT516</name></trkpt>
<trkpt lat="53.083777" lon="04.878123"><ele>0.7</ele><time>2021-12-08T12:27:36Z</time><name>PT517</name></trkpt>
<trkpt lat="53.083776" lon="04.878140"><ele>0.6</ele><time>2021-12-08T12:27:36Z</time><name>PT518</name></trkpt>
<trkpt lat="53.083774" lon="04.878159"><ele>0.7</ele><time>2021-12-08T12:27:38Z</time><name>PT519</name></trkpt>
<trkpt lat="53.083768" lon="04.878173"><ele>0.6</ele><time>2021-12-08T12:27:39Z</time><name>PT520</name></trkpt>
<trkpt lat="53.083765" lon="04.878194"><ele>0.8</ele><time>2021-12-08T12:27:39Z</time><name>PT521</name></trkpt>
<trkpt lat="53.083762" lon="04.878218"><ele>0.8</ele><time>2021-12-08T12:27:41Z</time><name>PT522</name></trkpt>
<trkpt lat="53.083764" lon="04.878240"><ele>0.6</ele><time>2021-12-08T12:27:42Z</time><name>PT523</name></trkpt>
<trkpt lat="53.083762" lon="04.878263"><ele>0.6</ele><time>2021-12-08T12:27:43Z</time><name>PT524</name></trkpt>
<trkpt lat="53.083761" lon="04.878284"><ele>0.6</ele><time>2021-12-08T12:27:44Z</time><name>PT525</name></trkpt>
<trkpt lat="53.083763" lon="04.878302"><ele>0.6</ele><time>2021-12-08T12:27:45Z</time><name>PT526</name></trkpt>
<trkpt lat="53.083762" lon="04.878313"><ele>0.6</ele><time>2021-12-08T12:27:46Z</time><name>PT527</name></trkpt>
<trkpt lat="53.083756" lon="04.878320"><ele>0.6</ele><time>2021-12-08T12:27:47Z</time><name>PT528</name></trkpt>
<trkpt lat="53.083751" lon="04.878339"><ele>0.5</ele><time>2021-12-08T12:27:48Z</time><name>PT529</name></trkpt>
<trkpt lat="53.083740" lon="04.878359"><ele>0.3</ele><time>2021-12-08T12:27:48Z</time><name>PT530</name></trkpt>
<trkpt lat="53.083732" lon="04.878378"><ele>0.4</ele><time>2021-12-08T12:27:50Z</time><name>PT531</name></trkpt>
<trkpt lat="53.083722" lon="04.878400"><ele>0.6</ele><time>2021-12-08T12:27:51Z</time><name>PT532</name></trkpt>
<trkpt lat="53.083716" lon="04.878422"><ele>0.6</ele><time>2021-12-08T12:27:51Z</time><name>PT533</name></trkpt>
<trkpt lat="53.083710" lon="04.878439"><ele>0.9</ele><time>2021-12-08T12:27:53Z</time><name>PT534</name></trkpt>
<trkpt lat="53.083705" lon="04.878453"><ele>1</ele><time>2021-12-08T12:27:54Z</time><name>PT535</name></trkpt>
<trkpt lat="53.083699" lon="04.878466"><ele>1</ele><time>2021-12-08T12:27:54Z</time><name>PT536</name></trkpt>
<trkpt lat="53.083690" lon="04.878478"><ele>1.1</ele><time>2021-12-08T12:27:56Z</time><name>PT537</name></trkpt>
<trkpt lat="53.083682" lon="04.878487"><ele>1.2</ele><time>2021-12-08T12:27:57Z</time><name>PT538</name></trkpt>
<trkpt lat="53.083674" lon="04.878498"><ele>1.4</ele><time>2021-12-08T12:27:57Z</time><name>PT539</name></trkpt>
<trkpt lat="53.083661" lon="04.878514"><ele>1.4</ele><time>2021-12-08T12:27:59Z</time><name>PT540</name></trkpt>
<trkpt lat="53.083650" lon="04.878527"><ele>1.4</ele><time>2021-12-08T12:28:00Z</time><name>PT541</name></trkpt>
<trkpt lat="53.083638" lon="04.878540"><ele>1.6</ele><time>2021-12-08T12:28:00Z</time><name>PT542</name></trkpt>
<trkpt lat="53.083629" lon="04.878550"><ele>1.6</ele><time>2021-12-08T12:28:02Z</time><name>PT543</name></trkpt>
<trkpt lat="53.083621" lon="04.878562"><ele>1.5</ele><time>2021-12-08T12:28:03Z</time><name>PT544</name></trkpt>
<trkpt lat="53.083614" lon="04.878572"><ele>1.6</ele><time>2021-12-08T12:28:04Z</time><name>PT545</name></trkpt>
<trkpt lat="53.083605" lon="04.878579"><ele>1.7</ele><time>2021-12-08T12:28:05Z</time><name>PT546</name></trkpt>
<trkpt lat="53.083598" lon="04.878587"><ele>1.9</ele><time>2021-12-08T12:28:06Z</time><name>PT547</name></trkpt>
<trkpt lat="53.083588" lon="04.878600"><ele>1.9</ele><time>2021-12-08T12:28:07Z</time><name>PT548</name></trkpt>
<trkpt lat="53.083579" lon="04.878614"><ele>2.1</ele><time>2021-12-08T12:28:08Z</time><name>PT549</name></trkpt>
<trkpt lat="53.083569" lon="04.878627"><ele>2.3</ele><time>2021-12-08T12:28:09Z</time><name>PT550</name></trkpt>
<trkpt lat="53.083560" lon="04.878636"><ele>2.5</ele><time>2021-12-08T12:28:10Z</time><name>PT551</name></trkpt>
<trkpt lat="53.083548" lon="04.878639"><ele>2.4</ele><time>2021-12-08T12:28:11Z</time><name>PT552</name></trkpt>
<trkpt lat="53.083536" lon="04.878642"><ele>2.4</ele><time>2021-12-08T12:28:12Z</time><name>PT553</name></trkpt>
<trkpt lat="53.083525" lon="04.878646"><ele>2.4</ele><time>2021-12-08T12:28:13Z</time><name>PT554</name></trkpt>
<trkpt lat="53.083514" lon="04.878653"><ele>2.6</ele><time>2021-12-08T12:28:14Z</time><name>PT555</name></trkpt>
<trkpt lat="53.083506" lon="04.878660"><ele>2.6</ele><time>2021-12-08T12:28:15Z</time><name>PT556</name></trkpt>
<trkpt lat="53.083496" lon="04.878668"><ele>2.6</ele><time>2021-12-08T12:28:16Z</time><name>PT557</name></trkpt>
<trkpt lat="53.083485" lon="04.878675"><ele>2.7</ele><time>2021-12-08T12:28:17Z</time><name>PT558</name></trkpt>
<trkpt lat="53.083473" lon="04.878682"><ele>2.4</ele><time>2021-12-08T12:28:18Z</time><name>PT559</name></trkpt>
<trkpt lat="53.083461" lon="04.878690"><ele>2.4</ele><time>2021-12-08T12:28:18Z</time><name>PT560</name></trkpt>
<trkpt lat="53.083450" lon="04.878698"><ele>2.3</ele><time>2021-12-08T12:28:20Z</time><name>PT561</name></trkpt>
<trkpt lat="53.083439" lon="04.878703"><ele>2.4</ele><time>2021-12-08T12:28:21Z</time><name>PT562</name></trkpt>
<trkpt lat="53.083427" lon="04.878705"><ele>2.5</ele><time>2021-12-08T12:28:21Z</time><name>PT563</name></trkpt>
<trkpt lat="53.083419" lon="04.878716"><ele>2.4</ele><time>2021-12-08T12:28:23Z</time><name>PT564</name></trkpt>
<trkpt lat="53.083414" lon="04.878727"><ele>1.6</ele><time>2021-12-08T12:28:24Z</time><name>PT565</name></trkpt>
<trkpt lat="53.083405" lon="04.878732"><ele>1.9</ele><time>2021-12-08T12:28:24Z</time><name>PT566</name></trkpt>
<trkpt lat="53.083395" lon="04.878737"><ele>2.1</ele><time>2021-12-08T12:28:26Z</time><name>PT567</name></trkpt>
<trkpt lat="53.083382" lon="04.878746"><ele>2.4</ele><time>2021-12-08T12:28:27Z</time><name>PT568</name></trkpt>
<trkpt lat="53.083371" lon="04.878756"><ele>3</ele><time>2021-12-08T12:28:27Z</time><name>PT569</name></trkpt>
<trkpt lat="53.083358" lon="04.878766"><ele>3.4</ele><time>2021-12-08T12:28:29Z</time><name>PT570</name></trkpt>
<trkpt lat="53.083348" lon="04.878773"><ele>3.1</ele><time>2021-12-08T12:28:30Z</time><name>PT571</name></trkpt>
<trkpt lat="53.083338" lon="04.878779"><ele>3.1</ele><time>2021-12-08T12:28:30Z</time><name>PT572</name></trkpt>
<trkpt lat="53.083329" lon="04.878787"><ele>2.6</ele><time>2021-12-08T12:28:32Z</time><name>PT573</name></trkpt>
<trkpt lat="53.083320" lon="04.878791"><ele>2.8</ele><time>2021-12-08T12:28:33Z</time><name>PT574</name></trkpt>
<trkpt lat="53.083312" lon="04.878794"><ele>3</ele><time>2021-12-08T12:28:33Z</time><name>PT575</name></trkpt>
<trkpt lat="53.083305" lon="04.878802"><ele>3.1</ele><time>2021-12-08T12:28:35Z</time><name>PT576</name></trkpt>
<trkpt lat="53.083296" lon="04.878810"><ele>3.6</ele><time>2021-12-08T12:28:36Z</time><name>PT577</name></trkpt>
<trkpt lat="53.083287" lon="04.878817"><ele>3.8</ele><time>2021-12-08T12:28:36Z</time><name>PT578</name></trkpt>
<trkpt lat="53.083277" lon="04.878828"><ele>3.2</ele><time>2021-12-08T12:28:38Z</time><name>PT579</name></trkpt>
<trkpt lat="53.083270" lon="04.878834"><ele>2.6</ele><time>2021-12-08T12:28:39Z</time><name>PT580</name></trkpt>
<trkpt lat="53.083263" lon="04.878839"><ele>2.3</ele><time>2021-12-08T12:28:39Z</time><name>PT581</name></trkpt>
<trkpt lat="53.083258" lon="04.878842"><ele>1.5</ele><time>2021-12-08T12:28:41Z</time><name>PT582</name></trkpt>
<trkpt lat="53.083257" lon="04.878853"><ele>1</ele><time>2021-12-08T12:28:42Z</time><name>PT583</name></trkpt>
<trkpt lat="53.083261" lon="04.878855"><ele>0.8</ele><time>2021-12-08T12:28:42Z</time><name>PT584</name></trkpt>
<trkpt lat="53.083263" lon="04.878855"><ele>0.8</ele><time>2021-12-08T12:28:44Z</time><name>PT585</name></trkpt>
<trkpt lat="53.083261" lon="04.878851"><ele>0.9</ele><time>2021-12-08T12:28:45Z</time><name>PT586</name></trkpt>
<trkpt lat="53.083261" lon="04.878850"><ele>0.9</ele><time>2021-12-08T12:28:45Z</time><name>PT587</name></trkpt>
<trkpt lat="53.083262" lon="04.878850"><ele>1.3</ele><time>2021-12-08T12:28:47Z</time><name>PT588</name></trkpt>
<trkpt lat="53.083257" lon="04.878852"><ele>0.1</ele><time>2021-12-08T12:28:51Z</time><name>PT589</name></trkpt>
<trkpt lat="53.083256" lon="04.878860"><ele>0.7</ele><time>2021-12-08T12:28:53Z</time><name>PT590</name></trkpt>
<trkpt lat="53.083255" lon="04.878862"><ele>0.3</ele><time>2021-12-08T12:28:54Z</time><name>PT591</name></trkpt>
<trkpt lat="53.083258" lon="04.878865"><ele>0.2</ele><time>2021-12-08T12:28:54Z</time><name>PT592</name></trkpt>
<trkpt lat="53.083258" lon="04.878864"><ele>0.2</ele><time>2021-12-08T12:28:56Z</time><name>PT593</name></trkpt>
<trkpt lat="53.083257" lon="04.878864"><ele>0</ele><time>2021-12-08T12:28:57Z</time><name>PT594</name></trkpt>
<trkpt lat="53.083251" lon="04.878868"><ele>0.3</ele><time>2021-12-08T12:28:57Z</time><name>PT595</name></trkpt>
<trkpt lat="53.083246" lon="04.878875"><ele>0.4</ele><time>2021-12-08T12:28:59Z</time><name>PT596</name></trkpt>
<trkpt lat="53.083243" lon="04.878882"><ele>0.7</ele><time>2021-12-08T12:29:00Z</time><name>PT597</name></trkpt>
<trkpt lat="53.083241" lon="04.878887"><ele>0.7</ele><time>2021-12-08T12:29:00Z</time><name>PT598</name></trkpt>
<trkpt lat="53.083241" lon="04.878890"><ele>0.7</ele><time>2021-12-08T12:29:02Z</time><name>PT599</name></trkpt>
<trkpt lat="53.083240" lon="04.878884"><ele>0.3</ele><time>2021-12-08T12:29:03Z</time><name>PT600</name></trkpt>
<trkpt lat="53.083240" lon="04.878888"><ele>0.3</ele><time>2021-12-08T12:29:03Z</time><name>PT601</name></trkpt>
<trkpt lat="53.083241" lon="04.878890"><ele>0.1</ele><time>2021-12-08T12:29:05Z</time><name>PT602</name></trkpt>
<trkpt lat="53.083246" lon="04.878886"><ele>0</ele><time>2021-12-08T12:29:06Z</time><name>PT603</name></trkpt>
<trkpt lat="53.083250" lon="04.878889"><ele>0.1</ele><time>2021-12-08T12:29:06Z</time><name>PT604</name></trkpt>
<trkpt lat="53.083249" lon="04.878891"><ele>0.3</ele><time>2021-12-08T12:29:08Z</time><name>PT605</name></trkpt>
<trkpt lat="53.083247" lon="04.878892"><ele>0.3</ele><time>2021-12-08T12:29:09Z</time><name>PT606</name></trkpt>
<trkpt lat="53.083248" lon="04.878893"><ele>0.3</ele><time>2021-12-08T12:29:09Z</time><name>PT607</name></trkpt>
<trkpt lat="53.083248" lon="04.878892"><ele>0.3</ele><time>2021-12-08T12:29:11Z</time><name>PT608</name></trkpt>
<trkpt lat="53.083248" lon="04.878898"><ele>0.4</ele><time>2021-12-08T12:29:15Z</time><name>PT609</name></trkpt>
<trkpt lat="53.083246" lon="04.878914"><ele>0.4</ele><time>2021-12-08T12:29:17Z</time><name>PT610</name></trkpt>
<trkpt lat="53.083245" lon="04.878924"><ele>0.5</ele><time>2021-12-08T12:29:18Z</time><name>PT611</name></trkpt>
<trkpt lat="53.083246" lon="04.878933"><ele>0.5</ele><time>2021-12-08T12:29:18Z</time><name>PT612</name></trkpt>
<trkpt lat="53.083248" lon="04.878935"><ele>0.4</ele><time>2021-12-08T12:29:20Z</time><name>PT613</name></trkpt>
<trkpt lat="53.083246" lon="04.878937"><ele>0.2</ele><time>2021-12-08T12:29:21Z</time><name>PT614</name></trkpt>
<trkpt lat="53.083248" lon="04.878952"><ele>0.1</ele><time>2021-12-08T12:29:21Z</time><name>PT615</name></trkpt>
<trkpt lat="53.083250" lon="04.878967"><ele>0.1</ele><time>2021-12-08T12:29:23Z</time><name>PT616</name></trkpt>
<trkpt lat="53.083253" lon="04.878982"><ele>0.2</ele><time>2021-12-08T12:29:24Z</time><name>PT617</name></trkpt>
<trkpt lat="53.083258" lon="04.878999"><ele>0.2</ele><time>2021-12-08T12:29:24Z</time><name>PT618</name></trkpt>
<trkpt lat="53.083260" lon="04.879018"><ele>0.3</ele><time>2021-12-08T12:29:26Z</time><name>PT619</name></trkpt>
<trkpt lat="53.083258" lon="04.879037"><ele>0.5</ele><time>2021-12-08T12:29:27Z</time><name>PT620</name></trkpt>
<trkpt lat="53.083258" lon="04.879061"><ele>0.5</ele><time>2021-12-08T12:29:28Z</time><name>PT621</name></trkpt>
<trkpt lat="53.083264" lon="04.879084"><ele>0.5</ele><time>2021-12-08T12:29:29Z</time><name>PT622</name></trkpt>
<trkpt lat="53.083270" lon="04.879108"><ele>0.6</ele><time>2021-12-08T12:29:30Z</time><name>PT623</name></trkpt>
<trkpt lat="53.083276" lon="04.879128"><ele>0.6</ele><time>2021-12-08T12:29:31Z</time><name>PT624</name></trkpt>
<trkpt lat="53.083282" lon="04.879147"><ele>0.5</ele><time>2021-12-08T12:29:32Z</time><name>PT625</name></trkpt>
<trkpt lat="53.083286" lon="04.879167"><ele>0.6</ele><time>2021-12-08T12:29:33Z</time><name>PT626</name></trkpt>
<trkpt lat="53.083284" lon="04.879184"><ele>0.7</ele><time>2021-12-08T12:29:34Z</time><name>PT627</name></trkpt>
<trkpt lat="53.083284" lon="04.879204"><ele>0.4</ele><time>2021-12-08T12:29:35Z</time><name>PT628</name></trkpt>
<trkpt lat="53.083281" lon="04.879228"><ele>0.5</ele><time>2021-12-08T12:29:36Z</time><name>PT629</name></trkpt>
<trkpt lat="53.083278" lon="04.879254"><ele>0.7</ele><time>2021-12-08T12:29:37Z</time><name>PT630</name></trkpt>
<trkpt lat="53.083277" lon="04.879279"><ele>0.7</ele><time>2021-12-08T12:29:38Z</time><name>PT631</name></trkpt>
<trkpt lat="53.083278" lon="04.879302"><ele>0.8</ele><time>2021-12-08T12:29:39Z</time><name>PT632</name></trkpt>
<trkpt lat="53.083279" lon="04.879322"><ele>0.8</ele><time>2021-12-08T12:29:40Z</time><name>PT633</name></trkpt>
<trkpt lat="53.083279" lon="04.879339"><ele>0.7</ele><time>2021-12-08T12:29:41Z</time><name>PT634</name></trkpt>
<trkpt lat="53.083279" lon="04.879352"><ele>0.5</ele><time>2021-12-08T12:29:42Z</time><name>PT635</name></trkpt>
<trkpt lat="53.083277" lon="04.879364"><ele>0.4</ele><time>2021-12-08T12:29:42Z</time><name>PT636</name></trkpt>
<trkpt lat="53.083273" lon="04.879376"><ele>0.3</ele><time>2021-12-08T12:29:44Z</time><name>PT637</name></trkpt>
<trkpt lat="53.083267" lon="04.879391"><ele>0.2</ele><time>2021-12-08T12:29:45Z</time><name>PT638</name></trkpt>
<trkpt lat="53.083260" lon="04.879410"><ele>0.1</ele><time>2021-12-08T12:29:45Z</time><name>PT639</name></trkpt>
<trkpt lat="53.083254" lon="04.879423"><ele>0.1</ele><time>2021-12-08T12:29:47Z</time><name>PT640</name></trkpt>
<trkpt lat="53.083249" lon="04.879430"><ele>0.1</ele><time>2021-12-08T12:29:48Z</time><name>PT641</name></trkpt>
<trkpt lat="53.083243" lon="04.879436"><ele>0.1</ele><time>2021-12-08T12:29:48Z</time><name>PT642</name></trkpt>
<trkpt lat="53.083239" lon="04.879437"><ele>0.1</ele><time>2021-12-08T12:29:50Z</time><name>PT643</name></trkpt>
<trkpt lat="53.083234" lon="04.879439"><ele>0.3</ele><time>2021-12-08T12:29:51Z</time><name>PT644</name></trkpt>
<trkpt lat="53.083231" lon="04.879443"><ele>0.3</ele><time>2021-12-08T12:29:51Z</time><name>PT645</name></trkpt>
<trkpt lat="53.083229" lon="04.879451"><ele>0.3</ele><time>2021-12-08T12:29:53Z</time><name>PT646</name></trkpt>
<trkpt lat="53.083229" lon="04.879455"><ele>0.4</ele><time>2021-12-08T12:29:54Z</time><name>PT647</name></trkpt>
<trkpt lat="53.083230" lon="04.879448"><ele>0.3</ele><time>2021-12-08T12:29:54Z</time><name>PT648</name></trkpt>
<trkpt lat="53.083233" lon="04.879449"><ele>0.3</ele><time>2021-12-08T12:29:56Z</time><name>PT649</name></trkpt>
<trkpt lat="53.083233" lon="04.879447"><ele>0.4</ele><time>2021-12-08T12:29:57Z</time><name>PT650</name></trkpt>
<trkpt lat="53.083235" lon="04.879447"><ele>0.4</ele><time>2021-12-08T12:29:57Z</time><name>PT651</name></trkpt>
<trkpt lat="53.083234" lon="04.879454"><ele>0.2</ele><time>2021-12-08T12:30:00Z</time><name>PT652</name></trkpt>
<trkpt lat="53.083224" lon="04.879471"><ele>0.3</ele><time>2021-12-08T12:30:02Z</time><name>PT653</name></trkpt>
<trkpt lat="53.083211" lon="04.879484"><ele>0.3</ele><time>2021-12-08T12:30:03Z</time><name>PT654</name></trkpt>
<trkpt lat="53.083199" lon="04.879501"><ele>0.3</ele><time>2021-12-08T12:30:03Z</time><name>PT655</name></trkpt>
<trkpt lat="53.083185" lon="04.879518"><ele>0.4</ele><time>2021-12-08T12:30:05Z</time><name>PT656</name></trkpt>
<trkpt lat="53.083177" lon="04.879526"><ele>0.7</ele><time>2021-12-08T12:30:06Z</time><name>PT657</name></trkpt>
<trkpt lat="53.083169" lon="04.879534"><ele>0.5</ele><time>2021-12-08T12:30:06Z</time><name>PT658</name></trkpt>
<trkpt lat="53.083160" lon="04.879542"><ele>0.3</ele><time>2021-12-08T12:30:08Z</time><name>PT659</name></trkpt>
<trkpt lat="53.083151" lon="04.879546"><ele>0.3</ele><time>2021-12-08T12:30:09Z</time><name>PT660</name></trkpt>
<trkpt lat="53.083138" lon="04.879548"><ele>0.3</ele><time>2021-12-08T12:30:09Z</time><name>PT661</name></trkpt>
<trkpt lat="53.083126" lon="04.879554"><ele>0.1</ele><time>2021-12-08T12:30:11Z</time><name>PT662</name></trkpt>
<trkpt lat="53.083114" lon="04.879562"><ele>0.1</ele><time>2021-12-08T12:30:12Z</time><name>PT663</name></trkpt>
<trkpt lat="53.083100" lon="04.879569"><ele>0.2</ele><time>2021-12-08T12:30:12Z</time><name>PT664</name></trkpt>
<trkpt lat="53.083087" lon="04.879582"><ele>0.1</ele><time>2021-12-08T12:30:14Z</time><name>PT665</name></trkpt>
<trkpt lat="53.083075" lon="04.879594"><ele>0.2</ele><time>2021-12-08T12:30:15Z</time><name>PT666</name></trkpt>
<trkpt lat="53.083062" lon="04.879601"><ele>0.2</ele><time>2021-12-08T12:30:15Z</time><name>PT667</name></trkpt>
<trkpt lat="53.083053" lon="04.879609"><ele>0.2</ele><time>2021-12-08T12:30:17Z</time><name>PT668</name></trkpt>
<trkpt lat="53.083049" lon="04.879622"><ele>0.3</ele><time>2021-12-08T12:30:18Z</time><name>PT669</name></trkpt>
<trkpt lat="53.083042" lon="04.879628"><ele>0.1</ele><time>2021-12-08T12:30:18Z</time><name>PT670</name></trkpt>
<trkpt lat="53.083030" lon="04.879631"><ele>0.2</ele><time>2021-12-08T12:30:20Z</time><name>PT671</name></trkpt>
<trkpt lat="53.083018" lon="04.879637"><ele>0.3</ele><time>2021-12-08T12:30:21Z</time><name>PT672</name></trkpt>
<trkpt lat="53.083004" lon="04.879641"><ele>0.3</ele><time>2021-12-08T12:30:21Z</time><name>PT673</name></trkpt>
<trkpt lat="53.082990" lon="04.879651"><ele>0.3</ele><time>2021-12-08T12:30:23Z</time><name>PT674</name></trkpt>
<trkpt lat="53.082975" lon="04.879664"><ele>0.3</ele><time>2021-12-08T12:30:24Z</time><name>PT675</name></trkpt>
<trkpt lat="53.082961" lon="04.879679"><ele>0.3</ele><time>2021-12-08T12:30:24Z</time><name>PT676</name></trkpt>
<trkpt lat="53.082952" lon="04.879686"><ele>0.3</ele><time>2021-12-08T12:30:26Z</time><name>PT677</name></trkpt>
<trkpt lat="53.082945" lon="04.879695"><ele>0.3</ele><time>2021-12-08T12:30:27Z</time><name>PT678</name></trkpt>
<trkpt lat="53.082936" lon="04.879699"><ele>0.3</ele><time>2021-12-08T12:30:28Z</time><name>PT679</name></trkpt>
<trkpt lat="53.082927" lon="04.879707"><ele>0.5</ele><time>2021-12-08T12:30:29Z</time><name>PT680</name></trkpt>
<trkpt lat="53.082918" lon="04.879711"><ele>0.4</ele><time>2021-12-08T12:30:30Z</time><name>PT681</name></trkpt>
<trkpt lat="53.082907" lon="04.879719"><ele>0.4</ele><time>2021-12-08T12:30:31Z</time><name>PT682</name></trkpt>
<trkpt lat="53.082895" lon="04.879728"><ele>0.5</ele><time>2021-12-08T12:30:32Z</time><name>PT683</name></trkpt>
<trkpt lat="53.082882" lon="04.879738"><ele>0.3</ele><time>2021-12-08T12:30:33Z</time><name>PT684</name></trkpt>
<trkpt lat="53.082870" lon="04.879748"><ele>0.3</ele><time>2021-12-08T12:30:33Z</time><name>PT685</name></trkpt>
<trkpt lat="53.082865" lon="04.879763"><ele>0.3</ele><time>2021-12-08T12:30:35Z</time><name>PT686</name></trkpt>
<trkpt lat="53.082856" lon="04.879772"><ele>0.3</ele><time>2021-12-08T12:30:36Z</time><name>PT687</name></trkpt>
<trkpt lat="53.082847" lon="04.879778"><ele>0.2</ele><time>2021-12-08T12:30:37Z</time><name>PT688</name></trkpt>
<trkpt lat="53.082837" lon="04.879780"><ele>0.1</ele><time>2021-12-08T12:30:38Z</time><name>PT689</name></trkpt>
<trkpt lat="53.082826" lon="04.879785"><ele>0.2</ele><time>2021-12-08T12:30:39Z</time><name>PT690</name></trkpt>
<trkpt lat="53.082815" lon="04.879789"><ele>0.2</ele><time>2021-12-08T12:30:40Z</time><name>PT691</name></trkpt>
<trkpt lat="53.082802" lon="04.879796"><ele>0.1</ele><time>2021-12-08T12:30:41Z</time><name>PT692</name></trkpt>
<trkpt lat="53.082789" lon="04.879808"><ele>0</ele><time>2021-12-08T12:30:42Z</time><name>PT693</name></trkpt>
<trkpt lat="53.082775" lon="04.879819"><ele>0</ele><time>2021-12-08T12:30:43Z</time><name>PT694</name></trkpt>
<trkpt lat="53.082762" lon="04.879833"><ele>0</ele><time>2021-12-08T12:30:44Z</time><name>PT695</name></trkpt>
<trkpt lat="53.082753" lon="04.879847"><ele>0</ele><time>2021-12-08T12:30:45Z</time><name>PT696</name></trkpt>
<trkpt lat="53.082744" lon="04.879853"><ele>0.3</ele><time>2021-12-08T12:30:45Z</time><name>PT697</name></trkpt>
<trkpt lat="53.082735" lon="04.879855"><ele>0.6</ele><time>2021-12-08T12:30:47Z</time><name>PT698</name></trkpt>
<trkpt lat="53.082725" lon="04.879856"><ele>0.7</ele><time>2021-12-08T12:30:48Z</time><name>PT699</name></trkpt>
<trkpt lat="53.082714" lon="04.879860"><ele>0.6</ele><time>2021-12-08T12:30:48Z</time><name>PT700</name></trkpt>
<trkpt lat="53.082701" lon="04.879865"><ele>0.5</ele><time>2021-12-08T12:30:50Z</time><name>PT701</name></trkpt>
<trkpt lat="53.082688" lon="04.879873"><ele>0.6</ele><time>2021-12-08T12:30:51Z</time><name>PT702</name></trkpt>
<trkpt lat="53.082674" lon="04.879884"><ele>0.8</ele><time>2021-12-08T12:30:51Z</time><name>PT703</name></trkpt>
<trkpt lat="53.082661" lon="04.879898"><ele>1</ele><time>2021-12-08T12:30:53Z</time><name>PT704</name></trkpt>
<trkpt lat="53.082652" lon="04.879910"><ele>1.2</ele><time>2021-12-08T12:30:54Z</time><name>PT705</name></trkpt>
<trkpt lat="53.082642" lon="04.879917"><ele>1.4</ele><time>2021-12-08T12:30:54Z</time><name>PT706</name></trkpt>
<trkpt lat="53.082632" lon="04.879922"><ele>1.3</ele><time>2021-12-08T12:30:56Z</time><name>PT707</name></trkpt>
<trkpt lat="53.082620" lon="04.879927"><ele>1</ele><time>2021-12-08T12:30:57Z</time><name>PT708</name></trkpt>
<trkpt lat="53.082609" lon="04.879930"><ele>1</ele><time>2021-12-08T12:30:57Z</time><name>PT709</name></trkpt>
<trkpt lat="53.082595" lon="04.879935"><ele>0.9</ele><time>2021-12-08T12:30:59Z</time><name>PT710</name></trkpt>
<trkpt lat="53.082580" lon="04.879939"><ele>0.7</ele><time>2021-12-08T12:31:00Z</time><name>PT711</name></trkpt>
<trkpt lat="53.082565" lon="04.879947"><ele>0.6</ele><time>2021-12-08T12:31:00Z</time><name>PT712</name></trkpt>
<trkpt lat="53.082552" lon="04.879958"><ele>0.7</ele><time>2021-12-08T12:31:02Z</time><name>PT713</name></trkpt>
<trkpt lat="53.082539" lon="04.879965"><ele>0.6</ele><time>2021-12-08T12:31:03Z</time><name>PT714</name></trkpt>
<trkpt lat="53.082527" lon="04.879975"><ele>0.5</ele><time>2021-12-08T12:31:03Z</time><name>PT715</name></trkpt>
<trkpt lat="53.082516" lon="04.879981"><ele>0.7</ele><time>2021-12-08T12:31:05Z</time><name>PT716</name></trkpt>
<trkpt lat="53.082504" lon="04.879983"><ele>0.8</ele><time>2021-12-08T12:31:06Z</time><name>PT717</name></trkpt>
<trkpt lat="53.082493" lon="04.879986"><ele>0.8</ele><time>2021-12-08T12:31:06Z</time><name>PT718</name></trkpt>
<trkpt lat="53.082481" lon="04.879990"><ele>0.7</ele><time>2021-12-08T12:31:08Z</time><name>PT719</name></trkpt>
<trkpt lat="53.082469" lon="04.879995"><ele>0.8</ele><time>2021-12-08T12:31:09Z</time><name>PT720</name></trkpt>
<trkpt lat="53.082457" lon="04.880001"><ele>0.8</ele><time>2021-12-08T12:31:09Z</time><name>PT721</name></trkpt>
<trkpt lat="53.082444" lon="04.880009"><ele>0.6</ele><time>2021-12-08T12:31:11Z</time><name>PT722</name></trkpt>
<trkpt lat="53.082434" lon="04.880017"><ele>0.8</ele><time>2021-12-08T12:31:12Z</time><name>PT723</name></trkpt>
<trkpt lat="53.082424" lon="04.880022"><ele>0.8</ele><time>2021-12-08T12:31:13Z</time><name>PT724</name></trkpt>
<trkpt lat="53.082413" lon="04.880026"><ele>0.8</ele><time>2021-12-08T12:31:14Z</time><name>PT725</name></trkpt>
<trkpt lat="53.082403" lon="04.880030"><ele>0.7</ele><time>2021-12-08T12:31:15Z</time><name>PT726</name></trkpt>
<trkpt lat="53.082396" lon="04.880031"><ele>0.8</ele><time>2021-12-08T12:31:16Z</time><name>PT727</name></trkpt>
<trkpt lat="53.082387" lon="04.880039"><ele>0.8</ele><time>2021-12-08T12:31:17Z</time><name>PT728</name></trkpt>
<trkpt lat="53.082377" lon="04.880040"><ele>1</ele><time>2021-12-08T12:31:18Z</time><name>PT729</name></trkpt>
<trkpt lat="53.082365" lon="04.880043"><ele>0.9</ele><time>2021-12-08T12:31:19Z</time><name>PT730</name></trkpt>
<trkpt lat="53.082354" lon="04.880051"><ele>1</ele><time>2021-12-08T12:31:20Z</time><name>PT731</name></trkpt>
<trkpt lat="53.082343" lon="04.880063"><ele>0.9</ele><time>2021-12-08T12:31:21Z</time><name>PT732</name></trkpt>
<trkpt lat="53.082331" lon="04.880070"><ele>0.9</ele><time>2021-12-08T12:31:22Z</time><name>PT733</name></trkpt>
<trkpt lat="53.082322" lon="04.880075"><ele>0.8</ele><time>2021-12-08T12:31:23Z</time><name>PT734</name></trkpt>
<trkpt lat="53.082313" lon="04.880080"><ele>0.8</ele><time>2021-12-08T12:31:24Z</time><name>PT735</name></trkpt>
<trkpt lat="53.082303" lon="04.880084"><ele>0.8</ele><time>2021-12-08T12:31:25Z</time><name>PT736</name></trkpt>
<trkpt lat="53.082293" lon="04.880086"><ele>0.8</ele><time>2021-12-08T12:31:26Z</time><name>PT737</name></trkpt>
<trkpt lat="53.082282" lon="04.880090"><ele>0.7</ele><time>2021-12-08T12:31:27Z</time><name>PT738</name></trkpt>
<trkpt lat="53.082270" lon="04.880095"><ele>0.7</ele><time>2021-12-08T12:31:28Z</time><name>PT739</name></trkpt>
<trkpt lat="53.082256" lon="04.880102"><ele>0.8</ele><time>2021-12-08T12:31:29Z</time><name>PT740</name></trkpt>
<trkpt lat="53.082243" lon="04.880111"><ele>0.8</ele><time>2021-12-08T12:31:30Z</time><name>PT741</name></trkpt>
<trkpt lat="53.082233" lon="04.880117"><ele>0.9</ele><time>2021-12-08T12:31:30Z</time><name>PT742</name></trkpt>
<trkpt lat="53.082223" lon="04.880124"><ele>1</ele><time>2021-12-08T12:31:32Z</time><name>PT743</name></trkpt>
<trkpt lat="53.082213" lon="04.880128"><ele>0.9</ele><time>2021-12-08T12:31:33Z</time><name>PT744</name></trkpt>
<trkpt lat="53.082204" lon="04.880132"><ele>1</ele><time>2021-12-08T12:31:33Z</time><name>PT745</name></trkpt>
<trkpt lat="53.082193" lon="04.880135"><ele>1.2</ele><time>2021-12-08T12:31:35Z</time><name>PT746</name></trkpt>
<trkpt lat="53.082182" lon="04.880140"><ele>1.4</ele><time>2021-12-08T12:31:36Z</time><name>PT747</name></trkpt>
<trkpt lat="53.082168" lon="04.880147"><ele>1.4</ele><time>2021-12-08T12:31:36Z</time><name>PT748</name></trkpt>
<trkpt lat="53.082154" lon="04.880154"><ele>1.4</ele><time>2021-12-08T12:31:38Z</time><name>PT749</name></trkpt>
<trkpt lat="53.082142" lon="04.880159"><ele>1.2</ele><time>2021-12-08T12:31:39Z</time><name>PT750</name></trkpt>
<trkpt lat="53.082129" lon="04.880167"><ele>1.4</ele><time>2021-12-08T12:31:39Z</time><name>PT751</name></trkpt>
<trkpt lat="53.082117" lon="04.880176"><ele>0.9</ele><time>2021-12-08T12:31:41Z</time><name>PT752</name></trkpt>
<trkpt lat="53.082104" lon="04.880180"><ele>1.4</ele><time>2021-12-08T12:31:42Z</time><name>PT753</name></trkpt>
<trkpt lat="53.082093" lon="04.880182"><ele>1.3</ele><time>2021-12-08T12:31:42Z</time><name>PT754</name></trkpt>
<trkpt lat="53.082084" lon="04.880188"><ele>1.4</ele><time>2021-12-08T12:31:44Z</time><name>PT755</name></trkpt>
<trkpt lat="53.082075" lon="04.880198"><ele>1.4</ele><time>2021-12-08T12:31:45Z</time><name>PT756</name></trkpt>
<trkpt lat="53.082063" lon="04.880206"><ele>1.5</ele><time>2021-12-08T12:31:45Z</time><name>PT757</name></trkpt>
<trkpt lat="53.082048" lon="04.880213"><ele>1.3</ele><time>2021-12-08T12:31:47Z</time><name>PT758</name></trkpt>
<trkpt lat="53.082034" lon="04.880220"><ele>1.5</ele><time>2021-12-08T12:31:48Z</time><name>PT759</name></trkpt>
<trkpt lat="53.082022" lon="04.880228"><ele>1.5</ele><time>2021-12-08T12:31:48Z</time><name>PT760</name></trkpt>
<trkpt lat="53.082011" lon="04.880237"><ele>1.5</ele><time>2021-12-08T12:31:50Z</time><name>PT761</name></trkpt>
<trkpt lat="53.082001" lon="04.880244"><ele>1.4</ele><time>2021-12-08T12:31:51Z</time><name>PT762</name></trkpt>
<trkpt lat="53.081990" lon="04.880247"><ele>1.3</ele><time>2021-12-08T12:31:51Z</time><name>PT763</name></trkpt>
<trkpt lat="53.081977" lon="04.880249"><ele>1.2</ele><time>2021-12-08T12:31:53Z</time><name>PT764</name></trkpt>
<trkpt lat="53.081966" lon="04.880255"><ele>1.4</ele><time>2021-12-08T12:31:54Z</time><name>PT765</name></trkpt>
<trkpt lat="53.081955" lon="04.880259"><ele>1.6</ele><time>2021-12-08T12:31:54Z</time><name>PT766</name></trkpt>
<trkpt lat="53.081942" lon="04.880258"><ele>1.8</ele><time>2021-12-08T12:31:56Z</time><name>PT767</name></trkpt>
<trkpt lat="53.081929" lon="04.880262"><ele>1.9</ele><time>2021-12-08T12:31:57Z</time><name>PT768</name></trkpt>
<trkpt lat="53.081916" lon="04.880269"><ele>1.9</ele><time>2021-12-08T12:31:57Z</time><name>PT769</name></trkpt>
<trkpt lat="53.081903" lon="04.880273"><ele>1.7</ele><time>2021-12-08T12:31:59Z</time><name>PT770</name></trkpt>
<trkpt lat="53.081892" lon="04.880279"><ele>1.4</ele><time>2021-12-08T12:32:00Z</time><name>PT771</name></trkpt>
<trkpt lat="53.081881" lon="04.880284"><ele>1.6</ele><time>2021-12-08T12:32:00Z</time><name>PT772</name></trkpt>
<trkpt lat="53.081869" lon="04.880287"><ele>1.6</ele><time>2021-12-08T12:32:02Z</time><name>PT773</name></trkpt>
<trkpt lat="53.081861" lon="04.880290"><ele>2.1</ele><time>2021-12-08T12:32:03Z</time><name>PT774</name></trkpt>
<trkpt lat="53.081854" lon="04.880289"><ele>2.2</ele><time>2021-12-08T12:32:03Z</time><name>PT775</name></trkpt>
<trkpt lat="53.081844" lon="04.880296"><ele>2.4</ele><time>2021-12-08T12:32:05Z</time><name>PT776</name></trkpt>
<trkpt lat="53.081833" lon="04.880303"><ele>2.6</ele><time>2021-12-08T12:32:06Z</time><name>PT777</name></trkpt>
<trkpt lat="53.081821" lon="04.880313"><ele>2.8</ele><time>2021-12-08T12:32:06Z</time><name>PT778</name></trkpt>
<trkpt lat="53.081810" lon="04.880312"><ele>2.8</ele><time>2021-12-08T12:32:08Z</time><name>PT779</name></trkpt>
<trkpt lat="53.081809" lon="04.880316"><ele>3</ele><time>2021-12-08T12:32:09Z</time><name>PT780</name></trkpt>
<trkpt lat="53.081808" lon="04.880318"><ele>2.8</ele><time>2021-12-08T12:32:09Z</time><name>PT781</name></trkpt>
<trkpt lat="53.081805" lon="04.880320"><ele>2.5</ele><time>2021-12-08T12:32:11Z</time><name>PT782</name></trkpt>
<trkpt lat="53.081802" lon="04.880319"><ele>2.5</ele><time>2021-12-08T12:32:12Z</time><name>PT783</name></trkpt>
<trkpt lat="53.081795" lon="04.880321"><ele>2.4</ele><time>2021-12-08T12:32:12Z</time><name>PT784</name></trkpt>
<trkpt lat="53.081787" lon="04.880320"><ele>2.2</ele><time>2021-12-08T12:32:14Z</time><name>PT785</name></trkpt>
<trkpt lat="53.081777" lon="04.880323"><ele>2.5</ele><time>2021-12-08T12:32:15Z</time><name>PT786</name></trkpt>
<trkpt lat="53.081764" lon="04.880333"><ele>2.7</ele><time>2021-12-08T12:32:15Z</time><name>PT787</name></trkpt>
<trkpt lat="53.081751" lon="04.880346"><ele>2.5</ele><time>2021-12-08T12:32:17Z</time><name>PT788</name></trkpt>
<trkpt lat="53.081738" lon="04.880356"><ele>2.4</ele><time>2021-12-08T12:32:18Z</time><name>PT789</name></trkpt>
<trkpt lat="53.081725" lon="04.880365"><ele>2.3</ele><time>2021-12-08T12:32:19Z</time><name>PT790</name></trkpt>
<trkpt lat="53.081715" lon="04.880371"><ele>1.7</ele><time>2021-12-08T12:32:20Z</time><name>PT791</name></trkpt>
<trkpt lat="53.081705" lon="04.880378"><ele>1.8</ele><time>2021-12-08T12:32:21Z</time><name>PT792</name></trkpt>
<trkpt lat="53.081700" lon="04.880384"><ele>2</ele><time>2021-12-08T12:32:21Z</time><name>PT793</name></trkpt>
<trkpt lat="53.081696" lon="04.880389"><ele>2</ele><time>2021-12-08T12:32:23Z</time><name>PT794</name></trkpt>
<trkpt lat="53.081687" lon="04.880397"><ele>2.4</ele><time>2021-12-08T12:32:24Z</time><name>PT795</name></trkpt>
<trkpt lat="53.081674" lon="04.880407"><ele>2.4</ele><time>2021-12-08T12:32:24Z</time><name>PT796</name></trkpt>
<trkpt lat="53.081665" lon="04.880413"><ele>2.2</ele><time>2021-12-08T12:32:26Z</time><name>PT797</name></trkpt>
<trkpt lat="53.081658" lon="04.880418"><ele>2</ele><time>2021-12-08T12:32:27Z</time><name>PT798</name></trkpt>
<trkpt lat="53.081651" lon="04.880422"><ele>1.9</ele><time>2021-12-08T12:32:27Z</time><name>PT799</name></trkpt>
<trkpt lat="53.081644" lon="04.880424"><ele>1.7</ele><time>2021-12-08T12:32:29Z</time><name>PT800</name></trkpt>
<trkpt lat="53.081636" lon="04.880429"><ele>1.8</ele><time>2021-12-08T12:32:30Z</time><name>PT801</name></trkpt>
<trkpt lat="53.081629" lon="04.880435"><ele>2</ele><time>2021-12-08T12:32:30Z</time><name>PT802</name></trkpt>
<trkpt lat="53.081620" lon="04.880440"><ele>2.3</ele><time>2021-12-08T12:32:32Z</time><name>PT803</name></trkpt>
<trkpt lat="53.081610" lon="04.880444"><ele>2.4</ele><time>2021-12-08T12:32:33Z</time><name>PT804</name></trkpt>
<trkpt lat="53.081598" lon="04.880452"><ele>2.5</ele><time>2021-12-08T12:32:33Z</time><name>PT805</name></trkpt>
<trkpt lat="53.081584" lon="04.880461"><ele>2.2</ele><time>2021-12-08T12:32:35Z</time><name>PT806</name></trkpt>
<trkpt lat="53.081571" lon="04.880471"><ele>1.9</ele><time>2021-12-08T12:32:36Z</time><name>PT807</name></trkpt>
<trkpt lat="53.081559" lon="04.880481"><ele>1.8</ele><time>2021-12-08T12:32:36Z</time><name>PT808</name></trkpt>
<trkpt lat="53.081549" lon="04.880489"><ele>1.6</ele><time>2021-12-08T12:32:38Z</time><name>PT809</name></trkpt>
<trkpt lat="53.081537" lon="04.880498"><ele>1.8</ele><time>2021-12-08T12:32:39Z</time><name>PT810</name></trkpt>
<trkpt lat="53.081527" lon="04.880503"><ele>1.9</ele><time>2021-12-08T12:32:40Z</time><name>PT811</name></trkpt>
<trkpt lat="53.081516" lon="04.880508"><ele>1.6</ele><time>2021-12-08T12:32:41Z</time><name>PT812</name></trkpt>
<trkpt lat="53.081506" lon="04.880512"><ele>1.5</ele><time>2021-12-08T12:32:42Z</time><name>PT813</name></trkpt>
<trkpt lat="53.081496" lon="04.880518"><ele>1.6</ele><time>2021-12-08T12:32:43Z</time><name>PT814</name></trkpt>
<trkpt lat="53.081481" lon="04.880524"><ele>1.2</ele><time>2021-12-08T12:32:44Z</time><name>PT815</name></trkpt>
<trkpt lat="53.081466" lon="04.880534"><ele>1.4</ele><time>2021-12-08T12:32:45Z</time><name>PT816</name></trkpt>
<trkpt lat="53.081454" lon="04.880545"><ele>1.4</ele><time>2021-12-08T12:32:46Z</time><name>PT817</name></trkpt>
<trkpt lat="53.081442" lon="04.880557"><ele>1.2</ele><time>2021-12-08T12:32:47Z</time><name>PT818</name></trkpt>
<trkpt lat="53.081431" lon="04.880567"><ele>1</ele><time>2021-12-08T12:32:48Z</time><name>PT819</name></trkpt>
<trkpt lat="53.081421" lon="04.880581"><ele>1.1</ele><time>2021-12-08T12:32:49Z</time><name>PT820</name></trkpt>
<trkpt lat="53.081411" lon="04.880591"><ele>0.8</ele><time>2021-12-08T12:32:50Z</time><name>PT821</name></trkpt>
<trkpt lat="53.081402" lon="04.880598"><ele>1.1</ele><time>2021-12-08T12:32:51Z</time><name>PT822</name></trkpt>
<trkpt lat="53.081395" lon="04.880603"><ele>1.4</ele><time>2021-12-08T12:32:52Z</time><name>PT823</name></trkpt>
<trkpt lat="53.081387" lon="04.880608"><ele>1.5</ele><time>2021-12-08T12:32:53Z</time><name>PT824</name></trkpt>
<trkpt lat="53.081378" lon="04.880616"><ele>1.8</ele><time>2021-12-08T12:32:54Z</time><name>PT825</name></trkpt>
<trkpt lat="53.081367" lon="04.880624"><ele>1.6</ele><time>2021-12-08T12:32:55Z</time><name>PT826</name></trkpt>
<trkpt lat="53.081353" lon="04.880633"><ele>1.5</ele><time>2021-12-08T12:32:56Z</time><name>PT827</name></trkpt>
<trkpt lat="53.081341" lon="04.880644"><ele>1.4</ele><time>2021-12-08T12:32:57Z</time><name>PT828</name></trkpt>
<trkpt lat="53.081329" lon="04.880657"><ele>1.2</ele><time>2021-12-08T12:32:57Z</time><name>PT829</name></trkpt>
<trkpt lat="53.081318" lon="04.880666"><ele>1.1</ele><time>2021-12-08T12:32:59Z</time><name>PT830</name></trkpt>
<trkpt lat="53.081309" lon="04.880674"><ele>1.2</ele><time>2021-12-08T12:33:00Z</time><name>PT831</name></trkpt>
<trkpt lat="53.081300" lon="04.880682"><ele>1.3</ele><time>2021-12-08T12:33:00Z</time><name>PT832</name></trkpt>
<trkpt lat="53.081288" lon="04.880687"><ele>1.4</ele><time>2021-12-08T12:33:02Z</time><name>PT833</name></trkpt>
<trkpt lat="53.081279" lon="04.880694"><ele>1.3</ele><time>2021-12-08T12:33:03Z</time><name>PT834</name></trkpt>
<trkpt lat="53.081270" lon="04.880702"><ele>1.3</ele><time>2021-12-08T12:33:03Z</time><name>PT835</name></trkpt>
<trkpt lat="53.081259" lon="04.880710"><ele>1.3</ele><time>2021-12-08T12:33:05Z</time><name>PT836</name></trkpt>
<trkpt lat="53.081246" lon="04.880720"><ele>1.1</ele><time>2021-12-08T12:33:06Z</time><name>PT837</name></trkpt>
<trkpt lat="53.081232" lon="04.880734"><ele>1.1</ele><time>2021-12-08T12:33:06Z</time><name>PT838</name></trkpt>
<trkpt lat="53.081216" lon="04.880745"><ele>1.3</ele><time>2021-12-08T12:33:08Z</time><name>PT839</name></trkpt>
<trkpt lat="53.081203" lon="04.880757"><ele>1.4</ele><time>2021-12-08T12:33:09Z</time><name>PT840</name></trkpt>
<trkpt lat="53.081194" lon="04.880767"><ele>1.5</ele><time>2021-12-08T12:33:09Z</time><name>PT841</name></trkpt>
<trkpt lat="53.081184" lon="04.880774"><ele>1.6</ele><time>2021-12-08T12:33:11Z</time><name>PT842</name></trkpt>
<trkpt lat="53.081174" lon="04.880783"><ele>1.9</ele><time>2021-12-08T12:33:12Z</time><name>PT843</name></trkpt>
<trkpt lat="53.081164" lon="04.880793"><ele>1.8</ele><time>2021-12-08T12:33:12Z</time><name>PT844</name></trkpt>
<trkpt lat="53.081155" lon="04.880800"><ele>1.7</ele><time>2021-12-08T12:33:14Z</time><name>PT845</name></trkpt>
<trkpt lat="53.081145" lon="04.880805"><ele>1.8</ele><time>2021-12-08T12:33:15Z</time><name>PT846</name></trkpt>
<trkpt lat="53.081133" lon="04.880813"><ele>1.4</ele><time>2021-12-08T12:33:15Z</time><name>PT847</name></trkpt>
<trkpt lat="53.081119" lon="04.880823"><ele>1.5</ele><time>2021-12-08T12:33:17Z</time><name>PT848</name></trkpt>
<trkpt lat="53.081105" lon="04.880833"><ele>1.7</ele><time>2021-12-08T12:33:18Z</time><name>PT849</name></trkpt>
<trkpt lat="53.081093" lon="04.880840"><ele>1.5</ele><time>2021-12-08T12:33:18Z</time><name>PT850</name></trkpt>
<trkpt lat="53.081085" lon="04.880846"><ele>1.7</ele><time>2021-12-08T12:33:20Z</time><name>PT851</name></trkpt>
<trkpt lat="53.081077" lon="04.880855"><ele>1.7</ele><time>2021-12-08T12:33:21Z</time><name>PT852</name></trkpt>
<trkpt lat="53.081066" lon="04.880863"><ele>1.7</ele><time>2021-12-08T12:33:21Z</time><name>PT853</name></trkpt>
<trkpt lat="53.081057" lon="04.880870"><ele>1.8</ele><time>2021-12-08T12:33:23Z</time><name>PT854</name></trkpt>
<trkpt lat="53.081047" lon="04.880874"><ele>1.7</ele><time>2021-12-08T12:33:24Z</time><name>PT855</name></trkpt>
<trkpt lat="53.081037" lon="04.880880"><ele>1.7</ele><time>2021-12-08T12:33:24Z</time><name>PT856</name></trkpt>
<trkpt lat="53.081025" lon="04.880887"><ele>1.5</ele><time>2021-12-08T12:33:26Z</time><name>PT857</name></trkpt>
<trkpt lat="53.081011" lon="04.880895"><ele>1.4</ele><time>2021-12-08T12:33:27Z</time><name>PT858</name></trkpt>
<trkpt lat="53.080998" lon="04.880905"><ele>1.2</ele><time>2021-12-08T12:33:27Z</time><name>PT859</name></trkpt>
<trkpt lat="53.080984" lon="04.880916"><ele>1.2</ele><time>2021-12-08T12:33:29Z</time><name>PT860</name></trkpt>
<trkpt lat="53.080971" lon="04.880924"><ele>1.3</ele><time>2021-12-08T12:33:30Z</time><name>PT861</name></trkpt>
<trkpt lat="53.080960" lon="04.880933"><ele>1.4</ele><time>2021-12-08T12:33:30Z</time><name>PT862</name></trkpt>
<trkpt lat="53.080948" lon="04.880946"><ele>1.4</ele><time>2021-12-08T12:33:32Z</time><name>PT863</name></trkpt>
<trkpt lat="53.080938" lon="04.880956"><ele>1.6</ele><time>2021-12-08T12:33:33Z</time><name>PT864</name></trkpt>
<trkpt lat="53.080928" lon="04.880962"><ele>1.7</ele><time>2021-12-08T12:33:33Z</time><name>PT865</name></trkpt>
<trkpt lat="53.080919" lon="04.880967"><ele>1.6</ele><time>2021-12-08T12:33:35Z</time><name>PT866</name></trkpt>
<trkpt lat="53.080909" lon="04.880970"><ele>1.5</ele><time>2021-12-08T12:33:36Z</time><name>PT867</name></trkpt>
<trkpt lat="53.080895" lon="04.880973"><ele>1.4</ele><time>2021-12-08T12:33:36Z</time><name>PT868</name></trkpt>
<trkpt lat="53.080883" lon="04.880981"><ele>1.5</ele><time>2021-12-08T12:33:38Z</time><name>PT869</name></trkpt>
<trkpt lat="53.080868" lon="04.880986"><ele>1.5</ele><time>2021-12-08T12:33:39Z</time><name>PT870</name></trkpt>
<trkpt lat="53.080854" lon="04.880991"><ele>1.4</ele><time>2021-12-08T12:33:39Z</time><name>PT871</name></trkpt>
<trkpt lat="53.080842" lon="04.881001"><ele>1.2</ele><time>2021-12-08T12:33:41Z</time><name>PT872</name></trkpt>
<trkpt lat="53.080832" lon="04.881009"><ele>1.2</ele><time>2021-12-08T12:33:42Z</time><name>PT873</name></trkpt>
<trkpt lat="53.080822" lon="04.881019"><ele>0.8</ele><time>2021-12-08T12:33:42Z</time><name>PT874</name></trkpt>
<trkpt lat="53.080811" lon="04.881025"><ele>0.8</ele><time>2021-12-08T12:33:44Z</time><name>PT875</name></trkpt>
<trkpt lat="53.080801" lon="04.881031"><ele>0.8</ele><time>2021-12-08T12:33:45Z</time><name>PT876</name></trkpt>
<trkpt lat="53.080790" lon="04.881038"><ele>1</ele><time>2021-12-08T12:33:45Z</time><name>PT877</name></trkpt>
<trkpt lat="53.080782" lon="04.881048"><ele>1.2</ele><time>2021-12-08T12:33:47Z</time><name>PT878</name></trkpt>
<trkpt lat="53.080771" lon="04.881058"><ele>1.7</ele><time>2021-12-08T12:33:48Z</time><name>PT879</name></trkpt>
<trkpt lat="53.080760" lon="04.881068"><ele>2</ele><time>2021-12-08T12:33:48Z</time><name>PT880</name></trkpt>
<trkpt lat="53.080747" lon="04.881079"><ele>2.4</ele><time>2021-12-08T12:33:50Z</time><name>PT881</name></trkpt>
<trkpt lat="53.080737" lon="04.881087"><ele>2.9</ele><time>2021-12-08T12:33:51Z</time><name>PT882</name></trkpt>
<trkpt lat="53.080728" lon="04.881097"><ele>2.8</ele><time>2021-12-08T12:33:51Z</time><name>PT883</name></trkpt>
<trkpt lat="53.080720" lon="04.881106"><ele>2.5</ele><time>2021-12-08T12:33:53Z</time><name>PT884</name></trkpt>
<trkpt lat="53.080711" lon="04.881115"><ele>2.4</ele><time>2021-12-08T12:33:54Z</time><name>PT885</name></trkpt>
<trkpt lat="53.080701" lon="04.881123"><ele>2.4</ele><time>2021-12-08T12:33:54Z</time><name>PT886</name></trkpt>
<trkpt lat="53.080692" lon="04.881131"><ele>2.3</ele><time>2021-12-08T12:33:56Z</time><name>PT887</name></trkpt>
<trkpt lat="53.080681" lon="04.881140"><ele>2.4</ele><time>2021-12-08T12:33:57Z</time><name>PT888</name></trkpt>
<trkpt lat="53.080667" lon="04.881151"><ele>2.3</ele><time>2021-12-08T12:33:57Z</time><name>PT889</name></trkpt>
<trkpt lat="53.080653" lon="04.881163"><ele>2.4</ele><time>2021-12-08T12:33:59Z</time><name>PT890</name></trkpt>
<trkpt lat="53.080641" lon="04.881178"><ele>2.4</ele><time>2021-12-08T12:34:00Z</time><name>PT891</name></trkpt>
<trkpt lat="53.080630" lon="04.881191"><ele>2.5</ele><time>2021-12-08T12:34:00Z</time><name>PT892</name></trkpt>
<trkpt lat="53.080621" lon="04.881209"><ele>2.9</ele><time>2021-12-08T12:34:02Z</time><name>PT893</name></trkpt>
<trkpt lat="53.080612" lon="04.881220"><ele>3.1</ele><time>2021-12-08T12:34:03Z</time><name>PT894</name></trkpt>
<trkpt lat="53.080603" lon="04.881228"><ele>3</ele><time>2021-12-08T12:34:03Z</time><name>PT895</name></trkpt>
<trkpt lat="53.080595" lon="04.881231"><ele>2.7</ele><time>2021-12-08T12:34:05Z</time><name>PT896</name></trkpt>
<trkpt lat="53.080584" lon="04.881238"><ele>2.2</ele><time>2021-12-08T12:34:06Z</time><name>PT897</name></trkpt>
<trkpt lat="53.080574" lon="04.881245"><ele>1.9</ele><time>2021-12-08T12:34:06Z</time><name>PT898</name></trkpt>
<trkpt lat="53.080564" lon="04.881253"><ele>1.5</ele><time>2021-12-08T12:34:08Z</time><name>PT899</name></trkpt>
<trkpt lat="53.080551" lon="04.881262"><ele>1.5</ele><time>2021-12-08T12:34:09Z</time><name>PT900</name></trkpt>
<trkpt lat="53.080538" lon="04.881271"><ele>1.6</ele><time>2021-12-08T12:34:09Z</time><name>PT901</name></trkpt>
<trkpt lat="53.080525" lon="04.881285"><ele>1.7</ele><time>2021-12-08T12:34:11Z</time><name>PT902</name></trkpt>
<trkpt lat="53.080514" lon="04.881300"><ele>1.8</ele><time>2021-12-08T12:34:12Z</time><name>PT903</name></trkpt>
<trkpt lat="53.080505" lon="04.881311"><ele>1.9</ele><time>2021-12-08T12:34:12Z</time><name>PT904</name></trkpt>
<trkpt lat="53.080496" lon="04.881319"><ele>2.2</ele><time>2021-12-08T12:34:14Z</time><name>PT905</name></trkpt>
<trkpt lat="53.080488" lon="04.881326"><ele>2.4</ele><time>2021-12-08T12:34:15Z</time><name>PT906</name></trkpt>
<trkpt lat="53.080480" lon="04.881331"><ele>2.5</ele><time>2021-12-08T12:34:16Z</time><name>PT907</name></trkpt>
<trkpt lat="53.080471" lon="04.881340"><ele>2.5</ele><time>2021-12-08T12:34:17Z</time><name>PT908</name></trkpt>
<trkpt lat="53.080460" lon="04.881352"><ele>2.7</ele><time>2021-12-08T12:34:18Z</time><name>PT909</name></trkpt>
<trkpt lat="53.080450" lon="04.881366"><ele>2.7</ele><time>2021-12-08T12:34:19Z</time><name>PT910</name></trkpt>
<trkpt lat="53.080441" lon="04.881378"><ele>2.4</ele><time>2021-12-08T12:34:20Z</time><name>PT911</name></trkpt>
<trkpt lat="53.080433" lon="04.881389"><ele>2.5</ele><time>2021-12-08T12:34:21Z</time><name>PT912</name></trkpt>
<trkpt lat="53.080426" lon="04.881401"><ele>2.3</ele><time>2021-12-08T12:34:22Z</time><name>PT913</name></trkpt>
<trkpt lat="53.080418" lon="04.881411"><ele>2.2</ele><time>2021-12-08T12:34:23Z</time><name>PT914</name></trkpt>
<trkpt lat="53.080408" lon="04.881422"><ele>2.3</ele><time>2021-12-08T12:34:24Z</time><name>PT915</name></trkpt>
<trkpt lat="53.080398" lon="04.881434"><ele>2.5</ele><time>2021-12-08T12:34:25Z</time><name>PT916</name></trkpt>
<trkpt lat="53.080390" lon="04.881443"><ele>2.4</ele><time>2021-12-08T12:34:26Z</time><name>PT917</name></trkpt>
<trkpt lat="53.080381" lon="04.881454"><ele>2.5</ele><time>2021-12-08T12:34:27Z</time><name>PT918</name></trkpt>
<trkpt lat="53.080370" lon="04.881470"><ele>2.4</ele><time>2021-12-08T12:34:28Z</time><name>PT919</name></trkpt>
<trkpt lat="53.080359" lon="04.881486"><ele>2.4</ele><time>2021-12-08T12:34:29Z</time><name>PT920</name></trkpt>
<trkpt lat="53.080349" lon="04.881497"><ele>2.4</ele><time>2021-12-08T12:34:30Z</time><name>PT921</name></trkpt>
<trkpt lat="53.080340" lon="04.881509"><ele>2.3</ele><time>2021-12-08T12:34:30Z</time><name>PT922</name></trkpt>
<trkpt lat="53.080332" lon="04.881521"><ele>2.1</ele><time>2021-12-08T12:34:32Z</time><name>PT923</name></trkpt>
<trkpt lat="53.080325" lon="04.881531"><ele>2</ele><time>2021-12-08T12:34:33Z</time><name>PT924</name></trkpt>
<trkpt lat="53.080317" lon="04.881540"><ele>1.8</ele><time>2021-12-08T12:34:33Z</time><name>PT925</name></trkpt>
<trkpt lat="53.080307" lon="04.881550"><ele>1.5</ele><time>2021-12-08T12:34:35Z</time><name>PT926</name></trkpt>
<trkpt lat="53.080299" lon="04.881561"><ele>1.3</ele><time>2021-12-08T12:34:36Z</time><name>PT927</name></trkpt>
<trkpt lat="53.080288" lon="04.881574"><ele>1.3</ele><time>2021-12-08T12:34:36Z</time><name>PT928</name></trkpt>
<trkpt lat="53.080276" lon="04.881588"><ele>1.4</ele><time>2021-12-08T12:34:38Z</time><name>PT929</name></trkpt>
<trkpt lat="53.080265" lon="04.881598"><ele>1.6</ele><time>2021-12-08T12:34:39Z</time><name>PT930</name></trkpt>
<trkpt lat="53.080257" lon="04.881608"><ele>1.7</ele><time>2021-12-08T12:34:39Z</time><name>PT931</name></trkpt>
<trkpt lat="53.080248" lon="04.881618"><ele>1.8</ele><time>2021-12-08T12:34:41Z</time><name>PT932</name></trkpt>
<trkpt lat="53.080239" lon="04.881627"><ele>1.8</ele><time>2021-12-08T12:34:42Z</time><name>PT933</name></trkpt>
<trkpt lat="53.080230" lon="04.881635"><ele>1.7</ele><time>2021-12-08T12:34:42Z</time><name>PT934</name></trkpt>
<trkpt lat="53.080222" lon="04.881644"><ele>1.7</ele><time>2021-12-08T12:34:44Z</time><name>PT935</name></trkpt>
<trkpt lat="53.080210" lon="04.881657"><ele>1.6</ele><time>2021-12-08T12:34:45Z</time><name>PT936</name></trkpt>
<trkpt lat="53.080197" lon="04.881672"><ele>1.7</ele><time>2021-12-08T12:34:45Z</time><name>PT937</name></trkpt>
<trkpt lat="53.080186" lon="04.881690"><ele>1.7</ele><time>2021-12-08T12:34:47Z</time><name>PT938</name></trkpt>
<trkpt lat="53.080176" lon="04.881703"><ele>1.7</ele><time>2021-12-08T12:34:48Z</time><name>PT939</name></trkpt>
<trkpt lat="53.080168" lon="04.881714"><ele>1.5</ele><time>2021-12-08T12:34:48Z</time><name>PT940</name></trkpt>
<trkpt lat="53.080161" lon="04.881724"><ele>1.6</ele><time>2021-12-08T12:34:50Z</time><name>PT941</name></trkpt>
<trkpt lat="53.080154" lon="04.881734"><ele>1.7</ele><time>2021-12-08T12:34:51Z</time><name>PT942</name></trkpt>
<trkpt lat="53.080145" lon="04.881741"><ele>1.8</ele><time>2021-12-08T12:34:51Z</time><name>PT943</name></trkpt>
<trkpt lat="53.080135" lon="04.881747"><ele>1.9</ele><time>2021-12-08T12:34:53Z</time><name>PT944</name></trkpt>
<trkpt lat="53.080124" lon="04.881756"><ele>2.1</ele><time>2021-12-08T12:34:54Z</time><name>PT945</name></trkpt>
<trkpt lat="53.080112" lon="04.881768"><ele>2.1</ele><time>2021-12-08T12:34:54Z</time><name>PT946</name></trkpt>
<trkpt lat="53.080102" lon="04.881780"><ele>1.9</ele><time>2021-12-08T12:34:56Z</time><name>PT947</name></trkpt>
<trkpt lat="53.080093" lon="04.881791"><ele>1.8</ele><time>2021-12-08T12:34:57Z</time><name>PT948</name></trkpt>
<trkpt lat="53.080085" lon="04.881802"><ele>1.7</ele><time>2021-12-08T12:34:57Z</time><name>PT949</name></trkpt>
<trkpt lat="53.080076" lon="04.881811"><ele>1.8</ele><time>2021-12-08T12:34:59Z</time><name>PT950</name></trkpt>
<trkpt lat="53.080066" lon="04.881819"><ele>2</ele><time>2021-12-08T12:35:00Z</time><name>PT951</name></trkpt>
<trkpt lat="53.080056" lon="04.881825"><ele>2.2</ele><time>2021-12-08T12:35:00Z</time><name>PT952</name></trkpt>
<trkpt lat="53.080046" lon="04.881831"><ele>2.6</ele><time>2021-12-08T12:35:02Z</time><name>PT953</name></trkpt>
<trkpt lat="53.080035" lon="04.881841"><ele>2.8</ele><time>2021-12-08T12:35:03Z</time><name>PT954</name></trkpt>
<trkpt lat="53.080022" lon="04.881849"><ele>3</ele><time>2021-12-08T12:35:03Z</time><name>PT955</name></trkpt>
<trkpt lat="53.080012" lon="04.881857"><ele>3.2</ele><time>2021-12-08T12:35:05Z</time><name>PT956</name></trkpt>
<trkpt lat="53.080003" lon="04.881866"><ele>3</ele><time>2021-12-08T12:35:06Z</time><name>PT957</name></trkpt>
<trkpt lat="53.079996" lon="04.881875"><ele>2.9</ele><time>2021-12-08T12:35:06Z</time><name>PT958</name></trkpt>
<trkpt lat="53.079987" lon="04.881882"><ele>3</ele><time>2021-12-08T12:35:08Z</time><name>PT959</name></trkpt>
<trkpt lat="53.079974" lon="04.881888"><ele>2.5</ele><time>2021-12-08T12:35:09Z</time><name>PT960</name></trkpt>
<trkpt lat="53.079962" lon="04.881892"><ele>2.4</ele><time>2021-12-08T12:35:09Z</time><name>PT961</name></trkpt>
<trkpt lat="53.079949" lon="04.881896"><ele>2.4</ele><time>2021-12-08T12:35:11Z</time><name>PT962</name></trkpt>
<trkpt lat="53.079935" lon="04.881905"><ele>2.3</ele><time>2021-12-08T12:35:12Z</time><name>PT963</name></trkpt>
<trkpt lat="53.079921" lon="04.881915"><ele>2.2</ele><time>2021-12-08T12:35:12Z</time><name>PT964</name></trkpt>
<trkpt lat="53.079909" lon="04.881922"><ele>1.9</ele><time>2021-12-08T12:35:14Z</time><name>PT965</name></trkpt>
<trkpt lat="53.079900" lon="04.881929"><ele>2.2</ele><time>2021-12-08T12:35:15Z</time><name>PT966</name></trkpt>
<trkpt lat="53.079891" lon="04.881931"><ele>2.3</ele><time>2021-12-08T12:35:15Z</time><name>PT967</name></trkpt>
<trkpt lat="53.079882" lon="04.881934"><ele>2.2</ele><time>2021-12-08T12:35:17Z</time><name>PT968</name></trkpt>
<trkpt lat="53.079872" lon="04.881933"><ele>2.4</ele><time>2021-12-08T12:35:18Z</time><name>PT969</name></trkpt>
<trkpt lat="53.079861" lon="04.881934"><ele>2.5</ele><time>2021-12-08T12:35:18Z</time><name>PT970</name></trkpt>
<trkpt lat="53.079848" lon="04.881937"><ele>2.3</ele><time>2021-12-08T12:35:20Z</time><name>PT971</name></trkpt>
<trkpt lat="53.079833" lon="04.881940"><ele>2.4</ele><time>2021-12-08T12:35:21Z</time><name>PT972</name></trkpt>
<trkpt lat="53.079821" lon="04.881944"><ele>2.4</ele><time>2021-12-08T12:35:21Z</time><name>PT973</name></trkpt>
<trkpt lat="53.079810" lon="04.881946"><ele>2.2</ele><time>2021-12-08T12:35:23Z</time><name>PT974</name></trkpt>
<trkpt lat="53.079799" lon="04.881941"><ele>2</ele><time>2021-12-08T12:35:24Z</time><name>PT975</name></trkpt>
<trkpt lat="53.079789" lon="04.881939"><ele>2</ele><time>2021-12-08T12:35:24Z</time><name>PT976</name></trkpt>
<trkpt lat="53.079777" lon="04.881939"><ele>1.8</ele><time>2021-12-08T12:35:26Z</time><name>PT977</name></trkpt>
<trkpt lat="53.079766" lon="04.881938"><ele>2</ele><time>2021-12-08T12:35:27Z</time><name>PT978</name></trkpt>
<trkpt lat="53.079753" lon="04.881939"><ele>2.1</ele><time>2021-12-08T12:35:27Z</time><name>PT979</name></trkpt>
<trkpt lat="53.079741" lon="04.881939"><ele>2.3</ele><time>2021-12-08T12:35:29Z</time><name>PT980</name></trkpt>
<trkpt lat="53.079731" lon="04.881939"><ele>2.4</ele><time>2021-12-08T12:35:30Z</time><name>PT981</name></trkpt>
<trkpt lat="53.079720" lon="04.881940"><ele>2.4</ele><time>2021-12-08T12:35:30Z</time><name>PT982</name></trkpt>
<trkpt lat="53.079710" lon="04.881939"><ele>2.5</ele><time>2021-12-08T12:35:32Z</time><name>PT983</name></trkpt>
<trkpt lat="53.079699" lon="04.881937"><ele>2.6</ele><time>2021-12-08T12:35:33Z</time><name>PT984</name></trkpt>
<trkpt lat="53.079689" lon="04.881935"><ele>2.5</ele><time>2021-12-08T12:35:33Z</time><name>PT985</name></trkpt>
<trkpt lat="53.079676" lon="04.881930"><ele>2.5</ele><time>2021-12-08T12:35:35Z</time><name>PT986</name></trkpt>
<trkpt lat="53.079663" lon="04.881928"><ele>2.3</ele><time>2021-12-08T12:35:36Z</time><name>PT987</name></trkpt>
<trkpt lat="53.079650" lon="04.881927"><ele>2</ele><time>2021-12-08T12:35:36Z</time><name>PT988</name></trkpt>
<trkpt lat="53.079639" lon="04.881929"><ele>2.2</ele><time>2021-12-08T12:35:38Z</time><name>PT989</name></trkpt>
<trkpt lat="53.079630" lon="04.881929"><ele>2.3</ele><time>2021-12-08T12:35:39Z</time><name>PT990</name></trkpt>
<trkpt lat="53.079620" lon="04.881931"><ele>2.4</ele><time>2021-12-08T12:35:39Z</time><name>PT991</name></trkpt>
<trkpt lat="53.079611" lon="04.881930"><ele>2.4</ele><time>2021-12-08T12:35:41Z</time><name>PT992</name></trkpt>
<trkpt lat="53.079602" lon="04.881931"><ele>2.1</ele><time>2021-12-08T12:35:42Z</time><name>PT993</name></trkpt>
<trkpt lat="53.079593" lon="04.881928"><ele>2.1</ele><time>2021-12-08T12:35:42Z</time><name>PT994</name></trkpt>
<trkpt lat="53.079583" lon="04.881926"><ele>2.3</ele><time>2021-12-08T12:35:44Z</time><name>PT995</name></trkpt>
<trkpt lat="53.079570" lon="04.881928"><ele>2.1</ele><time>2021-12-08T12:35:45Z</time><name>PT996</name></trkpt>
<trkpt lat="53.079559" lon="04.881926"><ele>2.1</ele><time>2021-12-08T12:35:45Z</time><name>PT997</name></trkpt>
<trkpt lat="53.079549" lon="04.881925"><ele>2.3</ele><time>2021-12-08T12:35:47Z</time><name>PT998</name></trkpt>
<trkpt lat="53.079540" lon="04.881925"><ele>2.3</ele><time>2021-12-08T12:35:48Z</time><name>PT999</name></trkpt>
<trkpt lat="53.079532" lon="04.881925"><ele>2.4</ele><time>2021-12-08T12:35:48Z</time><name>PT1000</name></trkpt>
<trkpt lat="53.079520" lon="04.881921"><ele>2.5</ele><time>2021-12-08T12:35:50Z</time><name>PT1001</name></trkpt>
<trkpt lat="53.079509" lon="04.881918"><ele>2.5</ele><time>2021-12-08T12:35:51Z</time><name>PT1002</name></trkpt>
<trkpt lat="53.079503" lon="04.881917"><ele>2.6</ele><time>2021-12-08T12:35:51Z</time><name>PT1003</name></trkpt>
<trkpt lat="53.079496" lon="04.881915"><ele>2.4</ele><time>2021-12-08T12:35:53Z</time><name>PT1004</name></trkpt>
<trkpt lat="53.079487" lon="04.881914"><ele>2.2</ele><time>2021-12-08T12:35:54Z</time><name>PT1005</name></trkpt>
<trkpt lat="53.079478" lon="04.881913"><ele>2</ele><time>2021-12-08T12:35:54Z</time><name>PT1006</name></trkpt>
<trkpt lat="53.079469" lon="04.881911"><ele>2</ele><time>2021-12-08T12:35:56Z</time><name>PT1007</name></trkpt>
<trkpt lat="53.079460" lon="04.881907"><ele>1.7</ele><time>2021-12-08T12:35:57Z</time><name>PT1008</name></trkpt>
<trkpt lat="53.079451" lon="04.881906"><ele>1.7</ele><time>2021-12-08T12:35:57Z</time><name>PT1009</name></trkpt>
<trkpt lat="53.079440" lon="04.881906"><ele>1.6</ele><time>2021-12-08T12:35:59Z</time><name>PT1010</name></trkpt>
<trkpt lat="53.079429" lon="04.881902"><ele>1.7</ele><time>2021-12-08T12:36:00Z</time><name>PT1011</name></trkpt>
<trkpt lat="53.079420" lon="04.881900"><ele>1.6</ele><time>2021-12-08T12:36:00Z</time><name>PT1012</name></trkpt>
<trkpt lat="53.079411" lon="04.881892"><ele>1.7</ele><time>2021-12-08T12:36:02Z</time><name>PT1013</name></trkpt>
<trkpt lat="53.079404" lon="04.881887"><ele>1.7</ele><time>2021-12-08T12:36:03Z</time><name>PT1014</name></trkpt>
<trkpt lat="53.079392" lon="04.881887"><ele>1.8</ele><time>2021-12-08T12:36:03Z</time><name>PT1015</name></trkpt>
<trkpt lat="53.079380" lon="04.881883"><ele>2</ele><time>2021-12-08T12:36:05Z</time><name>PT1016</name></trkpt>
<trkpt lat="53.079369" lon="04.881879"><ele>2.2</ele><time>2021-12-08T12:36:06Z</time><name>PT1017</name></trkpt>
<trkpt lat="53.079359" lon="04.881873"><ele>2.3</ele><time>2021-12-08T12:36:06Z</time><name>PT1018</name></trkpt>
<trkpt lat="53.079348" lon="04.881870"><ele>2.1</ele><time>2021-12-08T12:36:08Z</time><name>PT1019</name></trkpt>
<trkpt lat="53.079337" lon="04.881868"><ele>1.8</ele><time>2021-12-08T12:36:09Z</time><name>PT1020</name></trkpt>
<trkpt lat="53.079326" lon="04.881864"><ele>1.6</ele><time>2021-12-08T12:36:09Z</time><name>PT1021</name></trkpt>
<trkpt lat="53.079313" lon="04.881859"><ele>1.7</ele><time>2021-12-08T12:36:11Z</time><name>PT1022</name></trkpt>
<trkpt lat="53.079299" lon="04.881855"><ele>1.9</ele><time>2021-12-08T12:36:12Z</time><name>PT1023</name></trkpt>
<trkpt lat="53.079288" lon="04.881850"><ele>2</ele><time>2021-12-08T12:36:12Z</time><name>PT1024</name></trkpt>
<trkpt lat="53.079277" lon="04.881843"><ele>2.1</ele><time>2021-12-08T12:36:14Z</time><name>PT1025</name></trkpt>
<trkpt lat="53.079267" lon="04.881835"><ele>2.4</ele><time>2021-12-08T12:36:15Z</time><name>PT1026</name></trkpt>
<trkpt lat="53.079259" lon="04.881823"><ele>2.2</ele><time>2021-12-08T12:36:15Z</time><name>PT1027</name></trkpt>
<trkpt lat="53.079253" lon="04.881819"><ele>1.9</ele><time>2021-12-08T12:36:17Z</time><name>PT1028</name></trkpt>
<trkpt lat="53.079245" lon="04.881812"><ele>1.8</ele><time>2021-12-08T12:36:18Z</time><name>PT1029</name></trkpt>
<trkpt lat="53.079234" lon="04.881805"><ele>1.9</ele><time>2021-12-08T12:36:18Z</time><name>PT1030</name></trkpt>
<trkpt lat="53.079220" lon="04.881806"><ele>1.9</ele><time>2021-12-08T12:36:20Z</time><name>PT1031</name></trkpt>
<trkpt lat="53.079207" lon="04.881802"><ele>2.1</ele><time>2021-12-08T12:36:21Z</time><name>PT1032</name></trkpt>
<trkpt lat="53.079195" lon="04.881795"><ele>2.2</ele><time>2021-12-08T12:36:21Z</time><name>PT1033</name></trkpt>
<trkpt lat="53.079187" lon="04.881790"><ele>2.4</ele><time>2021-12-08T12:36:23Z</time><name>PT1034</name></trkpt>
<trkpt lat="53.079179" lon="04.881782"><ele>2.4</ele><time>2021-12-08T12:36:24Z</time><name>PT1035</name></trkpt>
<trkpt lat="53.079169" lon="04.881773"><ele>2.4</ele><time>2021-12-08T12:36:24Z</time><name>PT1036</name></trkpt>
<trkpt lat="53.079158" lon="04.881766"><ele>2.4</ele><time>2021-12-08T12:36:26Z</time><name>PT1037</name></trkpt>
<trkpt lat="53.079145" lon="04.881760"><ele>2.4</ele><time>2021-12-08T12:36:27Z</time><name>PT1038</name></trkpt>
<trkpt lat="53.079132" lon="04.881754"><ele>2.3</ele><time>2021-12-08T12:36:27Z</time><name>PT1039</name></trkpt>
<trkpt lat="53.079118" lon="04.881752"><ele>2.1</ele><time>2021-12-08T12:36:29Z</time><name>PT1040</name></trkpt>
<trkpt lat="53.079104" lon="04.881748"><ele>1.9</ele><time>2021-12-08T12:36:30Z</time><name>PT1041</name></trkpt>
<trkpt lat="53.079091" lon="04.881746"><ele>1.7</ele><time>2021-12-08T12:36:30Z</time><name>PT1042</name></trkpt>
<trkpt lat="53.079079" lon="04.881743"><ele>1.4</ele><time>2021-12-08T12:36:32Z</time><name>PT1043</name></trkpt>
<trkpt lat="53.079069" lon="04.881736"><ele>1.4</ele><time>2021-12-08T12:36:33Z</time><name>PT1044</name></trkpt>
<trkpt lat="53.079061" lon="04.881729"><ele>1.3</ele><time>2021-12-08T12:36:33Z</time><name>PT1045</name></trkpt>
<trkpt lat="53.079054" lon="04.881719"><ele>1.3</ele><time>2021-12-08T12:36:35Z</time><name>PT1046</name></trkpt>
<trkpt lat="53.079048" lon="04.881702"><ele>1.1</ele><time>2021-12-08T12:36:36Z</time><name>PT1047</name></trkpt>
<trkpt lat="53.079033" lon="04.881692"><ele>1.2</ele><time>2021-12-08T12:36:36Z</time><name>PT1048</name></trkpt>
<trkpt lat="53.079017" lon="04.881688"><ele>1.2</ele><time>2021-12-08T12:36:38Z</time><name>PT1049</name></trkpt>
<trkpt lat="53.079006" lon="04.881681"><ele>1.4</ele><time>2021-12-08T12:36:39Z</time><name>PT1050</name></trkpt>
<trkpt lat="53.078998" lon="04.881675"><ele>1.4</ele><time>2021-12-08T12:36:39Z</time><name>PT1051</name></trkpt>
<trkpt lat="53.078990" lon="04.881669"><ele>1.8</ele><time>2021-12-08T12:36:41Z</time><name>PT1052</name></trkpt>
<trkpt lat="53.078980" lon="04.881665"><ele>2.2</ele><time>2021-12-08T12:36:42Z</time><name>PT1053</name></trkpt>
<trkpt lat="53.078970" lon="04.881657"><ele>2.2</ele><time>2021-12-08T12:36:42Z</time><name>PT1054</name></trkpt>
<trkpt lat="53.078958" lon="04.881648"><ele>2.5</ele><time>2021-12-08T12:36:44Z</time><name>PT1055</name></trkpt>
<trkpt lat="53.078944" lon="04.881637"><ele>2.6</ele><time>2021-12-08T12:36:45Z</time><name>PT1056</name></trkpt>
<trkpt lat="53.078933" lon="04.881628"><ele>2.8</ele><time>2021-12-08T12:36:45Z</time><name>PT1057</name></trkpt>
<trkpt lat="53.078922" lon="04.881621"><ele>2.4</ele><time>2021-12-08T12:36:47Z</time><name>PT1058</name></trkpt>
<trkpt lat="53.078909" lon="04.881608"><ele>2.3</ele><time>2021-12-08T12:36:48Z</time><name>PT1059</name></trkpt>
<trkpt lat="53.078900" lon="04.881602"><ele>2.3</ele><time>2021-12-08T12:36:48Z</time><name>PT1060</name></trkpt>
<trkpt lat="53.078891" lon="04.881596"><ele>2.1</ele><time>2021-12-08T12:36:50Z</time><name>PT1061</name></trkpt>
<trkpt lat="53.078880" lon="04.881592"><ele>2.2</ele><time>2021-12-08T12:36:51Z</time><name>PT1062</name></trkpt>
<trkpt lat="53.078871" lon="04.881584"><ele>2.5</ele><time>2021-12-08T12:36:51Z</time><name>PT1063</name></trkpt>
<trkpt lat="53.078863" lon="04.881575"><ele>2.6</ele><time>2021-12-08T12:36:53Z</time><name>PT1064</name></trkpt>
<trkpt lat="53.078850" lon="04.881561"><ele>2.7</ele><time>2021-12-08T12:36:54Z</time><name>PT1065</name></trkpt>
<trkpt lat="53.078837" lon="04.881550"><ele>2.9</ele><time>2021-12-08T12:36:54Z</time><name>PT1066</name></trkpt>
<trkpt lat="53.078823" lon="04.881539"><ele>2.5</ele><time>2021-12-08T12:36:56Z</time><name>PT1067</name></trkpt>
<trkpt lat="53.078811" lon="04.881532"><ele>2.5</ele><time>2021-12-08T12:36:57Z</time><name>PT1068</name></trkpt>
<trkpt lat="53.078799" lon="04.881523"><ele>2.5</ele><time>2021-12-08T12:36:57Z</time><name>PT1069</name></trkpt>
<trkpt lat="53.078789" lon="04.881518"><ele>2.3</ele><time>2021-12-08T12:36:59Z</time><name>PT1070</name></trkpt>
<trkpt lat="53.078778" lon="04.881511"><ele>2.2</ele><time>2021-12-08T12:37:00Z</time><name>PT1071</name></trkpt>
<trkpt lat="53.078768" lon="04.881502"><ele>2.1</ele><time>2021-12-08T12:37:00Z</time><name>PT1072</name></trkpt>
<trkpt lat="53.078760" lon="04.881496"><ele>1.9</ele><time>2021-12-08T12:37:02Z</time><name>PT1073</name></trkpt>
<trkpt lat="53.078751" lon="04.881490"><ele>2.1</ele><time>2021-12-08T12:37:03Z</time><name>PT1074</name></trkpt>
<trkpt lat="53.078741" lon="04.881484"><ele>2.1</ele><time>2021-12-08T12:37:03Z</time><name>PT1075</name></trkpt>
<trkpt lat="53.078729" lon="04.881478"><ele>1.9</ele><time>2021-12-08T12:37:05Z</time><name>PT1076</name></trkpt>
<trkpt lat="53.078714" lon="04.881468"><ele>2.1</ele><time>2021-12-08T12:37:06Z</time><name>PT1077</name></trkpt>
<trkpt lat="53.078700" lon="04.881458"><ele>2.1</ele><time>2021-12-08T12:37:06Z</time><name>PT1078</name></trkpt>
<trkpt lat="53.078686" lon="04.881447"><ele>2.6</ele><time>2021-12-08T12:37:08Z</time><name>PT1079</name></trkpt>
<trkpt lat="53.078675" lon="04.881440"><ele>3.9</ele><time>2021-12-08T12:37:09Z</time><name>PT1080</name></trkpt>
<trkpt lat="53.078665" lon="04.881434"><ele>3.9</ele><time>2021-12-08T12:37:09Z</time><name>PT1081</name></trkpt>
<trkpt lat="53.078656" lon="04.881427"><ele>4</ele><time>2021-12-08T12:37:11Z</time><name>PT1082</name></trkpt>
<trkpt lat="53.078645" lon="04.881418"><ele>3.9</ele><time>2021-12-08T12:37:12Z</time><name>PT1083</name></trkpt>
<trkpt lat="53.078635" lon="04.881411"><ele>3.3</ele><time>2021-12-08T12:37:12Z</time><name>PT1084</name></trkpt>
<trkpt lat="53.078624" lon="04.881403"><ele>3</ele><time>2021-12-08T12:37:14Z</time><name>PT1085</name></trkpt>
<trkpt lat="53.078611" lon="04.881391"><ele>3</ele><time>2021-12-08T12:37:15Z</time><name>PT1086</name></trkpt>
<trkpt lat="53.078597" lon="04.881383"><ele>2.9</ele><time>2021-12-08T12:37:15Z</time><name>PT1087</name></trkpt>
<trkpt lat="53.078584" lon="04.881374"><ele>2.6</ele><time>2021-12-08T12:37:17Z</time><name>PT1088</name></trkpt>
<trkpt lat="53.078570" lon="04.881365"><ele>2.4</ele><time>2021-12-08T12:37:18Z</time><name>PT1089</name></trkpt>
<trkpt lat="53.078559" lon="04.881357"><ele>2.4</ele><time>2021-12-08T12:37:18Z</time><name>PT1090</name></trkpt>
<trkpt lat="53.078548" lon="04.881351"><ele>2.1</ele><time>2021-12-08T12:37:20Z</time><name>PT1091</name></trkpt>
<trkpt lat="53.078537" lon="04.881346"><ele>1.9</ele><time>2021-12-08T12:37:21Z</time><name>PT1092</name></trkpt>
<trkpt lat="53.078527" lon="04.881338"><ele>1.9</ele><time>2021-12-08T12:37:21Z</time><name>PT1093</name></trkpt>
<trkpt lat="53.078518" lon="04.881329"><ele>1.8</ele><time>2021-12-08T12:37:23Z</time><name>PT1094</name></trkpt>
<trkpt lat="53.078509" lon="04.881319"><ele>1.5</ele><time>2021-12-08T12:37:24Z</time><name>PT1095</name></trkpt>
<trkpt lat="53.078499" lon="04.881309"><ele>1.6</ele><time>2021-12-08T12:37:24Z</time><name>PT1096</name></trkpt>
<trkpt lat="53.078489" lon="04.881299"><ele>1.7</ele><time>2021-12-08T12:37:26Z</time><name>PT1097</name></trkpt>
<trkpt lat="53.078477" lon="04.881291"><ele>1.9</ele><time>2021-12-08T12:37:27Z</time><name>PT1098</name></trkpt>
<trkpt lat="53.078464" lon="04.881288"><ele>1.9</ele><time>2021-12-08T12:37:27Z</time><name>PT1099</name></trkpt>
<trkpt lat="53.078452" lon="04.881284"><ele>2.2</ele><time>2021-12-08T12:37:29Z</time><name>PT1100</name></trkpt>
<trkpt lat="53.078440" lon="04.881277"><ele>2.2</ele><time>2021-12-08T12:37:30Z</time><name>PT1101</name></trkpt>
<trkpt lat="53.078430" lon="04.881268"><ele>2</ele><time>2021-12-08T12:37:30Z</time><name>PT1102</name></trkpt>
<trkpt lat="53.078419" lon="04.881259"><ele>1.6</ele><time>2021-12-08T12:37:32Z</time><name>PT1103</name></trkpt>
<trkpt lat="53.078408" lon="04.881250"><ele>1.5</ele><time>2021-12-08T12:37:33Z</time><name>PT1104</name></trkpt>
<trkpt lat="53.078398" lon="04.881238"><ele>1.4</ele><time>2021-12-08T12:37:33Z</time><name>PT1105</name></trkpt>
<trkpt lat="53.078389" lon="04.881230"><ele>1.8</ele><time>2021-12-08T12:37:35Z</time><name>PT1106</name></trkpt>
<trkpt lat="53.078379" lon="04.881222"><ele>2.1</ele><time>2021-12-08T12:37:36Z</time><name>PT1107</name></trkpt>
<trkpt lat="53.078367" lon="04.881212"><ele>2.3</ele><time>2021-12-08T12:37:36Z</time><name>PT1108</name></trkpt>
<trkpt lat="53.078354" lon="04.881203"><ele>2.8</ele><time>2021-12-08T12:37:38Z</time><name>PT1109</name></trkpt>
<trkpt lat="53.078342" lon="04.881197"><ele>2.8</ele><time>2021-12-08T12:37:39Z</time><name>PT1110</name></trkpt>
<trkpt lat="53.078330" lon="04.881191"><ele>2.7</ele><time>2021-12-08T12:37:39Z</time><name>PT1111</name></trkpt>
<trkpt lat="53.078320" lon="04.881186"><ele>2.5</ele><time>2021-12-08T12:37:41Z</time><name>PT1112</name></trkpt>
<trkpt lat="53.078310" lon="04.881180"><ele>2.3</ele><time>2021-12-08T12:37:42Z</time><name>PT1113</name></trkpt>
<trkpt lat="53.078300" lon="04.881173"><ele>2</ele><time>2021-12-08T12:37:42Z</time><name>PT1114</name></trkpt>
<trkpt lat="53.078291" lon="04.881162"><ele>1.9</ele><time>2021-12-08T12:37:44Z</time><name>PT1115</name></trkpt>
<trkpt lat="53.078282" lon="04.881151"><ele>1.8</ele><time>2021-12-08T12:37:45Z</time><name>PT1116</name></trkpt>
<trkpt lat="53.078273" lon="04.881142"><ele>1.6</ele><time>2021-12-08T12:37:45Z</time><name>PT1117</name></trkpt>
<trkpt lat="53.078263" lon="04.881133"><ele>1.8</ele><time>2021-12-08T12:37:47Z</time><name>PT1118</name></trkpt>
<trkpt lat="53.078250" lon="04.881123"><ele>1.6</ele><time>2021-12-08T12:37:48Z</time><name>PT1119</name></trkpt>
<trkpt lat="53.078236" lon="04.881113"><ele>1.6</ele><time>2021-12-08T12:37:48Z</time><name>PT1120</name></trkpt>
<trkpt lat="53.078223" lon="04.881105"><ele>1.7</ele><time>2021-12-08T12:37:50Z</time><name>PT1121</name></trkpt>
<trkpt lat="53.078209" lon="04.881099"><ele>1.7</ele><time>2021-12-08T12:37:51Z</time><name>PT1122</name></trkpt>
<trkpt lat="53.078198" lon="04.881092"><ele>1.7</ele><time>2021-12-08T12:37:51Z</time><name>PT1123</name></trkpt>
<trkpt lat="53.078187" lon="04.881088"><ele>2</ele><time>2021-12-08T12:37:53Z</time><name>PT1124</name></trkpt>
<trkpt lat="53.078176" lon="04.881079"><ele>2.2</ele><time>2021-12-08T12:37:54Z</time><name>PT1125</name></trkpt>
<trkpt lat="53.078166" lon="04.881071"><ele>2.2</ele><time>2021-12-08T12:37:54Z</time><name>PT1126</name></trkpt>
<trkpt lat="53.078158" lon="04.881062"><ele>2.2</ele><time>2021-12-08T12:37:56Z</time><name>PT1127</name></trkpt>
<trkpt lat="53.078152" lon="04.881056"><ele>2.3</ele><time>2021-12-08T12:37:57Z</time><name>PT1128</name></trkpt>
<trkpt lat="53.078143" lon="04.881049"><ele>2.1</ele><time>2021-12-08T12:37:57Z</time><name>PT1129</name></trkpt>
<trkpt lat="53.078131" lon="04.881038"><ele>2.4</ele><time>2021-12-08T12:37:59Z</time><name>PT1130</name></trkpt>
<trkpt lat="53.078118" lon="04.881031"><ele>3</ele><time>2021-12-08T12:38:00Z</time><name>PT1131</name></trkpt>
<trkpt lat="53.078105" lon="04.881029"><ele>2.9</ele><time>2021-12-08T12:38:00Z</time><name>PT1132</name></trkpt>
<trkpt lat="53.078092" lon="04.881022"><ele>2.9</ele><time>2021-12-08T12:38:02Z</time><name>PT1133</name></trkpt>
<trkpt lat="53.078081" lon="04.881014"><ele>3</ele><time>2021-12-08T12:38:03Z</time><name>PT1134</name></trkpt>
<trkpt lat="53.078069" lon="04.881007"><ele>2.9</ele><time>2021-12-08T12:38:03Z</time><name>PT1135</name></trkpt>
<trkpt lat="53.078058" lon="04.881001"><ele>2.4</ele><time>2021-12-08T12:38:05Z</time><name>PT1136</name></trkpt>
<trkpt lat="53.078048" lon="04.880992"><ele>2.2</ele><time>2021-12-08T12:38:06Z</time><name>PT1137</name></trkpt>
<trkpt lat="53.078036" lon="04.880981"><ele>2.1</ele><time>2021-12-08T12:38:06Z</time><name>PT1138</name></trkpt>
<trkpt lat="53.078027" lon="04.880969"><ele>1.8</ele><time>2021-12-08T12:38:08Z</time><name>PT1139</name></trkpt>
<trkpt lat="53.078017" lon="04.880962"><ele>1.6</ele><time>2021-12-08T12:38:09Z</time><name>PT1140</name></trkpt>
<trkpt lat="53.078008" lon="04.880957"><ele>1.6</ele><time>2021-12-08T12:38:09Z</time><name>PT1141</name></trkpt>
<trkpt lat="53.077997" lon="04.880947"><ele>1.9</ele><time>2021-12-08T12:38:11Z</time><name>PT1142</name></trkpt>
<trkpt lat="53.077988" lon="04.880938"><ele>2.3</ele><time>2021-12-08T12:38:12Z</time><name>PT1143</name></trkpt>
<trkpt lat="53.077978" lon="04.880930"><ele>2.5</ele><time>2021-12-08T12:38:12Z</time><name>PT1144</name></trkpt>
<trkpt lat="53.077966" lon="04.880919"><ele>3</ele><time>2021-12-08T12:38:14Z</time><name>PT1145</name></trkpt>
<trkpt lat="53.077956" lon="04.880910"><ele>3</ele><time>2021-12-08T12:38:15Z</time><name>PT1146</name></trkpt>
<trkpt lat="53.077943" lon="04.880901"><ele>3</ele><time>2021-12-08T12:38:15Z</time><name>PT1147</name></trkpt>
<trkpt lat="53.077931" lon="04.880894"><ele>2.7</ele><time>2021-12-08T12:38:17Z</time><name>PT1148</name></trkpt>
<trkpt lat="53.077921" lon="04.880888"><ele>2.4</ele><time>2021-12-08T12:38:18Z</time><name>PT1149</name></trkpt>
<trkpt lat="53.077911" lon="04.880885"><ele>2.5</ele><time>2021-12-08T12:38:18Z</time><name>PT1150</name></trkpt>
<trkpt lat="53.077900" lon="04.880880"><ele>2.5</ele><time>2021-12-08T12:38:20Z</time><name>PT1151</name></trkpt>
<trkpt lat="53.077889" lon="04.880874"><ele>2.4</ele><time>2021-12-08T12:38:21Z</time><name>PT1152</name></trkpt>
<trkpt lat="53.077878" lon="04.880865"><ele>2.4</ele><time>2021-12-08T12:38:21Z</time><name>PT1153</name></trkpt>
<trkpt lat="53.077869" lon="04.880858"><ele>2.2</ele><time>2021-12-08T12:38:23Z</time><name>PT1154</name></trkpt>
<trkpt lat="53.077858" lon="04.880849"><ele>1.9</ele><time>2021-12-08T12:38:24Z</time><name>PT1155</name></trkpt>
<trkpt lat="53.077848" lon="04.880841"><ele>2.1</ele><time>2021-12-08T12:38:24Z</time><name>PT1156</name></trkpt>
<trkpt lat="53.077836" lon="04.880833"><ele>2.4</ele><time>2021-12-08T12:38:26Z</time><name>PT1157</name></trkpt>
<trkpt lat="53.077824" lon="04.880825"><ele>2.5</ele><time>2021-12-08T12:38:27Z</time><name>PT1158</name></trkpt>
<trkpt lat="53.077811" lon="04.880817"><ele>2.6</ele><time>2021-12-08T12:38:27Z</time><name>PT1159</name></trkpt>
<trkpt lat="53.077799" lon="04.880810"><ele>2.7</ele><time>2021-12-08T12:38:29Z</time><name>PT1160</name></trkpt>
<trkpt lat="53.077786" lon="04.880803"><ele>2.4</ele><time>2021-12-08T12:38:30Z</time><name>PT1161</name></trkpt>
<trkpt lat="53.077774" lon="04.880799"><ele>2.4</ele><time>2021-12-08T12:38:30Z</time><name>PT1162</name></trkpt>
<trkpt lat="53.077763" lon="04.880795"><ele>2.4</ele><time>2021-12-08T12:38:32Z</time><name>PT1163</name></trkpt>
<trkpt lat="53.077753" lon="04.880792"><ele>2.1</ele><time>2021-12-08T12:38:33Z</time><name>PT1164</name></trkpt>
<trkpt lat="53.077744" lon="04.880789"><ele>2.2</ele><time>2021-12-08T12:38:33Z</time><name>PT1165</name></trkpt>
<trkpt lat="53.077734" lon="04.880782"><ele>2.4</ele><time>2021-12-08T12:38:35Z</time><name>PT1166</name></trkpt>
<trkpt lat="53.077724" lon="04.880774"><ele>2.4</ele><time>2021-12-08T12:38:36Z</time><name>PT1167</name></trkpt>
<trkpt lat="53.077713" lon="04.880767"><ele>2.6</ele><time>2021-12-08T12:38:36Z</time><name>PT1168</name></trkpt>
<trkpt lat="53.077701" lon="04.880756"><ele>3</ele><time>2021-12-08T12:38:38Z</time><name>PT1169</name></trkpt>
<trkpt lat="53.077690" lon="04.880746"><ele>3.3</ele><time>2021-12-08T12:38:39Z</time><name>PT1170</name></trkpt>
<trkpt lat="53.077678" lon="04.880740"><ele>3.4</ele><time>2021-12-08T12:38:39Z</time><name>PT1171</name></trkpt>
<trkpt lat="53.077664" lon="04.880736"><ele>3.6</ele><time>2021-12-08T12:38:41Z</time><name>PT1172</name></trkpt>
<trkpt lat="53.077649" lon="04.880734"><ele>3.5</ele><time>2021-12-08T12:38:42Z</time><name>PT1173</name></trkpt>
<trkpt lat="53.077635" lon="04.880729"><ele>3.5</ele><time>2021-12-08T12:38:42Z</time><name>PT1174</name></trkpt>
<trkpt lat="53.077620" lon="04.880729"><ele>3.5</ele><time>2021-12-08T12:38:44Z</time><name>PT1175</name></trkpt>
<trkpt lat="53.077609" lon="04.880727"><ele>3.6</ele><time>2021-12-08T12:38:45Z</time><name>PT1176</name></trkpt>
<trkpt lat="53.077598" lon="04.880722"><ele>3.6</ele><time>2021-12-08T12:38:45Z</time><name>PT1177</name></trkpt>
<trkpt lat="53.077587" lon="04.880718"><ele>4</ele><time>2021-12-08T12:38:47Z</time><name>PT1178</name></trkpt>
<trkpt lat="53.077578" lon="04.880712"><ele>4.3</ele><time>2021-12-08T12:38:48Z</time><name>PT1179</name></trkpt>
<trkpt lat="53.077569" lon="04.880705"><ele>4.5</ele><time>2021-12-08T12:38:48Z</time><name>PT1180</name></trkpt>
<trkpt lat="53.077560" lon="04.880699"><ele>4.8</ele><time>2021-12-08T12:38:50Z</time><name>PT1181</name></trkpt>
<trkpt lat="53.077550" lon="04.880694"><ele>4.6</ele><time>2021-12-08T12:38:51Z</time><name>PT1182</name></trkpt>
<trkpt lat="53.077536" lon="04.880694"><ele>4.4</ele><time>2021-12-08T12:38:51Z</time><name>PT1183</name></trkpt>
<trkpt lat="53.077523" lon="04.880693"><ele>3.8</ele><time>2021-12-08T12:38:53Z</time><name>PT1184</name></trkpt>
<trkpt lat="53.077510" lon="04.880692"><ele>3.7</ele><time>2021-12-08T12:38:54Z</time><name>PT1185</name></trkpt>
<trkpt lat="53.077500" lon="04.880693"><ele>3.7</ele><time>2021-12-08T12:38:54Z</time><name>PT1186</name></trkpt>
<trkpt lat="53.077490" lon="04.880692"><ele>3.9</ele><time>2021-12-08T12:38:56Z</time><name>PT1187</name></trkpt>
<trkpt lat="53.077479" lon="04.880690"><ele>4.4</ele><time>2021-12-08T12:38:57Z</time><name>PT1188</name></trkpt>
<trkpt lat="53.077468" lon="04.880688"><ele>4.4</ele><time>2021-12-08T12:38:57Z</time><name>PT1189</name></trkpt>
<trkpt lat="53.077458" lon="04.880686"><ele>4.4</ele><time>2021-12-08T12:38:59Z</time><name>PT1190</name></trkpt>
<trkpt lat="53.077446" lon="04.880687"><ele>4.4</ele><time>2021-12-08T12:39:00Z</time><name>PT1191</name></trkpt>
<trkpt lat="53.077432" lon="04.880686"><ele>4.1</ele><time>2021-12-08T12:39:00Z</time><name>PT1192</name></trkpt>
<trkpt lat="53.077418" lon="04.880685"><ele>3.9</ele><time>2021-12-08T12:39:02Z</time><name>PT1193</name></trkpt>
<trkpt lat="53.077404" lon="04.880687"><ele>3.8</ele><time>2021-12-08T12:39:03Z</time><name>PT1194</name></trkpt>
<trkpt lat="53.077390" lon="04.880692"><ele>3.6</ele><time>2021-12-08T12:39:03Z</time><name>PT1195</name></trkpt>
<trkpt lat="53.077376" lon="04.880693"><ele>3.6</ele><time>2021-12-08T12:39:05Z</time><name>PT1196</name></trkpt>
<trkpt lat="53.077364" lon="04.880694"><ele>3.9</ele><time>2021-12-08T12:39:06Z</time><name>PT1197</name></trkpt>
<trkpt lat="53.077353" lon="04.880695"><ele>4</ele><time>2021-12-08T12:39:06Z</time><name>PT1198</name></trkpt>
<trkpt lat="53.077345" lon="04.880694"><ele>4</ele><time>2021-12-08T12:39:08Z</time><name>PT1199</name></trkpt>
<trkpt lat="53.077334" lon="04.880692"><ele>4.1</ele><time>2021-12-08T12:39:09Z</time><name>PT1200</name></trkpt>
<trkpt lat="53.077323" lon="04.880689"><ele>4</ele><time>2021-12-08T12:39:09Z</time><name>PT1201</name></trkpt>
<trkpt lat="53.077313" lon="04.880689"><ele>3.7</ele><time>2021-12-08T12:39:11Z</time><name>PT1202</name></trkpt>
<trkpt lat="53.077302" lon="04.880690"><ele>3.6</ele><time>2021-12-08T12:39:12Z</time><name>PT1203</name></trkpt>
<trkpt lat="53.077292" lon="04.880690"><ele>3.9</ele><time>2021-12-08T12:39:12Z</time><name>PT1204</name></trkpt>
<trkpt lat="53.077279" lon="04.880691"><ele>4.2</ele><time>2021-12-08T12:39:14Z</time><name>PT1205</name></trkpt>
<trkpt lat="53.077264" lon="04.880690"><ele>4.2</ele><time>2021-12-08T12:39:15Z</time><name>PT1206</name></trkpt>
<trkpt lat="53.077250" lon="04.880694"><ele>4.2</ele><time>2021-12-08T12:39:15Z</time><name>PT1207</name></trkpt>
<trkpt lat="53.077241" lon="04.880701"><ele>4.2</ele><time>2021-12-08T12:39:17Z</time><name>PT1208</name></trkpt>
<trkpt lat="53.077231" lon="04.880703"><ele>3.7</ele><time>2021-12-08T12:39:18Z</time><name>PT1209</name></trkpt>
<trkpt lat="53.077220" lon="04.880704"><ele>3.9</ele><time>2021-12-08T12:39:18Z</time><name>PT1210</name></trkpt>
<trkpt lat="53.077209" lon="04.880703"><ele>3.6</ele><time>2021-12-08T12:39:20Z</time><name>PT1211</name></trkpt>
<trkpt lat="53.077198" lon="04.880706"><ele>3.5</ele><time>2021-12-08T12:39:21Z</time><name>PT1212</name></trkpt>
<trkpt lat="53.077186" lon="04.880704"><ele>3.5</ele><time>2021-12-08T12:39:21Z</time><name>PT1213</name></trkpt>
<trkpt lat="53.077174" lon="04.880707"><ele>3.5</ele><time>2021-12-08T12:39:23Z</time><name>PT1214</name></trkpt>
<trkpt lat="53.077164" lon="04.880710"><ele>3.5</ele><time>2021-12-08T12:39:24Z</time><name>PT1215</name></trkpt>
<trkpt lat="53.077151" lon="04.880716"><ele>3.6</ele><time>2021-12-08T12:39:24Z</time><name>PT1216</name></trkpt>
<trkpt lat="53.077139" lon="04.880723"><ele>3.3</ele><time>2021-12-08T12:39:26Z</time><name>PT1217</name></trkpt>
<trkpt lat="53.077126" lon="04.880731"><ele>3</ele><time>2021-12-08T12:39:27Z</time><name>PT1218</name></trkpt>
<trkpt lat="53.077115" lon="04.880733"><ele>2.9</ele><time>2021-12-08T12:39:27Z</time><name>PT1219</name></trkpt>
<trkpt lat="53.077105" lon="04.880735"><ele>2.6</ele><time>2021-12-08T12:39:29Z</time><name>PT1220</name></trkpt>
<trkpt lat="53.077095" lon="04.880738"><ele>2.9</ele><time>2021-12-08T12:39:30Z</time><name>PT1221</name></trkpt>
<trkpt lat="53.077084" lon="04.880745"><ele>3</ele><time>2021-12-08T12:39:30Z</time><name>PT1222</name></trkpt>
<trkpt lat="53.077073" lon="04.880748"><ele>3.2</ele><time>2021-12-08T12:39:32Z</time><name>PT1223</name></trkpt>
<trkpt lat="53.077064" lon="04.880747"><ele>3.4</ele><time>2021-12-08T12:39:33Z</time><name>PT1224</name></trkpt>
<trkpt lat="53.077054" lon="04.880750"><ele>3.4</ele><time>2021-12-08T12:39:33Z</time><name>PT1225</name></trkpt>
<trkpt lat="53.077043" lon="04.880757"><ele>3.3</ele><time>2021-12-08T12:39:35Z</time><name>PT1226</name></trkpt>
<trkpt lat="53.077032" lon="04.880762"><ele>3</ele><time>2021-12-08T12:39:36Z</time><name>PT1227</name></trkpt>
<trkpt lat="53.077019" lon="04.880768"><ele>3</ele><time>2021-12-08T12:39:36Z</time><name>PT1228</name></trkpt>
<trkpt lat="53.077006" lon="04.880776"><ele>2.9</ele><time>2021-12-08T12:39:38Z</time><name>PT1229</name></trkpt>
<trkpt lat="53.076994" lon="04.880784"><ele>3</ele><time>2021-12-08T12:39:39Z</time><name>PT1230</name></trkpt>
<trkpt lat="53.076983" lon="04.880794"><ele>3</ele><time>2021-12-08T12:39:39Z</time><name>PT1231</name></trkpt>
<trkpt lat="53.076972" lon="04.880800"><ele>3.6</ele><time>2021-12-08T12:39:41Z</time><name>PT1232</name></trkpt>
<trkpt lat="53.076961" lon="04.880809"><ele>3.5</ele><time>2021-12-08T12:39:42Z</time><name>PT1233</name></trkpt>
<trkpt lat="53.076950" lon="04.880812"><ele>3.3</ele><time>2021-12-08T12:39:42Z</time><name>PT1234</name></trkpt>
<trkpt lat="53.076939" lon="04.880812"><ele>3</ele><time>2021-12-08T12:39:44Z</time><name>PT1235</name></trkpt>
<trkpt lat="53.076929" lon="04.880818"><ele>2.5</ele><time>2021-12-08T12:39:45Z</time><name>PT1236</name></trkpt>
<trkpt lat="53.076919" lon="04.880830"><ele>2.6</ele><time>2021-12-08T12:39:45Z</time><name>PT1237</name></trkpt>
<trkpt lat="53.076907" lon="04.880839"><ele>2.5</ele><time>2021-12-08T12:39:47Z</time><name>PT1238</name></trkpt>
<trkpt lat="53.076894" lon="04.880847"><ele>2.6</ele><time>2021-12-08T12:39:48Z</time><name>PT1239</name></trkpt>
<trkpt lat="53.076881" lon="04.880858"><ele>2.6</ele><time>2021-12-08T12:39:48Z</time><name>PT1240</name></trkpt>
<trkpt lat="53.076868" lon="04.880868"><ele>2.7</ele><time>2021-12-08T12:39:50Z</time><name>PT1241</name></trkpt>
<trkpt lat="53.076858" lon="04.880874"><ele>3</ele><time>2021-12-08T12:39:51Z</time><name>PT1242</name></trkpt>
<trkpt lat="53.076849" lon="04.880881"><ele>2.9</ele><time>2021-12-08T12:39:51Z</time><name>PT1243</name></trkpt>
<trkpt lat="53.076839" lon="04.880891"><ele>2.6</ele><time>2021-12-08T12:39:53Z</time><name>PT1244</name></trkpt>
<trkpt lat="53.076829" lon="04.880900"><ele>2.4</ele><time>2021-12-08T12:39:54Z</time><name>PT1245</name></trkpt>
<trkpt lat="53.076818" lon="04.880905"><ele>2</ele><time>2021-12-08T12:39:54Z</time><name>PT1246</name></trkpt>
<trkpt lat="53.076806" lon="04.880909"><ele>1.7</ele><time>2021-12-08T12:39:56Z</time><name>PT1247</name></trkpt>
<trkpt lat="53.076794" lon="04.880918"><ele>1.4</ele><time>2021-12-08T12:39:57Z</time><name>PT1248</name></trkpt>
<trkpt lat="53.076780" lon="04.880931"><ele>1.6</ele><time>2021-12-08T12:39:57Z</time><name>PT1249</name></trkpt>
<trkpt lat="53.076768" lon="04.880941"><ele>2</ele><time>2021-12-08T12:39:59Z</time><name>PT1250</name></trkpt>
<trkpt lat="53.076757" lon="04.880952"><ele>2.4</ele><time>2021-12-08T12:40:00Z</time><name>PT1251</name></trkpt>
<trkpt lat="53.076748" lon="04.880966"><ele>2.8</ele><time>2021-12-08T12:40:00Z</time><name>PT1252</name></trkpt>
<trkpt lat="53.076739" lon="04.880972"><ele>3.3</ele><time>2021-12-08T12:40:02Z</time><name>PT1253</name></trkpt>
<trkpt lat="53.076729" lon="04.880981"><ele>3.3</ele><time>2021-12-08T12:40:03Z</time><name>PT1254</name></trkpt>
<trkpt lat="53.076719" lon="04.880988"><ele>3.2</ele><time>2021-12-08T12:40:03Z</time><name>PT1255</name></trkpt>
<trkpt lat="53.076706" lon="04.880991"><ele>2.7</ele><time>2021-12-08T12:40:05Z</time><name>PT1256</name></trkpt>
<trkpt lat="53.076697" lon="04.880999"><ele>2.4</ele><time>2021-12-08T12:40:06Z</time><name>PT1257</name></trkpt>
<trkpt lat="53.076685" lon="04.881012"><ele>2.3</ele><time>2021-12-08T12:40:06Z</time><name>PT1258</name></trkpt>
<trkpt lat="53.076674" lon="04.881024"><ele>2.5</ele><time>2021-12-08T12:40:08Z</time><name>PT1259</name></trkpt>
<trkpt lat="53.076664" lon="04.881035"><ele>2.7</ele><time>2021-12-08T12:40:09Z</time><name>PT1260</name></trkpt>
<trkpt lat="53.076656" lon="04.881047"><ele>2.5</ele><time>2021-12-08T12:40:09Z</time><name>PT1261</name></trkpt>
<trkpt lat="53.076649" lon="04.881058"><ele>2.4</ele><time>2021-12-08T12:40:11Z</time><name>PT1262</name></trkpt>
<trkpt lat="53.076641" lon="04.881063"><ele>2.3</ele><time>2021-12-08T12:40:12Z</time><name>PT1263</name></trkpt>
<trkpt lat="53.076630" lon="04.881071"><ele>2.1</ele><time>2021-12-08T12:40:12Z</time><name>PT1264</name></trkpt>
<trkpt lat="53.076621" lon="04.881079"><ele>2.3</ele><time>2021-12-08T12:40:14Z</time><name>PT1265</name></trkpt>
<trkpt lat="53.076610" lon="04.881086"><ele>2.3</ele><time>2021-12-08T12:40:15Z</time><name>PT1266</name></trkpt>
<trkpt lat="53.076600" lon="04.881096"><ele>2.1</ele><time>2021-12-08T12:40:15Z</time><name>PT1267</name></trkpt>
<trkpt lat="53.076589" lon="04.881109"><ele>1.8</ele><time>2021-12-08T12:40:17Z</time><name>PT1268</name></trkpt>
<trkpt lat="53.076574" lon="04.881131"><ele>1.7</ele><time>2021-12-08T12:40:18Z</time><name>PT1269</name></trkpt>
<trkpt lat="53.076562" lon="04.881146"><ele>1.6</ele><time>2021-12-08T12:40:18Z</time><name>PT1270</name></trkpt>
<trkpt lat="53.076554" lon="04.881159"><ele>1.4</ele><time>2021-12-08T12:40:20Z</time><name>PT1271</name></trkpt>
<trkpt lat="53.076547" lon="04.881172"><ele>1.6</ele><time>2021-12-08T12:40:21Z</time><name>PT1272</name></trkpt>
<trkpt lat="53.076538" lon="04.881180"><ele>1.6</ele><time>2021-12-08T12:40:21Z</time><name>PT1273</name></trkpt>
<trkpt lat="53.076528" lon="04.881185"><ele>1.8</ele><time>2021-12-08T12:40:23Z</time><name>PT1274</name></trkpt>
<trkpt lat="53.076522" lon="04.881196"><ele>1.9</ele><time>2021-12-08T12:40:24Z</time><name>PT1275</name></trkpt>
<trkpt lat="53.076512" lon="04.881203"><ele>1.9</ele><time>2021-12-08T12:40:24Z</time><name>PT1276</name></trkpt>
<trkpt lat="53.076501" lon="04.881209"><ele>1.8</ele><time>2021-12-08T12:40:26Z</time><name>PT1277</name></trkpt>
<trkpt lat="53.076492" lon="04.881222"><ele>1.8</ele><time>2021-12-08T12:40:27Z</time><name>PT1278</name></trkpt>
<trkpt lat="53.076481" lon="04.881233"><ele>1.9</ele><time>2021-12-08T12:40:27Z</time><name>PT1279</name></trkpt>
<trkpt lat="53.076469" lon="04.881248"><ele>1.9</ele><time>2021-12-08T12:40:29Z</time><name>PT1280</name></trkpt>
<trkpt lat="53.076461" lon="04.881263"><ele>1.7</ele><time>2021-12-08T12:40:30Z</time><name>PT1281</name></trkpt>
<trkpt lat="53.076454" lon="04.881275"><ele>1.6</ele><time>2021-12-08T12:40:30Z</time><name>PT1282</name></trkpt>
<trkpt lat="53.076452" lon="04.881274"><ele>1.4</ele><time>2021-12-08T12:40:32Z</time><name>PT1283</name></trkpt>
<trkpt lat="53.076448" lon="04.881282"><ele>1.5</ele><time>2021-12-08T12:40:33Z</time><name>PT1284</name></trkpt>
<trkpt lat="53.076439" lon="04.881288"><ele>1.5</ele><time>2021-12-08T12:40:33Z</time><name>PT1285</name></trkpt>
<trkpt lat="53.076432" lon="04.881294"><ele>1.5</ele><time>2021-12-08T12:40:35Z</time><name>PT1286</name></trkpt>
<trkpt lat="53.076424" lon="04.881298"><ele>1.4</ele><time>2021-12-08T12:40:36Z</time><name>PT1287</name></trkpt>
<trkpt lat="53.076417" lon="04.881307"><ele>1.7</ele><time>2021-12-08T12:40:36Z</time><name>PT1288</name></trkpt>
<trkpt lat="53.076410" lon="04.881316"><ele>1.4</ele><time>2021-12-08T12:40:38Z</time><name>PT1289</name></trkpt>
<trkpt lat="53.076405" lon="04.881324"><ele>1.4</ele><time>2021-12-08T12:40:39Z</time><name>PT1290</name></trkpt>
<trkpt lat="53.076400" lon="04.881336"><ele>1.3</ele><time>2021-12-08T12:40:39Z</time><name>PT1291</name></trkpt>
<trkpt lat="53.076395" lon="04.881349"><ele>1.3</ele><time>2021-12-08T12:40:41Z</time><name>PT1292</name></trkpt>
<trkpt lat="53.076392" lon="04.881351"><ele>1.2</ele><time>2021-12-08T12:40:42Z</time><name>PT1293</name></trkpt>
<trkpt lat="53.076388" lon="04.881357"><ele>1</ele><time>2021-12-08T12:40:42Z</time><name>PT1294</name></trkpt>
<trkpt lat="53.076382" lon="04.881367"><ele>1</ele><time>2021-12-08T12:40:44Z</time><name>PT1295</name></trkpt>
<trkpt lat="53.076380" lon="04.881372"><ele>1.1</ele><time>2021-12-08T12:40:45Z</time><name>PT1296</name></trkpt>
<trkpt lat="53.076382" lon="04.881372"><ele>1.1</ele><time>2021-12-08T12:40:45Z</time><name>PT1297</name></trkpt>
<trkpt lat="53.076380" lon="04.881373"><ele>0.8</ele><time>2021-12-08T12:40:47Z</time><name>PT1298</name></trkpt>
<trkpt lat="53.076379" lon="04.881373"><ele>0.7</ele><time>2021-12-08T12:40:48Z</time><name>PT1299</name></trkpt>
<trkpt lat="53.076380" lon="04.881378"><ele>0.6</ele><time>2021-12-08T12:40:48Z</time><name>PT1300</name></trkpt>
<trkpt lat="53.076375" lon="04.881391"><ele>0.5</ele><time>2021-12-08T12:40:50Z</time><name>PT1301</name></trkpt>
<trkpt lat="53.076370" lon="04.881398"><ele>0.8</ele><time>2021-12-08T12:40:51Z</time><name>PT1302</name></trkpt>
<trkpt lat="53.076360" lon="04.881401"><ele>0.8</ele><time>2021-12-08T12:40:51Z</time><name>PT1303</name></trkpt>
<trkpt lat="53.076349" lon="04.881412"><ele>1.1</ele><time>2021-12-08T12:40:53Z</time><name>PT1304</name></trkpt>
<trkpt lat="53.076346" lon="04.881423"><ele>1</ele><time>2021-12-08T12:40:54Z</time><name>PT1305</name></trkpt>
<trkpt lat="53.076341" lon="04.881431"><ele>1</ele><time>2021-12-08T12:40:54Z</time><name>PT1306</name></trkpt>
<trkpt lat="53.076341" lon="04.881438"><ele>1.2</ele><time>2021-12-08T12:40:56Z</time><name>PT1307</name></trkpt>
<trkpt lat="53.076345" lon="04.881436"><ele>1.2</ele><time>2021-12-08T12:40:57Z</time><name>PT1308</name></trkpt>
<trkpt lat="53.076344" lon="04.881437"><ele>1.4</ele><time>2021-12-08T12:40:57Z</time><name>PT1309</name></trkpt>
<trkpt lat="53.076339" lon="04.881440"><ele>1.3</ele><time>2021-12-08T12:40:59Z</time><name>PT1310</name></trkpt>
<trkpt lat="53.076333" lon="04.881445"><ele>1.2</ele><time>2021-12-08T12:41:00Z</time><name>PT1311</name></trkpt>
<trkpt lat="53.076325" lon="04.881447"><ele>1</ele><time>2021-12-08T12:41:00Z</time><name>PT1312</name></trkpt>
<trkpt lat="53.076322" lon="04.881453"><ele>0.8</ele><time>2021-12-08T12:41:02Z</time><name>PT1313</name></trkpt>
<trkpt lat="53.076321" lon="04.881464"><ele>0.9</ele><time>2021-12-08T12:41:03Z</time><name>PT1314</name></trkpt>
<trkpt lat="53.076320" lon="04.881472"><ele>0.9</ele><time>2021-12-08T12:41:03Z</time><name>PT1315</name></trkpt>
<trkpt lat="53.076319" lon="04.881476"><ele>0.9</ele><time>2021-12-08T12:41:05Z</time><name>PT1316</name></trkpt>
<trkpt lat="53.076318" lon="04.881474"><ele>1.1</ele><time>2021-12-08T12:41:06Z</time><name>PT1317</name></trkpt>
<trkpt lat="53.076317" lon="04.881475"><ele>1.1</ele><time>2021-12-08T12:41:06Z</time><name>PT1318</name></trkpt>
<trkpt lat="53.076318" lon="04.881477"><ele>1.5</ele><time>2021-12-08T12:41:08Z</time><name>PT1319</name></trkpt>
<trkpt lat="53.076319" lon="04.881476"><ele>1.9</ele><time>2021-12-08T12:41:11Z</time><name>PT1320</name></trkpt>
<trkpt lat="53.076321" lon="04.881470"><ele>2</ele><time>2021-12-08T12:41:12Z</time><name>PT1321</name></trkpt>
<trkpt lat="53.076319" lon="04.881472"><ele>2</ele><time>2021-12-08T12:41:12Z</time><name>PT1322</name></trkpt>
<trkpt lat="53.076318" lon="04.881466"><ele>2</ele><time>2021-12-08T12:41:14Z</time><name>PT1323</name></trkpt>
<trkpt lat="53.076316" lon="04.881472"><ele>2</ele><time>2021-12-08T12:41:15Z</time><name>PT1324</name></trkpt>
<trkpt lat="53.076315" lon="04.881479"><ele>1.9</ele><time>2021-12-08T12:41:15Z</time><name>PT1325</name></trkpt>
<trkpt lat="53.076316" lon="04.881479"><ele>1.7</ele><time>2021-12-08T12:41:17Z</time><name>PT1326</name></trkpt>
<trkpt lat="53.076318" lon="04.881481"><ele>1.7</ele><time>2021-12-08T12:41:18Z</time><name>PT1327</name></trkpt>
<trkpt lat="53.076317" lon="04.881486"><ele>1.1</ele><time>2021-12-08T12:41:23Z</time><name>PT1328</name></trkpt>
<trkpt lat="53.076319" lon="04.881487"><ele>1.3</ele><time>2021-12-08T12:41:24Z</time><name>PT1329</name></trkpt>
<trkpt lat="53.076319" lon="04.881491"><ele>1.4</ele><time>2021-12-08T12:41:24Z</time><name>PT1330</name></trkpt>
<trkpt lat="53.076317" lon="04.881493"><ele>1.1</ele><time>2021-12-08T12:41:51Z</time><name>PT1331</name></trkpt>
<trkpt lat="53.076319" lon="04.881491"><ele>1.2</ele><time>2021-12-08T12:41:53Z</time><name>PT1332</name></trkpt>
<trkpt lat="53.076320" lon="04.881489"><ele>1.4</ele><time>2021-12-08T12:41:54Z</time><name>PT1333</name></trkpt>
<trkpt lat="53.076318" lon="04.881484"><ele>1.6</ele><time>2021-12-08T12:41:54Z</time><name>PT1334</name></trkpt>
<trkpt lat="53.076316" lon="04.881481"><ele>1.7</ele><time>2021-12-08T12:41:56Z</time><name>PT1335</name></trkpt>
<trkpt lat="53.076314" lon="04.881478"><ele>1.4</ele><time>2021-12-08T12:42:12Z</time><name>PT1336</name></trkpt>
<trkpt lat="53.076314" lon="04.881473"><ele>1.3</ele><time>2021-12-08T12:42:14Z</time><name>PT1337</name></trkpt>
<trkpt lat="53.076311" lon="04.881462"><ele>1.2</ele><time>2021-12-08T12:42:15Z</time><name>PT1338</name></trkpt>
<trkpt lat="53.076306" lon="04.881450"><ele>1.1</ele><time>2021-12-08T12:42:15Z</time><name>PT1339</name></trkpt>
<trkpt lat="53.076302" lon="04.881438"><ele>1.2</ele><time>2021-12-08T12:42:17Z</time><name>PT1340</name></trkpt>
<trkpt lat="53.076301" lon="04.881433"><ele>1.4</ele><time>2021-12-08T12:42:18Z</time><name>PT1341</name></trkpt>
<trkpt lat="53.076300" lon="04.881436"><ele>1.4</ele><time>2021-12-08T12:42:18Z</time><name>PT1342</name></trkpt>
<trkpt lat="53.076296" lon="04.881441"><ele>1.3</ele><time>2021-12-08T12:42:20Z</time><name>PT1343</name></trkpt>
<trkpt lat="53.076290" lon="04.881455"><ele>1.1</ele><time>2021-12-08T12:42:21Z</time><name>PT1344</name></trkpt>
<trkpt lat="53.076287" lon="04.881468"><ele>0.9</ele><time>2021-12-08T12:42:21Z</time><name>PT1345</name></trkpt>
<trkpt lat="53.076286" lon="04.881483"><ele>1.1</ele><time>2021-12-08T12:42:23Z</time><name>PT1346</name></trkpt>
<trkpt lat="53.076286" lon="04.881494"><ele>1</ele><time>2021-12-08T12:42:24Z</time><name>PT1347</name></trkpt>
<trkpt lat="53.076286" lon="04.881500"><ele>1.2</ele><time>2021-12-08T12:42:24Z</time><name>PT1348</name></trkpt>
<trkpt lat="53.076285" lon="04.881502"><ele>1.6</ele><time>2021-12-08T12:42:26Z</time><name>PT1349</name></trkpt>
<trkpt lat="53.076284" lon="04.881508"><ele>1.5</ele><time>2021-12-08T12:42:27Z</time><name>PT1350</name></trkpt>
<trkpt lat="53.076285" lon="04.881512"><ele>1.6</ele><time>2021-12-08T12:42:27Z</time><name>PT1351</name></trkpt>
<trkpt lat="53.076286" lon="04.881512"><ele>1.9</ele><time>2021-12-08T12:42:29Z</time><name>PT1352</name></trkpt>
<trkpt lat="53.076284" lon="04.881519"><ele>1.3</ele><time>2021-12-08T12:42:44Z</time><name>PT1353</name></trkpt>
<trkpt lat="53.076285" lon="04.881518"><ele>1.3</ele><time>2021-12-08T12:42:45Z</time><name>PT1354</name></trkpt>
<trkpt lat="53.076286" lon="04.881517"><ele>1.5</ele><time>2021-12-08T12:42:45Z</time><name>PT1355</name></trkpt>
<trkpt lat="53.076287" lon="04.881516"><ele>1.7</ele><time>2021-12-08T12:42:47Z</time><name>PT1356</name></trkpt>
<trkpt lat="53.076289" lon="04.881509"><ele>1.7</ele><time>2021-12-08T12:42:48Z</time><name>PT1357</name></trkpt>
<trkpt lat="53.076294" lon="04.881502"><ele>1.6</ele><time>2021-12-08T12:42:48Z</time><name>PT1358</name></trkpt>
<trkpt lat="53.076299" lon="04.881496"><ele>1.4</ele><time>2021-12-08T12:42:50Z</time><name>PT1359</name></trkpt>
<trkpt lat="53.076304" lon="04.881490"><ele>1.4</ele><time>2021-12-08T12:42:51Z</time><name>PT1360</name></trkpt>
<trkpt lat="53.076310" lon="04.881486"><ele>1.3</ele><time>2021-12-08T12:42:51Z</time><name>PT1361</name></trkpt>
<trkpt lat="53.076316" lon="04.881481"><ele>1.3</ele><time>2021-12-08T12:42:53Z</time><name>PT1362</name></trkpt>
<trkpt lat="53.076323" lon="04.881480"><ele>1.3</ele><time>2021-12-08T12:42:54Z</time><name>PT1363</name></trkpt>
<trkpt lat="53.076330" lon="04.881482"><ele>1.2</ele><time>2021-12-08T12:42:54Z</time><name>PT1364</name></trkpt>
<trkpt lat="53.076336" lon="04.881486"><ele>1.3</ele><time>2021-12-08T12:42:56Z</time><name>PT1365</name></trkpt>
<trkpt lat="53.076344" lon="04.881490"><ele>1.3</ele><time>2021-12-08T12:42:57Z</time><name>PT1366</name></trkpt>
<trkpt lat="53.076350" lon="04.881493"><ele>1.4</ele><time>2021-12-08T12:42:57Z</time><name>PT1367</name></trkpt>
<trkpt lat="53.076355" lon="04.881495"><ele>1.6</ele><time>2021-12-08T12:42:59Z</time><name>PT1368</name></trkpt>
<trkpt lat="53.076356" lon="04.881491"><ele>1.4</ele><time>2021-12-08T12:43:00Z</time><name>PT1369</name></trkpt>
<trkpt lat="53.076356" lon="04.881484"><ele>1.5</ele><time>2021-12-08T12:43:00Z</time><name>PT1370</name></trkpt>
<trkpt lat="53.076351" lon="04.881474"><ele>1.5</ele><time>2021-12-08T12:43:02Z</time><name>PT1371</name></trkpt>
<trkpt lat="53.076347" lon="04.881461"><ele>1.3</ele><time>2021-12-08T12:43:03Z</time><name>PT1372</name></trkpt>
<trkpt lat="53.076346" lon="04.881446"><ele>1.4</ele><time>2021-12-08T12:43:03Z</time><name>PT1373</name></trkpt>
<trkpt lat="53.076346" lon="04.881430"><ele>1.4</ele><time>2021-12-08T12:43:05Z</time><name>PT1374</name></trkpt>
<trkpt lat="53.076345" lon="04.881415"><ele>1.4</ele><time>2021-12-08T12:43:06Z</time><name>PT1375</name></trkpt>
<trkpt lat="53.076344" lon="04.881402"><ele>1.5</ele><time>2021-12-08T12:43:06Z</time><name>PT1376</name></trkpt>
<trkpt lat="53.076341" lon="04.881397"><ele>1.4</ele><time>2021-12-08T12:43:08Z</time><name>PT1377</name></trkpt>
<trkpt lat="53.076337" lon="04.881396"><ele>1.1</ele><time>2021-12-08T12:43:09Z</time><name>PT1378</name></trkpt>
<trkpt lat="53.076339" lon="04.881389"><ele>1</ele><time>2021-12-08T12:43:09Z</time><name>PT1379</name></trkpt>
<trkpt lat="53.076340" lon="04.881381"><ele>1.1</ele><time>2021-12-08T12:43:11Z</time><name>PT1380</name></trkpt>
<trkpt lat="53.076341" lon="04.881381"><ele>1.4</ele><time>2021-12-08T12:43:12Z</time><name>PT1381</name></trkpt>
<trkpt lat="53.076339" lon="04.881380"><ele>1.4</ele><time>2021-12-08T12:43:12Z</time><name>PT1382</name></trkpt>
<trkpt lat="53.076339" lon="04.881379"><ele>1.4</ele><time>2021-12-08T12:43:14Z</time><name>PT1383</name></trkpt>
<trkpt lat="53.076339" lon="04.881378"><ele>1.4</ele><time>2021-12-08T12:43:15Z</time><name>PT1384</name></trkpt>
<trkpt lat="53.076343" lon="04.881373"><ele>1.3</ele><time>2021-12-08T12:43:15Z</time><name>PT1385</name></trkpt>
<trkpt lat="53.076348" lon="04.881365"><ele>1.2</ele><time>2021-12-08T12:43:17Z</time><name>PT1386</name></trkpt>
<trkpt lat="53.076356" lon="04.881356"><ele>1</ele><time>2021-12-08T12:43:18Z</time><name>PT1387</name></trkpt>
<trkpt lat="53.076363" lon="04.881346"><ele>0.9</ele><time>2021-12-08T12:43:18Z</time><name>PT1388</name></trkpt>
<trkpt lat="53.076371" lon="04.881335"><ele>0.8</ele><time>2021-12-08T12:43:20Z</time><name>PT1389</name></trkpt>
<trkpt lat="53.076378" lon="04.881322"><ele>0.8</ele><time>2021-12-08T12:43:21Z</time><name>PT1390</name></trkpt>
<trkpt lat="53.076384" lon="04.881308"><ele>0.8</ele><time>2021-12-08T12:43:21Z</time><name>PT1391</name></trkpt>
<trkpt lat="53.076390" lon="04.881294"><ele>0.8</ele><time>2021-12-08T12:43:23Z</time><name>PT1392</name></trkpt>
<trkpt lat="53.076395" lon="04.881280"><ele>0.8</ele><time>2021-12-08T12:43:24Z</time><name>PT1393</name></trkpt>
<trkpt lat="53.076397" lon="04.881262"><ele>0.8</ele><time>2021-12-08T12:43:24Z</time><name>PT1394</name></trkpt>
<trkpt lat="53.076400" lon="04.881243"><ele>1</ele><time>2021-12-08T12:43:26Z</time><name>PT1395</name></trkpt>
<trkpt lat="53.076402" lon="04.881225"><ele>1.4</ele><time>2021-12-08T12:43:27Z</time><name>PT1396</name></trkpt>
<trkpt lat="53.076402" lon="04.881216"><ele>1.4</ele><time>2021-12-08T12:43:27Z</time><name>PT1397</name></trkpt>
<trkpt lat="53.076400" lon="04.881212"><ele>1.7</ele><time>2021-12-08T12:43:29Z</time><name>PT1398</name></trkpt>
<trkpt lat="53.076397" lon="04.881208"><ele>1.7</ele><time>2021-12-08T12:43:30Z</time><name>PT1399</name></trkpt>
<trkpt lat="53.076397" lon="04.881206"><ele>1.6</ele><time>2021-12-08T12:43:30Z</time><name>PT1400</name></trkpt>
<trkpt lat="53.076398" lon="04.881199"><ele>1.7</ele><time>2021-12-08T12:43:32Z</time><name>PT1401</name></trkpt>
<trkpt lat="53.076399" lon="04.881194"><ele>1.2</ele><time>2021-12-08T12:43:33Z</time><name>PT1402</name></trkpt>
<trkpt lat="53.076398" lon="04.881193"><ele>1.2</ele><time>2021-12-08T12:43:33Z</time><name>PT1403</name></trkpt>
<trkpt lat="53.076400" lon="04.881193"><ele>1.2</ele><time>2021-12-08T12:43:35Z</time><name>PT1404</name></trkpt>
<trkpt lat="53.076403" lon="04.881196"><ele>1.3</ele><time>2021-12-08T12:44:03Z</time><name>PT1405</name></trkpt>
<trkpt lat="53.076406" lon="04.881209"><ele>1.2</ele><time>2021-12-08T12:44:03Z</time><name>PT1406</name></trkpt>
<trkpt lat="53.076404" lon="04.881225"><ele>1.2</ele><time>2021-12-08T12:44:05Z</time><name>PT1407</name></trkpt>
<trkpt lat="53.076403" lon="04.881244"><ele>1.3</ele><time>2021-12-08T12:44:06Z</time><name>PT1408</name></trkpt>
<trkpt lat="53.076403" lon="04.881261"><ele>1.3</ele><time>2021-12-08T12:44:06Z</time><name>PT1409</name></trkpt>
<trkpt lat="53.076403" lon="04.881278"><ele>1.3</ele><time>2021-12-08T12:44:08Z</time><name>PT1410</name></trkpt>
<trkpt lat="53.076401" lon="04.881294"><ele>1.3</ele><time>2021-12-08T12:44:09Z</time><name>PT1411</name></trkpt>
<trkpt lat="53.076395" lon="04.881304"><ele>1</ele><time>2021-12-08T12:44:09Z</time><name>PT1412</name></trkpt>
<trkpt lat="53.076387" lon="04.881315"><ele>0.8</ele><time>2021-12-08T12:44:11Z</time><name>PT1413</name></trkpt>
<trkpt lat="53.076380" lon="04.881326"><ele>0.4</ele><time>2021-12-08T12:44:12Z</time><name>PT1414</name></trkpt>
<trkpt lat="53.076376" lon="04.881337"><ele>0.3</ele><time>2021-12-08T12:44:12Z</time><name>PT1415</name></trkpt>
<trkpt lat="53.076370" lon="04.881347"><ele>0.5</ele><time>2021-12-08T12:44:14Z</time><name>PT1416</name></trkpt>
<trkpt lat="53.076363" lon="04.881356"><ele>0.5</ele><time>2021-12-08T12:44:15Z</time><name>PT1417</name></trkpt>
<trkpt lat="53.076358" lon="04.881367"><ele>0.4</ele><time>2021-12-08T12:44:15Z</time><name>PT1418</name></trkpt>
<trkpt lat="53.076356" lon="04.881383"><ele>0.8</ele><time>2021-12-08T12:44:17Z</time><name>PT1419</name></trkpt>
<trkpt lat="53.076353" lon="04.881396"><ele>1</ele><time>2021-12-08T12:44:18Z</time><name>PT1420</name></trkpt>
<trkpt lat="53.076355" lon="04.881405"><ele>1</ele><time>2021-12-08T12:44:18Z</time><name>PT1421</name></trkpt>
<trkpt lat="53.076361" lon="04.881406"><ele>1.5</ele><time>2021-12-08T12:44:20Z</time><name>PT1422</name></trkpt>
<trkpt lat="53.076363" lon="04.881416"><ele>1.4</ele><time>2021-12-08T12:44:21Z</time><name>PT1423</name></trkpt>
<trkpt lat="53.076364" lon="04.881415"><ele>1.4</ele><time>2021-12-08T12:44:21Z</time><name>PT1424</name></trkpt>
<trkpt lat="53.076364" lon="04.881416"><ele>1.4</ele><time>2021-12-08T12:44:23Z</time><name>PT1425</name></trkpt>
<trkpt lat="53.076364" lon="04.881416"><ele>1.2</ele><time>2021-12-08T12:44:24Z</time><name>PT1426</name></trkpt>
<trkpt lat="53.076359" lon="04.881416"><ele>0.8</ele><time>2021-12-08T12:44:35Z</time><name>PT1427</name></trkpt>
<trkpt lat="53.076350" lon="04.881427"><ele>0.7</ele><time>2021-12-08T12:44:36Z</time><name>PT1428</name></trkpt>
<trkpt lat="53.076340" lon="04.881436"><ele>0.5</ele><time>2021-12-08T12:44:36Z</time><name>PT1429</name></trkpt>
<trkpt lat="53.076331" lon="04.881447"><ele>0.3</ele><time>2021-12-08T12:44:38Z</time><name>PT1430</name></trkpt>
<trkpt lat="53.076320" lon="04.881452"><ele>0</ele><time>2021-12-08T12:44:39Z</time><name>PT1431</name></trkpt>
<trkpt lat="53.076310" lon="04.881460"><ele>0</ele><time>2021-12-08T12:44:39Z</time><name>PT1432</name></trkpt>
<trkpt lat="53.076300" lon="04.881471"><ele>0.3</ele><time>2021-12-08T12:44:41Z</time><name>PT1433</name></trkpt>
<trkpt lat="53.076293" lon="04.881481"><ele>0.3</ele><time>2021-12-08T12:44:42Z</time><name>PT1434</name></trkpt>
<trkpt lat="53.076286" lon="04.881489"><ele>0.4</ele><time>2021-12-08T12:44:42Z</time><name>PT1435</name></trkpt>
<trkpt lat="53.076278" lon="04.881502"><ele>0.2</ele><time>2021-12-08T12:44:44Z</time><name>PT1436</name></trkpt>
<trkpt lat="53.076270" lon="04.881517"><ele>0.1</ele><time>2021-12-08T12:44:45Z</time><name>PT1437</name></trkpt>
<trkpt lat="53.076262" lon="04.881531"><ele>0</ele><time>2021-12-08T12:44:45Z</time><name>PT1438</name></trkpt>
<trkpt lat="53.076254" lon="04.881545"><ele>0.1</ele><time>2021-12-08T12:44:47Z</time><name>PT1439</name></trkpt>
<trkpt lat="53.076245" lon="04.881557"><ele>0.1</ele><time>2021-12-08T12:44:48Z</time><name>PT1440</name></trkpt>
<trkpt lat="53.076238" lon="04.881571"><ele>0</ele><time>2021-12-08T12:44:48Z</time><name>PT1441</name></trkpt>
<trkpt lat="53.076231" lon="04.881582"><ele>0.2</ele><time>2021-12-08T12:44:50Z</time><name>PT1442</name></trkpt>
<trkpt lat="53.076223" lon="04.881593"><ele>0.2</ele><time>2021-12-08T12:44:51Z</time><name>PT1443</name></trkpt>
<trkpt lat="53.076216" lon="04.881606"><ele>0.1</ele><time>2021-12-08T12:44:51Z</time><name>PT1444</name></trkpt>
<trkpt lat="53.076208" lon="04.881618"><ele>0</ele><time>2021-12-08T12:44:53Z</time><name>PT1445</name></trkpt>
<trkpt lat="53.076202" lon="04.881628"><ele>0</ele><time>2021-12-08T12:44:54Z</time><name>PT1446</name></trkpt>
<trkpt lat="53.076195" lon="04.881636"><ele>0</ele><time>2021-12-08T12:44:54Z</time><name>PT1447</name></trkpt>
<trkpt lat="53.076186" lon="04.881645"><ele>0</ele><time>2021-12-08T12:44:56Z</time><name>PT1448</name></trkpt>
<trkpt lat="53.076177" lon="04.881657"><ele>0.4</ele><time>2021-12-08T12:44:57Z</time><name>PT1449</name></trkpt>
<trkpt lat="53.076169" lon="04.881668"><ele>0.5</ele><time>2021-12-08T12:44:57Z</time><name>PT1450</name></trkpt>
<trkpt lat="53.076162" lon="04.881679"><ele>0.5</ele><time>2021-12-08T12:44:59Z</time><name>PT1451</name></trkpt>
<trkpt lat="53.076153" lon="04.881690"><ele>0.5</ele><time>2021-12-08T12:45:00Z</time><name>PT1452</name></trkpt>
<trkpt lat="53.076146" lon="04.881703"><ele>0.4</ele><time>2021-12-08T12:45:00Z</time><name>PT1453</name></trkpt>
<trkpt lat="53.076138" lon="04.881716"><ele>0</ele><time>2021-12-08T12:45:02Z</time><name>PT1454</name></trkpt>
<trkpt lat="53.076131" lon="04.881728"><ele>0.4</ele><time>2021-12-08T12:45:03Z</time><name>PT1455</name></trkpt>
<trkpt lat="53.076123" lon="04.881739"><ele>0.3</ele><time>2021-12-08T12:45:03Z</time><name>PT1456</name></trkpt>
<trkpt lat="53.076115" lon="04.881748"><ele>0.8</ele><time>2021-12-08T12:45:05Z</time><name>PT1457</name></trkpt>
<trkpt lat="53.076105" lon="04.881758"><ele>0.4</ele><time>2021-12-08T12:45:06Z</time><name>PT1458</name></trkpt>
<trkpt lat="53.076095" lon="04.881767"><ele>0.2</ele><time>2021-12-08T12:45:06Z</time><name>PT1459</name></trkpt>
<trkpt lat="53.076085" lon="04.881778"><ele>0.2</ele><time>2021-12-08T12:45:08Z</time><name>PT1460</name></trkpt>
<trkpt lat="53.076078" lon="04.881788"><ele>0.4</ele><time>2021-12-08T12:45:09Z</time><name>PT1461</name></trkpt>
<trkpt lat="53.076071" lon="04.881799"><ele>0.3</ele><time>2021-12-08T12:45:09Z</time><name>PT1462</name></trkpt>
<trkpt lat="53.076064" lon="04.881812"><ele>0.1</ele><time>2021-12-08T12:45:11Z</time><name>PT1463</name></trkpt>
<trkpt lat="53.076058" lon="04.881823"><ele>0</ele><time>2021-12-08T12:45:12Z</time><name>PT1464</name></trkpt>
<trkpt lat="53.076053" lon="04.881833"><ele>0.3</ele><time>2021-12-08T12:45:12Z</time><name>PT1465</name></trkpt>
<trkpt lat="53.076045" lon="04.881842"><ele>0.5</ele><time>2021-12-08T12:45:14Z</time><name>PT1466</name></trkpt>
<trkpt lat="53.076037" lon="04.881853"><ele>0.4</ele><time>2021-12-08T12:45:15Z</time><name>PT1467</name></trkpt>
<trkpt lat="53.076030" lon="04.881865"><ele>0.3</ele><time>2021-12-08T12:45:15Z</time><name>PT1468</name></trkpt>
<trkpt lat="53.076023" lon="04.881879"><ele>0</ele><time>2021-12-08T12:45:17Z</time><name>PT1469</name></trkpt>
<trkpt lat="53.076015" lon="04.881892"><ele>0.3</ele><time>2021-12-08T12:45:18Z</time><name>PT1470</name></trkpt>
<trkpt lat="53.076008" lon="04.881903"><ele>0.5</ele><time>2021-12-08T12:45:18Z</time><name>PT1471</name></trkpt>
<trkpt lat="53.076001" lon="04.881913"><ele>0.7</ele><time>2021-12-08T12:45:20Z</time><name>PT1472</name></trkpt>
<trkpt lat="53.075998" lon="04.881918"><ele>0.5</ele><time>2021-12-08T12:45:21Z</time><name>PT1473</name></trkpt>
<trkpt lat="53.075997" lon="04.881921"><ele>0.7</ele><time>2021-12-08T12:45:21Z</time><name>PT1474</name></trkpt>
<trkpt lat="53.075996" lon="04.881923"><ele>1</ele><time>2021-12-08T12:45:23Z</time><name>PT1475</name></trkpt>
<trkpt lat="53.075990" lon="04.881923"><ele>0.9</ele><time>2021-12-08T12:45:32Z</time><name>PT1476</name></trkpt>
<trkpt lat="53.075986" lon="04.881924"><ele>0.8</ele><time>2021-12-08T12:45:33Z</time><name>PT1477</name></trkpt>
<trkpt lat="53.075983" lon="04.881923"><ele>0.2</ele><time>2021-12-08T12:45:33Z</time><name>PT1478</name></trkpt>
<trkpt lat="53.075980" lon="04.881931"><ele>0.6</ele><time>2021-12-08T12:45:36Z</time><name>PT1479</name></trkpt>
<trkpt lat="53.075972" lon="04.881946"><ele>0.6</ele><time>2021-12-08T12:45:38Z</time><name>PT1480</name></trkpt>
<trkpt lat="53.075965" lon="04.881960"><ele>0.6</ele><time>2021-12-08T12:45:39Z</time><name>PT1481</name></trkpt>
<trkpt lat="53.075959" lon="04.881978"><ele>0.3</ele><time>2021-12-08T12:45:39Z</time><name>PT1482</name></trkpt>
<trkpt lat="53.075949" lon="04.881992"><ele>0</ele><time>2021-12-08T12:45:41Z</time><name>PT1483</name></trkpt>
<trkpt lat="53.075942" lon="04.882006"><ele>0.2</ele><time>2021-12-08T12:45:42Z</time><name>PT1484</name></trkpt>
<trkpt lat="53.075935" lon="04.882020"><ele>0.2</ele><time>2021-12-08T12:45:42Z</time><name>PT1485</name></trkpt>
<trkpt lat="53.075925" lon="04.882031"><ele>0.4</ele><time>2021-12-08T12:45:44Z</time><name>PT1486</name></trkpt>
<trkpt lat="53.075917" lon="04.882042"><ele>0.7</ele><time>2021-12-08T12:45:45Z</time><name>PT1487</name></trkpt>
<trkpt lat="53.075913" lon="04.882050"><ele>0.4</ele><time>2021-12-08T12:45:45Z</time><name>PT1488</name></trkpt>
<trkpt lat="53.075906" lon="04.882062"><ele>0</ele><time>2021-12-08T12:45:47Z</time><name>PT1489</name></trkpt>
<trkpt lat="53.075895" lon="04.882070"><ele>0.8</ele><time>2021-12-08T12:45:48Z</time><name>PT1490</name></trkpt>
<trkpt lat="53.075887" lon="04.882085"><ele>1.1</ele><time>2021-12-08T12:45:48Z</time><name>PT1491</name></trkpt>
<trkpt lat="53.075876" lon="04.882093"><ele>0.8</ele><time>2021-12-08T12:45:50Z</time><name>PT1492</name></trkpt>
<trkpt lat="53.075867" lon="04.882110"><ele>0.4</ele><time>2021-12-08T12:45:51Z</time><name>PT1493</name></trkpt>
<trkpt lat="53.075858" lon="04.882121"><ele>0.2</ele><time>2021-12-08T12:45:51Z</time><name>PT1494</name></trkpt>
<trkpt lat="53.075852" lon="04.882135"><ele>0.2</ele><time>2021-12-08T12:45:53Z</time><name>PT1495</name></trkpt>
<trkpt lat="53.075844" lon="04.882148"><ele>0.2</ele><time>2021-12-08T12:45:54Z</time><name>PT1496</name></trkpt>
<trkpt lat="53.075837" lon="04.882160"><ele>0</ele><time>2021-12-08T12:45:54Z</time><name>PT1497</name></trkpt>
<trkpt lat="53.075828" lon="04.882172"><ele>0</ele><time>2021-12-08T12:45:56Z</time><name>PT1498</name></trkpt>
<trkpt lat="53.075818" lon="04.882184"><ele>0.1</ele><time>2021-12-08T12:45:57Z</time><name>PT1499</name></trkpt>
<trkpt lat="53.075809" lon="04.882198"><ele>0.2</ele><time>2021-12-08T12:45:57Z</time><name>PT1500</name></trkpt>
<trkpt lat="53.075800" lon="04.882212"><ele>0.4</ele><time>2021-12-08T12:45:59Z</time><name>PT1501</name></trkpt>
<trkpt lat="53.075793" lon="04.882222"><ele>0.2</ele><time>2021-12-08T12:46:00Z</time><name>PT1502</name></trkpt>
<trkpt lat="53.075785" lon="04.882235"><ele>0</ele><time>2021-12-08T12:46:00Z</time><name>PT1503</name></trkpt>
<trkpt lat="53.075777" lon="04.882247"><ele>0</ele><time>2021-12-08T12:46:02Z</time><name>PT1504</name></trkpt>
<trkpt lat="53.075768" lon="04.882260"><ele>0.3</ele><time>2021-12-08T12:46:03Z</time><name>PT1505</name></trkpt>
<trkpt lat="53.075759" lon="04.882274"><ele>0.4</ele><time>2021-12-08T12:46:03Z</time><name>PT1506</name></trkpt>
<trkpt lat="53.075750" lon="04.882287"><ele>0.2</ele><time>2021-12-08T12:46:05Z</time><name>PT1507</name></trkpt>
<trkpt lat="53.075741" lon="04.882299"><ele>0.1</ele><time>2021-12-08T12:46:06Z</time><name>PT1508</name></trkpt>
<trkpt lat="53.075731" lon="04.882312"><ele>0.2</ele><time>2021-12-08T12:46:06Z</time><name>PT1509</name></trkpt>
<trkpt lat="53.075722" lon="04.882326"><ele>0.5</ele><time>2021-12-08T12:46:08Z</time><name>PT1510</name></trkpt>
<trkpt lat="53.075709" lon="04.882343"><ele>0.7</ele><time>2021-12-08T12:46:09Z</time><name>PT1511</name></trkpt>
<trkpt lat="53.075698" lon="04.882357"><ele>0.7</ele><time>2021-12-08T12:46:09Z</time><name>PT1512</name></trkpt>
<trkpt lat="53.075687" lon="04.882370"><ele>0.3</ele><time>2021-12-08T12:46:11Z</time><name>PT1513</name></trkpt>
<trkpt lat="53.075677" lon="04.882383"><ele>0.2</ele><time>2021-12-08T12:46:12Z</time><name>PT1514</name></trkpt>
<trkpt lat="53.075668" lon="04.882399"><ele>0.2</ele><time>2021-12-08T12:46:12Z</time><name>PT1515</name></trkpt>
<trkpt lat="53.075658" lon="04.882415"><ele>0.2</ele><time>2021-12-08T12:46:14Z</time><name>PT1516</name></trkpt>
<trkpt lat="53.075648" lon="04.882431"><ele>0.3</ele><time>2021-12-08T12:46:15Z</time><name>PT1517</name></trkpt>
<trkpt lat="53.075640" lon="04.882447"><ele>0.5</ele><time>2021-12-08T12:46:15Z</time><name>PT1518</name></trkpt>
<trkpt lat="53.075630" lon="04.882462"><ele>0.3</ele><time>2021-12-08T12:46:17Z</time><name>PT1519</name></trkpt>
<trkpt lat="53.075621" lon="04.882476"><ele>0.3</ele><time>2021-12-08T12:46:18Z</time><name>PT1520</name></trkpt>
<trkpt lat="53.075611" lon="04.882489"><ele>0.2</ele><time>2021-12-08T12:46:18Z</time><name>PT1521</name></trkpt>
<trkpt lat="53.075599" lon="04.882501"><ele>0.1</ele><time>2021-12-08T12:46:20Z</time><name>PT1522</name></trkpt>
<trkpt lat="53.075589" lon="04.882515"><ele>0.2</ele><time>2021-12-08T12:46:21Z</time><name>PT1523</name></trkpt>
<trkpt lat="53.075580" lon="04.882529"><ele>0.4</ele><time>2021-12-08T12:46:21Z</time><name>PT1524</name></trkpt>
<trkpt lat="53.075571" lon="04.882543"><ele>0.5</ele><time>2021-12-08T12:46:23Z</time><name>PT1525</name></trkpt>
<trkpt lat="53.075562" lon="04.882558"><ele>0.7</ele><time>2021-12-08T12:46:24Z</time><name>PT1526</name></trkpt>
<trkpt lat="53.075551" lon="04.882573"><ele>0.7</ele><time>2021-12-08T12:46:24Z</time><name>PT1527</name></trkpt>
<trkpt lat="53.075541" lon="04.882589"><ele>0.3</ele><time>2021-12-08T12:46:26Z</time><name>PT1528</name></trkpt>
<trkpt lat="53.075530" lon="04.882606"><ele>0.2</ele><time>2021-12-08T12:46:27Z</time><name>PT1529</name></trkpt>
<trkpt lat="53.075520" lon="04.882624"><ele>0.3</ele><time>2021-12-08T12:46:27Z</time><name>PT1530</name></trkpt>
<trkpt lat="53.075512" lon="04.882642"><ele>0.7</ele><time>2021-12-08T12:46:29Z</time><name>PT1531</name></trkpt>
<trkpt lat="53.075503" lon="04.882657"><ele>0.9</ele><time>2021-12-08T12:46:30Z</time><name>PT1532</name></trkpt>
<trkpt lat="53.075492" lon="04.882670"><ele>0.9</ele><time>2021-12-08T12:46:30Z</time><name>PT1533</name></trkpt>
<trkpt lat="53.075482" lon="04.882684"><ele>0.7</ele><time>2021-12-08T12:46:32Z</time><name>PT1534</name></trkpt>
<trkpt lat="53.075473" lon="04.882698"><ele>0.8</ele><time>2021-12-08T12:46:33Z</time><name>PT1535</name></trkpt>
<trkpt lat="53.075462" lon="04.882713"><ele>0.6</ele><time>2021-12-08T12:46:33Z</time><name>PT1536</name></trkpt>
<trkpt lat="53.075450" lon="04.882726"><ele>0.5</ele><time>2021-12-08T12:46:35Z</time><name>PT1537</name></trkpt>
<trkpt lat="53.075440" lon="04.882737"><ele>0.5</ele><time>2021-12-08T12:46:36Z</time><name>PT1538</name></trkpt>
<trkpt lat="53.075431" lon="04.882749"><ele>0.4</ele><time>2021-12-08T12:46:36Z</time><name>PT1539</name></trkpt>
<trkpt lat="53.075422" lon="04.882763"><ele>0.2</ele><time>2021-12-08T12:46:38Z</time><name>PT1540</name></trkpt>
<trkpt lat="53.075414" lon="04.882778"><ele>0</ele><time>2021-12-08T12:46:39Z</time><name>PT1541</name></trkpt>
<trkpt lat="53.075404" lon="04.882794"><ele>0.1</ele><time>2021-12-08T12:46:39Z</time><name>PT1542</name></trkpt>
<trkpt lat="53.075396" lon="04.882808"><ele>0</ele><time>2021-12-08T12:46:41Z</time><name>PT1543</name></trkpt>
<trkpt lat="53.075387" lon="04.882824"><ele>0</ele><time>2021-12-08T12:46:42Z</time><name>PT1544</name></trkpt>
<trkpt lat="53.075377" lon="04.882839"><ele>0.1</ele><time>2021-12-08T12:46:42Z</time><name>PT1545</name></trkpt>
<trkpt lat="53.075367" lon="04.882852"><ele>0.2</ele><time>2021-12-08T12:46:44Z</time><name>PT1546</name></trkpt>
<trkpt lat="53.075358" lon="04.882864"><ele>0.3</ele><time>2021-12-08T12:46:45Z</time><name>PT1547</name></trkpt>
<trkpt lat="53.075347" lon="04.882875"><ele>0.2</ele><time>2021-12-08T12:46:45Z</time><name>PT1548</name></trkpt>
<trkpt lat="53.075335" lon="04.882888"><ele>0</ele><time>2021-12-08T12:46:47Z</time><name>PT1549</name></trkpt>
<trkpt lat="53.075325" lon="04.882901"><ele>0.2</ele><time>2021-12-08T12:46:48Z</time><name>PT1550</name></trkpt>
<trkpt lat="53.075316" lon="04.882914"><ele>0.4</ele><time>2021-12-08T12:46:48Z</time><name>PT1551</name></trkpt>
<trkpt lat="53.075307" lon="04.882929"><ele>0.4</ele><time>2021-12-08T12:46:50Z</time><name>PT1552</name></trkpt>
<trkpt lat="53.075297" lon="04.882942"><ele>0.5</ele><time>2021-12-08T12:46:51Z</time><name>PT1553</name></trkpt>
<trkpt lat="53.075287" lon="04.882957"><ele>0.4</ele><time>2021-12-08T12:46:51Z</time><name>PT1554</name></trkpt>
<trkpt lat="53.075278" lon="04.882972"><ele>0.3</ele><time>2021-12-08T12:46:53Z</time><name>PT1555</name></trkpt>
<trkpt lat="53.075269" lon="04.882986"><ele>0.2</ele><time>2021-12-08T12:46:54Z</time><name>PT1556</name></trkpt>
<trkpt lat="53.075261" lon="04.883000"><ele>0.2</ele><time>2021-12-08T12:46:54Z</time><name>PT1557</name></trkpt>
<trkpt lat="53.075252" lon="04.883013"><ele>0</ele><time>2021-12-08T12:46:56Z</time><name>PT1558</name></trkpt>
<trkpt lat="53.075243" lon="04.883025"><ele>0.3</ele><time>2021-12-08T12:46:57Z</time><name>PT1559</name></trkpt>
<trkpt lat="53.075232" lon="04.883036"><ele>0.8</ele><time>2021-12-08T12:46:57Z</time><name>PT1560</name></trkpt>
<trkpt lat="53.075222" lon="04.883046"><ele>0.4</ele><time>2021-12-08T12:46:59Z</time><name>PT1561</name></trkpt>
<trkpt lat="53.075214" lon="04.883057"><ele>0.7</ele><time>2021-12-08T12:47:00Z</time><name>PT1562</name></trkpt>
<trkpt lat="53.075205" lon="04.883070"><ele>0.9</ele><time>2021-12-08T12:47:00Z</time><name>PT1563</name></trkpt>
<trkpt lat="53.075197" lon="04.883086"><ele>1.3</ele><time>2021-12-08T12:47:02Z</time><name>PT1564</name></trkpt>
<trkpt lat="53.075189" lon="04.883102"><ele>2.5</ele><time>2021-12-08T12:47:03Z</time><name>PT1565</name></trkpt>
<trkpt lat="53.075180" lon="04.883117"><ele>2.7</ele><time>2021-12-08T12:47:03Z</time><name>PT1566</name></trkpt>
<trkpt lat="53.075172" lon="04.883130"><ele>3</ele><time>2021-12-08T12:47:05Z</time><name>PT1567</name></trkpt>
<trkpt lat="53.075163" lon="04.883141"><ele>2.4</ele><time>2021-12-08T12:47:06Z</time><name>PT1568</name></trkpt>
<trkpt lat="53.075153" lon="04.883153"><ele>1.9</ele><time>2021-12-08T12:47:06Z</time><name>PT1569</name></trkpt>
<trkpt lat="53.075144" lon="04.883164"><ele>1.2</ele><time>2021-12-08T12:47:08Z</time><name>PT1570</name></trkpt>
<trkpt lat="53.075134" lon="04.883177"><ele>0.6</ele><time>2021-12-08T12:47:09Z</time><name>PT1571</name></trkpt>
<trkpt lat="53.075123" lon="04.883188"><ele>0.8</ele><time>2021-12-08T12:47:09Z</time><name>PT1572</name></trkpt>
<trkpt lat="53.075115" lon="04.883199"><ele>0.5</ele><time>2021-12-08T12:47:11Z</time><name>PT1573</name></trkpt>
<trkpt lat="53.075108" lon="04.883212"><ele>1</ele><time>2021-12-08T12:47:12Z</time><name>PT1574</name></trkpt>
<trkpt lat="53.075099" lon="04.883224"><ele>1</ele><time>2021-12-08T12:47:12Z</time><name>PT1575</name></trkpt>
<trkpt lat="53.075091" lon="04.883238"><ele>1.4</ele><time>2021-12-08T12:47:14Z</time><name>PT1576</name></trkpt>
<trkpt lat="53.075082" lon="04.883253"><ele>1.9</ele><time>2021-12-08T12:47:15Z</time><name>PT1577</name></trkpt>
<trkpt lat="53.075073" lon="04.883267"><ele>1.9</ele><time>2021-12-08T12:47:15Z</time><name>PT1578</name></trkpt>
<trkpt lat="53.075064" lon="04.883277"><ele>2.1</ele><time>2021-12-08T12:47:17Z</time><name>PT1579</name></trkpt>
<trkpt lat="53.075055" lon="04.883290"><ele>2.2</ele><time>2021-12-08T12:47:18Z</time><name>PT1580</name></trkpt>
<trkpt lat="53.075046" lon="04.883304"><ele>2.4</ele><time>2021-12-08T12:47:18Z</time><name>PT1581</name></trkpt>
<trkpt lat="53.075036" lon="04.883316"><ele>2</ele><time>2021-12-08T12:47:20Z</time><name>PT1582</name></trkpt>
<trkpt lat="53.075026" lon="04.883329"><ele>2.3</ele><time>2021-12-08T12:47:21Z</time><name>PT1583</name></trkpt>
<trkpt lat="53.075016" lon="04.883339"><ele>2.3</ele><time>2021-12-08T12:47:21Z</time><name>PT1584</name></trkpt>
<trkpt lat="53.075007" lon="04.883351"><ele>1.9</ele><time>2021-12-08T12:47:23Z</time><name>PT1585</name></trkpt>
<trkpt lat="53.074998" lon="04.883363"><ele>2</ele><time>2021-12-08T12:47:24Z</time><name>PT1586</name></trkpt>
<trkpt lat="53.074990" lon="04.883375"><ele>1.9</ele><time>2021-12-08T12:47:24Z</time><name>PT1587</name></trkpt>
<trkpt lat="53.074982" lon="04.883389"><ele>2</ele><time>2021-12-08T12:47:26Z</time><name>PT1588</name></trkpt>
<trkpt lat="53.074975" lon="04.883402"><ele>2.5</ele><time>2021-12-08T12:47:27Z</time><name>PT1589</name></trkpt>
<trkpt lat="53.074967" lon="04.883412"><ele>2.8</ele><time>2021-12-08T12:47:27Z</time><name>PT1590</name></trkpt>
<trkpt lat="53.074958" lon="04.883423"><ele>2.5</ele><time>2021-12-08T12:47:29Z</time><name>PT1591</name></trkpt>
<trkpt lat="53.074948" lon="04.883435"><ele>2.1</ele><time>2021-12-08T12:47:30Z</time><name>PT1592</name></trkpt>
<trkpt lat="53.074937" lon="04.883446"><ele>1.9</ele><time>2021-12-08T12:47:30Z</time><name>PT1593</name></trkpt>
<trkpt lat="53.074929" lon="04.883457"><ele>1.4</ele><time>2021-12-08T12:47:32Z</time><name>PT1594</name></trkpt>
<trkpt lat="53.074921" lon="04.883469"><ele>1.7</ele><time>2021-12-08T12:47:33Z</time><name>PT1595</name></trkpt>
<trkpt lat="53.074913" lon="04.883482"><ele>2</ele><time>2021-12-08T12:47:33Z</time><name>PT1596</name></trkpt>
<trkpt lat="53.074904" lon="04.883496"><ele>2.2</ele><time>2021-12-08T12:47:35Z</time><name>PT1597</name></trkpt>
<trkpt lat="53.074896" lon="04.883508"><ele>2.7</ele><time>2021-12-08T12:47:36Z</time><name>PT1598</name></trkpt>
<trkpt lat="53.074888" lon="04.883521"><ele>2.4</ele><time>2021-12-08T12:47:36Z</time><name>PT1599</name></trkpt>
<trkpt lat="53.074880" lon="04.883535"><ele>2.8</ele><time>2021-12-08T12:47:38Z</time><name>PT1600</name></trkpt>
<trkpt lat="53.074871" lon="04.883547"><ele>2.8</ele><time>2021-12-08T12:47:39Z</time><name>PT1601</name></trkpt>
<trkpt lat="53.074860" lon="04.883558"><ele>2.5</ele><time>2021-12-08T12:47:39Z</time><name>PT1602</name></trkpt>
<trkpt lat="53.074850" lon="04.883569"><ele>2.7</ele><time>2021-12-08T12:47:41Z</time><name>PT1603</name></trkpt>
<trkpt lat="53.074840" lon="04.883580"><ele>2.2</ele><time>2021-12-08T12:47:42Z</time><name>PT1604</name></trkpt>
<trkpt lat="53.074832" lon="04.883593"><ele>1.9</ele><time>2021-12-08T12:47:42Z</time><name>PT1605</name></trkpt>
<trkpt lat="53.074827" lon="04.883609"><ele>1.4</ele><time>2021-12-08T12:47:44Z</time><name>PT1606</name></trkpt>
<trkpt lat="53.074820" lon="04.883625"><ele>0.4</ele><time>2021-12-08T12:47:45Z</time><name>PT1607</name></trkpt>
<trkpt lat="53.074811" lon="04.883638"><ele>0.2</ele><time>2021-12-08T12:47:45Z</time><name>PT1608</name></trkpt>
<trkpt lat="53.074803" lon="04.883649"><ele>0.7</ele><time>2021-12-08T12:47:47Z</time><name>PT1609</name></trkpt>
<trkpt lat="53.074794" lon="04.883660"><ele>0.8</ele><time>2021-12-08T12:47:48Z</time><name>PT1610</name></trkpt>
<trkpt lat="53.074785" lon="04.883671"><ele>0.4</ele><time>2021-12-08T12:47:48Z</time><name>PT1611</name></trkpt>
<trkpt lat="53.074775" lon="04.883683"><ele>0.7</ele><time>2021-12-08T12:47:50Z</time><name>PT1612</name></trkpt>
<trkpt lat="53.074764" lon="04.883694"><ele>1.6</ele><time>2021-12-08T12:47:51Z</time><name>PT1613</name></trkpt>
<trkpt lat="53.074755" lon="04.883704"><ele>1.7</ele><time>2021-12-08T12:47:51Z</time><name>PT1614</name></trkpt>
<trkpt lat="53.074745" lon="04.883717"><ele>1.6</ele><time>2021-12-08T12:47:53Z</time><name>PT1615</name></trkpt>
<trkpt lat="53.074737" lon="04.883731"><ele>1.4</ele><time>2021-12-08T12:47:54Z</time><name>PT1616</name></trkpt>
<trkpt lat="53.074727" lon="04.883744"><ele>1</ele><time>2021-12-08T12:47:54Z</time><name>PT1617</name></trkpt>
<trkpt lat="53.074719" lon="04.883756"><ele>1</ele><time>2021-12-08T12:47:56Z</time><name>PT1618</name></trkpt>
<trkpt lat="53.074710" lon="04.883768"><ele>1.3</ele><time>2021-12-08T12:47:57Z</time><name>PT1619</name></trkpt>
<trkpt lat="53.074700" lon="04.883779"><ele>0.8</ele><time>2021-12-08T12:47:57Z</time><name>PT1620</name></trkpt>
<trkpt lat="53.074691" lon="04.883790"><ele>0.7</ele><time>2021-12-08T12:47:59Z</time><name>PT1621</name></trkpt>
<trkpt lat="53.074682" lon="04.883802"><ele>0.8</ele><time>2021-12-08T12:48:00Z</time><name>PT1622</name></trkpt>
<trkpt lat="53.074673" lon="04.883813"><ele>0.8</ele><time>2021-12-08T12:48:00Z</time><name>PT1623</name></trkpt>
<trkpt lat="53.074664" lon="04.883824"><ele>1.1</ele><time>2021-12-08T12:48:02Z</time><name>PT1624</name></trkpt>
<trkpt lat="53.074656" lon="04.883837"><ele>1.4</ele><time>2021-12-08T12:48:03Z</time><name>PT1625</name></trkpt>
<trkpt lat="53.074648" lon="04.883851"><ele>1.5</ele><time>2021-12-08T12:48:03Z</time><name>PT1626</name></trkpt>
<trkpt lat="53.074641" lon="04.883860"><ele>1.8</ele><time>2021-12-08T12:48:05Z</time><name>PT1627</name></trkpt>
<trkpt lat="53.074636" lon="04.883863"><ele>1.8</ele><time>2021-12-08T12:48:06Z</time><name>PT1628</name></trkpt>
<trkpt lat="53.074634" lon="04.883863"><ele>2.1</ele><time>2021-12-08T12:48:06Z</time><name>PT1629</name></trkpt>
<trkpt lat="53.074633" lon="04.883865"><ele>2.4</ele><time>2021-12-08T12:48:08Z</time><name>PT1630</name></trkpt>
<trkpt lat="53.074628" lon="04.883868"><ele>2.5</ele><time>2021-12-08T12:48:09Z</time><name>PT1631</name></trkpt>
<trkpt lat="53.074622" lon="04.883878"><ele>2.4</ele><time>2021-12-08T12:48:11Z</time><name>PT1632</name></trkpt>
<trkpt lat="53.074620" lon="04.883882"><ele>2.2</ele><time>2021-12-08T12:48:12Z</time><name>PT1633</name></trkpt>
<trkpt lat="53.074616" lon="04.883886"><ele>1.9</ele><time>2021-12-08T12:48:12Z</time><name>PT1634</name></trkpt>
<trkpt lat="53.074610" lon="04.883894"><ele>1.6</ele><time>2021-12-08T12:48:14Z</time><name>PT1635</name></trkpt>
<trkpt lat="53.074603" lon="04.883900"><ele>1.4</ele><time>2021-12-08T12:48:15Z</time><name>PT1636</name></trkpt>
<trkpt lat="53.074594" lon="04.883911"><ele>1.1</ele><time>2021-12-08T12:48:15Z</time><name>PT1637</name></trkpt>
<trkpt lat="53.074585" lon="04.883921"><ele>0.9</ele><time>2021-12-08T12:48:17Z</time><name>PT1638</name></trkpt>
<trkpt lat="53.074576" lon="04.883935"><ele>0.7</ele><time>2021-12-08T12:48:18Z</time><name>PT1639</name></trkpt>
<trkpt lat="53.074567" lon="04.883947"><ele>0.6</ele><time>2021-12-08T12:48:18Z</time><name>PT1640</name></trkpt>
<trkpt lat="53.074559" lon="04.883956"><ele>0.6</ele><time>2021-12-08T12:48:20Z</time><name>PT1641</name></trkpt>
<trkpt lat="53.074551" lon="04.883963"><ele>0.2</ele><time>2021-12-08T12:48:21Z</time><name>PT1642</name></trkpt>
<trkpt lat="53.074543" lon="04.883970"><ele>0.1</ele><time>2021-12-08T12:48:21Z</time><name>PT1643</name></trkpt>
<trkpt lat="53.074536" lon="04.883978"><ele>0.2</ele><time>2021-12-08T12:48:23Z</time><name>PT1644</name></trkpt>
<trkpt lat="53.074530" lon="04.883987"><ele>0.7</ele><time>2021-12-08T12:48:24Z</time><name>PT1645</name></trkpt>
<trkpt lat="53.074525" lon="04.883997"><ele>-1.1</ele><time>2021-12-08T12:48:24Z</time><name>PT1646</name></trkpt>
<trkpt lat="53.074519" lon="04.884008"><ele>-1.1</ele><time>2021-12-08T12:48:26Z</time><name>PT1647</name></trkpt>
<trkpt lat="53.074513" lon="04.884017"><ele>-1.1</ele><time>2021-12-08T12:48:27Z</time><name>PT1648</name></trkpt>
<trkpt lat="53.074507" lon="04.884024"><ele>-1.3</ele><time>2021-12-08T12:48:27Z</time><name>PT1649</name></trkpt>
<trkpt lat="53.074504" lon="04.884028"><ele>0.9</ele><time>2021-12-08T12:48:29Z</time><name>PT1650</name></trkpt>
<trkpt lat="53.074502" lon="04.884039"><ele>0.5</ele><time>2021-12-08T12:48:30Z</time><name>PT1651</name></trkpt>
<trkpt lat="53.074498" lon="04.884051"><ele>0.3</ele><time>2021-12-08T12:48:30Z</time><name>PT1652</name></trkpt>
<trkpt lat="53.074497" lon="04.884062"><ele>0.1</ele><time>2021-12-08T12:48:32Z</time><name>PT1653</name></trkpt>
<trkpt lat="53.074492" lon="04.884074"><ele>0.6</ele><time>2021-12-08T12:48:33Z</time><name>PT1654</name></trkpt>
<trkpt lat="53.074490" lon="04.884075"><ele>0.5</ele><time>2021-12-08T12:48:33Z</time><name>PT1655</name></trkpt>
<trkpt lat="53.074485" lon="04.884078"><ele>0.8</ele><time>2021-12-08T12:48:35Z</time><name>PT1656</name></trkpt>
<trkpt lat="53.074481" lon="04.884084"><ele>0.8</ele><time>2021-12-08T12:48:36Z</time><name>PT1657</name></trkpt>
<trkpt lat="53.074478" lon="04.884092"><ele>0.7</ele><time>2021-12-08T12:48:36Z</time><name>PT1658</name></trkpt>
<trkpt lat="53.074473" lon="04.884091"><ele>0.3</ele><time>2021-12-08T12:48:38Z</time><name>PT1659</name></trkpt>
<trkpt lat="53.074471" lon="04.884088"><ele>0.3</ele><time>2021-12-08T12:48:39Z</time><name>PT1660</name></trkpt>
<trkpt lat="53.074464" lon="04.884083"><ele>-1.1</ele><time>2021-12-08T12:48:39Z</time><name>PT1661</name></trkpt>
<trkpt lat="53.074458" lon="04.884081"><ele>-1.9</ele><time>2021-12-08T12:48:41Z</time><name>PT1662</name></trkpt>
<trkpt lat="53.074453" lon="04.884083"><ele>-2.3</ele><time>2021-12-08T12:48:42Z</time><name>PT1663</name></trkpt>
<trkpt lat="53.074449" lon="04.884084"><ele>-1.8</ele><time>2021-12-08T12:48:42Z</time><name>PT1664</name></trkpt>
<trkpt lat="53.074445" lon="04.884080"><ele>0.7</ele><time>2021-12-08T12:48:44Z</time><name>PT1665</name></trkpt>
<trkpt lat="53.074442" lon="04.884082"><ele>0.8</ele><time>2021-12-08T12:48:45Z</time><name>PT1666</name></trkpt>
<trkpt lat="53.074440" lon="04.884083"><ele>1.4</ele><time>2021-12-08T12:48:45Z</time><name>PT1667</name></trkpt>
<trkpt lat="53.074438" lon="04.884082"><ele>2.1</ele><time>2021-12-08T12:48:47Z</time><name>PT1668</name></trkpt>
<trkpt lat="53.074436" lon="04.884084"><ele>2.3</ele><time>2021-12-08T12:48:48Z</time><name>PT1669</name></trkpt>
<trkpt lat="53.074432" lon="04.884084"><ele>2.1</ele><time>2021-12-08T12:48:48Z</time><name>PT1670</name></trkpt>
<trkpt lat="53.074427" lon="04.884082"><ele>1.9</ele><time>2021-12-08T12:48:50Z</time><name>PT1671</name></trkpt>
<trkpt lat="53.074419" lon="04.884082"><ele>0.4</ele><time>2021-12-08T12:48:51Z</time><name>PT1672</name></trkpt>
<trkpt lat="53.074415" lon="04.884077"><ele>0.2</ele><time>2021-12-08T12:48:51Z</time><name>PT1673</name></trkpt>
<trkpt lat="53.074413" lon="04.884080"><ele>0.2</ele><time>2021-12-08T12:48:53Z</time><name>PT1674</name></trkpt>
<trkpt lat="53.074410" lon="04.884082"><ele>0.3</ele><time>2021-12-08T12:48:54Z</time><name>PT1675</name></trkpt>
<trkpt lat="53.074406" lon="04.884085"><ele>1.3</ele><time>2021-12-08T12:48:54Z</time><name>PT1676</name></trkpt>
<trkpt lat="53.074404" lon="04.884090"><ele>2</ele><time>2021-12-08T12:48:56Z</time><name>PT1677</name></trkpt>
<trkpt lat="53.074403" lon="04.884090"><ele>2.3</ele><time>2021-12-08T12:48:57Z</time><name>PT1678</name></trkpt>
<trkpt lat="53.074400" lon="04.884093"><ele>2.4</ele><time>2021-12-08T12:48:57Z</time><name>PT1679</name></trkpt>
<trkpt lat="53.074396" lon="04.884093"><ele>2.4</ele><time>2021-12-08T12:48:59Z</time><name>PT1680</name></trkpt>
<trkpt lat="53.074395" lon="04.884093"><ele>2.5</ele><time>2021-12-08T12:49:00Z</time><name>PT1681</name></trkpt>
<trkpt lat="53.074395" lon="04.884092"><ele>2.3</ele><time>2021-12-08T12:49:00Z</time><name>PT1682</name></trkpt>
<trkpt lat="53.074394" lon="04.884090"><ele>2</ele><time>2021-12-08T12:49:02Z</time><name>PT1683</name></trkpt>
<trkpt lat="53.074394" lon="04.884084"><ele>1.2</ele><time>2021-12-08T12:49:33Z</time><name>PT1684</name></trkpt>
<trkpt lat="53.074396" lon="04.884082"><ele>1</ele><time>2021-12-08T12:49:33Z</time><name>PT1685</name></trkpt>
<trkpt lat="53.074397" lon="04.884082"><ele>0.9</ele><time>2021-12-08T12:49:35Z</time><name>PT1686</name></trkpt>
<trkpt lat="53.074398" lon="04.884077"><ele>0.9</ele><time>2021-12-08T12:50:21Z</time><name>PT1687</name></trkpt>
<trkpt lat="53.074399" lon="04.884080"><ele>1.4</ele><time>2021-12-08T12:50:23Z</time><name>PT1688</name></trkpt>
<trkpt lat="53.074392" lon="04.884087"><ele>1.1</ele><time>2021-12-08T12:50:24Z</time><name>PT1689</name></trkpt>
<trkpt lat="53.074388" lon="04.884098"><ele>0.7</ele><time>2021-12-08T12:50:24Z</time><name>PT1690</name></trkpt>
<trkpt lat="53.074380" lon="04.884108"><ele>0.3</ele><time>2021-12-08T12:50:26Z</time><name>PT1691</name></trkpt>
<trkpt lat="53.074372" lon="04.884120"><ele>0</ele><time>2021-12-08T12:50:27Z</time><name>PT1692</name></trkpt>
<trkpt lat="53.074365" lon="04.884133"><ele>0.1</ele><time>2021-12-08T12:50:27Z</time><name>PT1693</name></trkpt>
<trkpt lat="53.074358" lon="04.884144"><ele>0.2</ele><time>2021-12-08T12:50:29Z</time><name>PT1694</name></trkpt>
<trkpt lat="53.074350" lon="04.884153"><ele>0.2</ele><time>2021-12-08T12:50:30Z</time><name>PT1695</name></trkpt>
<trkpt lat="53.074341" lon="04.884162"><ele>0.5</ele><time>2021-12-08T12:50:30Z</time><name>PT1696</name></trkpt>
<trkpt lat="53.074333" lon="04.884172"><ele>0.4</ele><time>2021-12-08T12:50:32Z</time><name>PT1697</name></trkpt>
<trkpt lat="53.074325" lon="04.884182"><ele>0.4</ele><time>2021-12-08T12:50:33Z</time><name>PT1698</name></trkpt>
<trkpt lat="53.074317" lon="04.884192"><ele>0.2</ele><time>2021-12-08T12:50:33Z</time><name>PT1699</name></trkpt>
<trkpt lat="53.074310" lon="04.884199"><ele>0.2</ele><time>2021-12-08T12:50:35Z</time><name>PT1700</name></trkpt>
<trkpt lat="53.074302" lon="04.884206"><ele>0</ele><time>2021-12-08T12:50:36Z</time><name>PT1701</name></trkpt>
<trkpt lat="53.074292" lon="04.884213"><ele>0.5</ele><time>2021-12-08T12:50:36Z</time><name>PT1702</name></trkpt>
<trkpt lat="53.074282" lon="04.884221"><ele>0.9</ele><time>2021-12-08T12:50:38Z</time><name>PT1703</name></trkpt>
<trkpt lat="53.074274" lon="04.884231"><ele>0.8</ele><time>2021-12-08T12:50:39Z</time><name>PT1704</name></trkpt>
<trkpt lat="53.074266" lon="04.884242"><ele>0.9</ele><time>2021-12-08T12:50:39Z</time><name>PT1705</name></trkpt>
<trkpt lat="53.074258" lon="04.884255"><ele>0.6</ele><time>2021-12-08T12:50:41Z</time><name>PT1706</name></trkpt>
<trkpt lat="53.074250" lon="04.884267"><ele>0</ele><time>2021-12-08T12:50:42Z</time><name>PT1707</name></trkpt>
<trkpt lat="53.074242" lon="04.884278"><ele>0.4</ele><time>2021-12-08T12:50:42Z</time><name>PT1708</name></trkpt>
<trkpt lat="53.074233" lon="04.884289"><ele>0.6</ele><time>2021-12-08T12:50:44Z</time><name>PT1709</name></trkpt>
<trkpt lat="53.074224" lon="04.884298"><ele>0.2</ele><time>2021-12-08T12:50:45Z</time><name>PT1710</name></trkpt>
<trkpt lat="53.074216" lon="04.884305"><ele>0.1</ele><time>2021-12-08T12:50:45Z</time><name>PT1711</name></trkpt>
<trkpt lat="53.074208" lon="04.884314"><ele>0.8</ele><time>2021-12-08T12:50:47Z</time><name>PT1712</name></trkpt>
<trkpt lat="53.074205" lon="04.884320"><ele>-1.4</ele><time>2021-12-08T12:50:48Z</time><name>PT1713</name></trkpt>
<trkpt lat="53.074205" lon="04.884322"><ele>-1.3</ele><time>2021-12-08T12:50:48Z</time><name>PT1714</name></trkpt>
<trkpt lat="53.074204" lon="04.884323"><ele>-1.1</ele><time>2021-12-08T12:50:50Z</time><name>PT1715</name></trkpt>
<trkpt lat="53.074199" lon="04.884325"><ele>0.6</ele><time>2021-12-08T12:50:53Z</time><name>PT1716</name></trkpt>
<trkpt lat="53.074189" lon="04.884336"><ele>0.4</ele><time>2021-12-08T12:50:54Z</time><name>PT1717</name></trkpt>
<trkpt lat="53.074179" lon="04.884346"><ele>0.4</ele><time>2021-12-08T12:50:54Z</time><name>PT1718</name></trkpt>
<trkpt lat="53.074168" lon="04.884355"><ele>0.1</ele><time>2021-12-08T12:50:56Z</time><name>PT1719</name></trkpt>
<trkpt lat="53.074157" lon="04.884364"><ele>0.5</ele><time>2021-12-08T12:50:57Z</time><name>PT1720</name></trkpt>
<trkpt lat="53.074147" lon="04.884374"><ele>0.5</ele><time>2021-12-08T12:50:57Z</time><name>PT1721</name></trkpt>
<trkpt lat="53.074139" lon="04.884386"><ele>0.3</ele><time>2021-12-08T12:50:59Z</time><name>PT1722</name></trkpt>
<trkpt lat="53.074132" lon="04.884395"><ele>0.2</ele><time>2021-12-08T12:51:00Z</time><name>PT1723</name></trkpt>
<trkpt lat="53.074124" lon="04.884403"><ele>0.3</ele><time>2021-12-08T12:51:00Z</time><name>PT1724</name></trkpt>
<trkpt lat="53.074114" lon="04.884412"><ele>0.2</ele><time>2021-12-08T12:51:02Z</time><name>PT1725</name></trkpt>
<trkpt lat="53.074103" lon="04.884422"><ele>0</ele><time>2021-12-08T12:51:03Z</time><name>PT1726</name></trkpt>
<trkpt lat="53.074093" lon="04.884433"><ele>0.4</ele><time>2021-12-08T12:51:03Z</time><name>PT1727</name></trkpt>
<trkpt lat="53.074083" lon="04.884443"><ele>0.6</ele><time>2021-12-08T12:51:05Z</time><name>PT1728</name></trkpt>
<trkpt lat="53.074072" lon="04.884453"><ele>0.5</ele><time>2021-12-08T12:51:06Z</time><name>PT1729</name></trkpt>
<trkpt lat="53.074062" lon="04.884464"><ele>0.6</ele><time>2021-12-08T12:51:06Z</time><name>PT1730</name></trkpt>
<trkpt lat="53.074053" lon="04.884475"><ele>0.4</ele><time>2021-12-08T12:51:08Z</time><name>PT1731</name></trkpt>
<trkpt lat="53.074043" lon="04.884487"><ele>0</ele><time>2021-12-08T12:51:09Z</time><name>PT1732</name></trkpt>
<trkpt lat="53.074034" lon="04.884499"><ele>0.3</ele><time>2021-12-08T12:51:09Z</time><name>PT1733</name></trkpt>
<trkpt lat="53.074024" lon="04.884512"><ele>0.5</ele><time>2021-12-08T12:51:11Z</time><name>PT1734</name></trkpt>
<trkpt lat="53.074015" lon="04.884522"><ele>0.6</ele><time>2021-12-08T12:51:12Z</time><name>PT1735</name></trkpt>
<trkpt lat="53.074003" lon="04.884536"><ele>0.6</ele><time>2021-12-08T12:51:12Z</time><name>PT1736</name></trkpt>
<trkpt lat="53.073993" lon="04.884549"><ele>0.3</ele><time>2021-12-08T12:51:14Z</time><name>PT1737</name></trkpt>
<trkpt lat="53.073981" lon="04.884559"><ele>0.2</ele><time>2021-12-08T12:51:15Z</time><name>PT1738</name></trkpt>
<trkpt lat="53.073970" lon="04.884570"><ele>0.4</ele><time>2021-12-08T12:51:15Z</time><name>PT1739</name></trkpt>
<trkpt lat="53.073960" lon="04.884580"><ele>0.2</ele><time>2021-12-08T12:51:17Z</time><name>PT1740</name></trkpt>
<trkpt lat="53.073949" lon="04.884589"><ele>0</ele><time>2021-12-08T12:51:18Z</time><name>PT1741</name></trkpt>
<trkpt lat="53.073939" lon="04.884600"><ele>0.2</ele><time>2021-12-08T12:51:18Z</time><name>PT1742</name></trkpt>
<trkpt lat="53.073930" lon="04.884612"><ele>0.2</ele><time>2021-12-08T12:51:20Z</time><name>PT1743</name></trkpt>
<trkpt lat="53.073923" lon="04.884626"><ele>0</ele><time>2021-12-08T12:51:21Z</time><name>PT1744</name></trkpt>
<trkpt lat="53.073916" lon="04.884641"><ele>0</ele><time>2021-12-08T12:51:21Z</time><name>PT1745</name></trkpt>
<trkpt lat="53.073909" lon="04.884657"><ele>0.3</ele><time>2021-12-08T12:51:23Z</time><name>PT1746</name></trkpt>
<trkpt lat="53.073901" lon="04.884673"><ele>0.8</ele><time>2021-12-08T12:51:24Z</time><name>PT1747</name></trkpt>
<trkpt lat="53.073893" lon="04.884690"><ele>0.6</ele><time>2021-12-08T12:51:24Z</time><name>PT1748</name></trkpt>
<trkpt lat="53.073886" lon="04.884707"><ele>0.7</ele><time>2021-12-08T12:51:26Z</time><name>PT1749</name></trkpt>
<trkpt lat="53.073880" lon="04.884726"><ele>0.9</ele><time>2021-12-08T12:51:27Z</time><name>PT1750</name></trkpt>
<trkpt lat="53.073872" lon="04.884746"><ele>0.9</ele><time>2021-12-08T12:51:27Z</time><name>PT1751</name></trkpt>
<trkpt lat="53.073865" lon="04.884766"><ele>1.3</ele><time>2021-12-08T12:51:29Z</time><name>PT1752</name></trkpt>
<trkpt lat="53.073857" lon="04.884786"><ele>1.4</ele><time>2021-12-08T12:51:30Z</time><name>PT1753</name></trkpt>
<trkpt lat="53.073849" lon="04.884805"><ele>1.1</ele><time>2021-12-08T12:51:30Z</time><name>PT1754</name></trkpt>
<trkpt lat="53.073843" lon="04.884824"><ele>0.8</ele><time>2021-12-08T12:51:32Z</time><name>PT1755</name></trkpt>
<trkpt lat="53.073837" lon="04.884844"><ele>0.8</ele><time>2021-12-08T12:51:33Z</time><name>PT1756</name></trkpt>
<trkpt lat="53.073831" lon="04.884864"><ele>0.8</ele><time>2021-12-08T12:51:33Z</time><name>PT1757</name></trkpt>
<trkpt lat="53.073825" lon="04.884885"><ele>0.8</ele><time>2021-12-08T12:51:35Z</time><name>PT1758</name></trkpt>
<trkpt lat="53.073820" lon="04.884907"><ele>0.8</ele><time>2021-12-08T12:51:36Z</time><name>PT1759</name></trkpt>
<trkpt lat="53.073813" lon="04.884930"><ele>0.7</ele><time>2021-12-08T12:51:36Z</time><name>PT1760</name></trkpt>
<trkpt lat="53.073806" lon="04.884951"><ele>0.6</ele><time>2021-12-08T12:51:38Z</time><name>PT1761</name></trkpt>
<trkpt lat="53.073800" lon="04.884970"><ele>0.2</ele><time>2021-12-08T12:51:39Z</time><name>PT1762</name></trkpt>
<trkpt lat="53.073795" lon="04.884990"><ele>0</ele><time>2021-12-08T12:51:39Z</time><name>PT1763</name></trkpt>
<trkpt lat="53.073791" lon="04.885011"><ele>0.1</ele><time>2021-12-08T12:51:41Z</time><name>PT1764</name></trkpt>
<trkpt lat="53.073788" lon="04.885033"><ele>0.4</ele><time>2021-12-08T12:51:42Z</time><name>PT1765</name></trkpt>
<trkpt lat="53.073785" lon="04.885055"><ele>0.8</ele><time>2021-12-08T12:51:42Z</time><name>PT1766</name></trkpt>
<trkpt lat="53.073783" lon="04.885078"><ele>1.1</ele><time>2021-12-08T12:51:44Z</time><name>PT1767</name></trkpt>
<trkpt lat="53.073780" lon="04.885098"><ele>1.4</ele><time>2021-12-08T12:51:45Z</time><name>PT1768</name></trkpt>
<trkpt lat="53.073779" lon="04.885117"><ele>1.3</ele><time>2021-12-08T12:51:45Z</time><name>PT1769</name></trkpt>
<trkpt lat="53.073775" lon="04.885136"><ele>0.7</ele><time>2021-12-08T12:51:47Z</time><name>PT1770</name></trkpt>
<trkpt lat="53.073772" lon="04.885155"><ele>0.4</ele><time>2021-12-08T12:51:48Z</time><name>PT1771</name></trkpt>
<trkpt lat="53.073770" lon="04.885175"><ele>0.3</ele><time>2021-12-08T12:51:48Z</time><name>PT1772</name></trkpt>
<trkpt lat="53.073769" lon="04.885187"><ele>0</ele><time>2021-12-08T12:51:50Z</time><name>PT1773</name></trkpt>
<trkpt lat="53.073772" lon="04.885203"><ele>0.1</ele><time>2021-12-08T12:51:51Z</time><name>PT1774</name></trkpt>
<trkpt lat="53.073777" lon="04.885219"><ele>0.2</ele><time>2021-12-08T12:51:51Z</time><name>PT1775</name></trkpt>
<trkpt lat="53.073783" lon="04.885235"><ele>0.3</ele><time>2021-12-08T12:51:53Z</time><name>PT1776</name></trkpt>
<trkpt lat="53.073786" lon="04.885251"><ele>0.3</ele><time>2021-12-08T12:51:54Z</time><name>PT1777</name></trkpt>
<trkpt lat="53.073789" lon="04.885269"><ele>0.3</ele><time>2021-12-08T12:51:54Z</time><name>PT1778</name></trkpt>
<trkpt lat="53.073791" lon="04.885289"><ele>0.4</ele><time>2021-12-08T12:51:56Z</time><name>PT1779</name></trkpt>
<trkpt lat="53.073790" lon="04.885310"><ele>0.4</ele><time>2021-12-08T12:51:57Z</time><name>PT1780</name></trkpt>
<trkpt lat="53.073791" lon="04.885332"><ele>0.6</ele><time>2021-12-08T12:51:57Z</time><name>PT1781</name></trkpt>
<trkpt lat="53.073791" lon="04.885354"><ele>0.8</ele><time>2021-12-08T12:51:59Z</time><name>PT1782</name></trkpt>
<trkpt lat="53.073792" lon="04.885375"><ele>0.9</ele><time>2021-12-08T12:52:00Z</time><name>PT1783</name></trkpt>
<trkpt lat="53.073792" lon="04.885396"><ele>0.8</ele><time>2021-12-08T12:52:00Z</time><name>PT1784</name></trkpt>
<trkpt lat="53.073793" lon="04.885416"><ele>0.6</ele><time>2021-12-08T12:52:02Z</time><name>PT1785</name></trkpt>
<trkpt lat="53.073796" lon="04.885436"><ele>0.3</ele><time>2021-12-08T12:52:03Z</time><name>PT1786</name></trkpt>
<trkpt lat="53.073798" lon="04.885457"><ele>0.2</ele><time>2021-12-08T12:52:03Z</time><name>PT1787</name></trkpt>
<trkpt lat="53.073800" lon="04.885478"><ele>0</ele><time>2021-12-08T12:52:05Z</time><name>PT1788</name></trkpt>
<trkpt lat="53.073803" lon="04.885498"><ele>0</ele><time>2021-12-08T12:52:06Z</time><name>PT1789</name></trkpt>
<trkpt lat="53.073805" lon="04.885517"><ele>0</ele><time>2021-12-08T12:52:06Z</time><name>PT1790</name></trkpt>
<trkpt lat="53.073807" lon="04.885536"><ele>0</ele><time>2021-12-08T12:52:08Z</time><name>PT1791</name></trkpt>
<trkpt lat="53.073807" lon="04.885555"><ele>0.3</ele><time>2021-12-08T12:52:09Z</time><name>PT1792</name></trkpt>
<trkpt lat="53.073807" lon="04.885575"><ele>0.5</ele><time>2021-12-08T12:52:09Z</time><name>PT1793</name></trkpt>
<trkpt lat="53.073806" lon="04.885595"><ele>0.8</ele><time>2021-12-08T12:52:11Z</time><name>PT1794</name></trkpt>
<trkpt lat="53.073806" lon="04.885614"><ele>0.7</ele><time>2021-12-08T12:52:12Z</time><name>PT1795</name></trkpt>
<trkpt lat="53.073806" lon="04.885634"><ele>0.7</ele><time>2021-12-08T12:52:12Z</time><name>PT1796</name></trkpt>
<trkpt lat="53.073807" lon="04.885654"><ele>0.3</ele><time>2021-12-08T12:52:14Z</time><name>PT1797</name></trkpt>
<trkpt lat="53.073808" lon="04.885673"><ele>0.3</ele><time>2021-12-08T12:52:15Z</time><name>PT1798</name></trkpt>
<trkpt lat="53.073809" lon="04.885691"><ele>0.6</ele><time>2021-12-08T12:52:15Z</time><name>PT1799</name></trkpt>
<trkpt lat="53.073809" lon="04.885711"><ele>0.8</ele><time>2021-12-08T12:52:17Z</time><name>PT1800</name></trkpt>
<trkpt lat="53.073808" lon="04.885731"><ele>1.5</ele><time>2021-12-08T12:52:18Z</time><name>PT1801</name></trkpt>
<trkpt lat="53.073806" lon="04.885753"><ele>1.9</ele><time>2021-12-08T12:52:18Z</time><name>PT1802</name></trkpt>
<trkpt lat="53.073805" lon="04.885774"><ele>1.6</ele><time>2021-12-08T12:52:20Z</time><name>PT1803</name></trkpt>
<trkpt lat="53.073802" lon="04.885794"><ele>1.2</ele><time>2021-12-08T12:52:21Z</time><name>PT1804</name></trkpt>
<trkpt lat="53.073801" lon="04.885814"><ele>1.1</ele><time>2021-12-08T12:52:21Z</time><name>PT1805</name></trkpt>
<trkpt lat="53.073800" lon="04.885837"><ele>0.6</ele><time>2021-12-08T12:52:23Z</time><name>PT1806</name></trkpt>
<trkpt lat="53.073799" lon="04.885860"><ele>0.8</ele><time>2021-12-08T12:52:24Z</time><name>PT1807</name></trkpt>
<trkpt lat="53.073797" lon="04.885883"><ele>0.8</ele><time>2021-12-08T12:52:24Z</time><name>PT1808</name></trkpt>
<trkpt lat="53.073795" lon="04.885905"><ele>0.8</ele><time>2021-12-08T12:52:26Z</time><name>PT1809</name></trkpt>
<trkpt lat="53.073793" lon="04.885924"><ele>1</ele><time>2021-12-08T12:52:27Z</time><name>PT1810</name></trkpt>
<trkpt lat="53.073791" lon="04.885944"><ele>0.9</ele><time>2021-12-08T12:52:27Z</time><name>PT1811</name></trkpt>
<trkpt lat="53.073788" lon="04.885966"><ele>0.8</ele><time>2021-12-08T12:52:29Z</time><name>PT1812</name></trkpt>
<trkpt lat="53.073784" lon="04.885986"><ele>0.8</ele><time>2021-12-08T12:52:30Z</time><name>PT1813</name></trkpt>
<trkpt lat="53.073780" lon="04.886006"><ele>0.9</ele><time>2021-12-08T12:52:30Z</time><name>PT1814</name></trkpt>
<trkpt lat="53.073777" lon="04.886025"><ele>0.8</ele><time>2021-12-08T12:52:32Z</time><name>PT1815</name></trkpt>
<trkpt lat="53.073773" lon="04.886043"><ele>1.1</ele><time>2021-12-08T12:52:33Z</time><name>PT1816</name></trkpt>
<trkpt lat="53.073769" lon="04.886062"><ele>1</ele><time>2021-12-08T12:52:33Z</time><name>PT1817</name></trkpt>
<trkpt lat="53.073765" lon="04.886082"><ele>1.2</ele><time>2021-12-08T12:52:35Z</time><name>PT1818</name></trkpt>
<trkpt lat="53.073761" lon="04.886103"><ele>1.4</ele><time>2021-12-08T12:52:36Z</time><name>PT1819</name></trkpt>
<trkpt lat="53.073758" lon="04.886123"><ele>1.2</ele><time>2021-12-08T12:52:36Z</time><name>PT1820</name></trkpt>
<trkpt lat="53.073757" lon="04.886141"><ele>1.4</ele><time>2021-12-08T12:52:38Z</time><name>PT1821</name></trkpt>
<trkpt lat="53.073753" lon="04.886160"><ele>1.1</ele><time>2021-12-08T12:52:39Z</time><name>PT1822</name></trkpt>
<trkpt lat="53.073750" lon="04.886180"><ele>0.8</ele><time>2021-12-08T12:52:39Z</time><name>PT1823</name></trkpt>
<trkpt lat="53.073746" lon="04.886198"><ele>0.9</ele><time>2021-12-08T12:52:41Z</time><name>PT1824</name></trkpt>
<trkpt lat="53.073742" lon="04.886216"><ele>0.8</ele><time>2021-12-08T12:52:42Z</time><name>PT1825</name></trkpt>
<trkpt lat="53.073737" lon="04.886237"><ele>0.8</ele><time>2021-12-08T12:52:42Z</time><name>PT1826</name></trkpt>
<trkpt lat="53.073732" lon="04.886256"><ele>1.1</ele><time>2021-12-08T12:52:44Z</time><name>PT1827</name></trkpt>
<trkpt lat="53.073728" lon="04.886274"><ele>1.2</ele><time>2021-12-08T12:52:45Z</time><name>PT1828</name></trkpt>
<trkpt lat="53.073723" lon="04.886293"><ele>1</ele><time>2021-12-08T12:52:45Z</time><name>PT1829</name></trkpt>
<trkpt lat="53.073720" lon="04.886311"><ele>0.8</ele><time>2021-12-08T12:52:47Z</time><name>PT1830</name></trkpt>
<trkpt lat="53.073717" lon="04.886323"><ele>0.8</ele><time>2021-12-08T12:52:48Z</time><name>PT1831</name></trkpt>
<trkpt lat="53.073718" lon="04.886315"><ele>0.8</ele><time>2021-12-08T12:52:48Z</time><name>PT1832</name></trkpt>
<trkpt lat="53.073716" lon="04.886316"><ele>1.2</ele><time>2021-12-08T12:52:50Z</time><name>PT1833</name></trkpt>
<trkpt lat="53.073717" lon="04.886321"><ele>1.4</ele><time>2021-12-08T12:52:51Z</time><name>PT1834</name></trkpt>
<trkpt lat="53.073716" lon="04.886331"><ele>1.4</ele><time>2021-12-08T12:52:51Z</time><name>PT1835</name></trkpt>
<trkpt lat="53.073713" lon="04.886339"><ele>0.8</ele><time>2021-12-08T12:52:53Z</time><name>PT1836</name></trkpt>
<trkpt lat="53.073709" lon="04.886346"><ele>0.8</ele><time>2021-12-08T12:52:54Z</time><name>PT1837</name></trkpt>
<trkpt lat="53.073707" lon="04.886353"><ele>1.3</ele><time>2021-12-08T12:52:54Z</time><name>PT1838</name></trkpt>
<trkpt lat="53.073708" lon="04.886356"><ele>1.5</ele><time>2021-12-08T12:52:56Z</time><name>PT1839</name></trkpt>
<trkpt lat="53.073708" lon="04.886357"><ele>1.9</ele><time>2021-12-08T12:52:57Z</time><name>PT1840</name></trkpt>
<trkpt lat="53.073709" lon="04.886358"><ele>2</ele><time>2021-12-08T12:52:57Z</time><name>PT1841</name></trkpt>
<trkpt lat="53.073708" lon="04.886364"><ele>1.7</ele><time>2021-12-08T12:53:00Z</time><name>PT1842</name></trkpt>
<trkpt lat="53.073706" lon="04.886379"><ele>1.8</ele><time>2021-12-08T12:53:02Z</time><name>PT1843</name></trkpt>
<trkpt lat="53.073705" lon="04.886396"><ele>1.6</ele><time>2021-12-08T12:53:03Z</time><name>PT1844</name></trkpt>
<trkpt lat="53.073703" lon="04.886411"><ele>1.4</ele><time>2021-12-08T12:53:03Z</time><name>PT1845</name></trkpt>
<trkpt lat="53.073700" lon="04.886427"><ele>1.3</ele><time>2021-12-08T12:53:05Z</time><name>PT1846</name></trkpt>
<trkpt lat="53.073696" lon="04.886443"><ele>1.2</ele><time>2021-12-08T12:53:06Z</time><name>PT1847</name></trkpt>
<trkpt lat="53.073694" lon="04.886460"><ele>1.3</ele><time>2021-12-08T12:53:06Z</time><name>PT1848</name></trkpt>
<trkpt lat="53.073692" lon="04.886476"><ele>1.5</ele><time>2021-12-08T12:53:08Z</time><name>PT1849</name></trkpt>
<trkpt lat="53.073689" lon="04.886494"><ele>1.4</ele><time>2021-12-08T12:53:09Z</time><name>PT1850</name></trkpt>
<trkpt lat="53.073687" lon="04.886512"><ele>1.3</ele><time>2021-12-08T12:53:09Z</time><name>PT1851</name></trkpt>
<trkpt lat="53.073685" lon="04.886528"><ele>0.9</ele><time>2021-12-08T12:53:11Z</time><name>PT1852</name></trkpt>
<trkpt lat="53.073680" lon="04.886545"><ele>0.3</ele><time>2021-12-08T12:53:12Z</time><name>PT1853</name></trkpt>
<trkpt lat="53.073676" lon="04.886561"><ele>0</ele><time>2021-12-08T12:53:12Z</time><name>PT1854</name></trkpt>
<trkpt lat="53.073673" lon="04.886578"><ele>0.1</ele><time>2021-12-08T12:53:14Z</time><name>PT1855</name></trkpt>
<trkpt lat="53.073670" lon="04.886597"><ele>0.1</ele><time>2021-12-08T12:53:15Z</time><name>PT1856</name></trkpt>
<trkpt lat="53.073668" lon="04.886613"><ele>0.1</ele><time>2021-12-08T12:53:15Z</time><name>PT1857</name></trkpt>
<trkpt lat="53.073664" lon="04.886628"><ele>0.5</ele><time>2021-12-08T12:53:17Z</time><name>PT1858</name></trkpt>
<trkpt lat="53.073661" lon="04.886644"><ele>0.3</ele><time>2021-12-08T12:53:18Z</time><name>PT1859</name></trkpt>
<trkpt lat="53.073657" lon="04.886661"><ele>0.2</ele><time>2021-12-08T12:53:18Z</time><name>PT1860</name></trkpt>
<trkpt lat="53.073653" lon="04.886678"><ele>0.3</ele><time>2021-12-08T12:53:20Z</time><name>PT1861</name></trkpt>
<trkpt lat="53.073650" lon="04.886696"><ele>0.5</ele><time>2021-12-08T12:53:21Z</time><name>PT1862</name></trkpt>
<trkpt lat="53.073647" lon="04.886711"><ele>0.7</ele><time>2021-12-08T12:53:21Z</time><name>PT1863</name></trkpt>
<trkpt lat="53.073644" lon="04.886726"><ele>0.9</ele><time>2021-12-08T12:53:23Z</time><name>PT1864</name></trkpt>
<trkpt lat="53.073641" lon="04.886742"><ele>0.8</ele><time>2021-12-08T12:53:24Z</time><name>PT1865</name></trkpt>
<trkpt lat="53.073637" lon="04.886758"><ele>0.5</ele><time>2021-12-08T12:53:24Z</time><name>PT1866</name></trkpt>
<trkpt lat="53.073634" lon="04.886773"><ele>0.3</ele><time>2021-12-08T12:53:26Z</time><name>PT1867</name></trkpt>
<trkpt lat="53.073632" lon="04.886786"><ele>0.6</ele><time>2021-12-08T12:53:27Z</time><name>PT1868</name></trkpt>
<trkpt lat="53.073629" lon="04.886802"><ele>0.7</ele><time>2021-12-08T12:53:27Z</time><name>PT1869</name></trkpt>
<trkpt lat="53.073626" lon="04.886816"><ele>0.8</ele><time>2021-12-08T12:53:29Z</time><name>PT1870</name></trkpt>
<trkpt lat="53.073621" lon="04.886831"><ele>0.6</ele><time>2021-12-08T12:53:30Z</time><name>PT1871</name></trkpt>
<trkpt lat="53.073617" lon="04.886849"><ele>0.3</ele><time>2021-12-08T12:53:30Z</time><name>PT1872</name></trkpt>
<trkpt lat="53.073615" lon="04.886867"><ele>0</ele><time>2021-12-08T12:53:32Z</time><name>PT1873</name></trkpt>
<trkpt lat="53.073612" lon="04.886885"><ele>0.1</ele><time>2021-12-08T12:53:33Z</time><name>PT1874</name></trkpt>
<trkpt lat="53.073609" lon="04.886902"><ele>0</ele><time>2021-12-08T12:53:33Z</time><name>PT1875</name></trkpt>
<trkpt lat="53.073606" lon="04.886921"><ele>0.2</ele><time>2021-12-08T12:53:35Z</time><name>PT1876</name></trkpt>
<trkpt lat="53.073604" lon="04.886938"><ele>0.3</ele><time>2021-12-08T12:53:36Z</time><name>PT1877</name></trkpt>
<trkpt lat="53.073600" lon="04.886955"><ele>0.3</ele><time>2021-12-08T12:53:36Z</time><name>PT1878</name></trkpt>
<trkpt lat="53.073598" lon="04.886974"><ele>0.6</ele><time>2021-12-08T12:53:38Z</time><name>PT1879</name></trkpt>
<trkpt lat="53.073594" lon="04.886991"><ele>0.5</ele><time>2021-12-08T12:53:39Z</time><name>PT1880</name></trkpt>
<trkpt lat="53.073590" lon="04.887007"><ele>0.5</ele><time>2021-12-08T12:53:39Z</time><name>PT1881</name></trkpt>
<trkpt lat="53.073586" lon="04.887024"><ele>0.5</ele><time>2021-12-08T12:53:41Z</time><name>PT1882</name></trkpt>
<trkpt lat="53.073583" lon="04.887040"><ele>0.1</ele><time>2021-12-08T12:53:42Z</time><name>PT1883</name></trkpt>
<trkpt lat="53.073579" lon="04.887056"><ele>0</ele><time>2021-12-08T12:53:42Z</time><name>PT1884</name></trkpt>
<trkpt lat="53.073573" lon="04.887070"><ele>0.3</ele><time>2021-12-08T12:53:44Z</time><name>PT1885</name></trkpt>
<trkpt lat="53.073568" lon="04.887085"><ele>0.9</ele><time>2021-12-08T12:53:45Z</time><name>PT1886</name></trkpt>
<trkpt lat="53.073563" lon="04.887094"><ele>-1</ele><time>2021-12-08T12:53:45Z</time><name>PT1887</name></trkpt>
<trkpt lat="53.073556" lon="04.887097"><ele>-1.2</ele><time>2021-12-08T12:53:47Z</time><name>PT1888</name></trkpt>
<trkpt lat="53.073550" lon="04.887093"><ele>-1.2</ele><time>2021-12-08T12:53:48Z</time><name>PT1889</name></trkpt>
<trkpt lat="53.073544" lon="04.887084"><ele>-1.5</ele><time>2021-12-08T12:53:48Z</time><name>PT1890</name></trkpt>
<trkpt lat="53.073537" lon="04.887081"><ele>-1.8</ele><time>2021-12-08T12:53:50Z</time><name>PT1891</name></trkpt>
<trkpt lat="53.073529" lon="04.887079"><ele>-2.1</ele><time>2021-12-08T12:53:51Z</time><name>PT1892</name></trkpt>
<trkpt lat="53.073519" lon="04.887077"><ele>-2.2</ele><time>2021-12-08T12:53:51Z</time><name>PT1893</name></trkpt>
<trkpt lat="53.073509" lon="04.887072"><ele>-1.8</ele><time>2021-12-08T12:53:53Z</time><name>PT1894</name></trkpt>
<trkpt lat="53.073501" lon="04.887067"><ele>-1.6</ele><time>2021-12-08T12:53:54Z</time><name>PT1895</name></trkpt>
<trkpt lat="53.073494" lon="04.887064"><ele>-1.4</ele><time>2021-12-08T12:53:54Z</time><name>PT1896</name></trkpt>
<trkpt lat="53.073488" lon="04.887059"><ele>-1.3</ele><time>2021-12-08T12:53:56Z</time><name>PT1897</name></trkpt>
<trkpt lat="53.073480" lon="04.887054"><ele>-1.4</ele><time>2021-12-08T12:53:57Z</time><name>PT1898</name></trkpt>
<trkpt lat="53.073471" lon="04.887050"><ele>-1.2</ele><time>2021-12-08T12:53:57Z</time><name>PT1899</name></trkpt>
<trkpt lat="53.073462" lon="04.887046"><ele>-1.1</ele><time>2021-12-08T12:53:59Z</time><name>PT1900</name></trkpt>
<trkpt lat="53.073453" lon="04.887046"><ele>-1.4</ele><time>2021-12-08T12:54:00Z</time><name>PT1901</name></trkpt>
<trkpt lat="53.073446" lon="04.887041"><ele>-1.6</ele><time>2021-12-08T12:54:00Z</time><name>PT1902</name></trkpt>
<trkpt lat="53.073439" lon="04.887035"><ele>-1.7</ele><time>2021-12-08T12:54:02Z</time><name>PT1903</name></trkpt>
<trkpt lat="53.073432" lon="04.887031"><ele>-1.4</ele><time>2021-12-08T12:54:03Z</time><name>PT1904</name></trkpt>
<trkpt lat="53.073426" lon="04.887025"><ele>-1.5</ele><time>2021-12-08T12:54:03Z</time><name>PT1905</name></trkpt>
<trkpt lat="53.073422" lon="04.887020"><ele>0.8</ele><time>2021-12-08T12:54:05Z</time><name>PT1906</name></trkpt>
<trkpt lat="53.073420" lon="04.887017"><ele>-1</ele><time>2021-12-08T12:54:06Z</time><name>PT1907</name></trkpt>
<trkpt lat="53.073420" lon="04.887016"><ele>-1.3</ele><time>2021-12-08T12:54:06Z</time><name>PT1908</name></trkpt>
<trkpt lat="53.073420" lon="04.887017"><ele>-1.2</ele><time>2021-12-08T12:54:08Z</time><name>PT1909</name></trkpt>
<trkpt lat="53.073420" lon="04.887015"><ele>-1.2</ele><time>2021-12-08T12:54:30Z</time><name>PT1910</name></trkpt>
<trkpt lat="53.073414" lon="04.887020"><ele>-1.2</ele><time>2021-12-08T12:54:30Z</time><name>PT1911</name></trkpt>
<trkpt lat="53.073408" lon="04.887020"><ele>-1.6</ele><time>2021-12-08T12:54:32Z</time><name>PT1912</name></trkpt>
<trkpt lat="53.073402" lon="04.887017"><ele>-1.6</ele><time>2021-12-08T12:54:33Z</time><name>PT1913</name></trkpt>
<trkpt lat="53.073395" lon="04.887011"><ele>-1.4</ele><time>2021-12-08T12:54:33Z</time><name>PT1914</name></trkpt>
<trkpt lat="53.073392" lon="04.887006"><ele>-1.4</ele><time>2021-12-08T12:54:35Z</time><name>PT1915</name></trkpt>
<trkpt lat="53.073391" lon="04.887005"><ele>0.7</ele><time>2021-12-08T12:54:36Z</time><name>PT1916</name></trkpt>
<trkpt lat="53.073390" lon="04.887004"><ele>0.7</ele><time>2021-12-08T12:54:36Z</time><name>PT1917</name></trkpt>
<trkpt lat="53.073389" lon="04.887003"><ele>-1</ele><time>2021-12-08T12:54:38Z</time><name>PT1918</name></trkpt>
<trkpt lat="53.073388" lon="04.887003"><ele>0.5</ele><time>2021-12-08T12:54:39Z</time><name>PT1919</name></trkpt>
<trkpt lat="53.073388" lon="04.887003"><ele>0.7</ele><time>2021-12-08T12:54:39Z</time><name>PT1920</name></trkpt>
<trkpt lat="53.073388" lon="04.887007"><ele>0.3</ele><time>2021-12-08T12:55:06Z</time><name>PT1921</name></trkpt>
<trkpt lat="53.073393" lon="04.887012"><ele>0</ele><time>2021-12-08T12:55:06Z</time><name>PT1922</name></trkpt>
<trkpt lat="53.073393" lon="04.887009"><ele>0</ele><time>2021-12-08T12:55:08Z</time><name>PT1923</name></trkpt>
<trkpt lat="53.073395" lon="04.887006"><ele>0.2</ele><time>2021-12-08T12:55:09Z</time><name>PT1924</name></trkpt>
<trkpt lat="53.073396" lon="04.887003"><ele>0.1</ele><time>2021-12-08T12:55:09Z</time><name>PT1925</name></trkpt>
<trkpt lat="53.073397" lon="04.887001"><ele>0.2</ele><time>2021-12-08T12:55:11Z</time><name>PT1926</name></trkpt>
<trkpt lat="53.073395" lon="04.887004"><ele>-1</ele><time>2021-12-08T12:55:12Z</time><name>PT1927</name></trkpt>
<trkpt lat="53.073394" lon="04.887004"><ele>-1.4</ele><time>2021-12-08T12:55:12Z</time><name>PT1928</name></trkpt>
<trkpt lat="53.073393" lon="04.887003"><ele>-2.4</ele><time>2021-12-08T12:55:14Z</time><name>PT1929</name></trkpt>
<trkpt lat="53.073392" lon="04.887004"><ele>-3.1</ele><time>2021-12-08T12:55:15Z</time><name>PT1930</name></trkpt>
<trkpt lat="53.073392" lon="04.887003"><ele>-3.2</ele><time>2021-12-08T12:55:15Z</time><name>PT1931</name></trkpt>
<trkpt lat="53.073391" lon="04.887005"><ele>0.9</ele><time>2021-12-08T12:55:47Z</time><name>PT1932</name></trkpt>
<trkpt lat="53.073391" lon="04.887007"><ele>-1</ele><time>2021-12-08T12:55:48Z</time><name>PT1933</name></trkpt>
<trkpt lat="53.073392" lon="04.887007"><ele>-1.1</ele><time>2021-12-08T12:55:48Z</time><name>PT1934</name></trkpt>
<trkpt lat="53.073394" lon="04.887010"><ele>-1.5</ele><time>2021-12-08T12:55:57Z</time><name>PT1935</name></trkpt>
<trkpt lat="53.073393" lon="04.887011"><ele>-1.2</ele><time>2021-12-08T12:55:57Z</time><name>PT1936</name></trkpt>
<trkpt lat="53.073397" lon="04.887021"><ele>-1</ele><time>2021-12-08T12:57:00Z</time><name>PT1937</name></trkpt>
<trkpt lat="53.073401" lon="04.887027"><ele>0.9</ele><time>2021-12-08T12:57:02Z</time><name>PT1938</name></trkpt>
<trkpt lat="53.073406" lon="04.887034"><ele>0.5</ele><time>2021-12-08T12:57:03Z</time><name>PT1939</name></trkpt>
<trkpt lat="53.073409" lon="04.887045"><ele>0.2</ele><time>2021-12-08T12:57:03Z</time><name>PT1940</name></trkpt>
<trkpt lat="53.073411" lon="04.887054"><ele>0.1</ele><time>2021-12-08T12:57:05Z</time><name>PT1941</name></trkpt>
<trkpt lat="53.073413" lon="04.887060"><ele>0.1</ele><time>2021-12-08T12:57:06Z</time><name>PT1942</name></trkpt>
<trkpt lat="53.073416" lon="04.887068"><ele>0.1</ele><time>2021-12-08T12:57:06Z</time><name>PT1943</name></trkpt>
<trkpt lat="53.073420" lon="04.887078"><ele>0.1</ele><time>2021-12-08T12:57:08Z</time><name>PT1944</name></trkpt>
<trkpt lat="53.073423" lon="04.887087"><ele>0.1</ele><time>2021-12-08T12:57:09Z</time><name>PT1945</name></trkpt>
<trkpt lat="53.073423" lon="04.887096"><ele>0.1</ele><time>2021-12-08T12:57:09Z</time><name>PT1946</name></trkpt>
<trkpt lat="53.073425" lon="04.887103"><ele>0.2</ele><time>2021-12-08T12:57:11Z</time><name>PT1947</name></trkpt>
<trkpt lat="53.073427" lon="04.887113"><ele>0.6</ele><time>2021-12-08T12:57:12Z</time><name>PT1948</name></trkpt>
<trkpt lat="53.073428" lon="04.887122"><ele>0.7</ele><time>2021-12-08T12:57:12Z</time><name>PT1949</name></trkpt>
<trkpt lat="53.073430" lon="04.887134"><ele>0.8</ele><time>2021-12-08T12:57:14Z</time><name>PT1950</name></trkpt>
<trkpt lat="53.073430" lon="04.887143"><ele>0.8</ele><time>2021-12-08T12:57:15Z</time><name>PT1951</name></trkpt>
<trkpt lat="53.073429" lon="04.887151"><ele>0.7</ele><time>2021-12-08T12:57:15Z</time><name>PT1952</name></trkpt>
<trkpt lat="53.073429" lon="04.887163"><ele>0.5</ele><time>2021-12-08T12:57:17Z</time><name>PT1953</name></trkpt>
<trkpt lat="53.073428" lon="04.887175"><ele>0.6</ele><time>2021-12-08T12:57:18Z</time><name>PT1954</name></trkpt>
<trkpt lat="53.073428" lon="04.887187"><ele>0.5</ele><time>2021-12-08T12:57:18Z</time><name>PT1955</name></trkpt>
<trkpt lat="53.073431" lon="04.887200"><ele>0.7</ele><time>2021-12-08T12:57:20Z</time><name>PT1956</name></trkpt>
<trkpt lat="53.073439" lon="04.887211"><ele>0.7</ele><time>2021-12-08T12:57:21Z</time><name>PT1957</name></trkpt>
<trkpt lat="53.073442" lon="04.887224"><ele>0.8</ele><time>2021-12-08T12:57:21Z</time><name>PT1958</name></trkpt>
<trkpt lat="53.073446" lon="04.887240"><ele>0.8</ele><time>2021-12-08T12:57:23Z</time><name>PT1959</name></trkpt>
<trkpt lat="53.073448" lon="04.887259"><ele>0.8</ele><time>2021-12-08T12:57:24Z</time><name>PT1960</name></trkpt>
<trkpt lat="53.073447" lon="04.887274"><ele>0.9</ele><time>2021-12-08T12:57:24Z</time><name>PT1961</name></trkpt>
<trkpt lat="53.073450" lon="04.887288"><ele>-1</ele><time>2021-12-08T12:57:26Z</time><name>PT1962</name></trkpt>
<trkpt lat="53.073453" lon="04.887304"><ele>-1.1</ele><time>2021-12-08T12:57:27Z</time><name>PT1963</name></trkpt>
<trkpt lat="53.073453" lon="04.887317"><ele>-1</ele><time>2021-12-08T12:57:27Z</time><name>PT1964</name></trkpt>
<trkpt lat="53.073455" lon="04.887331"><ele>0.8</ele><time>2021-12-08T12:57:29Z</time><name>PT1965</name></trkpt>
<trkpt lat="53.073457" lon="04.887344"><ele>0.2</ele><time>2021-12-08T12:57:30Z</time><name>PT1966</name></trkpt>
<trkpt lat="53.073459" lon="04.887358"><ele>0.1</ele><time>2021-12-08T12:57:30Z</time><name>PT1967</name></trkpt>
<trkpt lat="53.073460" lon="04.887368"><ele>0</ele><time>2021-12-08T12:57:32Z</time><name>PT1968</name></trkpt>
<trkpt lat="53.073462" lon="04.887380"><ele>0.2</ele><time>2021-12-08T12:57:33Z</time><name>PT1969</name></trkpt>
<trkpt lat="53.073463" lon="04.887391"><ele>0.2</ele><time>2021-12-08T12:57:33Z</time><name>PT1970</name></trkpt>
<trkpt lat="53.073464" lon="04.887403"><ele>0</ele><time>2021-12-08T12:57:35Z</time><name>PT1971</name></trkpt>
<trkpt lat="53.073466" lon="04.887411"><ele>0.2</ele><time>2021-12-08T12:57:36Z</time><name>PT1972</name></trkpt>
<trkpt lat="53.073463" lon="04.887411"><ele>0.3</ele><time>2021-12-08T12:57:36Z</time><name>PT1973</name></trkpt>
<trkpt lat="53.073467" lon="04.887416"><ele>0.8</ele><time>2021-12-08T12:57:38Z</time><name>PT1974</name></trkpt>
<trkpt lat="53.073471" lon="04.887425"><ele>-1.1</ele><time>2021-12-08T12:57:39Z</time><name>PT1975</name></trkpt>
<trkpt lat="53.073469" lon="04.887436"><ele>-1</ele><time>2021-12-08T12:57:39Z</time><name>PT1976</name></trkpt>
<trkpt lat="53.073464" lon="04.887444"><ele>0.9</ele><time>2021-12-08T12:57:41Z</time><name>PT1977</name></trkpt>
<trkpt lat="53.073458" lon="04.887454"><ele>0.8</ele><time>2021-12-08T12:57:42Z</time><name>PT1978</name></trkpt>
<trkpt lat="53.073453" lon="04.887466"><ele>0.7</ele><time>2021-12-08T12:57:42Z</time><name>PT1979</name></trkpt>
<trkpt lat="53.073448" lon="04.887478"><ele>0.6</ele><time>2021-12-08T12:57:44Z</time><name>PT1980</name></trkpt>
<trkpt lat="53.073440" lon="04.887492"><ele>0.4</ele><time>2021-12-08T12:57:45Z</time><name>PT1981</name></trkpt>
<trkpt lat="53.073432" lon="04.887506"><ele>0.3</ele><time>2021-12-08T12:57:45Z</time><name>PT1982</name></trkpt>
<trkpt lat="53.073423" lon="04.887518"><ele>0.2</ele><time>2021-12-08T12:57:47Z</time><name>PT1983</name></trkpt>
<trkpt lat="53.073413" lon="04.887528"><ele>0</ele><time>2021-12-08T12:57:48Z</time><name>PT1984</name></trkpt>
<trkpt lat="53.073405" lon="04.887540"><ele>0.1</ele><time>2021-12-08T12:57:48Z</time><name>PT1985</name></trkpt>
<trkpt lat="53.073397" lon="04.887552"><ele>0.2</ele><time>2021-12-08T12:57:50Z</time><name>PT1986</name></trkpt>
<trkpt lat="53.073388" lon="04.887564"><ele>0.5</ele><time>2021-12-08T12:57:51Z</time><name>PT1987</name></trkpt>
<trkpt lat="53.073381" lon="04.887576"><ele>0.8</ele><time>2021-12-08T12:57:51Z</time><name>PT1988</name></trkpt>
<trkpt lat="53.073374" lon="04.887587"><ele>0.9</ele><time>2021-12-08T12:57:53Z</time><name>PT1989</name></trkpt>
<trkpt lat="53.073366" lon="04.887599"><ele>1.2</ele><time>2021-12-08T12:57:54Z</time><name>PT1990</name></trkpt>
<trkpt lat="53.073359" lon="04.887611"><ele>1.4</ele><time>2021-12-08T12:57:54Z</time><name>PT1991</name></trkpt>
<trkpt lat="53.073350" lon="04.887622"><ele>1.6</ele><time>2021-12-08T12:57:56Z</time><name>PT1992</name></trkpt>
<trkpt lat="53.073342" lon="04.887632"><ele>2</ele><time>2021-12-08T12:57:57Z</time><name>PT1993</name></trkpt>
<trkpt lat="53.073334" lon="04.887641"><ele>1.9</ele><time>2021-12-08T12:57:57Z</time><name>PT1994</name></trkpt>
<trkpt lat="53.073325" lon="04.887647"><ele>1.7</ele><time>2021-12-08T12:57:59Z</time><name>PT1995</name></trkpt>
<trkpt lat="53.073315" lon="04.887652"><ele>1.6</ele><time>2021-12-08T12:58:00Z</time><name>PT1996</name></trkpt>
<trkpt lat="53.073305" lon="04.887657"><ele>1.6</ele><time>2021-12-08T12:58:00Z</time><name>PT1997</name></trkpt>
<trkpt lat="53.073295" lon="04.887660"><ele>1.5</ele><time>2021-12-08T12:58:02Z</time><name>PT1998</name></trkpt>
<trkpt lat="53.073283" lon="04.887664"><ele>1.9</ele><time>2021-12-08T12:58:03Z</time><name>PT1999</name></trkpt>
<trkpt lat="53.073271" lon="04.887668"><ele>1.9</ele><time>2021-12-08T12:58:03Z</time><name>PT2000</name></trkpt>
<trkpt lat="53.073260" lon="04.887668"><ele>2.3</ele><time>2021-12-08T12:58:05Z</time><name>PT2001</name></trkpt>
<trkpt lat="53.073250" lon="04.887665"><ele>2.4</ele><time>2021-12-08T12:58:06Z</time><name>PT2002</name></trkpt>
<trkpt lat="53.073240" lon="04.887666"><ele>2.2</ele><time>2021-12-08T12:58:06Z</time><name>PT2003</name></trkpt>
<trkpt lat="53.073230" lon="04.887669"><ele>2.2</ele><time>2021-12-08T12:58:08Z</time><name>PT2004</name></trkpt>
<trkpt lat="53.073220" lon="04.887670"><ele>2.2</ele><time>2021-12-08T12:58:09Z</time><name>PT2005</name></trkpt>
<trkpt lat="53.073209" lon="04.887673"><ele>2.4</ele><time>2021-12-08T12:58:09Z</time><name>PT2006</name></trkpt>
<trkpt lat="53.073200" lon="04.887679"><ele>2.4</ele><time>2021-12-08T12:58:11Z</time><name>PT2007</name></trkpt>
<trkpt lat="53.073198" lon="04.887688"><ele>2.4</ele><time>2021-12-08T12:58:12Z</time><name>PT2008</name></trkpt>
<trkpt lat="53.073198" lon="04.887700"><ele>2.3</ele><time>2021-12-08T12:58:12Z</time><name>PT2009</name></trkpt>
<trkpt lat="53.073197" lon="04.887706"><ele>2.1</ele><time>2021-12-08T12:58:14Z</time><name>PT2010</name></trkpt>
<trkpt lat="53.073197" lon="04.887708"><ele>1.9</ele><time>2021-12-08T12:58:15Z</time><name>PT2011</name></trkpt>
<trkpt lat="53.073199" lon="04.887710"><ele>2.1</ele><time>2021-12-08T12:58:15Z</time><name>PT2012</name></trkpt>
<trkpt lat="53.073199" lon="04.887714"><ele>1.9</ele><time>2021-12-08T12:58:17Z</time><name>PT2013</name></trkpt>
<trkpt lat="53.073204" lon="04.887716"><ele>2.2</ele><time>2021-12-08T12:58:30Z</time><name>PT2014</name></trkpt>
<trkpt lat="53.073211" lon="04.887724"><ele>2.1</ele><time>2021-12-08T12:58:32Z</time><name>PT2015</name></trkpt>
<trkpt lat="53.073214" lon="04.887734"><ele>2.1</ele><time>2021-12-08T12:58:33Z</time><name>PT2016</name></trkpt>
<trkpt lat="53.073217" lon="04.887746"><ele>2.1</ele><time>2021-12-08T12:58:33Z</time><name>PT2017</name></trkpt>
<trkpt lat="53.073219" lon="04.887755"><ele>1.9</ele><time>2021-12-08T12:58:35Z</time><name>PT2018</name></trkpt>
<trkpt lat="53.073218" lon="04.887765"><ele>1.8</ele><time>2021-12-08T12:58:36Z</time><name>PT2019</name></trkpt>
<trkpt lat="53.073215" lon="04.887777"><ele>1.6</ele><time>2021-12-08T12:58:36Z</time><name>PT2020</name></trkpt>
<trkpt lat="53.073211" lon="04.887790"><ele>1.5</ele><time>2021-12-08T12:58:38Z</time><name>PT2021</name></trkpt>
<trkpt lat="53.073205" lon="04.887800"><ele>1.5</ele><time>2021-12-08T12:58:39Z</time><name>PT2022</name></trkpt>
<trkpt lat="53.073201" lon="04.887804"><ele>1.4</ele><time>2021-12-08T12:58:39Z</time><name>PT2023</name></trkpt>
<trkpt lat="53.073198" lon="04.887811"><ele>1.3</ele><time>2021-12-08T12:58:41Z</time><name>PT2024</name></trkpt>
<trkpt lat="53.073195" lon="04.887820"><ele>1.3</ele><time>2021-12-08T12:58:42Z</time><name>PT2025</name></trkpt>
<trkpt lat="53.073192" lon="04.887826"><ele>1.3</ele><time>2021-12-08T12:58:42Z</time><name>PT2026</name></trkpt>
<trkpt lat="53.073188" lon="04.887831"><ele>1.5</ele><time>2021-12-08T12:58:44Z</time><name>PT2027</name></trkpt>
<trkpt lat="53.073184" lon="04.887837"><ele>1.9</ele><time>2021-12-08T12:58:45Z</time><name>PT2028</name></trkpt>
<trkpt lat="53.073180" lon="04.887842"><ele>1.9</ele><time>2021-12-08T12:58:45Z</time><name>PT2029</name></trkpt>
<trkpt lat="53.073178" lon="04.887845"><ele>2</ele><time>2021-12-08T12:58:47Z</time><name>PT2030</name></trkpt>
<trkpt lat="53.073175" lon="04.887848"><ele>2.3</ele><time>2021-12-08T12:58:48Z</time><name>PT2031</name></trkpt>
<trkpt lat="53.073173" lon="04.887853"><ele>2.4</ele><time>2021-12-08T12:58:48Z</time><name>PT2032</name></trkpt>
<trkpt lat="53.073170" lon="04.887858"><ele>2.5</ele><time>2021-12-08T12:58:50Z</time><name>PT2033</name></trkpt>
<trkpt lat="53.073166" lon="04.887863"><ele>3</ele><time>2021-12-08T12:58:51Z</time><name>PT2034</name></trkpt>
<trkpt lat="53.073163" lon="04.887871"><ele>3.2</ele><time>2021-12-08T12:58:51Z</time><name>PT2035</name></trkpt>
<trkpt lat="53.073161" lon="04.887878"><ele>3.5</ele><time>2021-12-08T12:58:53Z</time><name>PT2036</name></trkpt>
<trkpt lat="53.073157" lon="04.887883"><ele>3.8</ele><time>2021-12-08T12:58:54Z</time><name>PT2037</name></trkpt>
<trkpt lat="53.073153" lon="04.887891"><ele>3.9</ele><time>2021-12-08T12:58:54Z</time><name>PT2038</name></trkpt>
<trkpt lat="53.073149" lon="04.887897"><ele>4</ele><time>2021-12-08T12:58:56Z</time><name>PT2039</name></trkpt>
<trkpt lat="53.073147" lon="04.887900"><ele>4.3</ele><time>2021-12-08T12:58:57Z</time><name>PT2040</name></trkpt>
<trkpt lat="53.073143" lon="04.887905"><ele>4.4</ele><time>2021-12-08T12:58:57Z</time><name>PT2041</name></trkpt>
<trkpt lat="53.073139" lon="04.887909"><ele>4.6</ele><time>2021-12-08T12:58:59Z</time><name>PT2042</name></trkpt>
<trkpt lat="53.073136" lon="04.887913"><ele>4.6</ele><time>2021-12-08T12:59:00Z</time><name>PT2043</name></trkpt>
<trkpt lat="53.073134" lon="04.887917"><ele>4.6</ele><time>2021-12-08T12:59:00Z</time><name>PT2044</name></trkpt>
<trkpt lat="53.073125" lon="04.887925"><ele>5.6</ele><time>2021-12-08T12:59:08Z</time><name>PT2045</name></trkpt>
<trkpt lat="53.073119" lon="04.887931"><ele>5.6</ele><time>2021-12-08T12:59:09Z</time><name>PT2046</name></trkpt>
<trkpt lat="53.073115" lon="04.887936"><ele>5.2</ele><time>2021-12-08T12:59:09Z</time><name>PT2047</name></trkpt>
<trkpt lat="53.073112" lon="04.887943"><ele>4.6</ele><time>2021-12-08T12:59:11Z</time><name>PT2048</name></trkpt>
<trkpt lat="53.073110" lon="04.887949"><ele>4.3</ele><time>2021-12-08T12:59:12Z</time><name>PT2049</name></trkpt>
<trkpt lat="53.073107" lon="04.887957"><ele>4.7</ele><time>2021-12-08T12:59:12Z</time><name>PT2050</name></trkpt>
<trkpt lat="53.073103" lon="04.887965"><ele>6.1</ele><time>2021-12-08T12:59:14Z</time><name>PT2051</name></trkpt>
<trkpt lat="53.073099" lon="04.887969"><ele>7.5</ele><time>2021-12-08T12:59:15Z</time><name>PT2052</name></trkpt>
<trkpt lat="53.073095" lon="04.887973"><ele>7.8</ele><time>2021-12-08T12:59:15Z</time><name>PT2053</name></trkpt>
<trkpt lat="53.073092" lon="04.887977"><ele>7.3</ele><time>2021-12-08T12:59:17Z</time><name>PT2054</name></trkpt>
<trkpt lat="53.073085" lon="04.887982"><ele>4.3</ele><time>2021-12-08T12:59:30Z</time><name>PT2055</name></trkpt>
<trkpt lat="53.073079" lon="04.887992"><ele>4.6</ele><time>2021-12-08T12:59:30Z</time><name>PT2056</name></trkpt>
<trkpt lat="53.073073" lon="04.888001"><ele>5.1</ele><time>2021-12-08T12:59:32Z</time><name>PT2057</name></trkpt>
<trkpt lat="53.073068" lon="04.888010"><ele>5.2</ele><time>2021-12-08T12:59:33Z</time><name>PT2058</name></trkpt>
<trkpt lat="53.073068" lon="04.888016"><ele>4</ele><time>2021-12-08T12:59:41Z</time><name>PT2059</name></trkpt>
<trkpt lat="53.073067" lon="04.888041"><ele>4</ele><time>2021-12-08T12:59:42Z</time><name>PT2060</name></trkpt>
<trkpt lat="53.073070" lon="04.888068"><ele>4.1</ele><time>2021-12-08T12:59:42Z</time><name>PT2061</name></trkpt>
<trkpt lat="53.073078" lon="04.888087"><ele>4.3</ele><time>2021-12-08T12:59:44Z</time><name>PT2062</name></trkpt>
<trkpt lat="53.073083" lon="04.888105"><ele>4.6</ele><time>2021-12-08T12:59:45Z</time><name>PT2063</name></trkpt>
<trkpt lat="53.073088" lon="04.888124"><ele>4.6</ele><time>2021-12-08T12:59:45Z</time><name>PT2064</name></trkpt>
<trkpt lat="53.073094" lon="04.888143"><ele>4.5</ele><time>2021-12-08T12:59:47Z</time><name>PT2065</name></trkpt>
<trkpt lat="53.073100" lon="04.888165"><ele>4.2</ele><time>2021-12-08T12:59:48Z</time><name>PT2066</name></trkpt>
<trkpt lat="53.073106" lon="04.888188"><ele>4.2</ele><time>2021-12-08T12:59:48Z</time><name>PT2067</name></trkpt>
<trkpt lat="53.073113" lon="04.888203"><ele>4.1</ele><time>2021-12-08T12:59:50Z</time><name>PT2068</name></trkpt>
<trkpt lat="53.073121" lon="04.888217"><ele>4.1</ele><time>2021-12-08T12:59:51Z</time><name>PT2069</name></trkpt>
<trkpt lat="53.073129" lon="04.888234"><ele>4</ele><time>2021-12-08T12:59:51Z</time><name>PT2070</name></trkpt>
<trkpt lat="53.073135" lon="04.888252"><ele>4</ele><time>2021-12-08T12:59:53Z</time><name>PT2071</name></trkpt>
<trkpt lat="53.073142" lon="04.888269"><ele>4</ele><time>2021-12-08T12:59:54Z</time><name>PT2072</name></trkpt>
<trkpt lat="53.073149" lon="04.888284"><ele>3.8</ele><time>2021-12-08T12:59:54Z</time><name>PT2073</name></trkpt>
<trkpt lat="53.073157" lon="04.888299"><ele>4</ele><time>2021-12-08T12:59:56Z</time><name>PT2074</name></trkpt>
<trkpt lat="53.073165" lon="04.888315"><ele>4</ele><time>2021-12-08T12:59:57Z</time><name>PT2075</name></trkpt>
<trkpt lat="53.073174" lon="04.888329"><ele>4.1</ele><time>2021-12-08T12:59:57Z</time><name>PT2076</name></trkpt>
<trkpt lat="53.073182" lon="04.888343"><ele>4.1</ele><time>2021-12-08T12:59:59Z</time><name>PT2077</name></trkpt>
<trkpt lat="53.073190" lon="04.888358"><ele>4.1</ele><time>2021-12-08T13:00:00Z</time><name>PT2078</name></trkpt>
<trkpt lat="53.073197" lon="04.888375"><ele>4</ele><time>2021-12-08T13:00:00Z</time><name>PT2079</name></trkpt>
<trkpt lat="53.073205" lon="04.888391"><ele>4</ele><time>2021-12-08T13:00:02Z</time><name>PT2080</name></trkpt>
<trkpt lat="53.073213" lon="04.888406"><ele>4</ele><time>2021-12-08T13:00:03Z</time><name>PT2081</name></trkpt>
<trkpt lat="53.073221" lon="04.888421"><ele>4</ele><time>2021-12-08T13:00:03Z</time><name>PT2082</name></trkpt>
<trkpt lat="53.073229" lon="04.888435"><ele>4</ele><time>2021-12-08T13:00:05Z</time><name>PT2083</name></trkpt>
<trkpt lat="53.073237" lon="04.888450"><ele>3.9</ele><time>2021-12-08T13:00:06Z</time><name>PT2084</name></trkpt>
<trkpt lat="53.073244" lon="04.888465"><ele>3.8</ele><time>2021-12-08T13:00:06Z</time><name>PT2085</name></trkpt>
<trkpt lat="53.073250" lon="04.888481"><ele>3.7</ele><time>2021-12-08T13:00:08Z</time><name>PT2086</name></trkpt>
<trkpt lat="53.073257" lon="04.888496"><ele>3.5</ele><time>2021-12-08T13:00:09Z</time><name>PT2087</name></trkpt>
<trkpt lat="53.073264" lon="04.888512"><ele>3.3</ele><time>2021-12-08T13:00:09Z</time><name>PT2088</name></trkpt>
<trkpt lat="53.073273" lon="04.888527"><ele>3.2</ele><time>2021-12-08T13:00:11Z</time><name>PT2089</name></trkpt>
<trkpt lat="53.073282" lon="04.888540"><ele>3.6</ele><time>2021-12-08T13:00:12Z</time><name>PT2090</name></trkpt>
<trkpt lat="53.073292" lon="04.888552"><ele>3.9</ele><time>2021-12-08T13:00:12Z</time><name>PT2091</name></trkpt>
<trkpt lat="53.073301" lon="04.888565"><ele>4.1</ele><time>2021-12-08T13:00:14Z</time><name>PT2092</name></trkpt>
<trkpt lat="53.073311" lon="04.888578"><ele>4.6</ele><time>2021-12-08T13:00:15Z</time><name>PT2093</name></trkpt>
<trkpt lat="53.073319" lon="04.888592"><ele>4.7</ele><time>2021-12-08T13:00:15Z</time><name>PT2094</name></trkpt>
<trkpt lat="53.073327" lon="04.888606"><ele>4.6</ele><time>2021-12-08T13:00:17Z</time><name>PT2095</name></trkpt>
<trkpt lat="53.073335" lon="04.888621"><ele>4.5</ele><time>2021-12-08T13:00:18Z</time><name>PT2096</name></trkpt>
<trkpt lat="53.073343" lon="04.888637"><ele>4.4</ele><time>2021-12-08T13:00:18Z</time><name>PT2097</name></trkpt>
<trkpt lat="53.073351" lon="04.888654"><ele>4</ele><time>2021-12-08T13:00:20Z</time><name>PT2098</name></trkpt>
<trkpt lat="53.073359" lon="04.888669"><ele>4</ele><time>2021-12-08T13:00:21Z</time><name>PT2099</name></trkpt>
<trkpt lat="53.073368" lon="04.888683"><ele>4.2</ele><time>2021-12-08T13:00:21Z</time><name>PT2100</name></trkpt>
<trkpt lat="53.073377" lon="04.888697"><ele>4.3</ele><time>2021-12-08T13:00:23Z</time><name>PT2101</name></trkpt>
<trkpt lat="53.073386" lon="04.888710"><ele>4.6</ele><time>2021-12-08T13:00:24Z</time><name>PT2102</name></trkpt>
<trkpt lat="53.073395" lon="04.888723"><ele>4.5</ele><time>2021-12-08T13:00:24Z</time><name>PT2103</name></trkpt>
<trkpt lat="53.073405" lon="04.888736"><ele>4.4</ele><time>2021-12-08T13:00:26Z</time><name>PT2104</name></trkpt>
<trkpt lat="53.073413" lon="04.888747"><ele>4.5</ele><time>2021-12-08T13:00:27Z</time><name>PT2105</name></trkpt>
<trkpt lat="53.073422" lon="04.888759"><ele>4.3</ele><time>2021-12-08T13:00:27Z</time><name>PT2106</name></trkpt>
<trkpt lat="53.073431" lon="04.888774"><ele>4.2</ele><time>2021-12-08T13:00:29Z</time><name>PT2107</name></trkpt>
<trkpt lat="53.073438" lon="04.888789"><ele>4.1</ele><time>2021-12-08T13:00:30Z</time><name>PT2108</name></trkpt>
<trkpt lat="53.073446" lon="04.888807"><ele>3.9</ele><time>2021-12-08T13:00:30Z</time><name>PT2109</name></trkpt>
<trkpt lat="53.073454" lon="04.888823"><ele>3.8</ele><time>2021-12-08T13:00:32Z</time><name>PT2110</name></trkpt>
<trkpt lat="53.073462" lon="04.888838"><ele>3.8</ele><time>2021-12-08T13:00:33Z</time><name>PT2111</name></trkpt>
<trkpt lat="53.073471" lon="04.888852"><ele>4</ele><time>2021-12-08T13:00:33Z</time><name>PT2112</name></trkpt>
<trkpt lat="53.073479" lon="04.888865"><ele>4.3</ele><time>2021-12-08T13:00:35Z</time><name>PT2113</name></trkpt>
<trkpt lat="53.073489" lon="04.888878"><ele>4.6</ele><time>2021-12-08T13:00:36Z</time><name>PT2114</name></trkpt>
<trkpt lat="53.073498" lon="04.888893"><ele>4.5</ele><time>2021-12-08T13:00:36Z</time><name>PT2115</name></trkpt>
<trkpt lat="53.073507" lon="04.888905"><ele>4.3</ele><time>2021-12-08T13:00:38Z</time><name>PT2116</name></trkpt>
<trkpt lat="53.073516" lon="04.888917"><ele>4.4</ele><time>2021-12-08T13:00:39Z</time><name>PT2117</name></trkpt>
<trkpt lat="53.073525" lon="04.888932"><ele>4.1</ele><time>2021-12-08T13:00:39Z</time><name>PT2118</name></trkpt>
<trkpt lat="53.073533" lon="04.888948"><ele>4</ele><time>2021-12-08T13:00:41Z</time><name>PT2119</name></trkpt>
<trkpt lat="53.073542" lon="04.888963"><ele>4</ele><time>2021-12-08T13:00:42Z</time><name>PT2120</name></trkpt>
<trkpt lat="53.073550" lon="04.888977"><ele>3.9</ele><time>2021-12-08T13:00:42Z</time><name>PT2121</name></trkpt>
<trkpt lat="53.073559" lon="04.888990"><ele>4</ele><time>2021-12-08T13:00:44Z</time><name>PT2122</name></trkpt>
<trkpt lat="53.073569" lon="04.889002"><ele>4</ele><time>2021-12-08T13:00:45Z</time><name>PT2123</name></trkpt>
<trkpt lat="53.073578" lon="04.889014"><ele>4</ele><time>2021-12-08T13:00:45Z</time><name>PT2124</name></trkpt>
<trkpt lat="53.073587" lon="04.889027"><ele>4.1</ele><time>2021-12-08T13:00:47Z</time><name>PT2125</name></trkpt>
<trkpt lat="53.073595" lon="04.889040"><ele>4</ele><time>2021-12-08T13:00:48Z</time><name>PT2126</name></trkpt>
<trkpt lat="53.073604" lon="04.889054"><ele>3.9</ele><time>2021-12-08T13:00:48Z</time><name>PT2127</name></trkpt>
<trkpt lat="53.073612" lon="04.889069"><ele>3.7</ele><time>2021-12-08T13:00:50Z</time><name>PT2128</name></trkpt>
<trkpt lat="53.073622" lon="04.889082"><ele>3.6</ele><time>2021-12-08T13:00:51Z</time><name>PT2129</name></trkpt>
<trkpt lat="53.073630" lon="04.889096"><ele>3.6</ele><time>2021-12-08T13:00:51Z</time><name>PT2130</name></trkpt>
<trkpt lat="53.073640" lon="04.889108"><ele>3.8</ele><time>2021-12-08T13:00:53Z</time><name>PT2131</name></trkpt>
<trkpt lat="53.073650" lon="04.889120"><ele>4</ele><time>2021-12-08T13:00:54Z</time><name>PT2132</name></trkpt>
<trkpt lat="53.073658" lon="04.889133"><ele>4</ele><time>2021-12-08T13:00:54Z</time><name>PT2133</name></trkpt>
<trkpt lat="53.073668" lon="04.889146"><ele>4</ele><time>2021-12-08T13:00:56Z</time><name>PT2134</name></trkpt>
<trkpt lat="53.073677" lon="04.889159"><ele>4</ele><time>2021-12-08T13:00:57Z</time><name>PT2135</name></trkpt>
<trkpt lat="53.073685" lon="04.889173"><ele>4.1</ele><time>2021-12-08T13:00:57Z</time><name>PT2136</name></trkpt>
<trkpt lat="53.073694" lon="04.889187"><ele>4.1</ele><time>2021-12-08T13:00:59Z</time><name>PT2137</name></trkpt>
<trkpt lat="53.073704" lon="04.889201"><ele>4</ele><time>2021-12-08T13:01:00Z</time><name>PT2138</name></trkpt>
<trkpt lat="53.073713" lon="04.889215"><ele>4.1</ele><time>2021-12-08T13:01:00Z</time><name>PT2139</name></trkpt>
<trkpt lat="53.073722" lon="04.889227"><ele>4</ele><time>2021-12-08T13:01:02Z</time><name>PT2140</name></trkpt>
<trkpt lat="53.073732" lon="04.889240"><ele>4</ele><time>2021-12-08T13:01:03Z</time><name>PT2141</name></trkpt>
<trkpt lat="53.073743" lon="04.889252"><ele>4.2</ele><time>2021-12-08T13:01:03Z</time><name>PT2142</name></trkpt>
<trkpt lat="53.073753" lon="04.889263"><ele>4.6</ele><time>2021-12-08T13:01:05Z</time><name>PT2143</name></trkpt>
<trkpt lat="53.073764" lon="04.889273"><ele>4.7</ele><time>2021-12-08T13:01:06Z</time><name>PT2144</name></trkpt>
<trkpt lat="53.073772" lon="04.889286"><ele>4.9</ele><time>2021-12-08T13:01:06Z</time><name>PT2145</name></trkpt>
<trkpt lat="53.073780" lon="04.889302"><ele>4.6</ele><time>2021-12-08T13:01:08Z</time><name>PT2146</name></trkpt>
<trkpt lat="53.073790" lon="04.889318"><ele>4.2</ele><time>2021-12-08T13:01:09Z</time><name>PT2147</name></trkpt>
<trkpt lat="53.073799" lon="04.889334"><ele>4</ele><time>2021-12-08T13:01:09Z</time><name>PT2148</name></trkpt>
<trkpt lat="53.073808" lon="04.889349"><ele>4</ele><time>2021-12-08T13:01:11Z</time><name>PT2149</name></trkpt>
<trkpt lat="53.073819" lon="04.889362"><ele>4.4</ele><time>2021-12-08T13:01:12Z</time><name>PT2150</name></trkpt>
<trkpt lat="53.073829" lon="04.889375"><ele>4.3</ele><time>2021-12-08T13:01:12Z</time><name>PT2151</name></trkpt>
<trkpt lat="53.073839" lon="04.889387"><ele>4.2</ele><time>2021-12-08T13:01:14Z</time><name>PT2152</name></trkpt>
<trkpt lat="53.073850" lon="04.889398"><ele>4</ele><time>2021-12-08T13:01:15Z</time><name>PT2153</name></trkpt>
<trkpt lat="53.073860" lon="04.889410"><ele>3.9</ele><time>2021-12-08T13:01:15Z</time><name>PT2154</name></trkpt>
<trkpt lat="53.073869" lon="04.889424"><ele>3.8</ele><time>2021-12-08T13:01:17Z</time><name>PT2155</name></trkpt>
<trkpt lat="53.073878" lon="04.889439"><ele>3.9</ele><time>2021-12-08T13:01:18Z</time><name>PT2156</name></trkpt>
<trkpt lat="53.073887" lon="04.889454"><ele>4</ele><time>2021-12-08T13:01:18Z</time><name>PT2157</name></trkpt>
<trkpt lat="53.073896" lon="04.889469"><ele>3.9</ele><time>2021-12-08T13:01:20Z</time><name>PT2158</name></trkpt>
<trkpt lat="53.073906" lon="04.889484"><ele>3.8</ele><time>2021-12-08T13:01:21Z</time><name>PT2159</name></trkpt>
<trkpt lat="53.073915" lon="04.889497"><ele>3.8</ele><time>2021-12-08T13:01:21Z</time><name>PT2160</name></trkpt>
<trkpt lat="53.073925" lon="04.889508"><ele>4</ele><time>2021-12-08T13:01:23Z</time><name>PT2161</name></trkpt>
<trkpt lat="53.073935" lon="04.889520"><ele>4.1</ele><time>2021-12-08T13:01:24Z</time><name>PT2162</name></trkpt>
<trkpt lat="53.073945" lon="04.889532"><ele>4.4</ele><time>2021-12-08T13:01:24Z</time><name>PT2163</name></trkpt>
<trkpt lat="53.073955" lon="04.889543"><ele>4.3</ele><time>2021-12-08T13:01:26Z</time><name>PT2164</name></trkpt>
<trkpt lat="53.073965" lon="04.889557"><ele>4.4</ele><time>2021-12-08T13:01:27Z</time><name>PT2165</name></trkpt>
<trkpt lat="53.073974" lon="04.889572"><ele>4.2</ele><time>2021-12-08T13:01:27Z</time><name>PT2166</name></trkpt>
<trkpt lat="53.073984" lon="04.889587"><ele>4.1</ele><time>2021-12-08T13:01:29Z</time><name>PT2167</name></trkpt>
<trkpt lat="53.073993" lon="04.889603"><ele>4</ele><time>2021-12-08T13:01:30Z</time><name>PT2168</name></trkpt>
<trkpt lat="53.074003" lon="04.889615"><ele>4</ele><time>2021-12-08T13:01:30Z</time><name>PT2169</name></trkpt>
<trkpt lat="53.074013" lon="04.889625"><ele>4</ele><time>2021-12-08T13:01:32Z</time><name>PT2170</name></trkpt>
<trkpt lat="53.074023" lon="04.889637"><ele>4</ele><time>2021-12-08T13:01:33Z</time><name>PT2171</name></trkpt>
<trkpt lat="53.074033" lon="04.889649"><ele>4</ele><time>2021-12-08T13:01:33Z</time><name>PT2172</name></trkpt>
<trkpt lat="53.074042" lon="04.889661"><ele>4</ele><time>2021-12-08T13:01:35Z</time><name>PT2173</name></trkpt>
<trkpt lat="53.074052" lon="04.889675"><ele>4</ele><time>2021-12-08T13:01:36Z</time><name>PT2174</name></trkpt>
<trkpt lat="53.074061" lon="04.889690"><ele>3.7</ele><time>2021-12-08T13:01:36Z</time><name>PT2175</name></trkpt>
<trkpt lat="53.074070" lon="04.889703"><ele>3.4</ele><time>2021-12-08T13:01:38Z</time><name>PT2176</name></trkpt>
<trkpt lat="53.074080" lon="04.889717"><ele>3.2</ele><time>2021-12-08T13:01:39Z</time><name>PT2177</name></trkpt>
<trkpt lat="53.074089" lon="04.889729"><ele>3.2</ele><time>2021-12-08T13:01:39Z</time><name>PT2178</name></trkpt>
<trkpt lat="53.074100" lon="04.889742"><ele>3.4</ele><time>2021-12-08T13:01:41Z</time><name>PT2179</name></trkpt>
<trkpt lat="53.074110" lon="04.889753"><ele>3.9</ele><time>2021-12-08T13:01:42Z</time><name>PT2180</name></trkpt>
<trkpt lat="53.074121" lon="04.889765"><ele>4</ele><time>2021-12-08T13:01:42Z</time><name>PT2181</name></trkpt>
<trkpt lat="53.074130" lon="04.889776"><ele>4.1</ele><time>2021-12-08T13:01:44Z</time><name>PT2182</name></trkpt>
<trkpt lat="53.074139" lon="04.889787"><ele>4.2</ele><time>2021-12-08T13:01:45Z</time><name>PT2183</name></trkpt>
<trkpt lat="53.074148" lon="04.889802"><ele>4.2</ele><time>2021-12-08T13:01:45Z</time><name>PT2184</name></trkpt>
<trkpt lat="53.074157" lon="04.889818"><ele>4</ele><time>2021-12-08T13:01:47Z</time><name>PT2185</name></trkpt>
<trkpt lat="53.074166" lon="04.889834"><ele>3.8</ele><time>2021-12-08T13:01:48Z</time><name>PT2186</name></trkpt>
<trkpt lat="53.074175" lon="04.889848"><ele>3.7</ele><time>2021-12-08T13:01:48Z</time><name>PT2187</name></trkpt>
<trkpt lat="53.074183" lon="04.889860"><ele>3.6</ele><time>2021-12-08T13:01:50Z</time><name>PT2188</name></trkpt>
<trkpt lat="53.074193" lon="04.889875"><ele>3.8</ele><time>2021-12-08T13:01:51Z</time><name>PT2189</name></trkpt>
<trkpt lat="53.074203" lon="04.889888"><ele>3.8</ele><time>2021-12-08T13:01:51Z</time><name>PT2190</name></trkpt>
<trkpt lat="53.074213" lon="04.889899"><ele>4</ele><time>2021-12-08T13:01:53Z</time><name>PT2191</name></trkpt>
<trkpt lat="53.074223" lon="04.889912"><ele>4</ele><time>2021-12-08T13:01:54Z</time><name>PT2192</name></trkpt>
<trkpt lat="53.074232" lon="04.889926"><ele>4</ele><time>2021-12-08T13:01:54Z</time><name>PT2193</name></trkpt>
<trkpt lat="53.074241" lon="04.889941"><ele>4</ele><time>2021-12-08T13:01:56Z</time><name>PT2194</name></trkpt>
<trkpt lat="53.074250" lon="04.889957"><ele>3.9</ele><time>2021-12-08T13:01:57Z</time><name>PT2195</name></trkpt>
<trkpt lat="53.074259" lon="04.889972"><ele>3.9</ele><time>2021-12-08T13:01:57Z</time><name>PT2196</name></trkpt>
<trkpt lat="53.074269" lon="04.889985"><ele>3.8</ele><time>2021-12-08T13:01:59Z</time><name>PT2197</name></trkpt>
<trkpt lat="53.074279" lon="04.889997"><ele>3.5</ele><time>2021-12-08T13:02:00Z</time><name>PT2198</name></trkpt>
<trkpt lat="53.074290" lon="04.890009"><ele>3.5</ele><time>2021-12-08T13:02:00Z</time><name>PT2199</name></trkpt>
<trkpt lat="53.074301" lon="04.890022"><ele>3.5</ele><time>2021-12-08T13:02:02Z</time><name>PT2200</name></trkpt>
<trkpt lat="53.074311" lon="04.890033"><ele>3.5</ele><time>2021-12-08T13:02:03Z</time><name>PT2201</name></trkpt>
<trkpt lat="53.074320" lon="04.890047"><ele>3.6</ele><time>2021-12-08T13:02:03Z</time><name>PT2202</name></trkpt>
<trkpt lat="53.074328" lon="04.890061"><ele>3.6</ele><time>2021-12-08T13:02:05Z</time><name>PT2203</name></trkpt>
<trkpt lat="53.074338" lon="04.890076"><ele>3.5</ele><time>2021-12-08T13:02:06Z</time><name>PT2204</name></trkpt>
<trkpt lat="53.074348" lon="04.890090"><ele>3.4</ele><time>2021-12-08T13:02:06Z</time><name>PT2205</name></trkpt>
<trkpt lat="53.074358" lon="04.890104"><ele>3.2</ele><time>2021-12-08T13:02:08Z</time><name>PT2206</name></trkpt>
<trkpt lat="53.074367" lon="04.890117"><ele>3.5</ele><time>2021-12-08T13:02:09Z</time><name>PT2207</name></trkpt>
<trkpt lat="53.074376" lon="04.890128"><ele>3.5</ele><time>2021-12-08T13:02:09Z</time><name>PT2208</name></trkpt>
<trkpt lat="53.074386" lon="04.890140"><ele>3.6</ele><time>2021-12-08T13:02:11Z</time><name>PT2209</name></trkpt>
<trkpt lat="53.074395" lon="04.890151"><ele>3.7</ele><time>2021-12-08T13:02:12Z</time><name>PT2210</name></trkpt>
<trkpt lat="53.074405" lon="04.890165"><ele>3.5</ele><time>2021-12-08T13:02:12Z</time><name>PT2211</name></trkpt>
<trkpt lat="53.074414" lon="04.890178"><ele>3.5</ele><time>2021-12-08T13:02:14Z</time><name>PT2212</name></trkpt>
<trkpt lat="53.074423" lon="04.890193"><ele>3.6</ele><time>2021-12-08T13:02:15Z</time><name>PT2213</name></trkpt>
<trkpt lat="53.074432" lon="04.890210"><ele>3.6</ele><time>2021-12-08T13:02:15Z</time><name>PT2214</name></trkpt>
<trkpt lat="53.074441" lon="04.890225"><ele>3.8</ele><time>2021-12-08T13:02:17Z</time><name>PT2215</name></trkpt>
<trkpt lat="53.074450" lon="04.890238"><ele>3.8</ele><time>2021-12-08T13:02:18Z</time><name>PT2216</name></trkpt>
<trkpt lat="53.074459" lon="04.890250"><ele>3.9</ele><time>2021-12-08T13:02:18Z</time><name>PT2217</name></trkpt>
<trkpt lat="53.074469" lon="04.890262"><ele>3.7</ele><time>2021-12-08T13:02:20Z</time><name>PT2218</name></trkpt>
<trkpt lat="53.074480" lon="04.890272"><ele>3.8</ele><time>2021-12-08T13:02:21Z</time><name>PT2219</name></trkpt>
<trkpt lat="53.074490" lon="04.890284"><ele>3.8</ele><time>2021-12-08T13:02:21Z</time><name>PT2220</name></trkpt>
<trkpt lat="53.074499" lon="04.890297"><ele>3.8</ele><time>2021-12-08T13:02:23Z</time><name>PT2221</name></trkpt>
<trkpt lat="53.074508" lon="04.890311"><ele>4</ele><time>2021-12-08T13:02:24Z</time><name>PT2222</name></trkpt>
<trkpt lat="53.074518" lon="04.890325"><ele>4</ele><time>2021-12-08T13:02:24Z</time><name>PT2223</name></trkpt>
<trkpt lat="53.074527" lon="04.890339"><ele>4</ele><time>2021-12-08T13:02:26Z</time><name>PT2224</name></trkpt>
<trkpt lat="53.074536" lon="04.890353"><ele>3.9</ele><time>2021-12-08T13:02:27Z</time><name>PT2225</name></trkpt>
<trkpt lat="53.074546" lon="04.890366"><ele>3.8</ele><time>2021-12-08T13:02:27Z</time><name>PT2226</name></trkpt>
<trkpt lat="53.074556" lon="04.890378"><ele>3.6</ele><time>2021-12-08T13:02:29Z</time><name>PT2227</name></trkpt>
<trkpt lat="53.074566" lon="04.890390"><ele>3.6</ele><time>2021-12-08T13:02:30Z</time><name>PT2228</name></trkpt>
<trkpt lat="53.074576" lon="04.890403"><ele>3.6</ele><time>2021-12-08T13:02:30Z</time><name>PT2229</name></trkpt>
<trkpt lat="53.074585" lon="04.890414"><ele>3.6</ele><time>2021-12-08T13:02:32Z</time><name>PT2230</name></trkpt>
<trkpt lat="53.074594" lon="04.890425"><ele>3.5</ele><time>2021-12-08T13:02:33Z</time><name>PT2231</name></trkpt>
<trkpt lat="53.074603" lon="04.890439"><ele>3.5</ele><time>2021-12-08T13:02:33Z</time><name>PT2232</name></trkpt>
<trkpt lat="53.074613" lon="04.890454"><ele>3.5</ele><time>2021-12-08T13:02:35Z</time><name>PT2233</name></trkpt>
<trkpt lat="53.074622" lon="04.890470"><ele>3.5</ele><time>2021-12-08T13:02:36Z</time><name>PT2234</name></trkpt>
<trkpt lat="53.074631" lon="04.890484"><ele>3.6</ele><time>2021-12-08T13:02:36Z</time><name>PT2235</name></trkpt>
<trkpt lat="53.074641" lon="04.890496"><ele>3.8</ele><time>2021-12-08T13:02:38Z</time><name>PT2236</name></trkpt>
<trkpt lat="53.074652" lon="04.890508"><ele>3.8</ele><time>2021-12-08T13:02:39Z</time><name>PT2237</name></trkpt>
<trkpt lat="53.074663" lon="04.890520"><ele>3.9</ele><time>2021-12-08T13:02:39Z</time><name>PT2238</name></trkpt>
<trkpt lat="53.074672" lon="04.890531"><ele>3.9</ele><time>2021-12-08T13:02:41Z</time><name>PT2239</name></trkpt>
<trkpt lat="53.074680" lon="04.890544"><ele>3.7</ele><time>2021-12-08T13:02:42Z</time><name>PT2240</name></trkpt>
<trkpt lat="53.074689" lon="04.890558"><ele>3.8</ele><time>2021-12-08T13:02:42Z</time><name>PT2241</name></trkpt>
<trkpt lat="53.074698" lon="04.890572"><ele>3.5</ele><time>2021-12-08T13:02:44Z</time><name>PT2242</name></trkpt>
<trkpt lat="53.074707" lon="04.890586"><ele>3.4</ele><time>2021-12-08T13:02:45Z</time><name>PT2243</name></trkpt>
<trkpt lat="53.074716" lon="04.890599"><ele>3.3</ele><time>2021-12-08T13:02:45Z</time><name>PT2244</name></trkpt>
<trkpt lat="53.074725" lon="04.890611"><ele>3.2</ele><time>2021-12-08T13:02:47Z</time><name>PT2245</name></trkpt>
<trkpt lat="53.074735" lon="04.890623"><ele>3</ele><time>2021-12-08T13:02:48Z</time><name>PT2246</name></trkpt>
<trkpt lat="53.074745" lon="04.890635"><ele>3</ele><time>2021-12-08T13:02:48Z</time><name>PT2247</name></trkpt>
<trkpt lat="53.074755" lon="04.890646"><ele>3.2</ele><time>2021-12-08T13:02:50Z</time><name>PT2248</name></trkpt>
<trkpt lat="53.074764" lon="04.890659"><ele>3.6</ele><time>2021-12-08T13:02:51Z</time><name>PT2249</name></trkpt>
<trkpt lat="53.074772" lon="04.890674"><ele>4</ele><time>2021-12-08T13:02:51Z</time><name>PT2250</name></trkpt>
<trkpt lat="53.074782" lon="04.890688"><ele>4.4</ele><time>2021-12-08T13:02:53Z</time><name>PT2251</name></trkpt>
<trkpt lat="53.074791" lon="04.890700"><ele>4.4</ele><time>2021-12-08T13:02:54Z</time><name>PT2252</name></trkpt>
<trkpt lat="53.074800" lon="04.890712"><ele>4.1</ele><time>2021-12-08T13:02:54Z</time><name>PT2253</name></trkpt>
<trkpt lat="53.074809" lon="04.890725"><ele>4</ele><time>2021-12-08T13:02:56Z</time><name>PT2254</name></trkpt>
<trkpt lat="53.074819" lon="04.890738"><ele>3.9</ele><time>2021-12-08T13:02:57Z</time><name>PT2255</name></trkpt>
<trkpt lat="53.074829" lon="04.890749"><ele>3.7</ele><time>2021-12-08T13:02:57Z</time><name>PT2256</name></trkpt>
<trkpt lat="53.074837" lon="04.890761"><ele>3.8</ele><time>2021-12-08T13:02:59Z</time><name>PT2257</name></trkpt>
<trkpt lat="53.074846" lon="04.890775"><ele>3.6</ele><time>2021-12-08T13:03:00Z</time><name>PT2258</name></trkpt>
<trkpt lat="53.074854" lon="04.890789"><ele>3.6</ele><time>2021-12-08T13:03:00Z</time><name>PT2259</name></trkpt>
<trkpt lat="53.074863" lon="04.890803"><ele>3.7</ele><time>2021-12-08T13:03:02Z</time><name>PT2260</name></trkpt>
<trkpt lat="53.074871" lon="04.890817"><ele>3.5</ele><time>2021-12-08T13:03:03Z</time><name>PT2261</name></trkpt>
<trkpt lat="53.074880" lon="04.890831"><ele>3.5</ele><time>2021-12-08T13:03:03Z</time><name>PT2262</name></trkpt>
<trkpt lat="53.074889" lon="04.890841"><ele>3.5</ele><time>2021-12-08T13:03:05Z</time><name>PT2263</name></trkpt>
<trkpt lat="53.074900" lon="04.890852"><ele>3.7</ele><time>2021-12-08T13:03:06Z</time><name>PT2264</name></trkpt>
<trkpt lat="53.074911" lon="04.890864"><ele>3.7</ele><time>2021-12-08T13:03:06Z</time><name>PT2265</name></trkpt>
<trkpt lat="53.074921" lon="04.890875"><ele>4.3</ele><time>2021-12-08T13:03:08Z</time><name>PT2266</name></trkpt>
<trkpt lat="53.074930" lon="04.890888"><ele>4.5</ele><time>2021-12-08T13:03:09Z</time><name>PT2267</name></trkpt>
<trkpt lat="53.074939" lon="04.890902"><ele>4.5</ele><time>2021-12-08T13:03:09Z</time><name>PT2268</name></trkpt>
<trkpt lat="53.074948" lon="04.890917"><ele>4.3</ele><time>2021-12-08T13:03:11Z</time><name>PT2269</name></trkpt>
<trkpt lat="53.074957" lon="04.890932"><ele>4</ele><time>2021-12-08T13:03:12Z</time><name>PT2270</name></trkpt>
<trkpt lat="53.074966" lon="04.890947"><ele>4</ele><time>2021-12-08T13:03:12Z</time><name>PT2271</name></trkpt>
<trkpt lat="53.074975" lon="04.890960"><ele>3.7</ele><time>2021-12-08T13:03:14Z</time><name>PT2272</name></trkpt>
<trkpt lat="53.074985" lon="04.890973"><ele>3.7</ele><time>2021-12-08T13:03:15Z</time><name>PT2273</name></trkpt>
<trkpt lat="53.074994" lon="04.890986"><ele>3.6</ele><time>2021-12-08T13:03:15Z</time><name>PT2274</name></trkpt>
<trkpt lat="53.075004" lon="04.890998"><ele>3.5</ele><time>2021-12-08T13:03:17Z</time><name>PT2275</name></trkpt>
<trkpt lat="53.075013" lon="04.891010"><ele>3.5</ele><time>2021-12-08T13:03:18Z</time><name>PT2276</name></trkpt>
<trkpt lat="53.075021" lon="04.891023"><ele>3.3</ele><time>2021-12-08T13:03:18Z</time><name>PT2277</name></trkpt>
<trkpt lat="53.075030" lon="04.891036"><ele>3.3</ele><time>2021-12-08T13:03:20Z</time><name>PT2278</name></trkpt>
<trkpt lat="53.075040" lon="04.891050"><ele>3.4</ele><time>2021-12-08T13:03:21Z</time><name>PT2279</name></trkpt>
<trkpt lat="53.075049" lon="04.891063"><ele>3.6</ele><time>2021-12-08T13:03:21Z</time><name>PT2280</name></trkpt>
<trkpt lat="53.075058" lon="04.891078"><ele>4</ele><time>2021-12-08T13:03:23Z</time><name>PT2281</name></trkpt>
<trkpt lat="53.075066" lon="04.891092"><ele>4</ele><time>2021-12-08T13:03:24Z</time><name>PT2282</name></trkpt>
<trkpt lat="53.075075" lon="04.891105"><ele>4</ele><time>2021-12-08T13:03:24Z</time><name>PT2283</name></trkpt>
<trkpt lat="53.075086" lon="04.891118"><ele>3.8</ele><time>2021-12-08T13:03:26Z</time><name>PT2284</name></trkpt>
<trkpt lat="53.075096" lon="04.891130"><ele>3.8</ele><time>2021-12-08T13:03:27Z</time><name>PT2285</name></trkpt>
<trkpt lat="53.075107" lon="04.891141"><ele>3.7</ele><time>2021-12-08T13:03:27Z</time><name>PT2286</name></trkpt>
<trkpt lat="53.075116" lon="04.891154"><ele>3.7</ele><time>2021-12-08T13:03:29Z</time><name>PT2287</name></trkpt>
<trkpt lat="53.075124" lon="04.891167"><ele>3.8</ele><time>2021-12-08T13:03:30Z</time><name>PT2288</name></trkpt>
<trkpt lat="53.075133" lon="04.891180"><ele>3.9</ele><time>2021-12-08T13:03:30Z</time><name>PT2289</name></trkpt>
<trkpt lat="53.075141" lon="04.891195"><ele>3.9</ele><time>2021-12-08T13:03:32Z</time><name>PT2290</name></trkpt>
<trkpt lat="53.075150" lon="04.891208"><ele>3.8</ele><time>2021-12-08T13:03:33Z</time><name>PT2291</name></trkpt>
<trkpt lat="53.075159" lon="04.891220"><ele>3.6</ele><time>2021-12-08T13:03:33Z</time><name>PT2292</name></trkpt>
<trkpt lat="53.075169" lon="04.891231"><ele>3.5</ele><time>2021-12-08T13:03:35Z</time><name>PT2293</name></trkpt>
<trkpt lat="53.075179" lon="04.891244"><ele>3.5</ele><time>2021-12-08T13:03:36Z</time><name>PT2294</name></trkpt>
<trkpt lat="53.075188" lon="04.891256"><ele>3.5</ele><time>2021-12-08T13:03:36Z</time><name>PT2295</name></trkpt>
<trkpt lat="53.075197" lon="04.891269"><ele>3.5</ele><time>2021-12-08T13:03:38Z</time><name>PT2296</name></trkpt>
<trkpt lat="53.075205" lon="04.891282"><ele>3.7</ele><time>2021-12-08T13:03:39Z</time><name>PT2297</name></trkpt>
<trkpt lat="53.075215" lon="04.891295"><ele>3.7</ele><time>2021-12-08T13:03:39Z</time><name>PT2298</name></trkpt>
<trkpt lat="53.075224" lon="04.891309"><ele>3.5</ele><time>2021-12-08T13:03:41Z</time><name>PT2299</name></trkpt>
<trkpt lat="53.075233" lon="04.891322"><ele>3.3</ele><time>2021-12-08T13:03:42Z</time><name>PT2300</name></trkpt>
<trkpt lat="53.075241" lon="04.891333"><ele>3.4</ele><time>2021-12-08T13:03:42Z</time><name>PT2301</name></trkpt>
<trkpt lat="53.075249" lon="04.891345"><ele>3.5</ele><time>2021-12-08T13:03:44Z</time><name>PT2302</name></trkpt>
<trkpt lat="53.075258" lon="04.891357"><ele>3.5</ele><time>2021-12-08T13:03:45Z</time><name>PT2303</name></trkpt>
<trkpt lat="53.075268" lon="04.891368"><ele>3.5</ele><time>2021-12-08T13:03:45Z</time><name>PT2304</name></trkpt>
<trkpt lat="53.075277" lon="04.891379"><ele>3.6</ele><time>2021-12-08T13:03:47Z</time><name>PT2305</name></trkpt>
<trkpt lat="53.075286" lon="04.891391"><ele>3.4</ele><time>2021-12-08T13:03:48Z</time><name>PT2306</name></trkpt>
<trkpt lat="53.075295" lon="04.891403"><ele>3.4</ele><time>2021-12-08T13:03:48Z</time><name>PT2307</name></trkpt>
<trkpt lat="53.075303" lon="04.891416"><ele>3.4</ele><time>2021-12-08T13:03:50Z</time><name>PT2308</name></trkpt>
<trkpt lat="53.075311" lon="04.891430"><ele>3.5</ele><time>2021-12-08T13:03:51Z</time><name>PT2309</name></trkpt>
<trkpt lat="53.075321" lon="04.891444"><ele>3.5</ele><time>2021-12-08T13:03:51Z</time><name>PT2310</name></trkpt>
<trkpt lat="53.075330" lon="04.891458"><ele>3.5</ele><time>2021-12-08T13:03:53Z</time><name>PT2311</name></trkpt>
<trkpt lat="53.075339" lon="04.891471"><ele>3.6</ele><time>2021-12-08T13:03:54Z</time><name>PT2312</name></trkpt>
<trkpt lat="53.075347" lon="04.891484"><ele>3.5</ele><time>2021-12-08T13:03:54Z</time><name>PT2313</name></trkpt>
<trkpt lat="53.075356" lon="04.891496"><ele>3.4</ele><time>2021-12-08T13:03:56Z</time><name>PT2314</name></trkpt>
<trkpt lat="53.075367" lon="04.891507"><ele>3.3</ele><time>2021-12-08T13:03:57Z</time><name>PT2315</name></trkpt>
<trkpt lat="53.075377" lon="04.891521"><ele>3.3</ele><time>2021-12-08T13:03:57Z</time><name>PT2316</name></trkpt>
<trkpt lat="53.075387" lon="04.891532"><ele>3.2</ele><time>2021-12-08T13:03:59Z</time><name>PT2317</name></trkpt>
<trkpt lat="53.075395" lon="04.891543"><ele>3.3</ele><time>2021-12-08T13:04:00Z</time><name>PT2318</name></trkpt>
<trkpt lat="53.075404" lon="04.891555"><ele>3.5</ele><time>2021-12-08T13:04:00Z</time><name>PT2319</name></trkpt>
<trkpt lat="53.075413" lon="04.891568"><ele>3.5</ele><time>2021-12-08T13:04:02Z</time><name>PT2320</name></trkpt>
<trkpt lat="53.075423" lon="04.891582"><ele>3.7</ele><time>2021-12-08T13:04:03Z</time><name>PT2321</name></trkpt>
<trkpt lat="53.075433" lon="04.891595"><ele>3.7</ele><time>2021-12-08T13:04:03Z</time><name>PT2322</name></trkpt>
<trkpt lat="53.075443" lon="04.891608"><ele>3.5</ele><time>2021-12-08T13:04:05Z</time><name>PT2323</name></trkpt>
<trkpt lat="53.075453" lon="04.891623"><ele>3.2</ele><time>2021-12-08T13:04:06Z</time><name>PT2324</name></trkpt>
<trkpt lat="53.075462" lon="04.891636"><ele>3</ele><time>2021-12-08T13:04:06Z</time><name>PT2325</name></trkpt>
<trkpt lat="53.075472" lon="04.891648"><ele>2.7</ele><time>2021-12-08T13:04:08Z</time><name>PT2326</name></trkpt>
<trkpt lat="53.075482" lon="04.891661"><ele>2.9</ele><time>2021-12-08T13:04:09Z</time><name>PT2327</name></trkpt>
<trkpt lat="53.075492" lon="04.891675"><ele>3</ele><time>2021-12-08T13:04:09Z</time><name>PT2328</name></trkpt>
<trkpt lat="53.075503" lon="04.891688"><ele>3</ele><time>2021-12-08T13:04:11Z</time><name>PT2329</name></trkpt>
<trkpt lat="53.075513" lon="04.891699"><ele>3.2</ele><time>2021-12-08T13:04:12Z</time><name>PT2330</name></trkpt>
<trkpt lat="53.075523" lon="04.891710"><ele>3.2</ele><time>2021-12-08T13:04:12Z</time><name>PT2331</name></trkpt>
<trkpt lat="53.075532" lon="04.891722"><ele>3</ele><time>2021-12-08T13:04:14Z</time><name>PT2332</name></trkpt>
<trkpt lat="53.075541" lon="04.891736"><ele>3.1</ele><time>2021-12-08T13:04:15Z</time><name>PT2333</name></trkpt>
<trkpt lat="53.075550" lon="04.891750"><ele>3</ele><time>2021-12-08T13:04:15Z</time><name>PT2334</name></trkpt>
<trkpt lat="53.075560" lon="04.891763"><ele>3</ele><time>2021-12-08T13:04:17Z</time><name>PT2335</name></trkpt>
<trkpt lat="53.075569" lon="04.891778"><ele>3.3</ele><time>2021-12-08T13:04:18Z</time><name>PT2336</name></trkpt>
<trkpt lat="53.075578" lon="04.891793"><ele>3.3</ele><time>2021-12-08T13:04:18Z</time><name>PT2337</name></trkpt>
<trkpt lat="53.075588" lon="04.891807"><ele>3.5</ele><time>2021-12-08T13:04:20Z</time><name>PT2338</name></trkpt>
<trkpt lat="53.075597" lon="04.891820"><ele>3.5</ele><time>2021-12-08T13:04:21Z</time><name>PT2339</name></trkpt>
<trkpt lat="53.075606" lon="04.891832"><ele>3.4</ele><time>2021-12-08T13:04:21Z</time><name>PT2340</name></trkpt>
<trkpt lat="53.075616" lon="04.891844"><ele>3.5</ele><time>2021-12-08T13:04:23Z</time><name>PT2341</name></trkpt>
<trkpt lat="53.075626" lon="04.891855"><ele>3.3</ele><time>2021-12-08T13:04:24Z</time><name>PT2342</name></trkpt>
<trkpt lat="53.075636" lon="04.891866"><ele>3.3</ele><time>2021-12-08T13:04:24Z</time><name>PT2343</name></trkpt>
<trkpt lat="53.075645" lon="04.891879"><ele>3.2</ele><time>2021-12-08T13:04:26Z</time><name>PT2344</name></trkpt>
<trkpt lat="53.075654" lon="04.891893"><ele>2.8</ele><time>2021-12-08T13:04:27Z</time><name>PT2345</name></trkpt>
<trkpt lat="53.075663" lon="04.891908"><ele>2.7</ele><time>2021-12-08T13:04:27Z</time><name>PT2346</name></trkpt>
<trkpt lat="53.075674" lon="04.891922"><ele>2.6</ele><time>2021-12-08T13:04:29Z</time><name>PT2347</name></trkpt>
<trkpt lat="53.075683" lon="04.891937"><ele>2.8</ele><time>2021-12-08T13:04:30Z</time><name>PT2348</name></trkpt>
<trkpt lat="53.075693" lon="04.891949"><ele>3</ele><time>2021-12-08T13:04:30Z</time><name>PT2349</name></trkpt>
<trkpt lat="53.075702" lon="04.891962"><ele>3.3</ele><time>2021-12-08T13:04:32Z</time><name>PT2350</name></trkpt>
<trkpt lat="53.075711" lon="04.891975"><ele>3.5</ele><time>2021-12-08T13:04:33Z</time><name>PT2351</name></trkpt>
<trkpt lat="53.075722" lon="04.891988"><ele>3.5</ele><time>2021-12-08T13:04:33Z</time><name>PT2352</name></trkpt>
<trkpt lat="53.075732" lon="04.892000"><ele>3.4</ele><time>2021-12-08T13:04:35Z</time><name>PT2353</name></trkpt>
<trkpt lat="53.075741" lon="04.892011"><ele>3.5</ele><time>2021-12-08T13:04:36Z</time><name>PT2354</name></trkpt>
<trkpt lat="53.075751" lon="04.892024"><ele>3.4</ele><time>2021-12-08T13:04:36Z</time><name>PT2355</name></trkpt>
<trkpt lat="53.075760" lon="04.892038"><ele>3.3</ele><time>2021-12-08T13:04:38Z</time><name>PT2356</name></trkpt>
<trkpt lat="53.075770" lon="04.892053"><ele>3.4</ele><time>2021-12-08T13:04:39Z</time><name>PT2357</name></trkpt>
<trkpt lat="53.075780" lon="04.892068"><ele>3.3</ele><time>2021-12-08T13:04:39Z</time><name>PT2358</name></trkpt>
<trkpt lat="53.075789" lon="04.892082"><ele>3</ele><time>2021-12-08T13:04:41Z</time><name>PT2359</name></trkpt>
<trkpt lat="53.075799" lon="04.892096"><ele>3</ele><time>2021-12-08T13:04:42Z</time><name>PT2360</name></trkpt>
<trkpt lat="53.075809" lon="04.892110"><ele>3.1</ele><time>2021-12-08T13:04:42Z</time><name>PT2361</name></trkpt>
<trkpt lat="53.075820" lon="04.892123"><ele>3.1</ele><time>2021-12-08T13:04:44Z</time><name>PT2362</name></trkpt>
<trkpt lat="53.075830" lon="04.892136"><ele>3.5</ele><time>2021-12-08T13:04:45Z</time><name>PT2363</name></trkpt>
<trkpt lat="53.075841" lon="04.892148"><ele>3.4</ele><time>2021-12-08T13:04:45Z</time><name>PT2364</name></trkpt>
<trkpt lat="53.075851" lon="04.892161"><ele>3.1</ele><time>2021-12-08T13:04:47Z</time><name>PT2365</name></trkpt>
<trkpt lat="53.075860" lon="04.892174"><ele>3</ele><time>2021-12-08T13:04:48Z</time><name>PT2366</name></trkpt>
<trkpt lat="53.075869" lon="04.892187"><ele>3</ele><time>2021-12-08T13:04:48Z</time><name>PT2367</name></trkpt>
<trkpt lat="53.075879" lon="04.892201"><ele>3</ele><time>2021-12-08T13:04:50Z</time><name>PT2368</name></trkpt>
<trkpt lat="53.075889" lon="04.892216"><ele>3.2</ele><time>2021-12-08T13:04:51Z</time><name>PT2369</name></trkpt>
<trkpt lat="53.075898" lon="04.892230"><ele>3.1</ele><time>2021-12-08T13:04:51Z</time><name>PT2370</name></trkpt>
<trkpt lat="53.075907" lon="04.892242"><ele>3.2</ele><time>2021-12-08T13:04:53Z</time><name>PT2371</name></trkpt>
<trkpt lat="53.075917" lon="04.892254"><ele>3.1</ele><time>2021-12-08T13:04:54Z</time><name>PT2372</name></trkpt>
<trkpt lat="53.075927" lon="04.892265"><ele>3.4</ele><time>2021-12-08T13:04:54Z</time><name>PT2373</name></trkpt>
<trkpt lat="53.075937" lon="04.892276"><ele>3.5</ele><time>2021-12-08T13:04:56Z</time><name>PT2374</name></trkpt>
<trkpt lat="53.075947" lon="04.892289"><ele>3.5</ele><time>2021-12-08T13:04:57Z</time><name>PT2375</name></trkpt>
<trkpt lat="53.075955" lon="04.892303"><ele>3.5</ele><time>2021-12-08T13:04:57Z</time><name>PT2376</name></trkpt>
<trkpt lat="53.075963" lon="04.892316"><ele>3.2</ele><time>2021-12-08T13:04:59Z</time><name>PT2377</name></trkpt>
<trkpt lat="53.075970" lon="04.892331"><ele>3.1</ele><time>2021-12-08T13:05:00Z</time><name>PT2378</name></trkpt>
<trkpt lat="53.075979" lon="04.892343"><ele>3</ele><time>2021-12-08T13:05:00Z</time><name>PT2379</name></trkpt>
<trkpt lat="53.075986" lon="04.892356"><ele>3.1</ele><time>2021-12-08T13:05:02Z</time><name>PT2380</name></trkpt>
<trkpt lat="53.075987" lon="04.892358"><ele>2.8</ele><time>2021-12-08T13:05:03Z</time><name>PT2381</name></trkpt>
<trkpt lat="53.075993" lon="04.892365"><ele>2.5</ele><time>2021-12-08T13:05:03Z</time><name>PT2382</name></trkpt>
<trkpt lat="53.076001" lon="04.892375"><ele>2.5</ele><time>2021-12-08T13:05:05Z</time><name>PT2383</name></trkpt>
<trkpt lat="53.076009" lon="04.892388"><ele>2.5</ele><time>2021-12-08T13:05:06Z</time><name>PT2384</name></trkpt>
<trkpt lat="53.076019" lon="04.892400"><ele>2.6</ele><time>2021-12-08T13:05:06Z</time><name>PT2385</name></trkpt>
<trkpt lat="53.076027" lon="04.892413"><ele>3.1</ele><time>2021-12-08T13:05:08Z</time><name>PT2386</name></trkpt>
<trkpt lat="53.076036" lon="04.892426"><ele>2.8</ele><time>2021-12-08T13:05:09Z</time><name>PT2387</name></trkpt>
<trkpt lat="53.076045" lon="04.892438"><ele>2.8</ele><time>2021-12-08T13:05:09Z</time><name>PT2388</name></trkpt>
<trkpt lat="53.076054" lon="04.892451"><ele>2.7</ele><time>2021-12-08T13:05:11Z</time><name>PT2389</name></trkpt>
<trkpt lat="53.076063" lon="04.892465"><ele>2.5</ele><time>2021-12-08T13:05:12Z</time><name>PT2390</name></trkpt>
<trkpt lat="53.076073" lon="04.892479"><ele>2.8</ele><time>2021-12-08T13:05:12Z</time><name>PT2391</name></trkpt>
<trkpt lat="53.076084" lon="04.892491"><ele>3</ele><time>2021-12-08T13:05:14Z</time><name>PT2392</name></trkpt>
<trkpt lat="53.076092" lon="04.892503"><ele>2.9</ele><time>2021-12-08T13:05:15Z</time><name>PT2393</name></trkpt>
<trkpt lat="53.076101" lon="04.892517"><ele>3</ele><time>2021-12-08T13:05:15Z</time><name>PT2394</name></trkpt>
<trkpt lat="53.076111" lon="04.892529"><ele>2.8</ele><time>2021-12-08T13:05:17Z</time><name>PT2395</name></trkpt>
<trkpt lat="53.076121" lon="04.892543"><ele>2.6</ele><time>2021-12-08T13:05:18Z</time><name>PT2396</name></trkpt>
<trkpt lat="53.076131" lon="04.892557"><ele>2.7</ele><time>2021-12-08T13:05:18Z</time><name>PT2397</name></trkpt>
<trkpt lat="53.076141" lon="04.892569"><ele>2.7</ele><time>2021-12-08T13:05:20Z</time><name>PT2398</name></trkpt>
<trkpt lat="53.076151" lon="04.892582"><ele>2.9</ele><time>2021-12-08T13:05:21Z</time><name>PT2399</name></trkpt>
<trkpt lat="53.076160" lon="04.892596"><ele>3</ele><time>2021-12-08T13:05:21Z</time><name>PT2400</name></trkpt>
<trkpt lat="53.076169" lon="04.892609"><ele>3</ele><time>2021-12-08T13:05:23Z</time><name>PT2401</name></trkpt>
<trkpt lat="53.076179" lon="04.892620"><ele>3</ele><time>2021-12-08T13:05:24Z</time><name>PT2402</name></trkpt>
<trkpt lat="53.076188" lon="04.892632"><ele>3</ele><time>2021-12-08T13:05:24Z</time><name>PT2403</name></trkpt>
<trkpt lat="53.076197" lon="04.892643"><ele>3</ele><time>2021-12-08T13:05:26Z</time><name>PT2404</name></trkpt>
<trkpt lat="53.076206" lon="04.892657"><ele>3</ele><time>2021-12-08T13:05:27Z</time><name>PT2405</name></trkpt>
<trkpt lat="53.076215" lon="04.892672"><ele>3.1</ele><time>2021-12-08T13:05:27Z</time><name>PT2406</name></trkpt>
<trkpt lat="53.076224" lon="04.892686"><ele>3</ele><time>2021-12-08T13:05:29Z</time><name>PT2407</name></trkpt>
<trkpt lat="53.076233" lon="04.892697"><ele>2.9</ele><time>2021-12-08T13:05:30Z</time><name>PT2408</name></trkpt>
<trkpt lat="53.076243" lon="04.892709"><ele>3</ele><time>2021-12-08T13:05:30Z</time><name>PT2409</name></trkpt>
<trkpt lat="53.076252" lon="04.892721"><ele>3</ele><time>2021-12-08T13:05:32Z</time><name>PT2410</name></trkpt>
<trkpt lat="53.076262" lon="04.892733"><ele>3</ele><time>2021-12-08T13:05:33Z</time><name>PT2411</name></trkpt>
<trkpt lat="53.076272" lon="04.892745"><ele>2.9</ele><time>2021-12-08T13:05:33Z</time><name>PT2412</name></trkpt>
<trkpt lat="53.076281" lon="04.892757"><ele>3</ele><time>2021-12-08T13:05:35Z</time><name>PT2413</name></trkpt>
<trkpt lat="53.076290" lon="04.892771"><ele>3</ele><time>2021-12-08T13:05:36Z</time><name>PT2414</name></trkpt>
<trkpt lat="53.076299" lon="04.892784"><ele>3</ele><time>2021-12-08T13:05:36Z</time><name>PT2415</name></trkpt>
<trkpt lat="53.076309" lon="04.892797"><ele>3</ele><time>2021-12-08T13:05:38Z</time><name>PT2416</name></trkpt>
<trkpt lat="53.076319" lon="04.892809"><ele>3</ele><time>2021-12-08T13:05:39Z</time><name>PT2417</name></trkpt>
<trkpt lat="53.076328" lon="04.892821"><ele>3</ele><time>2021-12-08T13:05:39Z</time><name>PT2418</name></trkpt>
<trkpt lat="53.076337" lon="04.892836"><ele>3</ele><time>2021-12-08T13:05:41Z</time><name>PT2419</name></trkpt>
<trkpt lat="53.076347" lon="04.892849"><ele>2.6</ele><time>2021-12-08T13:05:42Z</time><name>PT2420</name></trkpt>
<trkpt lat="53.076356" lon="04.892861"><ele>2.6</ele><time>2021-12-08T13:05:42Z</time><name>PT2421</name></trkpt>
<trkpt lat="53.076366" lon="04.892871"><ele>2.4</ele><time>2021-12-08T13:05:44Z</time><name>PT2422</name></trkpt>
<trkpt lat="53.076374" lon="04.892883"><ele>2.4</ele><time>2021-12-08T13:05:45Z</time><name>PT2423</name></trkpt>
<trkpt lat="53.076382" lon="04.892898"><ele>2.4</ele><time>2021-12-08T13:05:45Z</time><name>PT2424</name></trkpt>
<trkpt lat="53.076391" lon="04.892913"><ele>2.5</ele><time>2021-12-08T13:05:47Z</time><name>PT2425</name></trkpt>
<trkpt lat="53.076401" lon="04.892927"><ele>2.5</ele><time>2021-12-08T13:05:48Z</time><name>PT2426</name></trkpt>
<trkpt lat="53.076410" lon="04.892940"><ele>2.8</ele><time>2021-12-08T13:05:48Z</time><name>PT2427</name></trkpt>
<trkpt lat="53.076419" lon="04.892952"><ele>2.9</ele><time>2021-12-08T13:05:50Z</time><name>PT2428</name></trkpt>
<trkpt lat="53.076426" lon="04.892964"><ele>2.9</ele><time>2021-12-08T13:05:51Z</time><name>PT2429</name></trkpt>
<trkpt lat="53.076429" lon="04.892973"><ele>2.7</ele><time>2021-12-08T13:05:51Z</time><name>PT2430</name></trkpt>
<trkpt lat="53.076433" lon="04.892986"><ele>2.6</ele><time>2021-12-08T13:05:53Z</time><name>PT2431</name></trkpt>
<trkpt lat="53.076439" lon="04.893002"><ele>2.7</ele><time>2021-12-08T13:05:54Z</time><name>PT2432</name></trkpt>
<trkpt lat="53.076445" lon="04.893019"><ele>2.9</ele><time>2021-12-08T13:05:54Z</time><name>PT2433</name></trkpt>
<trkpt lat="53.076451" lon="04.893034"><ele>3.3</ele><time>2021-12-08T13:05:56Z</time><name>PT2434</name></trkpt>
<trkpt lat="53.076459" lon="04.893046"><ele>3.6</ele><time>2021-12-08T13:05:57Z</time><name>PT2435</name></trkpt>
<trkpt lat="53.076465" lon="04.893060"><ele>3.9</ele><time>2021-12-08T13:05:57Z</time><name>PT2436</name></trkpt>
<trkpt lat="53.076471" lon="04.893071"><ele>4.2</ele><time>2021-12-08T13:05:59Z</time><name>PT2437</name></trkpt>
<trkpt lat="53.076480" lon="04.893083"><ele>4.2</ele><time>2021-12-08T13:06:00Z</time><name>PT2438</name></trkpt>
<trkpt lat="53.076488" lon="04.893097"><ele>4.3</ele><time>2021-12-08T13:06:00Z</time><name>PT2439</name></trkpt>
<trkpt lat="53.076496" lon="04.893111"><ele>4</ele><time>2021-12-08T13:06:02Z</time><name>PT2440</name></trkpt>
<trkpt lat="53.076503" lon="04.893124"><ele>3.5</ele><time>2021-12-08T13:06:03Z</time><name>PT2441</name></trkpt>
<trkpt lat="53.076511" lon="04.893130"><ele>3.5</ele><time>2021-12-08T13:06:03Z</time><name>PT2442</name></trkpt>
<trkpt lat="53.076516" lon="04.893132"><ele>3.1</ele><time>2021-12-08T13:06:05Z</time><name>PT2443</name></trkpt>
<trkpt lat="53.076524" lon="04.893130"><ele>3</ele><time>2021-12-08T13:06:06Z</time><name>PT2444</name></trkpt>
<trkpt lat="53.076533" lon="04.893134"><ele>3.1</ele><time>2021-12-08T13:06:06Z</time><name>PT2445</name></trkpt>
<trkpt lat="53.076544" lon="04.893143"><ele>2.7</ele><time>2021-12-08T13:06:08Z</time><name>PT2446</name></trkpt>
<trkpt lat="53.076554" lon="04.893153"><ele>2.8</ele><time>2021-12-08T13:06:09Z</time><name>PT2447</name></trkpt>
<trkpt lat="53.076564" lon="04.893162"><ele>3</ele><time>2021-12-08T13:06:09Z</time><name>PT2448</name></trkpt>
<trkpt lat="53.076572" lon="04.893174"><ele>3</ele><time>2021-12-08T13:06:11Z</time><name>PT2449</name></trkpt>
<trkpt lat="53.076574" lon="04.893184"><ele>2.9</ele><time>2021-12-08T13:06:12Z</time><name>PT2450</name></trkpt>
<trkpt lat="53.076577" lon="04.893196"><ele>2.8</ele><time>2021-12-08T13:06:12Z</time><name>PT2451</name></trkpt>
<trkpt lat="53.076582" lon="04.893211"><ele>2.6</ele><time>2021-12-08T13:06:14Z</time><name>PT2452</name></trkpt>
<trkpt lat="53.076587" lon="04.893227"><ele>2.7</ele><time>2021-12-08T13:06:15Z</time><name>PT2453</name></trkpt>
<trkpt lat="53.076593" lon="04.893243"><ele>2.8</ele><time>2021-12-08T13:06:15Z</time><name>PT2454</name></trkpt>
<trkpt lat="53.076595" lon="04.893250"><ele>3</ele><time>2021-12-08T13:06:17Z</time><name>PT2455</name></trkpt>
<trkpt lat="53.076599" lon="04.893255"><ele>2.2</ele><time>2021-12-08T13:06:18Z</time><name>PT2456</name></trkpt>
<trkpt lat="53.076604" lon="04.893266"><ele>2.4</ele><time>2021-12-08T13:06:18Z</time><name>PT2457</name></trkpt>
<trkpt lat="53.076611" lon="04.893281"><ele>2.4</ele><time>2021-12-08T13:06:20Z</time><name>PT2458</name></trkpt>
<trkpt lat="53.076618" lon="04.893295"><ele>3</ele><time>2021-12-08T13:06:21Z</time><name>PT2459</name></trkpt>
<trkpt lat="53.076624" lon="04.893309"><ele>3.7</ele><time>2021-12-08T13:06:21Z</time><name>PT2460</name></trkpt>
<trkpt lat="53.076629" lon="04.893322"><ele>3.7</ele><time>2021-12-08T13:06:23Z</time><name>PT2461</name></trkpt>
<trkpt lat="53.076636" lon="04.893335"><ele>3.7</ele><time>2021-12-08T13:06:24Z</time><name>PT2462</name></trkpt>
<trkpt lat="53.076643" lon="04.893347"><ele>3.6</ele><time>2021-12-08T13:06:24Z</time><name>PT2463</name></trkpt>
<trkpt lat="53.076649" lon="04.893358"><ele>3.5</ele><time>2021-12-08T13:06:26Z</time><name>PT2464</name></trkpt>
<trkpt lat="53.076654" lon="04.893369"><ele>3.4</ele><time>2021-12-08T13:06:27Z</time><name>PT2465</name></trkpt>
<trkpt lat="53.076657" lon="04.893376"><ele>3.5</ele><time>2021-12-08T13:06:27Z</time><name>PT2466</name></trkpt>
<trkpt lat="53.076660" lon="04.893379"><ele>4</ele><time>2021-12-08T13:06:29Z</time><name>PT2467</name></trkpt>
<trkpt lat="53.076660" lon="04.893378"><ele>4.2</ele><time>2021-12-08T13:06:30Z</time><name>PT2468</name></trkpt>
<trkpt lat="53.076661" lon="04.893378"><ele>4.4</ele><time>2021-12-08T13:06:30Z</time><name>PT2469</name></trkpt>
<trkpt lat="53.076661" lon="04.893378"><ele>4.5</ele><time>2021-12-08T13:06:32Z</time><name>PT2470</name></trkpt>
<trkpt lat="53.076663" lon="04.893382"><ele>4.6</ele><time>2021-12-08T13:07:03Z</time><name>PT2471</name></trkpt>
<trkpt lat="53.076672" lon="04.893394"><ele>4.3</ele><time>2021-12-08T13:07:03Z</time><name>PT2472</name></trkpt>
<trkpt lat="53.076680" lon="04.893407"><ele>3.6</ele><time>2021-12-08T13:07:05Z</time><name>PT2473</name></trkpt>
<trkpt lat="53.076687" lon="04.893421"><ele>3.6</ele><time>2021-12-08T13:07:06Z</time><name>PT2474</name></trkpt>
<trkpt lat="53.076695" lon="04.893435"><ele>3.5</ele><time>2021-12-08T13:07:06Z</time><name>PT2475</name></trkpt>
<trkpt lat="53.076702" lon="04.893449"><ele>3.4</ele><time>2021-12-08T13:07:08Z</time><name>PT2476</name></trkpt>
<trkpt lat="53.076710" lon="04.893462"><ele>3.4</ele><time>2021-12-08T13:07:09Z</time><name>PT2477</name></trkpt>
<trkpt lat="53.076718" lon="04.893476"><ele>3.3</ele><time>2021-12-08T13:07:09Z</time><name>PT2478</name></trkpt>
<trkpt lat="53.076726" lon="04.893490"><ele>3.1</ele><time>2021-12-08T13:07:11Z</time><name>PT2479</name></trkpt>
<trkpt lat="53.076733" lon="04.893502"><ele>2.9</ele><time>2021-12-08T13:07:12Z</time><name>PT2480</name></trkpt>
<trkpt lat="53.076739" lon="04.893517"><ele>2.7</ele><time>2021-12-08T13:07:12Z</time><name>PT2481</name></trkpt>
<trkpt lat="53.076746" lon="04.893533"><ele>2.6</ele><time>2021-12-08T13:07:14Z</time><name>PT2482</name></trkpt>
<trkpt lat="53.076751" lon="04.893550"><ele>2.8</ele><time>2021-12-08T13:07:15Z</time><name>PT2483</name></trkpt>
<trkpt lat="53.076757" lon="04.893567"><ele>2.8</ele><time>2021-12-08T13:07:15Z</time><name>PT2484</name></trkpt>
<trkpt lat="53.076763" lon="04.893583"><ele>2.5</ele><time>2021-12-08T13:07:17Z</time><name>PT2485</name></trkpt>
<trkpt lat="53.076768" lon="04.893599"><ele>2.3</ele><time>2021-12-08T13:07:18Z</time><name>PT2486</name></trkpt>
<trkpt lat="53.076774" lon="04.893617"><ele>2</ele><time>2021-12-08T13:07:18Z</time><name>PT2487</name></trkpt>
<trkpt lat="53.076780" lon="04.893634"><ele>1.8</ele><time>2021-12-08T13:07:20Z</time><name>PT2488</name></trkpt>
<trkpt lat="53.076787" lon="04.893650"><ele>1.7</ele><time>2021-12-08T13:07:21Z</time><name>PT2489</name></trkpt>
<trkpt lat="53.076794" lon="04.893667"><ele>1.7</ele><time>2021-12-08T13:07:21Z</time><name>PT2490</name></trkpt>
<trkpt lat="53.076801" lon="04.893682"><ele>1.4</ele><time>2021-12-08T13:07:23Z</time><name>PT2491</name></trkpt>
<trkpt lat="53.076807" lon="04.893697"><ele>1.2</ele><time>2021-12-08T13:07:24Z</time><name>PT2492</name></trkpt>
<trkpt lat="53.076813" lon="04.893711"><ele>1.1</ele><time>2021-12-08T13:07:24Z</time><name>PT2493</name></trkpt>
<trkpt lat="53.076819" lon="04.893727"><ele>0.7</ele><time>2021-12-08T13:07:26Z</time><name>PT2494</name></trkpt>
<trkpt lat="53.076825" lon="04.893744"><ele>0.6</ele><time>2021-12-08T13:07:27Z</time><name>PT2495</name></trkpt>
<trkpt lat="53.076831" lon="04.893760"><ele>0.5</ele><time>2021-12-08T13:07:27Z</time><name>PT2496</name></trkpt>
<trkpt lat="53.076835" lon="04.893776"><ele>0.5</ele><time>2021-12-08T13:07:29Z</time><name>PT2497</name></trkpt>
<trkpt lat="53.076840" lon="04.893792"><ele>0.5</ele><time>2021-12-08T13:07:30Z</time><name>PT2498</name></trkpt>
<trkpt lat="53.076844" lon="04.893809"><ele>0.4</ele><time>2021-12-08T13:07:30Z</time><name>PT2499</name></trkpt>
<trkpt lat="53.076848" lon="04.893828"><ele>0.5</ele><time>2021-12-08T13:07:32Z</time><name>PT2500</name></trkpt>
<trkpt lat="53.076854" lon="04.893840"><ele>0.3</ele><time>2021-12-08T13:07:33Z</time><name>PT2501</name></trkpt>
<trkpt lat="53.076858" lon="04.893854"><ele>0.3</ele><time>2021-12-08T13:07:33Z</time><name>PT2502</name></trkpt>
<trkpt lat="53.076863" lon="04.893870"><ele>0.1</ele><time>2021-12-08T13:07:35Z</time><name>PT2503</name></trkpt>
<trkpt lat="53.076868" lon="04.893887"><ele>0</ele><time>2021-12-08T13:07:36Z</time><name>PT2504</name></trkpt>
<trkpt lat="53.076872" lon="04.893903"><ele>0.1</ele><time>2021-12-08T13:07:36Z</time><name>PT2505</name></trkpt>
<trkpt lat="53.076876" lon="04.893919"><ele>0.2</ele><time>2021-12-08T13:07:38Z</time><name>PT2506</name></trkpt>
<trkpt lat="53.076879" lon="04.893935"><ele>0</ele><time>2021-12-08T13:07:39Z</time><name>PT2507</name></trkpt>
<trkpt lat="53.076883" lon="04.893951"><ele>0.2</ele><time>2021-12-08T13:07:39Z</time><name>PT2508</name></trkpt>
<trkpt lat="53.076887" lon="04.893965"><ele>0.2</ele><time>2021-12-08T13:07:41Z</time><name>PT2509</name></trkpt>
<trkpt lat="53.076888" lon="04.893979"><ele>0.2</ele><time>2021-12-08T13:07:42Z</time><name>PT2510</name></trkpt>
<trkpt lat="53.076887" lon="04.893991"><ele>0.2</ele><time>2021-12-08T13:07:42Z</time><name>PT2511</name></trkpt>
<trkpt lat="53.076886" lon="04.894002"><ele>0.2</ele><time>2021-12-08T13:07:44Z</time><name>PT2512</name></trkpt>
<trkpt lat="53.076887" lon="04.894013"><ele>0</ele><time>2021-12-08T13:07:45Z</time><name>PT2513</name></trkpt>
<trkpt lat="53.076886" lon="04.894024"><ele>0.2</ele><time>2021-12-08T13:07:45Z</time><name>PT2514</name></trkpt>
<trkpt lat="53.076885" lon="04.894033"><ele>0</ele><time>2021-12-08T13:07:47Z</time><name>PT2515</name></trkpt>
<trkpt lat="53.076882" lon="04.894039"><ele>0</ele><time>2021-12-08T13:07:48Z</time><name>PT2516</name></trkpt>
<trkpt lat="53.076881" lon="04.894045"><ele>0</ele><time>2021-12-08T13:07:48Z</time><name>PT2517</name></trkpt>
<trkpt lat="53.076879" lon="04.894050"><ele>0.2</ele><time>2021-12-08T13:07:50Z</time><name>PT2518</name></trkpt>
<trkpt lat="53.076877" lon="04.894055"><ele>0.2</ele><time>2021-12-08T13:07:51Z</time><name>PT2519</name></trkpt>
<trkpt lat="53.076876" lon="04.894059"><ele>0.1</ele><time>2021-12-08T13:07:51Z</time><name>PT2520</name></trkpt>
<trkpt lat="53.076876" lon="04.894060"><ele>0</ele><time>2021-12-08T13:07:53Z</time><name>PT2521</name></trkpt>
<trkpt lat="53.076876" lon="04.894059"><ele>0.1</ele><time>2021-12-08T13:07:54Z</time><name>PT2522</name></trkpt>
<trkpt lat="53.076877" lon="04.894059"><ele>0.8</ele><time>2021-12-08T13:08:18Z</time><name>PT2523</name></trkpt>
<trkpt lat="53.076881" lon="04.894057"><ele>0.8</ele><time>2021-12-08T13:08:18Z</time><name>PT2524</name></trkpt>
<trkpt lat="53.076885" lon="04.894053"><ele>-1</ele><time>2021-12-08T13:08:20Z</time><name>PT2525</name></trkpt>
<trkpt lat="53.076888" lon="04.894049"><ele>0.9</ele><time>2021-12-08T13:08:21Z</time><name>PT2526</name></trkpt>
<trkpt lat="53.076888" lon="04.894049"><ele>0.8</ele><time>2021-12-08T13:08:21Z</time><name>PT2527</name></trkpt>
<trkpt lat="53.076888" lon="04.894049"><ele>0.5</ele><time>2021-12-08T13:08:23Z</time><name>PT2528</name></trkpt>
<trkpt lat="53.076888" lon="04.894049"><ele>0.1</ele><time>2021-12-08T13:08:24Z</time><name>PT2529</name></trkpt>
<trkpt lat="53.076891" lon="04.894039"><ele>0.7</ele><time>2021-12-08T13:08:36Z</time><name>PT2530</name></trkpt>
<trkpt lat="53.076889" lon="04.894038"><ele>0.3</ele><time>2021-12-08T13:08:38Z</time><name>PT2531</name></trkpt>
<trkpt lat="53.076892" lon="04.894032"><ele>0</ele><time>2021-12-08T13:08:39Z</time><name>PT2532</name></trkpt>
<trkpt lat="53.076890" lon="04.894031"><ele>-1.2</ele><time>2021-12-08T13:08:47Z</time><name>PT2533</name></trkpt>
<trkpt lat="53.076891" lon="04.894030"><ele>-1.1</ele><time>2021-12-08T13:08:48Z</time><name>PT2534</name></trkpt>
<trkpt lat="53.076894" lon="04.894029"><ele>0.7</ele><time>2021-12-08T13:08:48Z</time><name>PT2535</name></trkpt>
<trkpt lat="53.076898" lon="04.894029"><ele>0.6</ele><time>2021-12-08T13:08:50Z</time><name>PT2536</name></trkpt>
<trkpt lat="53.076898" lon="04.894028"><ele>0.6</ele><time>2021-12-08T13:08:51Z</time><name>PT2537</name></trkpt>
<trkpt lat="53.076898" lon="04.894028"><ele>0.4</ele><time>2021-12-08T13:08:51Z</time><name>PT2538</name></trkpt>
<trkpt lat="53.076903" lon="04.894024"><ele>0.3</ele><time>2021-12-08T13:09:24Z</time><name>PT2539</name></trkpt>
<trkpt lat="53.076912" lon="04.894025"><ele>0.4</ele><time>2021-12-08T13:09:24Z</time><name>PT2540</name></trkpt>
<trkpt lat="53.076923" lon="04.894022"><ele>0.4</ele><time>2021-12-08T13:09:26Z</time><name>PT2541</name></trkpt>
<trkpt lat="53.076933" lon="04.894021"><ele>0.7</ele><time>2021-12-08T13:09:27Z</time><name>PT2542</name></trkpt>
<trkpt lat="53.076944" lon="04.894024"><ele>1.1</ele><time>2021-12-08T13:09:27Z</time><name>PT2543</name></trkpt>
<trkpt lat="53.076954" lon="04.894026"><ele>1.5</ele><time>2021-12-08T13:09:29Z</time><name>PT2544</name></trkpt>
<trkpt lat="53.076965" lon="04.894031"><ele>1.4</ele><time>2021-12-08T13:09:30Z</time><name>PT2545</name></trkpt>
<trkpt lat="53.076975" lon="04.894034"><ele>1.2</ele><time>2021-12-08T13:09:30Z</time><name>PT2546</name></trkpt>
<trkpt lat="53.076985" lon="04.894036"><ele>0.8</ele><time>2021-12-08T13:09:32Z</time><name>PT2547</name></trkpt>
<trkpt lat="53.076996" lon="04.894036"><ele>0.4</ele><time>2021-12-08T13:09:33Z</time><name>PT2548</name></trkpt>
<trkpt lat="53.077006" lon="04.894037"><ele>0.4</ele><time>2021-12-08T13:09:33Z</time><name>PT2549</name></trkpt>
<trkpt lat="53.077016" lon="04.894042"><ele>0.7</ele><time>2021-12-08T13:09:35Z</time><name>PT2550</name></trkpt>
<trkpt lat="53.077026" lon="04.894046"><ele>0.7</ele><time>2021-12-08T13:09:36Z</time><name>PT2551</name></trkpt>
<trkpt lat="53.077036" lon="04.894052"><ele>0.8</ele><time>2021-12-08T13:09:36Z</time><name>PT2552</name></trkpt>
<trkpt lat="53.077047" lon="04.894057"><ele>0.8</ele><time>2021-12-08T13:09:38Z</time><name>PT2553</name></trkpt>
<trkpt lat="53.077057" lon="04.894060"><ele>0.8</ele><time>2021-12-08T13:09:39Z</time><name>PT2554</name></trkpt>
<trkpt lat="53.077067" lon="04.894062"><ele>1.1</ele><time>2021-12-08T13:09:39Z</time><name>PT2555</name></trkpt>
<trkpt lat="53.077076" lon="04.894061"><ele>1.1</ele><time>2021-12-08T13:09:41Z</time><name>PT2556</name></trkpt>
<trkpt lat="53.077084" lon="04.894061"><ele>0.9</ele><time>2021-12-08T13:09:42Z</time><name>PT2557</name></trkpt>
<trkpt lat="53.077092" lon="04.894061"><ele>0.8</ele><time>2021-12-08T13:09:42Z</time><name>PT2558</name></trkpt>
<trkpt lat="53.077099" lon="04.894058"><ele>0.8</ele><time>2021-12-08T13:09:44Z</time><name>PT2559</name></trkpt>
<trkpt lat="53.077104" lon="04.894056"><ele>0.8</ele><time>2021-12-08T13:09:45Z</time><name>PT2560</name></trkpt>
<trkpt lat="53.077108" lon="04.894056"><ele>0.8</ele><time>2021-12-08T13:09:45Z</time><name>PT2561</name></trkpt>
<trkpt lat="53.077113" lon="04.894054"><ele>1</ele><time>2021-12-08T13:09:47Z</time><name>PT2562</name></trkpt>
<trkpt lat="53.077117" lon="04.894050"><ele>1.2</ele><time>2021-12-08T13:09:48Z</time><name>PT2563</name></trkpt>
<trkpt lat="53.077123" lon="04.894049"><ele>1.2</ele><time>2021-12-08T13:09:48Z</time><name>PT2564</name></trkpt>
<trkpt lat="53.077129" lon="04.894048"><ele>1.4</ele><time>2021-12-08T13:09:50Z</time><name>PT2565</name></trkpt>
<trkpt lat="53.077137" lon="04.894045"><ele>1.6</ele><time>2021-12-08T13:09:51Z</time><name>PT2566</name></trkpt>
<trkpt lat="53.077146" lon="04.894043"><ele>1.7</ele><time>2021-12-08T13:09:51Z</time><name>PT2567</name></trkpt>
<trkpt lat="53.077156" lon="04.894042"><ele>2</ele><time>2021-12-08T13:09:53Z</time><name>PT2568</name></trkpt>
<trkpt lat="53.077164" lon="04.894045"><ele>2.3</ele><time>2021-12-08T13:09:54Z</time><name>PT2569</name></trkpt>
<trkpt lat="53.077173" lon="04.894052"><ele>2.3</ele><time>2021-12-08T13:09:54Z</time><name>PT2570</name></trkpt>
<trkpt lat="53.077181" lon="04.894062"><ele>2.4</ele><time>2021-12-08T13:09:56Z</time><name>PT2571</name></trkpt>
<trkpt lat="53.077192" lon="04.894070"><ele>2.6</ele><time>2021-12-08T13:09:57Z</time><name>PT2572</name></trkpt>
<trkpt lat="53.077202" lon="04.894077"><ele>2.6</ele><time>2021-12-08T13:09:57Z</time><name>PT2573</name></trkpt>
<trkpt lat="53.077212" lon="04.894085"><ele>2.7</ele><time>2021-12-08T13:09:59Z</time><name>PT2574</name></trkpt>
<trkpt lat="53.077223" lon="04.894093"><ele>2.5</ele><time>2021-12-08T13:10:00Z</time><name>PT2575</name></trkpt>
<trkpt lat="53.077232" lon="04.894102"><ele>2.7</ele><time>2021-12-08T13:10:00Z</time><name>PT2576</name></trkpt>
<trkpt lat="53.077242" lon="04.894111"><ele>2.7</ele><time>2021-12-08T13:10:02Z</time><name>PT2577</name></trkpt>
<trkpt lat="53.077249" lon="04.894123"><ele>3</ele><time>2021-12-08T13:10:03Z</time><name>PT2578</name></trkpt>
<trkpt lat="53.077258" lon="04.894134"><ele>3</ele><time>2021-12-08T13:10:03Z</time><name>PT2579</name></trkpt>
<trkpt lat="53.077267" lon="04.894146"><ele>2.7</ele><time>2021-12-08T13:10:05Z</time><name>PT2580</name></trkpt>
<trkpt lat="53.077276" lon="04.894154"><ele>2.5</ele><time>2021-12-08T13:10:06Z</time><name>PT2581</name></trkpt>
<trkpt lat="53.077287" lon="04.894161"><ele>2.2</ele><time>2021-12-08T13:10:06Z</time><name>PT2582</name></trkpt>
<trkpt lat="53.077296" lon="04.894167"><ele>2.2</ele><time>2021-12-08T13:10:08Z</time><name>PT2583</name></trkpt>
<trkpt lat="53.077305" lon="04.894177"><ele>2.1</ele><time>2021-12-08T13:10:09Z</time><name>PT2584</name></trkpt>
<trkpt lat="53.077313" lon="04.894189"><ele>2.1</ele><time>2021-12-08T13:10:09Z</time><name>PT2585</name></trkpt>
<trkpt lat="53.077321" lon="04.894201"><ele>2.1</ele><time>2021-12-08T13:10:11Z</time><name>PT2586</name></trkpt>
<trkpt lat="53.077331" lon="04.894213"><ele>1.9</ele><time>2021-12-08T13:10:12Z</time><name>PT2587</name></trkpt>
<trkpt lat="53.077340" lon="04.894224"><ele>1.9</ele><time>2021-12-08T13:10:12Z</time><name>PT2588</name></trkpt>
<trkpt lat="53.077350" lon="04.894236"><ele>1.9</ele><time>2021-12-08T13:10:14Z</time><name>PT2589</name></trkpt>
<trkpt lat="53.077359" lon="04.894247"><ele>1.9</ele><time>2021-12-08T13:10:15Z</time><name>PT2590</name></trkpt>
<trkpt lat="53.077368" lon="04.894257"><ele>2.2</ele><time>2021-12-08T13:10:15Z</time><name>PT2591</name></trkpt>
<trkpt lat="53.077378" lon="04.894269"><ele>2.1</ele><time>2021-12-08T13:10:17Z</time><name>PT2592</name></trkpt>
<trkpt lat="53.077386" lon="04.894282"><ele>2.2</ele><time>2021-12-08T13:10:18Z</time><name>PT2593</name></trkpt>
<trkpt lat="53.077395" lon="04.894296"><ele>2.3</ele><time>2021-12-08T13:10:18Z</time><name>PT2594</name></trkpt>
<trkpt lat="53.077404" lon="04.894310"><ele>1.9</ele><time>2021-12-08T13:10:20Z</time><name>PT2595</name></trkpt>
<trkpt lat="53.077413" lon="04.894325"><ele>2</ele><time>2021-12-08T13:10:21Z</time><name>PT2596</name></trkpt>
<trkpt lat="53.077422" lon="04.894339"><ele>1.8</ele><time>2021-12-08T13:10:21Z</time><name>PT2597</name></trkpt>
<trkpt lat="53.077433" lon="04.894353"><ele>1.9</ele><time>2021-12-08T13:10:23Z</time><name>PT2598</name></trkpt>
<trkpt lat="53.077444" lon="04.894367"><ele>2.2</ele><time>2021-12-08T13:10:24Z</time><name>PT2599</name></trkpt>
<trkpt lat="53.077454" lon="04.894382"><ele>2.3</ele><time>2021-12-08T13:10:24Z</time><name>PT2600</name></trkpt>
<trkpt lat="53.077465" lon="04.894395"><ele>2.6</ele><time>2021-12-08T13:10:26Z</time><name>PT2601</name></trkpt>
<trkpt lat="53.077476" lon="04.894408"><ele>2.7</ele><time>2021-12-08T13:10:27Z</time><name>PT2602</name></trkpt>
<trkpt lat="53.077486" lon="04.894420"><ele>2.8</ele><time>2021-12-08T13:10:27Z</time><name>PT2603</name></trkpt>
<trkpt lat="53.077496" lon="04.894433"><ele>2.9</ele><time>2021-12-08T13:10:29Z</time><name>PT2604</name></trkpt>
<trkpt lat="53.077506" lon="04.894446"><ele>2.8</ele><time>2021-12-08T13:10:30Z</time><name>PT2605</name></trkpt>
<trkpt lat="53.077517" lon="04.894459"><ele>2.7</ele><time>2021-12-08T13:10:30Z</time><name>PT2606</name></trkpt>
<trkpt lat="53.077526" lon="04.894472"><ele>2.6</ele><time>2021-12-08T13:10:32Z</time><name>PT2607</name></trkpt>
<trkpt lat="53.077535" lon="04.894487"><ele>2.4</ele><time>2021-12-08T13:10:33Z</time><name>PT2608</name></trkpt>
<trkpt lat="53.077544" lon="04.894501"><ele>2.4</ele><time>2021-12-08T13:10:33Z</time><name>PT2609</name></trkpt>
<trkpt lat="53.077554" lon="04.894513"><ele>2.2</ele><time>2021-12-08T13:10:35Z</time><name>PT2610</name></trkpt>
<trkpt lat="53.077563" lon="04.894525"><ele>2.3</ele><time>2021-12-08T13:10:36Z</time><name>PT2611</name></trkpt>
<trkpt lat="53.077573" lon="04.894539"><ele>2.4</ele><time>2021-12-08T13:10:36Z</time><name>PT2612</name></trkpt>
<trkpt lat="53.077583" lon="04.894553"><ele>2.2</ele><time>2021-12-08T13:10:38Z</time><name>PT2613</name></trkpt>
<trkpt lat="53.077593" lon="04.894565"><ele>2.2</ele><time>2021-12-08T13:10:39Z</time><name>PT2614</name></trkpt>
<trkpt lat="53.077602" lon="04.894576"><ele>2.1</ele><time>2021-12-08T13:10:39Z</time><name>PT2615</name></trkpt>
<trkpt lat="53.077610" lon="04.894587"><ele>1.9</ele><time>2021-12-08T13:10:41Z</time><name>PT2616</name></trkpt>
<trkpt lat="53.077618" lon="04.894600"><ele>1.9</ele><time>2021-12-08T13:10:42Z</time><name>PT2617</name></trkpt>
<trkpt lat="53.077625" lon="04.894613"><ele>1.9</ele><time>2021-12-08T13:10:42Z</time><name>PT2618</name></trkpt>
<trkpt lat="53.077633" lon="04.894626"><ele>1.7</ele><time>2021-12-08T13:10:44Z</time><name>PT2619</name></trkpt>
<trkpt lat="53.077643" lon="04.894639"><ele>1.9</ele><time>2021-12-08T13:10:45Z</time><name>PT2620</name></trkpt>
<trkpt lat="53.077648" lon="04.894649"><ele>1.9</ele><time>2021-12-08T13:10:45Z</time><name>PT2621</name></trkpt>
<trkpt lat="53.077655" lon="04.894661"><ele>1.9</ele><time>2021-12-08T13:10:47Z</time><name>PT2622</name></trkpt>
<trkpt lat="53.077663" lon="04.894674"><ele>1.9</ele><time>2021-12-08T13:10:48Z</time><name>PT2623</name></trkpt>
<trkpt lat="53.077672" lon="04.894689"><ele>1.8</ele><time>2021-12-08T13:10:48Z</time><name>PT2624</name></trkpt>
<trkpt lat="53.077682" lon="04.894705"><ele>1.7</ele><time>2021-12-08T13:10:50Z</time><name>PT2625</name></trkpt>
<trkpt lat="53.077692" lon="04.894718"><ele>1.9</ele><time>2021-12-08T13:10:51Z</time><name>PT2626</name></trkpt>
<trkpt lat="53.077702" lon="04.894731"><ele>1.9</ele><time>2021-12-08T13:10:51Z</time><name>PT2627</name></trkpt>
<trkpt lat="53.077712" lon="04.894744"><ele>1.9</ele><time>2021-12-08T13:10:53Z</time><name>PT2628</name></trkpt>
<trkpt lat="53.077720" lon="04.894758"><ele>1.9</ele><time>2021-12-08T13:10:54Z</time><name>PT2629</name></trkpt>
<trkpt lat="53.077729" lon="04.894775"><ele>2.1</ele><time>2021-12-08T13:10:54Z</time><name>PT2630</name></trkpt>
<trkpt lat="53.077738" lon="04.894792"><ele>1.9</ele><time>2021-12-08T13:10:56Z</time><name>PT2631</name></trkpt>
<trkpt lat="53.077746" lon="04.894809"><ele>1.9</ele><time>2021-12-08T13:10:57Z</time><name>PT2632</name></trkpt>
<trkpt lat="53.077754" lon="04.894824"><ele>1.8</ele><time>2021-12-08T13:10:57Z</time><name>PT2633</name></trkpt>
<trkpt lat="53.077764" lon="04.894837"><ele>1.8</ele><time>2021-12-08T13:10:59Z</time><name>PT2634</name></trkpt>
<trkpt lat="53.077774" lon="04.894851"><ele>1.5</ele><time>2021-12-08T13:11:00Z</time><name>PT2635</name></trkpt>
<trkpt lat="53.077784" lon="04.894864"><ele>1.6</ele><time>2021-12-08T13:11:00Z</time><name>PT2636</name></trkpt>
<trkpt lat="53.077794" lon="04.894876"><ele>1.7</ele><time>2021-12-08T13:11:02Z</time><name>PT2637</name></trkpt>
<trkpt lat="53.077804" lon="04.894889"><ele>1.8</ele><time>2021-12-08T13:11:03Z</time><name>PT2638</name></trkpt>
<trkpt lat="53.077813" lon="04.894902"><ele>1.9</ele><time>2021-12-08T13:11:03Z</time><name>PT2639</name></trkpt>
<trkpt lat="53.077822" lon="04.894916"><ele>2.2</ele><time>2021-12-08T13:11:05Z</time><name>PT2640</name></trkpt>
<trkpt lat="53.077831" lon="04.894930"><ele>2.2</ele><time>2021-12-08T13:11:06Z</time><name>PT2641</name></trkpt>
<trkpt lat="53.077840" lon="04.894943"><ele>2.1</ele><time>2021-12-08T13:11:06Z</time><name>PT2642</name></trkpt>
<trkpt lat="53.077849" lon="04.894956"><ele>2.2</ele><time>2021-12-08T13:11:08Z</time><name>PT2643</name></trkpt>
<trkpt lat="53.077858" lon="04.894968"><ele>2.2</ele><time>2021-12-08T13:11:09Z</time><name>PT2644</name></trkpt>
<trkpt lat="53.077867" lon="04.894980"><ele>2</ele><time>2021-12-08T13:11:09Z</time><name>PT2645</name></trkpt>
<trkpt lat="53.077876" lon="04.894995"><ele>2.1</ele><time>2021-12-08T13:11:11Z</time><name>PT2646</name></trkpt>
<trkpt lat="53.077887" lon="04.895007"><ele>1.8</ele><time>2021-12-08T13:11:12Z</time><name>PT2647</name></trkpt>
<trkpt lat="53.077896" lon="04.895021"><ele>1.5</ele><time>2021-12-08T13:11:12Z</time><name>PT2648</name></trkpt>
<trkpt lat="53.077902" lon="04.895038"><ele>1.4</ele><time>2021-12-08T13:11:14Z</time><name>PT2649</name></trkpt>
<trkpt lat="53.077908" lon="04.895055"><ele>1.2</ele><time>2021-12-08T13:11:15Z</time><name>PT2650</name></trkpt>
<trkpt lat="53.077914" lon="04.895072"><ele>1.3</ele><time>2021-12-08T13:11:15Z</time><name>PT2651</name></trkpt>
<trkpt lat="53.077921" lon="04.895089"><ele>1.2</ele><time>2021-12-08T13:11:17Z</time><name>PT2652</name></trkpt>
<trkpt lat="53.077926" lon="04.895105"><ele>1.4</ele><time>2021-12-08T13:11:18Z</time><name>PT2653</name></trkpt>
<trkpt lat="53.077933" lon="04.895118"><ele>1.4</ele><time>2021-12-08T13:11:18Z</time><name>PT2654</name></trkpt>
<trkpt lat="53.077942" lon="04.895130"><ele>1.6</ele><time>2021-12-08T13:11:20Z</time><name>PT2655</name></trkpt>
<trkpt lat="53.077950" lon="04.895143"><ele>1.9</ele><time>2021-12-08T13:11:21Z</time><name>PT2656</name></trkpt>
<trkpt lat="53.077958" lon="04.895156"><ele>2</ele><time>2021-12-08T13:11:21Z</time><name>PT2657</name></trkpt>
<trkpt lat="53.077965" lon="04.895168"><ele>2</ele><time>2021-12-08T13:11:23Z</time><name>PT2658</name></trkpt>
<trkpt lat="53.077972" lon="04.895180"><ele>1.9</ele><time>2021-12-08T13:11:24Z</time><name>PT2659</name></trkpt>
<trkpt lat="53.077978" lon="04.895193"><ele>1.7</ele><time>2021-12-08T13:11:24Z</time><name>PT2660</name></trkpt>
<trkpt lat="53.077984" lon="04.895208"><ele>1.5</ele><time>2021-12-08T13:11:26Z</time><name>PT2661</name></trkpt>
<trkpt lat="53.077990" lon="04.895224"><ele>1.2</ele><time>2021-12-08T13:11:27Z</time><name>PT2662</name></trkpt>
<trkpt lat="53.077996" lon="04.895240"><ele>1.2</ele><time>2021-12-08T13:11:27Z</time><name>PT2663</name></trkpt>
<trkpt lat="53.078002" lon="04.895257"><ele>1.1</ele><time>2021-12-08T13:11:29Z</time><name>PT2664</name></trkpt>
<trkpt lat="53.078008" lon="04.895272"><ele>1.1</ele><time>2021-12-08T13:11:30Z</time><name>PT2665</name></trkpt>
<trkpt lat="53.078015" lon="04.895288"><ele>1.1</ele><time>2021-12-08T13:11:30Z</time><name>PT2666</name></trkpt>
<trkpt lat="53.078023" lon="04.895302"><ele>1.2</ele><time>2021-12-08T13:11:32Z</time><name>PT2667</name></trkpt>
<trkpt lat="53.078030" lon="04.895315"><ele>1.4</ele><time>2021-12-08T13:11:33Z</time><name>PT2668</name></trkpt>
<trkpt lat="53.078036" lon="04.895327"><ele>1.4</ele><time>2021-12-08T13:11:33Z</time><name>PT2669</name></trkpt>
<trkpt lat="53.078041" lon="04.895342"><ele>1.3</ele><time>2021-12-08T13:11:35Z</time><name>PT2670</name></trkpt>
<trkpt lat="53.078046" lon="04.895358"><ele>1.2</ele><time>2021-12-08T13:11:36Z</time><name>PT2671</name></trkpt>
<trkpt lat="53.078051" lon="04.895375"><ele>1.2</ele><time>2021-12-08T13:11:36Z</time><name>PT2672</name></trkpt>
<trkpt lat="53.078056" lon="04.895390"><ele>1.1</ele><time>2021-12-08T13:11:38Z</time><name>PT2673</name></trkpt>
<trkpt lat="53.078062" lon="04.895406"><ele>1</ele><time>2021-12-08T13:11:39Z</time><name>PT2674</name></trkpt>
<trkpt lat="53.078067" lon="04.895421"><ele>1.3</ele><time>2021-12-08T13:11:39Z</time><name>PT2675</name></trkpt>
<trkpt lat="53.078073" lon="04.895435"><ele>1.3</ele><time>2021-12-08T13:11:41Z</time><name>PT2676</name></trkpt>
<trkpt lat="53.078078" lon="04.895449"><ele>1.4</ele><time>2021-12-08T13:11:42Z</time><name>PT2677</name></trkpt>
<trkpt lat="53.078083" lon="04.895462"><ele>1.7</ele><time>2021-12-08T13:11:42Z</time><name>PT2678</name></trkpt>
<trkpt lat="53.078088" lon="04.895476"><ele>1.8</ele><time>2021-12-08T13:11:44Z</time><name>PT2679</name></trkpt>
<trkpt lat="53.078094" lon="04.895492"><ele>1.8</ele><time>2021-12-08T13:11:45Z</time><name>PT2680</name></trkpt>
<trkpt lat="53.078101" lon="04.895506"><ele>1.7</ele><time>2021-12-08T13:11:45Z</time><name>PT2681</name></trkpt>
<trkpt lat="53.078108" lon="04.895520"><ele>1.7</ele><time>2021-12-08T13:11:47Z</time><name>PT2682</name></trkpt>
<trkpt lat="53.078114" lon="04.895534"><ele>1.8</ele><time>2021-12-08T13:11:48Z</time><name>PT2683</name></trkpt>
<trkpt lat="53.078120" lon="04.895547"><ele>1.9</ele><time>2021-12-08T13:11:48Z</time><name>PT2684</name></trkpt>
<trkpt lat="53.078125" lon="04.895563"><ele>1.7</ele><time>2021-12-08T13:11:50Z</time><name>PT2685</name></trkpt>
<trkpt lat="53.078130" lon="04.895579"><ele>1.7</ele><time>2021-12-08T13:11:51Z</time><name>PT2686</name></trkpt>
<trkpt lat="53.078135" lon="04.895596"><ele>1.5</ele><time>2021-12-08T13:11:51Z</time><name>PT2687</name></trkpt>
<trkpt lat="53.078140" lon="04.895612"><ele>1.4</ele><time>2021-12-08T13:11:53Z</time><name>PT2688</name></trkpt>
<trkpt lat="53.078145" lon="04.895627"><ele>1.2</ele><time>2021-12-08T13:11:54Z</time><name>PT2689</name></trkpt>
<trkpt lat="53.078151" lon="04.895642"><ele>1</ele><time>2021-12-08T13:11:54Z</time><name>PT2690</name></trkpt>
<trkpt lat="53.078157" lon="04.895655"><ele>1.1</ele><time>2021-12-08T13:11:56Z</time><name>PT2691</name></trkpt>
<trkpt lat="53.078163" lon="04.895668"><ele>1.1</ele><time>2021-12-08T13:11:57Z</time><name>PT2692</name></trkpt>
<trkpt lat="53.078167" lon="04.895684"><ele>1</ele><time>2021-12-08T13:11:57Z</time><name>PT2693</name></trkpt>
<trkpt lat="53.078171" lon="04.895701"><ele>1.2</ele><time>2021-12-08T13:11:59Z</time><name>PT2694</name></trkpt>
<trkpt lat="53.078176" lon="04.895718"><ele>1.1</ele><time>2021-12-08T13:12:00Z</time><name>PT2695</name></trkpt>
<trkpt lat="53.078181" lon="04.895733"><ele>1</ele><time>2021-12-08T13:12:00Z</time><name>PT2696</name></trkpt>
<trkpt lat="53.078187" lon="04.895748"><ele>1.1</ele><time>2021-12-08T13:12:02Z</time><name>PT2697</name></trkpt>
<trkpt lat="53.078194" lon="04.895763"><ele>1.1</ele><time>2021-12-08T13:12:03Z</time><name>PT2698</name></trkpt>
<trkpt lat="53.078200" lon="04.895777"><ele>1.2</ele><time>2021-12-08T13:12:03Z</time><name>PT2699</name></trkpt>
<trkpt lat="53.078204" lon="04.895792"><ele>1.2</ele><time>2021-12-08T13:12:05Z</time><name>PT2700</name></trkpt>
<trkpt lat="53.078208" lon="04.895808"><ele>1.1</ele><time>2021-12-08T13:12:06Z</time><name>PT2701</name></trkpt>
<trkpt lat="53.078214" lon="04.895823"><ele>1.3</ele><time>2021-12-08T13:12:06Z</time><name>PT2702</name></trkpt>
<trkpt lat="53.078219" lon="04.895839"><ele>1.3</ele><time>2021-12-08T13:12:08Z</time><name>PT2703</name></trkpt>
<trkpt lat="53.078224" lon="04.895856"><ele>1.5</ele><time>2021-12-08T13:12:09Z</time><name>PT2704</name></trkpt>
<trkpt lat="53.078228" lon="04.895874"><ele>1.6</ele><time>2021-12-08T13:12:09Z</time><name>PT2705</name></trkpt>
<trkpt lat="53.078232" lon="04.895891"><ele>1.5</ele><time>2021-12-08T13:12:11Z</time><name>PT2706</name></trkpt>
<trkpt lat="53.078237" lon="04.895907"><ele>1.6</ele><time>2021-12-08T13:12:12Z</time><name>PT2707</name></trkpt>
<trkpt lat="53.078240" lon="04.895922"><ele>1.5</ele><time>2021-12-08T13:12:12Z</time><name>PT2708</name></trkpt>
<trkpt lat="53.078244" lon="04.895939"><ele>1.3</ele><time>2021-12-08T13:12:14Z</time><name>PT2709</name></trkpt>
<trkpt lat="53.078248" lon="04.895953"><ele>1.1</ele><time>2021-12-08T13:12:15Z</time><name>PT2710</name></trkpt>
<trkpt lat="53.078252" lon="04.895967"><ele>0.9</ele><time>2021-12-08T13:12:15Z</time><name>PT2711</name></trkpt>
<trkpt lat="53.078256" lon="04.895979"><ele>0.8</ele><time>2021-12-08T13:12:17Z</time><name>PT2712</name></trkpt>
<trkpt lat="53.078260" lon="04.895991"><ele>1</ele><time>2021-12-08T13:12:18Z</time><name>PT2713</name></trkpt>
<trkpt lat="53.078264" lon="04.896003"><ele>1.2</ele><time>2021-12-08T13:12:18Z</time><name>PT2714</name></trkpt>
<trkpt lat="53.078267" lon="04.896016"><ele>1.3</ele><time>2021-12-08T13:12:20Z</time><name>PT2715</name></trkpt>
<trkpt lat="53.078270" lon="04.896030"><ele>1.3</ele><time>2021-12-08T13:12:21Z</time><name>PT2716</name></trkpt>
<trkpt lat="53.078274" lon="04.896045"><ele>1.2</ele><time>2021-12-08T13:12:21Z</time><name>PT2717</name></trkpt>
<trkpt lat="53.078278" lon="04.896060"><ele>1.2</ele><time>2021-12-08T13:12:23Z</time><name>PT2718</name></trkpt>
<trkpt lat="53.078281" lon="04.896074"><ele>1.4</ele><time>2021-12-08T13:12:24Z</time><name>PT2719</name></trkpt>
<trkpt lat="53.078284" lon="04.896089"><ele>1.4</ele><time>2021-12-08T13:12:24Z</time><name>PT2720</name></trkpt>
<trkpt lat="53.078287" lon="04.896103"><ele>1.4</ele><time>2021-12-08T13:12:26Z</time><name>PT2721</name></trkpt>
<trkpt lat="53.078290" lon="04.896119"><ele>1.5</ele><time>2021-12-08T13:12:27Z</time><name>PT2722</name></trkpt>
<trkpt lat="53.078293" lon="04.896135"><ele>1.4</ele><time>2021-12-08T13:12:27Z</time><name>PT2723</name></trkpt>
<trkpt lat="53.078296" lon="04.896148"><ele>1.5</ele><time>2021-12-08T13:12:29Z</time><name>PT2724</name></trkpt>
<trkpt lat="53.078300" lon="04.896155"><ele>1.5</ele><time>2021-12-08T13:12:30Z</time><name>PT2725</name></trkpt>
<trkpt lat="53.078302" lon="04.896160"><ele>1.4</ele><time>2021-12-08T13:12:30Z</time><name>PT2726</name></trkpt>
<trkpt lat="53.078302" lon="04.896163"><ele>1.3</ele><time>2021-12-08T13:12:32Z</time><name>PT2727</name></trkpt>
<trkpt lat="53.078302" lon="04.896164"><ele>1.1</ele><time>2021-12-08T13:12:33Z</time><name>PT2728</name></trkpt>
<trkpt lat="53.078305" lon="04.896173"><ele>1.3</ele><time>2021-12-08T13:12:59Z</time><name>PT2729</name></trkpt>
<trkpt lat="53.078318" lon="04.896176"><ele>1.1</ele><time>2021-12-08T13:13:00Z</time><name>PT2730</name></trkpt>
<trkpt lat="53.078329" lon="04.896180"><ele>1</ele><time>2021-12-08T13:13:00Z</time><name>PT2731</name></trkpt>
<trkpt lat="53.078339" lon="04.896189"><ele>1.3</ele><time>2021-12-08T13:13:02Z</time><name>PT2732</name></trkpt>
<trkpt lat="53.078348" lon="04.896197"><ele>1.4</ele><time>2021-12-08T13:13:03Z</time><name>PT2733</name></trkpt>
<trkpt lat="53.078355" lon="04.896205"><ele>1.5</ele><time>2021-12-08T13:13:03Z</time><name>PT2734</name></trkpt>
<trkpt lat="53.078362" lon="04.896210"><ele>1.4</ele><time>2021-12-08T13:13:05Z</time><name>PT2735</name></trkpt>
<trkpt lat="53.078371" lon="04.896214"><ele>1.4</ele><time>2021-12-08T13:13:06Z</time><name>PT2736</name></trkpt>
<trkpt lat="53.078382" lon="04.896217"><ele>1.4</ele><time>2021-12-08T13:13:06Z</time><name>PT2737</name></trkpt>
<trkpt lat="53.078391" lon="04.896221"><ele>1.5</ele><time>2021-12-08T13:13:08Z</time><name>PT2738</name></trkpt>
<trkpt lat="53.078402" lon="04.896222"><ele>1.5</ele><time>2021-12-08T13:13:09Z</time><name>PT2739</name></trkpt>
<trkpt lat="53.078412" lon="04.896219"><ele>1.4</ele><time>2021-12-08T13:13:09Z</time><name>PT2740</name></trkpt>
<trkpt lat="53.078422" lon="04.896219"><ele>1.5</ele><time>2021-12-08T13:13:11Z</time><name>PT2741</name></trkpt>
<trkpt lat="53.078431" lon="04.896222"><ele>1.2</ele><time>2021-12-08T13:13:12Z</time><name>PT2742</name></trkpt>
<trkpt lat="53.078439" lon="04.896228"><ele>1.2</ele><time>2021-12-08T13:13:12Z</time><name>PT2743</name></trkpt>
<trkpt lat="53.078446" lon="04.896233"><ele>1.2</ele><time>2021-12-08T13:13:14Z</time><name>PT2744</name></trkpt>
<trkpt lat="53.078454" lon="04.896237"><ele>1.3</ele><time>2021-12-08T13:13:15Z</time><name>PT2745</name></trkpt>
<trkpt lat="53.078461" lon="04.896246"><ele>1.4</ele><time>2021-12-08T13:13:15Z</time><name>PT2746</name></trkpt>
<trkpt lat="53.078466" lon="04.896255"><ele>1.4</ele><time>2021-12-08T13:13:17Z</time><name>PT2747</name></trkpt>
<trkpt lat="53.078469" lon="04.896264"><ele>1.6</ele><time>2021-12-08T13:13:18Z</time><name>PT2748</name></trkpt>
<trkpt lat="53.078474" lon="04.896269"><ele>1.4</ele><time>2021-12-08T13:13:18Z</time><name>PT2749</name></trkpt>
<trkpt lat="53.078476" lon="04.896269"><ele>1.1</ele><time>2021-12-08T13:13:20Z</time><name>PT2750</name></trkpt>
<trkpt lat="53.078477" lon="04.896269"><ele>0.9</ele><time>2021-12-08T13:13:21Z</time><name>PT2751</name></trkpt>
<trkpt lat="53.078478" lon="04.896268"><ele>0.8</ele><time>2021-12-08T13:13:21Z</time><name>PT2752</name></trkpt>
<trkpt lat="53.078480" lon="04.896271"><ele>1.5</ele><time>2021-12-08T13:13:45Z</time><name>PT2753</name></trkpt>
<trkpt lat="53.078482" lon="04.896272"><ele>1.6</ele><time>2021-12-08T13:13:45Z</time><name>PT2754</name></trkpt>
<trkpt lat="53.078490" lon="04.896275"><ele>2.4</ele><time>2021-12-08T13:15:26Z</time><name>PT2755</name></trkpt>
<trkpt lat="53.078499" lon="04.896274"><ele>2.3</ele><time>2021-12-08T13:15:27Z</time><name>PT2756</name></trkpt>
<trkpt lat="53.078508" lon="04.896269"><ele>2</ele><time>2021-12-08T13:15:27Z</time><name>PT2757</name></trkpt>
<trkpt lat="53.078516" lon="04.896262"><ele>1.9</ele><time>2021-12-08T13:15:29Z</time><name>PT2758</name></trkpt>
<trkpt lat="53.078524" lon="04.896258"><ele>1.6</ele><time>2021-12-08T13:15:30Z</time><name>PT2759</name></trkpt>
<trkpt lat="53.078536" lon="04.896253"><ele>1.5</ele><time>2021-12-08T13:15:30Z</time><name>PT2760</name></trkpt>
<trkpt lat="53.078546" lon="04.896248"><ele>1.8</ele><time>2021-12-08T13:15:32Z</time><name>PT2761</name></trkpt>
<trkpt lat="53.078557" lon="04.896243"><ele>1.9</ele><time>2021-12-08T13:15:33Z</time><name>PT2762</name></trkpt>
<trkpt lat="53.078566" lon="04.896239"><ele>2</ele><time>2021-12-08T13:15:33Z</time><name>PT2763</name></trkpt>
<trkpt lat="53.078576" lon="04.896237"><ele>1.8</ele><time>2021-12-08T13:15:35Z</time><name>PT2764</name></trkpt>
<trkpt lat="53.078588" lon="04.896234"><ele>1.4</ele><time>2021-12-08T13:15:36Z</time><name>PT2765</name></trkpt>
<trkpt lat="53.078599" lon="04.896230"><ele>1.4</ele><time>2021-12-08T13:15:36Z</time><name>PT2766</name></trkpt>
<trkpt lat="53.078611" lon="04.896226"><ele>1.2</ele><time>2021-12-08T13:15:38Z</time><name>PT2767</name></trkpt>
<trkpt lat="53.078621" lon="04.896222"><ele>1.1</ele><time>2021-12-08T13:15:39Z</time><name>PT2768</name></trkpt>
<trkpt lat="53.078633" lon="04.896216"><ele>1</ele><time>2021-12-08T13:15:39Z</time><name>PT2769</name></trkpt>
<trkpt lat="53.078642" lon="04.896209"><ele>1.1</ele><time>2021-12-08T13:15:41Z</time><name>PT2770</name></trkpt>
<trkpt lat="53.078650" lon="04.896205"><ele>1.3</ele><time>2021-12-08T13:15:42Z</time><name>PT2771</name></trkpt>
<trkpt lat="53.078659" lon="04.896203"><ele>1.7</ele><time>2021-12-08T13:15:42Z</time><name>PT2772</name></trkpt>
<trkpt lat="53.078667" lon="04.896203"><ele>1.9</ele><time>2021-12-08T13:15:44Z</time><name>PT2773</name></trkpt>
<trkpt lat="53.078676" lon="04.896201"><ele>2</ele><time>2021-12-08T13:15:45Z</time><name>PT2774</name></trkpt>
<trkpt lat="53.078685" lon="04.896196"><ele>2.4</ele><time>2021-12-08T13:15:45Z</time><name>PT2775</name></trkpt>
<trkpt lat="53.078693" lon="04.896189"><ele>2.1</ele><time>2021-12-08T13:15:47Z</time><name>PT2776</name></trkpt>
<trkpt lat="53.078701" lon="04.896184"><ele>2.1</ele><time>2021-12-08T13:15:48Z</time><name>PT2777</name></trkpt>
<trkpt lat="53.078710" lon="04.896185"><ele>2</ele><time>2021-12-08T13:15:48Z</time><name>PT2778</name></trkpt>
<trkpt lat="53.078719" lon="04.896183"><ele>1.9</ele><time>2021-12-08T13:15:50Z</time><name>PT2779</name></trkpt>
<trkpt lat="53.078728" lon="04.896180"><ele>2.2</ele><time>2021-12-08T13:15:51Z</time><name>PT2780</name></trkpt>
<trkpt lat="53.078737" lon="04.896176"><ele>2.2</ele><time>2021-12-08T13:15:51Z</time><name>PT2781</name></trkpt>
<trkpt lat="53.078746" lon="04.896175"><ele>2.4</ele><time>2021-12-08T13:15:53Z</time><name>PT2782</name></trkpt>
<trkpt lat="53.078755" lon="04.896173"><ele>2.4</ele><time>2021-12-08T13:15:54Z</time><name>PT2783</name></trkpt>
<trkpt lat="53.078763" lon="04.896169"><ele>2.1</ele><time>2021-12-08T13:15:54Z</time><name>PT2784</name></trkpt>
<trkpt lat="53.078771" lon="04.896166"><ele>1.9</ele><time>2021-12-08T13:15:56Z</time><name>PT2785</name></trkpt>
<trkpt lat="53.078778" lon="04.896166"><ele>1.5</ele><time>2021-12-08T13:15:57Z</time><name>PT2786</name></trkpt>
<trkpt lat="53.078784" lon="04.896165"><ele>1.4</ele><time>2021-12-08T13:15:57Z</time><name>PT2787</name></trkpt>
<trkpt lat="53.078786" lon="04.896163"><ele>1.6</ele><time>2021-12-08T13:15:59Z</time><name>PT2788</name></trkpt>
<trkpt lat="53.078786" lon="04.896164"><ele>1.8</ele><time>2021-12-08T13:16:00Z</time><name>PT2789</name></trkpt>
<trkpt lat="53.078787" lon="04.896164"><ele>2</ele><time>2021-12-08T13:16:00Z</time><name>PT2790</name></trkpt>
<trkpt lat="53.078787" lon="04.896163"><ele>2.1</ele><time>2021-12-08T13:16:02Z</time><name>PT2791</name></trkpt>
<trkpt lat="53.078792" lon="04.896162"><ele>2.1</ele><time>2021-12-08T13:16:03Z</time><name>PT2792</name></trkpt>
<trkpt lat="53.078802" lon="04.896163"><ele>1.8</ele><time>2021-12-08T13:16:05Z</time><name>PT2793</name></trkpt>
<trkpt lat="53.078809" lon="04.896166"><ele>1.4</ele><time>2021-12-08T13:16:06Z</time><name>PT2794</name></trkpt>
<trkpt lat="53.078817" lon="04.896169"><ele>1.4</ele><time>2021-12-08T13:16:06Z</time><name>PT2795</name></trkpt>
<trkpt lat="53.078825" lon="04.896171"><ele>1.4</ele><time>2021-12-08T13:16:08Z</time><name>PT2796</name></trkpt>
<trkpt lat="53.078835" lon="04.896173"><ele>1.4</ele><time>2021-12-08T13:16:09Z</time><name>PT2797</name></trkpt>
<trkpt lat="53.078846" lon="04.896176"><ele>1.3</ele><time>2021-12-08T13:16:09Z</time><name>PT2798</name></trkpt>
<trkpt lat="53.078858" lon="04.896181"><ele>1.4</ele><time>2021-12-08T13:16:11Z</time><name>PT2799</name></trkpt>
<trkpt lat="53.078869" lon="04.896188"><ele>1.7</ele><time>2021-12-08T13:16:12Z</time><name>PT2800</name></trkpt>
<trkpt lat="53.078879" lon="04.896194"><ele>1.8</ele><time>2021-12-08T13:16:12Z</time><name>PT2801</name></trkpt>
<trkpt lat="53.078887" lon="04.896205"><ele>1.9</ele><time>2021-12-08T13:16:14Z</time><name>PT2802</name></trkpt>
<trkpt lat="53.078895" lon="04.896218"><ele>1.9</ele><time>2021-12-08T13:16:15Z</time><name>PT2803</name></trkpt>
<trkpt lat="53.078904" lon="04.896230"><ele>1.9</ele><time>2021-12-08T13:16:15Z</time><name>PT2804</name></trkpt>
<trkpt lat="53.078913" lon="04.896241"><ele>2</ele><time>2021-12-08T13:16:17Z</time><name>PT2805</name></trkpt>
<trkpt lat="53.078921" lon="04.896250"><ele>2.2</ele><time>2021-12-08T13:16:18Z</time><name>PT2806</name></trkpt>
<trkpt lat="53.078931" lon="04.896259"><ele>2.2</ele><time>2021-12-08T13:16:18Z</time><name>PT2807</name></trkpt>
<trkpt lat="53.078940" lon="04.896266"><ele>2.3</ele><time>2021-12-08T13:16:20Z</time><name>PT2808</name></trkpt>
<trkpt lat="53.078949" lon="04.896275"><ele>2.2</ele><time>2021-12-08T13:16:21Z</time><name>PT2809</name></trkpt>
<trkpt lat="53.078958" lon="04.896286"><ele>2.2</ele><time>2021-12-08T13:16:21Z</time><name>PT2810</name></trkpt>
<trkpt lat="53.078967" lon="04.896296"><ele>2.2</ele><time>2021-12-08T13:16:23Z</time><name>PT2811</name></trkpt>
<trkpt lat="53.078977" lon="04.896307"><ele>1.9</ele><time>2021-12-08T13:16:24Z</time><name>PT2812</name></trkpt>
<trkpt lat="53.078987" lon="04.896316"><ele>1.9</ele><time>2021-12-08T13:16:24Z</time><name>PT2813</name></trkpt>
<trkpt lat="53.078999" lon="04.896325"><ele>1.9</ele><time>2021-12-08T13:16:26Z</time><name>PT2814</name></trkpt>
<trkpt lat="53.079009" lon="04.896335"><ele>1.7</ele><time>2021-12-08T13:16:27Z</time><name>PT2815</name></trkpt>
<trkpt lat="53.079018" lon="04.896344"><ele>1.8</ele><time>2021-12-08T13:16:27Z</time><name>PT2816</name></trkpt>
<trkpt lat="53.079028" lon="04.896354"><ele>1.6</ele><time>2021-12-08T13:16:29Z</time><name>PT2817</name></trkpt>
<trkpt lat="53.079037" lon="04.896366"><ele>1.6</ele><time>2021-12-08T13:16:30Z</time><name>PT2818</name></trkpt>
<trkpt lat="53.079047" lon="04.896380"><ele>1.7</ele><time>2021-12-08T13:16:30Z</time><name>PT2819</name></trkpt>
<trkpt lat="53.079050" lon="04.896388"><ele>1.4</ele><time>2021-12-08T13:16:32Z</time><name>PT2820</name></trkpt>
<trkpt lat="53.079050" lon="04.896390"><ele>1.4</ele><time>2021-12-08T13:16:33Z</time><name>PT2821</name></trkpt>
<trkpt lat="53.079052" lon="04.896390"><ele>1.4</ele><time>2021-12-08T13:16:33Z</time><name>PT2822</name></trkpt>
<trkpt lat="53.079053" lon="04.896392"><ele>1.3</ele><time>2021-12-08T13:16:35Z</time><name>PT2823</name></trkpt>
<trkpt lat="53.079054" lon="04.896393"><ele>1</ele><time>2021-12-08T13:16:36Z</time><name>PT2824</name></trkpt>
<trkpt lat="53.079054" lon="04.896392"><ele>0.3</ele><time>2021-12-08T13:16:39Z</time><name>PT2825</name></trkpt>
<trkpt lat="53.079050" lon="04.896399"><ele>-1.2</ele><time>2021-12-08T13:16:41Z</time><name>PT2826</name></trkpt>
<trkpt lat="53.079042" lon="04.896405"><ele>-1.7</ele><time>2021-12-08T13:16:42Z</time><name>PT2827</name></trkpt>
<trkpt lat="53.079035" lon="04.896413"><ele>-1.7</ele><time>2021-12-08T13:16:42Z</time><name>PT2828</name></trkpt>
<trkpt lat="53.079035" lon="04.896420"><ele>-1.7</ele><time>2021-12-08T13:16:44Z</time><name>PT2829</name></trkpt>
<trkpt lat="53.079035" lon="04.896424"><ele>-1.2</ele><time>2021-12-08T13:16:45Z</time><name>PT2830</name></trkpt>
<trkpt lat="53.079034" lon="04.896425"><ele>-1.4</ele><time>2021-12-08T13:16:45Z</time><name>PT2831</name></trkpt>
<trkpt lat="53.079035" lon="04.896429"><ele>0.8</ele><time>2021-12-08T13:17:12Z</time><name>PT2832</name></trkpt>
<trkpt lat="53.079041" lon="04.896424"><ele>1.3</ele><time>2021-12-08T13:17:12Z</time><name>PT2833</name></trkpt>
<trkpt lat="53.079042" lon="04.896423"><ele>1.6</ele><time>2021-12-08T13:17:14Z</time><name>PT2834</name></trkpt>
<trkpt lat="53.079047" lon="04.896419"><ele>1.4</ele><time>2021-12-08T13:17:15Z</time><name>PT2835</name></trkpt>
<trkpt lat="53.079052" lon="04.896418"><ele>1.4</ele><time>2021-12-08T13:17:15Z</time><name>PT2836</name></trkpt>
<trkpt lat="53.079061" lon="04.896414"><ele>1.4</ele><time>2021-12-08T13:17:17Z</time><name>PT2837</name></trkpt>
<trkpt lat="53.079065" lon="04.896409"><ele>1.8</ele><time>2021-12-08T13:17:18Z</time><name>PT2838</name></trkpt>
<trkpt lat="53.079070" lon="04.896409"><ele>1.9</ele><time>2021-12-08T13:17:18Z</time><name>PT2839</name></trkpt>
<trkpt lat="53.079076" lon="04.896411"><ele>2</ele><time>2021-12-08T13:17:20Z</time><name>PT2840</name></trkpt>
<trkpt lat="53.079080" lon="04.896415"><ele>1.9</ele><time>2021-12-08T13:17:21Z</time><name>PT2841</name></trkpt>
<trkpt lat="53.079082" lon="04.896420"><ele>2.5</ele><time>2021-12-08T13:17:51Z</time><name>PT2842</name></trkpt>
<trkpt lat="53.079089" lon="04.896428"><ele>2.5</ele><time>2021-12-08T13:17:51Z</time><name>PT2843</name></trkpt>
<trkpt lat="53.079096" lon="04.896435"><ele>2.5</ele><time>2021-12-08T13:17:53Z</time><name>PT2844</name></trkpt>
<trkpt lat="53.079103" lon="04.896441"><ele>2.4</ele><time>2021-12-08T13:17:54Z</time><name>PT2845</name></trkpt>
<trkpt lat="53.079108" lon="04.896449"><ele>2.3</ele><time>2021-12-08T13:17:54Z</time><name>PT2846</name></trkpt>
<trkpt lat="53.079114" lon="04.896454"><ele>2.1</ele><time>2021-12-08T13:17:56Z</time><name>PT2847</name></trkpt>
<trkpt lat="53.079121" lon="04.896459"><ele>2</ele><time>2021-12-08T13:17:57Z</time><name>PT2848</name></trkpt>
<trkpt lat="53.079128" lon="04.896466"><ele>1.9</ele><time>2021-12-08T13:17:57Z</time><name>PT2849</name></trkpt>
<trkpt lat="53.079134" lon="04.896471"><ele>2.1</ele><time>2021-12-08T13:17:59Z</time><name>PT2850</name></trkpt>
<trkpt lat="53.079140" lon="04.896476"><ele>2.2</ele><time>2021-12-08T13:18:00Z</time><name>PT2851</name></trkpt>
<trkpt lat="53.079146" lon="04.896485"><ele>2.3</ele><time>2021-12-08T13:18:00Z</time><name>PT2852</name></trkpt>
<trkpt lat="53.079153" lon="04.896494"><ele>2.4</ele><time>2021-12-08T13:18:02Z</time><name>PT2853</name></trkpt>
<trkpt lat="53.079161" lon="04.896502"><ele>2.4</ele><time>2021-12-08T13:18:03Z</time><name>PT2854</name></trkpt>
<trkpt lat="53.079170" lon="04.896510"><ele>2.4</ele><time>2021-12-08T13:18:03Z</time><name>PT2855</name></trkpt>
<trkpt lat="53.079177" lon="04.896519"><ele>2.4</ele><time>2021-12-08T13:18:05Z</time><name>PT2856</name></trkpt>
<trkpt lat="53.079185" lon="04.896528"><ele>2.2</ele><time>2021-12-08T13:18:06Z</time><name>PT2857</name></trkpt>
<trkpt lat="53.079194" lon="04.896537"><ele>2.1</ele><time>2021-12-08T13:18:06Z</time><name>PT2858</name></trkpt>
<trkpt lat="53.079202" lon="04.896546"><ele>2</ele><time>2021-12-08T13:18:08Z</time><name>PT2859</name></trkpt>
<trkpt lat="53.079210" lon="04.896553"><ele>2.3</ele><time>2021-12-08T13:18:09Z</time><name>PT2860</name></trkpt>
<trkpt lat="53.079219" lon="04.896561"><ele>2.2</ele><time>2021-12-08T13:18:09Z</time><name>PT2861</name></trkpt>
<trkpt lat="53.079228" lon="04.896568"><ele>2.1</ele><time>2021-12-08T13:18:11Z</time><name>PT2862</name></trkpt>
<trkpt lat="53.079237" lon="04.896576"><ele>2.2</ele><time>2021-12-08T13:18:12Z</time><name>PT2863</name></trkpt>
<trkpt lat="53.079245" lon="04.896585"><ele>2.3</ele><time>2021-12-08T13:18:12Z</time><name>PT2864</name></trkpt>
<trkpt lat="53.079253" lon="04.896595"><ele>2.4</ele><time>2021-12-08T13:18:14Z</time><name>PT2865</name></trkpt>
<trkpt lat="53.079262" lon="04.896606"><ele>2.6</ele><time>2021-12-08T13:18:15Z</time><name>PT2866</name></trkpt>
<trkpt lat="53.079271" lon="04.896614"><ele>2.5</ele><time>2021-12-08T13:18:15Z</time><name>PT2867</name></trkpt>
<trkpt lat="53.079276" lon="04.896618"><ele>2.7</ele><time>2021-12-08T13:18:17Z</time><name>PT2868</name></trkpt>
<trkpt lat="53.079277" lon="04.896619"><ele>2.5</ele><time>2021-12-08T13:18:18Z</time><name>PT2869</name></trkpt>
<trkpt lat="53.079277" lon="04.896619"><ele>2.4</ele><time>2021-12-08T13:18:18Z</time><name>PT2870</name></trkpt>
<trkpt lat="53.079277" lon="04.896619"><ele>2.1</ele><time>2021-12-08T13:18:20Z</time><name>PT2871</name></trkpt>
<trkpt lat="53.079281" lon="04.896625"><ele>1.9</ele><time>2021-12-08T13:18:26Z</time><name>PT2872</name></trkpt>
<trkpt lat="53.079289" lon="04.896635"><ele>2</ele><time>2021-12-08T13:18:27Z</time><name>PT2873</name></trkpt>
<trkpt lat="53.079298" lon="04.896647"><ele>1.8</ele><time>2021-12-08T13:18:27Z</time><name>PT2874</name></trkpt>
<trkpt lat="53.079306" lon="04.896656"><ele>1.6</ele><time>2021-12-08T13:18:29Z</time><name>PT2875</name></trkpt>
<trkpt lat="53.079311" lon="04.896660"><ele>1.6</ele><time>2021-12-08T13:18:30Z</time><name>PT2876</name></trkpt>
<trkpt lat="53.079317" lon="04.896665"><ele>1.7</ele><time>2021-12-08T13:18:30Z</time><name>PT2877</name></trkpt>
<trkpt lat="53.079324" lon="04.896671"><ele>1.6</ele><time>2021-12-08T13:18:32Z</time><name>PT2878</name></trkpt>
<trkpt lat="53.079334" lon="04.896678"><ele>1.5</ele><time>2021-12-08T13:18:33Z</time><name>PT2879</name></trkpt>
<trkpt lat="53.079344" lon="04.896687"><ele>1.6</ele><time>2021-12-08T13:18:33Z</time><name>PT2880</name></trkpt>
<trkpt lat="53.079354" lon="04.896696"><ele>1.5</ele><time>2021-12-08T13:18:35Z</time><name>PT2881</name></trkpt>
<trkpt lat="53.079363" lon="04.896707"><ele>1.7</ele><time>2021-12-08T13:18:36Z</time><name>PT2882</name></trkpt>
<trkpt lat="53.079374" lon="04.896718"><ele>1.8</ele><time>2021-12-08T13:18:36Z</time><name>PT2883</name></trkpt>
<trkpt lat="53.079385" lon="04.896729"><ele>1.8</ele><time>2021-12-08T13:18:38Z</time><name>PT2884</name></trkpt>
<trkpt lat="53.079395" lon="04.896741"><ele>1.9</ele><time>2021-12-08T13:18:39Z</time><name>PT2885</name></trkpt>
<trkpt lat="53.079405" lon="04.896752"><ele>1.8</ele><time>2021-12-08T13:18:39Z</time><name>PT2886</name></trkpt>
<trkpt lat="53.079415" lon="04.896763"><ele>1.4</ele><time>2021-12-08T13:18:41Z</time><name>PT2887</name></trkpt>
<trkpt lat="53.079425" lon="04.896774"><ele>1.4</ele><time>2021-12-08T13:18:42Z</time><name>PT2888</name></trkpt>
<trkpt lat="53.079434" lon="04.896781"><ele>1.3</ele><time>2021-12-08T13:18:42Z</time><name>PT2889</name></trkpt>
<trkpt lat="53.079444" lon="04.896788"><ele>1.4</ele><time>2021-12-08T13:18:44Z</time><name>PT2890</name></trkpt>
<trkpt lat="53.079454" lon="04.896799"><ele>1.4</ele><time>2021-12-08T13:18:45Z</time><name>PT2891</name></trkpt>
<trkpt lat="53.079464" lon="04.896810"><ele>1.4</ele><time>2021-12-08T13:18:45Z</time><name>PT2892</name></trkpt>
<trkpt lat="53.079474" lon="04.896822"><ele>1.4</ele><time>2021-12-08T13:18:47Z</time><name>PT2893</name></trkpt>
<trkpt lat="53.079485" lon="04.896834"><ele>1.4</ele><time>2021-12-08T13:18:48Z</time><name>PT2894</name></trkpt>
<trkpt lat="53.079495" lon="04.896843"><ele>1.4</ele><time>2021-12-08T13:18:48Z</time><name>PT2895</name></trkpt>
<trkpt lat="53.079505" lon="04.896852"><ele>1.4</ele><time>2021-12-08T13:18:50Z</time><name>PT2896</name></trkpt>
<trkpt lat="53.079515" lon="04.896859"><ele>1.6</ele><time>2021-12-08T13:18:51Z</time><name>PT2897</name></trkpt>
<trkpt lat="53.079525" lon="04.896866"><ele>1.6</ele><time>2021-12-08T13:18:51Z</time><name>PT2898</name></trkpt>
<trkpt lat="53.079536" lon="04.896874"><ele>1.7</ele><time>2021-12-08T13:18:53Z</time><name>PT2899</name></trkpt>
<trkpt lat="53.079546" lon="04.896885"><ele>1.7</ele><time>2021-12-08T13:18:54Z</time><name>PT2900</name></trkpt>
<trkpt lat="53.079554" lon="04.896896"><ele>1.8</ele><time>2021-12-08T13:18:54Z</time><name>PT2901</name></trkpt>
<trkpt lat="53.079565" lon="04.896908"><ele>1.8</ele><time>2021-12-08T13:18:56Z</time><name>PT2902</name></trkpt>
<trkpt lat="53.079575" lon="04.896920"><ele>1.6</ele><time>2021-12-08T13:18:57Z</time><name>PT2903</name></trkpt>
<trkpt lat="53.079584" lon="04.896932"><ele>1.6</ele><time>2021-12-08T13:18:57Z</time><name>PT2904</name></trkpt>
<trkpt lat="53.079599" lon="04.896946"><ele>1.6</ele><time>2021-12-08T13:18:59Z</time><name>PT2905</name></trkpt>
<trkpt lat="53.079610" lon="04.896956"><ele>1.5</ele><time>2021-12-08T13:19:00Z</time><name>PT2906</name></trkpt>
<trkpt lat="53.079622" lon="04.896964"><ele>1.5</ele><time>2021-12-08T13:19:00Z</time><name>PT2907</name></trkpt>
<trkpt lat="53.079632" lon="04.896972"><ele>1.6</ele><time>2021-12-08T13:19:02Z</time><name>PT2908</name></trkpt>
<trkpt lat="53.079641" lon="04.896978"><ele>1.5</ele><time>2021-12-08T13:19:03Z</time><name>PT2909</name></trkpt>
<trkpt lat="53.079646" lon="04.896987"><ele>1.5</ele><time>2021-12-08T13:19:03Z</time><name>PT2910</name></trkpt>
<trkpt lat="53.079645" lon="04.896988"><ele>1.5</ele><time>2021-12-08T13:19:05Z</time><name>PT2911</name></trkpt>
<trkpt lat="53.079646" lon="04.896989"><ele>1.4</ele><time>2021-12-08T13:19:06Z</time><name>PT2912</name></trkpt>
<trkpt lat="53.079648" lon="04.896986"><ele>1.2</ele><time>2021-12-08T13:19:06Z</time><name>PT2913</name></trkpt>
<trkpt lat="53.079649" lon="04.896987"><ele>1.4</ele><time>2021-12-08T13:19:08Z</time><name>PT2914</name></trkpt>
<trkpt lat="53.079651" lon="04.896988"><ele>1.7</ele><time>2021-12-08T13:19:09Z</time><name>PT2915</name></trkpt>
<trkpt lat="53.079657" lon="04.896992"><ele>1.9</ele><time>2021-12-08T13:19:09Z</time><name>PT2916</name></trkpt>
<trkpt lat="53.079664" lon="04.897000"><ele>2</ele><time>2021-12-08T13:19:11Z</time><name>PT2917</name></trkpt>
<trkpt lat="53.079673" lon="04.897009"><ele>1.9</ele><time>2021-12-08T13:19:12Z</time><name>PT2918</name></trkpt>
<trkpt lat="53.079682" lon="04.897018"><ele>1.9</ele><time>2021-12-08T13:19:12Z</time><name>PT2919</name></trkpt>
<trkpt lat="53.079692" lon="04.897027"><ele>1.9</ele><time>2021-12-08T13:19:14Z</time><name>PT2920</name></trkpt>
<trkpt lat="53.079701" lon="04.897034"><ele>1.9</ele><time>2021-12-08T13:19:15Z</time><name>PT2921</name></trkpt>
<trkpt lat="53.079710" lon="04.897043"><ele>1.9</ele><time>2021-12-08T13:19:15Z</time><name>PT2922</name></trkpt>
<trkpt lat="53.079719" lon="04.897051"><ele>2.1</ele><time>2021-12-08T13:19:17Z</time><name>PT2923</name></trkpt>
<trkpt lat="53.079729" lon="04.897058"><ele>2.1</ele><time>2021-12-08T13:19:18Z</time><name>PT2924</name></trkpt>
<trkpt lat="53.079739" lon="04.897069"><ele>1.9</ele><time>2021-12-08T13:19:18Z</time><name>PT2925</name></trkpt>
<trkpt lat="53.079749" lon="04.897082"><ele>1.8</ele><time>2021-12-08T13:19:20Z</time><name>PT2926</name></trkpt>
<trkpt lat="53.079758" lon="04.897095"><ele>1.6</ele><time>2021-12-08T13:19:21Z</time><name>PT2927</name></trkpt>
<trkpt lat="53.079767" lon="04.897105"><ele>1.5</ele><time>2021-12-08T13:19:21Z</time><name>PT2928</name></trkpt>
<trkpt lat="53.079777" lon="04.897111"><ele>1.4</ele><time>2021-12-08T13:19:23Z</time><name>PT2929</name></trkpt>
<trkpt lat="53.079789" lon="04.897117"><ele>1.5</ele><time>2021-12-08T13:19:24Z</time><name>PT2930</name></trkpt>
<trkpt lat="53.079799" lon="04.897124"><ele>1.6</ele><time>2021-12-08T13:19:24Z</time><name>PT2931</name></trkpt>
<trkpt lat="53.079810" lon="04.897134"><ele>1.8</ele><time>2021-12-08T13:19:26Z</time><name>PT2932</name></trkpt>
<trkpt lat="53.079821" lon="04.897144"><ele>1.9</ele><time>2021-12-08T13:19:27Z</time><name>PT2933</name></trkpt>
<trkpt lat="53.079832" lon="04.897157"><ele>2</ele><time>2021-12-08T13:19:27Z</time><name>PT2934</name></trkpt>
<trkpt lat="53.079843" lon="04.897168"><ele>1.8</ele><time>2021-12-08T13:19:29Z</time><name>PT2935</name></trkpt>
<trkpt lat="53.079854" lon="04.897179"><ele>1.8</ele><time>2021-12-08T13:19:30Z</time><name>PT2936</name></trkpt>
<trkpt lat="53.079864" lon="04.897188"><ele>1.7</ele><time>2021-12-08T13:19:30Z</time><name>PT2937</name></trkpt>
<trkpt lat="53.079874" lon="04.897196"><ele>1.6</ele><time>2021-12-08T13:19:32Z</time><name>PT2938</name></trkpt>
<trkpt lat="53.079884" lon="04.897203"><ele>1.9</ele><time>2021-12-08T13:19:33Z</time><name>PT2939</name></trkpt>
<trkpt lat="53.079894" lon="04.897212"><ele>1.9</ele><time>2021-12-08T13:19:33Z</time><name>PT2940</name></trkpt>
<trkpt lat="53.079904" lon="04.897223"><ele>1.9</ele><time>2021-12-08T13:19:35Z</time><name>PT2941</name></trkpt>
<trkpt lat="53.079915" lon="04.897234"><ele>2.2</ele><time>2021-12-08T13:19:36Z</time><name>PT2942</name></trkpt>
<trkpt lat="53.079926" lon="04.897247"><ele>2.4</ele><time>2021-12-08T13:19:36Z</time><name>PT2943</name></trkpt>
<trkpt lat="53.079937" lon="04.897259"><ele>2.4</ele><time>2021-12-08T13:19:38Z</time><name>PT2944</name></trkpt>
<trkpt lat="53.079946" lon="04.897271"><ele>2.5</ele><time>2021-12-08T13:19:39Z</time><name>PT2945</name></trkpt>
<trkpt lat="53.079957" lon="04.897281"><ele>2.6</ele><time>2021-12-08T13:19:39Z</time><name>PT2946</name></trkpt>
<trkpt lat="53.079969" lon="04.897288"><ele>2.4</ele><time>2021-12-08T13:19:41Z</time><name>PT2947</name></trkpt>
<trkpt lat="53.079980" lon="04.897295"><ele>2.7</ele><time>2021-12-08T13:19:42Z</time><name>PT2948</name></trkpt>
<trkpt lat="53.079990" lon="04.897302"><ele>3</ele><time>2021-12-08T13:19:42Z</time><name>PT2949</name></trkpt>
<trkpt lat="53.080000" lon="04.897311"><ele>3</ele><time>2021-12-08T13:19:44Z</time><name>PT2950</name></trkpt>
<trkpt lat="53.080010" lon="04.897321"><ele>3.3</ele><time>2021-12-08T13:19:45Z</time><name>PT2951</name></trkpt>
<trkpt lat="53.080021" lon="04.897331"><ele>3.2</ele><time>2021-12-08T13:19:45Z</time><name>PT2952</name></trkpt>
<trkpt lat="53.080032" lon="04.897343"><ele>2.8</ele><time>2021-12-08T13:19:47Z</time><name>PT2953</name></trkpt>
<trkpt lat="53.080041" lon="04.897354"><ele>2.9</ele><time>2021-12-08T13:19:48Z</time><name>PT2954</name></trkpt>
<trkpt lat="53.080052" lon="04.897364"><ele>3</ele><time>2021-12-08T13:19:48Z</time><name>PT2955</name></trkpt>
<trkpt lat="53.080064" lon="04.897373"><ele>2.8</ele><time>2021-12-08T13:19:50Z</time><name>PT2956</name></trkpt>
<trkpt lat="53.080075" lon="04.897381"><ele>3</ele><time>2021-12-08T13:19:51Z</time><name>PT2957</name></trkpt>
<trkpt lat="53.080086" lon="04.897389"><ele>2.9</ele><time>2021-12-08T13:19:51Z</time><name>PT2958</name></trkpt>
<trkpt lat="53.080096" lon="04.897398"><ele>2.6</ele><time>2021-12-08T13:19:53Z</time><name>PT2959</name></trkpt>
<trkpt lat="53.080106" lon="04.897408"><ele>2.4</ele><time>2021-12-08T13:19:54Z</time><name>PT2960</name></trkpt>
<trkpt lat="53.080116" lon="04.897418"><ele>2.4</ele><time>2021-12-08T13:19:54Z</time><name>PT2961</name></trkpt>
<trkpt lat="53.080127" lon="04.897429"><ele>2.5</ele><time>2021-12-08T13:19:56Z</time><name>PT2962</name></trkpt>
<trkpt lat="53.080138" lon="04.897440"><ele>2.5</ele><time>2021-12-08T13:19:57Z</time><name>PT2963</name></trkpt>
<trkpt lat="53.080149" lon="04.897449"><ele>2.7</ele><time>2021-12-08T13:19:57Z</time><name>PT2964</name></trkpt>
<trkpt lat="53.080159" lon="04.897457"><ele>2.9</ele><time>2021-12-08T13:19:59Z</time><name>PT2965</name></trkpt>
<trkpt lat="53.080170" lon="04.897466"><ele>2.7</ele><time>2021-12-08T13:20:00Z</time><name>PT2966</name></trkpt>
<trkpt lat="53.080180" lon="04.897473"><ele>2.7</ele><time>2021-12-08T13:20:00Z</time><name>PT2967</name></trkpt>
<trkpt lat="53.080190" lon="04.897482"><ele>2.4</ele><time>2021-12-08T13:20:02Z</time><name>PT2968</name></trkpt>
<trkpt lat="53.080200" lon="04.897491"><ele>2.2</ele><time>2021-12-08T13:20:03Z</time><name>PT2969</name></trkpt>
<trkpt lat="53.080210" lon="04.897501"><ele>2</ele><time>2021-12-08T13:20:03Z</time><name>PT2970</name></trkpt>
<trkpt lat="53.080221" lon="04.897510"><ele>1.7</ele><time>2021-12-08T13:20:05Z</time><name>PT2971</name></trkpt>
<trkpt lat="53.080231" lon="04.897519"><ele>2</ele><time>2021-12-08T13:20:06Z</time><name>PT2972</name></trkpt>
<trkpt lat="53.080243" lon="04.897527"><ele>2.1</ele><time>2021-12-08T13:20:06Z</time><name>PT2973</name></trkpt>
<trkpt lat="53.080252" lon="04.897534"><ele>2.5</ele><time>2021-12-08T13:20:08Z</time><name>PT2974</name></trkpt>
<trkpt lat="53.080261" lon="04.897542"><ele>2.9</ele><time>2021-12-08T13:20:09Z</time><name>PT2975</name></trkpt>
<trkpt lat="53.080271" lon="04.897551"><ele>2.8</ele><time>2021-12-08T13:20:09Z</time><name>PT2976</name></trkpt>
<trkpt lat="53.080281" lon="04.897560"><ele>2.7</ele><time>2021-12-08T13:20:11Z</time><name>PT2977</name></trkpt>
<trkpt lat="53.080292" lon="04.897570"><ele>2.5</ele><time>2021-12-08T13:20:12Z</time><name>PT2978</name></trkpt>
<trkpt lat="53.080303" lon="04.897578"><ele>2.5</ele><time>2021-12-08T13:20:12Z</time><name>PT2979</name></trkpt>
<trkpt lat="53.080315" lon="04.897586"><ele>2.9</ele><time>2021-12-08T13:20:14Z</time><name>PT2980</name></trkpt>
<trkpt lat="53.080325" lon="04.897595"><ele>3.1</ele><time>2021-12-08T13:20:15Z</time><name>PT2981</name></trkpt>
<trkpt lat="53.080335" lon="04.897604"><ele>3.3</ele><time>2021-12-08T13:20:15Z</time><name>PT2982</name></trkpt>
<trkpt lat="53.080345" lon="04.897613"><ele>3.5</ele><time>2021-12-08T13:20:17Z</time><name>PT2983</name></trkpt>
<trkpt lat="53.080355" lon="04.897624"><ele>3.2</ele><time>2021-12-08T13:20:18Z</time><name>PT2984</name></trkpt>
<trkpt lat="53.080366" lon="04.897634"><ele>3.2</ele><time>2021-12-08T13:20:18Z</time><name>PT2985</name></trkpt>
<trkpt lat="53.080376" lon="04.897643"><ele>3.2</ele><time>2021-12-08T13:20:20Z</time><name>PT2986</name></trkpt>
<trkpt lat="53.080387" lon="04.897650"><ele>3.2</ele><time>2021-12-08T13:20:21Z</time><name>PT2987</name></trkpt>
<trkpt lat="53.080398" lon="04.897657"><ele>3.2</ele><time>2021-12-08T13:20:21Z</time><name>PT2988</name></trkpt>
<trkpt lat="53.080409" lon="04.897664"><ele>3</ele><time>2021-12-08T13:20:23Z</time><name>PT2989</name></trkpt>
<trkpt lat="53.080419" lon="04.897673"><ele>3</ele><time>2021-12-08T13:20:24Z</time><name>PT2990</name></trkpt>
<trkpt lat="53.080430" lon="04.897682"><ele>3</ele><time>2021-12-08T13:20:24Z</time><name>PT2991</name></trkpt>
<trkpt lat="53.080441" lon="04.897692"><ele>3.2</ele><time>2021-12-08T13:20:26Z</time><name>PT2992</name></trkpt>
<trkpt lat="53.080451" lon="04.897700"><ele>3.3</ele><time>2021-12-08T13:20:27Z</time><name>PT2993</name></trkpt>
<trkpt lat="53.080460" lon="04.897710"><ele>3.4</ele><time>2021-12-08T13:20:27Z</time><name>PT2994</name></trkpt>
<trkpt lat="53.080471" lon="04.897718"><ele>3.2</ele><time>2021-12-08T13:20:29Z</time><name>PT2995</name></trkpt>
<trkpt lat="53.080482" lon="04.897724"><ele>3.2</ele><time>2021-12-08T13:20:30Z</time><name>PT2996</name></trkpt>
<trkpt lat="53.080493" lon="04.897730"><ele>3.1</ele><time>2021-12-08T13:20:30Z</time><name>PT2997</name></trkpt>
<trkpt lat="53.080502" lon="04.897737"><ele>3.2</ele><time>2021-12-08T13:20:32Z</time><name>PT2998</name></trkpt>
<trkpt lat="53.080512" lon="04.897747"><ele>3.5</ele><time>2021-12-08T13:20:33Z</time><name>PT2999</name></trkpt>
<trkpt lat="53.080522" lon="04.897756"><ele>3.3</ele><time>2021-12-08T13:20:33Z</time><name>PT3000</name></trkpt>
<trkpt lat="53.080527" lon="04.897767"><ele>3.2</ele><time>2021-12-08T13:20:35Z</time><name>PT3001</name></trkpt>
<trkpt lat="53.080530" lon="04.897771"><ele>2.5</ele><time>2021-12-08T13:20:36Z</time><name>PT3002</name></trkpt>
<trkpt lat="53.080530" lon="04.897770"><ele>1.8</ele><time>2021-12-08T13:20:36Z</time><name>PT3003</name></trkpt>
<trkpt lat="53.080530" lon="04.897771"><ele>0.7</ele><time>2021-12-08T13:20:38Z</time><name>PT3004</name></trkpt>
<trkpt lat="53.080532" lon="04.897773"><ele>1.4</ele><time>2021-12-08T13:20:45Z</time><name>PT3005</name></trkpt>
<trkpt lat="53.080541" lon="04.897777"><ele>1.9</ele><time>2021-12-08T13:20:45Z</time><name>PT3006</name></trkpt>
<trkpt lat="53.080550" lon="04.897785"><ele>2.9</ele><time>2021-12-08T13:20:47Z</time><name>PT3007</name></trkpt>
<trkpt lat="53.080559" lon="04.897791"><ele>3.4</ele><time>2021-12-08T13:20:48Z</time><name>PT3008</name></trkpt>
<trkpt lat="53.080569" lon="04.897796"><ele>3</ele><time>2021-12-08T13:20:48Z</time><name>PT3009</name></trkpt>
<trkpt lat="53.080578" lon="04.897802"><ele>2.9</ele><time>2021-12-08T13:20:50Z</time><name>PT3010</name></trkpt>
<trkpt lat="53.080587" lon="04.897808"><ele>2.9</ele><time>2021-12-08T13:20:51Z</time><name>PT3011</name></trkpt>
<trkpt lat="53.080596" lon="04.897816"><ele>3</ele><time>2021-12-08T13:20:51Z</time><name>PT3012</name></trkpt>
<trkpt lat="53.080605" lon="04.897823"><ele>3</ele><time>2021-12-08T13:20:53Z</time><name>PT3013</name></trkpt>
<trkpt lat="53.080616" lon="04.897830"><ele>3</ele><time>2021-12-08T13:20:54Z</time><name>PT3014</name></trkpt>
<trkpt lat="53.080626" lon="04.897837"><ele>3.1</ele><time>2021-12-08T13:20:54Z</time><name>PT3015</name></trkpt>
<trkpt lat="53.080636" lon="04.897844"><ele>3.1</ele><time>2021-12-08T13:20:56Z</time><name>PT3016</name></trkpt>
<trkpt lat="53.080645" lon="04.897852"><ele>3.3</ele><time>2021-12-08T13:20:57Z</time><name>PT3017</name></trkpt>
<trkpt lat="53.080655" lon="04.897862"><ele>3.3</ele><time>2021-12-08T13:20:57Z</time><name>PT3018</name></trkpt>
<trkpt lat="53.080665" lon="04.897871"><ele>3.2</ele><time>2021-12-08T13:20:59Z</time><name>PT3019</name></trkpt>
<trkpt lat="53.080675" lon="04.897880"><ele>3</ele><time>2021-12-08T13:21:00Z</time><name>PT3020</name></trkpt>
<trkpt lat="53.080685" lon="04.897887"><ele>3.1</ele><time>2021-12-08T13:21:00Z</time><name>PT3021</name></trkpt>
<trkpt lat="53.080696" lon="04.897893"><ele>3.2</ele><time>2021-12-08T13:21:02Z</time><name>PT3022</name></trkpt>
<trkpt lat="53.080706" lon="04.897901"><ele>3.5</ele><time>2021-12-08T13:21:03Z</time><name>PT3023</name></trkpt>
<trkpt lat="53.080715" lon="04.897910"><ele>3.5</ele><time>2021-12-08T13:21:03Z</time><name>PT3024</name></trkpt>
<trkpt lat="53.080724" lon="04.897919"><ele>3.4</ele><time>2021-12-08T13:21:05Z</time><name>PT3025</name></trkpt>
<trkpt lat="53.080733" lon="04.897926"><ele>3</ele><time>2021-12-08T13:21:06Z</time><name>PT3026</name></trkpt>
<trkpt lat="53.080744" lon="04.897934"><ele>2.8</ele><time>2021-12-08T13:21:06Z</time><name>PT3027</name></trkpt>
<trkpt lat="53.080753" lon="04.897942"><ele>2.4</ele><time>2021-12-08T13:21:08Z</time><name>PT3028</name></trkpt>
<trkpt lat="53.080763" lon="04.897949"><ele>2.4</ele><time>2021-12-08T13:21:09Z</time><name>PT3029</name></trkpt>
<trkpt lat="53.080774" lon="04.897958"><ele>2.4</ele><time>2021-12-08T13:21:09Z</time><name>PT3030</name></trkpt>
<trkpt lat="53.080784" lon="04.897966"><ele>2.5</ele><time>2021-12-08T13:21:11Z</time><name>PT3031</name></trkpt>
<trkpt lat="53.080795" lon="04.897974"><ele>2.7</ele><time>2021-12-08T13:21:12Z</time><name>PT3032</name></trkpt>
<trkpt lat="53.080805" lon="04.897980"><ele>2.8</ele><time>2021-12-08T13:21:12Z</time><name>PT3033</name></trkpt>
<trkpt lat="53.080815" lon="04.897985"><ele>2.9</ele><time>2021-12-08T13:21:14Z</time><name>PT3034</name></trkpt>
<trkpt lat="53.080823" lon="04.897994"><ele>2.9</ele><time>2021-12-08T13:21:15Z</time><name>PT3035</name></trkpt>
<trkpt lat="53.080832" lon="04.898002"><ele>2.9</ele><time>2021-12-08T13:21:15Z</time><name>PT3036</name></trkpt>
<trkpt lat="53.080841" lon="04.898011"><ele>2.7</ele><time>2021-12-08T13:21:17Z</time><name>PT3037</name></trkpt>
<trkpt lat="53.080851" lon="04.898018"><ele>2.7</ele><time>2021-12-08T13:21:18Z</time><name>PT3038</name></trkpt>
<trkpt lat="53.080861" lon="04.898024"><ele>2.6</ele><time>2021-12-08T13:21:18Z</time><name>PT3039</name></trkpt>
<trkpt lat="53.080871" lon="04.898029"><ele>2.6</ele><time>2021-12-08T13:21:20Z</time><name>PT3040</name></trkpt>
<trkpt lat="53.080881" lon="04.898037"><ele>2.7</ele><time>2021-12-08T13:21:21Z</time><name>PT3041</name></trkpt>
<trkpt lat="53.080890" lon="04.898045"><ele>2.7</ele><time>2021-12-08T13:21:21Z</time><name>PT3042</name></trkpt>
<trkpt lat="53.080899" lon="04.898052"><ele>2.6</ele><time>2021-12-08T13:21:23Z</time><name>PT3043</name></trkpt>
<trkpt lat="53.080909" lon="04.898059"><ele>2.7</ele><time>2021-12-08T13:21:24Z</time><name>PT3044</name></trkpt>
<trkpt lat="53.080919" lon="04.898065"><ele>2.5</ele><time>2021-12-08T13:21:24Z</time><name>PT3045</name></trkpt>
<trkpt lat="53.080929" lon="04.898071"><ele>2.5</ele><time>2021-12-08T13:21:26Z</time><name>PT3046</name></trkpt>
<trkpt lat="53.080938" lon="04.898079"><ele>2.5</ele><time>2021-12-08T13:21:27Z</time><name>PT3047</name></trkpt>
<trkpt lat="53.080948" lon="04.898088"><ele>2.5</ele><time>2021-12-08T13:21:27Z</time><name>PT3048</name></trkpt>
<trkpt lat="53.080958" lon="04.898096"><ele>2.5</ele><time>2021-12-08T13:21:29Z</time><name>PT3049</name></trkpt>
<trkpt lat="53.080969" lon="04.898103"><ele>2.6</ele><time>2021-12-08T13:21:30Z</time><name>PT3050</name></trkpt>
<trkpt lat="53.080978" lon="04.898110"><ele>2.8</ele><time>2021-12-08T13:21:30Z</time><name>PT3051</name></trkpt>
<trkpt lat="53.080988" lon="04.898118"><ele>3</ele><time>2021-12-08T13:21:32Z</time><name>PT3052</name></trkpt>
<trkpt lat="53.080998" lon="04.898126"><ele>2.9</ele><time>2021-12-08T13:21:33Z</time><name>PT3053</name></trkpt>
<trkpt lat="53.081008" lon="04.898134"><ele>2.9</ele><time>2021-12-08T13:21:33Z</time><name>PT3054</name></trkpt>
<trkpt lat="53.081018" lon="04.898142"><ele>2.8</ele><time>2021-12-08T13:21:35Z</time><name>PT3055</name></trkpt>
<trkpt lat="53.081027" lon="04.898151"><ele>2.9</ele><time>2021-12-08T13:21:36Z</time><name>PT3056</name></trkpt>
<trkpt lat="53.081037" lon="04.898159"><ele>2.9</ele><time>2021-12-08T13:21:36Z</time><name>PT3057</name></trkpt>
<trkpt lat="53.081048" lon="04.898164"><ele>3</ele><time>2021-12-08T13:21:38Z</time><name>PT3058</name></trkpt>
<trkpt lat="53.081058" lon="04.898170"><ele>3</ele><time>2021-12-08T13:21:39Z</time><name>PT3059</name></trkpt>
<trkpt lat="53.081069" lon="04.898178"><ele>3</ele><time>2021-12-08T13:21:39Z</time><name>PT3060</name></trkpt>
<trkpt lat="53.081079" lon="04.898188"><ele>3</ele><time>2021-12-08T13:21:41Z</time><name>PT3061</name></trkpt>
<trkpt lat="53.081089" lon="04.898197"><ele>3</ele><time>2021-12-08T13:21:42Z</time><name>PT3062</name></trkpt>
<trkpt lat="53.081100" lon="04.898203"><ele>2.9</ele><time>2021-12-08T13:21:42Z</time><name>PT3063</name></trkpt>
<trkpt lat="53.081111" lon="04.898209"><ele>2.9</ele><time>2021-12-08T13:21:44Z</time><name>PT3064</name></trkpt>
<trkpt lat="53.081120" lon="04.898215"><ele>2.8</ele><time>2021-12-08T13:21:45Z</time><name>PT3065</name></trkpt>
<trkpt lat="53.081131" lon="04.898223"><ele>2.8</ele><time>2021-12-08T13:21:45Z</time><name>PT3066</name></trkpt>
<trkpt lat="53.081141" lon="04.898234"><ele>2.9</ele><time>2021-12-08T13:21:47Z</time><name>PT3067</name></trkpt>
<trkpt lat="53.081151" lon="04.898241"><ele>3</ele><time>2021-12-08T13:21:48Z</time><name>PT3068</name></trkpt>
<trkpt lat="53.081161" lon="04.898248"><ele>3.1</ele><time>2021-12-08T13:21:48Z</time><name>PT3069</name></trkpt>
<trkpt lat="53.081172" lon="04.898255"><ele>3.1</ele><time>2021-12-08T13:21:50Z</time><name>PT3070</name></trkpt>
<trkpt lat="53.081183" lon="04.898260"><ele>3</ele><time>2021-12-08T13:21:51Z</time><name>PT3071</name></trkpt>
<trkpt lat="53.081193" lon="04.898266"><ele>3</ele><time>2021-12-08T13:21:51Z</time><name>PT3072</name></trkpt>
<trkpt lat="53.081204" lon="04.898273"><ele>2.6</ele><time>2021-12-08T13:21:53Z</time><name>PT3073</name></trkpt>
<trkpt lat="53.081216" lon="04.898283"><ele>2.5</ele><time>2021-12-08T13:21:54Z</time><name>PT3074</name></trkpt>
<trkpt lat="53.081227" lon="04.898292"><ele>2.4</ele><time>2021-12-08T13:21:54Z</time><name>PT3075</name></trkpt>
<trkpt lat="53.081238" lon="04.898299"><ele>2.3</ele><time>2021-12-08T13:21:56Z</time><name>PT3076</name></trkpt>
<trkpt lat="53.081250" lon="04.898305"><ele>2.3</ele><time>2021-12-08T13:21:57Z</time><name>PT3077</name></trkpt>
<trkpt lat="53.081261" lon="04.898312"><ele>2.4</ele><time>2021-12-08T13:21:57Z</time><name>PT3078</name></trkpt>
<trkpt lat="53.081272" lon="04.898320"><ele>2.6</ele><time>2021-12-08T13:21:59Z</time><name>PT3079</name></trkpt>
<trkpt lat="53.081284" lon="04.898327"><ele>2.6</ele><time>2021-12-08T13:22:00Z</time><name>PT3080</name></trkpt>
<trkpt lat="53.081295" lon="04.898335"><ele>2.5</ele><time>2021-12-08T13:22:00Z</time><name>PT3081</name></trkpt>
<trkpt lat="53.081305" lon="04.898342"><ele>2.5</ele><time>2021-12-08T13:22:02Z</time><name>PT3082</name></trkpt>
<trkpt lat="53.081316" lon="04.898349"><ele>2.5</ele><time>2021-12-08T13:22:03Z</time><name>PT3083</name></trkpt>
<trkpt lat="53.081329" lon="04.898354"><ele>2.5</ele><time>2021-12-08T13:22:03Z</time><name>PT3084</name></trkpt>
<trkpt lat="53.081341" lon="04.898360"><ele>2.8</ele><time>2021-12-08T13:22:05Z</time><name>PT3085</name></trkpt>
<trkpt lat="53.081352" lon="04.898365"><ele>2.9</ele><time>2021-12-08T13:22:06Z</time><name>PT3086</name></trkpt>
<trkpt lat="53.081363" lon="04.898373"><ele>2.8</ele><time>2021-12-08T13:22:06Z</time><name>PT3087</name></trkpt>
<trkpt lat="53.081375" lon="04.898380"><ele>2.8</ele><time>2021-12-08T13:22:08Z</time><name>PT3088</name></trkpt>
<trkpt lat="53.081386" lon="04.898388"><ele>2.7</ele><time>2021-12-08T13:22:09Z</time><name>PT3089</name></trkpt>
<trkpt lat="53.081397" lon="04.898395"><ele>2.9</ele><time>2021-12-08T13:22:09Z</time><name>PT3090</name></trkpt>
<trkpt lat="53.081408" lon="04.898402"><ele>2.9</ele><time>2021-12-08T13:22:11Z</time><name>PT3091</name></trkpt>
<trkpt lat="53.081419" lon="04.898408"><ele>2.7</ele><time>2021-12-08T13:22:12Z</time><name>PT3092</name></trkpt>
<trkpt lat="53.081430" lon="04.898414"><ele>2.8</ele><time>2021-12-08T13:22:12Z</time><name>PT3093</name></trkpt>
<trkpt lat="53.081441" lon="04.898420"><ele>2.8</ele><time>2021-12-08T13:22:14Z</time><name>PT3094</name></trkpt>
<trkpt lat="53.081452" lon="04.898427"><ele>3</ele><time>2021-12-08T13:22:15Z</time><name>PT3095</name></trkpt>
<trkpt lat="53.081463" lon="04.898437"><ele>3.2</ele><time>2021-12-08T13:22:15Z</time><name>PT3096</name></trkpt>
<trkpt lat="53.081473" lon="04.898446"><ele>3.4</ele><time>2021-12-08T13:22:17Z</time><name>PT3097</name></trkpt>
<trkpt lat="53.081484" lon="04.898454"><ele>3.5</ele><time>2021-12-08T13:22:18Z</time><name>PT3098</name></trkpt>
<trkpt lat="53.081496" lon="04.898461"><ele>3.8</ele><time>2021-12-08T13:22:18Z</time><name>PT3099</name></trkpt>
<trkpt lat="53.081508" lon="04.898466"><ele>3.6</ele><time>2021-12-08T13:22:20Z</time><name>PT3100</name></trkpt>
<trkpt lat="53.081519" lon="04.898473"><ele>3.7</ele><time>2021-12-08T13:22:21Z</time><name>PT3101</name></trkpt>
<trkpt lat="53.081530" lon="04.898479"><ele>3.8</ele><time>2021-12-08T13:22:21Z</time><name>PT3102</name></trkpt>
<trkpt lat="53.081541" lon="04.898486"><ele>3.8</ele><time>2021-12-08T13:22:23Z</time><name>PT3103</name></trkpt>
<trkpt lat="53.081552" lon="04.898492"><ele>4</ele><time>2021-12-08T13:22:24Z</time><name>PT3104</name></trkpt>
<trkpt lat="53.081564" lon="04.898500"><ele>3.8</ele><time>2021-12-08T13:22:24Z</time><name>PT3105</name></trkpt>
<trkpt lat="53.081575" lon="04.898507"><ele>3.7</ele><time>2021-12-08T13:22:26Z</time><name>PT3106</name></trkpt>
<trkpt lat="53.081586" lon="04.898514"><ele>3.6</ele><time>2021-12-08T13:22:27Z</time><name>PT3107</name></trkpt>
<trkpt lat="53.081597" lon="04.898520"><ele>3.4</ele><time>2021-12-08T13:22:27Z</time><name>PT3108</name></trkpt>
<trkpt lat="53.081609" lon="04.898525"><ele>3.3</ele><time>2021-12-08T13:22:29Z</time><name>PT3109</name></trkpt>
<trkpt lat="53.081620" lon="04.898532"><ele>3.3</ele><time>2021-12-08T13:22:30Z</time><name>PT3110</name></trkpt>
<trkpt lat="53.081631" lon="04.898540"><ele>3.3</ele><time>2021-12-08T13:22:30Z</time><name>PT3111</name></trkpt>
<trkpt lat="53.081641" lon="04.898548"><ele>3.3</ele><time>2021-12-08T13:22:32Z</time><name>PT3112</name></trkpt>
<trkpt lat="53.081652" lon="04.898557"><ele>3.3</ele><time>2021-12-08T13:22:33Z</time><name>PT3113</name></trkpt>
<trkpt lat="53.081662" lon="04.898564"><ele>3.2</ele><time>2021-12-08T13:22:33Z</time><name>PT3114</name></trkpt>
<trkpt lat="53.081675" lon="04.898572"><ele>3.1</ele><time>2021-12-08T13:22:35Z</time><name>PT3115</name></trkpt>
<trkpt lat="53.081687" lon="04.898579"><ele>3.1</ele><time>2021-12-08T13:22:36Z</time><name>PT3116</name></trkpt>
<trkpt lat="53.081698" lon="04.898584"><ele>3.1</ele><time>2021-12-08T13:22:36Z</time><name>PT3117</name></trkpt>
<trkpt lat="53.081708" lon="04.898588"><ele>3.3</ele><time>2021-12-08T13:22:38Z</time><name>PT3118</name></trkpt>
<trkpt lat="53.081718" lon="04.898594"><ele>3.4</ele><time>2021-12-08T13:22:39Z</time><name>PT3119</name></trkpt>
<trkpt lat="53.081730" lon="04.898603"><ele>3.6</ele><time>2021-12-08T13:22:39Z</time><name>PT3120</name></trkpt>
<trkpt lat="53.081740" lon="04.898611"><ele>3.5</ele><time>2021-12-08T13:22:41Z</time><name>PT3121</name></trkpt>
<trkpt lat="53.081751" lon="04.898619"><ele>3.6</ele><time>2021-12-08T13:22:42Z</time><name>PT3122</name></trkpt>
<trkpt lat="53.081762" lon="04.898626"><ele>3.6</ele><time>2021-12-08T13:22:42Z</time><name>PT3123</name></trkpt>
<trkpt lat="53.081773" lon="04.898632"><ele>3.5</ele><time>2021-12-08T13:22:44Z</time><name>PT3124</name></trkpt>
<trkpt lat="53.081784" lon="04.898636"><ele>3.2</ele><time>2021-12-08T13:22:45Z</time><name>PT3125</name></trkpt>
<trkpt lat="53.081795" lon="04.898640"><ele>3</ele><time>2021-12-08T13:22:45Z</time><name>PT3126</name></trkpt>
<trkpt lat="53.081805" lon="04.898646"><ele>2.7</ele><time>2021-12-08T13:22:47Z</time><name>PT3127</name></trkpt>
<trkpt lat="53.081816" lon="04.898652"><ele>2.7</ele><time>2021-12-08T13:22:48Z</time><name>PT3128</name></trkpt>
<trkpt lat="53.081827" lon="04.898661"><ele>2.8</ele><time>2021-12-08T13:22:48Z</time><name>PT3129</name></trkpt>
<trkpt lat="53.081837" lon="04.898668"><ele>3</ele><time>2021-12-08T13:22:50Z</time><name>PT3130</name></trkpt>
<trkpt lat="53.081848" lon="04.898675"><ele>3.3</ele><time>2021-12-08T13:22:51Z</time><name>PT3131</name></trkpt>
<trkpt lat="53.081859" lon="04.898680"><ele>3.3</ele><time>2021-12-08T13:22:51Z</time><name>PT3132</name></trkpt>
<trkpt lat="53.081869" lon="04.898686"><ele>3.4</ele><time>2021-12-08T13:22:53Z</time><name>PT3133</name></trkpt>
<trkpt lat="53.081879" lon="04.898693"><ele>3.4</ele><time>2021-12-08T13:22:54Z</time><name>PT3134</name></trkpt>
<trkpt lat="53.081890" lon="04.898699"><ele>3.5</ele><time>2021-12-08T13:22:54Z</time><name>PT3135</name></trkpt>
<trkpt lat="53.081900" lon="04.898705"><ele>3.7</ele><time>2021-12-08T13:22:56Z</time><name>PT3136</name></trkpt>
<trkpt lat="53.081910" lon="04.898712"><ele>3.7</ele><time>2021-12-08T13:22:57Z</time><name>PT3137</name></trkpt>
<trkpt lat="53.081921" lon="04.898719"><ele>3.6</ele><time>2021-12-08T13:22:57Z</time><name>PT3138</name></trkpt>
<trkpt lat="53.081932" lon="04.898725"><ele>3.4</ele><time>2021-12-08T13:22:59Z</time><name>PT3139</name></trkpt>
<trkpt lat="53.081943" lon="04.898730"><ele>3.4</ele><time>2021-12-08T13:23:00Z</time><name>PT3140</name></trkpt>
<trkpt lat="53.081953" lon="04.898734"><ele>3.3</ele><time>2021-12-08T13:23:00Z</time><name>PT3141</name></trkpt>
<trkpt lat="53.081963" lon="04.898741"><ele>3.6</ele><time>2021-12-08T13:23:02Z</time><name>PT3142</name></trkpt>
<trkpt lat="53.081974" lon="04.898749"><ele>3.9</ele><time>2021-12-08T13:23:03Z</time><name>PT3143</name></trkpt>
<trkpt lat="53.081984" lon="04.898754"><ele>4.1</ele><time>2021-12-08T13:23:03Z</time><name>PT3144</name></trkpt>
<trkpt lat="53.081994" lon="04.898763"><ele>4</ele><time>2021-12-08T13:23:05Z</time><name>PT3145</name></trkpt>
<trkpt lat="53.082004" lon="04.898767"><ele>3.6</ele><time>2021-12-08T13:23:06Z</time><name>PT3146</name></trkpt>
<trkpt lat="53.082014" lon="04.898770"><ele>3.5</ele><time>2021-12-08T13:23:06Z</time><name>PT3147</name></trkpt>
<trkpt lat="53.082023" lon="04.898772"><ele>3.3</ele><time>2021-12-08T13:23:08Z</time><name>PT3148</name></trkpt>
<trkpt lat="53.082032" lon="04.898778"><ele>3.2</ele><time>2021-12-08T13:23:09Z</time><name>PT3149</name></trkpt>
<trkpt lat="53.082042" lon="04.898786"><ele>3.4</ele><time>2021-12-08T13:23:09Z</time><name>PT3150</name></trkpt>
<trkpt lat="53.082053" lon="04.898794"><ele>3.5</ele><time>2021-12-08T13:23:11Z</time><name>PT3151</name></trkpt>
<trkpt lat="53.082063" lon="04.898802"><ele>3.5</ele><time>2021-12-08T13:23:12Z</time><name>PT3152</name></trkpt>
<trkpt lat="53.082074" lon="04.898808"><ele>3.5</ele><time>2021-12-08T13:23:12Z</time><name>PT3153</name></trkpt>
<trkpt lat="53.082085" lon="04.898812"><ele>3.4</ele><time>2021-12-08T13:23:14Z</time><name>PT3154</name></trkpt>
<trkpt lat="53.082096" lon="04.898818"><ele>3.2</ele><time>2021-12-08T13:23:15Z</time><name>PT3155</name></trkpt>
<trkpt lat="53.082107" lon="04.898826"><ele>3</ele><time>2021-12-08T13:23:15Z</time><name>PT3156</name></trkpt>
<trkpt lat="53.082118" lon="04.898833"><ele>2.9</ele><time>2021-12-08T13:23:17Z</time><name>PT3157</name></trkpt>
<trkpt lat="53.082129" lon="04.898840"><ele>2.9</ele><time>2021-12-08T13:23:18Z</time><name>PT3158</name></trkpt>
<trkpt lat="53.082141" lon="04.898846"><ele>2.8</ele><time>2021-12-08T13:23:18Z</time><name>PT3159</name></trkpt>
<trkpt lat="53.082152" lon="04.898851"><ele>3.1</ele><time>2021-12-08T13:23:20Z</time><name>PT3160</name></trkpt>
<trkpt lat="53.082164" lon="04.898856"><ele>3.5</ele><time>2021-12-08T13:23:21Z</time><name>PT3161</name></trkpt>
<trkpt lat="53.082175" lon="04.898861"><ele>3.5</ele><time>2021-12-08T13:23:21Z</time><name>PT3162</name></trkpt>
<trkpt lat="53.082186" lon="04.898865"><ele>3.6</ele><time>2021-12-08T13:23:23Z</time><name>PT3163</name></trkpt>
<trkpt lat="53.082198" lon="04.898871"><ele>3.5</ele><time>2021-12-08T13:23:24Z</time><name>PT3164</name></trkpt>
<trkpt lat="53.082209" lon="04.898879"><ele>3.5</ele><time>2021-12-08T13:23:24Z</time><name>PT3165</name></trkpt>
<trkpt lat="53.082221" lon="04.898886"><ele>3.3</ele><time>2021-12-08T13:23:26Z</time><name>PT3166</name></trkpt>
<trkpt lat="53.082232" lon="04.898893"><ele>3.4</ele><time>2021-12-08T13:23:27Z</time><name>PT3167</name></trkpt>
<trkpt lat="53.082243" lon="04.898899"><ele>3.5</ele><time>2021-12-08T13:23:27Z</time><name>PT3168</name></trkpt>
<trkpt lat="53.082255" lon="04.898903"><ele>3.5</ele><time>2021-12-08T13:23:29Z</time><name>PT3169</name></trkpt>
<trkpt lat="53.082266" lon="04.898908"><ele>3.6</ele><time>2021-12-08T13:23:30Z</time><name>PT3170</name></trkpt>
<trkpt lat="53.082277" lon="04.898914"><ele>3.4</ele><time>2021-12-08T13:23:30Z</time><name>PT3171</name></trkpt>
<trkpt lat="53.082288" lon="04.898921"><ele>3.5</ele><time>2021-12-08T13:23:32Z</time><name>PT3172</name></trkpt>
<trkpt lat="53.082299" lon="04.898928"><ele>3.1</ele><time>2021-12-08T13:23:33Z</time><name>PT3173</name></trkpt>
<trkpt lat="53.082311" lon="04.898935"><ele>3.4</ele><time>2021-12-08T13:23:33Z</time><name>PT3174</name></trkpt>
<trkpt lat="53.082322" lon="04.898941"><ele>3.3</ele><time>2021-12-08T13:23:35Z</time><name>PT3175</name></trkpt>
<trkpt lat="53.082334" lon="04.898947"><ele>3.1</ele><time>2021-12-08T13:23:36Z</time><name>PT3176</name></trkpt>
<trkpt lat="53.082345" lon="04.898950"><ele>3.2</ele><time>2021-12-08T13:23:36Z</time><name>PT3177</name></trkpt>
<trkpt lat="53.082356" lon="04.898954"><ele>3.1</ele><time>2021-12-08T13:23:38Z</time><name>PT3178</name></trkpt>
<trkpt lat="53.082367" lon="04.898958"><ele>3.1</ele><time>2021-12-08T13:23:39Z</time><name>PT3179</name></trkpt>
<trkpt lat="53.082377" lon="04.898964"><ele>3.1</ele><time>2021-12-08T13:23:39Z</time><name>PT3180</name></trkpt>
<trkpt lat="53.082389" lon="04.898970"><ele>3.1</ele><time>2021-12-08T13:23:41Z</time><name>PT3181</name></trkpt>
<trkpt lat="53.082400" lon="04.898978"><ele>3.1</ele><time>2021-12-08T13:23:42Z</time><name>PT3182</name></trkpt>
<trkpt lat="53.082412" lon="04.898983"><ele>3.1</ele><time>2021-12-08T13:23:42Z</time><name>PT3183</name></trkpt>
<trkpt lat="53.082423" lon="04.898988"><ele>3.3</ele><time>2021-12-08T13:23:44Z</time><name>PT3184</name></trkpt>
<trkpt lat="53.082435" lon="04.898993"><ele>3.6</ele><time>2021-12-08T13:23:45Z</time><name>PT3185</name></trkpt>
<trkpt lat="53.082446" lon="04.898998"><ele>3.6</ele><time>2021-12-08T13:23:45Z</time><name>PT3186</name></trkpt>
<trkpt lat="53.082458" lon="04.899003"><ele>3.5</ele><time>2021-12-08T13:23:47Z</time><name>PT3187</name></trkpt>
<trkpt lat="53.082470" lon="04.899008"><ele>3.5</ele><time>2021-12-08T13:23:48Z</time><name>PT3188</name></trkpt>
<trkpt lat="53.082482" lon="04.899013"><ele>3.4</ele><time>2021-12-08T13:23:48Z</time><name>PT3189</name></trkpt>
<trkpt lat="53.082495" lon="04.899020"><ele>3.4</ele><time>2021-12-08T13:23:50Z</time><name>PT3190</name></trkpt>
<trkpt lat="53.082507" lon="04.899027"><ele>3.3</ele><time>2021-12-08T13:23:51Z</time><name>PT3191</name></trkpt>
<trkpt lat="53.082518" lon="04.899033"><ele>3</ele><time>2021-12-08T13:23:51Z</time><name>PT3192</name></trkpt>
<trkpt lat="53.082530" lon="04.899036"><ele>2.9</ele><time>2021-12-08T13:23:53Z</time><name>PT3193</name></trkpt>
<trkpt lat="53.082543" lon="04.899041"><ele>3</ele><time>2021-12-08T13:23:54Z</time><name>PT3194</name></trkpt>
<trkpt lat="53.082555" lon="04.899045"><ele>3.1</ele><time>2021-12-08T13:23:54Z</time><name>PT3195</name></trkpt>
<trkpt lat="53.082566" lon="04.899050"><ele>3.3</ele><time>2021-12-08T13:23:56Z</time><name>PT3196</name></trkpt>
<trkpt lat="53.082576" lon="04.899055"><ele>3.3</ele><time>2021-12-08T13:23:57Z</time><name>PT3197</name></trkpt>
<trkpt lat="53.082588" lon="04.899060"><ele>3.2</ele><time>2021-12-08T13:23:57Z</time><name>PT3198</name></trkpt>
<trkpt lat="53.082599" lon="04.899066"><ele>3.1</ele><time>2021-12-08T13:23:59Z</time><name>PT3199</name></trkpt>
<trkpt lat="53.082612" lon="04.899075"><ele>3.3</ele><time>2021-12-08T13:24:00Z</time><name>PT3200</name></trkpt>
<trkpt lat="53.082624" lon="04.899083"><ele>3.4</ele><time>2021-12-08T13:24:00Z</time><name>PT3201</name></trkpt>
<trkpt lat="53.082636" lon="04.899090"><ele>3.5</ele><time>2021-12-08T13:24:02Z</time><name>PT3202</name></trkpt>
<trkpt lat="53.082648" lon="04.899094"><ele>3.5</ele><time>2021-12-08T13:24:03Z</time><name>PT3203</name></trkpt>
<trkpt lat="53.082659" lon="04.899096"><ele>3.4</ele><time>2021-12-08T13:24:03Z</time><name>PT3204</name></trkpt>
<trkpt lat="53.082672" lon="04.899098"><ele>3.1</ele><time>2021-12-08T13:24:05Z</time><name>PT3205</name></trkpt>
<trkpt lat="53.082683" lon="04.899102"><ele>3.1</ele><time>2021-12-08T13:24:06Z</time><name>PT3206</name></trkpt>
<trkpt lat="53.082695" lon="04.899110"><ele>3</ele><time>2021-12-08T13:24:06Z</time><name>PT3207</name></trkpt>
<trkpt lat="53.082706" lon="04.899118"><ele>3.1</ele><time>2021-12-08T13:24:08Z</time><name>PT3208</name></trkpt>
<trkpt lat="53.082718" lon="04.899125"><ele>3.5</ele><time>2021-12-08T13:24:09Z</time><name>PT3209</name></trkpt>
<trkpt lat="53.082729" lon="04.899128"><ele>3.6</ele><time>2021-12-08T13:24:09Z</time><name>PT3210</name></trkpt>
<trkpt lat="53.082741" lon="04.899132"><ele>3.8</ele><time>2021-12-08T13:24:11Z</time><name>PT3211</name></trkpt>
<trkpt lat="53.082752" lon="04.899136"><ele>3.8</ele><time>2021-12-08T13:24:12Z</time><name>PT3212</name></trkpt>
<trkpt lat="53.082764" lon="04.899139"><ele>3.5</ele><time>2021-12-08T13:24:12Z</time><name>PT3213</name></trkpt>
<trkpt lat="53.082775" lon="04.899145"><ele>3.5</ele><time>2021-12-08T13:24:14Z</time><name>PT3214</name></trkpt>
<trkpt lat="53.082788" lon="04.899153"><ele>3.4</ele><time>2021-12-08T13:24:15Z</time><name>PT3215</name></trkpt>
<trkpt lat="53.082800" lon="04.899160"><ele>3.4</ele><time>2021-12-08T13:24:15Z</time><name>PT3216</name></trkpt>
<trkpt lat="53.082811" lon="04.899166"><ele>3.4</ele><time>2021-12-08T13:24:17Z</time><name>PT3217</name></trkpt>
<trkpt lat="53.082823" lon="04.899168"><ele>3.5</ele><time>2021-12-08T13:24:18Z</time><name>PT3218</name></trkpt>
<trkpt lat="53.082836" lon="04.899171"><ele>3.5</ele><time>2021-12-08T13:24:18Z</time><name>PT3219</name></trkpt>
<trkpt lat="53.082847" lon="04.899175"><ele>3.5</ele><time>2021-12-08T13:24:20Z</time><name>PT3220</name></trkpt>
<trkpt lat="53.082858" lon="04.899180"><ele>3.6</ele><time>2021-12-08T13:24:21Z</time><name>PT3221</name></trkpt>
<trkpt lat="53.082868" lon="04.899186"><ele>3.5</ele><time>2021-12-08T13:24:21Z</time><name>PT3222</name></trkpt>
<trkpt lat="53.082880" lon="04.899192"><ele>3.4</ele><time>2021-12-08T13:24:23Z</time><name>PT3223</name></trkpt>
<trkpt lat="53.082890" lon="04.899198"><ele>3.4</ele><time>2021-12-08T13:24:24Z</time><name>PT3224</name></trkpt>
<trkpt lat="53.082902" lon="04.899203"><ele>3.3</ele><time>2021-12-08T13:24:24Z</time><name>PT3225</name></trkpt>
<trkpt lat="53.082915" lon="04.899208"><ele>3.3</ele><time>2021-12-08T13:24:26Z</time><name>PT3226</name></trkpt>
<trkpt lat="53.082927" lon="04.899212"><ele>3.4</ele><time>2021-12-08T13:24:27Z</time><name>PT3227</name></trkpt>
<trkpt lat="53.082940" lon="04.899216"><ele>3.3</ele><time>2021-12-08T13:24:27Z</time><name>PT3228</name></trkpt>
<trkpt lat="53.082951" lon="04.899220"><ele>3.5</ele><time>2021-12-08T13:24:29Z</time><name>PT3229</name></trkpt>
<trkpt lat="53.082961" lon="04.899224"><ele>3.4</ele><time>2021-12-08T13:24:30Z</time><name>PT3230</name></trkpt>
<trkpt lat="53.082973" lon="04.899231"><ele>3.3</ele><time>2021-12-08T13:24:30Z</time><name>PT3231</name></trkpt>
<trkpt lat="53.082983" lon="04.899237"><ele>3.3</ele><time>2021-12-08T13:24:32Z</time><name>PT3232</name></trkpt>
<trkpt lat="53.082994" lon="04.899240"><ele>3.3</ele><time>2021-12-08T13:24:33Z</time><name>PT3233</name></trkpt>
<trkpt lat="53.083004" lon="04.899244"><ele>3.1</ele><time>2021-12-08T13:24:33Z</time><name>PT3234</name></trkpt>
<trkpt lat="53.083015" lon="04.899248"><ele>3.2</ele><time>2021-12-08T13:24:35Z</time><name>PT3235</name></trkpt>
<trkpt lat="53.083026" lon="04.899250"><ele>3</ele><time>2021-12-08T13:24:36Z</time><name>PT3236</name></trkpt>
<trkpt lat="53.083038" lon="04.899253"><ele>3</ele><time>2021-12-08T13:24:36Z</time><name>PT3237</name></trkpt>
<trkpt lat="53.083049" lon="04.899259"><ele>3.1</ele><time>2021-12-08T13:24:38Z</time><name>PT3238</name></trkpt>
<trkpt lat="53.083061" lon="04.899266"><ele>3.1</ele><time>2021-12-08T13:24:39Z</time><name>PT3239</name></trkpt>
<trkpt lat="53.083071" lon="04.899271"><ele>3.3</ele><time>2021-12-08T13:24:39Z</time><name>PT3240</name></trkpt>
<trkpt lat="53.083083" lon="04.899278"><ele>3.6</ele><time>2021-12-08T13:24:41Z</time><name>PT3241</name></trkpt>
<trkpt lat="53.083096" lon="04.899282"><ele>3.7</ele><time>2021-12-08T13:24:42Z</time><name>PT3242</name></trkpt>
<trkpt lat="53.083108" lon="04.899285"><ele>3.6</ele><time>2021-12-08T13:24:42Z</time><name>PT3243</name></trkpt>
<trkpt lat="53.083121" lon="04.899289"><ele>3.5</ele><time>2021-12-08T13:24:44Z</time><name>PT3244</name></trkpt>
<trkpt lat="53.083132" lon="04.899293"><ele>3.2</ele><time>2021-12-08T13:24:45Z</time><name>PT3245</name></trkpt>
<trkpt lat="53.083143" lon="04.899297"><ele>3</ele><time>2021-12-08T13:24:45Z</time><name>PT3246</name></trkpt>
<trkpt lat="53.083154" lon="04.899303"><ele>3.2</ele><time>2021-12-08T13:24:47Z</time><name>PT3247</name></trkpt>
<trkpt lat="53.083165" lon="04.899310"><ele>3.2</ele><time>2021-12-08T13:24:48Z</time><name>PT3248</name></trkpt>
<trkpt lat="53.083177" lon="04.899314"><ele>3.1</ele><time>2021-12-08T13:24:48Z</time><name>PT3249</name></trkpt>
<trkpt lat="53.083190" lon="04.899318"><ele>3.3</ele><time>2021-12-08T13:24:50Z</time><name>PT3250</name></trkpt>
<trkpt lat="53.083203" lon="04.899322"><ele>3</ele><time>2021-12-08T13:24:51Z</time><name>PT3251</name></trkpt>
<trkpt lat="53.083213" lon="04.899325"><ele>3</ele><time>2021-12-08T13:24:51Z</time><name>PT3252</name></trkpt>
<trkpt lat="53.083224" lon="04.899330"><ele>3</ele><time>2021-12-08T13:24:53Z</time><name>PT3253</name></trkpt>
<trkpt lat="53.083235" lon="04.899336"><ele>3</ele><time>2021-12-08T13:24:54Z</time><name>PT3254</name></trkpt>
<trkpt lat="53.083246" lon="04.899342"><ele>2.9</ele><time>2021-12-08T13:24:54Z</time><name>PT3255</name></trkpt>
<trkpt lat="53.083257" lon="04.899347"><ele>2.8</ele><time>2021-12-08T13:24:56Z</time><name>PT3256</name></trkpt>
<trkpt lat="53.083267" lon="04.899352"><ele>2.5</ele><time>2021-12-08T13:24:57Z</time><name>PT3257</name></trkpt>
<trkpt lat="53.083279" lon="04.899356"><ele>2.5</ele><time>2021-12-08T13:24:57Z</time><name>PT3258</name></trkpt>
<trkpt lat="53.083291" lon="04.899359"><ele>2.3</ele><time>2021-12-08T13:24:59Z</time><name>PT3259</name></trkpt>
<trkpt lat="53.083303" lon="04.899363"><ele>2.4</ele><time>2021-12-08T13:25:00Z</time><name>PT3260</name></trkpt>
<trkpt lat="53.083315" lon="04.899368"><ele>2.5</ele><time>2021-12-08T13:25:00Z</time><name>PT3261</name></trkpt>
<trkpt lat="53.083327" lon="04.899374"><ele>2.5</ele><time>2021-12-08T13:25:02Z</time><name>PT3262</name></trkpt>
<trkpt lat="53.083339" lon="04.899380"><ele>2.7</ele><time>2021-12-08T13:25:03Z</time><name>PT3263</name></trkpt>
<trkpt lat="53.083350" lon="04.899385"><ele>2.7</ele><time>2021-12-08T13:25:03Z</time><name>PT3264</name></trkpt>
<trkpt lat="53.083363" lon="04.899391"><ele>2.5</ele><time>2021-12-08T13:25:05Z</time><name>PT3265</name></trkpt>
<trkpt lat="53.083375" lon="04.899395"><ele>2.5</ele><time>2021-12-08T13:25:06Z</time><name>PT3266</name></trkpt>
<trkpt lat="53.083386" lon="04.899397"><ele>2.6</ele><time>2021-12-08T13:25:06Z</time><name>PT3267</name></trkpt>
<trkpt lat="53.083396" lon="04.899402"><ele>2.6</ele><time>2021-12-08T13:25:08Z</time><name>PT3268</name></trkpt>
<trkpt lat="53.083407" lon="04.899406"><ele>2.6</ele><time>2021-12-08T13:25:09Z</time><name>PT3269</name></trkpt>
<trkpt lat="53.083419" lon="04.899411"><ele>2.6</ele><time>2021-12-08T13:25:09Z</time><name>PT3270</name></trkpt>
<trkpt lat="53.083429" lon="04.899414"><ele>2.7</ele><time>2021-12-08T13:25:11Z</time><name>PT3271</name></trkpt>
<trkpt lat="53.083440" lon="04.899417"><ele>2.7</ele><time>2021-12-08T13:25:12Z</time><name>PT3272</name></trkpt>
<trkpt lat="53.083452" lon="04.899420"><ele>2.6</ele><time>2021-12-08T13:25:12Z</time><name>PT3273</name></trkpt>
<trkpt lat="53.083465" lon="04.899424"><ele>2.9</ele><time>2021-12-08T13:25:14Z</time><name>PT3274</name></trkpt>
<trkpt lat="53.083476" lon="04.899427"><ele>2.7</ele><time>2021-12-08T13:25:15Z</time><name>PT3275</name></trkpt>
<trkpt lat="53.083486" lon="04.899430"><ele>2.8</ele><time>2021-12-08T13:25:15Z</time><name>PT3276</name></trkpt>
<trkpt lat="53.083498" lon="04.899434"><ele>2.6</ele><time>2021-12-08T13:25:17Z</time><name>PT3277</name></trkpt>
<trkpt lat="53.083510" lon="04.899438"><ele>2.6</ele><time>2021-12-08T13:25:18Z</time><name>PT3278</name></trkpt>
<trkpt lat="53.083520" lon="04.899444"><ele>2.5</ele><time>2021-12-08T13:25:18Z</time><name>PT3279</name></trkpt>
<trkpt lat="53.083531" lon="04.899449"><ele>2.5</ele><time>2021-12-08T13:25:20Z</time><name>PT3280</name></trkpt>
<trkpt lat="53.083544" lon="04.899452"><ele>2.4</ele><time>2021-12-08T13:25:21Z</time><name>PT3281</name></trkpt>
<trkpt lat="53.083556" lon="04.899455"><ele>2.4</ele><time>2021-12-08T13:25:21Z</time><name>PT3282</name></trkpt>
<trkpt lat="53.083567" lon="04.899457"><ele>2.4</ele><time>2021-12-08T13:25:23Z</time><name>PT3283</name></trkpt>
<trkpt lat="53.083578" lon="04.899461"><ele>2.4</ele><time>2021-12-08T13:25:24Z</time><name>PT3284</name></trkpt>
<trkpt lat="53.083591" lon="04.899467"><ele>2.8</ele><time>2021-12-08T13:25:24Z</time><name>PT3285</name></trkpt>
<trkpt lat="53.083603" lon="04.899471"><ele>3</ele><time>2021-12-08T13:25:26Z</time><name>PT3286</name></trkpt>
<trkpt lat="53.083614" lon="04.899475"><ele>3</ele><time>2021-12-08T13:25:27Z</time><name>PT3287</name></trkpt>
<trkpt lat="53.083627" lon="04.899479"><ele>3</ele><time>2021-12-08T13:25:27Z</time><name>PT3288</name></trkpt>
<trkpt lat="53.083639" lon="04.899483"><ele>3</ele><time>2021-12-08T13:25:29Z</time><name>PT3289</name></trkpt>
<trkpt lat="53.083652" lon="04.899486"><ele>3.2</ele><time>2021-12-08T13:25:30Z</time><name>PT3290</name></trkpt>
<trkpt lat="53.083664" lon="04.899490"><ele>3.4</ele><time>2021-12-08T13:25:30Z</time><name>PT3291</name></trkpt>
<trkpt lat="53.083675" lon="04.899495"><ele>3.5</ele><time>2021-12-08T13:25:32Z</time><name>PT3292</name></trkpt>
<trkpt lat="53.083688" lon="04.899499"><ele>3.7</ele><time>2021-12-08T13:25:33Z</time><name>PT3293</name></trkpt>
<trkpt lat="53.083701" lon="04.899504"><ele>3.7</ele><time>2021-12-08T13:25:33Z</time><name>PT3294</name></trkpt>
<trkpt lat="53.083713" lon="04.899510"><ele>3.5</ele><time>2021-12-08T13:25:35Z</time><name>PT3295</name></trkpt>
<trkpt lat="53.083725" lon="04.899514"><ele>3.5</ele><time>2021-12-08T13:25:36Z</time><name>PT3296</name></trkpt>
<trkpt lat="53.083736" lon="04.899518"><ele>3.5</ele><time>2021-12-08T13:25:36Z</time><name>PT3297</name></trkpt>
<trkpt lat="53.083748" lon="04.899521"><ele>3.4</ele><time>2021-12-08T13:25:38Z</time><name>PT3298</name></trkpt>
<trkpt lat="53.083760" lon="04.899524"><ele>3.5</ele><time>2021-12-08T13:25:39Z</time><name>PT3299</name></trkpt>
<trkpt lat="53.083771" lon="04.899527"><ele>3.6</ele><time>2021-12-08T13:25:39Z</time><name>PT3300</name></trkpt>
<trkpt lat="53.083782" lon="04.899530"><ele>3.5</ele><time>2021-12-08T13:25:41Z</time><name>PT3301</name></trkpt>
<trkpt lat="53.083795" lon="04.899535"><ele>3.5</ele><time>2021-12-08T13:25:42Z</time><name>PT3302</name></trkpt>
<trkpt lat="53.083807" lon="04.899539"><ele>3.5</ele><time>2021-12-08T13:25:42Z</time><name>PT3303</name></trkpt>
<trkpt lat="53.083818" lon="04.899543"><ele>3.5</ele><time>2021-12-08T13:25:44Z</time><name>PT3304</name></trkpt>
<trkpt lat="53.083830" lon="04.899546"><ele>3.5</ele><time>2021-12-08T13:25:45Z</time><name>PT3305</name></trkpt>
<trkpt lat="53.083841" lon="04.899550"><ele>3.5</ele><time>2021-12-08T13:25:45Z</time><name>PT3306</name></trkpt>
<trkpt lat="53.083853" lon="04.899552"><ele>3.3</ele><time>2021-12-08T13:25:47Z</time><name>PT3307</name></trkpt>
<trkpt lat="53.083865" lon="04.899556"><ele>3.1</ele><time>2021-12-08T13:25:48Z</time><name>PT3308</name></trkpt>
<trkpt lat="53.083876" lon="04.899558"><ele>3.1</ele><time>2021-12-08T13:25:48Z</time><name>PT3309</name></trkpt>
<trkpt lat="53.083888" lon="04.899562"><ele>3.1</ele><time>2021-12-08T13:25:50Z</time><name>PT3310</name></trkpt>
<trkpt lat="53.083899" lon="04.899566"><ele>3.1</ele><time>2021-12-08T13:25:51Z</time><name>PT3311</name></trkpt>
<trkpt lat="53.083910" lon="04.899570"><ele>3.1</ele><time>2021-12-08T13:25:51Z</time><name>PT3312</name></trkpt>
<trkpt lat="53.083923" lon="04.899574"><ele>3.2</ele><time>2021-12-08T13:25:53Z</time><name>PT3313</name></trkpt>
<trkpt lat="53.083935" lon="04.899576"><ele>3.3</ele><time>2021-12-08T13:25:54Z</time><name>PT3314</name></trkpt>
<trkpt lat="53.083946" lon="04.899579"><ele>3.5</ele><time>2021-12-08T13:25:54Z</time><name>PT3315</name></trkpt>
<trkpt lat="53.083957" lon="04.899582"><ele>3.5</ele><time>2021-12-08T13:25:56Z</time><name>PT3316</name></trkpt>
<trkpt lat="53.083969" lon="04.899586"><ele>3.6</ele><time>2021-12-08T13:25:57Z</time><name>PT3317</name></trkpt>
<trkpt lat="53.083982" lon="04.899590"><ele>3.5</ele><time>2021-12-08T13:25:57Z</time><name>PT3318</name></trkpt>
<trkpt lat="53.083995" lon="04.899596"><ele>3.5</ele><time>2021-12-08T13:25:59Z</time><name>PT3319</name></trkpt>
<trkpt lat="53.084006" lon="04.899601"><ele>3.2</ele><time>2021-12-08T13:26:00Z</time><name>PT3320</name></trkpt>
<trkpt lat="53.084018" lon="04.899604"><ele>3.2</ele><time>2021-12-08T13:26:00Z</time><name>PT3321</name></trkpt>
<trkpt lat="53.084030" lon="04.899606"><ele>3</ele><time>2021-12-08T13:26:02Z</time><name>PT3322</name></trkpt>
<trkpt lat="53.084041" lon="04.899608"><ele>3</ele><time>2021-12-08T13:26:03Z</time><name>PT3323</name></trkpt>
<trkpt lat="53.084051" lon="04.899611"><ele>3</ele><time>2021-12-08T13:26:03Z</time><name>PT3324</name></trkpt>
<trkpt lat="53.084063" lon="04.899615"><ele>3</ele><time>2021-12-08T13:26:05Z</time><name>PT3325</name></trkpt>
<trkpt lat="53.084076" lon="04.899620"><ele>3.1</ele><time>2021-12-08T13:26:06Z</time><name>PT3326</name></trkpt>
<trkpt lat="53.084089" lon="04.899625"><ele>3.1</ele><time>2021-12-08T13:26:06Z</time><name>PT3327</name></trkpt>
<trkpt lat="53.084101" lon="04.899630"><ele>3.1</ele><time>2021-12-08T13:26:08Z</time><name>PT3328</name></trkpt>
<trkpt lat="53.084113" lon="04.899632"><ele>3</ele><time>2021-12-08T13:26:09Z</time><name>PT3329</name></trkpt>
<trkpt lat="53.084125" lon="04.899634"><ele>3</ele><time>2021-12-08T13:26:09Z</time><name>PT3330</name></trkpt>
<trkpt lat="53.084137" lon="04.899636"><ele>2.9</ele><time>2021-12-08T13:26:11Z</time><name>PT3331</name></trkpt>
<trkpt lat="53.084148" lon="04.899639"><ele>3</ele><time>2021-12-08T13:26:12Z</time><name>PT3332</name></trkpt>
<trkpt lat="53.084159" lon="04.899643"><ele>2.8</ele><time>2021-12-08T13:26:12Z</time><name>PT3333</name></trkpt>
<trkpt lat="53.084171" lon="04.899648"><ele>2.6</ele><time>2021-12-08T13:26:14Z</time><name>PT3334</name></trkpt>
<trkpt lat="53.084182" lon="04.899651"><ele>2.6</ele><time>2021-12-08T13:26:15Z</time><name>PT3335</name></trkpt>
<trkpt lat="53.084193" lon="04.899654"><ele>2.5</ele><time>2021-12-08T13:26:15Z</time><name>PT3336</name></trkpt>
<trkpt lat="53.084206" lon="04.899656"><ele>2.4</ele><time>2021-12-08T13:26:17Z</time><name>PT3337</name></trkpt>
<trkpt lat="53.084217" lon="04.899657"><ele>2.4</ele><time>2021-12-08T13:26:18Z</time><name>PT3338</name></trkpt>
<trkpt lat="53.084228" lon="04.899659"><ele>2.4</ele><time>2021-12-08T13:26:18Z</time><name>PT3339</name></trkpt>
<trkpt lat="53.084240" lon="04.899662"><ele>2.3</ele><time>2021-12-08T13:26:20Z</time><name>PT3340</name></trkpt>
<trkpt lat="53.084253" lon="04.899667"><ele>2.3</ele><time>2021-12-08T13:26:21Z</time><name>PT3341</name></trkpt>
<trkpt lat="53.084265" lon="04.899670"><ele>2.3</ele><time>2021-12-08T13:26:21Z</time><name>PT3342</name></trkpt>
<trkpt lat="53.084277" lon="04.899673"><ele>2.2</ele><time>2021-12-08T13:26:23Z</time><name>PT3343</name></trkpt>
<trkpt lat="53.084289" lon="04.899676"><ele>2.1</ele><time>2021-12-08T13:26:24Z</time><name>PT3344</name></trkpt>
<trkpt lat="53.084301" lon="04.899679"><ele>2.2</ele><time>2021-12-08T13:26:24Z</time><name>PT3345</name></trkpt>
<trkpt lat="53.084312" lon="04.899680"><ele>2.3</ele><time>2021-12-08T13:26:26Z</time><name>PT3346</name></trkpt>
<trkpt lat="53.084323" lon="04.899684"><ele>2.3</ele><time>2021-12-08T13:26:27Z</time><name>PT3347</name></trkpt>
<trkpt lat="53.084334" lon="04.899689"><ele>2.3</ele><time>2021-12-08T13:26:27Z</time><name>PT3348</name></trkpt>
<trkpt lat="53.084347" lon="04.899695"><ele>2.5</ele><time>2021-12-08T13:26:29Z</time><name>PT3349</name></trkpt>
<trkpt lat="53.084359" lon="04.899699"><ele>2.8</ele><time>2021-12-08T13:26:30Z</time><name>PT3350</name></trkpt>
<trkpt lat="53.084371" lon="04.899699"><ele>3</ele><time>2021-12-08T13:26:30Z</time><name>PT3351</name></trkpt>
<trkpt lat="53.084384" lon="04.899700"><ele>2.9</ele><time>2021-12-08T13:26:32Z</time><name>PT3352</name></trkpt>
<trkpt lat="53.084395" lon="04.899702"><ele>2.8</ele><time>2021-12-08T13:26:33Z</time><name>PT3353</name></trkpt>
<trkpt lat="53.084405" lon="04.899704"><ele>2.5</ele><time>2021-12-08T13:26:33Z</time><name>PT3354</name></trkpt>
<trkpt lat="53.084417" lon="04.899708"><ele>2.5</ele><time>2021-12-08T13:26:35Z</time><name>PT3355</name></trkpt>
<trkpt lat="53.084428" lon="04.899710"><ele>2.6</ele><time>2021-12-08T13:26:36Z</time><name>PT3356</name></trkpt>
<trkpt lat="53.084439" lon="04.899710"><ele>2.7</ele><time>2021-12-08T13:26:36Z</time><name>PT3357</name></trkpt>
<trkpt lat="53.084452" lon="04.899710"><ele>2.6</ele><time>2021-12-08T13:26:38Z</time><name>PT3358</name></trkpt>
<trkpt lat="53.084464" lon="04.899711"><ele>2.5</ele><time>2021-12-08T13:26:39Z</time><name>PT3359</name></trkpt>
<trkpt lat="53.084476" lon="04.899714"><ele>2.6</ele><time>2021-12-08T13:26:39Z</time><name>PT3360</name></trkpt>
<trkpt lat="53.084486" lon="04.899715"><ele>2.6</ele><time>2021-12-08T13:26:41Z</time><name>PT3361</name></trkpt>
<trkpt lat="53.084498" lon="04.899718"><ele>2.8</ele><time>2021-12-08T13:26:42Z</time><name>PT3362</name></trkpt>
<trkpt lat="53.084510" lon="04.899721"><ele>2.7</ele><time>2021-12-08T13:26:42Z</time><name>PT3363</name></trkpt>
<trkpt lat="53.084522" lon="04.899723"><ele>2.8</ele><time>2021-12-08T13:26:44Z</time><name>PT3364</name></trkpt>
<trkpt lat="53.084533" lon="04.899726"><ele>2.8</ele><time>2021-12-08T13:26:45Z</time><name>PT3365</name></trkpt>
<trkpt lat="53.084545" lon="04.899728"><ele>2.7</ele><time>2021-12-08T13:26:45Z</time><name>PT3366</name></trkpt>
<trkpt lat="53.084556" lon="04.899729"><ele>2.6</ele><time>2021-12-08T13:26:47Z</time><name>PT3367</name></trkpt>
<trkpt lat="53.084567" lon="04.899732"><ele>2.8</ele><time>2021-12-08T13:26:48Z</time><name>PT3368</name></trkpt>
<trkpt lat="53.084579" lon="04.899735"><ele>2.8</ele><time>2021-12-08T13:26:48Z</time><name>PT3369</name></trkpt>
<trkpt lat="53.084591" lon="04.899739"><ele>2.8</ele><time>2021-12-08T13:26:50Z</time><name>PT3370</name></trkpt>
<trkpt lat="53.084602" lon="04.899741"><ele>2.9</ele><time>2021-12-08T13:26:51Z</time><name>PT3371</name></trkpt>
<trkpt lat="53.084614" lon="04.899741"><ele>2.8</ele><time>2021-12-08T13:26:51Z</time><name>PT3372</name></trkpt>
<trkpt lat="53.084626" lon="04.899743"><ele>3</ele><time>2021-12-08T13:26:53Z</time><name>PT3373</name></trkpt>
<trkpt lat="53.084639" lon="04.899744"><ele>3.1</ele><time>2021-12-08T13:26:54Z</time><name>PT3374</name></trkpt>
<trkpt lat="53.084650" lon="04.899745"><ele>3</ele><time>2021-12-08T13:26:54Z</time><name>PT3375</name></trkpt>
<trkpt lat="53.084661" lon="04.899747"><ele>3.2</ele><time>2021-12-08T13:26:56Z</time><name>PT3376</name></trkpt>
<trkpt lat="53.084673" lon="04.899751"><ele>3.2</ele><time>2021-12-08T13:26:57Z</time><name>PT3377</name></trkpt>
<trkpt lat="53.084685" lon="04.899754"><ele>3.1</ele><time>2021-12-08T13:26:57Z</time><name>PT3378</name></trkpt>
<trkpt lat="53.084697" lon="04.899756"><ele>3.1</ele><time>2021-12-08T13:26:59Z</time><name>PT3379</name></trkpt>
<trkpt lat="53.084710" lon="04.899760"><ele>3</ele><time>2021-12-08T13:27:00Z</time><name>PT3380</name></trkpt>
<trkpt lat="53.084723" lon="04.899761"><ele>2.9</ele><time>2021-12-08T13:27:00Z</time><name>PT3381</name></trkpt>
<trkpt lat="53.084733" lon="04.899763"><ele>2.7</ele><time>2021-12-08T13:27:02Z</time><name>PT3382</name></trkpt>
<trkpt lat="53.084745" lon="04.899766"><ele>2.6</ele><time>2021-12-08T13:27:03Z</time><name>PT3383</name></trkpt>
<trkpt lat="53.084755" lon="04.899772"><ele>2.8</ele><time>2021-12-08T13:27:03Z</time><name>PT3384</name></trkpt>
<trkpt lat="53.084757" lon="04.899774"><ele>2.8</ele><time>2021-12-08T13:27:05Z</time><name>PT3385</name></trkpt>
<trkpt lat="53.084758" lon="04.899774"><ele>2.7</ele><time>2021-12-08T13:27:06Z</time><name>PT3386</name></trkpt>
<trkpt lat="53.084758" lon="04.899774"><ele>2.7</ele><time>2021-12-08T13:27:06Z</time><name>PT3387</name></trkpt>
<trkpt lat="53.084762" lon="04.899783"><ele>3</ele><time>2021-12-08T13:27:17Z</time><name>PT3388</name></trkpt>
<trkpt lat="53.084770" lon="04.899787"><ele>2.9</ele><time>2021-12-08T13:27:18Z</time><name>PT3389</name></trkpt>
<trkpt lat="53.084779" lon="04.899784"><ele>2.9</ele><time>2021-12-08T13:27:18Z</time><name>PT3390</name></trkpt>
<trkpt lat="53.084788" lon="04.899785"><ele>2.9</ele><time>2021-12-08T13:27:19Z</time><name>PT3391</name></trkpt>
<trkpt lat="53.084797" lon="04.899784"><ele>2.7</ele><time>2021-12-08T13:27:21Z</time><name>PT3392</name></trkpt>
<trkpt lat="53.084806" lon="04.899783"><ele>2.4</ele><time>2021-12-08T13:27:21Z</time><name>PT3393</name></trkpt>
<trkpt lat="53.084815" lon="04.899784"><ele>2.2</ele><time>2021-12-08T13:27:23Z</time><name>PT3394</name></trkpt>
<trkpt lat="53.084825" lon="04.899785"><ele>2.2</ele><time>2021-12-08T13:27:24Z</time><name>PT3395</name></trkpt>
<trkpt lat="53.084835" lon="04.899786"><ele>2</ele><time>2021-12-08T13:27:24Z</time><name>PT3396</name></trkpt>
<trkpt lat="53.084846" lon="04.899789"><ele>2.4</ele><time>2021-12-08T13:27:26Z</time><name>PT3397</name></trkpt>
<trkpt lat="53.084856" lon="04.899792"><ele>2.5</ele><time>2021-12-08T13:27:27Z</time><name>PT3398</name></trkpt>
<trkpt lat="53.084866" lon="04.899794"><ele>2.5</ele><time>2021-12-08T13:27:27Z</time><name>PT3399</name></trkpt>
<trkpt lat="53.084875" lon="04.899795"><ele>2.7</ele><time>2021-12-08T13:27:29Z</time><name>PT3400</name></trkpt>
<trkpt lat="53.084885" lon="04.899797"><ele>2.8</ele><time>2021-12-08T13:27:30Z</time><name>PT3401</name></trkpt>
<trkpt lat="53.084895" lon="04.899800"><ele>2.8</ele><time>2021-12-08T13:27:30Z</time><name>PT3402</name></trkpt>
<trkpt lat="53.084906" lon="04.899801"><ele>2.9</ele><time>2021-12-08T13:27:32Z</time><name>PT3403</name></trkpt>
<trkpt lat="53.084917" lon="04.899802"><ele>2.9</ele><time>2021-12-08T13:27:33Z</time><name>PT3404</name></trkpt>
<trkpt lat="53.084926" lon="04.899803"><ele>3</ele><time>2021-12-08T13:27:33Z</time><name>PT3405</name></trkpt>
<trkpt lat="53.084937" lon="04.899806"><ele>3</ele><time>2021-12-08T13:27:35Z</time><name>PT3406</name></trkpt>
<trkpt lat="53.084948" lon="04.899808"><ele>3.2</ele><time>2021-12-08T13:27:36Z</time><name>PT3407</name></trkpt>
<trkpt lat="53.084958" lon="04.899811"><ele>3.2</ele><time>2021-12-08T13:27:36Z</time><name>PT3408</name></trkpt>
<trkpt lat="53.084968" lon="04.899816"><ele>3</ele><time>2021-12-08T13:27:38Z</time><name>PT3409</name></trkpt>
<trkpt lat="53.084980" lon="04.899818"><ele>2.9</ele><time>2021-12-08T13:27:39Z</time><name>PT3410</name></trkpt>
<trkpt lat="53.084991" lon="04.899818"><ele>2.8</ele><time>2021-12-08T13:27:39Z</time><name>PT3411</name></trkpt>
<trkpt lat="53.085001" lon="04.899819"><ele>2.8</ele><time>2021-12-08T13:27:41Z</time><name>PT3412</name></trkpt>
<trkpt lat="53.085012" lon="04.899822"><ele>2.5</ele><time>2021-12-08T13:27:42Z</time><name>PT3413</name></trkpt>
<trkpt lat="53.085023" lon="04.899826"><ele>2.4</ele><time>2021-12-08T13:27:42Z</time><name>PT3414</name></trkpt>
<trkpt lat="53.085033" lon="04.899828"><ele>2.1</ele><time>2021-12-08T13:27:44Z</time><name>PT3415</name></trkpt>
<trkpt lat="53.085045" lon="04.899830"><ele>2.1</ele><time>2021-12-08T13:27:45Z</time><name>PT3416</name></trkpt>
<trkpt lat="53.085056" lon="04.899831"><ele>2.2</ele><time>2021-12-08T13:27:45Z</time><name>PT3417</name></trkpt>
<trkpt lat="53.085067" lon="04.899832"><ele>2.5</ele><time>2021-12-08T13:27:47Z</time><name>PT3418</name></trkpt>
<trkpt lat="53.085078" lon="04.899835"><ele>2.7</ele><time>2021-12-08T13:27:48Z</time><name>PT3419</name></trkpt>
<trkpt lat="53.085090" lon="04.899838"><ele>2.6</ele><time>2021-12-08T13:27:48Z</time><name>PT3420</name></trkpt>
<trkpt lat="53.085102" lon="04.899840"><ele>2.6</ele><time>2021-12-08T13:27:50Z</time><name>PT3421</name></trkpt>
<trkpt lat="53.085114" lon="04.899840"><ele>2.3</ele><time>2021-12-08T13:27:51Z</time><name>PT3422</name></trkpt>
<trkpt lat="53.085125" lon="04.899841"><ele>2.2</ele><time>2021-12-08T13:27:51Z</time><name>PT3423</name></trkpt>
<trkpt lat="53.085135" lon="04.899843"><ele>2.2</ele><time>2021-12-08T13:27:53Z</time><name>PT3424</name></trkpt>
<trkpt lat="53.085147" lon="04.899847"><ele>2.4</ele><time>2021-12-08T13:27:54Z</time><name>PT3425</name></trkpt>
<trkpt lat="53.085159" lon="04.899850"><ele>2.4</ele><time>2021-12-08T13:27:54Z</time><name>PT3426</name></trkpt>
<trkpt lat="53.085170" lon="04.899853"><ele>2.6</ele><time>2021-12-08T13:27:56Z</time><name>PT3427</name></trkpt>
<trkpt lat="53.085182" lon="04.899853"><ele>2.8</ele><time>2021-12-08T13:27:57Z</time><name>PT3428</name></trkpt>
<trkpt lat="53.085192" lon="04.899855"><ele>2.7</ele><time>2021-12-08T13:27:57Z</time><name>PT3429</name></trkpt>
<trkpt lat="53.085203" lon="04.899858"><ele>2.8</ele><time>2021-12-08T13:27:59Z</time><name>PT3430</name></trkpt>
<trkpt lat="53.085212" lon="04.899861"><ele>2.7</ele><time>2021-12-08T13:28:00Z</time><name>PT3431</name></trkpt>
<trkpt lat="53.085224" lon="04.899864"><ele>2.5</ele><time>2021-12-08T13:28:00Z</time><name>PT3432</name></trkpt>
<trkpt lat="53.085234" lon="04.899866"><ele>2.6</ele><time>2021-12-08T13:28:02Z</time><name>PT3433</name></trkpt>
<trkpt lat="53.085243" lon="04.899867"><ele>2.9</ele><time>2021-12-08T13:28:03Z</time><name>PT3434</name></trkpt>
<trkpt lat="53.085250" lon="04.899869"><ele>3</ele><time>2021-12-08T13:28:03Z</time><name>PT3435</name></trkpt>
<trkpt lat="53.085255" lon="04.899869"><ele>3.1</ele><time>2021-12-08T13:28:05Z</time><name>PT3436</name></trkpt>
<trkpt lat="53.085261" lon="04.899871"><ele>3</ele><time>2021-12-08T13:28:06Z</time><name>PT3437</name></trkpt>
<trkpt lat="53.085269" lon="04.899873"><ele>2.8</ele><time>2021-12-08T13:28:06Z</time><name>PT3438</name></trkpt>
<trkpt lat="53.085276" lon="04.899875"><ele>2.4</ele><time>2021-12-08T13:28:08Z</time><name>PT3439</name></trkpt>
<trkpt lat="53.085283" lon="04.899874"><ele>2</ele><time>2021-12-08T13:28:09Z</time><name>PT3440</name></trkpt>
<trkpt lat="53.085291" lon="04.899879"><ele>2.1</ele><time>2021-12-08T13:28:09Z</time><name>PT3441</name></trkpt>
<trkpt lat="53.085298" lon="04.899884"><ele>2.1</ele><time>2021-12-08T13:28:11Z</time><name>PT3442</name></trkpt>
<trkpt lat="53.085301" lon="04.899880"><ele>2.1</ele><time>2021-12-08T13:28:12Z</time><name>PT3443</name></trkpt>
<trkpt lat="53.085303" lon="04.899879"><ele>2.2</ele><time>2021-12-08T13:28:12Z</time><name>PT3444</name></trkpt>
<trkpt lat="53.085302" lon="04.899879"><ele>2.2</ele><time>2021-12-08T13:28:14Z</time><name>PT3445</name></trkpt>
<trkpt lat="53.085300" lon="04.899881"><ele>1.9</ele><time>2021-12-08T13:28:15Z</time><name>PT3446</name></trkpt>
<trkpt lat="53.085298" lon="04.899883"><ele>1.4</ele><time>2021-12-08T13:28:15Z</time><name>PT3447</name></trkpt>
<trkpt lat="53.085294" lon="04.899889"><ele>0.2</ele><time>2021-12-08T13:28:33Z</time><name>PT3448</name></trkpt>
<trkpt lat="53.085287" lon="04.899892"><ele>0.2</ele><time>2021-12-08T13:28:33Z</time><name>PT3449</name></trkpt>
<trkpt lat="53.085281" lon="04.899894"><ele>0.3</ele><time>2021-12-08T13:28:35Z</time><name>PT3450</name></trkpt>
<trkpt lat="53.085275" lon="04.899893"><ele>0.3</ele><time>2021-12-08T13:28:36Z</time><name>PT3451</name></trkpt>
<trkpt lat="53.085268" lon="04.899891"><ele>0.5</ele><time>2021-12-08T13:28:36Z</time><name>PT3452</name></trkpt>
<trkpt lat="53.085262" lon="04.899891"><ele>0.6</ele><time>2021-12-08T13:28:38Z</time><name>PT3453</name></trkpt>
<trkpt lat="53.085255" lon="04.899891"><ele>0.7</ele><time>2021-12-08T13:28:39Z</time><name>PT3454</name></trkpt>
<trkpt lat="53.085250" lon="04.899889"><ele>0.7</ele><time>2021-12-08T13:28:39Z</time><name>PT3455</name></trkpt>
<trkpt lat="53.085243" lon="04.899888"><ele>0.4</ele><time>2021-12-08T13:28:41Z</time><name>PT3456</name></trkpt>
<trkpt lat="53.085236" lon="04.899888"><ele>0.4</ele><time>2021-12-08T13:28:42Z</time><name>PT3457</name></trkpt>
<trkpt lat="53.085228" lon="04.899886"><ele>0.5</ele><time>2021-12-08T13:28:42Z</time><name>PT3458</name></trkpt>
<trkpt lat="53.085222" lon="04.899886"><ele>0.4</ele><time>2021-12-08T13:28:44Z</time><name>PT3459</name></trkpt>
<trkpt lat="53.085217" lon="04.899885"><ele>0.2</ele><time>2021-12-08T13:28:45Z</time><name>PT3460</name></trkpt>
<trkpt lat="53.085214" lon="04.899883"><ele>0</ele><time>2021-12-08T13:28:45Z</time><name>PT3461</name></trkpt>
<trkpt lat="53.085214" lon="04.899881"><ele>0.4</ele><time>2021-12-08T13:28:47Z</time><name>PT3462</name></trkpt>
<trkpt lat="53.085215" lon="04.899880"><ele>1.7</ele><time>2021-12-08T13:28:53Z</time><name>PT3463</name></trkpt>
<trkpt lat="53.085225" lon="04.899879"><ele>1.9</ele><time>2021-12-08T13:28:54Z</time><name>PT3464</name></trkpt>
<trkpt lat="53.085236" lon="04.899883"><ele>1.9</ele><time>2021-12-08T13:28:54Z</time><name>PT3465</name></trkpt>
<trkpt lat="53.085248" lon="04.899882"><ele>2</ele><time>2021-12-08T13:28:56Z</time><name>PT3466</name></trkpt>
<trkpt lat="53.085261" lon="04.899882"><ele>2.3</ele><time>2021-12-08T13:28:57Z</time><name>PT3467</name></trkpt>
<trkpt lat="53.085274" lon="04.899881"><ele>2.2</ele><time>2021-12-08T13:28:57Z</time><name>PT3468</name></trkpt>
<trkpt lat="53.085285" lon="04.899882"><ele>2.4</ele><time>2021-12-08T13:28:59Z</time><name>PT3469</name></trkpt>
<trkpt lat="53.085297" lon="04.899885"><ele>2.4</ele><time>2021-12-08T13:29:00Z</time><name>PT3470</name></trkpt>
<trkpt lat="53.085310" lon="04.899888"><ele>2.3</ele><time>2021-12-08T13:29:00Z</time><name>PT3471</name></trkpt>
<trkpt lat="53.085323" lon="04.899892"><ele>2.4</ele><time>2021-12-08T13:29:02Z</time><name>PT3472</name></trkpt>
<trkpt lat="53.085334" lon="04.899897"><ele>2.4</ele><time>2021-12-08T13:29:03Z</time><name>PT3473</name></trkpt>
<trkpt lat="53.085345" lon="04.899898"><ele>2.5</ele><time>2021-12-08T13:29:03Z</time><name>PT3474</name></trkpt>
<trkpt lat="53.085357" lon="04.899898"><ele>2.8</ele><time>2021-12-08T13:29:05Z</time><name>PT3475</name></trkpt>
<trkpt lat="53.085369" lon="04.899896"><ele>2.9</ele><time>2021-12-08T13:29:06Z</time><name>PT3476</name></trkpt>
<trkpt lat="53.085380" lon="04.899896"><ele>2.8</ele><time>2021-12-08T13:29:06Z</time><name>PT3477</name></trkpt>
<trkpt lat="53.085392" lon="04.899898"><ele>2.9</ele><time>2021-12-08T13:29:08Z</time><name>PT3478</name></trkpt>
<trkpt lat="53.085405" lon="04.899902"><ele>2.7</ele><time>2021-12-08T13:29:09Z</time><name>PT3479</name></trkpt>
<trkpt lat="53.085419" lon="04.899907"><ele>2.5</ele><time>2021-12-08T13:29:09Z</time><name>PT3480</name></trkpt>
<trkpt lat="53.085431" lon="04.899910"><ele>2.3</ele><time>2021-12-08T13:29:11Z</time><name>PT3481</name></trkpt>
<trkpt lat="53.085443" lon="04.899911"><ele>2</ele><time>2021-12-08T13:29:12Z</time><name>PT3482</name></trkpt>
<trkpt lat="53.085455" lon="04.899912"><ele>2.1</ele><time>2021-12-08T13:29:12Z</time><name>PT3483</name></trkpt>
<trkpt lat="53.085468" lon="04.899911"><ele>2.1</ele><time>2021-12-08T13:29:14Z</time><name>PT3484</name></trkpt>
<trkpt lat="53.085479" lon="04.899911"><ele>2.3</ele><time>2021-12-08T13:29:15Z</time><name>PT3485</name></trkpt>
<trkpt lat="53.085490" lon="04.899910"><ele>2.4</ele><time>2021-12-08T13:29:15Z</time><name>PT3486</name></trkpt>
<trkpt lat="53.085502" lon="04.899912"><ele>2.4</ele><time>2021-12-08T13:29:17Z</time><name>PT3487</name></trkpt>
<trkpt lat="53.085515" lon="04.899915"><ele>2.3</ele><time>2021-12-08T13:29:18Z</time><name>PT3488</name></trkpt>
<trkpt lat="53.085527" lon="04.899917"><ele>2.3</ele><time>2021-12-08T13:29:18Z</time><name>PT3489</name></trkpt>
<trkpt lat="53.085539" lon="04.899919"><ele>2.3</ele><time>2021-12-08T13:29:20Z</time><name>PT3490</name></trkpt>
<trkpt lat="53.085552" lon="04.899920"><ele>2.4</ele><time>2021-12-08T13:29:21Z</time><name>PT3491</name></trkpt>
<trkpt lat="53.085565" lon="04.899921"><ele>2.5</ele><time>2021-12-08T13:29:21Z</time><name>PT3492</name></trkpt>
<trkpt lat="53.085577" lon="04.899921"><ele>2.7</ele><time>2021-12-08T13:29:23Z</time><name>PT3493</name></trkpt>
<trkpt lat="53.085589" lon="04.899921"><ele>2.6</ele><time>2021-12-08T13:29:24Z</time><name>PT3494</name></trkpt>
<trkpt lat="53.085601" lon="04.899923"><ele>2.6</ele><time>2021-12-08T13:29:24Z</time><name>PT3495</name></trkpt>
<trkpt lat="53.085613" lon="04.899925"><ele>2.6</ele><time>2021-12-08T13:29:26Z</time><name>PT3496</name></trkpt>
<trkpt lat="53.085626" lon="04.899928"><ele>2.5</ele><time>2021-12-08T13:29:27Z</time><name>PT3497</name></trkpt>
<trkpt lat="53.085637" lon="04.899930"><ele>2.7</ele><time>2021-12-08T13:29:27Z</time><name>PT3498</name></trkpt>
<trkpt lat="53.085643" lon="04.899933"><ele>2.7</ele><time>2021-12-08T13:29:29Z</time><name>PT3499</name></trkpt>
<trkpt lat="53.085646" lon="04.899937"><ele>2.7</ele><time>2021-12-08T13:29:30Z</time><name>PT3500</name></trkpt>
<trkpt lat="53.085646" lon="04.899938"><ele>2.7</ele><time>2021-12-08T13:29:30Z</time><name>PT3501</name></trkpt>
<trkpt lat="53.085648" lon="04.899939"><ele>2.6</ele><time>2021-12-08T13:29:32Z</time><name>PT3502</name></trkpt>
<trkpt lat="53.085648" lon="04.899940"><ele>2.5</ele><time>2021-12-08T13:29:33Z</time><name>PT3503</name></trkpt>
<trkpt lat="53.085648" lon="04.899941"><ele>2.4</ele><time>2021-12-08T13:29:33Z</time><name>PT3504</name></trkpt>
<trkpt lat="53.085650" lon="04.899942"><ele>2.6</ele><time>2021-12-08T13:29:42Z</time><name>PT3505</name></trkpt>
<trkpt lat="53.085660" lon="04.899942"><ele>2.8</ele><time>2021-12-08T13:29:44Z</time><name>PT3506</name></trkpt>
<trkpt lat="53.085672" lon="04.899941"><ele>2.4</ele><time>2021-12-08T13:29:45Z</time><name>PT3507</name></trkpt>
<trkpt lat="53.085683" lon="04.899939"><ele>2.6</ele><time>2021-12-08T13:29:45Z</time><name>PT3508</name></trkpt>
<trkpt lat="53.085695" lon="04.899937"><ele>2.4</ele><time>2021-12-08T13:29:47Z</time><name>PT3509</name></trkpt>
<trkpt lat="53.085707" lon="04.899937"><ele>1.9</ele><time>2021-12-08T13:29:48Z</time><name>PT3510</name></trkpt>
<trkpt lat="53.085719" lon="04.899939"><ele>2</ele><time>2021-12-08T13:29:48Z</time><name>PT3511</name></trkpt>
<trkpt lat="53.085730" lon="04.899940"><ele>1.8</ele><time>2021-12-08T13:29:50Z</time><name>PT3512</name></trkpt>
<trkpt lat="53.085742" lon="04.899943"><ele>1.7</ele><time>2021-12-08T13:29:51Z</time><name>PT3513</name></trkpt>
<trkpt lat="53.085754" lon="04.899947"><ele>1.7</ele><time>2021-12-08T13:29:51Z</time><name>PT3514</name></trkpt>
<trkpt lat="53.085765" lon="04.899950"><ele>2</ele><time>2021-12-08T13:29:53Z</time><name>PT3515</name></trkpt>
<trkpt lat="53.085777" lon="04.899952"><ele>2</ele><time>2021-12-08T13:29:54Z</time><name>PT3516</name></trkpt>
<trkpt lat="53.085789" lon="04.899951"><ele>2</ele><time>2021-12-08T13:29:54Z</time><name>PT3517</name></trkpt>
<trkpt lat="53.085801" lon="04.899951"><ele>2.2</ele><time>2021-12-08T13:29:56Z</time><name>PT3518</name></trkpt>
<trkpt lat="53.085814" lon="04.899950"><ele>1.9</ele><time>2021-12-08T13:29:57Z</time><name>PT3519</name></trkpt>
<trkpt lat="53.085825" lon="04.899951"><ele>2</ele><time>2021-12-08T13:29:57Z</time><name>PT3520</name></trkpt>
<trkpt lat="53.085837" lon="04.899953"><ele>2.2</ele><time>2021-12-08T13:29:59Z</time><name>PT3521</name></trkpt>
<trkpt lat="53.085850" lon="04.899953"><ele>2.1</ele><time>2021-12-08T13:30:00Z</time><name>PT3522</name></trkpt>
<trkpt lat="53.085862" lon="04.899955"><ele>2.1</ele><time>2021-12-08T13:30:00Z</time><name>PT3523</name></trkpt>
<trkpt lat="53.085874" lon="04.899958"><ele>2.1</ele><time>2021-12-08T13:30:02Z</time><name>PT3524</name></trkpt>
<trkpt lat="53.085886" lon="04.899961"><ele>2.1</ele><time>2021-12-08T13:30:03Z</time><name>PT3525</name></trkpt>
<trkpt lat="53.085899" lon="04.899961"><ele>2.1</ele><time>2021-12-08T13:30:03Z</time><name>PT3526</name></trkpt>
<trkpt lat="53.085910" lon="04.899961"><ele>2.3</ele><time>2021-12-08T13:30:05Z</time><name>PT3527</name></trkpt>
<trkpt lat="53.085922" lon="04.899961"><ele>2.3</ele><time>2021-12-08T13:30:06Z</time><name>PT3528</name></trkpt>
<trkpt lat="53.085932" lon="04.899962"><ele>2.3</ele><time>2021-12-08T13:30:06Z</time><name>PT3529</name></trkpt>
<trkpt lat="53.085943" lon="04.899964"><ele>2.4</ele><time>2021-12-08T13:30:08Z</time><name>PT3530</name></trkpt>
<trkpt lat="53.085954" lon="04.899966"><ele>2.4</ele><time>2021-12-08T13:30:09Z</time><name>PT3531</name></trkpt>
<trkpt lat="53.085965" lon="04.899970"><ele>2.4</ele><time>2021-12-08T13:30:09Z</time><name>PT3532</name></trkpt>
<trkpt lat="53.085977" lon="04.899972"><ele>2.5</ele><time>2021-12-08T13:30:11Z</time><name>PT3533</name></trkpt>
<trkpt lat="53.085988" lon="04.899975"><ele>2.4</ele><time>2021-12-08T13:30:12Z</time><name>PT3534</name></trkpt>
<trkpt lat="53.086000" lon="04.899975"><ele>2.4</ele><time>2021-12-08T13:30:12Z</time><name>PT3535</name></trkpt>
<trkpt lat="53.086011" lon="04.899976"><ele>2.4</ele><time>2021-12-08T13:30:14Z</time><name>PT3536</name></trkpt>
<trkpt lat="53.086023" lon="04.899978"><ele>2.2</ele><time>2021-12-08T13:30:15Z</time><name>PT3537</name></trkpt>
<trkpt lat="53.086035" lon="04.899981"><ele>2</ele><time>2021-12-08T13:30:15Z</time><name>PT3538</name></trkpt>
<trkpt lat="53.086047" lon="04.899983"><ele>2.1</ele><time>2021-12-08T13:30:17Z</time><name>PT3539</name></trkpt>
<trkpt lat="53.086059" lon="04.899983"><ele>1.9</ele><time>2021-12-08T13:30:18Z</time><name>PT3540</name></trkpt>
<trkpt lat="53.086071" lon="04.899982"><ele>1.9</ele><time>2021-12-08T13:30:18Z</time><name>PT3541</name></trkpt>
<trkpt lat="53.086084" lon="04.899982"><ele>1.9</ele><time>2021-12-08T13:30:20Z</time><name>PT3542</name></trkpt>
<trkpt lat="53.086096" lon="04.899984"><ele>1.8</ele><time>2021-12-08T13:30:21Z</time><name>PT3543</name></trkpt>
<trkpt lat="53.086108" lon="04.899985"><ele>1.8</ele><time>2021-12-08T13:30:21Z</time><name>PT3544</name></trkpt>
<trkpt lat="53.086119" lon="04.899986"><ele>2</ele><time>2021-12-08T13:30:23Z</time><name>PT3545</name></trkpt>
<trkpt lat="53.086131" lon="04.899991"><ele>2.1</ele><time>2021-12-08T13:30:24Z</time><name>PT3546</name></trkpt>
<trkpt lat="53.086142" lon="04.899994"><ele>2</ele><time>2021-12-08T13:30:24Z</time><name>PT3547</name></trkpt>
<trkpt lat="53.086155" lon="04.899994"><ele>2.3</ele><time>2021-12-08T13:30:26Z</time><name>PT3548</name></trkpt>
<trkpt lat="53.086167" lon="04.899995"><ele>2.4</ele><time>2021-12-08T13:30:27Z</time><name>PT3549</name></trkpt>
<trkpt lat="53.086179" lon="04.899994"><ele>2.3</ele><time>2021-12-08T13:30:27Z</time><name>PT3550</name></trkpt>
<trkpt lat="53.086190" lon="04.899994"><ele>2.4</ele><time>2021-12-08T13:30:29Z</time><name>PT3551</name></trkpt>
<trkpt lat="53.086201" lon="04.899994"><ele>2.3</ele><time>2021-12-08T13:30:30Z</time><name>PT3552</name></trkpt>
<trkpt lat="53.086213" lon="04.899996"><ele>2.1</ele><time>2021-12-08T13:30:30Z</time><name>PT3553</name></trkpt>
<trkpt lat="53.086226" lon="04.900000"><ele>2.2</ele><time>2021-12-08T13:30:32Z</time><name>PT3554</name></trkpt>
<trkpt lat="53.086240" lon="04.900003"><ele>2.4</ele><time>2021-12-08T13:30:33Z</time><name>PT3555</name></trkpt>
<trkpt lat="53.086252" lon="04.900005"><ele>2.4</ele><time>2021-12-08T13:30:33Z</time><name>PT3556</name></trkpt>
<trkpt lat="53.086264" lon="04.900006"><ele>2.4</ele><time>2021-12-08T13:30:35Z</time><name>PT3557</name></trkpt>
<trkpt lat="53.086276" lon="04.900006"><ele>2.5</ele><time>2021-12-08T13:30:36Z</time><name>PT3558</name></trkpt>
<trkpt lat="53.086289" lon="04.900006"><ele>2.5</ele><time>2021-12-08T13:30:36Z</time><name>PT3559</name></trkpt>
<trkpt lat="53.086302" lon="04.900005"><ele>2.5</ele><time>2021-12-08T13:30:38Z</time><name>PT3560</name></trkpt>
<trkpt lat="53.086314" lon="04.900006"><ele>2.7</ele><time>2021-12-08T13:30:39Z</time><name>PT3561</name></trkpt>
<trkpt lat="53.086326" lon="04.900010"><ele>2.5</ele><time>2021-12-08T13:30:39Z</time><name>PT3562</name></trkpt>
<trkpt lat="53.086338" lon="04.900013"><ele>2.5</ele><time>2021-12-08T13:30:41Z</time><name>PT3563</name></trkpt>
<trkpt lat="53.086350" lon="04.900017"><ele>2.4</ele><time>2021-12-08T13:30:42Z</time><name>PT3564</name></trkpt>
<trkpt lat="53.086362" lon="04.900018"><ele>2.4</ele><time>2021-12-08T13:30:42Z</time><name>PT3565</name></trkpt>
<trkpt lat="53.086373" lon="04.900019"><ele>2.4</ele><time>2021-12-08T13:30:44Z</time><name>PT3566</name></trkpt>
<trkpt lat="53.086384" lon="04.900023"><ele>2.4</ele><time>2021-12-08T13:30:45Z</time><name>PT3567</name></trkpt>
<trkpt lat="53.086394" lon="04.900022"><ele>2.4</ele><time>2021-12-08T13:30:45Z</time><name>PT3568</name></trkpt>
<trkpt lat="53.086406" lon="04.900021"><ele>2.4</ele><time>2021-12-08T13:30:47Z</time><name>PT3569</name></trkpt>
<trkpt lat="53.086418" lon="04.900021"><ele>2.4</ele><time>2021-12-08T13:30:48Z</time><name>PT3570</name></trkpt>
<trkpt lat="53.086430" lon="04.900022"><ele>2.4</ele><time>2021-12-08T13:30:48Z</time><name>PT3571</name></trkpt>
<trkpt lat="53.086442" lon="04.900024"><ele>2.4</ele><time>2021-12-08T13:30:50Z</time><name>PT3572</name></trkpt>
<trkpt lat="53.086454" lon="04.900026"><ele>2.4</ele><time>2021-12-08T13:30:51Z</time><name>PT3573</name></trkpt>
<trkpt lat="53.086465" lon="04.900028"><ele>2.4</ele><time>2021-12-08T13:30:51Z</time><name>PT3574</name></trkpt>
<trkpt lat="53.086478" lon="04.900030"><ele>2.4</ele><time>2021-12-08T13:30:53Z</time><name>PT3575</name></trkpt>
<trkpt lat="53.086490" lon="04.900029"><ele>2.4</ele><time>2021-12-08T13:30:54Z</time><name>PT3576</name></trkpt>
<trkpt lat="53.086501" lon="04.900025"><ele>2.4</ele><time>2021-12-08T13:30:54Z</time><name>PT3577</name></trkpt>
<trkpt lat="53.086512" lon="04.900023"><ele>2.5</ele><time>2021-12-08T13:30:56Z</time><name>PT3578</name></trkpt>
<trkpt lat="53.086525" lon="04.900024"><ele>2.7</ele><time>2021-12-08T13:30:57Z</time><name>PT3579</name></trkpt>
<trkpt lat="53.086538" lon="04.900027"><ele>2.9</ele><time>2021-12-08T13:30:57Z</time><name>PT3580</name></trkpt>
<trkpt lat="53.086551" lon="04.900030"><ele>2.9</ele><time>2021-12-08T13:30:59Z</time><name>PT3581</name></trkpt>
<trkpt lat="53.086562" lon="04.900032"><ele>2.7</ele><time>2021-12-08T13:31:00Z</time><name>PT3582</name></trkpt>
<trkpt lat="53.086574" lon="04.900034"><ele>2.7</ele><time>2021-12-08T13:31:00Z</time><name>PT3583</name></trkpt>
<trkpt lat="53.086587" lon="04.900034"><ele>2.4</ele><time>2021-12-08T13:31:02Z</time><name>PT3584</name></trkpt>
<trkpt lat="53.086599" lon="04.900033"><ele>2.3</ele><time>2021-12-08T13:31:03Z</time><name>PT3585</name></trkpt>
<trkpt lat="53.086611" lon="04.900033"><ele>2.4</ele><time>2021-12-08T13:31:03Z</time><name>PT3586</name></trkpt>
<trkpt lat="53.086622" lon="04.900033"><ele>2.4</ele><time>2021-12-08T13:31:05Z</time><name>PT3587</name></trkpt>
<trkpt lat="53.086635" lon="04.900034"><ele>2.4</ele><time>2021-12-08T13:31:06Z</time><name>PT3588</name></trkpt>
<trkpt lat="53.086647" lon="04.900035"><ele>2.3</ele><time>2021-12-08T13:31:06Z</time><name>PT3589</name></trkpt>
<trkpt lat="53.086659" lon="04.900037"><ele>2.3</ele><time>2021-12-08T13:31:08Z</time><name>PT3590</name></trkpt>
<trkpt lat="53.086671" lon="04.900039"><ele>2.4</ele><time>2021-12-08T13:31:09Z</time><name>PT3591</name></trkpt>
<trkpt lat="53.086684" lon="04.900040"><ele>2.4</ele><time>2021-12-08T13:31:09Z</time><name>PT3592</name></trkpt>
<trkpt lat="53.086696" lon="04.900040"><ele>2.4</ele><time>2021-12-08T13:31:11Z</time><name>PT3593</name></trkpt>
<trkpt lat="53.086707" lon="04.900040"><ele>2.4</ele><time>2021-12-08T13:31:12Z</time><name>PT3594</name></trkpt>
<trkpt lat="53.086717" lon="04.900042"><ele>2.4</ele><time>2021-12-08T13:31:12Z</time><name>PT3595</name></trkpt>
<trkpt lat="53.086729" lon="04.900044"><ele>2.4</ele><time>2021-12-08T13:31:14Z</time><name>PT3596</name></trkpt>
<trkpt lat="53.086742" lon="04.900047"><ele>2.4</ele><time>2021-12-08T13:31:15Z</time><name>PT3597</name></trkpt>
<trkpt lat="53.086754" lon="04.900049"><ele>2.5</ele><time>2021-12-08T13:31:15Z</time><name>PT3598</name></trkpt>
<trkpt lat="53.086767" lon="04.900052"><ele>2.5</ele><time>2021-12-08T13:31:17Z</time><name>PT3599</name></trkpt>
<trkpt lat="53.086779" lon="04.900052"><ele>2.4</ele><time>2021-12-08T13:31:18Z</time><name>PT3600</name></trkpt>
<trkpt lat="53.086790" lon="04.900053"><ele>2.5</ele><time>2021-12-08T13:31:18Z</time><name>PT3601</name></trkpt>
<trkpt lat="53.086802" lon="04.900053"><ele>2.4</ele><time>2021-12-08T13:31:20Z</time><name>PT3602</name></trkpt>
<trkpt lat="53.086814" lon="04.900053"><ele>2.4</ele><time>2021-12-08T13:31:21Z</time><name>PT3603</name></trkpt>
<trkpt lat="53.086826" lon="04.900056"><ele>2.4</ele><time>2021-12-08T13:31:21Z</time><name>PT3604</name></trkpt>
<trkpt lat="53.086839" lon="04.900060"><ele>2.4</ele><time>2021-12-08T13:31:23Z</time><name>PT3605</name></trkpt>
<trkpt lat="53.086850" lon="04.900060"><ele>2.3</ele><time>2021-12-08T13:31:24Z</time><name>PT3606</name></trkpt>
<trkpt lat="53.086862" lon="04.900060"><ele>2.4</ele><time>2021-12-08T13:31:24Z</time><name>PT3607</name></trkpt>
<trkpt lat="53.086874" lon="04.900059"><ele>2.4</ele><time>2021-12-08T13:31:26Z</time><name>PT3608</name></trkpt>
<trkpt lat="53.086887" lon="04.900058"><ele>2.5</ele><time>2021-12-08T13:31:27Z</time><name>PT3609</name></trkpt>
<trkpt lat="53.086898" lon="04.900057"><ele>2.5</ele><time>2021-12-08T13:31:27Z</time><name>PT3610</name></trkpt>
<trkpt lat="53.086909" lon="04.900057"><ele>2.7</ele><time>2021-12-08T13:31:29Z</time><name>PT3611</name></trkpt>
<trkpt lat="53.086921" lon="04.900059"><ele>2.7</ele><time>2021-12-08T13:31:30Z</time><name>PT3612</name></trkpt>
<trkpt lat="53.086933" lon="04.900061"><ele>2.7</ele><time>2021-12-08T13:31:30Z</time><name>PT3613</name></trkpt>
<trkpt lat="53.086945" lon="04.900062"><ele>2.6</ele><time>2021-12-08T13:31:32Z</time><name>PT3614</name></trkpt>
<trkpt lat="53.086957" lon="04.900061"><ele>2.4</ele><time>2021-12-08T13:31:33Z</time><name>PT3615</name></trkpt>
<trkpt lat="53.086969" lon="04.900060"><ele>2.4</ele><time>2021-12-08T13:31:33Z</time><name>PT3616</name></trkpt>
<trkpt lat="53.086981" lon="04.900059"><ele>2.4</ele><time>2021-12-08T13:31:35Z</time><name>PT3617</name></trkpt>
<trkpt lat="53.086993" lon="04.900060"><ele>2.5</ele><time>2021-12-08T13:31:36Z</time><name>PT3618</name></trkpt>
<trkpt lat="53.087005" lon="04.900062"><ele>2.5</ele><time>2021-12-08T13:31:36Z</time><name>PT3619</name></trkpt>
<trkpt lat="53.087018" lon="04.900063"><ele>2.6</ele><time>2021-12-08T13:31:38Z</time><name>PT3620</name></trkpt>
<trkpt lat="53.087030" lon="04.900065"><ele>2.7</ele><time>2021-12-08T13:31:39Z</time><name>PT3621</name></trkpt>
<trkpt lat="53.087040" lon="04.900066"><ele>2.8</ele><time>2021-12-08T13:31:39Z</time><name>PT3622</name></trkpt>
<trkpt lat="53.087052" lon="04.900064"><ele>2.9</ele><time>2021-12-08T13:31:41Z</time><name>PT3623</name></trkpt>
<trkpt lat="53.087064" lon="04.900064"><ele>2.7</ele><time>2021-12-08T13:31:42Z</time><name>PT3624</name></trkpt>
<trkpt lat="53.087076" lon="04.900064"><ele>2.6</ele><time>2021-12-08T13:31:42Z</time><name>PT3625</name></trkpt>
<trkpt lat="53.087088" lon="04.900066"><ele>2.5</ele><time>2021-12-08T13:31:44Z</time><name>PT3626</name></trkpt>
<trkpt lat="53.087101" lon="04.900068"><ele>2.6</ele><time>2021-12-08T13:31:45Z</time><name>PT3627</name></trkpt>
<trkpt lat="53.087113" lon="04.900071"><ele>2.7</ele><time>2021-12-08T13:31:45Z</time><name>PT3628</name></trkpt>
<trkpt lat="53.087127" lon="04.900073"><ele>2.9</ele><time>2021-12-08T13:31:47Z</time><name>PT3629</name></trkpt>
<trkpt lat="53.087139" lon="04.900074"><ele>3.2</ele><time>2021-12-08T13:31:48Z</time><name>PT3630</name></trkpt>
<trkpt lat="53.087151" lon="04.900075"><ele>3</ele><time>2021-12-08T13:31:48Z</time><name>PT3631</name></trkpt>
<trkpt lat="53.087162" lon="04.900076"><ele>3.3</ele><time>2021-12-08T13:31:50Z</time><name>PT3632</name></trkpt>
<trkpt lat="53.087174" lon="04.900076"><ele>3.4</ele><time>2021-12-08T13:31:51Z</time><name>PT3633</name></trkpt>
<trkpt lat="53.087187" lon="04.900076"><ele>3.5</ele><time>2021-12-08T13:31:51Z</time><name>PT3634</name></trkpt>
<trkpt lat="53.087198" lon="04.900076"><ele>3.5</ele><time>2021-12-08T13:31:53Z</time><name>PT3635</name></trkpt>
<trkpt lat="53.087208" lon="04.900077"><ele>3.5</ele><time>2021-12-08T13:31:54Z</time><name>PT3636</name></trkpt>
<trkpt lat="53.087219" lon="04.900079"><ele>3.5</ele><time>2021-12-08T13:31:54Z</time><name>PT3637</name></trkpt>
<trkpt lat="53.087232" lon="04.900084"><ele>3.3</ele><time>2021-12-08T13:31:56Z</time><name>PT3638</name></trkpt>
<trkpt lat="53.087244" lon="04.900087"><ele>3.5</ele><time>2021-12-08T13:31:57Z</time><name>PT3639</name></trkpt>
<trkpt lat="53.087255" lon="04.900088"><ele>3.6</ele><time>2021-12-08T13:31:57Z</time><name>PT3640</name></trkpt>
<trkpt lat="53.087267" lon="04.900088"><ele>3.5</ele><time>2021-12-08T13:31:59Z</time><name>PT3641</name></trkpt>
<trkpt lat="53.087279" lon="04.900085"><ele>3.7</ele><time>2021-12-08T13:32:00Z</time><name>PT3642</name></trkpt>
<trkpt lat="53.087290" lon="04.900083"><ele>3.7</ele><time>2021-12-08T13:32:00Z</time><name>PT3643</name></trkpt>
<trkpt lat="53.087302" lon="04.900084"><ele>3.8</ele><time>2021-12-08T13:32:02Z</time><name>PT3644</name></trkpt>
<trkpt lat="53.087315" lon="04.900086"><ele>4.2</ele><time>2021-12-08T13:32:03Z</time><name>PT3645</name></trkpt>
<trkpt lat="53.087326" lon="04.900088"><ele>4.5</ele><time>2021-12-08T13:32:03Z</time><name>PT3646</name></trkpt>
<trkpt lat="53.087339" lon="04.900089"><ele>4.3</ele><time>2021-12-08T13:32:05Z</time><name>PT3647</name></trkpt>
<trkpt lat="53.087351" lon="04.900090"><ele>4.2</ele><time>2021-12-08T13:32:06Z</time><name>PT3648</name></trkpt>
<trkpt lat="53.087362" lon="04.900089"><ele>4</ele><time>2021-12-08T13:32:06Z</time><name>PT3649</name></trkpt>
<trkpt lat="53.087375" lon="04.900087"><ele>3.5</ele><time>2021-12-08T13:32:08Z</time><name>PT3650</name></trkpt>
<trkpt lat="53.087388" lon="04.900084"><ele>3.5</ele><time>2021-12-08T13:32:09Z</time><name>PT3651</name></trkpt>
<trkpt lat="53.087399" lon="04.900083"><ele>3.4</ele><time>2021-12-08T13:32:09Z</time><name>PT3652</name></trkpt>
<trkpt lat="53.087410" lon="04.900084"><ele>3.5</ele><time>2021-12-08T13:32:11Z</time><name>PT3653</name></trkpt>
<trkpt lat="53.087422" lon="04.900085"><ele>3.9</ele><time>2021-12-08T13:32:12Z</time><name>PT3654</name></trkpt>
<trkpt lat="53.087434" lon="04.900085"><ele>4</ele><time>2021-12-08T13:32:12Z</time><name>PT3655</name></trkpt>
<trkpt lat="53.087448" lon="04.900087"><ele>4.1</ele><time>2021-12-08T13:32:14Z</time><name>PT3656</name></trkpt>
<trkpt lat="53.087460" lon="04.900089"><ele>4.2</ele><time>2021-12-08T13:32:15Z</time><name>PT3657</name></trkpt>
<trkpt lat="53.087472" lon="04.900091"><ele>4.2</ele><time>2021-12-08T13:32:15Z</time><name>PT3658</name></trkpt>
<trkpt lat="53.087484" lon="04.900091"><ele>3.9</ele><time>2021-12-08T13:32:17Z</time><name>PT3659</name></trkpt>
<trkpt lat="53.087497" lon="04.900090"><ele>4.1</ele><time>2021-12-08T13:32:18Z</time><name>PT3660</name></trkpt>
<trkpt lat="53.087509" lon="04.900089"><ele>4.1</ele><time>2021-12-08T13:32:18Z</time><name>PT3661</name></trkpt>
<trkpt lat="53.087522" lon="04.900088"><ele>4.3</ele><time>2021-12-08T13:32:20Z</time><name>PT3662</name></trkpt>
<trkpt lat="53.087533" lon="04.900086"><ele>4.5</ele><time>2021-12-08T13:32:21Z</time><name>PT3663</name></trkpt>
<trkpt lat="53.087544" lon="04.900084"><ele>4.4</ele><time>2021-12-08T13:32:21Z</time><name>PT3664</name></trkpt>
<trkpt lat="53.087556" lon="04.900085"><ele>4.1</ele><time>2021-12-08T13:32:23Z</time><name>PT3665</name></trkpt>
<trkpt lat="53.087569" lon="04.900088"><ele>4.1</ele><time>2021-12-08T13:32:24Z</time><name>PT3666</name></trkpt>
<trkpt lat="53.087582" lon="04.900093"><ele>3.9</ele><time>2021-12-08T13:32:24Z</time><name>PT3667</name></trkpt>
<trkpt lat="53.087593" lon="04.900096"><ele>3.7</ele><time>2021-12-08T13:32:26Z</time><name>PT3668</name></trkpt>
<trkpt lat="53.087605" lon="04.900097"><ele>3.5</ele><time>2021-12-08T13:32:27Z</time><name>PT3669</name></trkpt>
<trkpt lat="53.087617" lon="04.900096"><ele>3.5</ele><time>2021-12-08T13:32:27Z</time><name>PT3670</name></trkpt>
<trkpt lat="53.087629" lon="04.900093"><ele>3.1</ele><time>2021-12-08T13:32:29Z</time><name>PT3671</name></trkpt>
<trkpt lat="53.087643" lon="04.900090"><ele>3.3</ele><time>2021-12-08T13:32:30Z</time><name>PT3672</name></trkpt>
<trkpt lat="53.087655" lon="04.900089"><ele>3.3</ele><time>2021-12-08T13:32:30Z</time><name>PT3673</name></trkpt>
<trkpt lat="53.087666" lon="04.900090"><ele>3.4</ele><time>2021-12-08T13:32:32Z</time><name>PT3674</name></trkpt>
<trkpt lat="53.087677" lon="04.900090"><ele>3.4</ele><time>2021-12-08T13:32:33Z</time><name>PT3675</name></trkpt>
<trkpt lat="53.087688" lon="04.900090"><ele>3.3</ele><time>2021-12-08T13:32:33Z</time><name>PT3676</name></trkpt>
<trkpt lat="53.087699" lon="04.900094"><ele>3</ele><time>2021-12-08T13:32:35Z</time><name>PT3677</name></trkpt>
<trkpt lat="53.087708" lon="04.900098"><ele>3</ele><time>2021-12-08T13:32:36Z</time><name>PT3678</name></trkpt>
<trkpt lat="53.087720" lon="04.900101"><ele>3</ele><time>2021-12-08T13:32:36Z</time><name>PT3679</name></trkpt>
<trkpt lat="53.087731" lon="04.900098"><ele>2.9</ele><time>2021-12-08T13:32:38Z</time><name>PT3680</name></trkpt>
<trkpt lat="53.087744" lon="04.900095"><ele>2.8</ele><time>2021-12-08T13:32:39Z</time><name>PT3681</name></trkpt>
<trkpt lat="53.087757" lon="04.900093"><ele>2.7</ele><time>2021-12-08T13:32:39Z</time><name>PT3682</name></trkpt>
<trkpt lat="53.087770" lon="04.900090"><ele>2.7</ele><time>2021-12-08T13:32:41Z</time><name>PT3683</name></trkpt>
<trkpt lat="53.087781" lon="04.900088"><ele>2.9</ele><time>2021-12-08T13:32:42Z</time><name>PT3684</name></trkpt>
<trkpt lat="53.087793" lon="04.900089"><ele>3</ele><time>2021-12-08T13:32:42Z</time><name>PT3685</name></trkpt>
<trkpt lat="53.087806" lon="04.900091"><ele>3.1</ele><time>2021-12-08T13:32:44Z</time><name>PT3686</name></trkpt>
<trkpt lat="53.087820" lon="04.900093"><ele>3</ele><time>2021-12-08T13:32:45Z</time><name>PT3687</name></trkpt>
<trkpt lat="53.087832" lon="04.900094"><ele>3.1</ele><time>2021-12-08T13:32:45Z</time><name>PT3688</name></trkpt>
<trkpt lat="53.087844" lon="04.900096"><ele>3.1</ele><time>2021-12-08T13:32:47Z</time><name>PT3689</name></trkpt>
<trkpt lat="53.087855" lon="04.900095"><ele>3</ele><time>2021-12-08T13:32:48Z</time><name>PT3690</name></trkpt>
<trkpt lat="53.087868" lon="04.900095"><ele>3</ele><time>2021-12-08T13:32:48Z</time><name>PT3691</name></trkpt>
<trkpt lat="53.087880" lon="04.900095"><ele>2.9</ele><time>2021-12-08T13:32:50Z</time><name>PT3692</name></trkpt>
<trkpt lat="53.087892" lon="04.900092"><ele>3</ele><time>2021-12-08T13:32:51Z</time><name>PT3693</name></trkpt>
<trkpt lat="53.087904" lon="04.900093"><ele>3.2</ele><time>2021-12-08T13:32:51Z</time><name>PT3694</name></trkpt>
<trkpt lat="53.087916" lon="04.900094"><ele>3.5</ele><time>2021-12-08T13:32:53Z</time><name>PT3695</name></trkpt>
<trkpt lat="53.087929" lon="04.900097"><ele>3.8</ele><time>2021-12-08T13:32:54Z</time><name>PT3696</name></trkpt>
<trkpt lat="53.087941" lon="04.900098"><ele>3.7</ele><time>2021-12-08T13:32:54Z</time><name>PT3697</name></trkpt>
<trkpt lat="53.087952" lon="04.900098"><ele>3.5</ele><time>2021-12-08T13:32:56Z</time><name>PT3698</name></trkpt>
<trkpt lat="53.087964" lon="04.900096"><ele>3.1</ele><time>2021-12-08T13:32:57Z</time><name>PT3699</name></trkpt>
<trkpt lat="53.087976" lon="04.900093"><ele>3.1</ele><time>2021-12-08T13:32:57Z</time><name>PT3700</name></trkpt>
<trkpt lat="53.087988" lon="04.900092"><ele>3</ele><time>2021-12-08T13:32:59Z</time><name>PT3701</name></trkpt>
<trkpt lat="53.088001" lon="04.900093"><ele>3</ele><time>2021-12-08T13:33:00Z</time><name>PT3702</name></trkpt>
<trkpt lat="53.088014" lon="04.900093"><ele>3</ele><time>2021-12-08T13:33:00Z</time><name>PT3703</name></trkpt>
<trkpt lat="53.088028" lon="04.900094"><ele>3.2</ele><time>2021-12-08T13:33:02Z</time><name>PT3704</name></trkpt>
<trkpt lat="53.088040" lon="04.900096"><ele>3</ele><time>2021-12-08T13:33:03Z</time><name>PT3705</name></trkpt>
<trkpt lat="53.088052" lon="04.900097"><ele>3.1</ele><time>2021-12-08T13:33:03Z</time><name>PT3706</name></trkpt>
<trkpt lat="53.088064" lon="04.900097"><ele>3</ele><time>2021-12-08T13:33:05Z</time><name>PT3707</name></trkpt>
<trkpt lat="53.088077" lon="04.900096"><ele>2.8</ele><time>2021-12-08T13:33:06Z</time><name>PT3708</name></trkpt>
<trkpt lat="53.088091" lon="04.900096"><ele>2.9</ele><time>2021-12-08T13:33:06Z</time><name>PT3709</name></trkpt>
<trkpt lat="53.088102" lon="04.900096"><ele>3</ele><time>2021-12-08T13:33:08Z</time><name>PT3710</name></trkpt>
<trkpt lat="53.088113" lon="04.900096"><ele>3.2</ele><time>2021-12-08T13:33:09Z</time><name>PT3711</name></trkpt>
<trkpt lat="53.088125" lon="04.900096"><ele>3.5</ele><time>2021-12-08T13:33:09Z</time><name>PT3712</name></trkpt>
<trkpt lat="53.088138" lon="04.900097"><ele>3.5</ele><time>2021-12-08T13:33:11Z</time><name>PT3713</name></trkpt>
<trkpt lat="53.088151" lon="04.900097"><ele>3.2</ele><time>2021-12-08T13:33:12Z</time><name>PT3714</name></trkpt>
<trkpt lat="53.088164" lon="04.900097"><ele>3.1</ele><time>2021-12-08T13:33:12Z</time><name>PT3715</name></trkpt>
<trkpt lat="53.088177" lon="04.900097"><ele>3</ele><time>2021-12-08T13:33:14Z</time><name>PT3716</name></trkpt>
<trkpt lat="53.088190" lon="04.900096"><ele>3.2</ele><time>2021-12-08T13:33:15Z</time><name>PT3717</name></trkpt>
<trkpt lat="53.088203" lon="04.900094"><ele>3.1</ele><time>2021-12-08T13:33:15Z</time><name>PT3718</name></trkpt>
<trkpt lat="53.088214" lon="04.900093"><ele>3.1</ele><time>2021-12-08T13:33:17Z</time><name>PT3719</name></trkpt>
<trkpt lat="53.088225" lon="04.900093"><ele>3.3</ele><time>2021-12-08T13:33:18Z</time><name>PT3720</name></trkpt>
<trkpt lat="53.088237" lon="04.900094"><ele>3.1</ele><time>2021-12-08T13:33:18Z</time><name>PT3721</name></trkpt>
<trkpt lat="53.088250" lon="04.900096"><ele>3</ele><time>2021-12-08T13:33:20Z</time><name>PT3722</name></trkpt>
<trkpt lat="53.088263" lon="04.900097"><ele>3.3</ele><time>2021-12-08T13:33:21Z</time><name>PT3723</name></trkpt>
<trkpt lat="53.088276" lon="04.900097"><ele>3.1</ele><time>2021-12-08T13:33:21Z</time><name>PT3724</name></trkpt>
<trkpt lat="53.088288" lon="04.900096"><ele>3.1</ele><time>2021-12-08T13:33:23Z</time><name>PT3725</name></trkpt>
<trkpt lat="53.088301" lon="04.900095"><ele>3.3</ele><time>2021-12-08T13:33:24Z</time><name>PT3726</name></trkpt>
<trkpt lat="53.088314" lon="04.900092"><ele>3</ele><time>2021-12-08T13:33:24Z</time><name>PT3727</name></trkpt>
<trkpt lat="53.088326" lon="04.900089"><ele>3.2</ele><time>2021-12-08T13:33:26Z</time><name>PT3728</name></trkpt>
<trkpt lat="53.088338" lon="04.900087"><ele>3.3</ele><time>2021-12-08T13:33:27Z</time><name>PT3729</name></trkpt>
<trkpt lat="53.088350" lon="04.900087"><ele>3.2</ele><time>2021-12-08T13:33:27Z</time><name>PT3730</name></trkpt>
<trkpt lat="53.088363" lon="04.900088"><ele>3.4</ele><time>2021-12-08T13:33:29Z</time><name>PT3731</name></trkpt>
<trkpt lat="53.088375" lon="04.900089"><ele>3.3</ele><time>2021-12-08T13:33:30Z</time><name>PT3732</name></trkpt>
<trkpt lat="53.088386" lon="04.900091"><ele>3.2</ele><time>2021-12-08T13:33:30Z</time><name>PT3733</name></trkpt>
<trkpt lat="53.088399" lon="04.900091"><ele>3.2</ele><time>2021-12-08T13:33:32Z</time><name>PT3734</name></trkpt>
<trkpt lat="53.088412" lon="04.900090"><ele>3.1</ele><time>2021-12-08T13:33:33Z</time><name>PT3735</name></trkpt>
<trkpt lat="53.088424" lon="04.900088"><ele>3.1</ele><time>2021-12-08T13:33:33Z</time><name>PT3736</name></trkpt>
<trkpt lat="53.088435" lon="04.900086"><ele>3.2</ele><time>2021-12-08T13:33:35Z</time><name>PT3737</name></trkpt>
<trkpt lat="53.088446" lon="04.900085"><ele>3.2</ele><time>2021-12-08T13:33:36Z</time><name>PT3738</name></trkpt>
<trkpt lat="53.088458" lon="04.900084"><ele>3.4</ele><time>2021-12-08T13:33:36Z</time><name>PT3739</name></trkpt>
<trkpt lat="53.088471" lon="04.900085"><ele>3.4</ele><time>2021-12-08T13:33:38Z</time><name>PT3740</name></trkpt>
<trkpt lat="53.088484" lon="04.900086"><ele>3.4</ele><time>2021-12-08T13:33:39Z</time><name>PT3741</name></trkpt>
<trkpt lat="53.088496" lon="04.900086"><ele>3.4</ele><time>2021-12-08T13:33:39Z</time><name>PT3742</name></trkpt>
<trkpt lat="53.088508" lon="04.900085"><ele>3.4</ele><time>2021-12-08T13:33:41Z</time><name>PT3743</name></trkpt>
<trkpt lat="53.088522" lon="04.900083"><ele>3.4</ele><time>2021-12-08T13:33:42Z</time><name>PT3744</name></trkpt>
<trkpt lat="53.088534" lon="04.900080"><ele>3.4</ele><time>2021-12-08T13:33:42Z</time><name>PT3745</name></trkpt>
<trkpt lat="53.088546" lon="04.900079"><ele>3.5</ele><time>2021-12-08T13:33:44Z</time><name>PT3746</name></trkpt>
<trkpt lat="53.088557" lon="04.900079"><ele>3.3</ele><time>2021-12-08T13:33:45Z</time><name>PT3747</name></trkpt>
<trkpt lat="53.088570" lon="04.900082"><ele>3</ele><time>2021-12-08T13:33:45Z</time><name>PT3748</name></trkpt>
<trkpt lat="53.088582" lon="04.900083"><ele>3.2</ele><time>2021-12-08T13:33:47Z</time><name>PT3749</name></trkpt>
<trkpt lat="53.088593" lon="04.900082"><ele>3</ele><time>2021-12-08T13:33:48Z</time><name>PT3750</name></trkpt>
<trkpt lat="53.088606" lon="04.900080"><ele>3</ele><time>2021-12-08T13:33:48Z</time><name>PT3751</name></trkpt>
<trkpt lat="53.088618" lon="04.900079"><ele>3.2</ele><time>2021-12-08T13:33:50Z</time><name>PT3752</name></trkpt>
<trkpt lat="53.088629" lon="04.900078"><ele>3.2</ele><time>2021-12-08T13:33:51Z</time><name>PT3753</name></trkpt>
<trkpt lat="53.088639" lon="04.900078"><ele>3.2</ele><time>2021-12-08T13:33:51Z</time><name>PT3754</name></trkpt>
<trkpt lat="53.088651" lon="04.900079"><ele>3.3</ele><time>2021-12-08T13:33:53Z</time><name>PT3755</name></trkpt>
<trkpt lat="53.088663" lon="04.900080"><ele>3.1</ele><time>2021-12-08T13:33:54Z</time><name>PT3756</name></trkpt>
<trkpt lat="53.088676" lon="04.900081"><ele>3</ele><time>2021-12-08T13:33:54Z</time><name>PT3757</name></trkpt>
<trkpt lat="53.088688" lon="04.900079"><ele>3</ele><time>2021-12-08T13:33:56Z</time><name>PT3758</name></trkpt>
<trkpt lat="53.088701" lon="04.900077"><ele>2.7</ele><time>2021-12-08T13:33:57Z</time><name>PT3759</name></trkpt>
<trkpt lat="53.088712" lon="04.900075"><ele>2.6</ele><time>2021-12-08T13:33:57Z</time><name>PT3760</name></trkpt>
<trkpt lat="53.088723" lon="04.900073"><ele>2.5</ele><time>2021-12-08T13:33:59Z</time><name>PT3761</name></trkpt>
<trkpt lat="53.088735" lon="04.900073"><ele>2.4</ele><time>2021-12-08T13:34:00Z</time><name>PT3762</name></trkpt>
<trkpt lat="53.088747" lon="04.900074"><ele>2.4</ele><time>2021-12-08T13:34:00Z</time><name>PT3763</name></trkpt>
<trkpt lat="53.088758" lon="04.900073"><ele>2.6</ele><time>2021-12-08T13:34:02Z</time><name>PT3764</name></trkpt>
<trkpt lat="53.088770" lon="04.900073"><ele>2.7</ele><time>2021-12-08T13:34:03Z</time><name>PT3765</name></trkpt>
<trkpt lat="53.088783" lon="04.900070"><ele>2.9</ele><time>2021-12-08T13:34:03Z</time><name>PT3766</name></trkpt>
<trkpt lat="53.088795" lon="04.900067"><ele>3</ele><time>2021-12-08T13:34:05Z</time><name>PT3767</name></trkpt>
<trkpt lat="53.088807" lon="04.900064"><ele>3</ele><time>2021-12-08T13:34:06Z</time><name>PT3768</name></trkpt>
<trkpt lat="53.088817" lon="04.900065"><ele>2.9</ele><time>2021-12-08T13:34:06Z</time><name>PT3769</name></trkpt>
<trkpt lat="53.088829" lon="04.900066"><ele>2.7</ele><time>2021-12-08T13:34:08Z</time><name>PT3770</name></trkpt>
<trkpt lat="53.088840" lon="04.900067"><ele>2.5</ele><time>2021-12-08T13:34:09Z</time><name>PT3771</name></trkpt>
<trkpt lat="53.088849" lon="04.900067"><ele>2.7</ele><time>2021-12-08T13:34:09Z</time><name>PT3772</name></trkpt>
<trkpt lat="53.088858" lon="04.900067"><ele>2.5</ele><time>2021-12-08T13:34:11Z</time><name>PT3773</name></trkpt>
<trkpt lat="53.088859" lon="04.900066"><ele>2.7</ele><time>2021-12-08T13:34:12Z</time><name>PT3774</name></trkpt>
<trkpt lat="53.088859" lon="04.900065"><ele>2.8</ele><time>2021-12-08T13:34:12Z</time><name>PT3775</name></trkpt>
<trkpt lat="53.088858" lon="04.900064"><ele>2.7</ele><time>2021-12-08T13:34:14Z</time><name>PT3776</name></trkpt>
<trkpt lat="53.088865" lon="04.900067"><ele>2.8</ele><time>2021-12-08T13:34:18Z</time><name>PT3777</name></trkpt>
<trkpt lat="53.088878" lon="04.900072"><ele>2.7</ele><time>2021-12-08T13:34:18Z</time><name>PT3778</name></trkpt>
<trkpt lat="53.088890" lon="04.900074"><ele>2.6</ele><time>2021-12-08T13:34:20Z</time><name>PT3779</name></trkpt>
<trkpt lat="53.088901" lon="04.900071"><ele>2.6</ele><time>2021-12-08T13:34:21Z</time><name>PT3780</name></trkpt>
<trkpt lat="53.088913" lon="04.900068"><ele>2.6</ele><time>2021-12-08T13:34:21Z</time><name>PT3781</name></trkpt>
<trkpt lat="53.088927" lon="04.900065"><ele>2.7</ele><time>2021-12-08T13:34:23Z</time><name>PT3782</name></trkpt>
<trkpt lat="53.088940" lon="04.900063"><ele>3</ele><time>2021-12-08T13:34:24Z</time><name>PT3783</name></trkpt>
<trkpt lat="53.088951" lon="04.900059"><ele>3</ele><time>2021-12-08T13:34:24Z</time><name>PT3784</name></trkpt>
<trkpt lat="53.088962" lon="04.900056"><ele>3</ele><time>2021-12-08T13:34:26Z</time><name>PT3785</name></trkpt>
<trkpt lat="53.088973" lon="04.900054"><ele>3.2</ele><time>2021-12-08T13:34:27Z</time><name>PT3786</name></trkpt>
<trkpt lat="53.088985" lon="04.900053"><ele>3</ele><time>2021-12-08T13:34:27Z</time><name>PT3787</name></trkpt>
<trkpt lat="53.088997" lon="04.900054"><ele>3.1</ele><time>2021-12-08T13:34:29Z</time><name>PT3788</name></trkpt>
<trkpt lat="53.089009" lon="04.900053"><ele>3.3</ele><time>2021-12-08T13:34:30Z</time><name>PT3789</name></trkpt>
<trkpt lat="53.089020" lon="04.900052"><ele>3.5</ele><time>2021-12-08T13:34:30Z</time><name>PT3790</name></trkpt>
<trkpt lat="53.089033" lon="04.900050"><ele>3.5</ele><time>2021-12-08T13:34:32Z</time><name>PT3791</name></trkpt>
<trkpt lat="53.089045" lon="04.900046"><ele>3.5</ele><time>2021-12-08T13:34:33Z</time><name>PT3792</name></trkpt>
<trkpt lat="53.089056" lon="04.900043"><ele>3.5</ele><time>2021-12-08T13:34:33Z</time><name>PT3793</name></trkpt>
<trkpt lat="53.089067" lon="04.900043"><ele>3.5</ele><time>2021-12-08T13:34:35Z</time><name>PT3794</name></trkpt>
<trkpt lat="53.089079" lon="04.900042"><ele>3.5</ele><time>2021-12-08T13:34:36Z</time><name>PT3795</name></trkpt>
<trkpt lat="53.089090" lon="04.900042"><ele>3.5</ele><time>2021-12-08T13:34:36Z</time><name>PT3796</name></trkpt>
<trkpt lat="53.089102" lon="04.900042"><ele>3.3</ele><time>2021-12-08T13:34:38Z</time><name>PT3797</name></trkpt>
<trkpt lat="53.089114" lon="04.900041"><ele>3.2</ele><time>2021-12-08T13:34:39Z</time><name>PT3798</name></trkpt>
<trkpt lat="53.089125" lon="04.900040"><ele>3.2</ele><time>2021-12-08T13:34:39Z</time><name>PT3799</name></trkpt>
<trkpt lat="53.089135" lon="04.900039"><ele>3.2</ele><time>2021-12-08T13:34:41Z</time><name>PT3800</name></trkpt>
<trkpt lat="53.089145" lon="04.900039"><ele>3.4</ele><time>2021-12-08T13:34:42Z</time><name>PT3801</name></trkpt>
<trkpt lat="53.089152" lon="04.900043"><ele>3.4</ele><time>2021-12-08T13:34:42Z</time><name>PT3802</name></trkpt>
<trkpt lat="53.089156" lon="04.900044"><ele>3.1</ele><time>2021-12-08T13:34:44Z</time><name>PT3803</name></trkpt>
<trkpt lat="53.089157" lon="04.900044"><ele>3</ele><time>2021-12-08T13:34:45Z</time><name>PT3804</name></trkpt>
<trkpt lat="53.089165" lon="04.900043"><ele>2.9</ele><time>2021-12-08T13:34:45Z</time><name>PT3805</name></trkpt>
<trkpt lat="53.089175" lon="04.900044"><ele>3</ele><time>2021-12-08T13:34:47Z</time><name>PT3806</name></trkpt>
<trkpt lat="53.089187" lon="04.900044"><ele>3</ele><time>2021-12-08T13:34:48Z</time><name>PT3807</name></trkpt>
<trkpt lat="53.089200" lon="04.900043"><ele>3</ele><time>2021-12-08T13:34:48Z</time><name>PT3808</name></trkpt>
<trkpt lat="53.089213" lon="04.900044"><ele>3</ele><time>2021-12-08T13:34:50Z</time><name>PT3809</name></trkpt>
<trkpt lat="53.089225" lon="04.900044"><ele>2.8</ele><time>2021-12-08T13:34:51Z</time><name>PT3810</name></trkpt>
<trkpt lat="53.089238" lon="04.900041"><ele>3</ele><time>2021-12-08T13:34:51Z</time><name>PT3811</name></trkpt>
<trkpt lat="53.089251" lon="04.900039"><ele>3</ele><time>2021-12-08T13:34:53Z</time><name>PT3812</name></trkpt>
<trkpt lat="53.089264" lon="04.900035"><ele>3</ele><time>2021-12-08T13:34:54Z</time><name>PT3813</name></trkpt>
<trkpt lat="53.089275" lon="04.900031"><ele>3.1</ele><time>2021-12-08T13:34:54Z</time><name>PT3814</name></trkpt>
<trkpt lat="53.089286" lon="04.900030"><ele>3.1</ele><time>2021-12-08T13:34:56Z</time><name>PT3815</name></trkpt>
<trkpt lat="53.089296" lon="04.900030"><ele>3</ele><time>2021-12-08T13:34:57Z</time><name>PT3816</name></trkpt>
<trkpt lat="53.089308" lon="04.900030"><ele>2.7</ele><time>2021-12-08T13:34:57Z</time><name>PT3817</name></trkpt>
<trkpt lat="53.089320" lon="04.900030"><ele>2.7</ele><time>2021-12-08T13:34:59Z</time><name>PT3818</name></trkpt>
<trkpt lat="53.089331" lon="04.900031"><ele>2.5</ele><time>2021-12-08T13:35:00Z</time><name>PT3819</name></trkpt>
<trkpt lat="53.089341" lon="04.900031"><ele>2.4</ele><time>2021-12-08T13:35:00Z</time><name>PT3820</name></trkpt>
<trkpt lat="53.089352" lon="04.900029"><ele>2.4</ele><time>2021-12-08T13:35:02Z</time><name>PT3821</name></trkpt>
<trkpt lat="53.089358" lon="04.900029"><ele>2.4</ele><time>2021-12-08T13:35:03Z</time><name>PT3822</name></trkpt>
<trkpt lat="53.089360" lon="04.900028"><ele>2.3</ele><time>2021-12-08T13:35:03Z</time><name>PT3823</name></trkpt>
<trkpt lat="53.089366" lon="04.900029"><ele>2.4</ele><time>2021-12-08T13:35:05Z</time><name>PT3824</name></trkpt>
<trkpt lat="53.089376" lon="04.900027"><ele>2.5</ele><time>2021-12-08T13:35:06Z</time><name>PT3825</name></trkpt>
<trkpt lat="53.089387" lon="04.900026"><ele>2.7</ele><time>2021-12-08T13:35:06Z</time><name>PT3826</name></trkpt>
<trkpt lat="53.089398" lon="04.900023"><ele>2.7</ele><time>2021-12-08T13:35:08Z</time><name>PT3827</name></trkpt>
<trkpt lat="53.089410" lon="04.900021"><ele>3</ele><time>2021-12-08T13:35:09Z</time><name>PT3828</name></trkpt>
<trkpt lat="53.089420" lon="04.900019"><ele>3</ele><time>2021-12-08T13:35:09Z</time><name>PT3829</name></trkpt>
<trkpt lat="53.089431" lon="04.900019"><ele>3</ele><time>2021-12-08T13:35:11Z</time><name>PT3830</name></trkpt>
<trkpt lat="53.089444" lon="04.900018"><ele>2.9</ele><time>2021-12-08T13:35:12Z</time><name>PT3831</name></trkpt>
<trkpt lat="53.089456" lon="04.900018"><ele>2.8</ele><time>2021-12-08T13:35:12Z</time><name>PT3832</name></trkpt>
<trkpt lat="53.089469" lon="04.900016"><ele>3</ele><time>2021-12-08T13:35:14Z</time><name>PT3833</name></trkpt>
<trkpt lat="53.089482" lon="04.900017"><ele>3</ele><time>2021-12-08T13:35:15Z</time><name>PT3834</name></trkpt>
<trkpt lat="53.089494" lon="04.900016"><ele>3.4</ele><time>2021-12-08T13:35:15Z</time><name>PT3835</name></trkpt>
<trkpt lat="53.089505" lon="04.900015"><ele>3.2</ele><time>2021-12-08T13:35:17Z</time><name>PT3836</name></trkpt>
<trkpt lat="53.089517" lon="04.900010"><ele>3.3</ele><time>2021-12-08T13:35:18Z</time><name>PT3837</name></trkpt>
<trkpt lat="53.089527" lon="04.900006"><ele>3.2</ele><time>2021-12-08T13:35:18Z</time><name>PT3838</name></trkpt>
<trkpt lat="53.089538" lon="04.900006"><ele>3</ele><time>2021-12-08T13:35:20Z</time><name>PT3839</name></trkpt>
<trkpt lat="53.089550" lon="04.900006"><ele>3.2</ele><time>2021-12-08T13:35:21Z</time><name>PT3840</name></trkpt>
<trkpt lat="53.089562" lon="04.900004"><ele>3.1</ele><time>2021-12-08T13:35:21Z</time><name>PT3841</name></trkpt>
<trkpt lat="53.089575" lon="04.900005"><ele>3.3</ele><time>2021-12-08T13:35:23Z</time><name>PT3842</name></trkpt>
<trkpt lat="53.089587" lon="04.900004"><ele>3.4</ele><time>2021-12-08T13:35:24Z</time><name>PT3843</name></trkpt>
<trkpt lat="53.089599" lon="04.900004"><ele>3.4</ele><time>2021-12-08T13:35:24Z</time><name>PT3844</name></trkpt>
<trkpt lat="53.089612" lon="04.900003"><ele>3.5</ele><time>2021-12-08T13:35:26Z</time><name>PT3845</name></trkpt>
<trkpt lat="53.089624" lon="04.900001"><ele>3.4</ele><time>2021-12-08T13:35:27Z</time><name>PT3846</name></trkpt>
<trkpt lat="53.089635" lon="04.899999"><ele>3.4</ele><time>2021-12-08T13:35:27Z</time><name>PT3847</name></trkpt>
<trkpt lat="53.089648" lon="04.899998"><ele>3.1</ele><time>2021-12-08T13:35:29Z</time><name>PT3848</name></trkpt>
<trkpt lat="53.089660" lon="04.899999"><ele>3</ele><time>2021-12-08T13:35:30Z</time><name>PT3849</name></trkpt>
<trkpt lat="53.089672" lon="04.900000"><ele>3</ele><time>2021-12-08T13:35:30Z</time><name>PT3850</name></trkpt>
<trkpt lat="53.089686" lon="04.899999"><ele>3</ele><time>2021-12-08T13:35:32Z</time><name>PT3851</name></trkpt>
<trkpt lat="53.089698" lon="04.899999"><ele>3</ele><time>2021-12-08T13:35:33Z</time><name>PT3852</name></trkpt>
<trkpt lat="53.089709" lon="04.899999"><ele>3</ele><time>2021-12-08T13:35:33Z</time><name>PT3853</name></trkpt>
<trkpt lat="53.089721" lon="04.899999"><ele>3</ele><time>2021-12-08T13:35:35Z</time><name>PT3854</name></trkpt>
<trkpt lat="53.089732" lon="04.899998"><ele>2.8</ele><time>2021-12-08T13:35:36Z</time><name>PT3855</name></trkpt>
<trkpt lat="53.089742" lon="04.899998"><ele>2.9</ele><time>2021-12-08T13:35:36Z</time><name>PT3856</name></trkpt>
<trkpt lat="53.089754" lon="04.899997"><ele>2.8</ele><time>2021-12-08T13:35:38Z</time><name>PT3857</name></trkpt>
<trkpt lat="53.089767" lon="04.899996"><ele>3</ele><time>2021-12-08T13:35:39Z</time><name>PT3858</name></trkpt>
<trkpt lat="53.089781" lon="04.899995"><ele>3</ele><time>2021-12-08T13:35:39Z</time><name>PT3859</name></trkpt>
<trkpt lat="53.089793" lon="04.899996"><ele>3.2</ele><time>2021-12-08T13:35:41Z</time><name>PT3860</name></trkpt>
<trkpt lat="53.089805" lon="04.899996"><ele>3.2</ele><time>2021-12-08T13:35:42Z</time><name>PT3861</name></trkpt>
<trkpt lat="53.089818" lon="04.899996"><ele>3.3</ele><time>2021-12-08T13:35:42Z</time><name>PT3862</name></trkpt>
<trkpt lat="53.089831" lon="04.899992"><ele>3</ele><time>2021-12-08T13:35:44Z</time><name>PT3863</name></trkpt>
<trkpt lat="53.089843" lon="04.899988"><ele>2.9</ele><time>2021-12-08T13:35:45Z</time><name>PT3864</name></trkpt>
<trkpt lat="53.089855" lon="04.899987"><ele>2.9</ele><time>2021-12-08T13:35:45Z</time><name>PT3865</name></trkpt>
<trkpt lat="53.089867" lon="04.899986"><ele>3</ele><time>2021-12-08T13:35:47Z</time><name>PT3866</name></trkpt>
<trkpt lat="53.089879" lon="04.899986"><ele>3.2</ele><time>2021-12-08T13:35:48Z</time><name>PT3867</name></trkpt>
<trkpt lat="53.089891" lon="04.899987"><ele>3.3</ele><time>2021-12-08T13:35:48Z</time><name>PT3868</name></trkpt>
<trkpt lat="53.089901" lon="04.899987"><ele>3.1</ele><time>2021-12-08T13:35:50Z</time><name>PT3869</name></trkpt>
<trkpt lat="53.089912" lon="04.899985"><ele>3</ele><time>2021-12-08T13:35:51Z</time><name>PT3870</name></trkpt>
<trkpt lat="53.089925" lon="04.899981"><ele>2.8</ele><time>2021-12-08T13:35:51Z</time><name>PT3871</name></trkpt>
<trkpt lat="53.089938" lon="04.899978"><ele>2.7</ele><time>2021-12-08T13:35:53Z</time><name>PT3872</name></trkpt>
<trkpt lat="53.089950" lon="04.899975"><ele>2.6</ele><time>2021-12-08T13:35:54Z</time><name>PT3873</name></trkpt>
<trkpt lat="53.089960" lon="04.899974"><ele>2.6</ele><time>2021-12-08T13:35:54Z</time><name>PT3874</name></trkpt>
<trkpt lat="53.089972" lon="04.899973"><ele>2.4</ele><time>2021-12-08T13:35:56Z</time><name>PT3875</name></trkpt>
<trkpt lat="53.089984" lon="04.899974"><ele>2.4</ele><time>2021-12-08T13:35:57Z</time><name>PT3876</name></trkpt>
<trkpt lat="53.089996" lon="04.899974"><ele>2.4</ele><time>2021-12-08T13:35:57Z</time><name>PT3877</name></trkpt>
<trkpt lat="53.090007" lon="04.899974"><ele>2.1</ele><time>2021-12-08T13:35:59Z</time><name>PT3878</name></trkpt>
<trkpt lat="53.090020" lon="04.899973"><ele>2.1</ele><time>2021-12-08T13:36:00Z</time><name>PT3879</name></trkpt>
<trkpt lat="53.090031" lon="04.899972"><ele>2</ele><time>2021-12-08T13:36:00Z</time><name>PT3880</name></trkpt>
<trkpt lat="53.090043" lon="04.899968"><ele>2.4</ele><time>2021-12-08T13:36:02Z</time><name>PT3881</name></trkpt>
<trkpt lat="53.090055" lon="04.899967"><ele>2.6</ele><time>2021-12-08T13:36:03Z</time><name>PT3882</name></trkpt>
<trkpt lat="53.090067" lon="04.899968"><ele>2.7</ele><time>2021-12-08T13:36:03Z</time><name>PT3883</name></trkpt>
<trkpt lat="53.090080" lon="04.899969"><ele>2.8</ele><time>2021-12-08T13:36:05Z</time><name>PT3884</name></trkpt>
<trkpt lat="53.090092" lon="04.899968"><ele>2.7</ele><time>2021-12-08T13:36:06Z</time><name>PT3885</name></trkpt>
<trkpt lat="53.090104" lon="04.899966"><ele>2.7</ele><time>2021-12-08T13:36:06Z</time><name>PT3886</name></trkpt>
<trkpt lat="53.090116" lon="04.899963"><ele>2.6</ele><time>2021-12-08T13:36:08Z</time><name>PT3887</name></trkpt>
<trkpt lat="53.090128" lon="04.899960"><ele>2.9</ele><time>2021-12-08T13:36:09Z</time><name>PT3888</name></trkpt>
<trkpt lat="53.090139" lon="04.899959"><ele>3</ele><time>2021-12-08T13:36:09Z</time><name>PT3889</name></trkpt>
<trkpt lat="53.090151" lon="04.899958"><ele>3</ele><time>2021-12-08T13:36:11Z</time><name>PT3890</name></trkpt>
<trkpt lat="53.090164" lon="04.899956"><ele>3</ele><time>2021-12-08T13:36:12Z</time><name>PT3891</name></trkpt>
<trkpt lat="53.090176" lon="04.899956"><ele>3</ele><time>2021-12-08T13:36:12Z</time><name>PT3892</name></trkpt>
<trkpt lat="53.090188" lon="04.899955"><ele>2.6</ele><time>2021-12-08T13:36:14Z</time><name>PT3893</name></trkpt>
<trkpt lat="53.090200" lon="04.899952"><ele>2.4</ele><time>2021-12-08T13:36:15Z</time><name>PT3894</name></trkpt>
<trkpt lat="53.090212" lon="04.899949"><ele>2.5</ele><time>2021-12-08T13:36:15Z</time><name>PT3895</name></trkpt>
<trkpt lat="53.090223" lon="04.899946"><ele>2.4</ele><time>2021-12-08T13:36:17Z</time><name>PT3896</name></trkpt>
<trkpt lat="53.090233" lon="04.899945"><ele>2.4</ele><time>2021-12-08T13:36:18Z</time><name>PT3897</name></trkpt>
<trkpt lat="53.090246" lon="04.899944"><ele>2.4</ele><time>2021-12-08T13:36:18Z</time><name>PT3898</name></trkpt>
<trkpt lat="53.090260" lon="04.899943"><ele>2.1</ele><time>2021-12-08T13:36:20Z</time><name>PT3899</name></trkpt>
<trkpt lat="53.090272" lon="04.899941"><ele>2.1</ele><time>2021-12-08T13:36:21Z</time><name>PT3900</name></trkpt>
<trkpt lat="53.090283" lon="04.899939"><ele>2.2</ele><time>2021-12-08T13:36:21Z</time><name>PT3901</name></trkpt>
<trkpt lat="53.090296" lon="04.899936"><ele>2.2</ele><time>2021-12-08T13:36:23Z</time><name>PT3902</name></trkpt>
<trkpt lat="53.090308" lon="04.899933"><ele>2.3</ele><time>2021-12-08T13:36:24Z</time><name>PT3903</name></trkpt>
<trkpt lat="53.090319" lon="04.899930"><ele>2.3</ele><time>2021-12-08T13:36:24Z</time><name>PT3904</name></trkpt>
<trkpt lat="53.090330" lon="04.899928"><ele>2</ele><time>2021-12-08T13:36:26Z</time><name>PT3905</name></trkpt>
<trkpt lat="53.090342" lon="04.899927"><ele>2.2</ele><time>2021-12-08T13:36:27Z</time><name>PT3906</name></trkpt>
<trkpt lat="53.090354" lon="04.899927"><ele>2.3</ele><time>2021-12-08T13:36:27Z</time><name>PT3907</name></trkpt>
<trkpt lat="53.090366" lon="04.899925"><ele>2.4</ele><time>2021-12-08T13:36:29Z</time><name>PT3908</name></trkpt>
<trkpt lat="53.090378" lon="04.899922"><ele>2.5</ele><time>2021-12-08T13:36:30Z</time><name>PT3909</name></trkpt>
<trkpt lat="53.090390" lon="04.899918"><ele>2.4</ele><time>2021-12-08T13:36:30Z</time><name>PT3910</name></trkpt>
<trkpt lat="53.090402" lon="04.899915"><ele>2.4</ele><time>2021-12-08T13:36:32Z</time><name>PT3911</name></trkpt>
<trkpt lat="53.090413" lon="04.899914"><ele>2.4</ele><time>2021-12-08T13:36:33Z</time><name>PT3912</name></trkpt>
<trkpt lat="53.090425" lon="04.899914"><ele>2.4</ele><time>2021-12-08T13:36:33Z</time><name>PT3913</name></trkpt>
<trkpt lat="53.090438" lon="04.899913"><ele>2.6</ele><time>2021-12-08T13:36:35Z</time><name>PT3914</name></trkpt>
<trkpt lat="53.090449" lon="04.899912"><ele>2.7</ele><time>2021-12-08T13:36:36Z</time><name>PT3915</name></trkpt>
<trkpt lat="53.090460" lon="04.899911"><ele>2.6</ele><time>2021-12-08T13:36:36Z</time><name>PT3916</name></trkpt>
<trkpt lat="53.090471" lon="04.899909"><ele>2.7</ele><time>2021-12-08T13:36:38Z</time><name>PT3917</name></trkpt>
<trkpt lat="53.090483" lon="04.899905"><ele>2.6</ele><time>2021-12-08T13:36:39Z</time><name>PT3918</name></trkpt>
<trkpt lat="53.090493" lon="04.899902"><ele>2.6</ele><time>2021-12-08T13:36:39Z</time><name>PT3919</name></trkpt>
<trkpt lat="53.090505" lon="04.899899"><ele>2.7</ele><time>2021-12-08T13:36:41Z</time><name>PT3920</name></trkpt>
<trkpt lat="53.090517" lon="04.899898"><ele>2.6</ele><time>2021-12-08T13:36:42Z</time><name>PT3921</name></trkpt>
<trkpt lat="53.090529" lon="04.899897"><ele>2.5</ele><time>2021-12-08T13:36:42Z</time><name>PT3922</name></trkpt>
<trkpt lat="53.090541" lon="04.899896"><ele>2.4</ele><time>2021-12-08T13:36:44Z</time><name>PT3923</name></trkpt>
<trkpt lat="53.090552" lon="04.899892"><ele>2.3</ele><time>2021-12-08T13:36:45Z</time><name>PT3924</name></trkpt>
<trkpt lat="53.090563" lon="04.899889"><ele>2.2</ele><time>2021-12-08T13:36:45Z</time><name>PT3925</name></trkpt>
<trkpt lat="53.090573" lon="04.899885"><ele>2.2</ele><time>2021-12-08T13:36:47Z</time><name>PT3926</name></trkpt>
<trkpt lat="53.090585" lon="04.899883"><ele>2.2</ele><time>2021-12-08T13:36:48Z</time><name>PT3927</name></trkpt>
<trkpt lat="53.090597" lon="04.899881"><ele>2.4</ele><time>2021-12-08T13:36:48Z</time><name>PT3928</name></trkpt>
<trkpt lat="53.090609" lon="04.899881"><ele>2.4</ele><time>2021-12-08T13:36:50Z</time><name>PT3929</name></trkpt>
<trkpt lat="53.090621" lon="04.899879"><ele>2.5</ele><time>2021-12-08T13:36:51Z</time><name>PT3930</name></trkpt>
<trkpt lat="53.090632" lon="04.899876"><ele>2.6</ele><time>2021-12-08T13:36:51Z</time><name>PT3931</name></trkpt>
<trkpt lat="53.090644" lon="04.899875"><ele>2.6</ele><time>2021-12-08T13:36:53Z</time><name>PT3932</name></trkpt>
<trkpt lat="53.090655" lon="04.899871"><ele>2.5</ele><time>2021-12-08T13:36:54Z</time><name>PT3933</name></trkpt>
<trkpt lat="53.090666" lon="04.899867"><ele>2.5</ele><time>2021-12-08T13:36:54Z</time><name>PT3934</name></trkpt>
<trkpt lat="53.090677" lon="04.899866"><ele>2.6</ele><time>2021-12-08T13:36:55Z</time><name>PT3935</name></trkpt>
<trkpt lat="53.090689" lon="04.899865"><ele>2.8</ele><time>2021-12-08T13:36:57Z</time><name>PT3936</name></trkpt>
<trkpt lat="53.090702" lon="04.899864"><ele>2.8</ele><time>2021-12-08T13:36:57Z</time><name>PT3937</name></trkpt>
<trkpt lat="53.090714" lon="04.899864"><ele>3</ele><time>2021-12-08T13:36:59Z</time><name>PT3938</name></trkpt>
<trkpt lat="53.090727" lon="04.899864"><ele>2.8</ele><time>2021-12-08T13:37:00Z</time><name>PT3939</name></trkpt>
<trkpt lat="53.090738" lon="04.899861"><ele>2.8</ele><time>2021-12-08T13:37:00Z</time><name>PT3940</name></trkpt>
<trkpt lat="53.090751" lon="04.899856"><ele>2.8</ele><time>2021-12-08T13:37:02Z</time><name>PT3941</name></trkpt>
<trkpt lat="53.090763" lon="04.899851"><ele>2.9</ele><time>2021-12-08T13:37:03Z</time><name>PT3942</name></trkpt>
<trkpt lat="53.090775" lon="04.899848"><ele>2.9</ele><time>2021-12-08T13:37:03Z</time><name>PT3943</name></trkpt>
<trkpt lat="53.090786" lon="04.899846"><ele>2.9</ele><time>2021-12-08T13:37:05Z</time><name>PT3944</name></trkpt>
<trkpt lat="53.090798" lon="04.899844"><ele>3</ele><time>2021-12-08T13:37:06Z</time><name>PT3945</name></trkpt>
<trkpt lat="53.090810" lon="04.899843"><ele>3</ele><time>2021-12-08T13:37:06Z</time><name>PT3946</name></trkpt>
<trkpt lat="53.090822" lon="04.899842"><ele>3</ele><time>2021-12-08T13:37:08Z</time><name>PT3947</name></trkpt>
<trkpt lat="53.090834" lon="04.899840"><ele>3</ele><time>2021-12-08T13:37:09Z</time><name>PT3948</name></trkpt>
<trkpt lat="53.090846" lon="04.899837"><ele>3</ele><time>2021-12-08T13:37:09Z</time><name>PT3949</name></trkpt>
<trkpt lat="53.090857" lon="04.899835"><ele>3</ele><time>2021-12-08T13:37:11Z</time><name>PT3950</name></trkpt>
<trkpt lat="53.090868" lon="04.899833"><ele>3</ele><time>2021-12-08T13:37:12Z</time><name>PT3951</name></trkpt>
<trkpt lat="53.090879" lon="04.899831"><ele>2.8</ele><time>2021-12-08T13:37:12Z</time><name>PT3952</name></trkpt>
<trkpt lat="53.090891" lon="04.899830"><ele>2.8</ele><time>2021-12-08T13:37:14Z</time><name>PT3953</name></trkpt>
<trkpt lat="53.090904" lon="04.899830"><ele>2.4</ele><time>2021-12-08T13:37:15Z</time><name>PT3954</name></trkpt>
<trkpt lat="53.090915" lon="04.899829"><ele>2.4</ele><time>2021-12-08T13:37:15Z</time><name>PT3955</name></trkpt>
<trkpt lat="53.090927" lon="04.899825"><ele>2.5</ele><time>2021-12-08T13:37:17Z</time><name>PT3956</name></trkpt>
<trkpt lat="53.090939" lon="04.899820"><ele>2.4</ele><time>2021-12-08T13:37:18Z</time><name>PT3957</name></trkpt>
<trkpt lat="53.090951" lon="04.899816"><ele>2.5</ele><time>2021-12-08T13:37:18Z</time><name>PT3958</name></trkpt>
<trkpt lat="53.090963" lon="04.899813"><ele>2.5</ele><time>2021-12-08T13:37:20Z</time><name>PT3959</name></trkpt>
<trkpt lat="53.090973" lon="04.899811"><ele>2.6</ele><time>2021-12-08T13:37:21Z</time><name>PT3960</name></trkpt>
<trkpt lat="53.090986" lon="04.899809"><ele>2.8</ele><time>2021-12-08T13:37:21Z</time><name>PT3961</name></trkpt>
<trkpt lat="53.090999" lon="04.899807"><ele>3</ele><time>2021-12-08T13:37:23Z</time><name>PT3962</name></trkpt>
<trkpt lat="53.091012" lon="04.899805"><ele>3.2</ele><time>2021-12-08T13:37:24Z</time><name>PT3963</name></trkpt>
<trkpt lat="53.091024" lon="04.899802"><ele>3.2</ele><time>2021-12-08T13:37:24Z</time><name>PT3964</name></trkpt>
<trkpt lat="53.091036" lon="04.899800"><ele>3.1</ele><time>2021-12-08T13:37:25Z</time><name>PT3965</name></trkpt>
<trkpt lat="53.091049" lon="04.899798"><ele>3</ele><time>2021-12-08T13:37:27Z</time><name>PT3966</name></trkpt>
<trkpt lat="53.091060" lon="04.899795"><ele>2.9</ele><time>2021-12-08T13:37:27Z</time><name>PT3967</name></trkpt>
<trkpt lat="53.091071" lon="04.899792"><ele>2.8</ele><time>2021-12-08T13:37:29Z</time><name>PT3968</name></trkpt>
<trkpt lat="53.091081" lon="04.899790"><ele>3</ele><time>2021-12-08T13:37:30Z</time><name>PT3969</name></trkpt>
<trkpt lat="53.091094" lon="04.899788"><ele>3</ele><time>2021-12-08T13:37:30Z</time><name>PT3970</name></trkpt>
<trkpt lat="53.091107" lon="04.899787"><ele>2.8</ele><time>2021-12-08T13:37:32Z</time><name>PT3971</name></trkpt>
<trkpt lat="53.091119" lon="04.899786"><ele>3</ele><time>2021-12-08T13:37:33Z</time><name>PT3972</name></trkpt>
<trkpt lat="53.091130" lon="04.899784"><ele>2.8</ele><time>2021-12-08T13:37:33Z</time><name>PT3973</name></trkpt>
<trkpt lat="53.091142" lon="04.899779"><ele>2.5</ele><time>2021-12-08T13:37:34Z</time><name>PT3974</name></trkpt>
<trkpt lat="53.091153" lon="04.899774"><ele>2.4</ele><time>2021-12-08T13:37:36Z</time><name>PT3975</name></trkpt>
<trkpt lat="53.091163" lon="04.899770"><ele>2.3</ele><time>2021-12-08T13:37:36Z</time><name>PT3976</name></trkpt>
<trkpt lat="53.091175" lon="04.899768"><ele>2.3</ele><time>2021-12-08T13:37:37Z</time><name>PT3977</name></trkpt>
<trkpt lat="53.091187" lon="04.899768"><ele>2.4</ele><time>2021-12-08T13:37:39Z</time><name>PT3978</name></trkpt>
<trkpt lat="53.091198" lon="04.899767"><ele>2.4</ele><time>2021-12-08T13:37:39Z</time><name>PT3979</name></trkpt>
<trkpt lat="53.091209" lon="04.899764"><ele>2.4</ele><time>2021-12-08T13:37:41Z</time><name>PT3980</name></trkpt>
<trkpt lat="53.091221" lon="04.899759"><ele>2.4</ele><time>2021-12-08T13:37:42Z</time><name>PT3981</name></trkpt>
<trkpt lat="53.091233" lon="04.899756"><ele>2.6</ele><time>2021-12-08T13:37:42Z</time><name>PT3982</name></trkpt>
<trkpt lat="53.091245" lon="04.899752"><ele>2.8</ele><time>2021-12-08T13:37:44Z</time><name>PT3983</name></trkpt>
<trkpt lat="53.091256" lon="04.899748"><ele>2.8</ele><time>2021-12-08T13:37:45Z</time><name>PT3984</name></trkpt>
<trkpt lat="53.091267" lon="04.899747"><ele>3</ele><time>2021-12-08T13:37:45Z</time><name>PT3985</name></trkpt>
<trkpt lat="53.091279" lon="04.899746"><ele>2.9</ele><time>2021-12-08T13:37:46Z</time><name>PT3986</name></trkpt>
<trkpt lat="53.091290" lon="04.899745"><ele>3</ele><time>2021-12-08T13:37:48Z</time><name>PT3987</name></trkpt>
<trkpt lat="53.091302" lon="04.899742"><ele>2.9</ele><time>2021-12-08T13:37:48Z</time><name>PT3988</name></trkpt>
<trkpt lat="53.091313" lon="04.899737"><ele>3</ele><time>2021-12-08T13:37:49Z</time><name>PT3989</name></trkpt>
<trkpt lat="53.091326" lon="04.899733"><ele>2.9</ele><time>2021-12-08T13:37:51Z</time><name>PT3990</name></trkpt>
<trkpt lat="53.091338" lon="04.899729"><ele>2.7</ele><time>2021-12-08T13:37:51Z</time><name>PT3991</name></trkpt>
<trkpt lat="53.091350" lon="04.899727"><ele>2.7</ele><time>2021-12-08T13:37:53Z</time><name>PT3992</name></trkpt>
<trkpt lat="53.091362" lon="04.899725"><ele>2.6</ele><time>2021-12-08T13:37:54Z</time><name>PT3993</name></trkpt>
<trkpt lat="53.091374" lon="04.899726"><ele>2.4</ele><time>2021-12-08T13:37:54Z</time><name>PT3994</name></trkpt>
<trkpt lat="53.091387" lon="04.899725"><ele>2.7</ele><time>2021-12-08T13:37:56Z</time><name>PT3995</name></trkpt>
<trkpt lat="53.091399" lon="04.899724"><ele>3</ele><time>2021-12-08T13:37:57Z</time><name>PT3996</name></trkpt>
<trkpt lat="53.091411" lon="04.899722"><ele>3</ele><time>2021-12-08T13:37:57Z</time><name>PT3997</name></trkpt>
<trkpt lat="53.091421" lon="04.899719"><ele>2.8</ele><time>2021-12-08T13:37:58Z</time><name>PT3998</name></trkpt>
<trkpt lat="53.091431" lon="04.899716"><ele>2.5</ele><time>2021-12-08T13:38:00Z</time><name>PT3999</name></trkpt>
<trkpt lat="53.091443" lon="04.899714"><ele>2.4</ele><time>2021-12-08T13:38:00Z</time><name>PT4000</name></trkpt>
<trkpt lat="53.091456" lon="04.899713"><ele>2.3</ele><time>2021-12-08T13:38:01Z</time><name>PT4001</name></trkpt>
<trkpt lat="53.091469" lon="04.899711"><ele>2.4</ele><time>2021-12-08T13:38:03Z</time><name>PT4002</name></trkpt>
<trkpt lat="53.091481" lon="04.899708"><ele>2.4</ele><time>2021-12-08T13:38:03Z</time><name>PT4003</name></trkpt>
<trkpt lat="53.091493" lon="04.899705"><ele>2.4</ele><time>2021-12-08T13:38:04Z</time><name>PT4004</name></trkpt>
<trkpt lat="53.091505" lon="04.899703"><ele>2.4</ele><time>2021-12-08T13:38:06Z</time><name>PT4005</name></trkpt>
<trkpt lat="53.091515" lon="04.899700"><ele>2.3</ele><time>2021-12-08T13:38:06Z</time><name>PT4006</name></trkpt>
<trkpt lat="53.091526" lon="04.899697"><ele>2.4</ele><time>2021-12-08T13:38:08Z</time><name>PT4007</name></trkpt>
<trkpt lat="53.091537" lon="04.899695"><ele>2.8</ele><time>2021-12-08T13:38:09Z</time><name>PT4008</name></trkpt>
<trkpt lat="53.091549" lon="04.899693"><ele>3</ele><time>2021-12-08T13:38:09Z</time><name>PT4009</name></trkpt>
<trkpt lat="53.091561" lon="04.899692"><ele>3</ele><time>2021-12-08T13:38:11Z</time><name>PT4010</name></trkpt>
<trkpt lat="53.091572" lon="04.899691"><ele>3</ele><time>2021-12-08T13:38:12Z</time><name>PT4011</name></trkpt>
<trkpt lat="53.091584" lon="04.899687"><ele>3</ele><time>2021-12-08T13:38:12Z</time><name>PT4012</name></trkpt>
<trkpt lat="53.091596" lon="04.899683"><ele>2.7</ele><time>2021-12-08T13:38:14Z</time><name>PT4013</name></trkpt>
<trkpt lat="53.091606" lon="04.899680"><ele>2.7</ele><time>2021-12-08T13:38:15Z</time><name>PT4014</name></trkpt>
<trkpt lat="53.091617" lon="04.899679"><ele>2.7</ele><time>2021-12-08T13:38:15Z</time><name>PT4015</name></trkpt>
<trkpt lat="53.091630" lon="04.899678"><ele>2.9</ele><time>2021-12-08T13:38:16Z</time><name>PT4016</name></trkpt>
<trkpt lat="53.091641" lon="04.899678"><ele>2.9</ele><time>2021-12-08T13:38:18Z</time><name>PT4017</name></trkpt>
<trkpt lat="53.091652" lon="04.899678"><ele>2.6</ele><time>2021-12-08T13:38:18Z</time><name>PT4018</name></trkpt>
<trkpt lat="53.091664" lon="04.899677"><ele>2.7</ele><time>2021-12-08T13:38:20Z</time><name>PT4019</name></trkpt>
<trkpt lat="53.091676" lon="04.899674"><ele>2.5</ele><time>2021-12-08T13:38:21Z</time><name>PT4020</name></trkpt>
<trkpt lat="53.091687" lon="04.899673"><ele>2.5</ele><time>2021-12-08T13:38:21Z</time><name>PT4021</name></trkpt>
<trkpt lat="53.091698" lon="04.899672"><ele>2.7</ele><time>2021-12-08T13:38:23Z</time><name>PT4022</name></trkpt>
<trkpt lat="53.091710" lon="04.899671"><ele>2.8</ele><time>2021-12-08T13:38:24Z</time><name>PT4023</name></trkpt>
<trkpt lat="53.091720" lon="04.899671"><ele>2.8</ele><time>2021-12-08T13:38:24Z</time><name>PT4024</name></trkpt>
<trkpt lat="53.091731" lon="04.899671"><ele>2.9</ele><time>2021-12-08T13:38:26Z</time><name>PT4025</name></trkpt>
<trkpt lat="53.091743" lon="04.899670"><ele>2.8</ele><time>2021-12-08T13:38:27Z</time><name>PT4026</name></trkpt>
<trkpt lat="53.091754" lon="04.899669"><ele>2.8</ele><time>2021-12-08T13:38:27Z</time><name>PT4027</name></trkpt>
<trkpt lat="53.091764" lon="04.899668"><ele>2.7</ele><time>2021-12-08T13:38:29Z</time><name>PT4028</name></trkpt>
<trkpt lat="53.091774" lon="04.899669"><ele>2.6</ele><time>2021-12-08T13:38:30Z</time><name>PT4029</name></trkpt>
<trkpt lat="53.091784" lon="04.899668"><ele>2.6</ele><time>2021-12-08T13:38:30Z</time><name>PT4030</name></trkpt>
<trkpt lat="53.091795" lon="04.899665"><ele>2.4</ele><time>2021-12-08T13:38:31Z</time><name>PT4031</name></trkpt>
<trkpt lat="53.091807" lon="04.899661"><ele>2.5</ele><time>2021-12-08T13:38:33Z</time><name>PT4032</name></trkpt>
<trkpt lat="53.091819" lon="04.899657"><ele>2.5</ele><time>2021-12-08T13:38:33Z</time><name>PT4033</name></trkpt>
<trkpt lat="53.091829" lon="04.899655"><ele>2.5</ele><time>2021-12-08T13:38:35Z</time><name>PT4034</name></trkpt>
<trkpt lat="53.091841" lon="04.899654"><ele>2.7</ele><time>2021-12-08T13:38:36Z</time><name>PT4035</name></trkpt>
<trkpt lat="53.091853" lon="04.899654"><ele>2.6</ele><time>2021-12-08T13:38:36Z</time><name>PT4036</name></trkpt>
<trkpt lat="53.091864" lon="04.899652"><ele>2.4</ele><time>2021-12-08T13:38:37Z</time><name>PT4037</name></trkpt>
<trkpt lat="53.091876" lon="04.899649"><ele>2.2</ele><time>2021-12-08T13:38:39Z</time><name>PT4038</name></trkpt>
<trkpt lat="53.091887" lon="04.899647"><ele>2.1</ele><time>2021-12-08T13:38:39Z</time><name>PT4039</name></trkpt>
<trkpt lat="53.091898" lon="04.899644"><ele>2</ele><time>2021-12-08T13:38:40Z</time><name>PT4040</name></trkpt>
<trkpt lat="53.091909" lon="04.899641"><ele>2.1</ele><time>2021-12-08T13:38:42Z</time><name>PT4041</name></trkpt>
<trkpt lat="53.091921" lon="04.899639"><ele>2.2</ele><time>2021-12-08T13:38:42Z</time><name>PT4042</name></trkpt>
<trkpt lat="53.091934" lon="04.899637"><ele>2.5</ele><time>2021-12-08T13:38:43Z</time><name>PT4043</name></trkpt>
<trkpt lat="53.091943" lon="04.899632"><ele>2.1</ele><time>2021-12-08T13:38:45Z</time><name>PT4044</name></trkpt>
<trkpt lat="53.091953" lon="04.899626"><ele>2.1</ele><time>2021-12-08T13:38:45Z</time><name>PT4045</name></trkpt>
<trkpt lat="53.091963" lon="04.899616"><ele>2</ele><time>2021-12-08T13:38:47Z</time><name>PT4046</name></trkpt>
<trkpt lat="53.091972" lon="04.899610"><ele>1.8</ele><time>2021-12-08T13:38:48Z</time><name>PT4047</name></trkpt>
<trkpt lat="53.091982" lon="04.899606"><ele>2</ele><time>2021-12-08T13:38:48Z</time><name>PT4048</name></trkpt>
<trkpt lat="53.091993" lon="04.899604"><ele>2.2</ele><time>2021-12-08T13:38:50Z</time><name>PT4049</name></trkpt>
<trkpt lat="53.092005" lon="04.899603"><ele>2.4</ele><time>2021-12-08T13:38:51Z</time><name>PT4050</name></trkpt>
<trkpt lat="53.092017" lon="04.899602"><ele>2.4</ele><time>2021-12-08T13:38:51Z</time><name>PT4051</name></trkpt>
<trkpt lat="53.092029" lon="04.899597"><ele>2.4</ele><time>2021-12-08T13:38:52Z</time><name>PT4052</name></trkpt>
<trkpt lat="53.092042" lon="04.899592"><ele>2.3</ele><time>2021-12-08T13:38:54Z</time><name>PT4053</name></trkpt>
<trkpt lat="53.092054" lon="04.899587"><ele>2.4</ele><time>2021-12-08T13:38:54Z</time><name>PT4054</name></trkpt>
<trkpt lat="53.092065" lon="04.899585"><ele>2.4</ele><time>2021-12-08T13:38:55Z</time><name>PT4055</name></trkpt>
<trkpt lat="53.092076" lon="04.899584"><ele>2.2</ele><time>2021-12-08T13:38:57Z</time><name>PT4056</name></trkpt>
<trkpt lat="53.092084" lon="04.899583"><ele>2.3</ele><time>2021-12-08T13:38:57Z</time><name>PT4057</name></trkpt>
<trkpt lat="53.092093" lon="04.899581"><ele>2.3</ele><time>2021-12-08T13:38:58Z</time><name>PT4058</name></trkpt>
<trkpt lat="53.092104" lon="04.899580"><ele>2.2</ele><time>2021-12-08T13:39:00Z</time><name>PT4059</name></trkpt>
<trkpt lat="53.092116" lon="04.899575"><ele>2.2</ele><time>2021-12-08T13:39:00Z</time><name>PT4060</name></trkpt>
<trkpt lat="53.092129" lon="04.899572"><ele>2.1</ele><time>2021-12-08T13:39:02Z</time><name>PT4061</name></trkpt>
<trkpt lat="53.092141" lon="04.899571"><ele>1.9</ele><time>2021-12-08T13:39:03Z</time><name>PT4062</name></trkpt>
<trkpt lat="53.092153" lon="04.899570"><ele>2.1</ele><time>2021-12-08T13:39:03Z</time><name>PT4063</name></trkpt>
<trkpt lat="53.092166" lon="04.899567"><ele>2.2</ele><time>2021-12-08T13:39:05Z</time><name>PT4064</name></trkpt>
<trkpt lat="53.092179" lon="04.899563"><ele>2.1</ele><time>2021-12-08T13:39:06Z</time><name>PT4065</name></trkpt>
<trkpt lat="53.092191" lon="04.899558"><ele>2.2</ele><time>2021-12-08T13:39:06Z</time><name>PT4066</name></trkpt>
<trkpt lat="53.092203" lon="04.899555"><ele>2.2</ele><time>2021-12-08T13:39:08Z</time><name>PT4067</name></trkpt>
<trkpt lat="53.092216" lon="04.899551"><ele>2.1</ele><time>2021-12-08T13:39:09Z</time><name>PT4068</name></trkpt>
<trkpt lat="53.092229" lon="04.899547"><ele>2.1</ele><time>2021-12-08T13:39:09Z</time><name>PT4069</name></trkpt>
<trkpt lat="53.092240" lon="04.899544"><ele>2.1</ele><time>2021-12-08T13:39:11Z</time><name>PT4070</name></trkpt>
<trkpt lat="53.092252" lon="04.899542"><ele>2.2</ele><time>2021-12-08T13:39:12Z</time><name>PT4071</name></trkpt>
<trkpt lat="53.092265" lon="04.899541"><ele>2.2</ele><time>2021-12-08T13:39:12Z</time><name>PT4072</name></trkpt>
<trkpt lat="53.092278" lon="04.899541"><ele>2.3</ele><time>2021-12-08T13:39:14Z</time><name>PT4073</name></trkpt>
<trkpt lat="53.092291" lon="04.899541"><ele>2.4</ele><time>2021-12-08T13:39:15Z</time><name>PT4074</name></trkpt>
<trkpt lat="53.092304" lon="04.899541"><ele>2.3</ele><time>2021-12-08T13:39:15Z</time><name>PT4075</name></trkpt>
<trkpt lat="53.092317" lon="04.899538"><ele>2.4</ele><time>2021-12-08T13:39:16Z</time><name>PT4076</name></trkpt>
<trkpt lat="53.092331" lon="04.899533"><ele>2.5</ele><time>2021-12-08T13:39:18Z</time><name>PT4077</name></trkpt>
<trkpt lat="53.092343" lon="04.899531"><ele>2.5</ele><time>2021-12-08T13:39:18Z</time><name>PT4078</name></trkpt>
<trkpt lat="53.092354" lon="04.899527"><ele>2.5</ele><time>2021-12-08T13:39:19Z</time><name>PT4079</name></trkpt>
<trkpt lat="53.092365" lon="04.899525"><ele>2.7</ele><time>2021-12-08T13:39:21Z</time><name>PT4080</name></trkpt>
<trkpt lat="53.092377" lon="04.899523"><ele>2.6</ele><time>2021-12-08T13:39:21Z</time><name>PT4081</name></trkpt>
<trkpt lat="53.092389" lon="04.899521"><ele>2.5</ele><time>2021-12-08T13:39:22Z</time><name>PT4082</name></trkpt>
<trkpt lat="53.092402" lon="04.899520"><ele>2.8</ele><time>2021-12-08T13:39:24Z</time><name>PT4083</name></trkpt>
<trkpt lat="53.092415" lon="04.899517"><ele>2.8</ele><time>2021-12-08T13:39:24Z</time><name>PT4084</name></trkpt>
<trkpt lat="53.092427" lon="04.899513"><ele>2.9</ele><time>2021-12-08T13:39:25Z</time><name>PT4085</name></trkpt>
<trkpt lat="53.092439" lon="04.899509"><ele>2.8</ele><time>2021-12-08T13:39:27Z</time><name>PT4086</name></trkpt>
<trkpt lat="53.092450" lon="04.899506"><ele>2.6</ele><time>2021-12-08T13:39:27Z</time><name>PT4087</name></trkpt>
<trkpt lat="53.092461" lon="04.899504"><ele>2.6</ele><time>2021-12-08T13:39:29Z</time><name>PT4088</name></trkpt>
<trkpt lat="53.092472" lon="04.899504"><ele>2.5</ele><time>2021-12-08T13:39:30Z</time><name>PT4089</name></trkpt>
<trkpt lat="53.092484" lon="04.899501"><ele>2.4</ele><time>2021-12-08T13:39:30Z</time><name>PT4090</name></trkpt>
<trkpt lat="53.092497" lon="04.899498"><ele>2.3</ele><time>2021-12-08T13:39:31Z</time><name>PT4091</name></trkpt>
<trkpt lat="53.092509" lon="04.899493"><ele>2.2</ele><time>2021-12-08T13:39:33Z</time><name>PT4092</name></trkpt>
<trkpt lat="53.092520" lon="04.899490"><ele>2.3</ele><time>2021-12-08T13:39:33Z</time><name>PT4093</name></trkpt>
<trkpt lat="53.092531" lon="04.899489"><ele>2.2</ele><time>2021-12-08T13:39:34Z</time><name>PT4094</name></trkpt>
<trkpt lat="53.092542" lon="04.899486"><ele>2.3</ele><time>2021-12-08T13:39:36Z</time><name>PT4095</name></trkpt>
<trkpt lat="53.092555" lon="04.899486"><ele>2.2</ele><time>2021-12-08T13:39:36Z</time><name>PT4096</name></trkpt>
<trkpt lat="53.092568" lon="04.899486"><ele>2.1</ele><time>2021-12-08T13:39:38Z</time><name>PT4097</name></trkpt>
<trkpt lat="53.092580" lon="04.899484"><ele>1.9</ele><time>2021-12-08T13:39:39Z</time><name>PT4098</name></trkpt>
<trkpt lat="53.092592" lon="04.899481"><ele>1.9</ele><time>2021-12-08T13:39:39Z</time><name>PT4099</name></trkpt>
<trkpt lat="53.092604" lon="04.899478"><ele>2</ele><time>2021-12-08T13:39:41Z</time><name>PT4100</name></trkpt>
<trkpt lat="53.092616" lon="04.899474"><ele>2</ele><time>2021-12-08T13:39:42Z</time><name>PT4101</name></trkpt>
<trkpt lat="53.092627" lon="04.899471"><ele>2</ele><time>2021-12-08T13:39:42Z</time><name>PT4102</name></trkpt>
<trkpt lat="53.092638" lon="04.899470"><ele>2</ele><time>2021-12-08T13:39:43Z</time><name>PT4103</name></trkpt>
<trkpt lat="53.092649" lon="04.899468"><ele>1.8</ele><time>2021-12-08T13:39:45Z</time><name>PT4104</name></trkpt>
<trkpt lat="53.092660" lon="04.899465"><ele>1.7</ele><time>2021-12-08T13:39:45Z</time><name>PT4105</name></trkpt>
<trkpt lat="53.092671" lon="04.899463"><ele>1.8</ele><time>2021-12-08T13:39:47Z</time><name>PT4106</name></trkpt>
<trkpt lat="53.092683" lon="04.899459"><ele>1.9</ele><time>2021-12-08T13:39:48Z</time><name>PT4107</name></trkpt>
<trkpt lat="53.092693" lon="04.899456"><ele>2</ele><time>2021-12-08T13:39:48Z</time><name>PT4108</name></trkpt>
<trkpt lat="53.092705" lon="04.899453"><ele>2.2</ele><time>2021-12-08T13:39:50Z</time><name>PT4109</name></trkpt>
<trkpt lat="53.092718" lon="04.899452"><ele>1.9</ele><time>2021-12-08T13:39:51Z</time><name>PT4110</name></trkpt>
<trkpt lat="53.092730" lon="04.899450"><ele>2</ele><time>2021-12-08T13:39:51Z</time><name>PT4111</name></trkpt>
<trkpt lat="53.092742" lon="04.899447"><ele>1.8</ele><time>2021-12-08T13:39:52Z</time><name>PT4112</name></trkpt>
<trkpt lat="53.092755" lon="04.899444"><ele>1.7</ele><time>2021-12-08T13:39:54Z</time><name>PT4113</name></trkpt>
<trkpt lat="53.092767" lon="04.899440"><ele>1.7</ele><time>2021-12-08T13:39:54Z</time><name>PT4114</name></trkpt>
<trkpt lat="53.092779" lon="04.899436"><ele>1.6</ele><time>2021-12-08T13:39:55Z</time><name>PT4115</name></trkpt>
<trkpt lat="53.092790" lon="04.899433"><ele>1.7</ele><time>2021-12-08T13:39:57Z</time><name>PT4116</name></trkpt>
<trkpt lat="53.092801" lon="04.899431"><ele>1.7</ele><time>2021-12-08T13:39:57Z</time><name>PT4117</name></trkpt>
<trkpt lat="53.092813" lon="04.899430"><ele>1.9</ele><time>2021-12-08T13:39:59Z</time><name>PT4118</name></trkpt>
<trkpt lat="53.092825" lon="04.899429"><ele>2</ele><time>2021-12-08T13:40:00Z</time><name>PT4119</name></trkpt>
<trkpt lat="53.092838" lon="04.899428"><ele>2.1</ele><time>2021-12-08T13:40:00Z</time><name>PT4120</name></trkpt>
<trkpt lat="53.092849" lon="04.899423"><ele>2.2</ele><time>2021-12-08T13:40:02Z</time><name>PT4121</name></trkpt>
<trkpt lat="53.092861" lon="04.899418"><ele>2.3</ele><time>2021-12-08T13:40:03Z</time><name>PT4122</name></trkpt>
<trkpt lat="53.092871" lon="04.899415"><ele>2.3</ele><time>2021-12-08T13:40:03Z</time><name>PT4123</name></trkpt>
<trkpt lat="53.092882" lon="04.899414"><ele>2.4</ele><time>2021-12-08T13:40:04Z</time><name>PT4124</name></trkpt>
<trkpt lat="53.092893" lon="04.899413"><ele>2.4</ele><time>2021-12-08T13:40:06Z</time><name>PT4125</name></trkpt>
<trkpt lat="53.092904" lon="04.899412"><ele>2.4</ele><time>2021-12-08T13:40:06Z</time><name>PT4126</name></trkpt>
<trkpt lat="53.092916" lon="04.899410"><ele>2.3</ele><time>2021-12-08T13:40:07Z</time><name>PT4127</name></trkpt>
<trkpt lat="53.092929" lon="04.899406"><ele>2.1</ele><time>2021-12-08T13:40:09Z</time><name>PT4128</name></trkpt>
<trkpt lat="53.092940" lon="04.899401"><ele>1.9</ele><time>2021-12-08T13:40:09Z</time><name>PT4129</name></trkpt>
<trkpt lat="53.092951" lon="04.899399"><ele>1.9</ele><time>2021-12-08T13:40:11Z</time><name>PT4130</name></trkpt>
<trkpt lat="53.092963" lon="04.899398"><ele>1.9</ele><time>2021-12-08T13:40:12Z</time><name>PT4131</name></trkpt>
<trkpt lat="53.092974" lon="04.899395"><ele>2</ele><time>2021-12-08T13:40:12Z</time><name>PT4132</name></trkpt>
<trkpt lat="53.092986" lon="04.899393"><ele>1.9</ele><time>2021-12-08T13:40:13Z</time><name>PT4133</name></trkpt>
<trkpt lat="53.092998" lon="04.899392"><ele>1.9</ele><time>2021-12-08T13:40:15Z</time><name>PT4134</name></trkpt>
<trkpt lat="53.093010" lon="04.899389"><ele>1.9</ele><time>2021-12-08T13:40:15Z</time><name>PT4135</name></trkpt>
<trkpt lat="53.093022" lon="04.899387"><ele>1.8</ele><time>2021-12-08T13:40:16Z</time><name>PT4136</name></trkpt>
<trkpt lat="53.093035" lon="04.899383"><ele>1.8</ele><time>2021-12-08T13:40:18Z</time><name>PT4137</name></trkpt>
<trkpt lat="53.093046" lon="04.899381"><ele>1.7</ele><time>2021-12-08T13:40:18Z</time><name>PT4138</name></trkpt>
<trkpt lat="53.093058" lon="04.899380"><ele>1.8</ele><time>2021-12-08T13:40:19Z</time><name>PT4139</name></trkpt>
<trkpt lat="53.093070" lon="04.899378"><ele>1.6</ele><time>2021-12-08T13:40:21Z</time><name>PT4140</name></trkpt>
<trkpt lat="53.093083" lon="04.899377"><ele>1.5</ele><time>2021-12-08T13:40:21Z</time><name>PT4141</name></trkpt>
<trkpt lat="53.093095" lon="04.899374"><ele>1.6</ele><time>2021-12-08T13:40:22Z</time><name>PT4142</name></trkpt>
<trkpt lat="53.093106" lon="04.899372"><ele>1.5</ele><time>2021-12-08T13:40:24Z</time><name>PT4143</name></trkpt>
<trkpt lat="53.093117" lon="04.899369"><ele>1.5</ele><time>2021-12-08T13:40:24Z</time><name>PT4144</name></trkpt>
<trkpt lat="53.093129" lon="04.899366"><ele>1.6</ele><time>2021-12-08T13:40:26Z</time><name>PT4145</name></trkpt>
<trkpt lat="53.093140" lon="04.899362"><ele>1.6</ele><time>2021-12-08T13:40:27Z</time><name>PT4146</name></trkpt>
<trkpt lat="53.093150" lon="04.899359"><ele>1.8</ele><time>2021-12-08T13:40:27Z</time><name>PT4147</name></trkpt>
<trkpt lat="53.093159" lon="04.899359"><ele>2</ele><time>2021-12-08T13:40:28Z</time><name>PT4148</name></trkpt>
<trkpt lat="53.093162" lon="04.899357"><ele>2</ele><time>2021-12-08T13:40:30Z</time><name>PT4149</name></trkpt>
<trkpt lat="53.093162" lon="04.899356"><ele>2</ele><time>2021-12-08T13:40:30Z</time><name>PT4150</name></trkpt>
<trkpt lat="53.093163" lon="04.899356"><ele>2.2</ele><time>2021-12-08T13:40:31Z</time><name>PT4151</name></trkpt>
<trkpt lat="53.093166" lon="04.899352"><ele>2.6</ele><time>2021-12-08T13:40:36Z</time><name>PT4152</name></trkpt>
<trkpt lat="53.093176" lon="04.899350"><ele>2.5</ele><time>2021-12-08T13:40:36Z</time><name>PT4153</name></trkpt>
<trkpt lat="53.093186" lon="04.899348"><ele>2.4</ele><time>2021-12-08T13:40:37Z</time><name>PT4154</name></trkpt>
<trkpt lat="53.093196" lon="04.899347"><ele>2.2</ele><time>2021-12-08T13:40:39Z</time><name>PT4155</name></trkpt>
<trkpt lat="53.093207" lon="04.899346"><ele>2.3</ele><time>2021-12-08T13:40:39Z</time><name>PT4156</name></trkpt>
<trkpt lat="53.093218" lon="04.899343"><ele>2.2</ele><time>2021-12-08T13:40:41Z</time><name>PT4157</name></trkpt>
<trkpt lat="53.093230" lon="04.899340"><ele>1.9</ele><time>2021-12-08T13:40:42Z</time><name>PT4158</name></trkpt>
<trkpt lat="53.093242" lon="04.899335"><ele>1.9</ele><time>2021-12-08T13:40:42Z</time><name>PT4159</name></trkpt>
<trkpt lat="53.093253" lon="04.899330"><ele>2.1</ele><time>2021-12-08T13:40:43Z</time><name>PT4160</name></trkpt>
<trkpt lat="53.093265" lon="04.899329"><ele>2.2</ele><time>2021-12-08T13:40:45Z</time><name>PT4161</name></trkpt>
<trkpt lat="53.093277" lon="04.899328"><ele>2.3</ele><time>2021-12-08T13:40:45Z</time><name>PT4162</name></trkpt>
<trkpt lat="53.093289" lon="04.899329"><ele>2.3</ele><time>2021-12-08T13:40:46Z</time><name>PT4163</name></trkpt>
<trkpt lat="53.093301" lon="04.899328"><ele>2.1</ele><time>2021-12-08T13:40:48Z</time><name>PT4164</name></trkpt>
<trkpt lat="53.093312" lon="04.899325"><ele>2</ele><time>2021-12-08T13:40:48Z</time><name>PT4165</name></trkpt>
<trkpt lat="53.093325" lon="04.899325"><ele>2.2</ele><time>2021-12-08T13:40:49Z</time><name>PT4166</name></trkpt>
<trkpt lat="53.093336" lon="04.899325"><ele>2.2</ele><time>2021-12-08T13:40:51Z</time><name>PT4167</name></trkpt>
<trkpt lat="53.093345" lon="04.899320"><ele>2.3</ele><time>2021-12-08T13:40:51Z</time><name>PT4168</name></trkpt>
<trkpt lat="53.093357" lon="04.899318"><ele>2.4</ele><time>2021-12-08T13:40:53Z</time><name>PT4169</name></trkpt>
<trkpt lat="53.093368" lon="04.899317"><ele>2.4</ele><time>2021-12-08T13:40:54Z</time><name>PT4170</name></trkpt>
<trkpt lat="53.093379" lon="04.899315"><ele>2.1</ele><time>2021-12-08T13:40:54Z</time><name>PT4171</name></trkpt>
<trkpt lat="53.093389" lon="04.899313"><ele>2.4</ele><time>2021-12-08T13:40:55Z</time><name>PT4172</name></trkpt>
<trkpt lat="53.093398" lon="04.899307"><ele>2.2</ele><time>2021-12-08T13:40:57Z</time><name>PT4173</name></trkpt>
<trkpt lat="53.093409" lon="04.899303"><ele>2</ele><time>2021-12-08T13:40:57Z</time><name>PT4174</name></trkpt>
<trkpt lat="53.093420" lon="04.899302"><ele>2.1</ele><time>2021-12-08T13:40:59Z</time><name>PT4175</name></trkpt>
<trkpt lat="53.093429" lon="04.899303"><ele>2.2</ele><time>2021-12-08T13:41:00Z</time><name>PT4176</name></trkpt>
<trkpt lat="53.093440" lon="04.899302"><ele>2.3</ele><time>2021-12-08T13:41:00Z</time><name>PT4177</name></trkpt>
<trkpt lat="53.093450" lon="04.899299"><ele>2.4</ele><time>2021-12-08T13:41:01Z</time><name>PT4178</name></trkpt>
<trkpt lat="53.093462" lon="04.899295"><ele>2.3</ele><time>2021-12-08T13:41:03Z</time><name>PT4179</name></trkpt>
<trkpt lat="53.093474" lon="04.899292"><ele>2.2</ele><time>2021-12-08T13:41:03Z</time><name>PT4180</name></trkpt>
<trkpt lat="53.093485" lon="04.899291"><ele>2</ele><time>2021-12-08T13:41:05Z</time><name>PT4181</name></trkpt>
<trkpt lat="53.093496" lon="04.899291"><ele>1.9</ele><time>2021-12-08T13:41:06Z</time><name>PT4182</name></trkpt>
<trkpt lat="53.093497" lon="04.899293"><ele>2</ele><time>2021-12-08T13:41:06Z</time><name>PT4183</name></trkpt>
<trkpt lat="53.093495" lon="04.899294"><ele>2.3</ele><time>2021-12-08T13:41:07Z</time><name>PT4184</name></trkpt>
<trkpt lat="53.093500" lon="04.899293"><ele>2.5</ele><time>2021-12-08T13:41:09Z</time><name>PT4185</name></trkpt>
<trkpt lat="53.093509" lon="04.899287"><ele>2.6</ele><time>2021-12-08T13:41:09Z</time><name>PT4186</name></trkpt>
<trkpt lat="53.093519" lon="04.899282"><ele>2.8</ele><time>2021-12-08T13:41:11Z</time><name>PT4187</name></trkpt>
<trkpt lat="53.093531" lon="04.899279"><ele>2.8</ele><time>2021-12-08T13:41:12Z</time><name>PT4188</name></trkpt>
<trkpt lat="53.093544" lon="04.899278"><ele>2.4</ele><time>2021-12-08T13:41:12Z</time><name>PT4189</name></trkpt>
<trkpt lat="53.093556" lon="04.899278"><ele>2.4</ele><time>2021-12-08T13:41:14Z</time><name>PT4190</name></trkpt>
<trkpt lat="53.093568" lon="04.899277"><ele>2.4</ele><time>2021-12-08T13:41:15Z</time><name>PT4191</name></trkpt>
<trkpt lat="53.093579" lon="04.899276"><ele>2.4</ele><time>2021-12-08T13:41:15Z</time><name>PT4192</name></trkpt>
<trkpt lat="53.093591" lon="04.899274"><ele>2.6</ele><time>2021-12-08T13:41:17Z</time><name>PT4193</name></trkpt>
<trkpt lat="53.093603" lon="04.899269"><ele>2.5</ele><time>2021-12-08T13:41:18Z</time><name>PT4194</name></trkpt>
<trkpt lat="53.093615" lon="04.899264"><ele>2.4</ele><time>2021-12-08T13:41:18Z</time><name>PT4195</name></trkpt>
<trkpt lat="53.093627" lon="04.899261"><ele>2.2</ele><time>2021-12-08T13:41:20Z</time><name>PT4196</name></trkpt>
<trkpt lat="53.093639" lon="04.899258"><ele>2</ele><time>2021-12-08T13:41:21Z</time><name>PT4197</name></trkpt>
<trkpt lat="53.093651" lon="04.899256"><ele>2.1</ele><time>2021-12-08T13:41:21Z</time><name>PT4198</name></trkpt>
<trkpt lat="53.093663" lon="04.899256"><ele>2</ele><time>2021-12-08T13:41:23Z</time><name>PT4199</name></trkpt>
<trkpt lat="53.093675" lon="04.899255"><ele>2.1</ele><time>2021-12-08T13:41:24Z</time><name>PT4200</name></trkpt>
<trkpt lat="53.093686" lon="04.899253"><ele>2.1</ele><time>2021-12-08T13:41:24Z</time><name>PT4201</name></trkpt>
<trkpt lat="53.093698" lon="04.899252"><ele>2.2</ele><time>2021-12-08T13:41:26Z</time><name>PT4202</name></trkpt>
<trkpt lat="53.093710" lon="04.899248"><ele>2.4</ele><time>2021-12-08T13:41:27Z</time><name>PT4203</name></trkpt>
<trkpt lat="53.093722" lon="04.899242"><ele>2.3</ele><time>2021-12-08T13:41:27Z</time><name>PT4204</name></trkpt>
<trkpt lat="53.093735" lon="04.899238"><ele>2.4</ele><time>2021-12-08T13:41:29Z</time><name>PT4205</name></trkpt>
<trkpt lat="53.093747" lon="04.899235"><ele>2.3</ele><time>2021-12-08T13:41:30Z</time><name>PT4206</name></trkpt>
<trkpt lat="53.093760" lon="04.899231"><ele>2.3</ele><time>2021-12-08T13:41:30Z</time><name>PT4207</name></trkpt>
<trkpt lat="53.093773" lon="04.899228"><ele>2.3</ele><time>2021-12-08T13:41:31Z</time><name>PT4208</name></trkpt>
<trkpt lat="53.093784" lon="04.899227"><ele>2.2</ele><time>2021-12-08T13:41:33Z</time><name>PT4209</name></trkpt>
<trkpt lat="53.093796" lon="04.899226"><ele>1.9</ele><time>2021-12-08T13:41:33Z</time><name>PT4210</name></trkpt>
<trkpt lat="53.093808" lon="04.899225"><ele>1.9</ele><time>2021-12-08T13:41:34Z</time><name>PT4211</name></trkpt>
<trkpt lat="53.093819" lon="04.899222"><ele>2.1</ele><time>2021-12-08T13:41:36Z</time><name>PT4212</name></trkpt>
<trkpt lat="53.093831" lon="04.899219"><ele>1.9</ele><time>2021-12-08T13:41:36Z</time><name>PT4213</name></trkpt>
<trkpt lat="53.093841" lon="04.899215"><ele>2.2</ele><time>2021-12-08T13:41:37Z</time><name>PT4214</name></trkpt>
<trkpt lat="53.093853" lon="04.899212"><ele>2.5</ele><time>2021-12-08T13:41:39Z</time><name>PT4215</name></trkpt>
<trkpt lat="53.093864" lon="04.899209"><ele>2.5</ele><time>2021-12-08T13:41:39Z</time><name>PT4216</name></trkpt>
<trkpt lat="53.093875" lon="04.899208"><ele>2.4</ele><time>2021-12-08T13:41:41Z</time><name>PT4217</name></trkpt>
<trkpt lat="53.093887" lon="04.899207"><ele>2.3</ele><time>2021-12-08T13:41:42Z</time><name>PT4218</name></trkpt>
<trkpt lat="53.093899" lon="04.899205"><ele>2.1</ele><time>2021-12-08T13:41:42Z</time><name>PT4219</name></trkpt>
<trkpt lat="53.093911" lon="04.899202"><ele>1.9</ele><time>2021-12-08T13:41:44Z</time><name>PT4220</name></trkpt>
<trkpt lat="53.093923" lon="04.899199"><ele>1.9</ele><time>2021-12-08T13:41:45Z</time><name>PT4221</name></trkpt>
<trkpt lat="53.093934" lon="04.899196"><ele>1.9</ele><time>2021-12-08T13:41:45Z</time><name>PT4222</name></trkpt>
<trkpt lat="53.093947" lon="04.899193"><ele>1.9</ele><time>2021-12-08T13:41:47Z</time><name>PT4223</name></trkpt>
<trkpt lat="53.093960" lon="04.899188"><ele>2</ele><time>2021-12-08T13:41:48Z</time><name>PT4224</name></trkpt>
<trkpt lat="53.093972" lon="04.899185"><ele>1.9</ele><time>2021-12-08T13:41:48Z</time><name>PT4225</name></trkpt>
<trkpt lat="53.093985" lon="04.899182"><ele>1.7</ele><time>2021-12-08T13:41:50Z</time><name>PT4226</name></trkpt>
<trkpt lat="53.093996" lon="04.899179"><ele>1.9</ele><time>2021-12-08T13:41:51Z</time><name>PT4227</name></trkpt>
<trkpt lat="53.094007" lon="04.899178"><ele>1.9</ele><time>2021-12-08T13:41:51Z</time><name>PT4228</name></trkpt>
<trkpt lat="53.094017" lon="04.899177"><ele>2</ele><time>2021-12-08T13:41:53Z</time><name>PT4229</name></trkpt>
<trkpt lat="53.094027" lon="04.899176"><ele>2.2</ele><time>2021-12-08T13:41:54Z</time><name>PT4230</name></trkpt>
<trkpt lat="53.094037" lon="04.899174"><ele>2.3</ele><time>2021-12-08T13:41:54Z</time><name>PT4231</name></trkpt>
<trkpt lat="53.094048" lon="04.899171"><ele>2.3</ele><time>2021-12-08T13:41:56Z</time><name>PT4232</name></trkpt>
<trkpt lat="53.094056" lon="04.899165"><ele>2</ele><time>2021-12-08T13:41:57Z</time><name>PT4233</name></trkpt>
<trkpt lat="53.094064" lon="04.899163"><ele>2</ele><time>2021-12-08T13:41:57Z</time><name>PT4234</name></trkpt>
<trkpt lat="53.094073" lon="04.899163"><ele>1.9</ele><time>2021-12-08T13:41:58Z</time><name>PT4235</name></trkpt>
<trkpt lat="53.094082" lon="04.899162"><ele>1.8</ele><time>2021-12-08T13:42:00Z</time><name>PT4236</name></trkpt>
<trkpt lat="53.094092" lon="04.899163"><ele>1.7</ele><time>2021-12-08T13:42:00Z</time><name>PT4237</name></trkpt>
<trkpt lat="53.094102" lon="04.899161"><ele>1.8</ele><time>2021-12-08T13:42:01Z</time><name>PT4238</name></trkpt>
<trkpt lat="53.094111" lon="04.899159"><ele>1.8</ele><time>2021-12-08T13:42:03Z</time><name>PT4239</name></trkpt>
<trkpt lat="53.094120" lon="04.899158"><ele>1.9</ele><time>2021-12-08T13:42:03Z</time><name>PT4240</name></trkpt>
<trkpt lat="53.094130" lon="04.899155"><ele>1.9</ele><time>2021-12-08T13:42:04Z</time><name>PT4241</name></trkpt>
<trkpt lat="53.094142" lon="04.899156"><ele>1.9</ele><time>2021-12-08T13:42:06Z</time><name>PT4242</name></trkpt>
<trkpt lat="53.094155" lon="04.899157"><ele>2</ele><time>2021-12-08T13:42:06Z</time><name>PT4243</name></trkpt>
<trkpt lat="53.094167" lon="04.899156"><ele>2.2</ele><time>2021-12-08T13:42:08Z</time><name>PT4244</name></trkpt>
<trkpt lat="53.094181" lon="04.899153"><ele>2.2</ele><time>2021-12-08T13:42:09Z</time><name>PT4245</name></trkpt>
<trkpt lat="53.094192" lon="04.899151"><ele>2.3</ele><time>2021-12-08T13:42:09Z</time><name>PT4246</name></trkpt>
<trkpt lat="53.094203" lon="04.899146"><ele>2.4</ele><time>2021-12-08T13:42:11Z</time><name>PT4247</name></trkpt>
<trkpt lat="53.094214" lon="04.899140"><ele>2</ele><time>2021-12-08T13:42:12Z</time><name>PT4248</name></trkpt>
<trkpt lat="53.094227" lon="04.899135"><ele>1.9</ele><time>2021-12-08T13:42:12Z</time><name>PT4249</name></trkpt>
<trkpt lat="53.094239" lon="04.899132"><ele>1.9</ele><time>2021-12-08T13:42:13Z</time><name>PT4250</name></trkpt>
<trkpt lat="53.094252" lon="04.899129"><ele>1.7</ele><time>2021-12-08T13:42:15Z</time><name>PT4251</name></trkpt>
<trkpt lat="53.094265" lon="04.899125"><ele>1.7</ele><time>2021-12-08T13:42:15Z</time><name>PT4252</name></trkpt>
<trkpt lat="53.094277" lon="04.899123"><ele>1.7</ele><time>2021-12-08T13:42:16Z</time><name>PT4253</name></trkpt>
<trkpt lat="53.094290" lon="04.899123"><ele>1.9</ele><time>2021-12-08T13:42:18Z</time><name>PT4254</name></trkpt>
<trkpt lat="53.094302" lon="04.899122"><ele>2</ele><time>2021-12-08T13:42:18Z</time><name>PT4255</name></trkpt>
<trkpt lat="53.094314" lon="04.899122"><ele>2</ele><time>2021-12-08T13:42:19Z</time><name>PT4256</name></trkpt>
<trkpt lat="53.094325" lon="04.899121"><ele>2.2</ele><time>2021-12-08T13:42:21Z</time><name>PT4257</name></trkpt>
<trkpt lat="53.094337" lon="04.899119"><ele>2.3</ele><time>2021-12-08T13:42:21Z</time><name>PT4258</name></trkpt>
<trkpt lat="53.094349" lon="04.899115"><ele>1.9</ele><time>2021-12-08T13:42:23Z</time><name>PT4259</name></trkpt>
<trkpt lat="53.094361" lon="04.899111"><ele>1.9</ele><time>2021-12-08T13:42:24Z</time><name>PT4260</name></trkpt>
<trkpt lat="53.094373" lon="04.899105"><ele>1.9</ele><time>2021-12-08T13:42:24Z</time><name>PT4261</name></trkpt>
<trkpt lat="53.094385" lon="04.899101"><ele>1.8</ele><time>2021-12-08T13:42:25Z</time><name>PT4262</name></trkpt>
<trkpt lat="53.094397" lon="04.899098"><ele>1.8</ele><time>2021-12-08T13:42:27Z</time><name>PT4263</name></trkpt>
<trkpt lat="53.094409" lon="04.899096"><ele>1.7</ele><time>2021-12-08T13:42:27Z</time><name>PT4264</name></trkpt>
<trkpt lat="53.094421" lon="04.899095"><ele>1.7</ele><time>2021-12-08T13:42:28Z</time><name>PT4265</name></trkpt>
<trkpt lat="53.094433" lon="04.899094"><ele>1.7</ele><time>2021-12-08T13:42:30Z</time><name>PT4266</name></trkpt>
<trkpt lat="53.094445" lon="04.899093"><ele>1.7</ele><time>2021-12-08T13:42:30Z</time><name>PT4267</name></trkpt>
<trkpt lat="53.094456" lon="04.899092"><ele>1.7</ele><time>2021-12-08T13:42:32Z</time><name>PT4268</name></trkpt>
<trkpt lat="53.094468" lon="04.899089"><ele>1.9</ele><time>2021-12-08T13:42:33Z</time><name>PT4269</name></trkpt>
<trkpt lat="53.094481" lon="04.899086"><ele>1.8</ele><time>2021-12-08T13:42:33Z</time><name>PT4270</name></trkpt>
<trkpt lat="53.094494" lon="04.899082"><ele>1.9</ele><time>2021-12-08T13:42:34Z</time><name>PT4271</name></trkpt>
<trkpt lat="53.094506" lon="04.899078"><ele>1.9</ele><time>2021-12-08T13:42:36Z</time><name>PT4272</name></trkpt>
<trkpt lat="53.094519" lon="04.899074"><ele>1.9</ele><time>2021-12-08T13:42:36Z</time><name>PT4273</name></trkpt>
<trkpt lat="53.094532" lon="04.899071"><ele>1.8</ele><time>2021-12-08T13:42:37Z</time><name>PT4274</name></trkpt>
<trkpt lat="53.094544" lon="04.899067"><ele>1.6</ele><time>2021-12-08T13:42:39Z</time><name>PT4275</name></trkpt>
<trkpt lat="53.094556" lon="04.899066"><ele>1.7</ele><time>2021-12-08T13:42:39Z</time><name>PT4276</name></trkpt>
<trkpt lat="53.094568" lon="04.899065"><ele>1.8</ele><time>2021-12-08T13:42:41Z</time><name>PT4277</name></trkpt>
<trkpt lat="53.094580" lon="04.899064"><ele>1.5</ele><time>2021-12-08T13:42:42Z</time><name>PT4278</name></trkpt>
<trkpt lat="53.094592" lon="04.899063"><ele>1.6</ele><time>2021-12-08T13:42:42Z</time><name>PT4279</name></trkpt>
<trkpt lat="53.094603" lon="04.899061"><ele>1.5</ele><time>2021-12-08T13:42:43Z</time><name>PT4280</name></trkpt>
<trkpt lat="53.094615" lon="04.899058"><ele>1.4</ele><time>2021-12-08T13:42:45Z</time><name>PT4281</name></trkpt>
<trkpt lat="53.094627" lon="04.899055"><ele>1.4</ele><time>2021-12-08T13:42:45Z</time><name>PT4282</name></trkpt>
<trkpt lat="53.094639" lon="04.899052"><ele>1.5</ele><time>2021-12-08T13:42:47Z</time><name>PT4283</name></trkpt>
<trkpt lat="53.094651" lon="04.899048"><ele>1.6</ele><time>2021-12-08T13:42:48Z</time><name>PT4284</name></trkpt>
<trkpt lat="53.094663" lon="04.899043"><ele>1.6</ele><time>2021-12-08T13:42:48Z</time><name>PT4285</name></trkpt>
<trkpt lat="53.094676" lon="04.899040"><ele>1.7</ele><time>2021-12-08T13:42:49Z</time><name>PT4286</name></trkpt>
<trkpt lat="53.094689" lon="04.899037"><ele>1.9</ele><time>2021-12-08T13:42:51Z</time><name>PT4287</name></trkpt>
<trkpt lat="53.094701" lon="04.899035"><ele>1.8</ele><time>2021-12-08T13:42:51Z</time><name>PT4288</name></trkpt>
<trkpt lat="53.094713" lon="04.899032"><ele>1.7</ele><time>2021-12-08T13:42:53Z</time><name>PT4289</name></trkpt>
<trkpt lat="53.094725" lon="04.899030"><ele>1.8</ele><time>2021-12-08T13:42:54Z</time><name>PT4290</name></trkpt>
<trkpt lat="53.094736" lon="04.899028"><ele>1.8</ele><time>2021-12-08T13:42:54Z</time><name>PT4291</name></trkpt>
<trkpt lat="53.094747" lon="04.899025"><ele>1.8</ele><time>2021-12-08T13:42:56Z</time><name>PT4292</name></trkpt>
<trkpt lat="53.094759" lon="04.899023"><ele>1.9</ele><time>2021-12-08T13:42:57Z</time><name>PT4293</name></trkpt>
<trkpt lat="53.094771" lon="04.899018"><ele>1.8</ele><time>2021-12-08T13:42:57Z</time><name>PT4294</name></trkpt>
<trkpt lat="53.094782" lon="04.899013"><ele>1.8</ele><time>2021-12-08T13:42:59Z</time><name>PT4295</name></trkpt>
<trkpt lat="53.094792" lon="04.899012"><ele>1.8</ele><time>2021-12-08T13:43:00Z</time><name>PT4296</name></trkpt>
<trkpt lat="53.094805" lon="04.899012"><ele>1.9</ele><time>2021-12-08T13:43:00Z</time><name>PT4297</name></trkpt>
<trkpt lat="53.094817" lon="04.899011"><ele>1.9</ele><time>2021-12-08T13:43:01Z</time><name>PT4298</name></trkpt>
<trkpt lat="53.094829" lon="04.899010"><ele>2</ele><time>2021-12-08T13:43:03Z</time><name>PT4299</name></trkpt>
<trkpt lat="53.094841" lon="04.899008"><ele>2</ele><time>2021-12-08T13:43:03Z</time><name>PT4300</name></trkpt>
<trkpt lat="53.094854" lon="04.899005"><ele>2.1</ele><time>2021-12-08T13:43:04Z</time><name>PT4301</name></trkpt>
<trkpt lat="53.094866" lon="04.899002"><ele>2.2</ele><time>2021-12-08T13:43:06Z</time><name>PT4302</name></trkpt>
<trkpt lat="53.094878" lon="04.898999"><ele>2</ele><time>2021-12-08T13:43:06Z</time><name>PT4303</name></trkpt>
<trkpt lat="53.094890" lon="04.898996"><ele>2</ele><time>2021-12-08T13:43:07Z</time><name>PT4304</name></trkpt>
<trkpt lat="53.094901" lon="04.898992"><ele>2.2</ele><time>2021-12-08T13:43:09Z</time><name>PT4305</name></trkpt>
<trkpt lat="53.094911" lon="04.898985"><ele>2</ele><time>2021-12-08T13:43:09Z</time><name>PT4306</name></trkpt>
<trkpt lat="53.094922" lon="04.898983"><ele>2.1</ele><time>2021-12-08T13:43:10Z</time><name>PT4307</name></trkpt>
<trkpt lat="53.094934" lon="04.898982"><ele>2.2</ele><time>2021-12-08T13:43:12Z</time><name>PT4308</name></trkpt>
<trkpt lat="53.094947" lon="04.898979"><ele>2.1</ele><time>2021-12-08T13:43:12Z</time><name>PT4309</name></trkpt>
<trkpt lat="53.094959" lon="04.898978"><ele>2.3</ele><time>2021-12-08T13:43:13Z</time><name>PT4310</name></trkpt>
<trkpt lat="53.094970" lon="04.898980"><ele>2.4</ele><time>2021-12-08T13:43:15Z</time><name>PT4311</name></trkpt>
<trkpt lat="53.094983" lon="04.898978"><ele>2.2</ele><time>2021-12-08T13:43:15Z</time><name>PT4312</name></trkpt>
<trkpt lat="53.094995" lon="04.898972"><ele>2.3</ele><time>2021-12-08T13:43:17Z</time><name>PT4313</name></trkpt>
<trkpt lat="53.095006" lon="04.898965"><ele>2.4</ele><time>2021-12-08T13:43:18Z</time><name>PT4314</name></trkpt>
<trkpt lat="53.095018" lon="04.898962"><ele>2.4</ele><time>2021-12-08T13:43:18Z</time><name>PT4315</name></trkpt>
<trkpt lat="53.095029" lon="04.898959"><ele>2.4</ele><time>2021-12-08T13:43:19Z</time><name>PT4316</name></trkpt>
<trkpt lat="53.095041" lon="04.898955"><ele>2.5</ele><time>2021-12-08T13:43:21Z</time><name>PT4317</name></trkpt>
<trkpt lat="53.095053" lon="04.898953"><ele>2.5</ele><time>2021-12-08T13:43:21Z</time><name>PT4318</name></trkpt>
<trkpt lat="53.095064" lon="04.898952"><ele>2</ele><time>2021-12-08T13:43:22Z</time><name>PT4319</name></trkpt>
<trkpt lat="53.095078" lon="04.898948"><ele>1.4</ele><time>2021-12-08T13:43:24Z</time><name>PT4320</name></trkpt>
<trkpt lat="53.095091" lon="04.898943"><ele>1</ele><time>2021-12-08T13:43:24Z</time><name>PT4321</name></trkpt>
<trkpt lat="53.095103" lon="04.898938"><ele>0.9</ele><time>2021-12-08T13:43:25Z</time><name>PT4322</name></trkpt>
<trkpt lat="53.095113" lon="04.898936"><ele>0.7</ele><time>2021-12-08T13:43:27Z</time><name>PT4323</name></trkpt>
<trkpt lat="53.095121" lon="04.898932"><ele>0.7</ele><time>2021-12-08T13:43:27Z</time><name>PT4324</name></trkpt>
<trkpt lat="53.095131" lon="04.898932"><ele>0.6</ele><time>2021-12-08T13:43:28Z</time><name>PT4325</name></trkpt>
<trkpt lat="53.095140" lon="04.898931"><ele>0.2</ele><time>2021-12-08T13:43:30Z</time><name>PT4326</name></trkpt>
<trkpt lat="53.095153" lon="04.898929"><ele>0</ele><time>2021-12-08T13:43:30Z</time><name>PT4327</name></trkpt>
<trkpt lat="53.095166" lon="04.898924"><ele>0.2</ele><time>2021-12-08T13:43:31Z</time><name>PT4328</name></trkpt>
<trkpt lat="53.095178" lon="04.898919"><ele>0.1</ele><time>2021-12-08T13:43:33Z</time><name>PT4329</name></trkpt>
<trkpt lat="53.095186" lon="04.898913"><ele>0</ele><time>2021-12-08T13:43:33Z</time><name>PT4330</name></trkpt>
<trkpt lat="53.095195" lon="04.898909"><ele>0.1</ele><time>2021-12-08T13:43:34Z</time><name>PT4331</name></trkpt>
<trkpt lat="53.095203" lon="04.898908"><ele>0.1</ele><time>2021-12-08T13:43:36Z</time><name>PT4332</name></trkpt>
<trkpt lat="53.095214" lon="04.898908"><ele>0</ele><time>2021-12-08T13:43:36Z</time><name>PT4333</name></trkpt>
<trkpt lat="53.095228" lon="04.898906"><ele>0</ele><time>2021-12-08T13:43:37Z</time><name>PT4334</name></trkpt>
<trkpt lat="53.095241" lon="04.898903"><ele>0</ele><time>2021-12-08T13:43:39Z</time><name>PT4335</name></trkpt>
<trkpt lat="53.095252" lon="04.898899"><ele>0.3</ele><time>2021-12-08T13:43:39Z</time><name>PT4336</name></trkpt>
<trkpt lat="53.095262" lon="04.898894"><ele>0.3</ele><time>2021-12-08T13:43:41Z</time><name>PT4337</name></trkpt>
<trkpt lat="53.095271" lon="04.898890"><ele>0.4</ele><time>2021-12-08T13:43:42Z</time><name>PT4338</name></trkpt>
<trkpt lat="53.095280" lon="04.898888"><ele>0.3</ele><time>2021-12-08T13:43:42Z</time><name>PT4339</name></trkpt>
<trkpt lat="53.095291" lon="04.898889"><ele>0.5</ele><time>2021-12-08T13:43:43Z</time><name>PT4340</name></trkpt>
<trkpt lat="53.095302" lon="04.898889"><ele>0.5</ele><time>2021-12-08T13:43:45Z</time><name>PT4341</name></trkpt>
<trkpt lat="53.095316" lon="04.898887"><ele>0.6</ele><time>2021-12-08T13:43:45Z</time><name>PT4342</name></trkpt>
<trkpt lat="53.095330" lon="04.898881"><ele>0.5</ele><time>2021-12-08T13:43:46Z</time><name>PT4343</name></trkpt>
<trkpt lat="53.095343" lon="04.898875"><ele>0.3</ele><time>2021-12-08T13:43:48Z</time><name>PT4344</name></trkpt>
<trkpt lat="53.095355" lon="04.898872"><ele>0.3</ele><time>2021-12-08T13:43:48Z</time><name>PT4345</name></trkpt>
<trkpt lat="53.095364" lon="04.898868"><ele>0.2</ele><time>2021-12-08T13:43:50Z</time><name>PT4346</name></trkpt>
<trkpt lat="53.095373" lon="04.898865"><ele>0.2</ele><time>2021-12-08T13:43:51Z</time><name>PT4347</name></trkpt>
<trkpt lat="53.095384" lon="04.898866"><ele>0.3</ele><time>2021-12-08T13:43:51Z</time><name>PT4348</name></trkpt>
<trkpt lat="53.095396" lon="04.898867"><ele>0.3</ele><time>2021-12-08T13:43:52Z</time><name>PT4349</name></trkpt>
<trkpt lat="53.095411" lon="04.898868"><ele>0.3</ele><time>2021-12-08T13:43:54Z</time><name>PT4350</name></trkpt>
<trkpt lat="53.095427" lon="04.898867"><ele>0.4</ele><time>2021-12-08T13:43:54Z</time><name>PT4351</name></trkpt>
<trkpt lat="53.095440" lon="04.898867"><ele>0.7</ele><time>2021-12-08T13:43:55Z</time><name>PT4352</name></trkpt>
<trkpt lat="53.095452" lon="04.898865"><ele>0.9</ele><time>2021-12-08T13:43:57Z</time><name>PT4353</name></trkpt>
<trkpt lat="53.095465" lon="04.898859"><ele>1.1</ele><time>2021-12-08T13:43:57Z</time><name>PT4354</name></trkpt>
<trkpt lat="53.095475" lon="04.898855"><ele>1.4</ele><time>2021-12-08T13:43:58Z</time><name>PT4355</name></trkpt>
<trkpt lat="53.095485" lon="04.898854"><ele>1.2</ele><time>2021-12-08T13:44:00Z</time><name>PT4356</name></trkpt>
<trkpt lat="53.095497" lon="04.898854"><ele>1</ele><time>2021-12-08T13:44:00Z</time><name>PT4357</name></trkpt>
<trkpt lat="53.095513" lon="04.898855"><ele>0.7</ele><time>2021-12-08T13:44:01Z</time><name>PT4358</name></trkpt>
<trkpt lat="53.095528" lon="04.898853"><ele>0.5</ele><time>2021-12-08T13:44:03Z</time><name>PT4359</name></trkpt>
<trkpt lat="53.095543" lon="04.898848"><ele>0.3</ele><time>2021-12-08T13:44:03Z</time><name>PT4360</name></trkpt>
<trkpt lat="53.095554" lon="04.898843"><ele>0.4</ele><time>2021-12-08T13:44:04Z</time><name>PT4361</name></trkpt>
<trkpt lat="53.095563" lon="04.898840"><ele>0.4</ele><time>2021-12-08T13:44:06Z</time><name>PT4362</name></trkpt>
<trkpt lat="53.095571" lon="04.898839"><ele>0.4</ele><time>2021-12-08T13:44:06Z</time><name>PT4363</name></trkpt>
<trkpt lat="53.095581" lon="04.898838"><ele>0.2</ele><time>2021-12-08T13:44:07Z</time><name>PT4364</name></trkpt>
<trkpt lat="53.095595" lon="04.898838"><ele>0.3</ele><time>2021-12-08T13:44:09Z</time><name>PT4365</name></trkpt>
<trkpt lat="53.095611" lon="04.898838"><ele>0.3</ele><time>2021-12-08T13:44:09Z</time><name>PT4366</name></trkpt>
<trkpt lat="53.095625" lon="04.898835"><ele>0</ele><time>2021-12-08T13:44:10Z</time><name>PT4367</name></trkpt>
<trkpt lat="53.095636" lon="04.898830"><ele>0.2</ele><time>2021-12-08T13:44:12Z</time><name>PT4368</name></trkpt>
<trkpt lat="53.095645" lon="04.898825"><ele>0.1</ele><time>2021-12-08T13:44:12Z</time><name>PT4369</name></trkpt>
<trkpt lat="53.095655" lon="04.898823"><ele>0.1</ele><time>2021-12-08T13:44:13Z</time><name>PT4370</name></trkpt>
<trkpt lat="53.095667" lon="04.898823"><ele>0.2</ele><time>2021-12-08T13:44:15Z</time><name>PT4371</name></trkpt>
<trkpt lat="53.095680" lon="04.898822"><ele>0.1</ele><time>2021-12-08T13:44:15Z</time><name>PT4372</name></trkpt>
<trkpt lat="53.095695" lon="04.898822"><ele>0.2</ele><time>2021-12-08T13:44:16Z</time><name>PT4373</name></trkpt>
<trkpt lat="53.095712" lon="04.898821"><ele>0</ele><time>2021-12-08T13:44:18Z</time><name>PT4374</name></trkpt>
<trkpt lat="53.095726" lon="04.898817"><ele>0.2</ele><time>2021-12-08T13:44:18Z</time><name>PT4375</name></trkpt>
<trkpt lat="53.095735" lon="04.898813"><ele>0.3</ele><time>2021-12-08T13:44:19Z</time><name>PT4376</name></trkpt>
<trkpt lat="53.095744" lon="04.898809"><ele>0.6</ele><time>2021-12-08T13:44:21Z</time><name>PT4377</name></trkpt>
<trkpt lat="53.095752" lon="04.898806"><ele>0.7</ele><time>2021-12-08T13:44:21Z</time><name>PT4378</name></trkpt>
<trkpt lat="53.095762" lon="04.898805"><ele>0.6</ele><time>2021-12-08T13:44:22Z</time><name>PT4379</name></trkpt>
<trkpt lat="53.095772" lon="04.898804"><ele>0.2</ele><time>2021-12-08T13:44:24Z</time><name>PT4380</name></trkpt>
<trkpt lat="53.095786" lon="04.898805"><ele>0.2</ele><time>2021-12-08T13:44:24Z</time><name>PT4381</name></trkpt>
<trkpt lat="53.095803" lon="04.898803"><ele>0.2</ele><time>2021-12-08T13:44:25Z</time><name>PT4382</name></trkpt>
<trkpt lat="53.095817" lon="04.898800"><ele>0.3</ele><time>2021-12-08T13:44:27Z</time><name>PT4383</name></trkpt>
<trkpt lat="53.095828" lon="04.898797"><ele>0.4</ele><time>2021-12-08T13:44:27Z</time><name>PT4384</name></trkpt>
<trkpt lat="53.095838" lon="04.898794"><ele>0.3</ele><time>2021-12-08T13:44:28Z</time><name>PT4385</name></trkpt>
<trkpt lat="53.095848" lon="04.898792"><ele>0.3</ele><time>2021-12-08T13:44:30Z</time><name>PT4386</name></trkpt>
<trkpt lat="53.095858" lon="04.898790"><ele>0.1</ele><time>2021-12-08T13:44:30Z</time><name>PT4387</name></trkpt>
<trkpt lat="53.095869" lon="04.898791"><ele>0.1</ele><time>2021-12-08T13:44:31Z</time><name>PT4388</name></trkpt>
<trkpt lat="53.095871" lon="04.898795"><ele>0.1</ele><time>2021-12-08T13:44:33Z</time><name>PT4389</name></trkpt>
<trkpt lat="53.095875" lon="04.898790"><ele>0.3</ele><time>2021-12-08T13:44:33Z</time><name>PT4390</name></trkpt>
<trkpt lat="53.095879" lon="04.898782"><ele>0.6</ele><time>2021-12-08T13:44:34Z</time><name>PT4391</name></trkpt>
<trkpt lat="53.095885" lon="04.898779"><ele>0.7</ele><time>2021-12-08T13:44:36Z</time><name>PT4392</name></trkpt>
<trkpt lat="53.095894" lon="04.898776"><ele>0.7</ele><time>2021-12-08T13:44:36Z</time><name>PT4393</name></trkpt>
<trkpt lat="53.095907" lon="04.898776"><ele>0.2</ele><time>2021-12-08T13:44:37Z</time><name>PT4394</name></trkpt>
<trkpt lat="53.095922" lon="04.898776"><ele>0.1</ele><time>2021-12-08T13:44:39Z</time><name>PT4395</name></trkpt>
<trkpt lat="53.095939" lon="04.898774"><ele>0.1</ele><time>2021-12-08T13:44:39Z</time><name>PT4396</name></trkpt>
<trkpt lat="53.095954" lon="04.898770"><ele>0</ele><time>2021-12-08T13:44:40Z</time><name>PT4397</name></trkpt>
<trkpt lat="53.095965" lon="04.898767"><ele>0.1</ele><time>2021-12-08T13:44:42Z</time><name>PT4398</name></trkpt>
<trkpt lat="53.095974" lon="04.898764"><ele>0</ele><time>2021-12-08T13:44:42Z</time><name>PT4399</name></trkpt>
<trkpt lat="53.095983" lon="04.898762"><ele>0.1</ele><time>2021-12-08T13:44:43Z</time><name>PT4400</name></trkpt>
<trkpt lat="53.095994" lon="04.898763"><ele>0.2</ele><time>2021-12-08T13:44:45Z</time><name>PT4401</name></trkpt>
<trkpt lat="53.096005" lon="04.898761"><ele>0.4</ele><time>2021-12-08T13:44:45Z</time><name>PT4402</name></trkpt>
<trkpt lat="53.096020" lon="04.898757"><ele>0.3</ele><time>2021-12-08T13:44:46Z</time><name>PT4403</name></trkpt>
<trkpt lat="53.096035" lon="04.898753"><ele>0.2</ele><time>2021-12-08T13:44:48Z</time><name>PT4404</name></trkpt>
<trkpt lat="53.096051" lon="04.898750"><ele>0</ele><time>2021-12-08T13:44:48Z</time><name>PT4405</name></trkpt>
<trkpt lat="53.096062" lon="04.898747"><ele>0</ele><time>2021-12-08T13:44:49Z</time><name>PT4406</name></trkpt>
<trkpt lat="53.096072" lon="04.898744"><ele>0.2</ele><time>2021-12-08T13:44:51Z</time><name>PT4407</name></trkpt>
<trkpt lat="53.096082" lon="04.898742"><ele>0.5</ele><time>2021-12-08T13:44:51Z</time><name>PT4408</name></trkpt>
<trkpt lat="53.096091" lon="04.898739"><ele>0.5</ele><time>2021-12-08T13:44:53Z</time><name>PT4409</name></trkpt>
<trkpt lat="53.096102" lon="04.898738"><ele>0.4</ele><time>2021-12-08T13:44:54Z</time><name>PT4410</name></trkpt>
<trkpt lat="53.096117" lon="04.898736"><ele>0.6</ele><time>2021-12-08T13:44:54Z</time><name>PT4411</name></trkpt>
<trkpt lat="53.096131" lon="04.898734"><ele>0.3</ele><time>2021-12-08T13:44:55Z</time><name>PT4412</name></trkpt>
<trkpt lat="53.096142" lon="04.898731"><ele>0.5</ele><time>2021-12-08T13:44:57Z</time><name>PT4413</name></trkpt>
<trkpt lat="53.096151" lon="04.898726"><ele>0.4</ele><time>2021-12-08T13:44:57Z</time><name>PT4414</name></trkpt>
<trkpt lat="53.096158" lon="04.898722"><ele>0.2</ele><time>2021-12-08T13:44:58Z</time><name>PT4415</name></trkpt>
<trkpt lat="53.096168" lon="04.898719"><ele>0</ele><time>2021-12-08T13:45:00Z</time><name>PT4416</name></trkpt>
<trkpt lat="53.096182" lon="04.898718"><ele>0</ele><time>2021-12-08T13:45:00Z</time><name>PT4417</name></trkpt>
<trkpt lat="53.096197" lon="04.898716"><ele>0.3</ele><time>2021-12-08T13:45:01Z</time><name>PT4418</name></trkpt>
<trkpt lat="53.096211" lon="04.898712"><ele>0.2</ele><time>2021-12-08T13:45:03Z</time><name>PT4419</name></trkpt>
<trkpt lat="53.096223" lon="04.898707"><ele>0.1</ele><time>2021-12-08T13:45:03Z</time><name>PT4420</name></trkpt>
<trkpt lat="53.096234" lon="04.898703"><ele>0.1</ele><time>2021-12-08T13:45:05Z</time><name>PT4421</name></trkpt>
<trkpt lat="53.096242" lon="04.898701"><ele>0.1</ele><time>2021-12-08T13:45:06Z</time><name>PT4422</name></trkpt>
<trkpt lat="53.096253" lon="04.898702"><ele>0.1</ele><time>2021-12-08T13:45:06Z</time><name>PT4423</name></trkpt>
<trkpt lat="53.096267" lon="04.898706"><ele>0.2</ele><time>2021-12-08T13:45:07Z</time><name>PT4424</name></trkpt>
<trkpt lat="53.096283" lon="04.898708"><ele>0.2</ele><time>2021-12-08T13:45:09Z</time><name>PT4425</name></trkpt>
<trkpt lat="53.096297" lon="04.898705"><ele>0.2</ele><time>2021-12-08T13:45:09Z</time><name>PT4426</name></trkpt>
<trkpt lat="53.096306" lon="04.898698"><ele>0.2</ele><time>2021-12-08T13:45:10Z</time><name>PT4427</name></trkpt>
<trkpt lat="53.096314" lon="04.898694"><ele>0.1</ele><time>2021-12-08T13:45:12Z</time><name>PT4428</name></trkpt>
<trkpt lat="53.096323" lon="04.898693"><ele>0.1</ele><time>2021-12-08T13:45:12Z</time><name>PT4429</name></trkpt>
<trkpt lat="53.096335" lon="04.898692"><ele>0.2</ele><time>2021-12-08T13:45:13Z</time><name>PT4430</name></trkpt>
<trkpt lat="53.096346" lon="04.898692"><ele>0.4</ele><time>2021-12-08T13:45:15Z</time><name>PT4431</name></trkpt>
<trkpt lat="53.096353" lon="04.898691"><ele>0.4</ele><time>2021-12-08T13:45:15Z</time><name>PT4432</name></trkpt>
<trkpt lat="53.096361" lon="04.898694"><ele>0.4</ele><time>2021-12-08T13:45:16Z</time><name>PT4433</name></trkpt>
<trkpt lat="53.096368" lon="04.898699"><ele>0.3</ele><time>2021-12-08T13:45:18Z</time><name>PT4434</name></trkpt>
<trkpt lat="53.096380" lon="04.898705"><ele>0.3</ele><time>2021-12-08T13:45:18Z</time><name>PT4435</name></trkpt>
<trkpt lat="53.096388" lon="04.898706"><ele>0</ele><time>2021-12-08T13:45:20Z</time><name>PT4436</name></trkpt>
<trkpt lat="53.096397" lon="04.898707"><ele>0.3</ele><time>2021-12-08T13:45:21Z</time><name>PT4437</name></trkpt>
<trkpt lat="53.096405" lon="04.898706"><ele>0.3</ele><time>2021-12-08T13:45:21Z</time><name>PT4438</name></trkpt>
<trkpt lat="53.096414" lon="04.898705"><ele>0.3</ele><time>2021-12-08T13:45:22Z</time><name>PT4439</name></trkpt>
<trkpt lat="53.096424" lon="04.898702"><ele>0.3</ele><time>2021-12-08T13:45:24Z</time><name>PT4440</name></trkpt>
<trkpt lat="53.096434" lon="04.898699"><ele>0.2</ele><time>2021-12-08T13:45:24Z</time><name>PT4441</name></trkpt>
<trkpt lat="53.096443" lon="04.898700"><ele>0</ele><time>2021-12-08T13:45:25Z</time><name>PT4442</name></trkpt>
<trkpt lat="53.096447" lon="04.898706"><ele>0.1</ele><time>2021-12-08T13:45:27Z</time><name>PT4443</name></trkpt>
<trkpt lat="53.096449" lon="04.898702"><ele>0.1</ele><time>2021-12-08T13:45:27Z</time><name>PT4444</name></trkpt>
<trkpt lat="53.096453" lon="04.898701"><ele>0.3</ele><time>2021-12-08T13:45:28Z</time><name>PT4445</name></trkpt>
<trkpt lat="53.096462" lon="04.898701"><ele>0.3</ele><time>2021-12-08T13:45:30Z</time><name>PT4446</name></trkpt>
<trkpt lat="53.096472" lon="04.898698"><ele>0.3</ele><time>2021-12-08T13:45:30Z</time><name>PT4447</name></trkpt>
<trkpt lat="53.096482" lon="04.898696"><ele>0.2</ele><time>2021-12-08T13:45:31Z</time><name>PT4448</name></trkpt>
<trkpt lat="53.096491" lon="04.898700"><ele>0.2</ele><time>2021-12-08T13:45:33Z</time><name>PT4449</name></trkpt>
<trkpt lat="53.096502" lon="04.898708"><ele>0.3</ele><time>2021-12-08T13:45:33Z</time><name>PT4450</name></trkpt>
<trkpt lat="53.096514" lon="04.898712"><ele>0.6</ele><time>2021-12-08T13:45:34Z</time><name>PT4451</name></trkpt>
<trkpt lat="53.096525" lon="04.898711"><ele>0.7</ele><time>2021-12-08T13:45:36Z</time><name>PT4452</name></trkpt>
<trkpt lat="53.096533" lon="04.898707"><ele>0.7</ele><time>2021-12-08T13:45:36Z</time><name>PT4453</name></trkpt>
<trkpt lat="53.096540" lon="04.898704"><ele>0.5</ele><time>2021-12-08T13:45:37Z</time><name>PT4454</name></trkpt>
<trkpt lat="53.096549" lon="04.898708"><ele>0.4</ele><time>2021-12-08T13:45:39Z</time><name>PT4455</name></trkpt>
<trkpt lat="53.096559" lon="04.898712"><ele>0.2</ele><time>2021-12-08T13:45:39Z</time><name>PT4456</name></trkpt>
<trkpt lat="53.096569" lon="04.898714"><ele>0</ele><time>2021-12-08T13:45:40Z</time><name>PT4457</name></trkpt>
<trkpt lat="53.096578" lon="04.898714"><ele>0</ele><time>2021-12-08T13:45:42Z</time><name>PT4458</name></trkpt>
<trkpt lat="53.096585" lon="04.898714"><ele>0.1</ele><time>2021-12-08T13:45:42Z</time><name>PT4459</name></trkpt>
<trkpt lat="53.096595" lon="04.898715"><ele>0.2</ele><time>2021-12-08T13:45:43Z</time><name>PT4460</name></trkpt>
<trkpt lat="53.096609" lon="04.898717"><ele>0.5</ele><time>2021-12-08T13:45:45Z</time><name>PT4461</name></trkpt>
<trkpt lat="53.096623" lon="04.898716"><ele>0.6</ele><time>2021-12-08T13:45:45Z</time><name>PT4462</name></trkpt>
<trkpt lat="53.096634" lon="04.898713"><ele>0.4</ele><time>2021-12-08T13:45:46Z</time><name>PT4463</name></trkpt>
<trkpt lat="53.096645" lon="04.898712"><ele>0.2</ele><time>2021-12-08T13:45:48Z</time><name>PT4464</name></trkpt>
<trkpt lat="53.096653" lon="04.898712"><ele>0.2</ele><time>2021-12-08T13:45:48Z</time><name>PT4465</name></trkpt>
<trkpt lat="53.096663" lon="04.898713"><ele>0</ele><time>2021-12-08T13:45:49Z</time><name>PT4466</name></trkpt>
<trkpt lat="53.096677" lon="04.898716"><ele>0</ele><time>2021-12-08T13:45:51Z</time><name>PT4467</name></trkpt>
<trkpt lat="53.096693" lon="04.898716"><ele>0</ele><time>2021-12-08T13:45:51Z</time><name>PT4468</name></trkpt>
<trkpt lat="53.096707" lon="04.898713"><ele>0.2</ele><time>2021-12-08T13:45:52Z</time><name>PT4469</name></trkpt>
<trkpt lat="53.096717" lon="04.898709"><ele>0.1</ele><time>2021-12-08T13:45:54Z</time><name>PT4470</name></trkpt>
<trkpt lat="53.096726" lon="04.898705"><ele>0.1</ele><time>2021-12-08T13:45:54Z</time><name>PT4471</name></trkpt>
<trkpt lat="53.096737" lon="04.898703"><ele>0</ele><time>2021-12-08T13:45:55Z</time><name>PT4472</name></trkpt>
<trkpt lat="53.096747" lon="04.898702"><ele>0.5</ele><time>2021-12-08T13:45:57Z</time><name>PT4473</name></trkpt>
<trkpt lat="53.096759" lon="04.898699"><ele>0.7</ele><time>2021-12-08T13:45:57Z</time><name>PT4474</name></trkpt>
<trkpt lat="53.096771" lon="04.898697"><ele>1.1</ele><time>2021-12-08T13:45:58Z</time><name>PT4475</name></trkpt>
<trkpt lat="53.096782" lon="04.898693"><ele>1.4</ele><time>2021-12-08T13:46:00Z</time><name>PT4476</name></trkpt>
<trkpt lat="53.096791" lon="04.898690"><ele>1.4</ele><time>2021-12-08T13:46:00Z</time><name>PT4477</name></trkpt>
<trkpt lat="53.096800" lon="04.898689"><ele>1.3</ele><time>2021-12-08T13:46:01Z</time><name>PT4478</name></trkpt>
<trkpt lat="53.096810" lon="04.898692"><ele>1.3</ele><time>2021-12-08T13:46:03Z</time><name>PT4479</name></trkpt>
<trkpt lat="53.096821" lon="04.898693"><ele>1.3</ele><time>2021-12-08T13:46:03Z</time><name>PT4480</name></trkpt>
<trkpt lat="53.096832" lon="04.898692"><ele>1.4</ele><time>2021-12-08T13:46:05Z</time><name>PT4481</name></trkpt>
<trkpt lat="53.096841" lon="04.898690"><ele>1.4</ele><time>2021-12-08T13:46:06Z</time><name>PT4482</name></trkpt>
<trkpt lat="53.096849" lon="04.898688"><ele>1.4</ele><time>2021-12-08T13:46:06Z</time><name>PT4483</name></trkpt>
<trkpt lat="53.096859" lon="04.898685"><ele>1.2</ele><time>2021-12-08T13:46:07Z</time><name>PT4484</name></trkpt>
<trkpt lat="53.096871" lon="04.898681"><ele>1.1</ele><time>2021-12-08T13:46:09Z</time><name>PT4485</name></trkpt>
<trkpt lat="53.096881" lon="04.898676"><ele>1.2</ele><time>2021-12-08T13:46:09Z</time><name>PT4486</name></trkpt>
<trkpt lat="53.096891" lon="04.898672"><ele>1.3</ele><time>2021-12-08T13:46:10Z</time><name>PT4487</name></trkpt>
<trkpt lat="53.096901" lon="04.898670"><ele>1.4</ele><time>2021-12-08T13:46:12Z</time><name>PT4488</name></trkpt>
<trkpt lat="53.096913" lon="04.898669"><ele>1.4</ele><time>2021-12-08T13:46:12Z</time><name>PT4489</name></trkpt>
<trkpt lat="53.096923" lon="04.898668"><ele>1.3</ele><time>2021-12-08T13:46:13Z</time><name>PT4490</name></trkpt>
<trkpt lat="53.096933" lon="04.898667"><ele>1.3</ele><time>2021-12-08T13:46:15Z</time><name>PT4491</name></trkpt>
<trkpt lat="53.096940" lon="04.898665"><ele>1.3</ele><time>2021-12-08T13:46:15Z</time><name>PT4492</name></trkpt>
<trkpt lat="53.096948" lon="04.898664"><ele>1.4</ele><time>2021-12-08T13:46:16Z</time><name>PT4493</name></trkpt>
<trkpt lat="53.096954" lon="04.898664"><ele>1.4</ele><time>2021-12-08T13:46:18Z</time><name>PT4494</name></trkpt>
<trkpt lat="53.096959" lon="04.898663"><ele>1.4</ele><time>2021-12-08T13:46:18Z</time><name>PT4495</name></trkpt>
<trkpt lat="53.096965" lon="04.898663"><ele>1.4</ele><time>2021-12-08T13:46:19Z</time><name>PT4496</name></trkpt>
<trkpt lat="53.096973" lon="04.898664"><ele>1.3</ele><time>2021-12-08T13:46:21Z</time><name>PT4497</name></trkpt>
<trkpt lat="53.096981" lon="04.898664"><ele>1.2</ele><time>2021-12-08T13:46:21Z</time><name>PT4498</name></trkpt>
<trkpt lat="53.097009" lon="04.898639"><ele>0.4</ele><time>2021-12-08T14:04:30Z</time><name>PT4499</name></trkpt>
<trkpt lat="53.097010" lon="04.898635"><ele>-1.2</ele><time>2021-12-08T14:04:34Z</time><name>PT4500</name></trkpt>
<trkpt lat="53.097019" lon="04.898622"><ele>-1.4</ele><time>2021-12-08T14:04:36Z</time><name>PT4501</name></trkpt>
<trkpt lat="53.097029" lon="04.898614"><ele>-1.5</ele><time>2021-12-08T14:04:36Z</time><name>PT4502</name></trkpt>
<trkpt lat="53.097039" lon="04.898608"><ele>-1.4</ele><time>2021-12-08T14:04:37Z</time><name>PT4503</name></trkpt>
<trkpt lat="53.097048" lon="04.898600"><ele>-1.4</ele><time>2021-12-08T14:04:39Z</time><name>PT4504</name></trkpt>
<trkpt lat="53.097053" lon="04.898581"><ele>-1.3</ele><time>2021-12-08T14:04:39Z</time><name>PT4505</name></trkpt>
<trkpt lat="53.097061" lon="04.898569"><ele>-1.1</ele><time>2021-12-08T14:04:40Z</time><name>PT4506</name></trkpt>
<trkpt lat="53.097070" lon="04.898557"><ele>-1</ele><time>2021-12-08T14:04:42Z</time><name>PT4507</name></trkpt>
<trkpt lat="53.097083" lon="04.898546"><ele>-1</ele><time>2021-12-08T14:04:42Z</time><name>PT4508</name></trkpt>
<trkpt lat="53.097092" lon="04.898535"><ele>-1</ele><time>2021-12-08T14:04:43Z</time><name>PT4509</name></trkpt>
<trkpt lat="53.097102" lon="04.898523"><ele>0.8</ele><time>2021-12-08T14:04:45Z</time><name>PT4510</name></trkpt>
<trkpt lat="53.097112" lon="04.898514"><ele>0.6</ele><time>2021-12-08T14:04:45Z</time><name>PT4511</name></trkpt>
<trkpt lat="53.097122" lon="04.898502"><ele>0.3</ele><time>2021-12-08T14:04:46Z</time><name>PT4512</name></trkpt>
<trkpt lat="53.097132" lon="04.898492"><ele>0</ele><time>2021-12-08T14:04:48Z</time><name>PT4513</name></trkpt>
<trkpt lat="53.097142" lon="04.898486"><ele>0.1</ele><time>2021-12-08T14:04:48Z</time><name>PT4514</name></trkpt>
<trkpt lat="53.097151" lon="04.898483"><ele>0.2</ele><time>2021-12-08T14:04:49Z</time><name>PT4515</name></trkpt>
<trkpt lat="53.097162" lon="04.898477"><ele>0.2</ele><time>2021-12-08T14:04:51Z</time><name>PT4516</name></trkpt>
<trkpt lat="53.097174" lon="04.898469"><ele>0.1</ele><time>2021-12-08T14:04:51Z</time><name>PT4517</name></trkpt>
<trkpt lat="53.097186" lon="04.898462"><ele>0.1</ele><time>2021-12-08T14:04:52Z</time><name>PT4518</name></trkpt>
<trkpt lat="53.097198" lon="04.898454"><ele>0.3</ele><time>2021-12-08T14:04:54Z</time><name>PT4519</name></trkpt>
<trkpt lat="53.097209" lon="04.898444"><ele>0.4</ele><time>2021-12-08T14:04:54Z</time><name>PT4520</name></trkpt>
<trkpt lat="53.097215" lon="04.898442"><ele>0.7</ele><time>2021-12-08T14:04:55Z</time><name>PT4521</name></trkpt>
<trkpt lat="53.097219" lon="04.898438"><ele>0.9</ele><time>2021-12-08T14:04:57Z</time><name>PT4522</name></trkpt>
<trkpt lat="53.097226" lon="04.898433"><ele>0.9</ele><time>2021-12-08T14:04:57Z</time><name>PT4523</name></trkpt>
<trkpt lat="53.097236" lon="04.898430"><ele>1</ele><time>2021-12-08T14:04:58Z</time><name>PT4524</name></trkpt>
<trkpt lat="53.097246" lon="04.898425"><ele>0.9</ele><time>2021-12-08T14:05:00Z</time><name>PT4525</name></trkpt>
<trkpt lat="53.097256" lon="04.898422"><ele>0.9</ele><time>2021-12-08T14:05:00Z</time><name>PT4526</name></trkpt>
<trkpt lat="53.097265" lon="04.898420"><ele>0.9</ele><time>2021-12-08T14:05:01Z</time><name>PT4527</name></trkpt>
<trkpt lat="53.097272" lon="04.898417"><ele>1.2</ele><time>2021-12-08T14:05:03Z</time><name>PT4528</name></trkpt>
<trkpt lat="53.097275" lon="04.898415"><ele>1.2</ele><time>2021-12-08T14:05:03Z</time><name>PT4529</name></trkpt>
<trkpt lat="53.097274" lon="04.898418"><ele>1.5</ele><time>2021-12-08T14:05:04Z</time><name>PT4530</name></trkpt>
<trkpt lat="53.097275" lon="04.898419"><ele>1.6</ele><time>2021-12-08T14:05:06Z</time><name>PT4531</name></trkpt>
<trkpt lat="53.097278" lon="04.898415"><ele>1.5</ele><time>2021-12-08T14:05:06Z</time><name>PT4532</name></trkpt>
<trkpt lat="53.097284" lon="04.898409"><ele>1.5</ele><time>2021-12-08T14:05:07Z</time><name>PT4533</name></trkpt>
<trkpt lat="53.097292" lon="04.898405"><ele>1.3</ele><time>2021-12-08T14:05:09Z</time><name>PT4534</name></trkpt>
<trkpt lat="53.097302" lon="04.898400"><ele>1.3</ele><time>2021-12-08T14:05:09Z</time><name>PT4535</name></trkpt>
<trkpt lat="53.097311" lon="04.898395"><ele>1.5</ele><time>2021-12-08T14:05:10Z</time><name>PT4536</name></trkpt>
<trkpt lat="53.097320" lon="04.898391"><ele>1.4</ele><time>2021-12-08T14:05:12Z</time><name>PT4537</name></trkpt>
<trkpt lat="53.097329" lon="04.898386"><ele>1.3</ele><time>2021-12-08T14:05:12Z</time><name>PT4538</name></trkpt>
<trkpt lat="53.097338" lon="04.898380"><ele>1.2</ele><time>2021-12-08T14:05:13Z</time><name>PT4539</name></trkpt>
<trkpt lat="53.097348" lon="04.898376"><ele>1.1</ele><time>2021-12-08T14:05:15Z</time><name>PT4540</name></trkpt>
<trkpt lat="53.097357" lon="04.898370"><ele>1</ele><time>2021-12-08T14:05:15Z</time><name>PT4541</name></trkpt>
<trkpt lat="53.097368" lon="04.898364"><ele>1.1</ele><time>2021-12-08T14:05:16Z</time><name>PT4542</name></trkpt>
<trkpt lat="53.097379" lon="04.898357"><ele>1</ele><time>2021-12-08T14:05:18Z</time><name>PT4543</name></trkpt>
<trkpt lat="53.097390" lon="04.898351"><ele>1</ele><time>2021-12-08T14:05:18Z</time><name>PT4544</name></trkpt>
<trkpt lat="53.097400" lon="04.898347"><ele>1.1</ele><time>2021-12-08T14:05:19Z</time><name>PT4545</name></trkpt>
<trkpt lat="53.097411" lon="04.898342"><ele>0.9</ele><time>2021-12-08T14:05:21Z</time><name>PT4546</name></trkpt>
<trkpt lat="53.097420" lon="04.898337"><ele>0.9</ele><time>2021-12-08T14:05:21Z</time><name>PT4547</name></trkpt>
<trkpt lat="53.097430" lon="04.898332"><ele>0.8</ele><time>2021-12-08T14:05:23Z</time><name>PT4548</name></trkpt>
<trkpt lat="53.097440" lon="04.898325"><ele>0.7</ele><time>2021-12-08T14:05:24Z</time><name>PT4549</name></trkpt>
<trkpt lat="53.097450" lon="04.898319"><ele>0.7</ele><time>2021-12-08T14:05:24Z</time><name>PT4550</name></trkpt>
<trkpt lat="53.097460" lon="04.898312"><ele>0.5</ele><time>2021-12-08T14:05:25Z</time><name>PT4551</name></trkpt>
<trkpt lat="53.097465" lon="04.898308"><ele>0.2</ele><time>2021-12-08T14:05:27Z</time><name>PT4552</name></trkpt>
<trkpt lat="53.097472" lon="04.898304"><ele>0.3</ele><time>2021-12-08T14:05:27Z</time><name>PT4553</name></trkpt>
<trkpt lat="53.097480" lon="04.898301"><ele>0.8</ele><time>2021-12-08T14:05:28Z</time><name>PT4554</name></trkpt>
<trkpt lat="53.097489" lon="04.898299"><ele>0.9</ele><time>2021-12-08T14:05:30Z</time><name>PT4555</name></trkpt>
<trkpt lat="53.097498" lon="04.898297"><ele>-1.1</ele><time>2021-12-08T14:05:30Z</time><name>PT4556</name></trkpt>
<trkpt lat="53.097508" lon="04.898293"><ele>-1.3</ele><time>2021-12-08T14:05:31Z</time><name>PT4557</name></trkpt>
<trkpt lat="53.097520" lon="04.898287"><ele>-1.3</ele><time>2021-12-08T14:05:33Z</time><name>PT4558</name></trkpt>
<trkpt lat="53.097532" lon="04.898280"><ele>-1.4</ele><time>2021-12-08T14:05:33Z</time><name>PT4559</name></trkpt>
<trkpt lat="53.097546" lon="04.898271"><ele>-1.5</ele><time>2021-12-08T14:05:34Z</time><name>PT4560</name></trkpt>
<trkpt lat="53.097561" lon="04.898263"><ele>-1.7</ele><time>2021-12-08T14:05:36Z</time><name>PT4561</name></trkpt>
<trkpt lat="53.097574" lon="04.898255"><ele>-1.8</ele><time>2021-12-08T14:05:36Z</time><name>PT4562</name></trkpt>
<trkpt lat="53.097587" lon="04.898246"><ele>-1.9</ele><time>2021-12-08T14:05:37Z</time><name>PT4563</name></trkpt>
<trkpt lat="53.097599" lon="04.898239"><ele>-1.9</ele><time>2021-12-08T14:05:39Z</time><name>PT4564</name></trkpt>
<trkpt lat="53.097610" lon="04.898232"><ele>-2</ele><time>2021-12-08T14:05:39Z</time><name>PT4565</name></trkpt>
<trkpt lat="53.097622" lon="04.898225"><ele>-1.9</ele><time>2021-12-08T14:05:40Z</time><name>PT4566</name></trkpt>
<trkpt lat="53.097630" lon="04.898220"><ele>-2</ele><time>2021-12-08T14:05:42Z</time><name>PT4567</name></trkpt>
<trkpt lat="53.097637" lon="04.898215"><ele>-2.1</ele><time>2021-12-08T14:05:42Z</time><name>PT4568</name></trkpt>
<trkpt lat="53.097645" lon="04.898211"><ele>-2.3</ele><time>2021-12-08T14:05:43Z</time><name>PT4569</name></trkpt>
<trkpt lat="53.097655" lon="04.898210"><ele>-2.6</ele><time>2021-12-08T14:05:45Z</time><name>PT4570</name></trkpt>
<trkpt lat="53.097666" lon="04.898209"><ele>-2.7</ele><time>2021-12-08T14:05:45Z</time><name>PT4571</name></trkpt>
<trkpt lat="53.097677" lon="04.898207"><ele>-3</ele><time>2021-12-08T14:05:46Z</time><name>PT4572</name></trkpt>
<trkpt lat="53.097691" lon="04.898204"><ele>-3</ele><time>2021-12-08T14:05:48Z</time><name>PT4573</name></trkpt>
<trkpt lat="53.097704" lon="04.898206"><ele>-3</ele><time>2021-12-08T14:05:48Z</time><name>PT4574</name></trkpt>
<trkpt lat="53.097716" lon="04.898202"><ele>-3</ele><time>2021-12-08T14:05:49Z</time><name>PT4575</name></trkpt>
<trkpt lat="53.097726" lon="04.898192"><ele>-3</ele><time>2021-12-08T14:05:51Z</time><name>PT4576</name></trkpt>
<trkpt lat="53.097736" lon="04.898179"><ele>-3</ele><time>2021-12-08T14:05:51Z</time><name>PT4577</name></trkpt>
<trkpt lat="53.097745" lon="04.898166"><ele>-3.1</ele><time>2021-12-08T14:05:52Z</time><name>PT4578</name></trkpt>
<trkpt lat="53.097754" lon="04.898156"><ele>-3</ele><time>2021-12-08T14:05:54Z</time><name>PT4579</name></trkpt>
<trkpt lat="53.097763" lon="04.898147"><ele>-3</ele><time>2021-12-08T14:05:54Z</time><name>PT4580</name></trkpt>
<trkpt lat="53.097771" lon="04.898138"><ele>-3</ele><time>2021-12-08T14:05:55Z</time><name>PT4581</name></trkpt>
<trkpt lat="53.097781" lon="04.898131"><ele>-2.9</ele><time>2021-12-08T14:05:57Z</time><name>PT4582</name></trkpt>
<trkpt lat="53.097793" lon="04.898126"><ele>-3</ele><time>2021-12-08T14:05:57Z</time><name>PT4583</name></trkpt>
<trkpt lat="53.097806" lon="04.898122"><ele>-3.1</ele><time>2021-12-08T14:05:58Z</time><name>PT4584</name></trkpt>
<trkpt lat="53.097819" lon="04.898116"><ele>-3.2</ele><time>2021-12-08T14:06:00Z</time><name>PT4585</name></trkpt>
<trkpt lat="53.097832" lon="04.898103"><ele>-3.4</ele><time>2021-12-08T14:06:00Z</time><name>PT4586</name></trkpt>
<trkpt lat="53.097845" lon="04.898090"><ele>-3.3</ele><time>2021-12-08T14:06:01Z</time><name>PT4587</name></trkpt>
<trkpt lat="53.097856" lon="04.898078"><ele>-3.2</ele><time>2021-12-08T14:06:03Z</time><name>PT4588</name></trkpt>
<trkpt lat="53.097866" lon="04.898067"><ele>-3.2</ele><time>2021-12-08T14:06:03Z</time><name>PT4589</name></trkpt>
<trkpt lat="53.097875" lon="04.898058"><ele>-3.3</ele><time>2021-12-08T14:06:04Z</time><name>PT4590</name></trkpt>
<trkpt lat="53.097885" lon="04.898052"><ele>-3.4</ele><time>2021-12-08T14:06:06Z</time><name>PT4591</name></trkpt>
<trkpt lat="53.097894" lon="04.898047"><ele>-3.5</ele><time>2021-12-08T14:06:06Z</time><name>PT4592</name></trkpt>
<trkpt lat="53.097905" lon="04.898043"><ele>-3.3</ele><time>2021-12-08T14:06:07Z</time><name>PT4593</name></trkpt>
<trkpt lat="53.097916" lon="04.898042"><ele>-3.1</ele><time>2021-12-08T14:06:09Z</time><name>PT4594</name></trkpt>
<trkpt lat="53.097928" lon="04.898042"><ele>-3</ele><time>2021-12-08T14:06:09Z</time><name>PT4595</name></trkpt>
<trkpt lat="53.097942" lon="04.898042"><ele>-2.8</ele><time>2021-12-08T14:06:10Z</time><name>PT4596</name></trkpt>
<trkpt lat="53.097957" lon="04.898040"><ele>-3</ele><time>2021-12-08T14:06:12Z</time><name>PT4597</name></trkpt>
<trkpt lat="53.097971" lon="04.898035"><ele>-3.2</ele><time>2021-12-08T14:06:12Z</time><name>PT4598</name></trkpt>
<trkpt lat="53.097984" lon="04.898031"><ele>-3.4</ele><time>2021-12-08T14:06:13Z</time><name>PT4599</name></trkpt>
<trkpt lat="53.097995" lon="04.898025"><ele>-3.5</ele><time>2021-12-08T14:06:15Z</time><name>PT4600</name></trkpt>
<trkpt lat="53.098009" lon="04.898022"><ele>-3.1</ele><time>2021-12-08T14:06:15Z</time><name>PT4601</name></trkpt>
<trkpt lat="53.098021" lon="04.898021"><ele>-2.6</ele><time>2021-12-08T14:06:16Z</time><name>PT4602</name></trkpt>
<trkpt lat="53.098031" lon="04.898023"><ele>-2.5</ele><time>2021-12-08T14:06:18Z</time><name>PT4603</name></trkpt>
<trkpt lat="53.098039" lon="04.898025"><ele>-2.4</ele><time>2021-12-08T14:06:18Z</time><name>PT4604</name></trkpt>
<trkpt lat="53.098048" lon="04.898025"><ele>-2.9</ele><time>2021-12-08T14:06:19Z</time><name>PT4605</name></trkpt>
<trkpt lat="53.098057" lon="04.898027"><ele>-3.3</ele><time>2021-12-08T14:06:21Z</time><name>PT4606</name></trkpt>
<trkpt lat="53.098068" lon="04.898029"><ele>-3.5</ele><time>2021-12-08T14:06:21Z</time><name>PT4607</name></trkpt>
<trkpt lat="53.098082" lon="04.898028"><ele>-3.5</ele><time>2021-12-08T14:06:22Z</time><name>PT4608</name></trkpt>
<trkpt lat="53.098096" lon="04.898024"><ele>-3.4</ele><time>2021-12-08T14:06:24Z</time><name>PT4609</name></trkpt>
<trkpt lat="53.098110" lon="04.898017"><ele>-3.2</ele><time>2021-12-08T14:06:24Z</time><name>PT4610</name></trkpt>
<trkpt lat="53.098121" lon="04.898012"><ele>-3.1</ele><time>2021-12-08T14:06:25Z</time><name>PT4611</name></trkpt>
<trkpt lat="53.098130" lon="04.898007"><ele>-3.1</ele><time>2021-12-08T14:06:27Z</time><name>PT4612</name></trkpt>
<trkpt lat="53.098139" lon="04.898006"><ele>-3.2</ele><time>2021-12-08T14:06:27Z</time><name>PT4613</name></trkpt>
<trkpt lat="53.098148" lon="04.898008"><ele>-3.3</ele><time>2021-12-08T14:06:28Z</time><name>PT4614</name></trkpt>
<trkpt lat="53.098159" lon="04.898011"><ele>-3.5</ele><time>2021-12-08T14:06:30Z</time><name>PT4615</name></trkpt>
<trkpt lat="53.098171" lon="04.898012"><ele>-3.7</ele><time>2021-12-08T14:06:30Z</time><name>PT4616</name></trkpt>
<trkpt lat="53.098182" lon="04.898008"><ele>-3.6</ele><time>2021-12-08T14:06:31Z</time><name>PT4617</name></trkpt>
<trkpt lat="53.098191" lon="04.898002"><ele>-3.4</ele><time>2021-12-08T14:06:33Z</time><name>PT4618</name></trkpt>
<trkpt lat="53.098199" lon="04.897996"><ele>-3.4</ele><time>2021-12-08T14:06:33Z</time><name>PT4619</name></trkpt>
<trkpt lat="53.098207" lon="04.897992"><ele>-3.2</ele><time>2021-12-08T14:06:34Z</time><name>PT4620</name></trkpt>
<trkpt lat="53.098216" lon="04.897991"><ele>-3.2</ele><time>2021-12-08T14:06:36Z</time><name>PT4621</name></trkpt>
<trkpt lat="53.098224" lon="04.897989"><ele>-3.4</ele><time>2021-12-08T14:06:36Z</time><name>PT4622</name></trkpt>
<trkpt lat="53.098225" lon="04.897992"><ele>-3.3</ele><time>2021-12-08T14:06:37Z</time><name>PT4623</name></trkpt>
<trkpt lat="53.098228" lon="04.897980"><ele>-3.2</ele><time>2021-12-08T14:06:39Z</time><name>PT4624</name></trkpt>
<trkpt lat="53.098234" lon="04.897963"><ele>-3</ele><time>2021-12-08T14:06:39Z</time><name>PT4625</name></trkpt>
<trkpt lat="53.098239" lon="04.897944"><ele>-2.9</ele><time>2021-12-08T14:06:40Z</time><name>PT4626</name></trkpt>
<trkpt lat="53.098242" lon="04.897926"><ele>-2.8</ele><time>2021-12-08T14:06:42Z</time><name>PT4627</name></trkpt>
<trkpt lat="53.098247" lon="04.897914"><ele>-2.7</ele><time>2021-12-08T14:06:42Z</time><name>PT4628</name></trkpt>
<trkpt lat="53.098251" lon="04.897907"><ele>-2.8</ele><time>2021-12-08T14:06:43Z</time><name>PT4629</name></trkpt>
<trkpt lat="53.098258" lon="04.897896"><ele>-2.8</ele><time>2021-12-08T14:06:45Z</time><name>PT4630</name></trkpt>
<trkpt lat="53.098269" lon="04.897877"><ele>-2.7</ele><time>2021-12-08T14:06:45Z</time><name>PT4631</name></trkpt>
<trkpt lat="53.098280" lon="04.897857"><ele>-2.8</ele><time>2021-12-08T14:06:46Z</time><name>PT4632</name></trkpt>
<trkpt lat="53.098290" lon="04.897838"><ele>-2.8</ele><time>2021-12-08T14:06:48Z</time><name>PT4633</name></trkpt>
<trkpt lat="53.098294" lon="04.897822"><ele>-2.8</ele><time>2021-12-08T14:06:48Z</time><name>PT4634</name></trkpt>
<trkpt lat="53.098296" lon="04.897810"><ele>-3</ele><time>2021-12-08T14:06:49Z</time><name>PT4635</name></trkpt>
<trkpt lat="53.098298" lon="04.897799"><ele>-3</ele><time>2021-12-08T14:06:51Z</time><name>PT4636</name></trkpt>
<trkpt lat="53.098301" lon="04.897789"><ele>-2.9</ele><time>2021-12-08T14:06:51Z</time><name>PT4637</name></trkpt>
<trkpt lat="53.098305" lon="04.897777"><ele>-2.8</ele><time>2021-12-08T14:06:52Z</time><name>PT4638</name></trkpt>
<trkpt lat="53.098309" lon="04.897771"><ele>-3</ele><time>2021-12-08T14:06:54Z</time><name>PT4639</name></trkpt>
<trkpt lat="53.098310" lon="04.897772"><ele>-3.1</ele><time>2021-12-08T14:06:54Z</time><name>PT4640</name></trkpt>
<trkpt lat="53.098307" lon="04.897770"><ele>-3.3</ele><time>2021-12-08T14:06:55Z</time><name>PT4641</name></trkpt>
<trkpt lat="53.098306" lon="04.897763"><ele>-3.6</ele><time>2021-12-08T14:06:57Z</time><name>PT4642</name></trkpt>
<trkpt lat="53.098303" lon="04.897750"><ele>-3.7</ele><time>2021-12-08T14:06:57Z</time><name>PT4643</name></trkpt>
<trkpt lat="53.098300" lon="04.897737"><ele>-3.2</ele><time>2021-12-08T14:06:58Z</time><name>PT4644</name></trkpt>
<trkpt lat="53.098298" lon="04.897724"><ele>-2.7</ele><time>2021-12-08T14:07:00Z</time><name>PT4645</name></trkpt>
<trkpt lat="53.098297" lon="04.897709"><ele>-2.7</ele><time>2021-12-08T14:07:00Z</time><name>PT4646</name></trkpt>
<trkpt lat="53.098297" lon="04.897691"><ele>-2.5</ele><time>2021-12-08T14:07:01Z</time><name>PT4647</name></trkpt>
<trkpt lat="53.098301" lon="04.897670"><ele>-2.8</ele><time>2021-12-08T14:07:03Z</time><name>PT4648</name></trkpt>
<trkpt lat="53.098303" lon="04.897653"><ele>-2.8</ele><time>2021-12-08T14:07:03Z</time><name>PT4649</name></trkpt>
<trkpt lat="53.098304" lon="04.897635"><ele>-2.8</ele><time>2021-12-08T14:07:04Z</time><name>PT4650</name></trkpt>
<trkpt lat="53.098307" lon="04.897618"><ele>-2.4</ele><time>2021-12-08T14:07:06Z</time><name>PT4651</name></trkpt>
<trkpt lat="53.098311" lon="04.897599"><ele>-2.4</ele><time>2021-12-08T14:07:06Z</time><name>PT4652</name></trkpt>
<trkpt lat="53.098315" lon="04.897584"><ele>-2.3</ele><time>2021-12-08T14:07:07Z</time><name>PT4653</name></trkpt>
<trkpt lat="53.098320" lon="04.897569"><ele>-2.4</ele><time>2021-12-08T14:07:09Z</time><name>PT4654</name></trkpt>
<trkpt lat="53.098326" lon="04.897556"><ele>-2.7</ele><time>2021-12-08T14:07:09Z</time><name>PT4655</name></trkpt>
<trkpt lat="53.098334" lon="04.897544"><ele>-2.9</ele><time>2021-12-08T14:07:10Z</time><name>PT4656</name></trkpt>
<trkpt lat="53.098342" lon="04.897533"><ele>-2.8</ele><time>2021-12-08T14:07:12Z</time><name>PT4657</name></trkpt>
<trkpt lat="53.098350" lon="04.897523"><ele>-2.6</ele><time>2021-12-08T14:07:12Z</time><name>PT4658</name></trkpt>
<trkpt lat="53.098359" lon="04.897512"><ele>-2.6</ele><time>2021-12-08T14:07:13Z</time><name>PT4659</name></trkpt>
<trkpt lat="53.098369" lon="04.897501"><ele>-2.5</ele><time>2021-12-08T14:07:15Z</time><name>PT4660</name></trkpt>
<trkpt lat="53.098378" lon="04.897492"><ele>-2.5</ele><time>2021-12-08T14:07:15Z</time><name>PT4661</name></trkpt>
<trkpt lat="53.098385" lon="04.897484"><ele>-2.6</ele><time>2021-12-08T14:07:16Z</time><name>PT4662</name></trkpt>
<trkpt lat="53.098394" lon="04.897472"><ele>-2.5</ele><time>2021-12-08T14:07:18Z</time><name>PT4663</name></trkpt>
<trkpt lat="53.098403" lon="04.897464"><ele>-2.5</ele><time>2021-12-08T14:07:18Z</time><name>PT4664</name></trkpt>
<trkpt lat="53.098412" lon="04.897455"><ele>-2.4</ele><time>2021-12-08T14:07:19Z</time><name>PT4665</name></trkpt>
<trkpt lat="53.098421" lon="04.897446"><ele>-2.4</ele><time>2021-12-08T14:07:21Z</time><name>PT4666</name></trkpt>
<trkpt lat="53.098429" lon="04.897436"><ele>-2.3</ele><time>2021-12-08T14:07:21Z</time><name>PT4667</name></trkpt>
<trkpt lat="53.098437" lon="04.897427"><ele>-2.4</ele><time>2021-12-08T14:07:23Z</time><name>PT4668</name></trkpt>
<trkpt lat="53.098446" lon="04.897415"><ele>-2.4</ele><time>2021-12-08T14:07:24Z</time><name>PT4669</name></trkpt>
<trkpt lat="53.098457" lon="04.897406"><ele>-2.7</ele><time>2021-12-08T14:07:24Z</time><name>PT4670</name></trkpt>
<trkpt lat="53.098467" lon="04.897398"><ele>-2.9</ele><time>2021-12-08T14:07:25Z</time><name>PT4671</name></trkpt>
<trkpt lat="53.098476" lon="04.897391"><ele>-2.8</ele><time>2021-12-08T14:07:27Z</time><name>PT4672</name></trkpt>
<trkpt lat="53.098486" lon="04.897385"><ele>-2.9</ele><time>2021-12-08T14:07:27Z</time><name>PT4673</name></trkpt>
<trkpt lat="53.098496" lon="04.897379"><ele>-2.9</ele><time>2021-12-08T14:07:28Z</time><name>PT4674</name></trkpt>
<trkpt lat="53.098505" lon="04.897371"><ele>-2.7</ele><time>2021-12-08T14:07:30Z</time><name>PT4675</name></trkpt>
<trkpt lat="53.098510" lon="04.897362"><ele>-2.6</ele><time>2021-12-08T14:07:30Z</time><name>PT4676</name></trkpt>
<trkpt lat="53.098516" lon="04.897354"><ele>-2.7</ele><time>2021-12-08T14:07:31Z</time><name>PT4677</name></trkpt>
<trkpt lat="53.098524" lon="04.897346"><ele>-2.7</ele><time>2021-12-08T14:07:33Z</time><name>PT4678</name></trkpt>
<trkpt lat="53.098530" lon="04.897340"><ele>-2.7</ele><time>2021-12-08T14:07:33Z</time><name>PT4679</name></trkpt>
<trkpt lat="53.098535" lon="04.897331"><ele>-2.9</ele><time>2021-12-08T14:07:34Z</time><name>PT4680</name></trkpt>
<trkpt lat="53.098539" lon="04.897325"><ele>-2.8</ele><time>2021-12-08T14:07:36Z</time><name>PT4681</name></trkpt>
<trkpt lat="53.098540" lon="04.897324"><ele>-2.8</ele><time>2021-12-08T14:07:36Z</time><name>PT4682</name></trkpt>
<trkpt lat="53.098540" lon="04.897325"><ele>-2.7</ele><time>2021-12-08T14:07:37Z</time><name>PT4683</name></trkpt>
<trkpt lat="53.098540" lon="04.897325"><ele>-2.4</ele><time>2021-12-08T14:07:39Z</time><name>PT4684</name></trkpt>
<trkpt lat="53.098539" lon="04.897332"><ele>-2.7</ele><time>2021-12-08T14:08:15Z</time><name>PT4685</name></trkpt>
<trkpt lat="53.098542" lon="04.897332"><ele>-2.5</ele><time>2021-12-08T14:08:15Z</time><name>PT4686</name></trkpt>
<trkpt lat="53.098544" lon="04.897332"><ele>-2.5</ele><time>2021-12-08T14:08:16Z</time><name>PT4687</name></trkpt>
<trkpt lat="53.098546" lon="04.897332"><ele>-2.5</ele><time>2021-12-08T14:08:18Z</time><name>PT4688</name></trkpt>
<trkpt lat="53.098546" lon="04.897331"><ele>-2.5</ele><time>2021-12-08T14:08:18Z</time><name>PT4689</name></trkpt>
<trkpt lat="53.098547" lon="04.897331"><ele>-2.3</ele><time>2021-12-08T14:08:19Z</time><name>PT4690</name></trkpt>
<trkpt lat="53.098548" lon="04.897324"><ele>-2.9</ele><time>2021-12-08T14:10:12Z</time><name>PT4691</name></trkpt>
<trkpt lat="53.098547" lon="04.897313"><ele>-3</ele><time>2021-12-08T14:10:13Z</time><name>PT4692</name></trkpt>
<trkpt lat="53.098546" lon="04.897299"><ele>-3.1</ele><time>2021-12-08T14:10:15Z</time><name>PT4693</name></trkpt>
<trkpt lat="53.098549" lon="04.897281"><ele>-3.3</ele><time>2021-12-08T14:10:15Z</time><name>PT4694</name></trkpt>
<trkpt lat="53.098554" lon="04.897263"><ele>-3.5</ele><time>2021-12-08T14:10:16Z</time><name>PT4695</name></trkpt>
<trkpt lat="53.098558" lon="04.897245"><ele>-3.5</ele><time>2021-12-08T14:10:18Z</time><name>PT4696</name></trkpt>
<trkpt lat="53.098563" lon="04.897228"><ele>-3.6</ele><time>2021-12-08T14:10:18Z</time><name>PT4697</name></trkpt>
<trkpt lat="53.098568" lon="04.897211"><ele>-3.7</ele><time>2021-12-08T14:10:19Z</time><name>PT4698</name></trkpt>
<trkpt lat="53.098572" lon="04.897195"><ele>-3.9</ele><time>2021-12-08T14:10:21Z</time><name>PT4699</name></trkpt>
<trkpt lat="53.098576" lon="04.897179"><ele>-4</ele><time>2021-12-08T14:10:21Z</time><name>PT4700</name></trkpt>
<trkpt lat="53.098581" lon="04.897165"><ele>-4</ele><time>2021-12-08T14:10:22Z</time><name>PT4701</name></trkpt>
<trkpt lat="53.098587" lon="04.897151"><ele>-4</ele><time>2021-12-08T14:10:24Z</time><name>PT4702</name></trkpt>
<trkpt lat="53.098593" lon="04.897137"><ele>-4</ele><time>2021-12-08T14:10:24Z</time><name>PT4703</name></trkpt>
<trkpt lat="53.098601" lon="04.897125"><ele>-4.1</ele><time>2021-12-08T14:10:25Z</time><name>PT4704</name></trkpt>
<trkpt lat="53.098608" lon="04.897111"><ele>-4.1</ele><time>2021-12-08T14:10:27Z</time><name>PT4705</name></trkpt>
<trkpt lat="53.098615" lon="04.897096"><ele>-4.2</ele><time>2021-12-08T14:10:27Z</time><name>PT4706</name></trkpt>
<trkpt lat="53.098622" lon="04.897081"><ele>-4</ele><time>2021-12-08T14:10:28Z</time><name>PT4707</name></trkpt>
<trkpt lat="53.098629" lon="04.897064"><ele>-4.2</ele><time>2021-12-08T14:10:30Z</time><name>PT4708</name></trkpt>
<trkpt lat="53.098635" lon="04.897046"><ele>-4</ele><time>2021-12-08T14:10:30Z</time><name>PT4709</name></trkpt>
<trkpt lat="53.098641" lon="04.897031"><ele>-4.1</ele><time>2021-12-08T14:10:31Z</time><name>PT4710</name></trkpt>
<trkpt lat="53.098648" lon="04.897016"><ele>-4.1</ele><time>2021-12-08T14:10:33Z</time><name>PT4711</name></trkpt>
<trkpt lat="53.098654" lon="04.897003"><ele>-4.1</ele><time>2021-12-08T14:10:33Z</time><name>PT4712</name></trkpt>
<trkpt lat="53.098662" lon="04.896989"><ele>-4</ele><time>2021-12-08T14:10:34Z</time><name>PT4713</name></trkpt>
<trkpt lat="53.098670" lon="04.896975"><ele>-4</ele><time>2021-12-08T14:10:36Z</time><name>PT4714</name></trkpt>
<trkpt lat="53.098678" lon="04.896960"><ele>-4</ele><time>2021-12-08T14:10:36Z</time><name>PT4715</name></trkpt>
<trkpt lat="53.098685" lon="04.896943"><ele>-4</ele><time>2021-12-08T14:10:37Z</time><name>PT4716</name></trkpt>
<trkpt lat="53.098691" lon="04.896926"><ele>-3.9</ele><time>2021-12-08T14:10:39Z</time><name>PT4717</name></trkpt>
<trkpt lat="53.098697" lon="04.896910"><ele>-4</ele><time>2021-12-08T14:10:39Z</time><name>PT4718</name></trkpt>
<trkpt lat="53.098702" lon="04.896892"><ele>-4.3</ele><time>2021-12-08T14:10:40Z</time><name>PT4719</name></trkpt>
<trkpt lat="53.098708" lon="04.896876"><ele>-4.1</ele><time>2021-12-08T14:10:42Z</time><name>PT4720</name></trkpt>
<trkpt lat="53.098715" lon="04.896860"><ele>-4.3</ele><time>2021-12-08T14:10:42Z</time><name>PT4721</name></trkpt>
<trkpt lat="53.098721" lon="04.896844"><ele>-4.1</ele><time>2021-12-08T14:10:43Z</time><name>PT4722</name></trkpt>
<trkpt lat="53.098728" lon="04.896828"><ele>-4</ele><time>2021-12-08T14:10:45Z</time><name>PT4723</name></trkpt>
<trkpt lat="53.098736" lon="04.896811"><ele>-4.2</ele><time>2021-12-08T14:10:45Z</time><name>PT4724</name></trkpt>
<trkpt lat="53.098743" lon="04.896796"><ele>-4.4</ele><time>2021-12-08T14:10:46Z</time><name>PT4725</name></trkpt>
<trkpt lat="53.098749" lon="04.896780"><ele>-4.4</ele><time>2021-12-08T14:10:48Z</time><name>PT4726</name></trkpt>
<trkpt lat="53.098756" lon="04.896765"><ele>-4.4</ele><time>2021-12-08T14:10:48Z</time><name>PT4727</name></trkpt>
<trkpt lat="53.098763" lon="04.896748"><ele>-4.6</ele><time>2021-12-08T14:10:49Z</time><name>PT4728</name></trkpt>
<trkpt lat="53.098769" lon="04.896731"><ele>-4.3</ele><time>2021-12-08T14:10:51Z</time><name>PT4729</name></trkpt>
<trkpt lat="53.098775" lon="04.896715"><ele>-4.2</ele><time>2021-12-08T14:10:51Z</time><name>PT4730</name></trkpt>
<trkpt lat="53.098781" lon="04.896699"><ele>-4.3</ele><time>2021-12-08T14:10:52Z</time><name>PT4731</name></trkpt>
<trkpt lat="53.098787" lon="04.896683"><ele>-4.3</ele><time>2021-12-08T14:10:54Z</time><name>PT4732</name></trkpt>
<trkpt lat="53.098793" lon="04.896667"><ele>-4.3</ele><time>2021-12-08T14:10:54Z</time><name>PT4733</name></trkpt>
<trkpt lat="53.098800" lon="04.896652"><ele>-4.5</ele><time>2021-12-08T14:10:55Z</time><name>PT4734</name></trkpt>
<trkpt lat="53.098807" lon="04.896636"><ele>-4.6</ele><time>2021-12-08T14:10:57Z</time><name>PT4735</name></trkpt>
<trkpt lat="53.098814" lon="04.896619"><ele>-4.6</ele><time>2021-12-08T14:10:57Z</time><name>PT4736</name></trkpt>
<trkpt lat="53.098819" lon="04.896601"><ele>-4.7</ele><time>2021-12-08T14:10:58Z</time><name>PT4737</name></trkpt>
<trkpt lat="53.098825" lon="04.896583"><ele>-4.7</ele><time>2021-12-08T14:11:00Z</time><name>PT4738</name></trkpt>
<trkpt lat="53.098831" lon="04.896567"><ele>-4.8</ele><time>2021-12-08T14:11:00Z</time><name>PT4739</name></trkpt>
<trkpt lat="53.098836" lon="04.896551"><ele>-4.6</ele><time>2021-12-08T14:11:01Z</time><name>PT4740</name></trkpt>
<trkpt lat="53.098842" lon="04.896536"><ele>-4.7</ele><time>2021-12-08T14:11:03Z</time><name>PT4741</name></trkpt>
<trkpt lat="53.098848" lon="04.896520"><ele>-4.7</ele><time>2021-12-08T14:11:03Z</time><name>PT4742</name></trkpt>
<trkpt lat="53.098854" lon="04.896502"><ele>-4.6</ele><time>2021-12-08T14:11:04Z</time><name>PT4743</name></trkpt>
<trkpt lat="53.098861" lon="04.896484"><ele>-4.7</ele><time>2021-12-08T14:11:06Z</time><name>PT4744</name></trkpt>
<trkpt lat="53.098867" lon="04.896468"><ele>-4.8</ele><time>2021-12-08T14:11:06Z</time><name>PT4745</name></trkpt>
<trkpt lat="53.098874" lon="04.896452"><ele>-4.8</ele><time>2021-12-08T14:11:07Z</time><name>PT4746</name></trkpt>
<trkpt lat="53.098880" lon="04.896435"><ele>-5.1</ele><time>2021-12-08T14:11:09Z</time><name>PT4747</name></trkpt>
<trkpt lat="53.098885" lon="04.896418"><ele>-5.1</ele><time>2021-12-08T14:11:09Z</time><name>PT4748</name></trkpt>
<trkpt lat="53.098890" lon="04.896402"><ele>-5.3</ele><time>2021-12-08T14:11:10Z</time><name>PT4749</name></trkpt>
<trkpt lat="53.098894" lon="04.896386"><ele>-5.6</ele><time>2021-12-08T14:11:12Z</time><name>PT4750</name></trkpt>
<trkpt lat="53.098898" lon="04.896372"><ele>-5.4</ele><time>2021-12-08T14:11:12Z</time><name>PT4751</name></trkpt>
<trkpt lat="53.098905" lon="04.896358"><ele>-5.2</ele><time>2021-12-08T14:11:13Z</time><name>PT4752</name></trkpt>
<trkpt lat="53.098912" lon="04.896343"><ele>-5.5</ele><time>2021-12-08T14:11:15Z</time><name>PT4753</name></trkpt>
<trkpt lat="53.098919" lon="04.896326"><ele>-5.5</ele><time>2021-12-08T14:11:15Z</time><name>PT4754</name></trkpt>
<trkpt lat="53.098925" lon="04.896310"><ele>-5.6</ele><time>2021-12-08T14:11:16Z</time><name>PT4755</name></trkpt>
<trkpt lat="53.098931" lon="04.896293"><ele>-5.4</ele><time>2021-12-08T14:11:18Z</time><name>PT4756</name></trkpt>
<trkpt lat="53.098935" lon="04.896275"><ele>-5.5</ele><time>2021-12-08T14:11:18Z</time><name>PT4757</name></trkpt>
<trkpt lat="53.098941" lon="04.896257"><ele>-5.4</ele><time>2021-12-08T14:11:19Z</time><name>PT4758</name></trkpt>
<trkpt lat="53.098947" lon="04.896239"><ele>-5.3</ele><time>2021-12-08T14:11:21Z</time><name>PT4759</name></trkpt>
<trkpt lat="53.098951" lon="04.896223"><ele>-5.2</ele><time>2021-12-08T14:11:21Z</time><name>PT4760</name></trkpt>
<trkpt lat="53.098955" lon="04.896205"><ele>-5.3</ele><time>2021-12-08T14:11:22Z</time><name>PT4761</name></trkpt>
<trkpt lat="53.098960" lon="04.896190"><ele>-5.2</ele><time>2021-12-08T14:11:24Z</time><name>PT4762</name></trkpt>
<trkpt lat="53.098966" lon="04.896175"><ele>-5.3</ele><time>2021-12-08T14:11:24Z</time><name>PT4763</name></trkpt>
<trkpt lat="53.098973" lon="04.896158"><ele>-5.4</ele><time>2021-12-08T14:11:25Z</time><name>PT4764</name></trkpt>
<trkpt lat="53.098980" lon="04.896140"><ele>-5.4</ele><time>2021-12-08T14:11:27Z</time><name>PT4765</name></trkpt>
<trkpt lat="53.098987" lon="04.896122"><ele>-5.4</ele><time>2021-12-08T14:11:27Z</time><name>PT4766</name></trkpt>
<trkpt lat="53.098992" lon="04.896104"><ele>-5.2</ele><time>2021-12-08T14:11:28Z</time><name>PT4767</name></trkpt>
<trkpt lat="53.098997" lon="04.896085"><ele>-5.2</ele><time>2021-12-08T14:11:30Z</time><name>PT4768</name></trkpt>
<trkpt lat="53.099001" lon="04.896068"><ele>-5.3</ele><time>2021-12-08T14:11:30Z</time><name>PT4769</name></trkpt>
<trkpt lat="53.099007" lon="04.896055"><ele>-5.4</ele><time>2021-12-08T14:11:31Z</time><name>PT4770</name></trkpt>
<trkpt lat="53.099012" lon="04.896039"><ele>-5.6</ele><time>2021-12-08T14:11:33Z</time><name>PT4771</name></trkpt>
<trkpt lat="53.099017" lon="04.896023"><ele>-5.6</ele><time>2021-12-08T14:11:33Z</time><name>PT4772</name></trkpt>
<trkpt lat="53.099023" lon="04.896006"><ele>-5.8</ele><time>2021-12-08T14:11:34Z</time><name>PT4773</name></trkpt>
<trkpt lat="53.099030" lon="04.895989"><ele>-5.8</ele><time>2021-12-08T14:11:36Z</time><name>PT4774</name></trkpt>
<trkpt lat="53.099036" lon="04.895972"><ele>-5.8</ele><time>2021-12-08T14:11:36Z</time><name>PT4775</name></trkpt>
<trkpt lat="53.099043" lon="04.895954"><ele>-5.8</ele><time>2021-12-08T14:11:37Z</time><name>PT4776</name></trkpt>
<trkpt lat="53.099049" lon="04.895935"><ele>-5.7</ele><time>2021-12-08T14:11:39Z</time><name>PT4777</name></trkpt>
<trkpt lat="53.099054" lon="04.895916"><ele>-5.8</ele><time>2021-12-08T14:11:39Z</time><name>PT4778</name></trkpt>
<trkpt lat="53.099059" lon="04.895898"><ele>-6</ele><time>2021-12-08T14:11:40Z</time><name>PT4779</name></trkpt>
<trkpt lat="53.099066" lon="04.895880"><ele>-6</ele><time>2021-12-08T14:11:42Z</time><name>PT4780</name></trkpt>
<trkpt lat="53.099072" lon="04.895862"><ele>-6.2</ele><time>2021-12-08T14:11:42Z</time><name>PT4781</name></trkpt>
<trkpt lat="53.099077" lon="04.895845"><ele>-6.2</ele><time>2021-12-08T14:11:43Z</time><name>PT4782</name></trkpt>
<trkpt lat="53.099084" lon="04.895830"><ele>-6.2</ele><time>2021-12-08T14:11:45Z</time><name>PT4783</name></trkpt>
<trkpt lat="53.099090" lon="04.895814"><ele>-6.2</ele><time>2021-12-08T14:11:45Z</time><name>PT4784</name></trkpt>
<trkpt lat="53.099098" lon="04.895796"><ele>-6.2</ele><time>2021-12-08T14:11:46Z</time><name>PT4785</name></trkpt>
<trkpt lat="53.099105" lon="04.895778"><ele>-6.2</ele><time>2021-12-08T14:11:48Z</time><name>PT4786</name></trkpt>
<trkpt lat="53.099112" lon="04.895760"><ele>-6.3</ele><time>2021-12-08T14:11:48Z</time><name>PT4787</name></trkpt>
<trkpt lat="53.099119" lon="04.895741"><ele>-6.3</ele><time>2021-12-08T14:11:49Z</time><name>PT4788</name></trkpt>
<trkpt lat="53.099125" lon="04.895722"><ele>-6.5</ele><time>2021-12-08T14:11:51Z</time><name>PT4789</name></trkpt>
<trkpt lat="53.099131" lon="04.895705"><ele>-6.5</ele><time>2021-12-08T14:11:51Z</time><name>PT4790</name></trkpt>
<trkpt lat="53.099137" lon="04.895687"><ele>-6.6</ele><time>2021-12-08T14:11:52Z</time><name>PT4791</name></trkpt>
<trkpt lat="53.099143" lon="04.895669"><ele>-6.7</ele><time>2021-12-08T14:11:54Z</time><name>PT4792</name></trkpt>
<trkpt lat="53.099149" lon="04.895652"><ele>-6.7</ele><time>2021-12-08T14:11:54Z</time><name>PT4793</name></trkpt>
<trkpt lat="53.099155" lon="04.895638"><ele>-6.7</ele><time>2021-12-08T14:11:55Z</time><name>PT4794</name></trkpt>
<trkpt lat="53.099162" lon="04.895623"><ele>-6.6</ele><time>2021-12-08T14:11:57Z</time><name>PT4795</name></trkpt>
<trkpt lat="53.099169" lon="04.895607"><ele>-6.4</ele><time>2021-12-08T14:11:57Z</time><name>PT4796</name></trkpt>
<trkpt lat="53.099174" lon="04.895590"><ele>-6.5</ele><time>2021-12-08T14:11:58Z</time><name>PT4797</name></trkpt>
<trkpt lat="53.099179" lon="04.895573"><ele>-6.6</ele><time>2021-12-08T14:12:00Z</time><name>PT4798</name></trkpt>
<trkpt lat="53.099184" lon="04.895555"><ele>-6.6</ele><time>2021-12-08T14:12:00Z</time><name>PT4799</name></trkpt>
<trkpt lat="53.099189" lon="04.895535"><ele>-6.7</ele><time>2021-12-08T14:12:01Z</time><name>PT4800</name></trkpt>
<trkpt lat="53.099192" lon="04.895517"><ele>-6.8</ele><time>2021-12-08T14:12:03Z</time><name>PT4801</name></trkpt>
<trkpt lat="53.099197" lon="04.895501"><ele>-7</ele><time>2021-12-08T14:12:03Z</time><name>PT4802</name></trkpt>
<trkpt lat="53.099202" lon="04.895485"><ele>-7</ele><time>2021-12-08T14:12:04Z</time><name>PT4803</name></trkpt>
<trkpt lat="53.099208" lon="04.895466"><ele>-7</ele><time>2021-12-08T14:12:06Z</time><name>PT4804</name></trkpt>
<trkpt lat="53.099214" lon="04.895447"><ele>-7</ele><time>2021-12-08T14:12:06Z</time><name>PT4805</name></trkpt>
<trkpt lat="53.099221" lon="04.895428"><ele>-7.2</ele><time>2021-12-08T14:12:07Z</time><name>PT4806</name></trkpt>
<trkpt lat="53.099226" lon="04.895408"><ele>-7.1</ele><time>2021-12-08T14:12:09Z</time><name>PT4807</name></trkpt>
<trkpt lat="53.099229" lon="04.895389"><ele>-7.2</ele><time>2021-12-08T14:12:09Z</time><name>PT4808</name></trkpt>
<trkpt lat="53.099232" lon="04.895369"><ele>-7.2</ele><time>2021-12-08T14:12:10Z</time><name>PT4809</name></trkpt>
<trkpt lat="53.099234" lon="04.895347"><ele>-7.3</ele><time>2021-12-08T14:12:12Z</time><name>PT4810</name></trkpt>
<trkpt lat="53.099235" lon="04.895327"><ele>-7.2</ele><time>2021-12-08T14:12:12Z</time><name>PT4811</name></trkpt>
<trkpt lat="53.099235" lon="04.895307"><ele>-7.3</ele><time>2021-12-08T14:12:13Z</time><name>PT4812</name></trkpt>
<trkpt lat="53.099234" lon="04.895287"><ele>-7.5</ele><time>2021-12-08T14:12:15Z</time><name>PT4813</name></trkpt>
<trkpt lat="53.099232" lon="04.895268"><ele>-7.6</ele><time>2021-12-08T14:12:15Z</time><name>PT4814</name></trkpt>
<trkpt lat="53.099231" lon="04.895250"><ele>-7.5</ele><time>2021-12-08T14:12:16Z</time><name>PT4815</name></trkpt>
<trkpt lat="53.099228" lon="04.895230"><ele>-7.8</ele><time>2021-12-08T14:12:18Z</time><name>PT4816</name></trkpt>
<trkpt lat="53.099226" lon="04.895211"><ele>-7.8</ele><time>2021-12-08T14:12:18Z</time><name>PT4817</name></trkpt>
<trkpt lat="53.099224" lon="04.895193"><ele>-7.7</ele><time>2021-12-08T14:12:19Z</time><name>PT4818</name></trkpt>
<trkpt lat="53.099221" lon="04.895174"><ele>-7.8</ele><time>2021-12-08T14:12:21Z</time><name>PT4819</name></trkpt>
<trkpt lat="53.099217" lon="04.895155"><ele>-7.8</ele><time>2021-12-08T14:12:21Z</time><name>PT4820</name></trkpt>
<trkpt lat="53.099212" lon="04.895136"><ele>-7.7</ele><time>2021-12-08T14:12:22Z</time><name>PT4821</name></trkpt>
<trkpt lat="53.099206" lon="04.895118"><ele>-7.7</ele><time>2021-12-08T14:12:24Z</time><name>PT4822</name></trkpt>
<trkpt lat="53.099197" lon="04.895103"><ele>-7.7</ele><time>2021-12-08T14:12:24Z</time><name>PT4823</name></trkpt>
<trkpt lat="53.099187" lon="04.895089"><ele>-7.6</ele><time>2021-12-08T14:12:25Z</time><name>PT4824</name></trkpt>
<trkpt lat="53.099178" lon="04.895075"><ele>-7.7</ele><time>2021-12-08T14:12:27Z</time><name>PT4825</name></trkpt>
<trkpt lat="53.099169" lon="04.895061"><ele>-7.7</ele><time>2021-12-08T14:12:27Z</time><name>PT4826</name></trkpt>
<trkpt lat="53.099160" lon="04.895046"><ele>-7.9</ele><time>2021-12-08T14:12:28Z</time><name>PT4827</name></trkpt>
<trkpt lat="53.099149" lon="04.895034"><ele>-8.1</ele><time>2021-12-08T14:12:30Z</time><name>PT4828</name></trkpt>
<trkpt lat="53.099139" lon="04.895022"><ele>-8</ele><time>2021-12-08T14:12:30Z</time><name>PT4829</name></trkpt>
<trkpt lat="53.099131" lon="04.895011"><ele>-8</ele><time>2021-12-08T14:12:31Z</time><name>PT4830</name></trkpt>
<trkpt lat="53.099123" lon="04.894998"><ele>-8.1</ele><time>2021-12-08T14:12:33Z</time><name>PT4831</name></trkpt>
<trkpt lat="53.099114" lon="04.894984"><ele>-8</ele><time>2021-12-08T14:12:33Z</time><name>PT4832</name></trkpt>
<trkpt lat="53.099106" lon="04.894968"><ele>-8.4</ele><time>2021-12-08T14:12:34Z</time><name>PT4833</name></trkpt>
<trkpt lat="53.099098" lon="04.894955"><ele>-8.8</ele><time>2021-12-08T14:12:36Z</time><name>PT4834</name></trkpt>
<trkpt lat="53.099089" lon="04.894942"><ele>-8.7</ele><time>2021-12-08T14:12:36Z</time><name>PT4835</name></trkpt>
<trkpt lat="53.099079" lon="04.894928"><ele>-9.3</ele><time>2021-12-08T14:12:37Z</time><name>PT4836</name></trkpt>
<trkpt lat="53.099070" lon="04.894916"><ele>-9.2</ele><time>2021-12-08T14:12:39Z</time><name>PT4837</name></trkpt>
<trkpt lat="53.099060" lon="04.894906"><ele>-9.3</ele><time>2021-12-08T14:12:39Z</time><name>PT4838</name></trkpt>
<trkpt lat="53.099051" lon="04.894894"><ele>-9.6</ele><time>2021-12-08T14:12:40Z</time><name>PT4839</name></trkpt>
<trkpt lat="53.099042" lon="04.894880"><ele>-9.6</ele><time>2021-12-08T14:12:42Z</time><name>PT4840</name></trkpt>
<trkpt lat="53.099035" lon="04.894864"><ele>-9.7</ele><time>2021-12-08T14:12:42Z</time><name>PT4841</name></trkpt>
<trkpt lat="53.099027" lon="04.894851"><ele>-9.6</ele><time>2021-12-08T14:12:43Z</time><name>PT4842</name></trkpt>
<trkpt lat="53.099018" lon="04.894840"><ele>-9.4</ele><time>2021-12-08T14:12:45Z</time><name>PT4843</name></trkpt>
<trkpt lat="53.099009" lon="04.894829"><ele>-9.1</ele><time>2021-12-08T14:12:45Z</time><name>PT4844</name></trkpt>
<trkpt lat="53.099000" lon="04.894818"><ele>-8.9</ele><time>2021-12-08T14:12:46Z</time><name>PT4845</name></trkpt>
<trkpt lat="53.098990" lon="04.894806"><ele>-8.4</ele><time>2021-12-08T14:12:48Z</time><name>PT4846</name></trkpt>
<trkpt lat="53.098981" lon="04.894793"><ele>-8.2</ele><time>2021-12-08T14:12:48Z</time><name>PT4847</name></trkpt>
<trkpt lat="53.098971" lon="04.894781"><ele>-8.2</ele><time>2021-12-08T14:12:49Z</time><name>PT4848</name></trkpt>
<trkpt lat="53.098961" lon="04.894766"><ele>-8</ele><time>2021-12-08T14:12:51Z</time><name>PT4849</name></trkpt>
<trkpt lat="53.098952" lon="04.894752"><ele>-7.8</ele><time>2021-12-08T14:12:51Z</time><name>PT4850</name></trkpt>
<trkpt lat="53.098943" lon="04.894738"><ele>-8.1</ele><time>2021-12-08T14:12:52Z</time><name>PT4851</name></trkpt>
<trkpt lat="53.098934" lon="04.894724"><ele>-8.2</ele><time>2021-12-08T14:12:54Z</time><name>PT4852</name></trkpt>
<trkpt lat="53.098926" lon="04.894709"><ele>-8.3</ele><time>2021-12-08T14:12:54Z</time><name>PT4853</name></trkpt>
<trkpt lat="53.098918" lon="04.894693"><ele>-8.3</ele><time>2021-12-08T14:12:55Z</time><name>PT4854</name></trkpt>
<trkpt lat="53.098908" lon="04.894680"><ele>-8.1</ele><time>2021-12-08T14:12:57Z</time><name>PT4855</name></trkpt>
<trkpt lat="53.098898" lon="04.894668"><ele>-8.1</ele><time>2021-12-08T14:12:57Z</time><name>PT4856</name></trkpt>
<trkpt lat="53.098888" lon="04.894658"><ele>-8.2</ele><time>2021-12-08T14:12:58Z</time><name>PT4857</name></trkpt>
<trkpt lat="53.098878" lon="04.894647"><ele>-8.1</ele><time>2021-12-08T14:13:00Z</time><name>PT4858</name></trkpt>
<trkpt lat="53.098870" lon="04.894635"><ele>-8.2</ele><time>2021-12-08T14:13:00Z</time><name>PT4859</name></trkpt>
<trkpt lat="53.098862" lon="04.894621"><ele>-8.3</ele><time>2021-12-08T14:13:01Z</time><name>PT4860</name></trkpt>
<trkpt lat="53.098853" lon="04.894606"><ele>-8.2</ele><time>2021-12-08T14:13:03Z</time><name>PT4861</name></trkpt>
<trkpt lat="53.098845" lon="04.894591"><ele>-8.3</ele><time>2021-12-08T14:13:03Z</time><name>PT4862</name></trkpt>
<trkpt lat="53.098837" lon="04.894578"><ele>-8.2</ele><time>2021-12-08T14:13:04Z</time><name>PT4863</name></trkpt>
<trkpt lat="53.098828" lon="04.894565"><ele>-8.1</ele><time>2021-12-08T14:13:06Z</time><name>PT4864</name></trkpt>
<trkpt lat="53.098820" lon="04.894550"><ele>-8.3</ele><time>2021-12-08T14:13:06Z</time><name>PT4865</name></trkpt>
<trkpt lat="53.098812" lon="04.894534"><ele>-8</ele><time>2021-12-08T14:13:07Z</time><name>PT4866</name></trkpt>
<trkpt lat="53.098802" lon="04.894520"><ele>-7.9</ele><time>2021-12-08T14:13:09Z</time><name>PT4867</name></trkpt>
<trkpt lat="53.098793" lon="04.894508"><ele>-8</ele><time>2021-12-08T14:13:09Z</time><name>PT4868</name></trkpt>
<trkpt lat="53.098784" lon="04.894495"><ele>-8</ele><time>2021-12-08T14:13:10Z</time><name>PT4869</name></trkpt>
<trkpt lat="53.098775" lon="04.894481"><ele>-8.3</ele><time>2021-12-08T14:13:12Z</time><name>PT4870</name></trkpt>
<trkpt lat="53.098767" lon="04.894465"><ele>-8.3</ele><time>2021-12-08T14:13:12Z</time><name>PT4871</name></trkpt>
<trkpt lat="53.098760" lon="04.894449"><ele>-8.3</ele><time>2021-12-08T14:13:13Z</time><name>PT4872</name></trkpt>
<trkpt lat="53.098752" lon="04.894432"><ele>-8.3</ele><time>2021-12-08T14:13:15Z</time><name>PT4873</name></trkpt>
<trkpt lat="53.098744" lon="04.894418"><ele>-8.2</ele><time>2021-12-08T14:13:15Z</time><name>PT4874</name></trkpt>
<trkpt lat="53.098736" lon="04.894405"><ele>-8.1</ele><time>2021-12-08T14:13:17Z</time><name>PT4875</name></trkpt>
<trkpt lat="53.098728" lon="04.894392"><ele>-8</ele><time>2021-12-08T14:13:18Z</time><name>PT4876</name></trkpt>
<trkpt lat="53.098719" lon="04.894379"><ele>-8.1</ele><time>2021-12-08T14:13:18Z</time><name>PT4877</name></trkpt>
<trkpt lat="53.098710" lon="04.894367"><ele>-8.1</ele><time>2021-12-08T14:13:19Z</time><name>PT4878</name></trkpt>
<trkpt lat="53.098703" lon="04.894352"><ele>-8.1</ele><time>2021-12-08T14:13:21Z</time><name>PT4879</name></trkpt>
<trkpt lat="53.098695" lon="04.894334"><ele>-8</ele><time>2021-12-08T14:13:21Z</time><name>PT4880</name></trkpt>
<trkpt lat="53.098688" lon="04.894317"><ele>-7.8</ele><time>2021-12-08T14:13:22Z</time><name>PT4881</name></trkpt>
<trkpt lat="53.098680" lon="04.894300"><ele>-7.8</ele><time>2021-12-08T14:13:24Z</time><name>PT4882</name></trkpt>
<trkpt lat="53.098673" lon="04.894287"><ele>-7.8</ele><time>2021-12-08T14:13:24Z</time><name>PT4883</name></trkpt>
<trkpt lat="53.098665" lon="04.894271"><ele>-7.5</ele><time>2021-12-08T14:13:25Z</time><name>PT4884</name></trkpt>
<trkpt lat="53.098656" lon="04.894256"><ele>-7.7</ele><time>2021-12-08T14:13:27Z</time><name>PT4885</name></trkpt>
<trkpt lat="53.098648" lon="04.894242"><ele>-7.8</ele><time>2021-12-08T14:13:27Z</time><name>PT4886</name></trkpt>
<trkpt lat="53.098640" lon="04.894226"><ele>-7.8</ele><time>2021-12-08T14:13:28Z</time><name>PT4887</name></trkpt>
<trkpt lat="53.098632" lon="04.894211"><ele>-8.2</ele><time>2021-12-08T14:13:30Z</time><name>PT4888</name></trkpt>
<trkpt lat="53.098623" lon="04.894197"><ele>-8.2</ele><time>2021-12-08T14:13:30Z</time><name>PT4889</name></trkpt>
<trkpt lat="53.098616" lon="04.894181"><ele>-8.2</ele><time>2021-12-08T14:13:31Z</time><name>PT4890</name></trkpt>
<trkpt lat="53.098609" lon="04.894166"><ele>-8.2</ele><time>2021-12-08T14:13:33Z</time><name>PT4891</name></trkpt>
<trkpt lat="53.098604" lon="04.894151"><ele>-8.2</ele><time>2021-12-08T14:13:33Z</time><name>PT4892</name></trkpt>
<trkpt lat="53.098599" lon="04.894136"><ele>-8.1</ele><time>2021-12-08T14:13:34Z</time><name>PT4893</name></trkpt>
<trkpt lat="53.098592" lon="04.894121"><ele>-7.8</ele><time>2021-12-08T14:13:36Z</time><name>PT4894</name></trkpt>
<trkpt lat="53.098585" lon="04.894106"><ele>-7.7</ele><time>2021-12-08T14:13:36Z</time><name>PT4895</name></trkpt>
<trkpt lat="53.098576" lon="04.894090"><ele>-7.6</ele><time>2021-12-08T14:13:37Z</time><name>PT4896</name></trkpt>
<trkpt lat="53.098569" lon="04.894073"><ele>-7.6</ele><time>2021-12-08T14:13:39Z</time><name>PT4897</name></trkpt>
<trkpt lat="53.098562" lon="04.894054"><ele>-7.5</ele><time>2021-12-08T14:13:39Z</time><name>PT4898</name></trkpt>
<trkpt lat="53.098555" lon="04.894038"><ele>-7.4</ele><time>2021-12-08T14:13:40Z</time><name>PT4899</name></trkpt>
<trkpt lat="53.098547" lon="04.894020"><ele>-7.3</ele><time>2021-12-08T14:13:42Z</time><name>PT4900</name></trkpt>
<trkpt lat="53.098540" lon="04.894003"><ele>-7.2</ele><time>2021-12-08T14:13:42Z</time><name>PT4901</name></trkpt>
<trkpt lat="53.098533" lon="04.893987"><ele>-7.2</ele><time>2021-12-08T14:13:43Z</time><name>PT4902</name></trkpt>
<trkpt lat="53.098526" lon="04.893972"><ele>-7.4</ele><time>2021-12-08T14:13:45Z</time><name>PT4903</name></trkpt>
<trkpt lat="53.098518" lon="04.893959"><ele>-7.4</ele><time>2021-12-08T14:13:45Z</time><name>PT4904</name></trkpt>
<trkpt lat="53.098510" lon="04.893945"><ele>-7.5</ele><time>2021-12-08T14:13:46Z</time><name>PT4905</name></trkpt>
<trkpt lat="53.098503" lon="04.893935"><ele>-7.5</ele><time>2021-12-08T14:13:48Z</time><name>PT4906</name></trkpt>
<trkpt lat="53.098498" lon="04.893925"><ele>-7.3</ele><time>2021-12-08T14:13:48Z</time><name>PT4907</name></trkpt>
<trkpt lat="53.098492" lon="04.893911"><ele>-7.4</ele><time>2021-12-08T14:13:49Z</time><name>PT4908</name></trkpt>
<trkpt lat="53.098486" lon="04.893895"><ele>-7.4</ele><time>2021-12-08T14:13:51Z</time><name>PT4909</name></trkpt>
<trkpt lat="53.098480" lon="04.893881"><ele>-7.3</ele><time>2021-12-08T14:13:51Z</time><name>PT4910</name></trkpt>
<trkpt lat="53.098473" lon="04.893866"><ele>-7.3</ele><time>2021-12-08T14:13:52Z</time><name>PT4911</name></trkpt>
<trkpt lat="53.098465" lon="04.893852"><ele>-7.4</ele><time>2021-12-08T14:13:54Z</time><name>PT4912</name></trkpt>
<trkpt lat="53.098457" lon="04.893839"><ele>-7.2</ele><time>2021-12-08T14:13:54Z</time><name>PT4913</name></trkpt>
<trkpt lat="53.098450" lon="04.893825"><ele>-7.2</ele><time>2021-12-08T14:13:55Z</time><name>PT4914</name></trkpt>
<trkpt lat="53.098444" lon="04.893810"><ele>-7.4</ele><time>2021-12-08T14:13:57Z</time><name>PT4915</name></trkpt>
<trkpt lat="53.098439" lon="04.893794"><ele>-7.2</ele><time>2021-12-08T14:13:57Z</time><name>PT4916</name></trkpt>
<trkpt lat="53.098434" lon="04.893777"><ele>-7.2</ele><time>2021-12-08T14:13:58Z</time><name>PT4917</name></trkpt>
<trkpt lat="53.098428" lon="04.893759"><ele>-7.3</ele><time>2021-12-08T14:14:00Z</time><name>PT4918</name></trkpt>
<trkpt lat="53.098421" lon="04.893743"><ele>-7.4</ele><time>2021-12-08T14:14:00Z</time><name>PT4919</name></trkpt>
<trkpt lat="53.098415" lon="04.893729"><ele>-7.2</ele><time>2021-12-08T14:14:01Z</time><name>PT4920</name></trkpt>
<trkpt lat="53.098408" lon="04.893714"><ele>-7.2</ele><time>2021-12-08T14:14:03Z</time><name>PT4921</name></trkpt>
<trkpt lat="53.098401" lon="04.893697"><ele>-7.2</ele><time>2021-12-08T14:14:03Z</time><name>PT4922</name></trkpt>
<trkpt lat="53.098394" lon="04.893681"><ele>-7.3</ele><time>2021-12-08T14:14:04Z</time><name>PT4923</name></trkpt>
<trkpt lat="53.098387" lon="04.893665"><ele>-7.5</ele><time>2021-12-08T14:14:06Z</time><name>PT4924</name></trkpt>
<trkpt lat="53.098380" lon="04.893651"><ele>-7.5</ele><time>2021-12-08T14:14:06Z</time><name>PT4925</name></trkpt>
<trkpt lat="53.098373" lon="04.893635"><ele>-7.8</ele><time>2021-12-08T14:14:07Z</time><name>PT4926</name></trkpt>
<trkpt lat="53.098367" lon="04.893616"><ele>-7.8</ele><time>2021-12-08T14:14:09Z</time><name>PT4927</name></trkpt>
<trkpt lat="53.098361" lon="04.893598"><ele>-7.8</ele><time>2021-12-08T14:14:09Z</time><name>PT4928</name></trkpt>
<trkpt lat="53.098356" lon="04.893580"><ele>-7.7</ele><time>2021-12-08T14:14:10Z</time><name>PT4929</name></trkpt>
<trkpt lat="53.098349" lon="04.893564"><ele>-7.7</ele><time>2021-12-08T14:14:12Z</time><name>PT4930</name></trkpt>
<trkpt lat="53.098342" lon="04.893548"><ele>-7.8</ele><time>2021-12-08T14:14:12Z</time><name>PT4931</name></trkpt>
<trkpt lat="53.098336" lon="04.893532"><ele>-7.6</ele><time>2021-12-08T14:14:13Z</time><name>PT4932</name></trkpt>
<trkpt lat="53.098329" lon="04.893516"><ele>-7.7</ele><time>2021-12-08T14:14:15Z</time><name>PT4933</name></trkpt>
<trkpt lat="53.098324" lon="04.893502"><ele>-7.5</ele><time>2021-12-08T14:14:15Z</time><name>PT4934</name></trkpt>
<trkpt lat="53.098319" lon="04.893486"><ele>-7.6</ele><time>2021-12-08T14:14:16Z</time><name>PT4935</name></trkpt>
<trkpt lat="53.098313" lon="04.893468"><ele>-7.3</ele><time>2021-12-08T14:14:18Z</time><name>PT4936</name></trkpt>
<trkpt lat="53.098307" lon="04.893451"><ele>-7.3</ele><time>2021-12-08T14:14:18Z</time><name>PT4937</name></trkpt>
<trkpt lat="53.098301" lon="04.893435"><ele>-7.2</ele><time>2021-12-08T14:14:19Z</time><name>PT4938</name></trkpt>
<trkpt lat="53.098295" lon="04.893419"><ele>-7.1</ele><time>2021-12-08T14:14:21Z</time><name>PT4939</name></trkpt>
<trkpt lat="53.098289" lon="04.893403"><ele>-7</ele><time>2021-12-08T14:14:21Z</time><name>PT4940</name></trkpt>
<trkpt lat="53.098283" lon="04.893388"><ele>-7.1</ele><time>2021-12-08T14:14:22Z</time><name>PT4941</name></trkpt>
<trkpt lat="53.098278" lon="04.893374"><ele>-7.2</ele><time>2021-12-08T14:14:24Z</time><name>PT4942</name></trkpt>
<trkpt lat="53.098273" lon="04.893358"><ele>-7.2</ele><time>2021-12-08T14:14:24Z</time><name>PT4943</name></trkpt>
<trkpt lat="53.098270" lon="04.893345"><ele>-7.1</ele><time>2021-12-08T14:14:25Z</time><name>PT4944</name></trkpt>
<trkpt lat="53.098265" lon="04.893330"><ele>-7.2</ele><time>2021-12-08T14:14:27Z</time><name>PT4945</name></trkpt>
<trkpt lat="53.098261" lon="04.893318"><ele>-7.1</ele><time>2021-12-08T14:14:27Z</time><name>PT4946</name></trkpt>
<trkpt lat="53.098256" lon="04.893308"><ele>-6.9</ele><time>2021-12-08T14:14:28Z</time><name>PT4947</name></trkpt>
<trkpt lat="53.098251" lon="04.893295"><ele>-6.9</ele><time>2021-12-08T14:14:30Z</time><name>PT4948</name></trkpt>
<trkpt lat="53.098247" lon="04.893282"><ele>-6.9</ele><time>2021-12-08T14:14:30Z</time><name>PT4949</name></trkpt>
<trkpt lat="53.098242" lon="04.893264"><ele>-7.1</ele><time>2021-12-08T14:14:31Z</time><name>PT4950</name></trkpt>
<trkpt lat="53.098237" lon="04.893246"><ele>-7.2</ele><time>2021-12-08T14:14:33Z</time><name>PT4951</name></trkpt>
<trkpt lat="53.098231" lon="04.893231"><ele>-7.2</ele><time>2021-12-08T14:14:33Z</time><name>PT4952</name></trkpt>
<trkpt lat="53.098224" lon="04.893216"><ele>-7.2</ele><time>2021-12-08T14:14:34Z</time><name>PT4953</name></trkpt>
<trkpt lat="53.098217" lon="04.893202"><ele>-7.2</ele><time>2021-12-08T14:14:36Z</time><name>PT4954</name></trkpt>
<trkpt lat="53.098210" lon="04.893186"><ele>-7.2</ele><time>2021-12-08T14:14:36Z</time><name>PT4955</name></trkpt>
<trkpt lat="53.098203" lon="04.893169"><ele>-7.2</ele><time>2021-12-08T14:14:37Z</time><name>PT4956</name></trkpt>
<trkpt lat="53.098197" lon="04.893152"><ele>-7.2</ele><time>2021-12-08T14:14:39Z</time><name>PT4957</name></trkpt>
<trkpt lat="53.098192" lon="04.893135"><ele>-7.1</ele><time>2021-12-08T14:14:39Z</time><name>PT4958</name></trkpt>
<trkpt lat="53.098188" lon="04.893116"><ele>-7.1</ele><time>2021-12-08T14:14:40Z</time><name>PT4959</name></trkpt>
<trkpt lat="53.098184" lon="04.893099"><ele>-6.9</ele><time>2021-12-08T14:14:42Z</time><name>PT4960</name></trkpt>
<trkpt lat="53.098180" lon="04.893082"><ele>-6.9</ele><time>2021-12-08T14:14:42Z</time><name>PT4961</name></trkpt>
<trkpt lat="53.098176" lon="04.893067"><ele>-6.7</ele><time>2021-12-08T14:14:43Z</time><name>PT4962</name></trkpt>
<trkpt lat="53.098170" lon="04.893052"><ele>-6.7</ele><time>2021-12-08T14:14:45Z</time><name>PT4963</name></trkpt>
<trkpt lat="53.098166" lon="04.893038"><ele>-6.8</ele><time>2021-12-08T14:14:45Z</time><name>PT4964</name></trkpt>
<trkpt lat="53.098162" lon="04.893026"><ele>-6.8</ele><time>2021-12-08T14:14:46Z</time><name>PT4965</name></trkpt>
<trkpt lat="53.098156" lon="04.893019"><ele>-6.7</ele><time>2021-12-08T14:14:48Z</time><name>PT4966</name></trkpt>
<trkpt lat="53.098152" lon="04.893008"><ele>-6.7</ele><time>2021-12-08T14:14:48Z</time><name>PT4967</name></trkpt>
<trkpt lat="53.098149" lon="04.893000"><ele>-6.7</ele><time>2021-12-08T14:14:49Z</time><name>PT4968</name></trkpt>
<trkpt lat="53.098148" lon="04.892996"><ele>-6.4</ele><time>2021-12-08T14:14:51Z</time><name>PT4969</name></trkpt>
<trkpt lat="53.098145" lon="04.892990"><ele>-6.7</ele><time>2021-12-08T14:14:55Z</time><name>PT4970</name></trkpt>
<trkpt lat="53.098145" lon="04.892989"><ele>-6.6</ele><time>2021-12-08T14:14:57Z</time><name>PT4971</name></trkpt>
<trkpt lat="53.098146" lon="04.892989"><ele>-6.5</ele><time>2021-12-08T14:14:57Z</time><name>PT4972</name></trkpt>
<trkpt lat="53.098146" lon="04.892984"><ele>-6.3</ele><time>2021-12-08T14:14:58Z</time><name>PT4973</name></trkpt>
<trkpt lat="53.098144" lon="04.892982"><ele>-6.5</ele><time>2021-12-08T14:15:00Z</time><name>PT4974</name></trkpt>
<trkpt lat="53.098144" lon="04.892982"><ele>-6.6</ele><time>2021-12-08T14:15:00Z</time><name>PT4975</name></trkpt>
<trkpt lat="53.098145" lon="04.892982"><ele>-6.7</ele><time>2021-12-08T14:15:01Z</time><name>PT4976</name></trkpt>
<trkpt lat="53.098144" lon="04.892977"><ele>-7.1</ele><time>2021-12-08T14:15:12Z</time><name>PT4977</name></trkpt>
<trkpt lat="53.098146" lon="04.892972"><ele>-7</ele><time>2021-12-08T14:15:13Z</time><name>PT4978</name></trkpt>
<trkpt lat="53.098142" lon="04.892974"><ele>-6.9</ele><time>2021-12-08T14:15:15Z</time><name>PT4979</name></trkpt>
<trkpt lat="53.098142" lon="04.892975"><ele>-6.9</ele><time>2021-12-08T14:15:15Z</time><name>PT4980</name></trkpt>
<trkpt lat="53.098140" lon="04.892977"><ele>-6.7</ele><time>2021-12-08T14:15:16Z</time><name>PT4981</name></trkpt>
<trkpt lat="53.098139" lon="04.892977"><ele>-6.7</ele><time>2021-12-08T14:15:18Z</time><name>PT4982</name></trkpt>
<trkpt lat="53.098139" lon="04.892971"><ele>-6.7</ele><time>2021-12-08T14:15:18Z</time><name>PT4983</name></trkpt>
<trkpt lat="53.098140" lon="04.892966"><ele>-6.7</ele><time>2021-12-08T14:15:19Z</time><name>PT4984</name></trkpt>
<trkpt lat="53.098141" lon="04.892958"><ele>-6.8</ele><time>2021-12-08T14:15:40Z</time><name>PT4985</name></trkpt>
<trkpt lat="53.098138" lon="04.892949"><ele>-7</ele><time>2021-12-08T14:15:42Z</time><name>PT4986</name></trkpt>
<trkpt lat="53.098134" lon="04.892948"><ele>-7.1</ele><time>2021-12-08T14:15:42Z</time><name>PT4987</name></trkpt>
<trkpt lat="53.098133" lon="04.892941"><ele>-6.9</ele><time>2021-12-08T14:15:43Z</time><name>PT4988</name></trkpt>
<trkpt lat="53.098132" lon="04.892952"><ele>-6.8</ele><time>2021-12-08T14:15:45Z</time><name>PT4989</name></trkpt>
<trkpt lat="53.098129" lon="04.892952"><ele>-6.7</ele><time>2021-12-08T14:15:45Z</time><name>PT4990</name></trkpt>
<trkpt lat="53.098128" lon="04.892952"><ele>-6.7</ele><time>2021-12-08T14:15:46Z</time><name>PT4991</name></trkpt>
<trkpt lat="53.098128" lon="04.892954"><ele>-6.6</ele><time>2021-12-08T14:15:48Z</time><name>PT4992</name></trkpt>
<trkpt lat="53.098134" lon="04.892946"><ele>-6.6</ele><time>2021-12-08T14:15:49Z</time><name>PT4993</name></trkpt>
<trkpt lat="53.098134" lon="04.892930"><ele>-6.7</ele><time>2021-12-08T14:15:51Z</time><name>PT4994</name></trkpt>
<trkpt lat="53.098129" lon="04.892915"><ele>-7</ele><time>2021-12-08T14:15:51Z</time><name>PT4995</name></trkpt>
<trkpt lat="53.098126" lon="04.892899"><ele>-7.2</ele><time>2021-12-08T14:15:52Z</time><name>PT4996</name></trkpt>
<trkpt lat="53.098121" lon="04.892884"><ele>-7.2</ele><time>2021-12-08T14:15:54Z</time><name>PT4997</name></trkpt>
<trkpt lat="53.098116" lon="04.892871"><ele>-7.2</ele><time>2021-12-08T14:15:54Z</time><name>PT4998</name></trkpt>
<trkpt lat="53.098111" lon="04.892859"><ele>-7.3</ele><time>2021-12-08T14:15:55Z</time><name>PT4999</name></trkpt>
<trkpt lat="53.098106" lon="04.892850"><ele>-7.3</ele><time>2021-12-08T14:15:57Z</time><name>PT5000</name></trkpt>
<trkpt lat="53.098101" lon="04.892838"><ele>-7.4</ele><time>2021-12-08T14:15:57Z</time><name>PT5001</name></trkpt>
<trkpt lat="53.098096" lon="04.892822"><ele>-7.6</ele><time>2021-12-08T14:15:58Z</time><name>PT5002</name></trkpt>
<trkpt lat="53.098092" lon="04.892806"><ele>-7.7</ele><time>2021-12-08T14:16:00Z</time><name>PT5003</name></trkpt>
<trkpt lat="53.098088" lon="04.892792"><ele>-7.7</ele><time>2021-12-08T14:16:00Z</time><name>PT5004</name></trkpt>
<trkpt lat="53.098082" lon="04.892781"><ele>-7.8</ele><time>2021-12-08T14:16:01Z</time><name>PT5005</name></trkpt>
<trkpt lat="53.098076" lon="04.892767"><ele>-7.7</ele><time>2021-12-08T14:16:03Z</time><name>PT5006</name></trkpt>
<trkpt lat="53.098070" lon="04.892753"><ele>-7.5</ele><time>2021-12-08T14:16:03Z</time><name>PT5007</name></trkpt>
<trkpt lat="53.098066" lon="04.892739"><ele>-7.5</ele><time>2021-12-08T14:16:04Z</time><name>PT5008</name></trkpt>
<trkpt lat="53.098061" lon="04.892721"><ele>-7.2</ele><time>2021-12-08T14:16:06Z</time><name>PT5009</name></trkpt>
<trkpt lat="53.098056" lon="04.892704"><ele>-7.1</ele><time>2021-12-08T14:16:06Z</time><name>PT5010</name></trkpt>
<trkpt lat="53.098050" lon="04.892687"><ele>-7</ele><time>2021-12-08T14:16:07Z</time><name>PT5011</name></trkpt>
<trkpt lat="53.098045" lon="04.892671"><ele>-7.1</ele><time>2021-12-08T14:16:09Z</time><name>PT5012</name></trkpt>
<trkpt lat="53.098040" lon="04.892657"><ele>-7.1</ele><time>2021-12-08T14:16:09Z</time><name>PT5013</name></trkpt>
<trkpt lat="53.098035" lon="04.892640"><ele>-7.2</ele><time>2021-12-08T14:16:10Z</time><name>PT5014</name></trkpt>
<trkpt lat="53.098029" lon="04.892627"><ele>-7.4</ele><time>2021-12-08T14:16:12Z</time><name>PT5015</name></trkpt>
<trkpt lat="53.098023" lon="04.892613"><ele>-7.4</ele><time>2021-12-08T14:16:12Z</time><name>PT5016</name></trkpt>
<trkpt lat="53.098018" lon="04.892600"><ele>-7.4</ele><time>2021-12-08T14:16:13Z</time><name>PT5017</name></trkpt>
<trkpt lat="53.098014" lon="04.892586"><ele>-7.2</ele><time>2021-12-08T14:16:15Z</time><name>PT5018</name></trkpt>
<trkpt lat="53.098010" lon="04.892572"><ele>-7.4</ele><time>2021-12-08T14:16:15Z</time><name>PT5019</name></trkpt>
<trkpt lat="53.098005" lon="04.892562"><ele>-7.2</ele><time>2021-12-08T14:16:16Z</time><name>PT5020</name></trkpt>
<trkpt lat="53.098004" lon="04.892554"><ele>-7.2</ele><time>2021-12-08T14:16:18Z</time><name>PT5021</name></trkpt>
<trkpt lat="53.098002" lon="04.892543"><ele>-7.5</ele><time>2021-12-08T14:16:18Z</time><name>PT5022</name></trkpt>
<trkpt lat="53.097998" lon="04.892534"><ele>-7.6</ele><time>2021-12-08T14:16:19Z</time><name>PT5023</name></trkpt>
<trkpt lat="53.097995" lon="04.892523"><ele>-7.4</ele><time>2021-12-08T14:16:21Z</time><name>PT5024</name></trkpt>
<trkpt lat="53.097990" lon="04.892511"><ele>-7.4</ele><time>2021-12-08T14:16:21Z</time><name>PT5025</name></trkpt>
<trkpt lat="53.097985" lon="04.892499"><ele>-7.4</ele><time>2021-12-08T14:16:22Z</time><name>PT5026</name></trkpt>
<trkpt lat="53.097981" lon="04.892488"><ele>-7.2</ele><time>2021-12-08T14:16:24Z</time><name>PT5027</name></trkpt>
<trkpt lat="53.097977" lon="04.892476"><ele>-7.3</ele><time>2021-12-08T14:16:24Z</time><name>PT5028</name></trkpt>
<trkpt lat="53.097972" lon="04.892465"><ele>-7.7</ele><time>2021-12-08T14:16:25Z</time><name>PT5029</name></trkpt>
<trkpt lat="53.097968" lon="04.892454"><ele>-7.7</ele><time>2021-12-08T14:16:27Z</time><name>PT5030</name></trkpt>
<trkpt lat="53.097964" lon="04.892445"><ele>-7.8</ele><time>2021-12-08T14:16:27Z</time><name>PT5031</name></trkpt>
<trkpt lat="53.097959" lon="04.892435"><ele>-7.9</ele><time>2021-12-08T14:16:28Z</time><name>PT5032</name></trkpt>
<trkpt lat="53.097955" lon="04.892431"><ele>-7.8</ele><time>2021-12-08T14:16:30Z</time><name>PT5033</name></trkpt>
<trkpt lat="53.097955" lon="04.892430"><ele>-7.8</ele><time>2021-12-08T14:16:30Z</time><name>PT5034</name></trkpt>
<trkpt lat="53.097956" lon="04.892431"><ele>-7.7</ele><time>2021-12-08T14:16:31Z</time><name>PT5035</name></trkpt>
<trkpt lat="53.097955" lon="04.892426"><ele>-7.4</ele><time>2021-12-08T14:16:33Z</time><name>PT5036</name></trkpt>
<trkpt lat="53.097955" lon="04.892423"><ele>-7.2</ele><time>2021-12-08T14:16:33Z</time><name>PT5037</name></trkpt>
<trkpt lat="53.097954" lon="04.892425"><ele>-7.1</ele><time>2021-12-08T14:16:34Z</time><name>PT5038</name></trkpt>
<trkpt lat="53.097953" lon="04.892427"><ele>-7</ele><time>2021-12-08T14:16:36Z</time><name>PT5039</name></trkpt>
<trkpt lat="53.097950" lon="04.892422"><ele>-7.2</ele><time>2021-12-08T14:16:37Z</time><name>PT5040</name></trkpt>
<trkpt lat="53.097949" lon="04.892419"><ele>-7.5</ele><time>2021-12-08T14:16:39Z</time><name>PT5041</name></trkpt>
<trkpt lat="53.097949" lon="04.892420"><ele>-7.3</ele><time>2021-12-08T14:16:39Z</time><name>PT5042</name></trkpt>
<trkpt lat="53.097950" lon="04.892420"><ele>-7.2</ele><time>2021-12-08T14:16:40Z</time><name>PT5043</name></trkpt>
<trkpt lat="53.097944" lon="04.892410"><ele>-7.8</ele><time>2021-12-08T14:16:45Z</time><name>PT5044</name></trkpt>
<trkpt lat="53.097936" lon="04.892409"><ele>-8.1</ele><time>2021-12-08T14:16:46Z</time><name>PT5045</name></trkpt>
<trkpt lat="53.097930" lon="04.892412"><ele>-8.3</ele><time>2021-12-08T14:16:48Z</time><name>PT5046</name></trkpt>
<trkpt lat="53.097924" lon="04.892421"><ele>-8.1</ele><time>2021-12-08T14:16:48Z</time><name>PT5047</name></trkpt>
<trkpt lat="53.097920" lon="04.892427"><ele>-7.9</ele><time>2021-12-08T14:16:49Z</time><name>PT5048</name></trkpt>
<trkpt lat="53.097912" lon="04.892435"><ele>-7.6</ele><time>2021-12-08T14:16:51Z</time><name>PT5049</name></trkpt>
<trkpt lat="53.097905" lon="04.892445"><ele>-7.6</ele><time>2021-12-08T14:16:51Z</time><name>PT5050</name></trkpt>
<trkpt lat="53.097901" lon="04.892455"><ele>-7.5</ele><time>2021-12-08T14:16:52Z</time><name>PT5051</name></trkpt>
<trkpt lat="53.097898" lon="04.892463"><ele>-7.7</ele><time>2021-12-08T14:16:54Z</time><name>PT5052</name></trkpt>
<trkpt lat="53.097897" lon="04.892465"><ele>-7.6</ele><time>2021-12-08T14:16:54Z</time><name>PT5053</name></trkpt>
<trkpt lat="53.097895" lon="04.892464"><ele>-7.8</ele><time>2021-12-08T14:16:55Z</time><name>PT5054</name></trkpt>
<trkpt lat="53.097888" lon="04.892461"><ele>-7.9</ele><time>2021-12-08T14:16:57Z</time><name>PT5055</name></trkpt>
<trkpt lat="53.097881" lon="04.892466"><ele>-7.8</ele><time>2021-12-08T14:16:57Z</time><name>PT5056</name></trkpt>
<trkpt lat="53.097872" lon="04.892473"><ele>-7.9</ele><time>2021-12-08T14:16:58Z</time><name>PT5057</name></trkpt>
<trkpt lat="53.097863" lon="04.892479"><ele>-7.9</ele><time>2021-12-08T14:17:00Z</time><name>PT5058</name></trkpt>
<trkpt lat="53.097857" lon="04.892484"><ele>-7.9</ele><time>2021-12-08T14:17:00Z</time><name>PT5059</name></trkpt>
<trkpt lat="53.097851" lon="04.892491"><ele>-7.9</ele><time>2021-12-08T14:17:01Z</time><name>PT5060</name></trkpt>
<trkpt lat="53.097842" lon="04.892496"><ele>-7.8</ele><time>2021-12-08T14:17:03Z</time><name>PT5061</name></trkpt>
<trkpt lat="53.097834" lon="04.892498"><ele>-7.8</ele><time>2021-12-08T14:17:03Z</time><name>PT5062</name></trkpt>
<trkpt lat="53.097829" lon="04.892501"><ele>-7.9</ele><time>2021-12-08T14:17:04Z</time><name>PT5063</name></trkpt>
<trkpt lat="53.097823" lon="04.892506"><ele>-7.8</ele><time>2021-12-08T14:17:06Z</time><name>PT5064</name></trkpt>
<trkpt lat="53.097816" lon="04.892511"><ele>-7.8</ele><time>2021-12-08T14:17:06Z</time><name>PT5065</name></trkpt>
<trkpt lat="53.097809" lon="04.892519"><ele>-7.5</ele><time>2021-12-08T14:17:07Z</time><name>PT5066</name></trkpt>
<trkpt lat="53.097801" lon="04.892524"><ele>-7.5</ele><time>2021-12-08T14:17:09Z</time><name>PT5067</name></trkpt>
<trkpt lat="53.097791" lon="04.892528"><ele>-7.3</ele><time>2021-12-08T14:17:09Z</time><name>PT5068</name></trkpt>
<trkpt lat="53.097784" lon="04.892533"><ele>-7.2</ele><time>2021-12-08T14:17:10Z</time><name>PT5069</name></trkpt>
<trkpt lat="53.097778" lon="04.892540"><ele>-7.1</ele><time>2021-12-08T14:17:12Z</time><name>PT5070</name></trkpt>
<trkpt lat="53.097770" lon="04.892547"><ele>-7.1</ele><time>2021-12-08T14:17:12Z</time><name>PT5071</name></trkpt>
<trkpt lat="53.097761" lon="04.892554"><ele>-6.9</ele><time>2021-12-08T14:17:13Z</time><name>PT5072</name></trkpt>
<trkpt lat="53.097750" lon="04.892567"><ele>-7.1</ele><time>2021-12-08T14:17:15Z</time><name>PT5073</name></trkpt>
<trkpt lat="53.097734" lon="04.892578"><ele>-7.2</ele><time>2021-12-08T14:17:15Z</time><name>PT5074</name></trkpt>
<trkpt lat="53.097722" lon="04.892579"><ele>-7.7</ele><time>2021-12-08T14:17:16Z</time><name>PT5075</name></trkpt>
<trkpt lat="53.097712" lon="04.892581"><ele>-8.3</ele><time>2021-12-08T14:17:18Z</time><name>PT5076</name></trkpt>
<trkpt lat="53.097707" lon="04.892585"><ele>-8.4</ele><time>2021-12-08T14:17:18Z</time><name>PT5077</name></trkpt>
<trkpt lat="53.097710" lon="04.892581"><ele>-8.5</ele><time>2021-12-08T14:17:19Z</time><name>PT5078</name></trkpt>
<trkpt lat="53.097711" lon="04.892580"><ele>-8.3</ele><time>2021-12-08T14:17:21Z</time><name>PT5079</name></trkpt>
<trkpt lat="53.097709" lon="04.892579"><ele>-8.2</ele><time>2021-12-08T14:17:24Z</time><name>PT5080</name></trkpt>
<trkpt lat="53.097700" lon="04.892584"><ele>-8.3</ele><time>2021-12-08T14:17:25Z</time><name>PT5081</name></trkpt>
<trkpt lat="53.097689" lon="04.892589"><ele>-8.4</ele><time>2021-12-08T14:17:27Z</time><name>PT5082</name></trkpt>
<trkpt lat="53.097678" lon="04.892596"><ele>-8.3</ele><time>2021-12-08T14:17:27Z</time><name>PT5083</name></trkpt>
<trkpt lat="53.097669" lon="04.892603"><ele>-8.3</ele><time>2021-12-08T14:17:28Z</time><name>PT5084</name></trkpt>
<trkpt lat="53.097660" lon="04.892610"><ele>-8.2</ele><time>2021-12-08T14:17:30Z</time><name>PT5085</name></trkpt>
<trkpt lat="53.097651" lon="04.892616"><ele>-8.2</ele><time>2021-12-08T14:17:30Z</time><name>PT5086</name></trkpt>
<trkpt lat="53.097640" lon="04.892622"><ele>-7.9</ele><time>2021-12-08T14:17:31Z</time><name>PT5087</name></trkpt>
<trkpt lat="53.097630" lon="04.892629"><ele>-7.8</ele><time>2021-12-08T14:17:33Z</time><name>PT5088</name></trkpt>
<trkpt lat="53.097619" lon="04.892635"><ele>-7.7</ele><time>2021-12-08T14:17:33Z</time><name>PT5089</name></trkpt>
<trkpt lat="53.097609" lon="04.892642"><ele>-7.5</ele><time>2021-12-08T14:17:34Z</time><name>PT5090</name></trkpt>
<trkpt lat="53.097601" lon="04.892650"><ele>-7.5</ele><time>2021-12-08T14:17:36Z</time><name>PT5091</name></trkpt>
<trkpt lat="53.097592" lon="04.892657"><ele>-7.4</ele><time>2021-12-08T14:17:36Z</time><name>PT5092</name></trkpt>
<trkpt lat="53.097583" lon="04.892661"><ele>-7.4</ele><time>2021-12-08T14:17:37Z</time><name>PT5093</name></trkpt>
<trkpt lat="53.097574" lon="04.892663"><ele>-7.6</ele><time>2021-12-08T14:17:39Z</time><name>PT5094</name></trkpt>
<trkpt lat="53.097559" lon="04.892661"><ele>-7.8</ele><time>2021-12-08T14:17:39Z</time><name>PT5095</name></trkpt>
<trkpt lat="53.097544" lon="04.892665"><ele>-7.8</ele><time>2021-12-08T14:17:40Z</time><name>PT5096</name></trkpt>
<trkpt lat="53.097529" lon="04.892668"><ele>-8</ele><time>2021-12-08T14:17:42Z</time><name>PT5097</name></trkpt>
<trkpt lat="53.097517" lon="04.892664"><ele>-8.3</ele><time>2021-12-08T14:17:42Z</time><name>PT5098</name></trkpt>
<trkpt lat="53.097504" lon="04.892665"><ele>-8.3</ele><time>2021-12-08T14:17:43Z</time><name>PT5099</name></trkpt>
<trkpt lat="53.097491" lon="04.892664"><ele>-8.5</ele><time>2021-12-08T14:17:45Z</time><name>PT5100</name></trkpt>
<trkpt lat="53.097481" lon="04.892659"><ele>-8.6</ele><time>2021-12-08T14:17:45Z</time><name>PT5101</name></trkpt>
<trkpt lat="53.097471" lon="04.892656"><ele>-8.3</ele><time>2021-12-08T14:17:46Z</time><name>PT5102</name></trkpt>
<trkpt lat="53.097461" lon="04.892653"><ele>-8.2</ele><time>2021-12-08T14:17:48Z</time><name>PT5103</name></trkpt>
<trkpt lat="53.097452" lon="04.892649"><ele>-7.9</ele><time>2021-12-08T14:17:48Z</time><name>PT5104</name></trkpt>
<trkpt lat="53.097442" lon="04.892645"><ele>-7.8</ele><time>2021-12-08T14:17:49Z</time><name>PT5105</name></trkpt>
<trkpt lat="53.097434" lon="04.892641"><ele>-8.2</ele><time>2021-12-08T14:17:51Z</time><name>PT5106</name></trkpt>
<trkpt lat="53.097426" lon="04.892635"><ele>-8.1</ele><time>2021-12-08T14:17:51Z</time><name>PT5107</name></trkpt>
<trkpt lat="53.097419" lon="04.892627"><ele>-7.9</ele><time>2021-12-08T14:17:52Z</time><name>PT5108</name></trkpt>
<trkpt lat="53.097411" lon="04.892620"><ele>-7.8</ele><time>2021-12-08T14:17:54Z</time><name>PT5109</name></trkpt>
<trkpt lat="53.097404" lon="04.892610"><ele>-7.7</ele><time>2021-12-08T14:17:54Z</time><name>PT5110</name></trkpt>
<trkpt lat="53.097396" lon="04.892597"><ele>-7.2</ele><time>2021-12-08T14:17:55Z</time><name>PT5111</name></trkpt>
<trkpt lat="53.097388" lon="04.892589"><ele>-7.4</ele><time>2021-12-08T14:17:57Z</time><name>PT5112</name></trkpt>
<trkpt lat="53.097381" lon="04.892583"><ele>-7.2</ele><time>2021-12-08T14:17:57Z</time><name>PT5113</name></trkpt>
<trkpt lat="53.097375" lon="04.892579"><ele>-7.3</ele><time>2021-12-08T14:17:58Z</time><name>PT5114</name></trkpt>
<trkpt lat="53.097368" lon="04.892577"><ele>-7.4</ele><time>2021-12-08T14:18:00Z</time><name>PT5115</name></trkpt>
<trkpt lat="53.097362" lon="04.892571"><ele>-7.6</ele><time>2021-12-08T14:18:00Z</time><name>PT5116</name></trkpt>
<trkpt lat="53.097355" lon="04.892564"><ele>-7.6</ele><time>2021-12-08T14:18:01Z</time><name>PT5117</name></trkpt>
<trkpt lat="53.097348" lon="04.892553"><ele>-7.7</ele><time>2021-12-08T14:18:03Z</time><name>PT5118</name></trkpt>
<trkpt lat="53.097339" lon="04.892543"><ele>-7.7</ele><time>2021-12-08T14:18:03Z</time><name>PT5119</name></trkpt>
<trkpt lat="53.097330" lon="04.892534"><ele>-7.5</ele><time>2021-12-08T14:18:04Z</time><name>PT5120</name></trkpt>
<trkpt lat="53.097320" lon="04.892523"><ele>-7.3</ele><time>2021-12-08T14:18:06Z</time><name>PT5121</name></trkpt>
<trkpt lat="53.097311" lon="04.892514"><ele>-7.4</ele><time>2021-12-08T14:18:06Z</time><name>PT5122</name></trkpt>
<trkpt lat="53.097302" lon="04.892508"><ele>-7.8</ele><time>2021-12-08T14:18:07Z</time><name>PT5123</name></trkpt>
<trkpt lat="53.097291" lon="04.892501"><ele>-7.9</ele><time>2021-12-08T14:18:09Z</time><name>PT5124</name></trkpt>
<trkpt lat="53.097283" lon="04.892493"><ele>-8.1</ele><time>2021-12-08T14:18:09Z</time><name>PT5125</name></trkpt>
<trkpt lat="53.097276" lon="04.892485"><ele>-8.3</ele><time>2021-12-08T14:18:10Z</time><name>PT5126</name></trkpt>
<trkpt lat="53.097269" lon="04.892475"><ele>-8.1</ele><time>2021-12-08T14:18:12Z</time><name>PT5127</name></trkpt>
<trkpt lat="53.097262" lon="04.892466"><ele>-8.1</ele><time>2021-12-08T14:18:12Z</time><name>PT5128</name></trkpt>
<trkpt lat="53.097253" lon="04.892460"><ele>-8</ele><time>2021-12-08T14:18:13Z</time><name>PT5129</name></trkpt>
<trkpt lat="53.097245" lon="04.892451"><ele>-8</ele><time>2021-12-08T14:18:15Z</time><name>PT5130</name></trkpt>
<trkpt lat="53.097236" lon="04.892446"><ele>-8.1</ele><time>2021-12-08T14:18:15Z</time><name>PT5131</name></trkpt>
<trkpt lat="53.097228" lon="04.892441"><ele>-8.1</ele><time>2021-12-08T14:18:16Z</time><name>PT5132</name></trkpt>
<trkpt lat="53.097220" lon="04.892438"><ele>-8.3</ele><time>2021-12-08T14:18:18Z</time><name>PT5133</name></trkpt>
<trkpt lat="53.097214" lon="04.892436"><ele>-8.3</ele><time>2021-12-08T14:18:18Z</time><name>PT5134</name></trkpt>
<trkpt lat="53.097207" lon="04.892431"><ele>-8.2</ele><time>2021-12-08T14:18:19Z</time><name>PT5135</name></trkpt>
<trkpt lat="53.097203" lon="04.892425"><ele>-7.9</ele><time>2021-12-08T14:18:21Z</time><name>PT5136</name></trkpt>
<trkpt lat="53.097201" lon="04.892424"><ele>-7.8</ele><time>2021-12-08T14:18:21Z</time><name>PT5137</name></trkpt>
<trkpt lat="53.097197" lon="04.892421"><ele>-7.5</ele><time>2021-12-08T14:18:22Z</time><name>PT5138</name></trkpt>
<trkpt lat="53.097194" lon="04.892416"><ele>-7.6</ele><time>2021-12-08T14:18:24Z</time><name>PT5139</name></trkpt>
<trkpt lat="53.097190" lon="04.892411"><ele>-7.4</ele><time>2021-12-08T14:18:24Z</time><name>PT5140</name></trkpt>
<trkpt lat="53.097181" lon="04.892410"><ele>-7.6</ele><time>2021-12-08T14:18:25Z</time><name>PT5141</name></trkpt>
<trkpt lat="53.097173" lon="04.892410"><ele>-7.8</ele><time>2021-12-08T14:18:27Z</time><name>PT5142</name></trkpt>
<trkpt lat="53.097165" lon="04.892415"><ele>-8.1</ele><time>2021-12-08T14:18:27Z</time><name>PT5143</name></trkpt>
<trkpt lat="53.097159" lon="04.892420"><ele>-7.9</ele><time>2021-12-08T14:18:28Z</time><name>PT5144</name></trkpt>
<trkpt lat="53.097151" lon="04.892424"><ele>-7.8</ele><time>2021-12-08T14:18:30Z</time><name>PT5145</name></trkpt>
<trkpt lat="53.097144" lon="04.892432"><ele>-7.8</ele><time>2021-12-08T14:18:30Z</time><name>PT5146</name></trkpt>
<trkpt lat="53.097136" lon="04.892437"><ele>-7.6</ele><time>2021-12-08T14:18:31Z</time><name>PT5147</name></trkpt>
<trkpt lat="53.097130" lon="04.892443"><ele>-7.3</ele><time>2021-12-08T14:18:33Z</time><name>PT5148</name></trkpt>
<trkpt lat="53.097125" lon="04.892449"><ele>-7.6</ele><time>2021-12-08T14:18:33Z</time><name>PT5149</name></trkpt>
<trkpt lat="53.097119" lon="04.892454"><ele>-7.9</ele><time>2021-12-08T14:18:34Z</time><name>PT5150</name></trkpt>
<trkpt lat="53.097112" lon="04.892458"><ele>-7.8</ele><time>2021-12-08T14:18:36Z</time><name>PT5151</name></trkpt>
<trkpt lat="53.097106" lon="04.892463"><ele>-8.1</ele><time>2021-12-08T14:18:36Z</time><name>PT5152</name></trkpt>
<trkpt lat="53.097100" lon="04.892468"><ele>-8.2</ele><time>2021-12-08T14:18:38Z</time><name>PT5153</name></trkpt>
<trkpt lat="53.097092" lon="04.892471"><ele>-8.3</ele><time>2021-12-08T14:18:39Z</time><name>PT5154</name></trkpt>
<trkpt lat="53.097083" lon="04.892474"><ele>-8.3</ele><time>2021-12-08T14:18:39Z</time><name>PT5155</name></trkpt>
<trkpt lat="53.097075" lon="04.892479"><ele>-8.3</ele><time>2021-12-08T14:18:40Z</time><name>PT5156</name></trkpt>
<trkpt lat="53.097069" lon="04.892485"><ele>-8.3</ele><time>2021-12-08T14:18:42Z</time><name>PT5157</name></trkpt>
<trkpt lat="53.097063" lon="04.892490"><ele>-8.1</ele><time>2021-12-08T14:18:42Z</time><name>PT5158</name></trkpt>
<trkpt lat="53.097058" lon="04.892493"><ele>-7.8</ele><time>2021-12-08T14:18:43Z</time><name>PT5159</name></trkpt>
<trkpt lat="53.097057" lon="04.892492"><ele>-7.8</ele><time>2021-12-08T14:18:45Z</time><name>PT5160</name></trkpt>
<trkpt lat="53.097057" lon="04.892493"><ele>-7.6</ele><time>2021-12-08T14:18:45Z</time><name>PT5161</name></trkpt>
<trkpt lat="53.097055" lon="04.892494"><ele>-7.6</ele><time>2021-12-08T14:18:46Z</time><name>PT5162</name></trkpt>
<trkpt lat="53.097050" lon="04.892499"><ele>-7.6</ele><time>2021-12-08T14:18:48Z</time><name>PT5163</name></trkpt>
<trkpt lat="53.097043" lon="04.892505"><ele>-7.5</ele><time>2021-12-08T14:18:48Z</time><name>PT5164</name></trkpt>
<trkpt lat="53.097034" lon="04.892510"><ele>-7.6</ele><time>2021-12-08T14:18:49Z</time><name>PT5165</name></trkpt>
<trkpt lat="53.097024" lon="04.892516"><ele>-7.5</ele><time>2021-12-08T14:18:51Z</time><name>PT5166</name></trkpt>
<trkpt lat="53.097016" lon="04.892523"><ele>-7.6</ele><time>2021-12-08T14:18:51Z</time><name>PT5167</name></trkpt>
<trkpt lat="53.097008" lon="04.892528"><ele>-7.5</ele><time>2021-12-08T14:18:52Z</time><name>PT5168</name></trkpt>
<trkpt lat="53.097000" lon="04.892535"><ele>-7.6</ele><time>2021-12-08T14:18:54Z</time><name>PT5169</name></trkpt>
<trkpt lat="53.096991" lon="04.892540"><ele>-7.4</ele><time>2021-12-08T14:18:54Z</time><name>PT5170</name></trkpt>
<trkpt lat="53.096982" lon="04.892546"><ele>-7.5</ele><time>2021-12-08T14:18:55Z</time><name>PT5171</name></trkpt>
<trkpt lat="53.096973" lon="04.892554"><ele>-7.6</ele><time>2021-12-08T14:18:57Z</time><name>PT5172</name></trkpt>
<trkpt lat="53.096966" lon="04.892561"><ele>-7.8</ele><time>2021-12-08T14:18:57Z</time><name>PT5173</name></trkpt>
<trkpt lat="53.096959" lon="04.892568"><ele>-7.8</ele><time>2021-12-08T14:18:58Z</time><name>PT5174</name></trkpt>
<trkpt lat="53.096952" lon="04.892574"><ele>-7.9</ele><time>2021-12-08T14:19:00Z</time><name>PT5175</name></trkpt>
<trkpt lat="53.096944" lon="04.892579"><ele>-7.8</ele><time>2021-12-08T14:19:00Z</time><name>PT5176</name></trkpt>
<trkpt lat="53.096936" lon="04.892583"><ele>-7.8</ele><time>2021-12-08T14:19:01Z</time><name>PT5177</name></trkpt>
<trkpt lat="53.096927" lon="04.892588"><ele>-7.9</ele><time>2021-12-08T14:19:03Z</time><name>PT5178</name></trkpt>
<trkpt lat="53.096917" lon="04.892591"><ele>-7.9</ele><time>2021-12-08T14:19:03Z</time><name>PT5179</name></trkpt>
<trkpt lat="53.096908" lon="04.892597"><ele>-7.9</ele><time>2021-12-08T14:19:04Z</time><name>PT5180</name></trkpt>
<trkpt lat="53.096900" lon="04.892604"><ele>-7.8</ele><time>2021-12-08T14:19:06Z</time><name>PT5181</name></trkpt>
<trkpt lat="53.096892" lon="04.892609"><ele>-7.9</ele><time>2021-12-08T14:19:06Z</time><name>PT5182</name></trkpt>
<trkpt lat="53.096885" lon="04.892611"><ele>-7.8</ele><time>2021-12-08T14:19:07Z</time><name>PT5183</name></trkpt>
<trkpt lat="53.096878" lon="04.892615"><ele>-7.7</ele><time>2021-12-08T14:19:09Z</time><name>PT5184</name></trkpt>
<trkpt lat="53.096869" lon="04.892620"><ele>-7.9</ele><time>2021-12-08T14:19:09Z</time><name>PT5185</name></trkpt>
<trkpt lat="53.096860" lon="04.892624"><ele>-7.8</ele><time>2021-12-08T14:19:10Z</time><name>PT5186</name></trkpt>
<trkpt lat="53.096852" lon="04.892628"><ele>-7.7</ele><time>2021-12-08T14:19:12Z</time><name>PT5187</name></trkpt>
<trkpt lat="53.096846" lon="04.892634"><ele>-7.6</ele><time>2021-12-08T14:19:12Z</time><name>PT5188</name></trkpt>
<trkpt lat="53.096841" lon="04.892641"><ele>-7.5</ele><time>2021-12-08T14:19:13Z</time><name>PT5189</name></trkpt>
<trkpt lat="53.096835" lon="04.892644"><ele>-7.6</ele><time>2021-12-08T14:19:15Z</time><name>PT5190</name></trkpt>
<trkpt lat="53.096826" lon="04.892646"><ele>-7.7</ele><time>2021-12-08T14:19:15Z</time><name>PT5191</name></trkpt>
<trkpt lat="53.096817" lon="04.892648"><ele>-7.8</ele><time>2021-12-08T14:19:16Z</time><name>PT5192</name></trkpt>
<trkpt lat="53.096807" lon="04.892649"><ele>-7.9</ele><time>2021-12-08T14:19:18Z</time><name>PT5193</name></trkpt>
<trkpt lat="53.096799" lon="04.892651"><ele>-7.8</ele><time>2021-12-08T14:19:18Z</time><name>PT5194</name></trkpt>
<trkpt lat="53.096793" lon="04.892649"><ele>-7.8</ele><time>2021-12-08T14:19:19Z</time><name>PT5195</name></trkpt>
<trkpt lat="53.096788" lon="04.892648"><ele>-7.8</ele><time>2021-12-08T14:19:21Z</time><name>PT5196</name></trkpt>
<trkpt lat="53.096782" lon="04.892645"><ele>-7.7</ele><time>2021-12-08T14:19:21Z</time><name>PT5197</name></trkpt>
<trkpt lat="53.096781" lon="04.892647"><ele>-7.6</ele><time>2021-12-08T14:19:22Z</time><name>PT5198</name></trkpt>
<trkpt lat="53.096781" lon="04.892648"><ele>-7.3</ele><time>2021-12-08T14:19:24Z</time><name>PT5199</name></trkpt>
<trkpt lat="53.096779" lon="04.892646"><ele>-7.2</ele><time>2021-12-08T14:19:24Z</time><name>PT5200</name></trkpt>
<trkpt lat="53.096775" lon="04.892645"><ele>-7.2</ele><time>2021-12-08T14:19:25Z</time><name>PT5201</name></trkpt>
<trkpt lat="53.096767" lon="04.892645"><ele>-7.2</ele><time>2021-12-08T14:19:27Z</time><name>PT5202</name></trkpt>
<trkpt lat="53.096765" lon="04.892647"><ele>-7.2</ele><time>2021-12-08T14:19:27Z</time><name>PT5203</name></trkpt>
<trkpt lat="53.096762" lon="04.892645"><ele>-7.4</ele><time>2021-12-08T14:19:28Z</time><name>PT5204</name></trkpt>
<trkpt lat="53.096758" lon="04.892641"><ele>-7.4</ele><time>2021-12-08T14:19:30Z</time><name>PT5205</name></trkpt>
<trkpt lat="53.096752" lon="04.892636"><ele>-7.4</ele><time>2021-12-08T14:19:30Z</time><name>PT5206</name></trkpt>
<trkpt lat="53.096745" lon="04.892632"><ele>-7.6</ele><time>2021-12-08T14:19:31Z</time><name>PT5207</name></trkpt>
<trkpt lat="53.096737" lon="04.892630"><ele>-7.5</ele><time>2021-12-08T14:19:33Z</time><name>PT5208</name></trkpt>
<trkpt lat="53.096728" lon="04.892626"><ele>-7.6</ele><time>2021-12-08T14:19:33Z</time><name>PT5209</name></trkpt>
<trkpt lat="53.096717" lon="04.892623"><ele>-7.6</ele><time>2021-12-08T14:19:34Z</time><name>PT5210</name></trkpt>
<trkpt lat="53.096707" lon="04.892618"><ele>-7.6</ele><time>2021-12-08T14:19:36Z</time><name>PT5211</name></trkpt>
<trkpt lat="53.096697" lon="04.892616"><ele>-7.6</ele><time>2021-12-08T14:19:36Z</time><name>PT5212</name></trkpt>
<trkpt lat="53.096688" lon="04.892612"><ele>-7.7</ele><time>2021-12-08T14:19:37Z</time><name>PT5213</name></trkpt>
<trkpt lat="53.096680" lon="04.892603"><ele>-7.5</ele><time>2021-12-08T14:19:39Z</time><name>PT5214</name></trkpt>
<trkpt lat="53.096671" lon="04.892597"><ele>-7.5</ele><time>2021-12-08T14:19:39Z</time><name>PT5215</name></trkpt>
<trkpt lat="53.096665" lon="04.892595"><ele>-7.6</ele><time>2021-12-08T14:19:40Z</time><name>PT5216</name></trkpt>
<trkpt lat="53.096662" lon="04.892593"><ele>-7.5</ele><time>2021-12-08T14:19:42Z</time><name>PT5217</name></trkpt>
<trkpt lat="53.096660" lon="04.892590"><ele>-7.5</ele><time>2021-12-08T14:19:42Z</time><name>PT5218</name></trkpt>
<trkpt lat="53.096656" lon="04.892584"><ele>-7.8</ele><time>2021-12-08T14:19:43Z</time><name>PT5219</name></trkpt>
<trkpt lat="53.096651" lon="04.892576"><ele>-8.1</ele><time>2021-12-08T14:19:45Z</time><name>PT5220</name></trkpt>
<trkpt lat="53.096644" lon="04.892566"><ele>-8.2</ele><time>2021-12-08T14:19:45Z</time><name>PT5221</name></trkpt>
<trkpt lat="53.096640" lon="04.892560"><ele>-8.2</ele><time>2021-12-08T14:19:46Z</time><name>PT5222</name></trkpt>
<trkpt lat="53.096635" lon="04.892556"><ele>-8.3</ele><time>2021-12-08T14:19:48Z</time><name>PT5223</name></trkpt>
<trkpt lat="53.096629" lon="04.892547"><ele>-8</ele><time>2021-12-08T14:19:48Z</time><name>PT5224</name></trkpt>
<trkpt lat="53.096622" lon="04.892537"><ele>-7.8</ele><time>2021-12-08T14:19:49Z</time><name>PT5225</name></trkpt>
<trkpt lat="53.096614" lon="04.892530"><ele>-7.6</ele><time>2021-12-08T14:19:51Z</time><name>PT5226</name></trkpt>
<trkpt lat="53.096604" lon="04.892524"><ele>-7.7</ele><time>2021-12-08T14:19:51Z</time><name>PT5227</name></trkpt>
<trkpt lat="53.096595" lon="04.892518"><ele>-7.6</ele><time>2021-12-08T14:19:52Z</time><name>PT5228</name></trkpt>
<trkpt lat="53.096587" lon="04.892510"><ele>-7.9</ele><time>2021-12-08T14:19:54Z</time><name>PT5229</name></trkpt>
<trkpt lat="53.096579" lon="04.892501"><ele>-7.8</ele><time>2021-12-08T14:19:54Z</time><name>PT5230</name></trkpt>
<trkpt lat="53.096573" lon="04.892491"><ele>-7.9</ele><time>2021-12-08T14:19:55Z</time><name>PT5231</name></trkpt>
<trkpt lat="53.096566" lon="04.892481"><ele>-7.9</ele><time>2021-12-08T14:19:57Z</time><name>PT5232</name></trkpt>
<trkpt lat="53.096557" lon="04.892478"><ele>-7.8</ele><time>2021-12-08T14:19:57Z</time><name>PT5233</name></trkpt>
<trkpt lat="53.096547" lon="04.892474"><ele>-7.8</ele><time>2021-12-08T14:19:58Z</time><name>PT5234</name></trkpt>
<trkpt lat="53.096538" lon="04.892468"><ele>-8</ele><time>2021-12-08T14:20:00Z</time><name>PT5235</name></trkpt>
<trkpt lat="53.096530" lon="04.892463"><ele>-8.1</ele><time>2021-12-08T14:20:00Z</time><name>PT5236</name></trkpt>
<trkpt lat="53.096522" lon="04.892455"><ele>-8.3</ele><time>2021-12-08T14:20:01Z</time><name>PT5237</name></trkpt>
<trkpt lat="53.096513" lon="04.892447"><ele>-8.4</ele><time>2021-12-08T14:20:03Z</time><name>PT5238</name></trkpt>
<trkpt lat="53.096502" lon="04.892440"><ele>-8.3</ele><time>2021-12-08T14:20:03Z</time><name>PT5239</name></trkpt>
<trkpt lat="53.096492" lon="04.892433"><ele>-8.2</ele><time>2021-12-08T14:20:04Z</time><name>PT5240</name></trkpt>
<trkpt lat="53.096481" lon="04.892426"><ele>-8.2</ele><time>2021-12-08T14:20:06Z</time><name>PT5241</name></trkpt>
<trkpt lat="53.096470" lon="04.892420"><ele>-8.1</ele><time>2021-12-08T14:20:06Z</time><name>PT5242</name></trkpt>
<trkpt lat="53.096459" lon="04.892411"><ele>-8.1</ele><time>2021-12-08T14:20:07Z</time><name>PT5243</name></trkpt>
<trkpt lat="53.096448" lon="04.892404"><ele>-8</ele><time>2021-12-08T14:20:09Z</time><name>PT5244</name></trkpt>
<trkpt lat="53.096438" lon="04.892397"><ele>-8</ele><time>2021-12-08T14:20:09Z</time><name>PT5245</name></trkpt>
<trkpt lat="53.096428" lon="04.892391"><ele>-8</ele><time>2021-12-08T14:20:10Z</time><name>PT5246</name></trkpt>
<trkpt lat="53.096419" lon="04.892386"><ele>-8.1</ele><time>2021-12-08T14:20:12Z</time><name>PT5247</name></trkpt>
<trkpt lat="53.096409" lon="04.892377"><ele>-8.2</ele><time>2021-12-08T14:20:12Z</time><name>PT5248</name></trkpt>
<trkpt lat="53.096399" lon="04.892371"><ele>-8.1</ele><time>2021-12-08T14:20:13Z</time><name>PT5249</name></trkpt>
<trkpt lat="53.096390" lon="04.892361"><ele>-7.9</ele><time>2021-12-08T14:20:15Z</time><name>PT5250</name></trkpt>
<trkpt lat="53.096380" lon="04.892352"><ele>-7.9</ele><time>2021-12-08T14:20:15Z</time><name>PT5251</name></trkpt>
<trkpt lat="53.096369" lon="04.892347"><ele>-7.7</ele><time>2021-12-08T14:20:16Z</time><name>PT5252</name></trkpt>
<trkpt lat="53.096358" lon="04.892340"><ele>-7.7</ele><time>2021-12-08T14:20:18Z</time><name>PT5253</name></trkpt>
<trkpt lat="53.096349" lon="04.892336"><ele>-7.8</ele><time>2021-12-08T14:20:18Z</time><name>PT5254</name></trkpt>
<trkpt lat="53.096339" lon="04.892330"><ele>-7.8</ele><time>2021-12-08T14:20:19Z</time><name>PT5255</name></trkpt>
<trkpt lat="53.096330" lon="04.892321"><ele>-7.8</ele><time>2021-12-08T14:20:21Z</time><name>PT5256</name></trkpt>
<trkpt lat="53.096323" lon="04.892312"><ele>-7.9</ele><time>2021-12-08T14:20:21Z</time><name>PT5257</name></trkpt>
<trkpt lat="53.096313" lon="04.892308"><ele>-8.1</ele><time>2021-12-08T14:20:22Z</time><name>PT5258</name></trkpt>
<trkpt lat="53.096304" lon="04.892305"><ele>-8.3</ele><time>2021-12-08T14:20:24Z</time><name>PT5259</name></trkpt>
<trkpt lat="53.096294" lon="04.892302"><ele>-8.3</ele><time>2021-12-08T14:20:24Z</time><name>PT5260</name></trkpt>
<trkpt lat="53.096285" lon="04.892298"><ele>-8.3</ele><time>2021-12-08T14:20:25Z</time><name>PT5261</name></trkpt>
<trkpt lat="53.096274" lon="04.892292"><ele>-8.3</ele><time>2021-12-08T14:20:27Z</time><name>PT5262</name></trkpt>
<trkpt lat="53.096264" lon="04.892289"><ele>-8.3</ele><time>2021-12-08T14:20:27Z</time><name>PT5263</name></trkpt>
<trkpt lat="53.096252" lon="04.892286"><ele>-8.2</ele><time>2021-12-08T14:20:28Z</time><name>PT5264</name></trkpt>
<trkpt lat="53.096242" lon="04.892283"><ele>-8.3</ele><time>2021-12-08T14:20:30Z</time><name>PT5265</name></trkpt>
<trkpt lat="53.096232" lon="04.892281"><ele>-8.3</ele><time>2021-12-08T14:20:30Z</time><name>PT5266</name></trkpt>
<trkpt lat="53.096221" lon="04.892279"><ele>-8.2</ele><time>2021-12-08T14:20:31Z</time><name>PT5267</name></trkpt>
<trkpt lat="53.096212" lon="04.892276"><ele>-8.1</ele><time>2021-12-08T14:20:33Z</time><name>PT5268</name></trkpt>
<trkpt lat="53.096201" lon="04.892275"><ele>-8.1</ele><time>2021-12-08T14:20:33Z</time><name>PT5269</name></trkpt>
<trkpt lat="53.096190" lon="04.892272"><ele>-8.1</ele><time>2021-12-08T14:20:34Z</time><name>PT5270</name></trkpt>
<trkpt lat="53.096180" lon="04.892275"><ele>-8.3</ele><time>2021-12-08T14:20:36Z</time><name>PT5271</name></trkpt>
<trkpt lat="53.096171" lon="04.892278"><ele>-8.6</ele><time>2021-12-08T14:20:36Z</time><name>PT5272</name></trkpt>
<trkpt lat="53.096163" lon="04.892282"><ele>-8.8</ele><time>2021-12-08T14:20:37Z</time><name>PT5273</name></trkpt>
<trkpt lat="53.096151" lon="04.892283"><ele>-9.1</ele><time>2021-12-08T14:20:39Z</time><name>PT5274</name></trkpt>
<trkpt lat="53.096142" lon="04.892285"><ele>-9</ele><time>2021-12-08T14:20:39Z</time><name>PT5275</name></trkpt>
<trkpt lat="53.096130" lon="04.892292"><ele>-9</ele><time>2021-12-08T14:20:40Z</time><name>PT5276</name></trkpt>
<trkpt lat="53.096119" lon="04.892295"><ele>-8.6</ele><time>2021-12-08T14:20:42Z</time><name>PT5277</name></trkpt>
<trkpt lat="53.096110" lon="04.892296"><ele>-8.6</ele><time>2021-12-08T14:20:42Z</time><name>PT5278</name></trkpt>
<trkpt lat="53.096098" lon="04.892297"><ele>-8.3</ele><time>2021-12-08T14:20:43Z</time><name>PT5279</name></trkpt>
<trkpt lat="53.096086" lon="04.892296"><ele>-8.3</ele><time>2021-12-08T14:20:45Z</time><name>PT5280</name></trkpt>
<trkpt lat="53.096075" lon="04.892302"><ele>-8.1</ele><time>2021-12-08T14:20:45Z</time><name>PT5281</name></trkpt>
<trkpt lat="53.096066" lon="04.892309"><ele>-8.3</ele><time>2021-12-08T14:20:46Z</time><name>PT5282</name></trkpt>
<trkpt lat="53.096057" lon="04.892314"><ele>-8.4</ele><time>2021-12-08T14:20:48Z</time><name>PT5283</name></trkpt>
<trkpt lat="53.096047" lon="04.892319"><ele>-8.3</ele><time>2021-12-08T14:20:48Z</time><name>PT5284</name></trkpt>
<trkpt lat="53.096036" lon="04.892325"><ele>-8.2</ele><time>2021-12-08T14:20:49Z</time><name>PT5285</name></trkpt>
<trkpt lat="53.096026" lon="04.892330"><ele>-8.1</ele><time>2021-12-08T14:20:51Z</time><name>PT5286</name></trkpt>
<trkpt lat="53.096015" lon="04.892335"><ele>-8.1</ele><time>2021-12-08T14:20:51Z</time><name>PT5287</name></trkpt>
<trkpt lat="53.096004" lon="04.892342"><ele>-7.9</ele><time>2021-12-08T14:20:52Z</time><name>PT5288</name></trkpt>
<trkpt lat="53.095994" lon="04.892349"><ele>-7.9</ele><time>2021-12-08T14:20:54Z</time><name>PT5289</name></trkpt>
<trkpt lat="53.095984" lon="04.892356"><ele>-8</ele><time>2021-12-08T14:20:54Z</time><name>PT5290</name></trkpt>
<trkpt lat="53.095973" lon="04.892361"><ele>-8</ele><time>2021-12-08T14:20:55Z</time><name>PT5291</name></trkpt>
<trkpt lat="53.095963" lon="04.892364"><ele>-7.9</ele><time>2021-12-08T14:20:57Z</time><name>PT5292</name></trkpt>
<trkpt lat="53.095953" lon="04.892366"><ele>-7.9</ele><time>2021-12-08T14:20:57Z</time><name>PT5293</name></trkpt>
<trkpt lat="53.095942" lon="04.892371"><ele>-7.9</ele><time>2021-12-08T14:20:58Z</time><name>PT5294</name></trkpt>
<trkpt lat="53.095934" lon="04.892375"><ele>-7.7</ele><time>2021-12-08T14:21:00Z</time><name>PT5295</name></trkpt>
<trkpt lat="53.095928" lon="04.892379"><ele>-7.6</ele><time>2021-12-08T14:21:00Z</time><name>PT5296</name></trkpt>
<trkpt lat="53.095927" lon="04.892379"><ele>-7.6</ele><time>2021-12-08T14:21:01Z</time><name>PT5297</name></trkpt>
<trkpt lat="53.095927" lon="04.892382"><ele>-7.7</ele><time>2021-12-08T14:21:03Z</time><name>PT5298</name></trkpt>
<trkpt lat="53.095925" lon="04.892387"><ele>-7.8</ele><time>2021-12-08T14:21:03Z</time><name>PT5299</name></trkpt>
<trkpt lat="53.095919" lon="04.892392"><ele>-7.8</ele><time>2021-12-08T14:21:04Z</time><name>PT5300</name></trkpt>
<trkpt lat="53.095911" lon="04.892398"><ele>-8.1</ele><time>2021-12-08T14:21:06Z</time><name>PT5301</name></trkpt>
<trkpt lat="53.095903" lon="04.892402"><ele>-8.1</ele><time>2021-12-08T14:21:06Z</time><name>PT5302</name></trkpt>
<trkpt lat="53.095894" lon="04.892401"><ele>-8</ele><time>2021-12-08T14:21:07Z</time><name>PT5303</name></trkpt>
<trkpt lat="53.095882" lon="04.892403"><ele>-7.9</ele><time>2021-12-08T14:21:09Z</time><name>PT5304</name></trkpt>
<trkpt lat="53.095871" lon="04.892396"><ele>-8</ele><time>2021-12-08T14:21:09Z</time><name>PT5305</name></trkpt>
<trkpt lat="53.095861" lon="04.892392"><ele>-7.8</ele><time>2021-12-08T14:21:10Z</time><name>PT5306</name></trkpt>
<trkpt lat="53.095852" lon="04.892394"><ele>-7.7</ele><time>2021-12-08T14:21:12Z</time><name>PT5307</name></trkpt>
<trkpt lat="53.095842" lon="04.892393"><ele>-7.7</ele><time>2021-12-08T14:21:12Z</time><name>PT5308</name></trkpt>
<trkpt lat="53.095832" lon="04.892391"><ele>-7.6</ele><time>2021-12-08T14:21:13Z</time><name>PT5309</name></trkpt>
<trkpt lat="53.095820" lon="04.892386"><ele>-7.6</ele><time>2021-12-08T14:21:15Z</time><name>PT5310</name></trkpt>
<trkpt lat="53.095808" lon="04.892381"><ele>-7.7</ele><time>2021-12-08T14:21:15Z</time><name>PT5311</name></trkpt>
<trkpt lat="53.095797" lon="04.892374"><ele>-7.8</ele><time>2021-12-08T14:21:16Z</time><name>PT5312</name></trkpt>
<trkpt lat="53.095787" lon="04.892366"><ele>-7.8</ele><time>2021-12-08T14:21:18Z</time><name>PT5313</name></trkpt>
<trkpt lat="53.095778" lon="04.892361"><ele>-7.8</ele><time>2021-12-08T14:21:18Z</time><name>PT5314</name></trkpt>
<trkpt lat="53.095768" lon="04.892354"><ele>-7.8</ele><time>2021-12-08T14:21:19Z</time><name>PT5315</name></trkpt>
<trkpt lat="53.095757" lon="04.892346"><ele>-7.6</ele><time>2021-12-08T14:21:21Z</time><name>PT5316</name></trkpt>
<trkpt lat="53.095746" lon="04.892339"><ele>-7.5</ele><time>2021-12-08T14:21:21Z</time><name>PT5317</name></trkpt>
<trkpt lat="53.095736" lon="04.892329"><ele>-7.4</ele><time>2021-12-08T14:21:22Z</time><name>PT5318</name></trkpt>
<trkpt lat="53.095727" lon="04.892317"><ele>-7.5</ele><time>2021-12-08T14:21:24Z</time><name>PT5319</name></trkpt>
<trkpt lat="53.095716" lon="04.892308"><ele>-7.5</ele><time>2021-12-08T14:21:24Z</time><name>PT5320</name></trkpt>
<trkpt lat="53.095705" lon="04.892299"><ele>-7.7</ele><time>2021-12-08T14:21:25Z</time><name>PT5321</name></trkpt>
<trkpt lat="53.095700" lon="04.892292"><ele>-7.7</ele><time>2021-12-08T14:21:27Z</time><name>PT5322</name></trkpt>
<trkpt lat="53.095696" lon="04.892286"><ele>-7.8</ele><time>2021-12-08T14:21:27Z</time><name>PT5323</name></trkpt>
<trkpt lat="53.095696" lon="04.892284"><ele>-7.8</ele><time>2021-12-08T14:21:28Z</time><name>PT5324</name></trkpt>
<trkpt lat="53.095696" lon="04.892285"><ele>-7.8</ele><time>2021-12-08T14:21:30Z</time><name>PT5325</name></trkpt>
<trkpt lat="53.095696" lon="04.892285"><ele>-7.7</ele><time>2021-12-08T14:21:30Z</time><name>PT5326</name></trkpt>
<trkpt lat="53.095690" lon="04.892271"><ele>-7.9</ele><time>2021-12-08T14:21:33Z</time><name>PT5327</name></trkpt>
<trkpt lat="53.095683" lon="04.892263"><ele>-7.9</ele><time>2021-12-08T14:21:34Z</time><name>PT5328</name></trkpt>
<trkpt lat="53.095675" lon="04.892251"><ele>-8</ele><time>2021-12-08T14:21:36Z</time><name>PT5329</name></trkpt>
<trkpt lat="53.095669" lon="04.892239"><ele>-8.1</ele><time>2021-12-08T14:21:36Z</time><name>PT5330</name></trkpt>
<trkpt lat="53.095661" lon="04.892226"><ele>-8.2</ele><time>2021-12-08T14:21:37Z</time><name>PT5331</name></trkpt>
<trkpt lat="53.095654" lon="04.892213"><ele>-8.3</ele><time>2021-12-08T14:21:39Z</time><name>PT5332</name></trkpt>
<trkpt lat="53.095646" lon="04.892198"><ele>-8.1</ele><time>2021-12-08T14:21:39Z</time><name>PT5333</name></trkpt>
<trkpt lat="53.095641" lon="04.892183"><ele>-7.9</ele><time>2021-12-08T14:21:40Z</time><name>PT5334</name></trkpt>
<trkpt lat="53.095636" lon="04.892166"><ele>-7.7</ele><time>2021-12-08T14:21:42Z</time><name>PT5335</name></trkpt>
<trkpt lat="53.095631" lon="04.892149"><ele>-7.4</ele><time>2021-12-08T14:21:42Z</time><name>PT5336</name></trkpt>
<trkpt lat="53.095625" lon="04.892132"><ele>-7.3</ele><time>2021-12-08T14:21:43Z</time><name>PT5337</name></trkpt>
<trkpt lat="53.095620" lon="04.892117"><ele>-7.4</ele><time>2021-12-08T14:21:45Z</time><name>PT5338</name></trkpt>
<trkpt lat="53.095615" lon="04.892103"><ele>-7.3</ele><time>2021-12-08T14:21:45Z</time><name>PT5339</name></trkpt>
<trkpt lat="53.095608" lon="04.892089"><ele>-7.5</ele><time>2021-12-08T14:21:46Z</time><name>PT5340</name></trkpt>
<trkpt lat="53.095601" lon="04.892077"><ele>-7.7</ele><time>2021-12-08T14:21:48Z</time><name>PT5341</name></trkpt>
<trkpt lat="53.095597" lon="04.892064"><ele>-7.6</ele><time>2021-12-08T14:21:48Z</time><name>PT5342</name></trkpt>
<trkpt lat="53.095598" lon="04.892061"><ele>-7.4</ele><time>2021-12-08T14:21:49Z</time><name>PT5343</name></trkpt>
<trkpt lat="53.095597" lon="04.892064"><ele>-7.2</ele><time>2021-12-08T14:21:51Z</time><name>PT5344</name></trkpt>
<trkpt lat="53.095597" lon="04.892063"><ele>-7.2</ele><time>2021-12-08T14:21:51Z</time><name>PT5345</name></trkpt>
<trkpt lat="53.095597" lon="04.892052"><ele>-7.2</ele><time>2021-12-08T14:21:52Z</time><name>PT5346</name></trkpt>
<trkpt lat="53.095594" lon="04.892039"><ele>-7.2</ele><time>2021-12-08T14:21:54Z</time><name>PT5347</name></trkpt>
<trkpt lat="53.095588" lon="04.892026"><ele>-7.5</ele><time>2021-12-08T14:21:54Z</time><name>PT5348</name></trkpt>
<trkpt lat="53.095581" lon="04.892015"><ele>-7.8</ele><time>2021-12-08T14:21:55Z</time><name>PT5349</name></trkpt>
<trkpt lat="53.095581" lon="04.892012"><ele>-7.8</ele><time>2021-12-08T14:21:57Z</time><name>PT5350</name></trkpt>
<trkpt lat="53.095582" lon="04.892014"><ele>-7.9</ele><time>2021-12-08T14:21:57Z</time><name>PT5351</name></trkpt>
<trkpt lat="53.095578" lon="04.892008"><ele>-7.8</ele><time>2021-12-08T14:21:58Z</time><name>PT5352</name></trkpt>
<trkpt lat="53.095576" lon="04.891996"><ele>-7.8</ele><time>2021-12-08T14:22:00Z</time><name>PT5353</name></trkpt>
<trkpt lat="53.095571" lon="04.891984"><ele>-7.7</ele><time>2021-12-08T14:22:00Z</time><name>PT5354</name></trkpt>
<trkpt lat="53.095565" lon="04.891969"><ele>-7.5</ele><time>2021-12-08T14:22:01Z</time><name>PT5355</name></trkpt>
<trkpt lat="53.095558" lon="04.891956"><ele>-7.3</ele><time>2021-12-08T14:22:03Z</time><name>PT5356</name></trkpt>
<trkpt lat="53.095553" lon="04.891939"><ele>-7.4</ele><time>2021-12-08T14:22:03Z</time><name>PT5357</name></trkpt>
<trkpt lat="53.095548" lon="04.891923"><ele>-7.4</ele><time>2021-12-08T14:22:04Z</time><name>PT5358</name></trkpt>
<trkpt lat="53.095542" lon="04.891908"><ele>-7.6</ele><time>2021-12-08T14:22:06Z</time><name>PT5359</name></trkpt>
<trkpt lat="53.095536" lon="04.891892"><ele>-7.6</ele><time>2021-12-08T14:22:06Z</time><name>PT5360</name></trkpt>
<trkpt lat="53.095530" lon="04.891877"><ele>-7.8</ele><time>2021-12-08T14:22:07Z</time><name>PT5361</name></trkpt>
<trkpt lat="53.095525" lon="04.891864"><ele>-8</ele><time>2021-12-08T14:22:09Z</time><name>PT5362</name></trkpt>
<trkpt lat="53.095523" lon="04.891859"><ele>-7.9</ele><time>2021-12-08T14:22:09Z</time><name>PT5363</name></trkpt>
<trkpt lat="53.095523" lon="04.891858"><ele>-7.8</ele><time>2021-12-08T14:22:10Z</time><name>PT5364</name></trkpt>
<trkpt lat="53.095524" lon="04.891855"><ele>-7.9</ele><time>2021-12-08T14:22:12Z</time><name>PT5365</name></trkpt>
<trkpt lat="53.095524" lon="04.891852"><ele>-7.9</ele><time>2021-12-08T14:22:12Z</time><name>PT5366</name></trkpt>
<trkpt lat="53.095521" lon="04.891846"><ele>-8.3</ele><time>2021-12-08T14:22:15Z</time><name>PT5367</name></trkpt>
<trkpt lat="53.095516" lon="04.891833"><ele>-8.3</ele><time>2021-12-08T14:22:15Z</time><name>PT5368</name></trkpt>
<trkpt lat="53.095510" lon="04.891818"><ele>-8.3</ele><time>2021-12-08T14:22:16Z</time><name>PT5369</name></trkpt>
<trkpt lat="53.095504" lon="04.891801"><ele>-8.2</ele><time>2021-12-08T14:22:18Z</time><name>PT5370</name></trkpt>
<trkpt lat="53.095500" lon="04.891783"><ele>-7.8</ele><time>2021-12-08T14:22:18Z</time><name>PT5371</name></trkpt>
<trkpt lat="53.095495" lon="04.891771"><ele>-7.8</ele><time>2021-12-08T14:22:19Z</time><name>PT5372</name></trkpt>
<trkpt lat="53.095492" lon="04.891759"><ele>-7.7</ele><time>2021-12-08T14:22:21Z</time><name>PT5373</name></trkpt>
<trkpt lat="53.095489" lon="04.891746"><ele>-7.5</ele><time>2021-12-08T14:22:21Z</time><name>PT5374</name></trkpt>
<trkpt lat="53.095484" lon="04.891735"><ele>-7.7</ele><time>2021-12-08T14:22:22Z</time><name>PT5375</name></trkpt>
<trkpt lat="53.095478" lon="04.891720"><ele>-7.7</ele><time>2021-12-08T14:22:24Z</time><name>PT5376</name></trkpt>
<trkpt lat="53.095472" lon="04.891705"><ele>-7.8</ele><time>2021-12-08T14:22:24Z</time><name>PT5377</name></trkpt>
<trkpt lat="53.095467" lon="04.891689"><ele>-8.1</ele><time>2021-12-08T14:22:25Z</time><name>PT5378</name></trkpt>
<trkpt lat="53.095463" lon="04.891674"><ele>-8.3</ele><time>2021-12-08T14:22:27Z</time><name>PT5379</name></trkpt>
<trkpt lat="53.095458" lon="04.891658"><ele>-8.3</ele><time>2021-12-08T14:22:27Z</time><name>PT5380</name></trkpt>
<trkpt lat="53.095452" lon="04.891642"><ele>-8.3</ele><time>2021-12-08T14:22:28Z</time><name>PT5381</name></trkpt>
<trkpt lat="53.095446" lon="04.891628"><ele>-8.3</ele><time>2021-12-08T14:22:30Z</time><name>PT5382</name></trkpt>
<trkpt lat="53.095440" lon="04.891614"><ele>-8.3</ele><time>2021-12-08T14:22:30Z</time><name>PT5383</name></trkpt>
<trkpt lat="53.095436" lon="04.891602"><ele>-8.4</ele><time>2021-12-08T14:22:31Z</time><name>PT5384</name></trkpt>
<trkpt lat="53.095432" lon="04.891589"><ele>-8.4</ele><time>2021-12-08T14:22:33Z</time><name>PT5385</name></trkpt>
<trkpt lat="53.095425" lon="04.891576"><ele>-8.4</ele><time>2021-12-08T14:22:33Z</time><name>PT5386</name></trkpt>
<trkpt lat="53.095418" lon="04.891566"><ele>-8.4</ele><time>2021-12-08T14:22:34Z</time><name>PT5387</name></trkpt>
<trkpt lat="53.095408" lon="04.891553"><ele>-8.4</ele><time>2021-12-08T14:22:36Z</time><name>PT5388</name></trkpt>
<trkpt lat="53.095398" lon="04.891544"><ele>-8.5</ele><time>2021-12-08T14:22:36Z</time><name>PT5389</name></trkpt>
<trkpt lat="53.095390" lon="04.891536"><ele>-8.4</ele><time>2021-12-08T14:22:37Z</time><name>PT5390</name></trkpt>
<trkpt lat="53.095382" lon="04.891530"><ele>-8.5</ele><time>2021-12-08T14:22:39Z</time><name>PT5391</name></trkpt>
<trkpt lat="53.095377" lon="04.891526"><ele>-8.4</ele><time>2021-12-08T14:22:39Z</time><name>PT5392</name></trkpt>
<trkpt lat="53.095374" lon="04.891526"><ele>-8.5</ele><time>2021-12-08T14:22:40Z</time><name>PT5393</name></trkpt>
<trkpt lat="53.095375" lon="04.891524"><ele>-8.7</ele><time>2021-12-08T14:22:42Z</time><name>PT5394</name></trkpt>
<trkpt lat="53.095377" lon="04.891522"><ele>-8.7</ele><time>2021-12-08T14:22:42Z</time><name>PT5395</name></trkpt>
<trkpt lat="53.095378" lon="04.891520"><ele>-8.7</ele><time>2021-12-08T14:22:43Z</time><name>PT5396</name></trkpt>
<trkpt lat="53.095379" lon="04.891520"><ele>-8.7</ele><time>2021-12-08T14:22:45Z</time><name>PT5397</name></trkpt>
<trkpt lat="53.095380" lon="04.891518"><ele>-8.6</ele><time>2021-12-08T14:22:45Z</time><name>PT5398</name></trkpt>
<trkpt lat="53.095380" lon="04.891517"><ele>-8.4</ele><time>2021-12-08T14:22:46Z</time><name>PT5399</name></trkpt>
<trkpt lat="53.095381" lon="04.891516"><ele>-8.3</ele><time>2021-12-08T14:22:48Z</time><name>PT5400</name></trkpt>
<trkpt lat="53.095379" lon="04.891516"><ele>-8.3</ele><time>2021-12-08T14:22:52Z</time><name>PT5401</name></trkpt>
<trkpt lat="53.095366" lon="04.891511"><ele>-8.3</ele><time>2021-12-08T14:22:54Z</time><name>PT5402</name></trkpt>
<trkpt lat="53.095358" lon="04.891511"><ele>-8.5</ele><time>2021-12-08T14:22:55Z</time><name>PT5403</name></trkpt>
<trkpt lat="53.095342" lon="04.891513"><ele>-8.7</ele><time>2021-12-08T14:22:57Z</time><name>PT5404</name></trkpt>
<trkpt lat="53.095334" lon="04.891509"><ele>-8.8</ele><time>2021-12-08T14:22:58Z</time><name>PT5405</name></trkpt>
<trkpt lat="53.095325" lon="04.891510"><ele>-8.8</ele><time>2021-12-08T14:23:00Z</time><name>PT5406</name></trkpt>
<trkpt lat="53.095317" lon="04.891517"><ele>-8.8</ele><time>2021-12-08T14:23:00Z</time><name>PT5407</name></trkpt>
<trkpt lat="53.095308" lon="04.891524"><ele>-8.8</ele><time>2021-12-08T14:23:01Z</time><name>PT5408</name></trkpt>
<trkpt lat="53.095299" lon="04.891528"><ele>-8.7</ele><time>2021-12-08T14:23:03Z</time><name>PT5409</name></trkpt>
<trkpt lat="53.095290" lon="04.891535"><ele>-8.8</ele><time>2021-12-08T14:23:03Z</time><name>PT5410</name></trkpt>
<trkpt lat="53.095279" lon="04.891542"><ele>-8.9</ele><time>2021-12-08T14:23:04Z</time><name>PT5411</name></trkpt>
<trkpt lat="53.095266" lon="04.891543"><ele>-9</ele><time>2021-12-08T14:23:06Z</time><name>PT5412</name></trkpt>
<trkpt lat="53.095257" lon="04.891546"><ele>-9</ele><time>2021-12-08T14:23:06Z</time><name>PT5413</name></trkpt>
<trkpt lat="53.095254" lon="04.891545"><ele>-9</ele><time>2021-12-08T14:23:07Z</time><name>PT5414</name></trkpt>
<trkpt lat="53.095252" lon="04.891547"><ele>-8.9</ele><time>2021-12-08T14:23:09Z</time><name>PT5415</name></trkpt>
<trkpt lat="53.095245" lon="04.891557"><ele>-8.8</ele><time>2021-12-08T14:23:09Z</time><name>PT5416</name></trkpt>
<trkpt lat="53.095237" lon="04.891567"><ele>-8.5</ele><time>2021-12-08T14:23:10Z</time><name>PT5417</name></trkpt>
<trkpt lat="53.095227" lon="04.891573"><ele>-8.4</ele><time>2021-12-08T14:23:12Z</time><name>PT5418</name></trkpt>
<trkpt lat="53.095219" lon="04.891577"><ele>-8.3</ele><time>2021-12-08T14:23:12Z</time><name>PT5419</name></trkpt>
<trkpt lat="53.095206" lon="04.891581"><ele>-8.1</ele><time>2021-12-08T14:23:13Z</time><name>PT5420</name></trkpt>
<trkpt lat="53.095192" lon="04.891587"><ele>-8</ele><time>2021-12-08T14:23:15Z</time><name>PT5421</name></trkpt>
<trkpt lat="53.095180" lon="04.891595"><ele>-8</ele><time>2021-12-08T14:23:15Z</time><name>PT5422</name></trkpt>
<trkpt lat="53.095171" lon="04.891600"><ele>-8.1</ele><time>2021-12-08T14:23:16Z</time><name>PT5423</name></trkpt>
<trkpt lat="53.095162" lon="04.891602"><ele>-8.2</ele><time>2021-12-08T14:23:18Z</time><name>PT5424</name></trkpt>
<trkpt lat="53.095151" lon="04.891606"><ele>-8.2</ele><time>2021-12-08T14:23:18Z</time><name>PT5425</name></trkpt>
<trkpt lat="53.095138" lon="04.891611"><ele>-8.2</ele><time>2021-12-08T14:23:19Z</time><name>PT5426</name></trkpt>
<trkpt lat="53.095128" lon="04.891618"><ele>-7.9</ele><time>2021-12-08T14:23:21Z</time><name>PT5427</name></trkpt>
<trkpt lat="53.095120" lon="04.891623"><ele>-7.8</ele><time>2021-12-08T14:23:21Z</time><name>PT5428</name></trkpt>
<trkpt lat="53.095110" lon="04.891628"><ele>-7.8</ele><time>2021-12-08T14:23:22Z</time><name>PT5429</name></trkpt>
<trkpt lat="53.095100" lon="04.891636"><ele>-8.1</ele><time>2021-12-08T14:23:24Z</time><name>PT5430</name></trkpt>
<trkpt lat="53.095089" lon="04.891646"><ele>-8.2</ele><time>2021-12-08T14:23:24Z</time><name>PT5431</name></trkpt>
<trkpt lat="53.095078" lon="04.891653"><ele>-8.4</ele><time>2021-12-08T14:23:25Z</time><name>PT5432</name></trkpt>
<trkpt lat="53.095070" lon="04.891659"><ele>-8.5</ele><time>2021-12-08T14:23:27Z</time><name>PT5433</name></trkpt>
<trkpt lat="53.095061" lon="04.891662"><ele>-8.6</ele><time>2021-12-08T14:23:27Z</time><name>PT5434</name></trkpt>
<trkpt lat="53.095051" lon="04.891663"><ele>-8.5</ele><time>2021-12-08T14:23:28Z</time><name>PT5435</name></trkpt>
<trkpt lat="53.095040" lon="04.891666"><ele>-8.5</ele><time>2021-12-08T14:23:30Z</time><name>PT5436</name></trkpt>
<trkpt lat="53.095028" lon="04.891674"><ele>-8.5</ele><time>2021-12-08T14:23:30Z</time><name>PT5437</name></trkpt>
<trkpt lat="53.095019" lon="04.891681"><ele>-8.4</ele><time>2021-12-08T14:23:31Z</time><name>PT5438</name></trkpt>
<trkpt lat="53.095011" lon="04.891689"><ele>-8.3</ele><time>2021-12-08T14:23:33Z</time><name>PT5439</name></trkpt>
<trkpt lat="53.095003" lon="04.891697"><ele>-8.3</ele><time>2021-12-08T14:23:33Z</time><name>PT5440</name></trkpt>
<trkpt lat="53.094994" lon="04.891704"><ele>-8.2</ele><time>2021-12-08T14:23:34Z</time><name>PT5441</name></trkpt>
<trkpt lat="53.094983" lon="04.891709"><ele>-8.1</ele><time>2021-12-08T14:23:36Z</time><name>PT5442</name></trkpt>
<trkpt lat="53.094974" lon="04.891717"><ele>-7.9</ele><time>2021-12-08T14:23:36Z</time><name>PT5443</name></trkpt>
<trkpt lat="53.094968" lon="04.891722"><ele>-7.8</ele><time>2021-12-08T14:23:37Z</time><name>PT5444</name></trkpt>
<trkpt lat="53.094960" lon="04.891726"><ele>-7.9</ele><time>2021-12-08T14:23:39Z</time><name>PT5445</name></trkpt>
<trkpt lat="53.094950" lon="04.891732"><ele>-8</ele><time>2021-12-08T14:23:39Z</time><name>PT5446</name></trkpt>
<trkpt lat="53.094939" lon="04.891742"><ele>-8.3</ele><time>2021-12-08T14:23:40Z</time><name>PT5447</name></trkpt>
<trkpt lat="53.094935" lon="04.891749"><ele>-8.5</ele><time>2021-12-08T14:23:42Z</time><name>PT5448</name></trkpt>
<trkpt lat="53.094926" lon="04.891757"><ele>-8.7</ele><time>2021-12-08T14:23:42Z</time><name>PT5449</name></trkpt>
<trkpt lat="53.094917" lon="04.891761"><ele>-8.5</ele><time>2021-12-08T14:23:43Z</time><name>PT5450</name></trkpt>
<trkpt lat="53.094905" lon="04.891768"><ele>-8.3</ele><time>2021-12-08T14:23:45Z</time><name>PT5451</name></trkpt>
<trkpt lat="53.094891" lon="04.891777"><ele>-8.3</ele><time>2021-12-08T14:23:45Z</time><name>PT5452</name></trkpt>
<trkpt lat="53.094881" lon="04.891789"><ele>-8.2</ele><time>2021-12-08T14:23:46Z</time><name>PT5453</name></trkpt>
<trkpt lat="53.094871" lon="04.891796"><ele>-8.1</ele><time>2021-12-08T14:23:48Z</time><name>PT5454</name></trkpt>
<trkpt lat="53.094869" lon="04.891800"><ele>-8.3</ele><time>2021-12-08T14:23:48Z</time><name>PT5455</name></trkpt>
<trkpt lat="53.094866" lon="04.891800"><ele>-8.6</ele><time>2021-12-08T14:23:49Z</time><name>PT5456</name></trkpt>
<trkpt lat="53.094855" lon="04.891805"><ele>-8.4</ele><time>2021-12-08T14:23:51Z</time><name>PT5457</name></trkpt>
<trkpt lat="53.094844" lon="04.891811"><ele>-8.3</ele><time>2021-12-08T14:23:51Z</time><name>PT5458</name></trkpt>
<trkpt lat="53.094836" lon="04.891818"><ele>-8</ele><time>2021-12-08T14:23:52Z</time><name>PT5459</name></trkpt>
<trkpt lat="53.094827" lon="04.891827"><ele>-7.7</ele><time>2021-12-08T14:23:54Z</time><name>PT5460</name></trkpt>
<trkpt lat="53.094817" lon="04.891834"><ele>-7.6</ele><time>2021-12-08T14:23:54Z</time><name>PT5461</name></trkpt>
<trkpt lat="53.094807" lon="04.891840"><ele>-7.2</ele><time>2021-12-08T14:23:55Z</time><name>PT5462</name></trkpt>
<trkpt lat="53.094797" lon="04.891844"><ele>-7.5</ele><time>2021-12-08T14:23:57Z</time><name>PT5463</name></trkpt>
<trkpt lat="53.094784" lon="04.891854"><ele>-7.7</ele><time>2021-12-08T14:23:57Z</time><name>PT5464</name></trkpt>
<trkpt lat="53.094775" lon="04.891864"><ele>-7.8</ele><time>2021-12-08T14:23:58Z</time><name>PT5465</name></trkpt>
<trkpt lat="53.094767" lon="04.891876"><ele>-7.8</ele><time>2021-12-08T14:24:00Z</time><name>PT5466</name></trkpt>
<trkpt lat="53.094758" lon="04.891885"><ele>-8</ele><time>2021-12-08T14:24:00Z</time><name>PT5467</name></trkpt>
<trkpt lat="53.094748" lon="04.891892"><ele>-7.8</ele><time>2021-12-08T14:24:01Z</time><name>PT5468</name></trkpt>
<trkpt lat="53.094738" lon="04.891898"><ele>-7.7</ele><time>2021-12-08T14:24:03Z</time><name>PT5469</name></trkpt>
<trkpt lat="53.094728" lon="04.891905"><ele>-7.7</ele><time>2021-12-08T14:24:03Z</time><name>PT5470</name></trkpt>
<trkpt lat="53.094718" lon="04.891913"><ele>-7.9</ele><time>2021-12-08T14:24:04Z</time><name>PT5471</name></trkpt>
<trkpt lat="53.094710" lon="04.891923"><ele>-7.8</ele><time>2021-12-08T14:24:06Z</time><name>PT5472</name></trkpt>
<trkpt lat="53.094702" lon="04.891936"><ele>-7.8</ele><time>2021-12-08T14:24:06Z</time><name>PT5473</name></trkpt>
<trkpt lat="53.094693" lon="04.891945"><ele>-7.9</ele><time>2021-12-08T14:24:07Z</time><name>PT5474</name></trkpt>
<trkpt lat="53.094683" lon="04.891952"><ele>-8.1</ele><time>2021-12-08T14:24:09Z</time><name>PT5475</name></trkpt>
<trkpt lat="53.094671" lon="04.891957"><ele>-8</ele><time>2021-12-08T14:24:09Z</time><name>PT5476</name></trkpt>
<trkpt lat="53.094659" lon="04.891967"><ele>-8</ele><time>2021-12-08T14:24:10Z</time><name>PT5477</name></trkpt>
<trkpt lat="53.094651" lon="04.891977"><ele>-8</ele><time>2021-12-08T14:24:12Z</time><name>PT5478</name></trkpt>
<trkpt lat="53.094643" lon="04.891986"><ele>-7.8</ele><time>2021-12-08T14:24:12Z</time><name>PT5479</name></trkpt>
<trkpt lat="53.094635" lon="04.891996"><ele>-7.5</ele><time>2021-12-08T14:24:13Z</time><name>PT5480</name></trkpt>
<trkpt lat="53.094627" lon="04.892007"><ele>-7.5</ele><time>2021-12-08T14:24:15Z</time><name>PT5481</name></trkpt>
<trkpt lat="53.094616" lon="04.892013"><ele>-7.6</ele><time>2021-12-08T14:24:15Z</time><name>PT5482</name></trkpt>
<trkpt lat="53.094605" lon="04.892021"><ele>-7.6</ele><time>2021-12-08T14:24:16Z</time><name>PT5483</name></trkpt>
<trkpt lat="53.094597" lon="04.892033"><ele>-7.6</ele><time>2021-12-08T14:24:18Z</time><name>PT5484</name></trkpt>
<trkpt lat="53.094590" lon="04.892044"><ele>-7.8</ele><time>2021-12-08T14:24:18Z</time><name>PT5485</name></trkpt>
<trkpt lat="53.094581" lon="04.892052"><ele>-7.9</ele><time>2021-12-08T14:24:19Z</time><name>PT5486</name></trkpt>
<trkpt lat="53.094573" lon="04.892063"><ele>-8.3</ele><time>2021-12-08T14:24:21Z</time><name>PT5487</name></trkpt>
<trkpt lat="53.094562" lon="04.892073"><ele>-8.7</ele><time>2021-12-08T14:24:21Z</time><name>PT5488</name></trkpt>
<trkpt lat="53.094553" lon="04.892079"><ele>-9.4</ele><time>2021-12-08T14:24:22Z</time><name>PT5489</name></trkpt>
<trkpt lat="53.094544" lon="04.892088"><ele>-9.8</ele><time>2021-12-08T14:24:24Z</time><name>PT5490</name></trkpt>
<trkpt lat="53.094536" lon="04.892095"><ele>-9.4</ele><time>2021-12-08T14:24:24Z</time><name>PT5491</name></trkpt>
<trkpt lat="53.094529" lon="04.892104"><ele>-8.9</ele><time>2021-12-08T14:24:25Z</time><name>PT5492</name></trkpt>
<trkpt lat="53.094522" lon="04.892112"><ele>-8.3</ele><time>2021-12-08T14:24:27Z</time><name>PT5493</name></trkpt>
<trkpt lat="53.094515" lon="04.892117"><ele>-8</ele><time>2021-12-08T14:24:27Z</time><name>PT5494</name></trkpt>
<trkpt lat="53.094507" lon="04.892121"><ele>-7.8</ele><time>2021-12-08T14:24:28Z</time><name>PT5495</name></trkpt>
<trkpt lat="53.094495" lon="04.892127"><ele>-7.8</ele><time>2021-12-08T14:24:30Z</time><name>PT5496</name></trkpt>
<trkpt lat="53.094482" lon="04.892137"><ele>-7.8</ele><time>2021-12-08T14:24:30Z</time><name>PT5497</name></trkpt>
<trkpt lat="53.094470" lon="04.892150"><ele>-7.6</ele><time>2021-12-08T14:24:31Z</time><name>PT5498</name></trkpt>
<trkpt lat="53.094460" lon="04.892166"><ele>-7.4</ele><time>2021-12-08T14:24:33Z</time><name>PT5499</name></trkpt>
<trkpt lat="53.094453" lon="04.892179"><ele>-7.4</ele><time>2021-12-08T14:24:33Z</time><name>PT5500</name></trkpt>
<trkpt lat="53.094446" lon="04.892189"><ele>-7.2</ele><time>2021-12-08T14:24:34Z</time><name>PT5501</name></trkpt>
<trkpt lat="53.094437" lon="04.892196"><ele>-7.2</ele><time>2021-12-08T14:24:36Z</time><name>PT5502</name></trkpt>
<trkpt lat="53.094426" lon="04.892205"><ele>-7.1</ele><time>2021-12-08T14:24:36Z</time><name>PT5503</name></trkpt>
<trkpt lat="53.094416" lon="04.892216"><ele>-7.1</ele><time>2021-12-08T14:24:37Z</time><name>PT5504</name></trkpt>
<trkpt lat="53.094403" lon="04.892227"><ele>-7</ele><time>2021-12-08T14:24:39Z</time><name>PT5505</name></trkpt>
<trkpt lat="53.094393" lon="04.892242"><ele>-7.2</ele><time>2021-12-08T14:24:39Z</time><name>PT5506</name></trkpt>
<trkpt lat="53.094384" lon="04.892257"><ele>-7.3</ele><time>2021-12-08T14:24:40Z</time><name>PT5507</name></trkpt>
<trkpt lat="53.094375" lon="04.892270"><ele>-7.4</ele><time>2021-12-08T14:24:42Z</time><name>PT5508</name></trkpt>
<trkpt lat="53.094366" lon="04.892281"><ele>-7.3</ele><time>2021-12-08T14:24:42Z</time><name>PT5509</name></trkpt>
<trkpt lat="53.094356" lon="04.892287"><ele>-7.8</ele><time>2021-12-08T14:24:43Z</time><name>PT5510</name></trkpt>
<trkpt lat="53.094347" lon="04.892294"><ele>-7.8</ele><time>2021-12-08T14:24:45Z</time><name>PT5511</name></trkpt>
<trkpt lat="53.094335" lon="04.892305"><ele>-7.8</ele><time>2021-12-08T14:24:45Z</time><name>PT5512</name></trkpt>
<trkpt lat="53.094322" lon="04.892322"><ele>-8</ele><time>2021-12-08T14:24:46Z</time><name>PT5513</name></trkpt>
<trkpt lat="53.094312" lon="04.892337"><ele>-8.3</ele><time>2021-12-08T14:24:48Z</time><name>PT5514</name></trkpt>
<trkpt lat="53.094308" lon="04.892347"><ele>-8.1</ele><time>2021-12-08T14:24:48Z</time><name>PT5515</name></trkpt>
<trkpt lat="53.094302" lon="04.892354"><ele>-8.3</ele><time>2021-12-08T14:24:49Z</time><name>PT5516</name></trkpt>
<trkpt lat="53.094294" lon="04.892366"><ele>-8.3</ele><time>2021-12-08T14:24:51Z</time><name>PT5517</name></trkpt>
<trkpt lat="53.094286" lon="04.892377"><ele>-8.4</ele><time>2021-12-08T14:24:51Z</time><name>PT5518</name></trkpt>
<trkpt lat="53.094275" lon="04.892387"><ele>-8.4</ele><time>2021-12-08T14:24:52Z</time><name>PT5519</name></trkpt>
<trkpt lat="53.094262" lon="04.892396"><ele>-8.5</ele><time>2021-12-08T14:24:54Z</time><name>PT5520</name></trkpt>
<trkpt lat="53.094252" lon="04.892406"><ele>-8.4</ele><time>2021-12-08T14:24:54Z</time><name>PT5521</name></trkpt>
<trkpt lat="53.094243" lon="04.892416"><ele>-8.7</ele><time>2021-12-08T14:24:55Z</time><name>PT5522</name></trkpt>
<trkpt lat="53.094235" lon="04.892419"><ele>-8.4</ele><time>2021-12-08T14:24:57Z</time><name>PT5523</name></trkpt>
<trkpt lat="53.094229" lon="04.892425"><ele>-8.3</ele><time>2021-12-08T14:24:57Z</time><name>PT5524</name></trkpt>
<trkpt lat="53.094220" lon="04.892434"><ele>-8.3</ele><time>2021-12-08T14:24:58Z</time><name>PT5525</name></trkpt>
<trkpt lat="53.094208" lon="04.892441"><ele>-8.2</ele><time>2021-12-08T14:25:00Z</time><name>PT5526</name></trkpt>
<trkpt lat="53.094197" lon="04.892452"><ele>-8.1</ele><time>2021-12-08T14:25:00Z</time><name>PT5527</name></trkpt>
<trkpt lat="53.094185" lon="04.892465"><ele>-8.2</ele><time>2021-12-08T14:25:01Z</time><name>PT5528</name></trkpt>
<trkpt lat="53.094176" lon="04.892478"><ele>-8.1</ele><time>2021-12-08T14:25:03Z</time><name>PT5529</name></trkpt>
<trkpt lat="53.094169" lon="04.892488"><ele>-8.1</ele><time>2021-12-08T14:25:03Z</time><name>PT5530</name></trkpt>
<trkpt lat="53.094162" lon="04.892498"><ele>-8.3</ele><time>2021-12-08T14:25:04Z</time><name>PT5531</name></trkpt>
<trkpt lat="53.094153" lon="04.892506"><ele>-8.7</ele><time>2021-12-08T14:25:06Z</time><name>PT5532</name></trkpt>
<trkpt lat="53.094143" lon="04.892517"><ele>-8.9</ele><time>2021-12-08T14:25:06Z</time><name>PT5533</name></trkpt>
<trkpt lat="53.094133" lon="04.892528"><ele>-9</ele><time>2021-12-08T14:25:07Z</time><name>PT5534</name></trkpt>
<trkpt lat="53.094126" lon="04.892539"><ele>-8.9</ele><time>2021-12-08T14:25:09Z</time><name>PT5535</name></trkpt>
<trkpt lat="53.094119" lon="04.892547"><ele>-8.8</ele><time>2021-12-08T14:25:09Z</time><name>PT5536</name></trkpt>
<trkpt lat="53.094113" lon="04.892553"><ele>-8.8</ele><time>2021-12-08T14:25:10Z</time><name>PT5537</name></trkpt>
<trkpt lat="53.094107" lon="04.892561"><ele>-8.7</ele><time>2021-12-08T14:25:12Z</time><name>PT5538</name></trkpt>
<trkpt lat="53.094105" lon="04.892564"><ele>-8.8</ele><time>2021-12-08T14:25:12Z</time><name>PT5539</name></trkpt>
<trkpt lat="53.094107" lon="04.892563"><ele>-9.4</ele><time>2021-12-08T14:25:13Z</time><name>PT5540</name></trkpt>
<trkpt lat="53.094107" lon="04.892563"><ele>-9.7</ele><time>2021-12-08T14:25:15Z</time><name>PT5541</name></trkpt>
<trkpt lat="53.094106" lon="04.892566"><ele>-9.8</ele><time>2021-12-08T14:25:15Z</time><name>PT5542</name></trkpt>
<trkpt lat="53.094105" lon="04.892567"><ele>-9.9</ele><time>2021-12-08T14:25:16Z</time><name>PT5543</name></trkpt>
<trkpt lat="53.094106" lon="04.892564"><ele>-9.9</ele><time>2021-12-08T14:25:18Z</time><name>PT5544</name></trkpt>
<trkpt lat="53.094108" lon="04.892563"><ele>-9.9</ele><time>2021-12-08T14:25:18Z</time><name>PT5545</name></trkpt>
<trkpt lat="53.094106" lon="04.892570"><ele>-9.7</ele><time>2021-12-08T14:25:19Z</time><name>PT5546</name></trkpt>
<trkpt lat="53.094104" lon="04.892570"><ele>-9.4</ele><time>2021-12-08T14:25:21Z</time><name>PT5547</name></trkpt>
<trkpt lat="53.094103" lon="04.892573"><ele>-9.3</ele><time>2021-12-08T14:25:21Z</time><name>PT5548</name></trkpt>
<trkpt lat="53.094103" lon="04.892572"><ele>-9.1</ele><time>2021-12-08T14:25:22Z</time><name>PT5549</name></trkpt>
<trkpt lat="53.094103" lon="04.892575"><ele>-9</ele><time>2021-12-08T14:25:24Z</time><name>PT5550</name></trkpt>
<trkpt lat="53.094101" lon="04.892575"><ele>-9.2</ele><time>2021-12-08T14:25:33Z</time><name>PT5551</name></trkpt>
<trkpt lat="53.094097" lon="04.892583"><ele>-9.3</ele><time>2021-12-08T14:25:33Z</time><name>PT5552</name></trkpt>
<trkpt lat="53.094094" lon="04.892590"><ele>-9.4</ele><time>2021-12-08T14:25:34Z</time><name>PT5553</name></trkpt>
<trkpt lat="53.094085" lon="04.892597"><ele>-9.3</ele><time>2021-12-08T14:25:36Z</time><name>PT5554</name></trkpt>
<trkpt lat="53.094077" lon="04.892604"><ele>-9</ele><time>2021-12-08T14:25:36Z</time><name>PT5555</name></trkpt>
<trkpt lat="53.094069" lon="04.892608"><ele>-9</ele><time>2021-12-08T14:25:37Z</time><name>PT5556</name></trkpt>
<trkpt lat="53.094062" lon="04.892608"><ele>-9.3</ele><time>2021-12-08T14:25:39Z</time><name>PT5557</name></trkpt>
<trkpt lat="53.094052" lon="04.892607"><ele>-9.2</ele><time>2021-12-08T14:25:39Z</time><name>PT5558</name></trkpt>
<trkpt lat="53.094042" lon="04.892605"><ele>-9.3</ele><time>2021-12-08T14:25:40Z</time><name>PT5559</name></trkpt>
<trkpt lat="53.094035" lon="04.892600"><ele>-9</ele><time>2021-12-08T14:25:42Z</time><name>PT5560</name></trkpt>
<trkpt lat="53.094029" lon="04.892599"><ele>-8.9</ele><time>2021-12-08T14:25:42Z</time><name>PT5561</name></trkpt>
<trkpt lat="53.094020" lon="04.892598"><ele>-8.7</ele><time>2021-12-08T14:25:43Z</time><name>PT5562</name></trkpt>
<trkpt lat="53.094013" lon="04.892598"><ele>-8.7</ele><time>2021-12-08T14:25:45Z</time><name>PT5563</name></trkpt>
<trkpt lat="53.094011" lon="04.892597"><ele>-8.8</ele><time>2021-12-08T14:25:45Z</time><name>PT5564</name></trkpt>
<trkpt lat="53.094011" lon="04.892597"><ele>-9.2</ele><time>2021-12-08T14:25:46Z</time><name>PT5565</name></trkpt>
<trkpt lat="53.094010" lon="04.892596"><ele>-9.4</ele><time>2021-12-08T14:25:48Z</time><name>PT5566</name></trkpt>
<trkpt lat="53.094010" lon="04.892595"><ele>-10</ele><time>2021-12-08T14:25:49Z</time><name>PT5567</name></trkpt>
<trkpt lat="53.094012" lon="04.892596"><ele>-10.3</ele><time>2021-12-08T14:25:51Z</time><name>PT5568</name></trkpt>
<trkpt lat="53.094011" lon="04.892596"><ele>-10.5</ele><time>2021-12-08T14:25:51Z</time><name>PT5569</name></trkpt>
<trkpt lat="53.094011" lon="04.892597"><ele>-10.5</ele><time>2021-12-08T14:25:52Z</time><name>PT5570</name></trkpt>
<trkpt lat="53.094009" lon="04.892600"><ele>-10.1</ele><time>2021-12-08T14:25:54Z</time><name>PT5571</name></trkpt>
<trkpt lat="53.094009" lon="04.892600"><ele>-9.7</ele><time>2021-12-08T14:25:54Z</time><name>PT5572</name></trkpt>
<trkpt lat="53.094014" lon="04.892594"><ele>-9.7</ele><time>2021-12-08T14:25:57Z</time><name>PT5573</name></trkpt>
<trkpt lat="53.094020" lon="04.892589"><ele>-10.1</ele><time>2021-12-08T14:25:58Z</time><name>PT5574</name></trkpt>
<trkpt lat="53.094024" lon="04.892582"><ele>-10.4</ele><time>2021-12-08T14:26:00Z</time><name>PT5575</name></trkpt>
<trkpt lat="53.094028" lon="04.892577"><ele>-10.6</ele><time>2021-12-08T14:26:00Z</time><name>PT5576</name></trkpt>
<trkpt lat="53.094029" lon="04.892577"><ele>-10.5</ele><time>2021-12-08T14:26:01Z</time><name>PT5577</name></trkpt>
<trkpt lat="53.094031" lon="04.892574"><ele>-10.4</ele><time>2021-12-08T14:26:03Z</time><name>PT5578</name></trkpt>
<trkpt lat="53.094031" lon="04.892570"><ele>-10.4</ele><time>2021-12-08T14:26:03Z</time><name>PT5579</name></trkpt>
<trkpt lat="53.094031" lon="04.892570"><ele>-10.3</ele><time>2021-12-08T14:26:04Z</time><name>PT5580</name></trkpt>
<trkpt lat="53.094032" lon="04.892569"><ele>-10.1</ele><time>2021-12-08T14:26:06Z</time><name>PT5581</name></trkpt>
<trkpt lat="53.094034" lon="04.892574"><ele>-10.2</ele><time>2021-12-08T14:26:09Z</time><name>PT5582</name></trkpt>
<trkpt lat="53.094037" lon="04.892573"><ele>-10.1</ele><time>2021-12-08T14:26:10Z</time><name>PT5583</name></trkpt>
<trkpt lat="53.094038" lon="04.892574"><ele>-10.1</ele><time>2021-12-08T14:26:12Z</time><name>PT5584</name></trkpt>
<trkpt lat="53.094037" lon="04.892574"><ele>-10</ele><time>2021-12-08T14:26:12Z</time><name>PT5585</name></trkpt>
<trkpt lat="53.094037" lon="04.892576"><ele>-9.9</ele><time>2021-12-08T14:26:13Z</time><name>PT5586</name></trkpt>
<trkpt lat="53.094037" lon="04.892579"><ele>-9.8</ele><time>2021-12-08T14:26:15Z</time><name>PT5587</name></trkpt>
<trkpt lat="53.094042" lon="04.892580"><ele>-9.9</ele><time>2021-12-08T14:26:27Z</time><name>PT5588</name></trkpt>
<trkpt lat="53.094041" lon="04.892583"><ele>-9.9</ele><time>2021-12-08T14:26:27Z</time><name>PT5589</name></trkpt>
<trkpt lat="53.094040" lon="04.892584"><ele>-10</ele><time>2021-12-08T14:26:28Z</time><name>PT5590</name></trkpt>
<trkpt lat="53.094040" lon="04.892585"><ele>-10</ele><time>2021-12-08T14:26:30Z</time><name>PT5591</name></trkpt>
<trkpt lat="53.094034" lon="04.892581"><ele>-9.9</ele><time>2021-12-08T14:27:30Z</time><name>PT5592</name></trkpt>
<trkpt lat="53.094026" lon="04.892576"><ele>-9.9</ele><time>2021-12-08T14:27:30Z</time><name>PT5593</name></trkpt>
<trkpt lat="53.094018" lon="04.892566"><ele>-10.2</ele><time>2021-12-08T14:27:31Z</time><name>PT5594</name></trkpt>
<trkpt lat="53.094009" lon="04.892553"><ele>-10.1</ele><time>2021-12-08T14:27:33Z</time><name>PT5595</name></trkpt>
<trkpt lat="53.093999" lon="04.892545"><ele>-10.1</ele><time>2021-12-08T14:27:33Z</time><name>PT5596</name></trkpt>
<trkpt lat="53.093989" lon="04.892538"><ele>-10</ele><time>2021-12-08T14:27:34Z</time><name>PT5597</name></trkpt>
<trkpt lat="53.093978" lon="04.892531"><ele>-10</ele><time>2021-12-08T14:27:36Z</time><name>PT5598</name></trkpt>
<trkpt lat="53.093969" lon="04.892524"><ele>-10</ele><time>2021-12-08T14:27:36Z</time><name>PT5599</name></trkpt>
<trkpt lat="53.093959" lon="04.892517"><ele>-9.9</ele><time>2021-12-08T14:27:37Z</time><name>PT5600</name></trkpt>
<trkpt lat="53.093949" lon="04.892508"><ele>-10.3</ele><time>2021-12-08T14:27:39Z</time><name>PT5601</name></trkpt>
<trkpt lat="53.093940" lon="04.892501"><ele>-10.4</ele><time>2021-12-08T14:27:39Z</time><name>PT5602</name></trkpt>
<trkpt lat="53.093932" lon="04.892492"><ele>-10.3</ele><time>2021-12-08T14:27:40Z</time><name>PT5603</name></trkpt>
<trkpt lat="53.093925" lon="04.892480"><ele>-10.4</ele><time>2021-12-08T14:27:42Z</time><name>PT5604</name></trkpt>
<trkpt lat="53.093917" lon="04.892473"><ele>-10.5</ele><time>2021-12-08T14:27:42Z</time><name>PT5605</name></trkpt>
<trkpt lat="53.093909" lon="04.892466"><ele>-10.4</ele><time>2021-12-08T14:27:43Z</time><name>PT5606</name></trkpt>
<trkpt lat="53.093900" lon="04.892461"><ele>-10.4</ele><time>2021-12-08T14:27:45Z</time><name>PT5607</name></trkpt>
<trkpt lat="53.093892" lon="04.892454"><ele>-10.4</ele><time>2021-12-08T14:27:45Z</time><name>PT5608</name></trkpt>
<trkpt lat="53.093884" lon="04.892445"><ele>-10.3</ele><time>2021-12-08T14:27:46Z</time><name>PT5609</name></trkpt>
<trkpt lat="53.093876" lon="04.892437"><ele>-10.4</ele><time>2021-12-08T14:27:48Z</time><name>PT5610</name></trkpt>
<trkpt lat="53.093869" lon="04.892429"><ele>-10.4</ele><time>2021-12-08T14:27:48Z</time><name>PT5611</name></trkpt>
<trkpt lat="53.093862" lon="04.892418"><ele>-10.7</ele><time>2021-12-08T14:27:49Z</time><name>PT5612</name></trkpt>
<trkpt lat="53.093853" lon="04.892408"><ele>-11</ele><time>2021-12-08T14:27:51Z</time><name>PT5613</name></trkpt>
<trkpt lat="53.093845" lon="04.892401"><ele>-11.2</ele><time>2021-12-08T14:27:51Z</time><name>PT5614</name></trkpt>
<trkpt lat="53.093836" lon="04.892395"><ele>-11.2</ele><time>2021-12-08T14:27:52Z</time><name>PT5615</name></trkpt>
<trkpt lat="53.093826" lon="04.892391"><ele>-11.5</ele><time>2021-12-08T14:27:54Z</time><name>PT5616</name></trkpt>
<trkpt lat="53.093816" lon="04.892385"><ele>-11.5</ele><time>2021-12-08T14:27:54Z</time><name>PT5617</name></trkpt>
<trkpt lat="53.093808" lon="04.892381"><ele>-11.5</ele><time>2021-12-08T14:27:55Z</time><name>PT5618</name></trkpt>
<trkpt lat="53.093801" lon="04.892372"><ele>-11.3</ele><time>2021-12-08T14:27:57Z</time><name>PT5619</name></trkpt>
<trkpt lat="53.093793" lon="04.892361"><ele>-11.2</ele><time>2021-12-08T14:27:57Z</time><name>PT5620</name></trkpt>
<trkpt lat="53.093784" lon="04.892351"><ele>-11</ele><time>2021-12-08T14:27:58Z</time><name>PT5621</name></trkpt>
<trkpt lat="53.093775" lon="04.892340"><ele>-10.9</ele><time>2021-12-08T14:28:00Z</time><name>PT5622</name></trkpt>
<trkpt lat="53.093765" lon="04.892331"><ele>-11</ele><time>2021-12-08T14:28:00Z</time><name>PT5623</name></trkpt>
<trkpt lat="53.093756" lon="04.892324"><ele>-11</ele><time>2021-12-08T14:28:01Z</time><name>PT5624</name></trkpt>
<trkpt lat="53.093746" lon="04.892318"><ele>-11.2</ele><time>2021-12-08T14:28:03Z</time><name>PT5625</name></trkpt>
<trkpt lat="53.093736" lon="04.892309"><ele>-11.2</ele><time>2021-12-08T14:28:03Z</time><name>PT5626</name></trkpt>
<trkpt lat="53.093728" lon="04.892299"><ele>-11.4</ele><time>2021-12-08T14:28:04Z</time><name>PT5627</name></trkpt>
<trkpt lat="53.093719" lon="04.892290"><ele>-11.4</ele><time>2021-12-08T14:28:06Z</time><name>PT5628</name></trkpt>
<trkpt lat="53.093709" lon="04.892279"><ele>-11.4</ele><time>2021-12-08T14:28:06Z</time><name>PT5629</name></trkpt>
<trkpt lat="53.093701" lon="04.892269"><ele>-11.1</ele><time>2021-12-08T14:28:07Z</time><name>PT5630</name></trkpt>
<trkpt lat="53.093694" lon="04.892263"><ele>-10.9</ele><time>2021-12-08T14:28:09Z</time><name>PT5631</name></trkpt>
<trkpt lat="53.093687" lon="04.892256"><ele>-11</ele><time>2021-12-08T14:28:09Z</time><name>PT5632</name></trkpt>
<trkpt lat="53.093677" lon="04.892248"><ele>-10.9</ele><time>2021-12-08T14:28:10Z</time><name>PT5633</name></trkpt>
<trkpt lat="53.093667" lon="04.892238"><ele>-11</ele><time>2021-12-08T14:28:12Z</time><name>PT5634</name></trkpt>
<trkpt lat="53.093657" lon="04.892230"><ele>-11</ele><time>2021-12-08T14:28:12Z</time><name>PT5635</name></trkpt>
<trkpt lat="53.093648" lon="04.892221"><ele>-11.4</ele><time>2021-12-08T14:28:13Z</time><name>PT5636</name></trkpt>
<trkpt lat="53.093640" lon="04.892210"><ele>-11</ele><time>2021-12-08T14:28:15Z</time><name>PT5637</name></trkpt>
<trkpt lat="53.093632" lon="04.892197"><ele>-11</ele><time>2021-12-08T14:28:15Z</time><name>PT5638</name></trkpt>
<trkpt lat="53.093623" lon="04.892186"><ele>-11</ele><time>2021-12-08T14:28:16Z</time><name>PT5639</name></trkpt>
<trkpt lat="53.093614" lon="04.892174"><ele>-10.9</ele><time>2021-12-08T14:28:18Z</time><name>PT5640</name></trkpt>
<trkpt lat="53.093605" lon="04.892163"><ele>-10.8</ele><time>2021-12-08T14:28:18Z</time><name>PT5641</name></trkpt>
<trkpt lat="53.093597" lon="04.892153"><ele>-10.8</ele><time>2021-12-08T14:28:19Z</time><name>PT5642</name></trkpt>
<trkpt lat="53.093588" lon="04.892143"><ele>-10.7</ele><time>2021-12-08T14:28:21Z</time><name>PT5643</name></trkpt>
<trkpt lat="53.093581" lon="04.892133"><ele>-10.5</ele><time>2021-12-08T14:28:21Z</time><name>PT5644</name></trkpt>
<trkpt lat="53.093575" lon="04.892121"><ele>-10.4</ele><time>2021-12-08T14:28:22Z</time><name>PT5645</name></trkpt>
<trkpt lat="53.093568" lon="04.892106"><ele>-10.6</ele><time>2021-12-08T14:28:24Z</time><name>PT5646</name></trkpt>
<trkpt lat="53.093560" lon="04.892093"><ele>-10.5</ele><time>2021-12-08T14:28:24Z</time><name>PT5647</name></trkpt>
<trkpt lat="53.093552" lon="04.892080"><ele>-10.7</ele><time>2021-12-08T14:28:25Z</time><name>PT5648</name></trkpt>
<trkpt lat="53.093545" lon="04.892066"><ele>-10.6</ele><time>2021-12-08T14:28:27Z</time><name>PT5649</name></trkpt>
<trkpt lat="53.093537" lon="04.892054"><ele>-10.7</ele><time>2021-12-08T14:28:27Z</time><name>PT5650</name></trkpt>
<trkpt lat="53.093528" lon="04.892043"><ele>-10.5</ele><time>2021-12-08T14:28:28Z</time><name>PT5651</name></trkpt>
<trkpt lat="53.093519" lon="04.892034"><ele>-10.5</ele><time>2021-12-08T14:28:30Z</time><name>PT5652</name></trkpt>
<trkpt lat="53.093510" lon="04.892024"><ele>-10.5</ele><time>2021-12-08T14:28:30Z</time><name>PT5653</name></trkpt>
<trkpt lat="53.093503" lon="04.892015"><ele>-10.6</ele><time>2021-12-08T14:28:31Z</time><name>PT5654</name></trkpt>
<trkpt lat="53.093496" lon="04.892003"><ele>-10.7</ele><time>2021-12-08T14:28:33Z</time><name>PT5655</name></trkpt>
<trkpt lat="53.093491" lon="04.891990"><ele>-10.6</ele><time>2021-12-08T14:28:33Z</time><name>PT5656</name></trkpt>
<trkpt lat="53.093486" lon="04.891974"><ele>-10.6</ele><time>2021-12-08T14:28:34Z</time><name>PT5657</name></trkpt>
<trkpt lat="53.093480" lon="04.891961"><ele>-10.6</ele><time>2021-12-08T14:28:36Z</time><name>PT5658</name></trkpt>
<trkpt lat="53.093475" lon="04.891949"><ele>-10.6</ele><time>2021-12-08T14:28:36Z</time><name>PT5659</name></trkpt>
<trkpt lat="53.093471" lon="04.891936"><ele>-10.5</ele><time>2021-12-08T14:28:37Z</time><name>PT5660</name></trkpt>
<trkpt lat="53.093464" lon="04.891923"><ele>-10.5</ele><time>2021-12-08T14:28:39Z</time><name>PT5661</name></trkpt>
<trkpt lat="53.093457" lon="04.891909"><ele>-10.6</ele><time>2021-12-08T14:28:39Z</time><name>PT5662</name></trkpt>
<trkpt lat="53.093451" lon="04.891894"><ele>-10.4</ele><time>2021-12-08T14:28:40Z</time><name>PT5663</name></trkpt>
<trkpt lat="53.093445" lon="04.891879"><ele>-10.3</ele><time>2021-12-08T14:28:42Z</time><name>PT5664</name></trkpt>
<trkpt lat="53.093442" lon="04.891865"><ele>-10.4</ele><time>2021-12-08T14:28:42Z</time><name>PT5665</name></trkpt>
<trkpt lat="53.093438" lon="04.891853"><ele>-10.3</ele><time>2021-12-08T14:28:43Z</time><name>PT5666</name></trkpt>
<trkpt lat="53.093435" lon="04.891839"><ele>-10.3</ele><time>2021-12-08T14:28:45Z</time><name>PT5667</name></trkpt>
<trkpt lat="53.093433" lon="04.891823"><ele>-10.2</ele><time>2021-12-08T14:28:45Z</time><name>PT5668</name></trkpt>
<trkpt lat="53.093432" lon="04.891809"><ele>-10.4</ele><time>2021-12-08T14:28:46Z</time><name>PT5669</name></trkpt>
<trkpt lat="53.093429" lon="04.891795"><ele>-10.4</ele><time>2021-12-08T14:28:48Z</time><name>PT5670</name></trkpt>
<trkpt lat="53.093426" lon="04.891781"><ele>-10.4</ele><time>2021-12-08T14:28:48Z</time><name>PT5671</name></trkpt>
<trkpt lat="53.093422" lon="04.891769"><ele>-10.2</ele><time>2021-12-08T14:28:49Z</time><name>PT5672</name></trkpt>
<trkpt lat="53.093417" lon="04.891757"><ele>-10.2</ele><time>2021-12-08T14:28:51Z</time><name>PT5673</name></trkpt>
<trkpt lat="53.093412" lon="04.891745"><ele>-10</ele><time>2021-12-08T14:28:51Z</time><name>PT5674</name></trkpt>
<trkpt lat="53.093407" lon="04.891732"><ele>-9.9</ele><time>2021-12-08T14:28:52Z</time><name>PT5675</name></trkpt>
<trkpt lat="53.093403" lon="04.891717"><ele>-10</ele><time>2021-12-08T14:28:54Z</time><name>PT5676</name></trkpt>
<trkpt lat="53.093401" lon="04.891702"><ele>-10.2</ele><time>2021-12-08T14:28:54Z</time><name>PT5677</name></trkpt>
<trkpt lat="53.093397" lon="04.891692"><ele>-10.3</ele><time>2021-12-08T14:28:55Z</time><name>PT5678</name></trkpt>
<trkpt lat="53.093393" lon="04.891679"><ele>-10.4</ele><time>2021-12-08T14:28:57Z</time><name>PT5679</name></trkpt>
<trkpt lat="53.093388" lon="04.891665"><ele>-10.3</ele><time>2021-12-08T14:28:57Z</time><name>PT5680</name></trkpt>
<trkpt lat="53.093382" lon="04.891652"><ele>-10.1</ele><time>2021-12-08T14:28:58Z</time><name>PT5681</name></trkpt>
<trkpt lat="53.093379" lon="04.891642"><ele>-10</ele><time>2021-12-08T14:29:00Z</time><name>PT5682</name></trkpt>
<trkpt lat="53.093376" lon="04.891632"><ele>-10</ele><time>2021-12-08T14:29:00Z</time><name>PT5683</name></trkpt>
<trkpt lat="53.093371" lon="04.891621"><ele>-9.9</ele><time>2021-12-08T14:29:01Z</time><name>PT5684</name></trkpt>
<trkpt lat="53.093365" lon="04.891613"><ele>-10.1</ele><time>2021-12-08T14:29:03Z</time><name>PT5685</name></trkpt>
<trkpt lat="53.093359" lon="04.891608"><ele>-10.2</ele><time>2021-12-08T14:29:03Z</time><name>PT5686</name></trkpt>
<trkpt lat="53.093352" lon="04.891599"><ele>-10.6</ele><time>2021-12-08T14:29:04Z</time><name>PT5687</name></trkpt>
<trkpt lat="53.093347" lon="04.891587"><ele>-10.5</ele><time>2021-12-08T14:29:06Z</time><name>PT5688</name></trkpt>
<trkpt lat="53.093342" lon="04.891578"><ele>-10.4</ele><time>2021-12-08T14:29:06Z</time><name>PT5689</name></trkpt>
<trkpt lat="53.093335" lon="04.891569"><ele>-10.2</ele><time>2021-12-08T14:29:07Z</time><name>PT5690</name></trkpt>
<trkpt lat="53.093330" lon="04.891556"><ele>-9.9</ele><time>2021-12-08T14:29:09Z</time><name>PT5691</name></trkpt>
<trkpt lat="53.093324" lon="04.891544"><ele>-9.7</ele><time>2021-12-08T14:29:09Z</time><name>PT5692</name></trkpt>
<trkpt lat="53.093317" lon="04.891534"><ele>-9.9</ele><time>2021-12-08T14:29:10Z</time><name>PT5693</name></trkpt>
<trkpt lat="53.093310" lon="04.891527"><ele>-10</ele><time>2021-12-08T14:29:12Z</time><name>PT5694</name></trkpt>
<trkpt lat="53.093304" lon="04.891518"><ele>-10.1</ele><time>2021-12-08T14:29:12Z</time><name>PT5695</name></trkpt>
<trkpt lat="53.093300" lon="04.891512"><ele>-10.1</ele><time>2021-12-08T14:29:13Z</time><name>PT5696</name></trkpt>
<trkpt lat="53.093295" lon="04.891504"><ele>-10.1</ele><time>2021-12-08T14:29:15Z</time><name>PT5697</name></trkpt>
<trkpt lat="53.093291" lon="04.891499"><ele>-10</ele><time>2021-12-08T14:29:15Z</time><name>PT5698</name></trkpt>
<trkpt lat="53.093287" lon="04.891495"><ele>-9.9</ele><time>2021-12-08T14:29:16Z</time><name>PT5699</name></trkpt>
<trkpt lat="53.093284" lon="04.891498"><ele>-9.8</ele><time>2021-12-08T14:29:18Z</time><name>PT5700</name></trkpt>
<trkpt lat="53.093280" lon="04.891491"><ele>-9.9</ele><time>2021-12-08T14:29:18Z</time><name>PT5701</name></trkpt>
<trkpt lat="53.093282" lon="04.891495"><ele>-9.8</ele><time>2021-12-08T14:29:19Z</time><name>PT5702</name></trkpt>
<trkpt lat="53.093282" lon="04.891494"><ele>-9.8</ele><time>2021-12-08T14:29:21Z</time><name>PT5703</name></trkpt>
<trkpt lat="53.093283" lon="04.891491"><ele>-9.7</ele><time>2021-12-08T14:29:21Z</time><name>PT5704</name></trkpt>
<trkpt lat="53.093283" lon="04.891491"><ele>-9.9</ele><time>2021-12-08T14:29:22Z</time><name>PT5705</name></trkpt>
<trkpt lat="53.093283" lon="04.891489"><ele>-10</ele><time>2021-12-08T14:29:24Z</time><name>PT5706</name></trkpt>
<trkpt lat="53.093283" lon="04.891479"><ele>-9.6</ele><time>2021-12-08T14:30:39Z</time><name>PT5707</name></trkpt>
<trkpt lat="53.093280" lon="04.891474"><ele>-9.5</ele><time>2021-12-08T14:30:39Z</time><name>PT5708</name></trkpt>
<trkpt lat="53.093275" lon="04.891469"><ele>-9.6</ele><time>2021-12-08T14:30:40Z</time><name>PT5709</name></trkpt>
<trkpt lat="53.093270" lon="04.891463"><ele>-9.8</ele><time>2021-12-08T14:30:42Z</time><name>PT5710</name></trkpt>
<trkpt lat="53.093263" lon="04.891456"><ele>-9.9</ele><time>2021-12-08T14:30:42Z</time><name>PT5711</name></trkpt>
<trkpt lat="53.093255" lon="04.891451"><ele>-9.9</ele><time>2021-12-08T14:30:43Z</time><name>PT5712</name></trkpt>
<trkpt lat="53.093249" lon="04.891443"><ele>-10.2</ele><time>2021-12-08T14:30:45Z</time><name>PT5713</name></trkpt>
<trkpt lat="53.093244" lon="04.891436"><ele>-10.3</ele><time>2021-12-08T14:30:45Z</time><name>PT5714</name></trkpt>
<trkpt lat="53.093242" lon="04.891427"><ele>-10.2</ele><time>2021-12-08T14:30:47Z</time><name>PT5715</name></trkpt>
<trkpt lat="53.093238" lon="04.891416"><ele>-10.1</ele><time>2021-12-08T14:30:48Z</time><name>PT5716</name></trkpt>
<trkpt lat="53.093232" lon="04.891410"><ele>-10.1</ele><time>2021-12-08T14:30:48Z</time><name>PT5717</name></trkpt>
<trkpt lat="53.093225" lon="04.891401"><ele>-10.1</ele><time>2021-12-08T14:30:49Z</time><name>PT5718</name></trkpt>
<trkpt lat="53.093218" lon="04.891393"><ele>-10</ele><time>2021-12-08T14:30:51Z</time><name>PT5719</name></trkpt>
<trkpt lat="53.093211" lon="04.891385"><ele>-10.1</ele><time>2021-12-08T14:30:51Z</time><name>PT5720</name></trkpt>
<trkpt lat="53.093206" lon="04.891374"><ele>-10</ele><time>2021-12-08T14:30:52Z</time><name>PT5721</name></trkpt>
<trkpt lat="53.093202" lon="04.891366"><ele>-10</ele><time>2021-12-08T14:30:54Z</time><name>PT5722</name></trkpt>
<trkpt lat="53.093194" lon="04.891355"><ele>-10</ele><time>2021-12-08T14:30:54Z</time><name>PT5723</name></trkpt>
<trkpt lat="53.093187" lon="04.891348"><ele>-10.2</ele><time>2021-12-08T14:30:55Z</time><name>PT5724</name></trkpt>
<trkpt lat="53.093182" lon="04.891340"><ele>-10.4</ele><time>2021-12-08T14:30:57Z</time><name>PT5725</name></trkpt>
<trkpt lat="53.093177" lon="04.891327"><ele>-10.4</ele><time>2021-12-08T14:30:57Z</time><name>PT5726</name></trkpt>
<trkpt lat="53.093172" lon="04.891313"><ele>-10.4</ele><time>2021-12-08T14:30:58Z</time><name>PT5727</name></trkpt>
<trkpt lat="53.093165" lon="04.891299"><ele>-10.6</ele><time>2021-12-08T14:31:00Z</time><name>PT5728</name></trkpt>
<trkpt lat="53.093157" lon="04.891288"><ele>-10.5</ele><time>2021-12-08T14:31:00Z</time><name>PT5729</name></trkpt>
<trkpt lat="53.093151" lon="04.891277"><ele>-10.6</ele><time>2021-12-08T14:31:02Z</time><name>PT5730</name></trkpt>
<trkpt lat="53.093141" lon="04.891266"><ele>-10.6</ele><time>2021-12-08T14:31:03Z</time><name>PT5731</name></trkpt>
<trkpt lat="53.093132" lon="04.891258"><ele>-10.7</ele><time>2021-12-08T14:31:03Z</time><name>PT5732</name></trkpt>
<trkpt lat="53.093124" lon="04.891246"><ele>-10.6</ele><time>2021-12-08T14:31:05Z</time><name>PT5733</name></trkpt>
<trkpt lat="53.093118" lon="04.891232"><ele>-10.4</ele><time>2021-12-08T14:31:06Z</time><name>PT5734</name></trkpt>
<trkpt lat="53.093113" lon="04.891218"><ele>-10.3</ele><time>2021-12-08T14:31:06Z</time><name>PT5735</name></trkpt>
<trkpt lat="53.093106" lon="04.891204"><ele>-10.1</ele><time>2021-12-08T14:31:07Z</time><name>PT5736</name></trkpt>
<trkpt lat="53.093100" lon="04.891189"><ele>-10.1</ele><time>2021-12-08T14:31:09Z</time><name>PT5737</name></trkpt>
<trkpt lat="53.093094" lon="04.891176"><ele>-10.1</ele><time>2021-12-08T14:31:09Z</time><name>PT5738</name></trkpt>
<trkpt lat="53.093086" lon="04.891164"><ele>-10.2</ele><time>2021-12-08T14:31:10Z</time><name>PT5739</name></trkpt>
<trkpt lat="53.093078" lon="04.891151"><ele>-10.2</ele><time>2021-12-08T14:31:12Z</time><name>PT5740</name></trkpt>
<trkpt lat="53.093070" lon="04.891142"><ele>-10.3</ele><time>2021-12-08T14:31:12Z</time><name>PT5741</name></trkpt>
<trkpt lat="53.093061" lon="04.891133"><ele>-10.4</ele><time>2021-12-08T14:31:13Z</time><name>PT5742</name></trkpt>
<trkpt lat="53.093051" lon="04.891122"><ele>-10.5</ele><time>2021-12-08T14:31:15Z</time><name>PT5743</name></trkpt>
<trkpt lat="53.093044" lon="04.891109"><ele>-10.5</ele><time>2021-12-08T14:31:15Z</time><name>PT5744</name></trkpt>
<trkpt lat="53.093037" lon="04.891097"><ele>-11</ele><time>2021-12-08T14:31:16Z</time><name>PT5745</name></trkpt>
<trkpt lat="53.093029" lon="04.891086"><ele>-10.7</ele><time>2021-12-08T14:31:18Z</time><name>PT5746</name></trkpt>
<trkpt lat="53.093021" lon="04.891074"><ele>-10.9</ele><time>2021-12-08T14:31:18Z</time><name>PT5747</name></trkpt>
<trkpt lat="53.093013" lon="04.891062"><ele>-11</ele><time>2021-12-08T14:31:19Z</time><name>PT5748</name></trkpt>
<trkpt lat="53.093004" lon="04.891053"><ele>-10.9</ele><time>2021-12-08T14:31:21Z</time><name>PT5749</name></trkpt>
<trkpt lat="53.092994" lon="04.891042"><ele>-11</ele><time>2021-12-08T14:31:21Z</time><name>PT5750</name></trkpt>
<trkpt lat="53.092984" lon="04.891032"><ele>-11.1</ele><time>2021-12-08T14:31:22Z</time><name>PT5751</name></trkpt>
<trkpt lat="53.092974" lon="04.891023"><ele>-11</ele><time>2021-12-08T14:31:24Z</time><name>PT5752</name></trkpt>
<trkpt lat="53.092964" lon="04.891015"><ele>-11</ele><time>2021-12-08T14:31:24Z</time><name>PT5753</name></trkpt>
<trkpt lat="53.092954" lon="04.891009"><ele>-11.2</ele><time>2021-12-08T14:31:25Z</time><name>PT5754</name></trkpt>
<trkpt lat="53.092944" lon="04.891004"><ele>-11.3</ele><time>2021-12-08T14:31:27Z</time><name>PT5755</name></trkpt>
<trkpt lat="53.092935" lon="04.890995"><ele>-11.1</ele><time>2021-12-08T14:31:27Z</time><name>PT5756</name></trkpt>
<trkpt lat="53.092927" lon="04.890986"><ele>-11</ele><time>2021-12-08T14:31:28Z</time><name>PT5757</name></trkpt>
<trkpt lat="53.092920" lon="04.890974"><ele>-10.9</ele><time>2021-12-08T14:31:30Z</time><name>PT5758</name></trkpt>
<trkpt lat="53.092911" lon="04.890962"><ele>-10.7</ele><time>2021-12-08T14:31:30Z</time><name>PT5759</name></trkpt>
<trkpt lat="53.092900" lon="04.890950"><ele>-10.7</ele><time>2021-12-08T14:31:31Z</time><name>PT5760</name></trkpt>
<trkpt lat="53.092890" lon="04.890938"><ele>-10.7</ele><time>2021-12-08T14:31:33Z</time><name>PT5761</name></trkpt>
<trkpt lat="53.092878" lon="04.890928"><ele>-10.6</ele><time>2021-12-08T14:31:33Z</time><name>PT5762</name></trkpt>
<trkpt lat="53.092867" lon="04.890920"><ele>-10.4</ele><time>2021-12-08T14:31:34Z</time><name>PT5763</name></trkpt>
<trkpt lat="53.092857" lon="04.890910"><ele>-10.3</ele><time>2021-12-08T14:31:36Z</time><name>PT5764</name></trkpt>
<trkpt lat="53.092846" lon="04.890900"><ele>-10.4</ele><time>2021-12-08T14:31:36Z</time><name>PT5765</name></trkpt>
<trkpt lat="53.092836" lon="04.890889"><ele>-10.4</ele><time>2021-12-08T14:31:37Z</time><name>PT5766</name></trkpt>
<trkpt lat="53.092827" lon="04.890879"><ele>-10.5</ele><time>2021-12-08T14:31:39Z</time><name>PT5767</name></trkpt>
<trkpt lat="53.092819" lon="04.890868"><ele>-10.5</ele><time>2021-12-08T14:31:39Z</time><name>PT5768</name></trkpt>
<trkpt lat="53.092808" lon="04.890858"><ele>-10.5</ele><time>2021-12-08T14:31:40Z</time><name>PT5769</name></trkpt>
<trkpt lat="53.092799" lon="04.890847"><ele>-10.4</ele><time>2021-12-08T14:31:42Z</time><name>PT5770</name></trkpt>
<trkpt lat="53.092791" lon="04.890833"><ele>-10.2</ele><time>2021-12-08T14:31:42Z</time><name>PT5771</name></trkpt>
<trkpt lat="53.092782" lon="04.890821"><ele>-10.2</ele><time>2021-12-08T14:31:43Z</time><name>PT5772</name></trkpt>
<trkpt lat="53.092773" lon="04.890809"><ele>-10</ele><time>2021-12-08T14:31:45Z</time><name>PT5773</name></trkpt>
<trkpt lat="53.092763" lon="04.890798"><ele>-9.9</ele><time>2021-12-08T14:31:45Z</time><name>PT5774</name></trkpt>
<trkpt lat="53.092755" lon="04.890787"><ele>-9.9</ele><time>2021-12-08T14:31:46Z</time><name>PT5775</name></trkpt>
<trkpt lat="53.092747" lon="04.890777"><ele>-9.9</ele><time>2021-12-08T14:31:48Z</time><name>PT5776</name></trkpt>
<trkpt lat="53.092738" lon="04.890768"><ele>-9.9</ele><time>2021-12-08T14:31:48Z</time><name>PT5777</name></trkpt>
<trkpt lat="53.092726" lon="04.890759"><ele>-10</ele><time>2021-12-08T14:31:49Z</time><name>PT5778</name></trkpt>
<trkpt lat="53.092717" lon="04.890748"><ele>-9.9</ele><time>2021-12-08T14:31:51Z</time><name>PT5779</name></trkpt>
<trkpt lat="53.092709" lon="04.890738"><ele>-10</ele><time>2021-12-08T14:31:51Z</time><name>PT5780</name></trkpt>
<trkpt lat="53.092701" lon="04.890727"><ele>-10.1</ele><time>2021-12-08T14:31:52Z</time><name>PT5781</name></trkpt>
<trkpt lat="53.092693" lon="04.890713"><ele>-10.3</ele><time>2021-12-08T14:31:54Z</time><name>PT5782</name></trkpt>
<trkpt lat="53.092686" lon="04.890699"><ele>-10.2</ele><time>2021-12-08T14:31:54Z</time><name>PT5783</name></trkpt>
<trkpt lat="53.092680" lon="04.890688"><ele>-10.3</ele><time>2021-12-08T14:31:55Z</time><name>PT5784</name></trkpt>
<trkpt lat="53.092672" lon="04.890678"><ele>-10.3</ele><time>2021-12-08T14:31:57Z</time><name>PT5785</name></trkpt>
<trkpt lat="53.092663" lon="04.890671"><ele>-10.3</ele><time>2021-12-08T14:31:57Z</time><name>PT5786</name></trkpt>
<trkpt lat="53.092659" lon="04.890669"><ele>-10.4</ele><time>2021-12-08T14:31:58Z</time><name>PT5787</name></trkpt>
<trkpt lat="53.092657" lon="04.890666"><ele>-10.3</ele><time>2021-12-08T14:32:00Z</time><name>PT5788</name></trkpt>
<trkpt lat="53.092657" lon="04.890667"><ele>-10.4</ele><time>2021-12-08T14:32:00Z</time><name>PT5789</name></trkpt>
<trkpt lat="53.092656" lon="04.890664"><ele>-10.4</ele><time>2021-12-08T14:32:01Z</time><name>PT5790</name></trkpt>
<trkpt lat="53.092657" lon="04.890664"><ele>-10.3</ele><time>2021-12-08T14:32:03Z</time><name>PT5791</name></trkpt>
<trkpt lat="53.092659" lon="04.890671"><ele>-9.9</ele><time>2021-12-08T14:32:09Z</time><name>PT5792</name></trkpt>
<trkpt lat="53.092663" lon="04.890678"><ele>-10.3</ele><time>2021-12-08T14:32:09Z</time><name>PT5793</name></trkpt>
<trkpt lat="53.092665" lon="04.890678"><ele>-10.6</ele><time>2021-12-08T14:32:10Z</time><name>PT5794</name></trkpt>
<trkpt lat="53.092666" lon="04.890680"><ele>-10.9</ele><time>2021-12-08T14:32:12Z</time><name>PT5795</name></trkpt>
<trkpt lat="53.092666" lon="04.890684"><ele>-10.8</ele><time>2021-12-08T14:32:12Z</time><name>PT5796</name></trkpt>
<trkpt lat="53.092668" lon="04.890681"><ele>-10.5</ele><time>2021-12-08T14:33:27Z</time><name>PT5797</name></trkpt>
<trkpt lat="53.092666" lon="04.890677"><ele>-10.4</ele><time>2021-12-08T14:33:28Z</time><name>PT5798</name></trkpt>
<trkpt lat="53.092662" lon="04.890672"><ele>-10.5</ele><time>2021-12-08T14:33:30Z</time><name>PT5799</name></trkpt>
<trkpt lat="53.092655" lon="04.890658"><ele>-10.9</ele><time>2021-12-08T14:33:36Z</time><name>PT5800</name></trkpt>
<trkpt lat="53.092647" lon="04.890646"><ele>-10.7</ele><time>2021-12-08T14:33:37Z</time><name>PT5801</name></trkpt>
<trkpt lat="53.092640" lon="04.890631"><ele>-10.9</ele><time>2021-12-08T14:33:39Z</time><name>PT5802</name></trkpt>
<trkpt lat="53.092633" lon="04.890619"><ele>-10.7</ele><time>2021-12-08T14:33:39Z</time><name>PT5803</name></trkpt>
<trkpt lat="53.092625" lon="04.890608"><ele>-10.7</ele><time>2021-12-08T14:33:40Z</time><name>PT5804</name></trkpt>
<trkpt lat="53.092619" lon="04.890598"><ele>-10.8</ele><time>2021-12-08T14:33:42Z</time><name>PT5805</name></trkpt>
<trkpt lat="53.092614" lon="04.890586"><ele>-10.7</ele><time>2021-12-08T14:33:42Z</time><name>PT5806</name></trkpt>
<trkpt lat="53.092608" lon="04.890576"><ele>-10.7</ele><time>2021-12-08T14:33:43Z</time><name>PT5807</name></trkpt>
<trkpt lat="53.092602" lon="04.890568"><ele>-10.5</ele><time>2021-12-08T14:33:45Z</time><name>PT5808</name></trkpt>
<trkpt lat="53.092596" lon="04.890560"><ele>-10.4</ele><time>2021-12-08T14:33:45Z</time><name>PT5809</name></trkpt>
<trkpt lat="53.092592" lon="04.890552"><ele>-10.6</ele><time>2021-12-08T14:33:46Z</time><name>PT5810</name></trkpt>
<trkpt lat="53.092588" lon="04.890543"><ele>-10.6</ele><time>2021-12-08T14:33:48Z</time><name>PT5811</name></trkpt>
<trkpt lat="53.092584" lon="04.890535"><ele>-10.7</ele><time>2021-12-08T14:33:48Z</time><name>PT5812</name></trkpt>
<trkpt lat="53.092581" lon="04.890527"><ele>-10.7</ele><time>2021-12-08T14:33:49Z</time><name>PT5813</name></trkpt>
<trkpt lat="53.092577" lon="04.890520"><ele>-10.6</ele><time>2021-12-08T14:33:51Z</time><name>PT5814</name></trkpt>
<trkpt lat="53.092573" lon="04.890513"><ele>-10.6</ele><time>2021-12-08T14:33:51Z</time><name>PT5815</name></trkpt>
<trkpt lat="53.092569" lon="04.890506"><ele>-10.5</ele><time>2021-12-08T14:33:52Z</time><name>PT5816</name></trkpt>
<trkpt lat="53.092563" lon="04.890499"><ele>-10.6</ele><time>2021-12-08T14:33:54Z</time><name>PT5817</name></trkpt>
<trkpt lat="53.092558" lon="04.890491"><ele>-10.6</ele><time>2021-12-08T14:33:54Z</time><name>PT5818</name></trkpt>
<trkpt lat="53.092553" lon="04.890483"><ele>-10.7</ele><time>2021-12-08T14:33:55Z</time><name>PT5819</name></trkpt>
<trkpt lat="53.092549" lon="04.890479"><ele>-10.8</ele><time>2021-12-08T14:33:57Z</time><name>PT5820</name></trkpt>
<trkpt lat="53.092545" lon="04.890474"><ele>-10.8</ele><time>2021-12-08T14:33:57Z</time><name>PT5821</name></trkpt>
<trkpt lat="53.092542" lon="04.890467"><ele>-10.9</ele><time>2021-12-08T14:33:58Z</time><name>PT5822</name></trkpt>
<trkpt lat="53.092539" lon="04.890459"><ele>-10.7</ele><time>2021-12-08T14:34:00Z</time><name>PT5823</name></trkpt>
<trkpt lat="53.092534" lon="04.890451"><ele>-10.7</ele><time>2021-12-08T14:34:00Z</time><name>PT5824</name></trkpt>
<trkpt lat="53.092530" lon="04.890443"><ele>-10.7</ele><time>2021-12-08T14:34:01Z</time><name>PT5825</name></trkpt>
<trkpt lat="53.092525" lon="04.890434"><ele>-10.6</ele><time>2021-12-08T14:34:03Z</time><name>PT5826</name></trkpt>
<trkpt lat="53.092519" lon="04.890425"><ele>-10.7</ele><time>2021-12-08T14:34:03Z</time><name>PT5827</name></trkpt>
<trkpt lat="53.092513" lon="04.890419"><ele>-11</ele><time>2021-12-08T14:34:04Z</time><name>PT5828</name></trkpt>
<trkpt lat="53.092509" lon="04.890411"><ele>-10.8</ele><time>2021-12-08T14:34:06Z</time><name>PT5829</name></trkpt>
<trkpt lat="53.092506" lon="04.890402"><ele>-10.8</ele><time>2021-12-08T14:34:06Z</time><name>PT5830</name></trkpt>
<trkpt lat="53.092503" lon="04.890394"><ele>-10.6</ele><time>2021-12-08T14:34:07Z</time><name>PT5831</name></trkpt>
<trkpt lat="53.092497" lon="04.890387"><ele>-10.3</ele><time>2021-12-08T14:34:09Z</time><name>PT5832</name></trkpt>
<trkpt lat="53.092488" lon="04.890380"><ele>-10.3</ele><time>2021-12-08T14:34:09Z</time><name>PT5833</name></trkpt>
<trkpt lat="53.092481" lon="04.890368"><ele>-10.2</ele><time>2021-12-08T14:34:10Z</time><name>PT5834</name></trkpt>
<trkpt lat="53.092477" lon="04.890352"><ele>-10.3</ele><time>2021-12-08T14:34:12Z</time><name>PT5835</name></trkpt>
<trkpt lat="53.092472" lon="04.890339"><ele>-10.4</ele><time>2021-12-08T14:34:12Z</time><name>PT5836</name></trkpt>
<trkpt lat="53.092465" lon="04.890331"><ele>-10.4</ele><time>2021-12-08T14:34:13Z</time><name>PT5837</name></trkpt>
<trkpt lat="53.092460" lon="04.890322"><ele>-10.3</ele><time>2021-12-08T14:34:15Z</time><name>PT5838</name></trkpt>
<trkpt lat="53.092455" lon="04.890309"><ele>-10.4</ele><time>2021-12-08T14:34:15Z</time><name>PT5839</name></trkpt>
<trkpt lat="53.092449" lon="04.890298"><ele>-10.6</ele><time>2021-12-08T14:34:16Z</time><name>PT5840</name></trkpt>
<trkpt lat="53.092443" lon="04.890288"><ele>-10.6</ele><time>2021-12-08T14:34:18Z</time><name>PT5841</name></trkpt>
<trkpt lat="53.092437" lon="04.890279"><ele>-10.6</ele><time>2021-12-08T14:34:18Z</time><name>PT5842</name></trkpt>
<trkpt lat="53.092431" lon="04.890268"><ele>-10.8</ele><time>2021-12-08T14:34:19Z</time><name>PT5843</name></trkpt>
<trkpt lat="53.092425" lon="04.890259"><ele>-10.8</ele><time>2021-12-08T14:34:21Z</time><name>PT5844</name></trkpt>
<trkpt lat="53.092419" lon="04.890246"><ele>-10.7</ele><time>2021-12-08T14:34:21Z</time><name>PT5845</name></trkpt>
<trkpt lat="53.092413" lon="04.890235"><ele>-10.8</ele><time>2021-12-08T14:34:22Z</time><name>PT5846</name></trkpt>
<trkpt lat="53.092408" lon="04.890227"><ele>-11</ele><time>2021-12-08T14:34:24Z</time><name>PT5847</name></trkpt>
<trkpt lat="53.092403" lon="04.890214"><ele>-11</ele><time>2021-12-08T14:34:24Z</time><name>PT5848</name></trkpt>
<trkpt lat="53.092396" lon="04.890202"><ele>-11</ele><time>2021-12-08T14:34:25Z</time><name>PT5849</name></trkpt>
<trkpt lat="53.092388" lon="04.890191"><ele>-11</ele><time>2021-12-08T14:34:27Z</time><name>PT5850</name></trkpt>
<trkpt lat="53.092381" lon="04.890179"><ele>-11</ele><time>2021-12-08T14:34:27Z</time><name>PT5851</name></trkpt>
<trkpt lat="53.092374" lon="04.890166"><ele>-10.9</ele><time>2021-12-08T14:34:28Z</time><name>PT5852</name></trkpt>
<trkpt lat="53.092367" lon="04.890154"><ele>-10.8</ele><time>2021-12-08T14:34:30Z</time><name>PT5853</name></trkpt>
<trkpt lat="53.092362" lon="04.890140"><ele>-10.9</ele><time>2021-12-08T14:34:30Z</time><name>PT5854</name></trkpt>
<trkpt lat="53.092357" lon="04.890125"><ele>-11</ele><time>2021-12-08T14:34:31Z</time><name>PT5855</name></trkpt>
<trkpt lat="53.092351" lon="04.890113"><ele>-11.1</ele><time>2021-12-08T14:34:33Z</time><name>PT5856</name></trkpt>
<trkpt lat="53.092344" lon="04.890102"><ele>-11.1</ele><time>2021-12-08T14:34:33Z</time><name>PT5857</name></trkpt>
<trkpt lat="53.092337" lon="04.890091"><ele>-11.2</ele><time>2021-12-08T14:34:34Z</time><name>PT5858</name></trkpt>
<trkpt lat="53.092331" lon="04.890080"><ele>-11</ele><time>2021-12-08T14:34:36Z</time><name>PT5859</name></trkpt>
<trkpt lat="53.092324" lon="04.890067"><ele>-11</ele><time>2021-12-08T14:34:36Z</time><name>PT5860</name></trkpt>
<trkpt lat="53.092319" lon="04.890053"><ele>-10.7</ele><time>2021-12-08T14:34:37Z</time><name>PT5861</name></trkpt>
<trkpt lat="53.092314" lon="04.890040"><ele>-10.7</ele><time>2021-12-08T14:34:39Z</time><name>PT5862</name></trkpt>
<trkpt lat="53.092307" lon="04.890026"><ele>-10.7</ele><time>2021-12-08T14:34:39Z</time><name>PT5863</name></trkpt>
<trkpt lat="53.092299" lon="04.890011"><ele>-10.8</ele><time>2021-12-08T14:34:40Z</time><name>PT5864</name></trkpt>
<trkpt lat="53.092292" lon="04.889998"><ele>-11</ele><time>2021-12-08T14:34:42Z</time><name>PT5865</name></trkpt>
<trkpt lat="53.092286" lon="04.889984"><ele>-11</ele><time>2021-12-08T14:34:42Z</time><name>PT5866</name></trkpt>
<trkpt lat="53.092282" lon="04.889968"><ele>-11</ele><time>2021-12-08T14:34:43Z</time><name>PT5867</name></trkpt>
<trkpt lat="53.092278" lon="04.889954"><ele>-11</ele><time>2021-12-08T14:34:45Z</time><name>PT5868</name></trkpt>
<trkpt lat="53.092272" lon="04.889942"><ele>-10.9</ele><time>2021-12-08T14:34:45Z</time><name>PT5869</name></trkpt>
<trkpt lat="53.092265" lon="04.889929"><ele>-11</ele><time>2021-12-08T14:34:46Z</time><name>PT5870</name></trkpt>
<trkpt lat="53.092259" lon="04.889919"><ele>-11</ele><time>2021-12-08T14:34:48Z</time><name>PT5871</name></trkpt>
<trkpt lat="53.092253" lon="04.889905"><ele>-11.2</ele><time>2021-12-08T14:34:48Z</time><name>PT5872</name></trkpt>
<trkpt lat="53.092248" lon="04.889889"><ele>-11</ele><time>2021-12-08T14:34:49Z</time><name>PT5873</name></trkpt>
<trkpt lat="53.092241" lon="04.889874"><ele>-11.1</ele><time>2021-12-08T14:34:51Z</time><name>PT5874</name></trkpt>
<trkpt lat="53.092233" lon="04.889863"><ele>-11</ele><time>2021-12-08T14:34:51Z</time><name>PT5875</name></trkpt>
<trkpt lat="53.092225" lon="04.889850"><ele>-11</ele><time>2021-12-08T14:34:52Z</time><name>PT5876</name></trkpt>
<trkpt lat="53.092216" lon="04.889838"><ele>-10.9</ele><time>2021-12-08T14:34:54Z</time><name>PT5877</name></trkpt>
<trkpt lat="53.092207" lon="04.889824"><ele>-11</ele><time>2021-12-08T14:34:54Z</time><name>PT5878</name></trkpt>
<trkpt lat="53.092199" lon="04.889809"><ele>-10.9</ele><time>2021-12-08T14:34:55Z</time><name>PT5879</name></trkpt>
<trkpt lat="53.092191" lon="04.889800"><ele>-11.2</ele><time>2021-12-08T14:34:57Z</time><name>PT5880</name></trkpt>
<trkpt lat="53.092183" lon="04.889790"><ele>-11.6</ele><time>2021-12-08T14:34:57Z</time><name>PT5881</name></trkpt>
<trkpt lat="53.092174" lon="04.889783"><ele>-12</ele><time>2021-12-08T14:34:58Z</time><name>PT5882</name></trkpt>
<trkpt lat="53.092163" lon="04.889774"><ele>-12.2</ele><time>2021-12-08T14:35:00Z</time><name>PT5883</name></trkpt>
<trkpt lat="53.092153" lon="04.889765"><ele>-12</ele><time>2021-12-08T14:35:00Z</time><name>PT5884</name></trkpt>
<trkpt lat="53.092146" lon="04.889760"><ele>-11.9</ele><time>2021-12-08T14:35:01Z</time><name>PT5885</name></trkpt>
<trkpt lat="53.092140" lon="04.889753"><ele>-11.5</ele><time>2021-12-08T14:35:03Z</time><name>PT5886</name></trkpt>
<trkpt lat="53.092134" lon="04.889747"><ele>-11.7</ele><time>2021-12-08T14:35:03Z</time><name>PT5887</name></trkpt>
<trkpt lat="53.092126" lon="04.889734"><ele>-11.8</ele><time>2021-12-08T14:35:04Z</time><name>PT5888</name></trkpt>
<trkpt lat="53.092119" lon="04.889726"><ele>-11.4</ele><time>2021-12-08T14:35:06Z</time><name>PT5889</name></trkpt>
<trkpt lat="53.092111" lon="04.889720"><ele>-11.3</ele><time>2021-12-08T14:35:06Z</time><name>PT5890</name></trkpt>
<trkpt lat="53.092104" lon="04.889711"><ele>-11.1</ele><time>2021-12-08T14:35:07Z</time><name>PT5891</name></trkpt>
<trkpt lat="53.092101" lon="04.889697"><ele>-11</ele><time>2021-12-08T14:35:09Z</time><name>PT5892</name></trkpt>
<trkpt lat="53.092099" lon="04.889686"><ele>-11.1</ele><time>2021-12-08T14:35:09Z</time><name>PT5893</name></trkpt>
<trkpt lat="53.092094" lon="04.889672"><ele>-11</ele><time>2021-12-08T14:35:10Z</time><name>PT5894</name></trkpt>
<trkpt lat="53.092087" lon="04.889661"><ele>-10.7</ele><time>2021-12-08T14:35:12Z</time><name>PT5895</name></trkpt>
<trkpt lat="53.092080" lon="04.889651"><ele>-10.5</ele><time>2021-12-08T14:35:12Z</time><name>PT5896</name></trkpt>
<trkpt lat="53.092073" lon="04.889637"><ele>-10.4</ele><time>2021-12-08T14:35:13Z</time><name>PT5897</name></trkpt>
<trkpt lat="53.092067" lon="04.889624"><ele>-10.5</ele><time>2021-12-08T14:35:15Z</time><name>PT5898</name></trkpt>
<trkpt lat="53.092061" lon="04.889611"><ele>-10.6</ele><time>2021-12-08T14:35:15Z</time><name>PT5899</name></trkpt>
<trkpt lat="53.092056" lon="04.889599"><ele>-10.8</ele><time>2021-12-08T14:35:16Z</time><name>PT5900</name></trkpt>
<trkpt lat="53.092050" lon="04.889587"><ele>-10.7</ele><time>2021-12-08T14:35:18Z</time><name>PT5901</name></trkpt>
<trkpt lat="53.092044" lon="04.889576"><ele>-10.6</ele><time>2021-12-08T14:35:18Z</time><name>PT5902</name></trkpt>
<trkpt lat="53.092040" lon="04.889564"><ele>-10.6</ele><time>2021-12-08T14:35:19Z</time><name>PT5903</name></trkpt>
<trkpt lat="53.092036" lon="04.889548"><ele>-10.4</ele><time>2021-12-08T14:35:21Z</time><name>PT5904</name></trkpt>
<trkpt lat="53.092033" lon="04.889540"><ele>-10.4</ele><time>2021-12-08T14:35:21Z</time><name>PT5905</name></trkpt>
<trkpt lat="53.092028" lon="04.889536"><ele>-10.4</ele><time>2021-12-08T14:35:22Z</time><name>PT5906</name></trkpt>
<trkpt lat="53.092023" lon="04.889526"><ele>-10.2</ele><time>2021-12-08T14:35:24Z</time><name>PT5907</name></trkpt>
<trkpt lat="53.092018" lon="04.889513"><ele>-10.1</ele><time>2021-12-08T14:35:24Z</time><name>PT5908</name></trkpt>
<trkpt lat="53.092018" lon="04.889514"><ele>-10.3</ele><time>2021-12-08T14:35:25Z</time><name>PT5909</name></trkpt>
<trkpt lat="53.092018" lon="04.889503"><ele>-10.4</ele><time>2021-12-08T14:35:27Z</time><name>PT5910</name></trkpt>
<trkpt lat="53.092019" lon="04.889503"><ele>-10.4</ele><time>2021-12-08T14:35:27Z</time><name>PT5911</name></trkpt>
<trkpt lat="53.092019" lon="04.889504"><ele>-10.5</ele><time>2021-12-08T14:35:28Z</time><name>PT5912</name></trkpt>
<trkpt lat="53.092019" lon="04.889505"><ele>-10.4</ele><time>2021-12-08T14:35:30Z</time><name>PT5913</name></trkpt>
<trkpt lat="53.092018" lon="04.889509"><ele>-10.5</ele><time>2021-12-08T14:35:30Z</time><name>PT5914</name></trkpt>
<trkpt lat="53.092020" lon="04.889515"><ele>-10.7</ele><time>2021-12-08T14:35:31Z</time><name>PT5915</name></trkpt>
<trkpt lat="53.092020" lon="04.889516"><ele>-10.6</ele><time>2021-12-08T14:35:33Z</time><name>PT5916</name></trkpt>
<trkpt lat="53.092020" lon="04.889516"><ele>-10.4</ele><time>2021-12-08T14:35:33Z</time><name>PT5917</name></trkpt>
<trkpt lat="53.092020" lon="04.889517"><ele>-10.6</ele><time>2021-12-08T14:35:34Z</time><name>PT5918</name></trkpt>
<trkpt lat="53.092023" lon="04.889518"><ele>-10.8</ele><time>2021-12-08T14:35:45Z</time><name>PT5919</name></trkpt>
<trkpt lat="53.092024" lon="04.889516"><ele>-10.7</ele><time>2021-12-08T14:35:46Z</time><name>PT5920</name></trkpt>
<trkpt lat="53.092026" lon="04.889517"><ele>-10.5</ele><time>2021-12-08T14:35:48Z</time><name>PT5921</name></trkpt>
<trkpt lat="53.092026" lon="04.889514"><ele>-11.8</ele><time>2021-12-08T14:36:48Z</time><name>PT5922</name></trkpt>
<trkpt lat="53.092021" lon="04.889508"><ele>-11.6</ele><time>2021-12-08T14:36:48Z</time><name>PT5923</name></trkpt>
<trkpt lat="53.092016" lon="04.889498"><ele>-11.4</ele><time>2021-12-08T14:36:49Z</time><name>PT5924</name></trkpt>
<trkpt lat="53.092012" lon="04.889487"><ele>-11</ele><time>2021-12-08T14:36:51Z</time><name>PT5925</name></trkpt>
<trkpt lat="53.092007" lon="04.889476"><ele>-10.8</ele><time>2021-12-08T14:36:51Z</time><name>PT5926</name></trkpt>
<trkpt lat="53.092004" lon="04.889467"><ele>-10.9</ele><time>2021-12-08T14:36:52Z</time><name>PT5927</name></trkpt>
<trkpt lat="53.092002" lon="04.889461"><ele>-10.6</ele><time>2021-12-08T14:36:54Z</time><name>PT5928</name></trkpt>
<trkpt lat="53.092001" lon="04.889459"><ele>-10.4</ele><time>2021-12-08T14:36:54Z</time><name>PT5929</name></trkpt>
<trkpt lat="53.092000" lon="04.889459"><ele>-10.4</ele><time>2021-12-08T14:36:55Z</time><name>PT5930</name></trkpt>
<trkpt lat="53.092000" lon="04.889460"><ele>-10.3</ele><time>2021-12-08T14:36:57Z</time><name>PT5931</name></trkpt>
<trkpt lat="53.091997" lon="04.889458"><ele>-10.4</ele><time>2021-12-08T14:36:57Z</time><name>PT5932</name></trkpt>
<trkpt lat="53.091995" lon="04.889456"><ele>-10.5</ele><time>2021-12-08T14:36:58Z</time><name>PT5933</name></trkpt>
<trkpt lat="53.091991" lon="04.889453"><ele>-10.7</ele><time>2021-12-08T14:37:00Z</time><name>PT5934</name></trkpt>
<trkpt lat="53.091986" lon="04.889444"><ele>-10.9</ele><time>2021-12-08T14:37:00Z</time><name>PT5935</name></trkpt>
<trkpt lat="53.091980" lon="04.889433"><ele>-11</ele><time>2021-12-08T14:37:01Z</time><name>PT5936</name></trkpt>
<trkpt lat="53.091974" lon="04.889428"><ele>-11.1</ele><time>2021-12-08T14:37:03Z</time><name>PT5937</name></trkpt>
<trkpt lat="53.091971" lon="04.889423"><ele>-11.1</ele><time>2021-12-08T14:37:03Z</time><name>PT5938</name></trkpt>
<trkpt lat="53.091967" lon="04.889416"><ele>-11.1</ele><time>2021-12-08T14:37:04Z</time><name>PT5939</name></trkpt>
<trkpt lat="53.091962" lon="04.889406"><ele>-11.2</ele><time>2021-12-08T14:37:06Z</time><name>PT5940</name></trkpt>
<trkpt lat="53.091956" lon="04.889394"><ele>-11.2</ele><time>2021-12-08T14:37:06Z</time><name>PT5941</name></trkpt>
<trkpt lat="53.091951" lon="04.889380"><ele>-11.1</ele><time>2021-12-08T14:37:07Z</time><name>PT5942</name></trkpt>
<trkpt lat="53.091946" lon="04.889366"><ele>-10.8</ele><time>2021-12-08T14:37:09Z</time><name>PT5943</name></trkpt>
<trkpt lat="53.091940" lon="04.889352"><ele>-10.9</ele><time>2021-12-08T14:37:09Z</time><name>PT5944</name></trkpt>
<trkpt lat="53.091934" lon="04.889338"><ele>-10.8</ele><time>2021-12-08T14:37:10Z</time><name>PT5945</name></trkpt>
<trkpt lat="53.091928" lon="04.889325"><ele>-10.8</ele><time>2021-12-08T14:37:12Z</time><name>PT5946</name></trkpt>
<trkpt lat="53.091922" lon="04.889314"><ele>-10.8</ele><time>2021-12-08T14:37:12Z</time><name>PT5947</name></trkpt>
<trkpt lat="53.091917" lon="04.889300"><ele>-10.7</ele><time>2021-12-08T14:37:13Z</time><name>PT5948</name></trkpt>
<trkpt lat="53.091912" lon="04.889287"><ele>-10.8</ele><time>2021-12-08T14:37:15Z</time><name>PT5949</name></trkpt>
<trkpt lat="53.091907" lon="04.889274"><ele>-10.7</ele><time>2021-12-08T14:37:15Z</time><name>PT5950</name></trkpt>
<trkpt lat="53.091901" lon="04.889262"><ele>-10.8</ele><time>2021-12-08T14:37:16Z</time><name>PT5951</name></trkpt>
<trkpt lat="53.091894" lon="04.889251"><ele>-10.8</ele><time>2021-12-08T14:37:18Z</time><name>PT5952</name></trkpt>
<trkpt lat="53.091889" lon="04.889239"><ele>-10.8</ele><time>2021-12-08T14:37:18Z</time><name>PT5953</name></trkpt>
<trkpt lat="53.091883" lon="04.889226"><ele>-10.7</ele><time>2021-12-08T14:37:19Z</time><name>PT5954</name></trkpt>
<trkpt lat="53.091877" lon="04.889209"><ele>-10.6</ele><time>2021-12-08T14:37:21Z</time><name>PT5955</name></trkpt>
<trkpt lat="53.091870" lon="04.889194"><ele>-10.5</ele><time>2021-12-08T14:37:21Z</time><name>PT5956</name></trkpt>
<trkpt lat="53.091865" lon="04.889180"><ele>-10.5</ele><time>2021-12-08T14:37:22Z</time><name>PT5957</name></trkpt>
<trkpt lat="53.091858" lon="04.889168"><ele>-10.7</ele><time>2021-12-08T14:37:24Z</time><name>PT5958</name></trkpt>
<trkpt lat="53.091851" lon="04.889158"><ele>-10.7</ele><time>2021-12-08T14:37:24Z</time><name>PT5959</name></trkpt>
<trkpt lat="53.091846" lon="04.889143"><ele>-10.7</ele><time>2021-12-08T14:37:25Z</time><name>PT5960</name></trkpt>
<trkpt lat="53.091839" lon="04.889127"><ele>-10.6</ele><time>2021-12-08T14:37:27Z</time><name>PT5961</name></trkpt>
<trkpt lat="53.091834" lon="04.889111"><ele>-10.6</ele><time>2021-12-08T14:37:27Z</time><name>PT5962</name></trkpt>
<trkpt lat="53.091829" lon="04.889097"><ele>-10.3</ele><time>2021-12-08T14:37:28Z</time><name>PT5963</name></trkpt>
<trkpt lat="53.091822" lon="04.889086"><ele>-10.2</ele><time>2021-12-08T14:37:30Z</time><name>PT5964</name></trkpt>
<trkpt lat="53.091814" lon="04.889076"><ele>-10.3</ele><time>2021-12-08T14:37:30Z</time><name>PT5965</name></trkpt>
<trkpt lat="53.091808" lon="04.889063"><ele>-10.4</ele><time>2021-12-08T14:37:31Z</time><name>PT5966</name></trkpt>
<trkpt lat="53.091802" lon="04.889049"><ele>-10.6</ele><time>2021-12-08T14:37:33Z</time><name>PT5967</name></trkpt>
<trkpt lat="53.091797" lon="04.889033"><ele>-10.7</ele><time>2021-12-08T14:37:33Z</time><name>PT5968</name></trkpt>
<trkpt lat="53.091791" lon="04.889018"><ele>-10.8</ele><time>2021-12-08T14:37:34Z</time><name>PT5969</name></trkpt>
<trkpt lat="53.091786" lon="04.889003"><ele>-10.6</ele><time>2021-12-08T14:37:36Z</time><name>PT5970</name></trkpt>
<trkpt lat="53.091778" lon="04.888991"><ele>-10.6</ele><time>2021-12-08T14:37:36Z</time><name>PT5971</name></trkpt>
<trkpt lat="53.091770" lon="04.888979"><ele>-10.6</ele><time>2021-12-08T14:37:37Z</time><name>PT5972</name></trkpt>
<trkpt lat="53.091762" lon="04.888966"><ele>-10.6</ele><time>2021-12-08T14:37:39Z</time><name>PT5973</name></trkpt>
<trkpt lat="53.091756" lon="04.888954"><ele>-10.5</ele><time>2021-12-08T14:37:39Z</time><name>PT5974</name></trkpt>
<trkpt lat="53.091751" lon="04.888940"><ele>-10.7</ele><time>2021-12-08T14:37:40Z</time><name>PT5975</name></trkpt>
<trkpt lat="53.091746" lon="04.888926"><ele>-10.7</ele><time>2021-12-08T14:37:42Z</time><name>PT5976</name></trkpt>
<trkpt lat="53.091740" lon="04.888913"><ele>-10.7</ele><time>2021-12-08T14:37:42Z</time><name>PT5977</name></trkpt>
<trkpt lat="53.091733" lon="04.888899"><ele>-10.9</ele><time>2021-12-08T14:37:43Z</time><name>PT5978</name></trkpt>
<trkpt lat="53.091727" lon="04.888887"><ele>-10.7</ele><time>2021-12-08T14:37:45Z</time><name>PT5979</name></trkpt>
<trkpt lat="53.091721" lon="04.888876"><ele>-10.8</ele><time>2021-12-08T14:37:45Z</time><name>PT5980</name></trkpt>
<trkpt lat="53.091715" lon="04.888862"><ele>-10.7</ele><time>2021-12-08T14:37:46Z</time><name>PT5981</name></trkpt>
<trkpt lat="53.091709" lon="04.888849"><ele>-10.7</ele><time>2021-12-08T14:37:48Z</time><name>PT5982</name></trkpt>
<trkpt lat="53.091703" lon="04.888834"><ele>-10.8</ele><time>2021-12-08T14:37:48Z</time><name>PT5983</name></trkpt>
<trkpt lat="53.091696" lon="04.888823"><ele>-10.8</ele><time>2021-12-08T14:37:49Z</time><name>PT5984</name></trkpt>
<trkpt lat="53.091690" lon="04.888812"><ele>-10.9</ele><time>2021-12-08T14:37:51Z</time><name>PT5985</name></trkpt>
<trkpt lat="53.091685" lon="04.888804"><ele>-11</ele><time>2021-12-08T14:37:51Z</time><name>PT5986</name></trkpt>
<trkpt lat="53.091681" lon="04.888797"><ele>-11</ele><time>2021-12-08T14:37:52Z</time><name>PT5987</name></trkpt>
<trkpt lat="53.091677" lon="04.888789"><ele>-11.2</ele><time>2021-12-08T14:37:54Z</time><name>PT5988</name></trkpt>
<trkpt lat="53.091671" lon="04.888783"><ele>-11.5</ele><time>2021-12-08T14:37:54Z</time><name>PT5989</name></trkpt>
<trkpt lat="53.091667" lon="04.888778"><ele>-11.6</ele><time>2021-12-08T14:37:55Z</time><name>PT5990</name></trkpt>
<trkpt lat="53.091666" lon="04.888773"><ele>-11.5</ele><time>2021-12-08T14:37:57Z</time><name>PT5991</name></trkpt>
<trkpt lat="53.091666" lon="04.888773"><ele>-11.6</ele><time>2021-12-08T14:37:57Z</time><name>PT5992</name></trkpt>
<trkpt lat="53.091665" lon="04.888772"><ele>-11.6</ele><time>2021-12-08T14:37:58Z</time><name>PT5993</name></trkpt>
<trkpt lat="53.091663" lon="04.888769"><ele>-11.5</ele><time>2021-12-08T14:38:00Z</time><name>PT5994</name></trkpt>
<trkpt lat="53.091662" lon="04.888769"><ele>-11.8</ele><time>2021-12-08T14:38:00Z</time><name>PT5995</name></trkpt>
<trkpt lat="53.091660" lon="04.888764"><ele>-11.8</ele><time>2021-12-08T14:38:01Z</time><name>PT5996</name></trkpt>
<trkpt lat="53.091656" lon="04.888761"><ele>-11.5</ele><time>2021-12-08T14:38:03Z</time><name>PT5997</name></trkpt>
<trkpt lat="53.091655" lon="04.888759"><ele>-11.7</ele><time>2021-12-08T14:38:03Z</time><name>PT5998</name></trkpt>
<trkpt lat="53.091654" lon="04.888757"><ele>-11.5</ele><time>2021-12-08T14:38:04Z</time><name>PT5999</name></trkpt>
<trkpt lat="53.091652" lon="04.888758"><ele>-11.8</ele><time>2021-12-08T14:38:06Z</time><name>PT6000</name></trkpt>
<trkpt lat="53.091652" lon="04.888756"><ele>-11.9</ele><time>2021-12-08T14:38:06Z</time><name>PT6001</name></trkpt>
<trkpt lat="53.091649" lon="04.888756"><ele>-11.9</ele><time>2021-12-08T14:38:07Z</time><name>PT6002</name></trkpt>
<trkpt lat="53.091647" lon="04.888753"><ele>-12</ele><time>2021-12-08T14:38:09Z</time><name>PT6003</name></trkpt>
<trkpt lat="53.091646" lon="04.888745"><ele>-11.6</ele><time>2021-12-08T14:38:15Z</time><name>PT6004</name></trkpt>
<trkpt lat="53.091644" lon="04.888741"><ele>-11.5</ele><time>2021-12-08T14:38:16Z</time><name>PT6005</name></trkpt>
<trkpt lat="53.091641" lon="04.888737"><ele>-11.6</ele><time>2021-12-08T14:38:18Z</time><name>PT6006</name></trkpt>
<trkpt lat="53.091640" lon="04.888734"><ele>-11.8</ele><time>2021-12-08T14:38:18Z</time><name>PT6007</name></trkpt>
<trkpt lat="53.091640" lon="04.888732"><ele>-11.7</ele><time>2021-12-08T14:38:19Z</time><name>PT6008</name></trkpt>
<trkpt lat="53.091638" lon="04.888731"><ele>-12</ele><time>2021-12-08T14:38:21Z</time><name>PT6009</name></trkpt>
<trkpt lat="53.091638" lon="04.888729"><ele>-12</ele><time>2021-12-08T14:38:21Z</time><name>PT6010</name></trkpt>
<trkpt lat="53.091638" lon="04.888726"><ele>-12</ele><time>2021-12-08T14:38:22Z</time><name>PT6011</name></trkpt>
<trkpt lat="53.091635" lon="04.888723"><ele>-12</ele><time>2021-12-08T14:38:24Z</time><name>PT6012</name></trkpt>
<trkpt lat="53.091634" lon="04.888722"><ele>-11.9</ele><time>2021-12-08T14:38:24Z</time><name>PT6013</name></trkpt>
<trkpt lat="53.091629" lon="04.888714"><ele>-12.7</ele><time>2021-12-08T14:38:34Z</time><name>PT6014</name></trkpt>
<trkpt lat="53.091626" lon="04.888707"><ele>-13</ele><time>2021-12-08T14:38:36Z</time><name>PT6015</name></trkpt>
<trkpt lat="53.091625" lon="04.888703"><ele>-12.9</ele><time>2021-12-08T14:38:36Z</time><name>PT6016</name></trkpt>
<trkpt lat="53.091624" lon="04.888701"><ele>-12.7</ele><time>2021-12-08T14:38:37Z</time><name>PT6017</name></trkpt>
<trkpt lat="53.091622" lon="04.888700"><ele>-12.5</ele><time>2021-12-08T14:38:39Z</time><name>PT6018</name></trkpt>
<trkpt lat="53.091612" lon="04.888692"><ele>-12</ele><time>2021-12-08T14:39:24Z</time><name>PT6019</name></trkpt>
<trkpt lat="53.091607" lon="04.888686"><ele>-12.1</ele><time>2021-12-08T14:39:24Z</time><name>PT6020</name></trkpt>
<trkpt lat="53.091604" lon="04.888678"><ele>-11.7</ele><time>2021-12-08T14:39:25Z</time><name>PT6021</name></trkpt>
<trkpt lat="53.091604" lon="04.888673"><ele>-11.6</ele><time>2021-12-08T14:39:27Z</time><name>PT6022</name></trkpt>
<trkpt lat="53.091601" lon="04.888662"><ele>-11.4</ele><time>2021-12-08T14:39:27Z</time><name>PT6023</name></trkpt>
<trkpt lat="53.091598" lon="04.888642"><ele>-11.5</ele><time>2021-12-08T14:39:28Z</time><name>PT6024</name></trkpt>
<trkpt lat="53.091593" lon="04.888625"><ele>-11.6</ele><time>2021-12-08T14:39:30Z</time><name>PT6025</name></trkpt>
<trkpt lat="53.091588" lon="04.888614"><ele>-11.8</ele><time>2021-12-08T14:39:30Z</time><name>PT6026</name></trkpt>
<trkpt lat="53.091584" lon="04.888599"><ele>-12</ele><time>2021-12-08T14:39:31Z</time><name>PT6027</name></trkpt>
<trkpt lat="53.091584" lon="04.888586"><ele>-12.1</ele><time>2021-12-08T14:39:33Z</time><name>PT6028</name></trkpt>
<trkpt lat="53.091582" lon="04.888571"><ele>-12.1</ele><time>2021-12-08T14:39:33Z</time><name>PT6029</name></trkpt>
<trkpt lat="53.091579" lon="04.888560"><ele>-12.2</ele><time>2021-12-08T14:39:34Z</time><name>PT6030</name></trkpt>
<trkpt lat="53.091578" lon="04.888558"><ele>-12</ele><time>2021-12-08T14:39:36Z</time><name>PT6031</name></trkpt>
<trkpt lat="53.091576" lon="04.888557"><ele>-12</ele><time>2021-12-08T14:39:36Z</time><name>PT6032</name></trkpt>
<trkpt lat="53.091576" lon="04.888557"><ele>-12</ele><time>2021-12-08T14:39:37Z</time><name>PT6033</name></trkpt>
<trkpt lat="53.091574" lon="04.888554"><ele>-11.9</ele><time>2021-12-08T14:39:39Z</time><name>PT6034</name></trkpt>
<trkpt lat="53.091573" lon="04.888546"><ele>-11.8</ele><time>2021-12-08T14:39:39Z</time><name>PT6035</name></trkpt>
<trkpt lat="53.091574" lon="04.888543"><ele>-12</ele><time>2021-12-08T14:39:40Z</time><name>PT6036</name></trkpt>
<trkpt lat="53.091573" lon="04.888542"><ele>-11.9</ele><time>2021-12-08T14:39:42Z</time><name>PT6037</name></trkpt>
<trkpt lat="53.091568" lon="04.888539"><ele>-12</ele><time>2021-12-08T14:39:42Z</time><name>PT6038</name></trkpt>
<trkpt lat="53.091562" lon="04.888534"><ele>-12.5</ele><time>2021-12-08T14:39:43Z</time><name>PT6039</name></trkpt>
<trkpt lat="53.091557" lon="04.888528"><ele>-12.1</ele><time>2021-12-08T14:39:45Z</time><name>PT6040</name></trkpt>
<trkpt lat="53.091552" lon="04.888523"><ele>-12.2</ele><time>2021-12-08T14:39:45Z</time><name>PT6041</name></trkpt>
<trkpt lat="53.091545" lon="04.888517"><ele>-12.2</ele><time>2021-12-08T14:39:46Z</time><name>PT6042</name></trkpt>
<trkpt lat="53.091540" lon="04.888508"><ele>-12</ele><time>2021-12-08T14:39:48Z</time><name>PT6043</name></trkpt>
<trkpt lat="53.091536" lon="04.888498"><ele>-12</ele><time>2021-12-08T14:39:48Z</time><name>PT6044</name></trkpt>
<trkpt lat="53.091530" lon="04.888488"><ele>-12.1</ele><time>2021-12-08T14:39:49Z</time><name>PT6045</name></trkpt>
<trkpt lat="53.091525" lon="04.888480"><ele>-12</ele><time>2021-12-08T14:39:51Z</time><name>PT6046</name></trkpt>
<trkpt lat="53.091519" lon="04.888469"><ele>-12</ele><time>2021-12-08T14:39:51Z</time><name>PT6047</name></trkpt>
<trkpt lat="53.091512" lon="04.888460"><ele>-12</ele><time>2021-12-08T14:39:52Z</time><name>PT6048</name></trkpt>
<trkpt lat="53.091507" lon="04.888452"><ele>-12</ele><time>2021-12-08T14:39:54Z</time><name>PT6049</name></trkpt>
<trkpt lat="53.091502" lon="04.888443"><ele>-12</ele><time>2021-12-08T14:39:54Z</time><name>PT6050</name></trkpt>
<trkpt lat="53.091495" lon="04.888433"><ele>-11.9</ele><time>2021-12-08T14:39:55Z</time><name>PT6051</name></trkpt>
<trkpt lat="53.091489" lon="04.888420"><ele>-11.9</ele><time>2021-12-08T14:39:57Z</time><name>PT6052</name></trkpt>
<trkpt lat="53.091482" lon="04.888414"><ele>-11.8</ele><time>2021-12-08T14:39:57Z</time><name>PT6053</name></trkpt>
<trkpt lat="53.091476" lon="04.888405"><ele>-11.9</ele><time>2021-12-08T14:39:58Z</time><name>PT6054</name></trkpt>
<trkpt lat="53.091470" lon="04.888394"><ele>-12.3</ele><time>2021-12-08T14:40:00Z</time><name>PT6055</name></trkpt>
<trkpt lat="53.091465" lon="04.888381"><ele>-12.4</ele><time>2021-12-08T14:40:00Z</time><name>PT6056</name></trkpt>
<trkpt lat="53.091459" lon="04.888371"><ele>-12.4</ele><time>2021-12-08T14:40:01Z</time><name>PT6057</name></trkpt>
<trkpt lat="53.091454" lon="04.888361"><ele>-12.3</ele><time>2021-12-08T14:40:03Z</time><name>PT6058</name></trkpt>
<trkpt lat="53.091448" lon="04.888352"><ele>-12</ele><time>2021-12-08T14:40:03Z</time><name>PT6059</name></trkpt>
<trkpt lat="53.091442" lon="04.888341"><ele>-11.9</ele><time>2021-12-08T14:40:04Z</time><name>PT6060</name></trkpt>
<trkpt lat="53.091440" lon="04.888328"><ele>-11.7</ele><time>2021-12-08T14:40:06Z</time><name>PT6061</name></trkpt>
<trkpt lat="53.091436" lon="04.888315"><ele>-11.6</ele><time>2021-12-08T14:40:06Z</time><name>PT6062</name></trkpt>
<trkpt lat="53.091431" lon="04.888302"><ele>-11.5</ele><time>2021-12-08T14:40:07Z</time><name>PT6063</name></trkpt>
<trkpt lat="53.091425" lon="04.888292"><ele>-11.5</ele><time>2021-12-08T14:40:09Z</time><name>PT6064</name></trkpt>
<trkpt lat="53.091420" lon="04.888281"><ele>-11.6</ele><time>2021-12-08T14:40:09Z</time><name>PT6065</name></trkpt>
<trkpt lat="53.091416" lon="04.888270"><ele>-11.8</ele><time>2021-12-08T14:40:10Z</time><name>PT6066</name></trkpt>
<trkpt lat="53.091410" lon="04.888266"><ele>-11.9</ele><time>2021-12-08T14:40:12Z</time><name>PT6067</name></trkpt>
<trkpt lat="53.091401" lon="04.888262"><ele>-11.9</ele><time>2021-12-08T14:40:12Z</time><name>PT6068</name></trkpt>
<trkpt lat="53.091396" lon="04.888254"><ele>-12</ele><time>2021-12-08T14:40:13Z</time><name>PT6069</name></trkpt>
<trkpt lat="53.091391" lon="04.888242"><ele>-11.9</ele><time>2021-12-08T14:40:15Z</time><name>PT6070</name></trkpt>
<trkpt lat="53.091386" lon="04.888232"><ele>-12</ele><time>2021-12-08T14:40:15Z</time><name>PT6071</name></trkpt>
<trkpt lat="53.091380" lon="04.888220"><ele>-12.1</ele><time>2021-12-08T14:40:16Z</time><name>PT6072</name></trkpt>
<trkpt lat="53.091374" lon="04.888211"><ele>-12</ele><time>2021-12-08T14:40:18Z</time><name>PT6073</name></trkpt>
<trkpt lat="53.091370" lon="04.888201"><ele>-12.1</ele><time>2021-12-08T14:40:18Z</time><name>PT6074</name></trkpt>
<trkpt lat="53.091365" lon="04.888188"><ele>-12.2</ele><time>2021-12-08T14:40:19Z</time><name>PT6075</name></trkpt>
<trkpt lat="53.091360" lon="04.888179"><ele>-12.4</ele><time>2021-12-08T14:40:21Z</time><name>PT6076</name></trkpt>
<trkpt lat="53.091354" lon="04.888169"><ele>-12.4</ele><time>2021-12-08T14:40:21Z</time><name>PT6077</name></trkpt>
<trkpt lat="53.091346" lon="04.888163"><ele>-12.5</ele><time>2021-12-08T14:40:22Z</time><name>PT6078</name></trkpt>
<trkpt lat="53.091341" lon="04.888155"><ele>-12.4</ele><time>2021-12-08T14:40:24Z</time><name>PT6079</name></trkpt>
<trkpt lat="53.091335" lon="04.888145"><ele>-12</ele><time>2021-12-08T14:40:24Z</time><name>PT6080</name></trkpt>
<trkpt lat="53.091331" lon="04.888138"><ele>-11.8</ele><time>2021-12-08T14:40:25Z</time><name>PT6081</name></trkpt>
<trkpt lat="53.091325" lon="04.888128"><ele>-11.6</ele><time>2021-12-08T14:40:27Z</time><name>PT6082</name></trkpt>
<trkpt lat="53.091319" lon="04.888121"><ele>-11.7</ele><time>2021-12-08T14:40:27Z</time><name>PT6083</name></trkpt>
<trkpt lat="53.091315" lon="04.888113"><ele>-11.7</ele><time>2021-12-08T14:40:28Z</time><name>PT6084</name></trkpt>
<trkpt lat="53.091311" lon="04.888105"><ele>-12</ele><time>2021-12-08T14:40:30Z</time><name>PT6085</name></trkpt>
<trkpt lat="53.091307" lon="04.888095"><ele>-12</ele><time>2021-12-08T14:40:30Z</time><name>PT6086</name></trkpt>
<trkpt lat="53.091303" lon="04.888086"><ele>-12</ele><time>2021-12-08T14:40:31Z</time><name>PT6087</name></trkpt>
<trkpt lat="53.091299" lon="04.888077"><ele>-12</ele><time>2021-12-08T14:40:33Z</time><name>PT6088</name></trkpt>
<trkpt lat="53.091294" lon="04.888071"><ele>-12</ele><time>2021-12-08T14:40:33Z</time><name>PT6089</name></trkpt>
<trkpt lat="53.091289" lon="04.888067"><ele>-12</ele><time>2021-12-08T14:40:34Z</time><name>PT6090</name></trkpt>
<trkpt lat="53.091286" lon="04.888052"><ele>-12</ele><time>2021-12-08T14:40:36Z</time><name>PT6091</name></trkpt>
<trkpt lat="53.091281" lon="04.888041"><ele>-12</ele><time>2021-12-08T14:40:36Z</time><name>PT6092</name></trkpt>
<trkpt lat="53.091276" lon="04.888030"><ele>-12</ele><time>2021-12-08T14:40:37Z</time><name>PT6093</name></trkpt>
<trkpt lat="53.091272" lon="04.888023"><ele>-11.8</ele><time>2021-12-08T14:40:39Z</time><name>PT6094</name></trkpt>
<trkpt lat="53.091267" lon="04.888013"><ele>-11.9</ele><time>2021-12-08T14:40:39Z</time><name>PT6095</name></trkpt>
<trkpt lat="53.091262" lon="04.888003"><ele>-11.8</ele><time>2021-12-08T14:40:40Z</time><name>PT6096</name></trkpt>
<trkpt lat="53.091257" lon="04.887992"><ele>-11.8</ele><time>2021-12-08T14:40:42Z</time><name>PT6097</name></trkpt>
<trkpt lat="53.091252" lon="04.887985"><ele>-11.7</ele><time>2021-12-08T14:40:42Z</time><name>PT6098</name></trkpt>
<trkpt lat="53.091248" lon="04.887973"><ele>-11.5</ele><time>2021-12-08T14:40:43Z</time><name>PT6099</name></trkpt>
<trkpt lat="53.091244" lon="04.887963"><ele>-11.4</ele><time>2021-12-08T14:40:45Z</time><name>PT6100</name></trkpt>
<trkpt lat="53.091240" lon="04.887953"><ele>-11.2</ele><time>2021-12-08T14:40:45Z</time><name>PT6101</name></trkpt>
<trkpt lat="53.091233" lon="04.887946"><ele>-11.3</ele><time>2021-12-08T14:40:46Z</time><name>PT6102</name></trkpt>
<trkpt lat="53.091227" lon="04.887939"><ele>-11.5</ele><time>2021-12-08T14:40:48Z</time><name>PT6103</name></trkpt>
<trkpt lat="53.091223" lon="04.887924"><ele>-11.5</ele><time>2021-12-08T14:40:48Z</time><name>PT6104</name></trkpt>
<trkpt lat="53.091218" lon="04.887915"><ele>-11.5</ele><time>2021-12-08T14:40:49Z</time><name>PT6105</name></trkpt>
<trkpt lat="53.091214" lon="04.887907"><ele>-11.5</ele><time>2021-12-08T14:40:51Z</time><name>PT6106</name></trkpt>
<trkpt lat="53.091208" lon="04.887900"><ele>-11.5</ele><time>2021-12-08T14:40:51Z</time><name>PT6107</name></trkpt>
<trkpt lat="53.091202" lon="04.887888"><ele>-11.6</ele><time>2021-12-08T14:40:52Z</time><name>PT6108</name></trkpt>
<trkpt lat="53.091196" lon="04.887880"><ele>-11.6</ele><time>2021-12-08T14:40:54Z</time><name>PT6109</name></trkpt>
<trkpt lat="53.091190" lon="04.887870"><ele>-11.7</ele><time>2021-12-08T14:40:54Z</time><name>PT6110</name></trkpt>
<trkpt lat="53.091183" lon="04.887862"><ele>-11.7</ele><time>2021-12-08T14:40:55Z</time><name>PT6111</name></trkpt>
<trkpt lat="53.091177" lon="04.887853"><ele>-12</ele><time>2021-12-08T14:40:57Z</time><name>PT6112</name></trkpt>
<trkpt lat="53.091171" lon="04.887847"><ele>-12</ele><time>2021-12-08T14:40:57Z</time><name>PT6113</name></trkpt>
<trkpt lat="53.091164" lon="04.887839"><ele>-12</ele><time>2021-12-08T14:40:58Z</time><name>PT6114</name></trkpt>
<trkpt lat="53.091159" lon="04.887832"><ele>-11.8</ele><time>2021-12-08T14:41:00Z</time><name>PT6115</name></trkpt>
<trkpt lat="53.091154" lon="04.887824"><ele>-11.8</ele><time>2021-12-08T14:41:00Z</time><name>PT6116</name></trkpt>
<trkpt lat="53.091149" lon="04.887820"><ele>-11.8</ele><time>2021-12-08T14:41:01Z</time><name>PT6117</name></trkpt>
<trkpt lat="53.091144" lon="04.887815"><ele>-11.7</ele><time>2021-12-08T14:41:03Z</time><name>PT6118</name></trkpt>
<trkpt lat="53.091140" lon="04.887811"><ele>-12</ele><time>2021-12-08T14:41:03Z</time><name>PT6119</name></trkpt>
<trkpt lat="53.091135" lon="04.887807"><ele>-12.2</ele><time>2021-12-08T14:41:04Z</time><name>PT6120</name></trkpt>
<trkpt lat="53.091130" lon="04.887800"><ele>-12.2</ele><time>2021-12-08T14:41:06Z</time><name>PT6121</name></trkpt>
<trkpt lat="53.091128" lon="04.887790"><ele>-12.4</ele><time>2021-12-08T14:41:06Z</time><name>PT6122</name></trkpt>
<trkpt lat="53.091123" lon="04.887782"><ele>-12.1</ele><time>2021-12-08T14:41:07Z</time><name>PT6123</name></trkpt>
<trkpt lat="53.091117" lon="04.887775"><ele>-11.7</ele><time>2021-12-08T14:41:09Z</time><name>PT6124</name></trkpt>
<trkpt lat="53.091111" lon="04.887765"><ele>-11.7</ele><time>2021-12-08T14:41:09Z</time><name>PT6125</name></trkpt>
<trkpt lat="53.091104" lon="04.887760"><ele>-11.6</ele><time>2021-12-08T14:41:10Z</time><name>PT6126</name></trkpt>
<trkpt lat="53.091097" lon="04.887754"><ele>-11.6</ele><time>2021-12-08T14:41:12Z</time><name>PT6127</name></trkpt>
<trkpt lat="53.091090" lon="04.887746"><ele>-11.7</ele><time>2021-12-08T14:41:12Z</time><name>PT6128</name></trkpt>
<trkpt lat="53.091083" lon="04.887736"><ele>-11.8</ele><time>2021-12-08T14:41:13Z</time><name>PT6129</name></trkpt>
<trkpt lat="53.091077" lon="04.887726"><ele>-12</ele><time>2021-12-08T14:41:15Z</time><name>PT6130</name></trkpt>
<trkpt lat="53.091070" lon="04.887716"><ele>-12</ele><time>2021-12-08T14:41:15Z</time><name>PT6131</name></trkpt>
<trkpt lat="53.091067" lon="04.887703"><ele>-12</ele><time>2021-12-08T14:41:16Z</time><name>PT6132</name></trkpt>
<trkpt lat="53.091062" lon="04.887694"><ele>-12.1</ele><time>2021-12-08T14:41:18Z</time><name>PT6133</name></trkpt>
<trkpt lat="53.091056" lon="04.887685"><ele>-12.1</ele><time>2021-12-08T14:41:18Z</time><name>PT6134</name></trkpt>
<trkpt lat="53.091050" lon="04.887677"><ele>-12</ele><time>2021-12-08T14:41:19Z</time><name>PT6135</name></trkpt>
<trkpt lat="53.091045" lon="04.887665"><ele>-11.9</ele><time>2021-12-08T14:41:21Z</time><name>PT6136</name></trkpt>
<trkpt lat="53.091040" lon="04.887654"><ele>-11.9</ele><time>2021-12-08T14:41:21Z</time><name>PT6137</name></trkpt>
<trkpt lat="53.091035" lon="04.887646"><ele>-11.6</ele><time>2021-12-08T14:41:22Z</time><name>PT6138</name></trkpt>
<trkpt lat="53.091028" lon="04.887638"><ele>-11.8</ele><time>2021-12-08T14:41:24Z</time><name>PT6139</name></trkpt>
<trkpt lat="53.091022" lon="04.887629"><ele>-11.8</ele><time>2021-12-08T14:41:24Z</time><name>PT6140</name></trkpt>
<trkpt lat="53.091016" lon="04.887618"><ele>-11.8</ele><time>2021-12-08T14:41:25Z</time><name>PT6141</name></trkpt>
<trkpt lat="53.091013" lon="04.887607"><ele>-11.7</ele><time>2021-12-08T14:41:27Z</time><name>PT6142</name></trkpt>
<trkpt lat="53.091007" lon="04.887598"><ele>-11.7</ele><time>2021-12-08T14:41:27Z</time><name>PT6143</name></trkpt>
<trkpt lat="53.091001" lon="04.887590"><ele>-11.9</ele><time>2021-12-08T14:41:28Z</time><name>PT6144</name></trkpt>
<trkpt lat="53.090995" lon="04.887578"><ele>-12</ele><time>2021-12-08T14:41:30Z</time><name>PT6145</name></trkpt>
<trkpt lat="53.090991" lon="04.887565"><ele>-12</ele><time>2021-12-08T14:41:30Z</time><name>PT6146</name></trkpt>
<trkpt lat="53.090984" lon="04.887553"><ele>-12.1</ele><time>2021-12-08T14:41:31Z</time><name>PT6147</name></trkpt>
<trkpt lat="53.090978" lon="04.887544"><ele>-12</ele><time>2021-12-08T14:41:33Z</time><name>PT6148</name></trkpt>
<trkpt lat="53.090973" lon="04.887534"><ele>-11.8</ele><time>2021-12-08T14:41:33Z</time><name>PT6149</name></trkpt>
<trkpt lat="53.090968" lon="04.887523"><ele>-11.7</ele><time>2021-12-08T14:41:34Z</time><name>PT6150</name></trkpt>
<trkpt lat="53.090963" lon="04.887515"><ele>-11.8</ele><time>2021-12-08T14:41:36Z</time><name>PT6151</name></trkpt>
<trkpt lat="53.090957" lon="04.887504"><ele>-11.8</ele><time>2021-12-08T14:41:36Z</time><name>PT6152</name></trkpt>
<trkpt lat="53.090950" lon="04.887493"><ele>-11.7</ele><time>2021-12-08T14:41:37Z</time><name>PT6153</name></trkpt>
<trkpt lat="53.090944" lon="04.887484"><ele>-11.9</ele><time>2021-12-08T14:41:39Z</time><name>PT6154</name></trkpt>
<trkpt lat="53.090939" lon="04.887473"><ele>-11.9</ele><time>2021-12-08T14:41:39Z</time><name>PT6155</name></trkpt>
<trkpt lat="53.090934" lon="04.887461"><ele>-11.6</ele><time>2021-12-08T14:41:40Z</time><name>PT6156</name></trkpt>
<trkpt lat="53.090928" lon="04.887451"><ele>-11.5</ele><time>2021-12-08T14:41:42Z</time><name>PT6157</name></trkpt>
<trkpt lat="53.090922" lon="04.887441"><ele>-11.4</ele><time>2021-12-08T14:41:42Z</time><name>PT6158</name></trkpt>
<trkpt lat="53.090915" lon="04.887433"><ele>-11.2</ele><time>2021-12-08T14:41:43Z</time><name>PT6159</name></trkpt>
<trkpt lat="53.090907" lon="04.887425"><ele>-11.4</ele><time>2021-12-08T14:41:45Z</time><name>PT6160</name></trkpt>
<trkpt lat="53.090904" lon="04.887420"><ele>-11.4</ele><time>2021-12-08T14:41:45Z</time><name>PT6161</name></trkpt>
<trkpt lat="53.090902" lon="04.887417"><ele>-11.5</ele><time>2021-12-08T14:41:46Z</time><name>PT6162</name></trkpt>
<trkpt lat="53.090897" lon="04.887413"><ele>-11.5</ele><time>2021-12-08T14:41:48Z</time><name>PT6163</name></trkpt>
<trkpt lat="53.090891" lon="04.887408"><ele>-11.5</ele><time>2021-12-08T14:41:48Z</time><name>PT6164</name></trkpt>
<trkpt lat="53.090887" lon="04.887405"><ele>-11.5</ele><time>2021-12-08T14:41:49Z</time><name>PT6165</name></trkpt>
<trkpt lat="53.090881" lon="04.887401"><ele>-11.7</ele><time>2021-12-08T14:41:51Z</time><name>PT6166</name></trkpt>
<trkpt lat="53.090879" lon="04.887389"><ele>-11.9</ele><time>2021-12-08T14:41:51Z</time><name>PT6167</name></trkpt>
<trkpt lat="53.090878" lon="04.887385"><ele>-11.5</ele><time>2021-12-08T14:41:52Z</time><name>PT6168</name></trkpt>
<trkpt lat="53.090877" lon="04.887386"><ele>-11.5</ele><time>2021-12-08T14:41:54Z</time><name>PT6169</name></trkpt>
<trkpt lat="53.090879" lon="04.887381"><ele>-11.5</ele><time>2021-12-08T14:41:54Z</time><name>PT6170</name></trkpt>
<trkpt lat="53.090878" lon="04.887367"><ele>-11.3</ele><time>2021-12-08T14:41:55Z</time><name>PT6171</name></trkpt>
<trkpt lat="53.090874" lon="04.887355"><ele>-11.6</ele><time>2021-12-08T14:41:57Z</time><name>PT6172</name></trkpt>
<trkpt lat="53.090871" lon="04.887343"><ele>-11.5</ele><time>2021-12-08T14:41:57Z</time><name>PT6173</name></trkpt>
<trkpt lat="53.090867" lon="04.887330"><ele>-11.5</ele><time>2021-12-08T14:41:58Z</time><name>PT6174</name></trkpt>
<trkpt lat="53.090865" lon="04.887318"><ele>-11.6</ele><time>2021-12-08T14:42:00Z</time><name>PT6175</name></trkpt>
<trkpt lat="53.090860" lon="04.887305"><ele>-11.8</ele><time>2021-12-08T14:42:00Z</time><name>PT6176</name></trkpt>
<trkpt lat="53.090854" lon="04.887297"><ele>-11.8</ele><time>2021-12-08T14:42:01Z</time><name>PT6177</name></trkpt>
<trkpt lat="53.090848" lon="04.887287"><ele>-11.9</ele><time>2021-12-08T14:42:03Z</time><name>PT6178</name></trkpt>
<trkpt lat="53.090844" lon="04.887273"><ele>-11.7</ele><time>2021-12-08T14:42:03Z</time><name>PT6179</name></trkpt>
<trkpt lat="53.090839" lon="04.887263"><ele>-11.8</ele><time>2021-12-08T14:42:04Z</time><name>PT6180</name></trkpt>
<trkpt lat="53.090834" lon="04.887251"><ele>-11.7</ele><time>2021-12-08T14:42:06Z</time><name>PT6181</name></trkpt>
<trkpt lat="53.090829" lon="04.887239"><ele>-11.5</ele><time>2021-12-08T14:42:06Z</time><name>PT6182</name></trkpt>
<trkpt lat="53.090824" lon="04.887227"><ele>-11.5</ele><time>2021-12-08T14:42:07Z</time><name>PT6183</name></trkpt>
<trkpt lat="53.090821" lon="04.887214"><ele>-11.4</ele><time>2021-12-08T14:42:09Z</time><name>PT6184</name></trkpt>
<trkpt lat="53.090820" lon="04.887203"><ele>-11.4</ele><time>2021-12-08T14:42:09Z</time><name>PT6185</name></trkpt>
<trkpt lat="53.090817" lon="04.887191"><ele>-11.5</ele><time>2021-12-08T14:42:10Z</time><name>PT6186</name></trkpt>
<trkpt lat="53.090813" lon="04.887177"><ele>-11.4</ele><time>2021-12-08T14:42:12Z</time><name>PT6187</name></trkpt>
<trkpt lat="53.090807" lon="04.887165"><ele>-11.2</ele><time>2021-12-08T14:42:12Z</time><name>PT6188</name></trkpt>
<trkpt lat="53.090802" lon="04.887152"><ele>-11</ele><time>2021-12-08T14:42:13Z</time><name>PT6189</name></trkpt>
<trkpt lat="53.090800" lon="04.887138"><ele>-11</ele><time>2021-12-08T14:42:15Z</time><name>PT6190</name></trkpt>
<trkpt lat="53.090797" lon="04.887120"><ele>-11</ele><time>2021-12-08T14:42:15Z</time><name>PT6191</name></trkpt>
<trkpt lat="53.090793" lon="04.887105"><ele>-10.7</ele><time>2021-12-08T14:42:16Z</time><name>PT6192</name></trkpt>
<trkpt lat="53.090788" lon="04.887091"><ele>-10.6</ele><time>2021-12-08T14:42:18Z</time><name>PT6193</name></trkpt>
<trkpt lat="53.090782" lon="04.887080"><ele>-10.4</ele><time>2021-12-08T14:42:18Z</time><name>PT6194</name></trkpt>
<trkpt lat="53.090777" lon="04.887072"><ele>-10.4</ele><time>2021-12-08T14:42:19Z</time><name>PT6195</name></trkpt>
<trkpt lat="53.090772" lon="04.887059"><ele>-10.4</ele><time>2021-12-08T14:42:21Z</time><name>PT6196</name></trkpt>
<trkpt lat="53.090766" lon="04.887043"><ele>-10.5</ele><time>2021-12-08T14:42:21Z</time><name>PT6197</name></trkpt>
<trkpt lat="53.090763" lon="04.887025"><ele>-10.5</ele><time>2021-12-08T14:42:22Z</time><name>PT6198</name></trkpt>
<trkpt lat="53.090760" lon="04.887007"><ele>-10.5</ele><time>2021-12-08T14:42:24Z</time><name>PT6199</name></trkpt>
<trkpt lat="53.090757" lon="04.886991"><ele>-10.4</ele><time>2021-12-08T14:42:24Z</time><name>PT6200</name></trkpt>
<trkpt lat="53.090755" lon="04.886975"><ele>-10.5</ele><time>2021-12-08T14:42:25Z</time><name>PT6201</name></trkpt>
<trkpt lat="53.090750" lon="04.886962"><ele>-10.6</ele><time>2021-12-08T14:42:27Z</time><name>PT6202</name></trkpt>
<trkpt lat="53.090743" lon="04.886950"><ele>-10.7</ele><time>2021-12-08T14:42:27Z</time><name>PT6203</name></trkpt>
<trkpt lat="53.090737" lon="04.886939"><ele>-10.5</ele><time>2021-12-08T14:42:28Z</time><name>PT6204</name></trkpt>
<trkpt lat="53.090730" lon="04.886927"><ele>-10.4</ele><time>2021-12-08T14:42:30Z</time><name>PT6205</name></trkpt>
<trkpt lat="53.090728" lon="04.886921"><ele>-10.4</ele><time>2021-12-08T14:42:30Z</time><name>PT6206</name></trkpt>
<trkpt lat="53.090724" lon="04.886914"><ele>-10.4</ele><time>2021-12-08T14:42:31Z</time><name>PT6207</name></trkpt>
<trkpt lat="53.090718" lon="04.886904"><ele>-10.4</ele><time>2021-12-08T14:42:33Z</time><name>PT6208</name></trkpt>
<trkpt lat="53.090715" lon="04.886893"><ele>-10.6</ele><time>2021-12-08T14:42:33Z</time><name>PT6209</name></trkpt>
<trkpt lat="53.090710" lon="04.886881"><ele>-10.8</ele><time>2021-12-08T14:42:34Z</time><name>PT6210</name></trkpt>
<trkpt lat="53.090705" lon="04.886868"><ele>-10.7</ele><time>2021-12-08T14:42:36Z</time><name>PT6211</name></trkpt>
<trkpt lat="53.090700" lon="04.886855"><ele>-10.9</ele><time>2021-12-08T14:42:36Z</time><name>PT6212</name></trkpt>
<trkpt lat="53.090696" lon="04.886848"><ele>-11.3</ele><time>2021-12-08T14:42:37Z</time><name>PT6213</name></trkpt>
<trkpt lat="53.090692" lon="04.886836"><ele>-11.2</ele><time>2021-12-08T14:42:39Z</time><name>PT6214</name></trkpt>
<trkpt lat="53.090689" lon="04.886820"><ele>-11.1</ele><time>2021-12-08T14:42:39Z</time><name>PT6215</name></trkpt>
<trkpt lat="53.090685" lon="04.886806"><ele>-11.2</ele><time>2021-12-08T14:42:40Z</time><name>PT6216</name></trkpt>
<trkpt lat="53.090679" lon="04.886791"><ele>-10.9</ele><time>2021-12-08T14:42:42Z</time><name>PT6217</name></trkpt>
<trkpt lat="53.090672" lon="04.886779"><ele>-10.7</ele><time>2021-12-08T14:42:42Z</time><name>PT6218</name></trkpt>
<trkpt lat="53.090667" lon="04.886768"><ele>-10.7</ele><time>2021-12-08T14:42:43Z</time><name>PT6219</name></trkpt>
<trkpt lat="53.090662" lon="04.886755"><ele>-10.8</ele><time>2021-12-08T14:42:45Z</time><name>PT6220</name></trkpt>
<trkpt lat="53.090657" lon="04.886743"><ele>-10.7</ele><time>2021-12-08T14:42:45Z</time><name>PT6221</name></trkpt>
<trkpt lat="53.090653" lon="04.886731"><ele>-10.6</ele><time>2021-12-08T14:42:46Z</time><name>PT6222</name></trkpt>
<trkpt lat="53.090648" lon="04.886719"><ele>-10.5</ele><time>2021-12-08T14:42:48Z</time><name>PT6223</name></trkpt>
<trkpt lat="53.090642" lon="04.886708"><ele>-10.5</ele><time>2021-12-08T14:42:48Z</time><name>PT6224</name></trkpt>
<trkpt lat="53.090637" lon="04.886697"><ele>-10.4</ele><time>2021-12-08T14:42:49Z</time><name>PT6225</name></trkpt>
<trkpt lat="53.090633" lon="04.886683"><ele>-10.5</ele><time>2021-12-08T14:42:51Z</time><name>PT6226</name></trkpt>
<trkpt lat="53.090627" lon="04.886671"><ele>-10.6</ele><time>2021-12-08T14:42:51Z</time><name>PT6227</name></trkpt>
<trkpt lat="53.090622" lon="04.886658"><ele>-10.7</ele><time>2021-12-08T14:42:52Z</time><name>PT6228</name></trkpt>
<trkpt lat="53.090618" lon="04.886641"><ele>-10.7</ele><time>2021-12-08T14:42:54Z</time><name>PT6229</name></trkpt>
<trkpt lat="53.090613" lon="04.886623"><ele>-10.6</ele><time>2021-12-08T14:42:54Z</time><name>PT6230</name></trkpt>
<trkpt lat="53.090608" lon="04.886607"><ele>-10.8</ele><time>2021-12-08T14:42:55Z</time><name>PT6231</name></trkpt>
<trkpt lat="53.090605" lon="04.886590"><ele>-10.8</ele><time>2021-12-08T14:42:57Z</time><name>PT6232</name></trkpt>
<trkpt lat="53.090600" lon="04.886577"><ele>-10.6</ele><time>2021-12-08T14:42:57Z</time><name>PT6233</name></trkpt>
<trkpt lat="53.090595" lon="04.886563"><ele>-10.9</ele><time>2021-12-08T14:42:58Z</time><name>PT6234</name></trkpt>
<trkpt lat="53.090589" lon="04.886546"><ele>-10.4</ele><time>2021-12-08T14:43:00Z</time><name>PT6235</name></trkpt>
<trkpt lat="53.090582" lon="04.886533"><ele>-10.3</ele><time>2021-12-08T14:43:00Z</time><name>PT6236</name></trkpt>
<trkpt lat="53.090575" lon="04.886520"><ele>-10</ele><time>2021-12-08T14:43:01Z</time><name>PT6237</name></trkpt>
<trkpt lat="53.090569" lon="04.886508"><ele>-10.3</ele><time>2021-12-08T14:43:03Z</time><name>PT6238</name></trkpt>
<trkpt lat="53.090564" lon="04.886494"><ele>-10.4</ele><time>2021-12-08T14:43:03Z</time><name>PT6239</name></trkpt>
<trkpt lat="53.090560" lon="04.886480"><ele>-10.5</ele><time>2021-12-08T14:43:04Z</time><name>PT6240</name></trkpt>
<trkpt lat="53.090556" lon="04.886467"><ele>-10.7</ele><time>2021-12-08T14:43:06Z</time><name>PT6241</name></trkpt>
<trkpt lat="53.090552" lon="04.886454"><ele>-10.8</ele><time>2021-12-08T14:43:06Z</time><name>PT6242</name></trkpt>
<trkpt lat="53.090544" lon="04.886442"><ele>-10.5</ele><time>2021-12-08T14:43:07Z</time><name>PT6243</name></trkpt>
<trkpt lat="53.090537" lon="04.886429"><ele>-10.6</ele><time>2021-12-08T14:43:09Z</time><name>PT6244</name></trkpt>
<trkpt lat="53.090533" lon="04.886415"><ele>-10.7</ele><time>2021-12-08T14:43:09Z</time><name>PT6245</name></trkpt>
<trkpt lat="53.090527" lon="04.886401"><ele>-10.5</ele><time>2021-12-08T14:43:10Z</time><name>PT6246</name></trkpt>
<trkpt lat="53.090522" lon="04.886387"><ele>-10.7</ele><time>2021-12-08T14:43:12Z</time><name>PT6247</name></trkpt>
<trkpt lat="53.090516" lon="04.886373"><ele>-10.6</ele><time>2021-12-08T14:43:12Z</time><name>PT6248</name></trkpt>
<trkpt lat="53.090511" lon="04.886359"><ele>-10.6</ele><time>2021-12-08T14:43:13Z</time><name>PT6249</name></trkpt>
<trkpt lat="53.090506" lon="04.886346"><ele>-10.6</ele><time>2021-12-08T14:43:15Z</time><name>PT6250</name></trkpt>
<trkpt lat="53.090500" lon="04.886335"><ele>-10.5</ele><time>2021-12-08T14:43:15Z</time><name>PT6251</name></trkpt>
<trkpt lat="53.090495" lon="04.886322"><ele>-10.4</ele><time>2021-12-08T14:43:16Z</time><name>PT6252</name></trkpt>
<trkpt lat="53.090490" lon="04.886306"><ele>-10.4</ele><time>2021-12-08T14:43:18Z</time><name>PT6253</name></trkpt>
<trkpt lat="53.090485" lon="04.886289"><ele>-10.5</ele><time>2021-12-08T14:43:18Z</time><name>PT6254</name></trkpt>
<trkpt lat="53.090480" lon="04.886273"><ele>-10.8</ele><time>2021-12-08T14:43:19Z</time><name>PT6255</name></trkpt>
<trkpt lat="53.090475" lon="04.886261"><ele>-11</ele><time>2021-12-08T14:43:21Z</time><name>PT6256</name></trkpt>
<trkpt lat="53.090469" lon="04.886253"><ele>-11</ele><time>2021-12-08T14:43:21Z</time><name>PT6257</name></trkpt>
<trkpt lat="53.090463" lon="04.886240"><ele>-11</ele><time>2021-12-08T14:43:22Z</time><name>PT6258</name></trkpt>
<trkpt lat="53.090458" lon="04.886226"><ele>-10.9</ele><time>2021-12-08T14:43:24Z</time><name>PT6259</name></trkpt>
<trkpt lat="53.090453" lon="04.886213"><ele>-11</ele><time>2021-12-08T14:43:24Z</time><name>PT6260</name></trkpt>
<trkpt lat="53.090448" lon="04.886200"><ele>-11.2</ele><time>2021-12-08T14:43:25Z</time><name>PT6261</name></trkpt>
<trkpt lat="53.090442" lon="04.886189"><ele>-11.1</ele><time>2021-12-08T14:43:27Z</time><name>PT6262</name></trkpt>
<trkpt lat="53.090437" lon="04.886177"><ele>-10.9</ele><time>2021-12-08T14:43:27Z</time><name>PT6263</name></trkpt>
<trkpt lat="53.090430" lon="04.886166"><ele>-10.7</ele><time>2021-12-08T14:43:28Z</time><name>PT6264</name></trkpt>
<trkpt lat="53.090426" lon="04.886154"><ele>-10.5</ele><time>2021-12-08T14:43:30Z</time><name>PT6265</name></trkpt>
<trkpt lat="53.090422" lon="04.886137"><ele>-10.5</ele><time>2021-12-08T14:43:30Z</time><name>PT6266</name></trkpt>
<trkpt lat="53.090419" lon="04.886121"><ele>-10.7</ele><time>2021-12-08T14:43:31Z</time><name>PT6267</name></trkpt>
<trkpt lat="53.090413" lon="04.886106"><ele>-10.8</ele><time>2021-12-08T14:43:33Z</time><name>PT6268</name></trkpt>
<trkpt lat="53.090408" lon="04.886091"><ele>-10.7</ele><time>2021-12-08T14:43:33Z</time><name>PT6269</name></trkpt>
<trkpt lat="53.090402" lon="04.886076"><ele>-10.7</ele><time>2021-12-08T14:43:34Z</time><name>PT6270</name></trkpt>
<trkpt lat="53.090395" lon="04.886065"><ele>-10.8</ele><time>2021-12-08T14:43:36Z</time><name>PT6271</name></trkpt>
<trkpt lat="53.090388" lon="04.886051"><ele>-11</ele><time>2021-12-08T14:43:36Z</time><name>PT6272</name></trkpt>
<trkpt lat="53.090383" lon="04.886037"><ele>-11.1</ele><time>2021-12-08T14:43:37Z</time><name>PT6273</name></trkpt>
<trkpt lat="53.090380" lon="04.886021"><ele>-10.9</ele><time>2021-12-08T14:43:39Z</time><name>PT6274</name></trkpt>
<trkpt lat="53.090375" lon="04.886007"><ele>-10.8</ele><time>2021-12-08T14:43:39Z</time><name>PT6275</name></trkpt>
<trkpt lat="53.090369" lon="04.885990"><ele>-10.5</ele><time>2021-12-08T14:43:40Z</time><name>PT6276</name></trkpt>
<trkpt lat="53.090365" lon="04.885970"><ele>-10.4</ele><time>2021-12-08T14:43:42Z</time><name>PT6277</name></trkpt>
<trkpt lat="53.090360" lon="04.885955"><ele>-10.5</ele><time>2021-12-08T14:43:42Z</time><name>PT6278</name></trkpt>
<trkpt lat="53.090354" lon="04.885941"><ele>-10.8</ele><time>2021-12-08T14:43:43Z</time><name>PT6279</name></trkpt>
<trkpt lat="53.090347" lon="04.885920"><ele>-11.2</ele><time>2021-12-08T14:43:45Z</time><name>PT6280</name></trkpt>
<trkpt lat="53.090343" lon="04.885904"><ele>-11.3</ele><time>2021-12-08T14:43:45Z</time><name>PT6281</name></trkpt>
<trkpt lat="53.090337" lon="04.885891"><ele>-11.3</ele><time>2021-12-08T14:43:46Z</time><name>PT6282</name></trkpt>
<trkpt lat="53.090330" lon="04.885881"><ele>-11.1</ele><time>2021-12-08T14:43:48Z</time><name>PT6283</name></trkpt>
<trkpt lat="53.090324" lon="04.885867"><ele>-11.1</ele><time>2021-12-08T14:43:48Z</time><name>PT6284</name></trkpt>
<trkpt lat="53.090319" lon="04.885852"><ele>-11</ele><time>2021-12-08T14:43:49Z</time><name>PT6285</name></trkpt>
<trkpt lat="53.090315" lon="04.885837"><ele>-11</ele><time>2021-12-08T14:43:51Z</time><name>PT6286</name></trkpt>
<trkpt lat="53.090312" lon="04.885823"><ele>-11</ele><time>2021-12-08T14:43:51Z</time><name>PT6287</name></trkpt>
<trkpt lat="53.090307" lon="04.885809"><ele>-10.9</ele><time>2021-12-08T14:43:52Z</time><name>PT6288</name></trkpt>
<trkpt lat="53.090301" lon="04.885796"><ele>-10.9</ele><time>2021-12-08T14:43:54Z</time><name>PT6289</name></trkpt>
<trkpt lat="53.090295" lon="04.885783"><ele>-10.7</ele><time>2021-12-08T14:43:54Z</time><name>PT6290</name></trkpt>
<trkpt lat="53.090289" lon="04.885770"><ele>-10.7</ele><time>2021-12-08T14:43:55Z</time><name>PT6291</name></trkpt>
<trkpt lat="53.090284" lon="04.885755"><ele>-10.9</ele><time>2021-12-08T14:43:57Z</time><name>PT6292</name></trkpt>
<trkpt lat="53.090281" lon="04.885736"><ele>-11</ele><time>2021-12-08T14:43:57Z</time><name>PT6293</name></trkpt>
<trkpt lat="53.090276" lon="04.885718"><ele>-10.8</ele><time>2021-12-08T14:43:58Z</time><name>PT6294</name></trkpt>
<trkpt lat="53.090270" lon="04.885704"><ele>-10.8</ele><time>2021-12-08T14:44:00Z</time><name>PT6295</name></trkpt>
<trkpt lat="53.090265" lon="04.885691"><ele>-10.6</ele><time>2021-12-08T14:44:00Z</time><name>PT6296</name></trkpt>
<trkpt lat="53.090260" lon="04.885678"><ele>-10.7</ele><time>2021-12-08T14:44:01Z</time><name>PT6297</name></trkpt>
<trkpt lat="53.090255" lon="04.885662"><ele>-10.6</ele><time>2021-12-08T14:44:03Z</time><name>PT6298</name></trkpt>
<trkpt lat="53.090252" lon="04.885647"><ele>-10.8</ele><time>2021-12-08T14:44:03Z</time><name>PT6299</name></trkpt>
<trkpt lat="53.090250" lon="04.885630"><ele>-11</ele><time>2021-12-08T14:44:04Z</time><name>PT6300</name></trkpt>
<trkpt lat="53.090246" lon="04.885612"><ele>-10.9</ele><time>2021-12-08T14:44:06Z</time><name>PT6301</name></trkpt>
<trkpt lat="53.090242" lon="04.885596"><ele>-11</ele><time>2021-12-08T14:44:06Z</time><name>PT6302</name></trkpt>
<trkpt lat="53.090239" lon="04.885577"><ele>-11.1</ele><time>2021-12-08T14:44:07Z</time><name>PT6303</name></trkpt>
<trkpt lat="53.090237" lon="04.885561"><ele>-11</ele><time>2021-12-08T14:44:09Z</time><name>PT6304</name></trkpt>
<trkpt lat="53.090236" lon="04.885545"><ele>-11</ele><time>2021-12-08T14:44:09Z</time><name>PT6305</name></trkpt>
<trkpt lat="53.090238" lon="04.885529"><ele>-11</ele><time>2021-12-08T14:44:10Z</time><name>PT6306</name></trkpt>
<trkpt lat="53.090239" lon="04.885515"><ele>-10.8</ele><time>2021-12-08T14:44:12Z</time><name>PT6307</name></trkpt>
<trkpt lat="53.090243" lon="04.885500"><ele>-10.9</ele><time>2021-12-08T14:44:12Z</time><name>PT6308</name></trkpt>
<trkpt lat="53.090246" lon="04.885482"><ele>-11</ele><time>2021-12-08T14:44:13Z</time><name>PT6309</name></trkpt>
<trkpt lat="53.090249" lon="04.885465"><ele>-11</ele><time>2021-12-08T14:44:15Z</time><name>PT6310</name></trkpt>
<trkpt lat="53.090253" lon="04.885450"><ele>-11.2</ele><time>2021-12-08T14:44:15Z</time><name>PT6311</name></trkpt>
<trkpt lat="53.090258" lon="04.885434"><ele>-11.3</ele><time>2021-12-08T14:44:16Z</time><name>PT6312</name></trkpt>
<trkpt lat="53.090263" lon="04.885420"><ele>-11.4</ele><time>2021-12-08T14:44:18Z</time><name>PT6313</name></trkpt>
<trkpt lat="53.090270" lon="04.885409"><ele>-11.4</ele><time>2021-12-08T14:44:18Z</time><name>PT6314</name></trkpt>
<trkpt lat="53.090275" lon="04.885392"><ele>-11.2</ele><time>2021-12-08T14:44:19Z</time><name>PT6315</name></trkpt>
<trkpt lat="53.090283" lon="04.885382"><ele>-11.1</ele><time>2021-12-08T14:44:21Z</time><name>PT6316</name></trkpt>
<trkpt lat="53.090291" lon="04.885370"><ele>-11.1</ele><time>2021-12-08T14:44:21Z</time><name>PT6317</name></trkpt>
<trkpt lat="53.090298" lon="04.885358"><ele>-11.2</ele><time>2021-12-08T14:44:22Z</time><name>PT6318</name></trkpt>
<trkpt lat="53.090305" lon="04.885348"><ele>-11.3</ele><time>2021-12-08T14:44:24Z</time><name>PT6319</name></trkpt>
<trkpt lat="53.090314" lon="04.885340"><ele>-11.4</ele><time>2021-12-08T14:44:24Z</time><name>PT6320</name></trkpt>
<trkpt lat="53.090324" lon="04.885333"><ele>-11.5</ele><time>2021-12-08T14:44:25Z</time><name>PT6321</name></trkpt>
<trkpt lat="53.090333" lon="04.885326"><ele>-11.5</ele><time>2021-12-08T14:44:27Z</time><name>PT6322</name></trkpt>
<trkpt lat="53.090342" lon="04.885323"><ele>-11.3</ele><time>2021-12-08T14:44:27Z</time><name>PT6323</name></trkpt>
<trkpt lat="53.090352" lon="04.885317"><ele>-11.5</ele><time>2021-12-08T14:44:28Z</time><name>PT6324</name></trkpt>
<trkpt lat="53.090361" lon="04.885309"><ele>-11.5</ele><time>2021-12-08T14:44:30Z</time><name>PT6325</name></trkpt>
<trkpt lat="53.090364" lon="04.885304"><ele>-11.7</ele><time>2021-12-08T14:44:31Z</time><name>PT6326</name></trkpt>
<trkpt lat="53.090368" lon="04.885300"><ele>-11.9</ele><time>2021-12-08T14:44:31Z</time><name>PT6327</name></trkpt>
<trkpt lat="53.090379" lon="04.885295"><ele>-12</ele><time>2021-12-08T14:44:33Z</time><name>PT6328</name></trkpt>
<trkpt lat="53.090391" lon="04.885291"><ele>-12</ele><time>2021-12-08T14:44:33Z</time><name>PT6329</name></trkpt>
<trkpt lat="53.090402" lon="04.885284"><ele>-12</ele><time>2021-12-08T14:44:34Z</time><name>PT6330</name></trkpt>
<trkpt lat="53.090412" lon="04.885276"><ele>-11.5</ele><time>2021-12-08T14:44:36Z</time><name>PT6331</name></trkpt>
<trkpt lat="53.090422" lon="04.885272"><ele>-11.4</ele><time>2021-12-08T14:44:36Z</time><name>PT6332</name></trkpt>
<trkpt lat="53.090431" lon="04.885268"><ele>-11.1</ele><time>2021-12-08T14:44:37Z</time><name>PT6333</name></trkpt>
<trkpt lat="53.090441" lon="04.885260"><ele>-11</ele><time>2021-12-08T14:44:39Z</time><name>PT6334</name></trkpt>
<trkpt lat="53.090451" lon="04.885255"><ele>-11</ele><time>2021-12-08T14:44:39Z</time><name>PT6335</name></trkpt>
<trkpt lat="53.090460" lon="04.885248"><ele>-11</ele><time>2021-12-08T14:44:40Z</time><name>PT6336</name></trkpt>
<trkpt lat="53.090469" lon="04.885243"><ele>-11.1</ele><time>2021-12-08T14:44:42Z</time><name>PT6337</name></trkpt>
<trkpt lat="53.090479" lon="04.885241"><ele>-11</ele><time>2021-12-08T14:44:42Z</time><name>PT6338</name></trkpt>
<trkpt lat="53.090489" lon="04.885236"><ele>-11</ele><time>2021-12-08T14:44:43Z</time><name>PT6339</name></trkpt>
<trkpt lat="53.090498" lon="04.885228"><ele>-11</ele><time>2021-12-08T14:44:45Z</time><name>PT6340</name></trkpt>
<trkpt lat="53.090507" lon="04.885222"><ele>-11</ele><time>2021-12-08T14:44:45Z</time><name>PT6341</name></trkpt>
<trkpt lat="53.090516" lon="04.885217"><ele>-11</ele><time>2021-12-08T14:44:46Z</time><name>PT6342</name></trkpt>
<trkpt lat="53.090524" lon="04.885215"><ele>-11</ele><time>2021-12-08T14:44:48Z</time><name>PT6343</name></trkpt>
<trkpt lat="53.090533" lon="04.885213"><ele>-10.8</ele><time>2021-12-08T14:44:48Z</time><name>PT6344</name></trkpt>
<trkpt lat="53.090541" lon="04.885208"><ele>-10.7</ele><time>2021-12-08T14:44:49Z</time><name>PT6345</name></trkpt>
<trkpt lat="53.090550" lon="04.885199"><ele>-10.8</ele><time>2021-12-08T14:44:51Z</time><name>PT6346</name></trkpt>
<trkpt lat="53.090555" lon="04.885188"><ele>-10.9</ele><time>2021-12-08T14:44:51Z</time><name>PT6347</name></trkpt>
<trkpt lat="53.090560" lon="04.885175"><ele>-10.8</ele><time>2021-12-08T14:44:52Z</time><name>PT6348</name></trkpt>
<trkpt lat="53.090566" lon="04.885162"><ele>-10.5</ele><time>2021-12-08T14:44:54Z</time><name>PT6349</name></trkpt>
<trkpt lat="53.090572" lon="04.885147"><ele>-10.4</ele><time>2021-12-08T14:44:54Z</time><name>PT6350</name></trkpt>
<trkpt lat="53.090576" lon="04.885131"><ele>-10</ele><time>2021-12-08T14:44:55Z</time><name>PT6351</name></trkpt>
<trkpt lat="53.090578" lon="04.885113"><ele>-9.8</ele><time>2021-12-08T14:44:57Z</time><name>PT6352</name></trkpt>
<trkpt lat="53.090579" lon="04.885098"><ele>-9.9</ele><time>2021-12-08T14:44:57Z</time><name>PT6353</name></trkpt>
<trkpt lat="53.090579" lon="04.885084"><ele>-10.1</ele><time>2021-12-08T14:44:58Z</time><name>PT6354</name></trkpt>
<trkpt lat="53.090579" lon="04.885069"><ele>-10.3</ele><time>2021-12-08T14:45:00Z</time><name>PT6355</name></trkpt>
<trkpt lat="53.090577" lon="04.885054"><ele>-10.4</ele><time>2021-12-08T14:45:00Z</time><name>PT6356</name></trkpt>
<trkpt lat="53.090574" lon="04.885037"><ele>-10.3</ele><time>2021-12-08T14:45:01Z</time><name>PT6357</name></trkpt>
<trkpt lat="53.090571" lon="04.885019"><ele>-10.1</ele><time>2021-12-08T14:45:03Z</time><name>PT6358</name></trkpt>
<trkpt lat="53.090568" lon="04.885002"><ele>-9.9</ele><time>2021-12-08T14:45:03Z</time><name>PT6359</name></trkpt>
<trkpt lat="53.090564" lon="04.884987"><ele>-9.8</ele><time>2021-12-08T14:45:04Z</time><name>PT6360</name></trkpt>
<trkpt lat="53.090562" lon="04.884972"><ele>-9.9</ele><time>2021-12-08T14:45:06Z</time><name>PT6361</name></trkpt>
<trkpt lat="53.090559" lon="04.884955"><ele>-9.9</ele><time>2021-12-08T14:45:06Z</time><name>PT6362</name></trkpt>
<trkpt lat="53.090556" lon="04.884936"><ele>-10.2</ele><time>2021-12-08T14:45:07Z</time><name>PT6363</name></trkpt>
<trkpt lat="53.090553" lon="04.884919"><ele>-10.5</ele><time>2021-12-08T14:45:09Z</time><name>PT6364</name></trkpt>
<trkpt lat="53.090548" lon="04.884901"><ele>-10.7</ele><time>2021-12-08T14:45:09Z</time><name>PT6365</name></trkpt>
<trkpt lat="53.090542" lon="04.884886"><ele>-10.9</ele><time>2021-12-08T14:45:10Z</time><name>PT6366</name></trkpt>
<trkpt lat="53.090539" lon="04.884871"><ele>-11</ele><time>2021-12-08T14:45:12Z</time><name>PT6367</name></trkpt>
<trkpt lat="53.090538" lon="04.884851"><ele>-11</ele><time>2021-12-08T14:45:12Z</time><name>PT6368</name></trkpt>
<trkpt lat="53.090537" lon="04.884831"><ele>-11</ele><time>2021-12-08T14:45:13Z</time><name>PT6369</name></trkpt>
<trkpt lat="53.090534" lon="04.884814"><ele>-11</ele><time>2021-12-08T14:45:15Z</time><name>PT6370</name></trkpt>
<trkpt lat="53.090529" lon="04.884799"><ele>-11</ele><time>2021-12-08T14:45:15Z</time><name>PT6371</name></trkpt>
<trkpt lat="53.090524" lon="04.884785"><ele>-11</ele><time>2021-12-08T14:45:16Z</time><name>PT6372</name></trkpt>
<trkpt lat="53.090520" lon="04.884771"><ele>-11</ele><time>2021-12-08T14:45:18Z</time><name>PT6373</name></trkpt>
<trkpt lat="53.090518" lon="04.884756"><ele>-10.8</ele><time>2021-12-08T14:45:18Z</time><name>PT6374</name></trkpt>
<trkpt lat="53.090516" lon="04.884739"><ele>-10.7</ele><time>2021-12-08T14:45:19Z</time><name>PT6375</name></trkpt>
<trkpt lat="53.090512" lon="04.884721"><ele>-10.7</ele><time>2021-12-08T14:45:21Z</time><name>PT6376</name></trkpt>
<trkpt lat="53.090507" lon="04.884703"><ele>-10.7</ele><time>2021-12-08T14:45:21Z</time><name>PT6377</name></trkpt>
<trkpt lat="53.090503" lon="04.884689"><ele>-10.8</ele><time>2021-12-08T14:45:22Z</time><name>PT6378</name></trkpt>
<trkpt lat="53.090502" lon="04.884673"><ele>-10.8</ele><time>2021-12-08T14:45:24Z</time><name>PT6379</name></trkpt>
<trkpt lat="53.090499" lon="04.884657"><ele>-10.7</ele><time>2021-12-08T14:45:24Z</time><name>PT6380</name></trkpt>
<trkpt lat="53.090495" lon="04.884639"><ele>-10.5</ele><time>2021-12-08T14:45:25Z</time><name>PT6381</name></trkpt>
<trkpt lat="53.090491" lon="04.884620"><ele>-10.5</ele><time>2021-12-08T14:45:27Z</time><name>PT6382</name></trkpt>
<trkpt lat="53.090486" lon="04.884604"><ele>-10.5</ele><time>2021-12-08T14:45:27Z</time><name>PT6383</name></trkpt>
<trkpt lat="53.090482" lon="04.884591"><ele>-10.8</ele><time>2021-12-08T14:45:28Z</time><name>PT6384</name></trkpt>
<trkpt lat="53.090479" lon="04.884577"><ele>-10.6</ele><time>2021-12-08T14:45:30Z</time><name>PT6385</name></trkpt>
<trkpt lat="53.090476" lon="04.884559"><ele>-10.6</ele><time>2021-12-08T14:45:30Z</time><name>PT6386</name></trkpt>
<trkpt lat="53.090475" lon="04.884539"><ele>-10.4</ele><time>2021-12-08T14:45:31Z</time><name>PT6387</name></trkpt>
<trkpt lat="53.090472" lon="04.884519"><ele>-10.1</ele><time>2021-12-08T14:45:33Z</time><name>PT6388</name></trkpt>
<trkpt lat="53.090468" lon="04.884502"><ele>-10</ele><time>2021-12-08T14:45:33Z</time><name>PT6389</name></trkpt>
<trkpt lat="53.090466" lon="04.884487"><ele>-10</ele><time>2021-12-08T14:45:34Z</time><name>PT6390</name></trkpt>
<trkpt lat="53.090463" lon="04.884474"><ele>-10</ele><time>2021-12-08T14:45:36Z</time><name>PT6391</name></trkpt>
<trkpt lat="53.090461" lon="04.884458"><ele>-10.1</ele><time>2021-12-08T14:45:36Z</time><name>PT6392</name></trkpt>
<trkpt lat="53.090459" lon="04.884439"><ele>-10.4</ele><time>2021-12-08T14:45:37Z</time><name>PT6393</name></trkpt>
<trkpt lat="53.090456" lon="04.884422"><ele>-10.4</ele><time>2021-12-08T14:45:39Z</time><name>PT6394</name></trkpt>
<trkpt lat="53.090452" lon="04.884407"><ele>-10.4</ele><time>2021-12-08T14:45:39Z</time><name>PT6395</name></trkpt>
<trkpt lat="53.090448" lon="04.884394"><ele>-10.7</ele><time>2021-12-08T14:45:41Z</time><name>PT6396</name></trkpt>
<trkpt lat="53.090445" lon="04.884380"><ele>-10.7</ele><time>2021-12-08T14:45:42Z</time><name>PT6397</name></trkpt>
<trkpt lat="53.090442" lon="04.884365"><ele>-10.6</ele><time>2021-12-08T14:45:42Z</time><name>PT6398</name></trkpt>
<trkpt lat="53.090439" lon="04.884350"><ele>-10.7</ele><time>2021-12-08T14:45:43Z</time><name>PT6399</name></trkpt>
<trkpt lat="53.090436" lon="04.884333"><ele>-10.6</ele><time>2021-12-08T14:45:45Z</time><name>PT6400</name></trkpt>
<trkpt lat="53.090433" lon="04.884316"><ele>-10.6</ele><time>2021-12-08T14:45:45Z</time><name>PT6401</name></trkpt>
<trkpt lat="53.090429" lon="04.884301"><ele>-10.7</ele><time>2021-12-08T14:45:46Z</time><name>PT6402</name></trkpt>
<trkpt lat="53.090425" lon="04.884286"><ele>-10.9</ele><time>2021-12-08T14:45:48Z</time><name>PT6403</name></trkpt>
<trkpt lat="53.090422" lon="04.884270"><ele>-10.9</ele><time>2021-12-08T14:45:48Z</time><name>PT6404</name></trkpt>
<trkpt lat="53.090419" lon="04.884254"><ele>-11</ele><time>2021-12-08T14:45:49Z</time><name>PT6405</name></trkpt>
<trkpt lat="53.090418" lon="04.884235"><ele>-10.8</ele><time>2021-12-08T14:45:51Z</time><name>PT6406</name></trkpt>
<trkpt lat="53.090414" lon="04.884220"><ele>-10.8</ele><time>2021-12-08T14:45:51Z</time><name>PT6407</name></trkpt>
<trkpt lat="53.090410" lon="04.884207"><ele>-10.6</ele><time>2021-12-08T14:45:52Z</time><name>PT6408</name></trkpt>
<trkpt lat="53.090407" lon="04.884192"><ele>-10.7</ele><time>2021-12-08T14:45:54Z</time><name>PT6409</name></trkpt>
<trkpt lat="53.090405" lon="04.884175"><ele>-10.5</ele><time>2021-12-08T14:45:54Z</time><name>PT6410</name></trkpt>
<trkpt lat="53.090402" lon="04.884157"><ele>-10.6</ele><time>2021-12-08T14:45:55Z</time><name>PT6411</name></trkpt>
<trkpt lat="53.090400" lon="04.884139"><ele>-10.6</ele><time>2021-12-08T14:45:57Z</time><name>PT6412</name></trkpt>
<trkpt lat="53.090395" lon="04.884122"><ele>-10.6</ele><time>2021-12-08T14:45:57Z</time><name>PT6413</name></trkpt>
<trkpt lat="53.090390" lon="04.884107"><ele>-10.5</ele><time>2021-12-08T14:45:58Z</time><name>PT6414</name></trkpt>
<trkpt lat="53.090386" lon="04.884092"><ele>-10.5</ele><time>2021-12-08T14:46:00Z</time><name>PT6415</name></trkpt>
<trkpt lat="53.090384" lon="04.884077"><ele>-10.5</ele><time>2021-12-08T14:46:00Z</time><name>PT6416</name></trkpt>
<trkpt lat="53.090383" lon="04.884059"><ele>-10.5</ele><time>2021-12-08T14:46:01Z</time><name>PT6417</name></trkpt>
<trkpt lat="53.090382" lon="04.884045"><ele>-10.5</ele><time>2021-12-08T14:46:03Z</time><name>PT6418</name></trkpt>
<trkpt lat="53.090379" lon="04.884031"><ele>-10.6</ele><time>2021-12-08T14:46:03Z</time><name>PT6419</name></trkpt>
<trkpt lat="53.090375" lon="04.884016"><ele>-10.8</ele><time>2021-12-08T14:46:04Z</time><name>PT6420</name></trkpt>
<trkpt lat="53.090370" lon="04.884003"><ele>-10.7</ele><time>2021-12-08T14:46:06Z</time><name>PT6421</name></trkpt>
<trkpt lat="53.090367" lon="04.883993"><ele>-10.8</ele><time>2021-12-08T14:46:06Z</time><name>PT6422</name></trkpt>
<trkpt lat="53.090366" lon="04.883979"><ele>-10.8</ele><time>2021-12-08T14:46:07Z</time><name>PT6423</name></trkpt>
<trkpt lat="53.090365" lon="04.883963"><ele>-10.9</ele><time>2021-12-08T14:46:09Z</time><name>PT6424</name></trkpt>
<trkpt lat="53.090363" lon="04.883946"><ele>-10.9</ele><time>2021-12-08T14:46:09Z</time><name>PT6425</name></trkpt>
<trkpt lat="53.090359" lon="04.883932"><ele>-10.8</ele><time>2021-12-08T14:46:10Z</time><name>PT6426</name></trkpt>
<trkpt lat="53.090354" lon="04.883919"><ele>-10.8</ele><time>2021-12-08T14:46:12Z</time><name>PT6427</name></trkpt>
<trkpt lat="53.090350" lon="04.883906"><ele>-10.8</ele><time>2021-12-08T14:46:12Z</time><name>PT6428</name></trkpt>
<trkpt lat="53.090347" lon="04.883891"><ele>-10.6</ele><time>2021-12-08T14:46:13Z</time><name>PT6429</name></trkpt>
<trkpt lat="53.090344" lon="04.883875"><ele>-10.6</ele><time>2021-12-08T14:46:15Z</time><name>PT6430</name></trkpt>
<trkpt lat="53.090343" lon="04.883856"><ele>-10.9</ele><time>2021-12-08T14:46:15Z</time><name>PT6431</name></trkpt>
<trkpt lat="53.090340" lon="04.883840"><ele>-11</ele><time>2021-12-08T14:46:16Z</time><name>PT6432</name></trkpt>
<trkpt lat="53.090335" lon="04.883821"><ele>-10.9</ele><time>2021-12-08T14:46:18Z</time><name>PT6433</name></trkpt>
<trkpt lat="53.090331" lon="04.883808"><ele>-11</ele><time>2021-12-08T14:46:18Z</time><name>PT6434</name></trkpt>
<trkpt lat="53.090329" lon="04.883796"><ele>-10.9</ele><time>2021-12-08T14:46:19Z</time><name>PT6435</name></trkpt>
<trkpt lat="53.090327" lon="04.883782"><ele>-10.6</ele><time>2021-12-08T14:46:21Z</time><name>PT6436</name></trkpt>
<trkpt lat="53.090325" lon="04.883766"><ele>-10.6</ele><time>2021-12-08T14:46:21Z</time><name>PT6437</name></trkpt>
<trkpt lat="53.090322" lon="04.883749"><ele>-10.6</ele><time>2021-12-08T14:46:22Z</time><name>PT6438</name></trkpt>
<trkpt lat="53.090319" lon="04.883733"><ele>-10.5</ele><time>2021-12-08T14:46:24Z</time><name>PT6439</name></trkpt>
<trkpt lat="53.090316" lon="04.883717"><ele>-10.6</ele><time>2021-12-08T14:46:24Z</time><name>PT6440</name></trkpt>
<trkpt lat="53.090311" lon="04.883704"><ele>-10.8</ele><time>2021-12-08T14:46:25Z</time><name>PT6441</name></trkpt>
<trkpt lat="53.090307" lon="04.883690"><ele>-10.9</ele><time>2021-12-08T14:46:27Z</time><name>PT6442</name></trkpt>
<trkpt lat="53.090304" lon="04.883675"><ele>-11</ele><time>2021-12-08T14:46:27Z</time><name>PT6443</name></trkpt>
<trkpt lat="53.090302" lon="04.883659"><ele>-10.9</ele><time>2021-12-08T14:46:28Z</time><name>PT6444</name></trkpt>
<trkpt lat="53.090301" lon="04.883640"><ele>-11</ele><time>2021-12-08T14:46:30Z</time><name>PT6445</name></trkpt>
<trkpt lat="53.090298" lon="04.883622"><ele>-11</ele><time>2021-12-08T14:46:30Z</time><name>PT6446</name></trkpt>
<trkpt lat="53.090296" lon="04.883605"><ele>-10.9</ele><time>2021-12-08T14:46:31Z</time><name>PT6447</name></trkpt>
<trkpt lat="53.090293" lon="04.883590"><ele>-10.8</ele><time>2021-12-08T14:46:33Z</time><name>PT6448</name></trkpt>
<trkpt lat="53.090289" lon="04.883576"><ele>-10.8</ele><time>2021-12-08T14:46:33Z</time><name>PT6449</name></trkpt>
<trkpt lat="53.090286" lon="04.883564"><ele>-10.6</ele><time>2021-12-08T14:46:34Z</time><name>PT6450</name></trkpt>
<trkpt lat="53.090282" lon="04.883551"><ele>-10.6</ele><time>2021-12-08T14:46:36Z</time><name>PT6451</name></trkpt>
<trkpt lat="53.090279" lon="04.883533"><ele>-10.7</ele><time>2021-12-08T14:46:36Z</time><name>PT6452</name></trkpt>
<trkpt lat="53.090277" lon="04.883517"><ele>-10.8</ele><time>2021-12-08T14:46:37Z</time><name>PT6453</name></trkpt>
<trkpt lat="53.090274" lon="04.883500"><ele>-10.8</ele><time>2021-12-08T14:46:39Z</time><name>PT6454</name></trkpt>
<trkpt lat="53.090272" lon="04.883480"><ele>-10.9</ele><time>2021-12-08T14:46:39Z</time><name>PT6455</name></trkpt>
<trkpt lat="53.090270" lon="04.883465"><ele>-11</ele><time>2021-12-08T14:46:40Z</time><name>PT6456</name></trkpt>
<trkpt lat="53.090266" lon="04.883451"><ele>-11</ele><time>2021-12-08T14:46:42Z</time><name>PT6457</name></trkpt>
<trkpt lat="53.090263" lon="04.883436"><ele>-11</ele><time>2021-12-08T14:46:42Z</time><name>PT6458</name></trkpt>
<trkpt lat="53.090260" lon="04.883420"><ele>-11</ele><time>2021-12-08T14:46:43Z</time><name>PT6459</name></trkpt>
<trkpt lat="53.090257" lon="04.883401"><ele>-11</ele><time>2021-12-08T14:46:45Z</time><name>PT6460</name></trkpt>
<trkpt lat="53.090255" lon="04.883385"><ele>-11.1</ele><time>2021-12-08T14:46:45Z</time><name>PT6461</name></trkpt>
<trkpt lat="53.090252" lon="04.883369"><ele>-11.1</ele><time>2021-12-08T14:46:46Z</time><name>PT6462</name></trkpt>
<trkpt lat="53.090247" lon="04.883354"><ele>-11.1</ele><time>2021-12-08T14:46:48Z</time><name>PT6463</name></trkpt>
<trkpt lat="53.090243" lon="04.883341"><ele>-11</ele><time>2021-12-08T14:46:48Z</time><name>PT6464</name></trkpt>
<trkpt lat="53.090238" lon="04.883327"><ele>-11</ele><time>2021-12-08T14:46:49Z</time><name>PT6465</name></trkpt>
<trkpt lat="53.090236" lon="04.883311"><ele>-11</ele><time>2021-12-08T14:46:51Z</time><name>PT6466</name></trkpt>
<trkpt lat="53.090234" lon="04.883290"><ele>-11.1</ele><time>2021-12-08T14:46:51Z</time><name>PT6467</name></trkpt>
<trkpt lat="53.090232" lon="04.883272"><ele>-11.1</ele><time>2021-12-08T14:46:52Z</time><name>PT6468</name></trkpt>
<trkpt lat="53.090227" lon="04.883256"><ele>-11.4</ele><time>2021-12-08T14:46:54Z</time><name>PT6469</name></trkpt>
<trkpt lat="53.090223" lon="04.883245"><ele>-11.4</ele><time>2021-12-08T14:46:54Z</time><name>PT6470</name></trkpt>
<trkpt lat="53.090219" lon="04.883231"><ele>-11.4</ele><time>2021-12-08T14:46:55Z</time><name>PT6471</name></trkpt>
<trkpt lat="53.090218" lon="04.883213"><ele>-11.3</ele><time>2021-12-08T14:46:57Z</time><name>PT6472</name></trkpt>
<trkpt lat="53.090217" lon="04.883194"><ele>-11.4</ele><time>2021-12-08T14:46:57Z</time><name>PT6473</name></trkpt>
<trkpt lat="53.090214" lon="04.883180"><ele>-11.3</ele><time>2021-12-08T14:46:58Z</time><name>PT6474</name></trkpt>
<trkpt lat="53.090209" lon="04.883164"><ele>-11.1</ele><time>2021-12-08T14:47:00Z</time><name>PT6475</name></trkpt>
<trkpt lat="53.090205" lon="04.883149"><ele>-11</ele><time>2021-12-08T14:47:00Z</time><name>PT6476</name></trkpt>
<trkpt lat="53.090203" lon="04.883135"><ele>-10.8</ele><time>2021-12-08T14:47:01Z</time><name>PT6477</name></trkpt>
<trkpt lat="53.090200" lon="04.883119"><ele>-10.8</ele><time>2021-12-08T14:47:03Z</time><name>PT6478</name></trkpt>
<trkpt lat="53.090198" lon="04.883103"><ele>-10.7</ele><time>2021-12-08T14:47:03Z</time><name>PT6479</name></trkpt>
<trkpt lat="53.090195" lon="04.883086"><ele>-10.9</ele><time>2021-12-08T14:47:04Z</time><name>PT6480</name></trkpt>
<trkpt lat="53.090191" lon="04.883071"><ele>-10.9</ele><time>2021-12-08T14:47:06Z</time><name>PT6481</name></trkpt>
<trkpt lat="53.090186" lon="04.883056"><ele>-10.9</ele><time>2021-12-08T14:47:06Z</time><name>PT6482</name></trkpt>
<trkpt lat="53.090182" lon="04.883043"><ele>-10.8</ele><time>2021-12-08T14:47:07Z</time><name>PT6483</name></trkpt>
<trkpt lat="53.090181" lon="04.883029"><ele>-10.7</ele><time>2021-12-08T14:47:09Z</time><name>PT6484</name></trkpt>
<trkpt lat="53.090179" lon="04.883010"><ele>-10.8</ele><time>2021-12-08T14:47:09Z</time><name>PT6485</name></trkpt>
<trkpt lat="53.090177" lon="04.882992"><ele>-10.8</ele><time>2021-12-08T14:47:10Z</time><name>PT6486</name></trkpt>
<trkpt lat="53.090174" lon="04.882976"><ele>-10.9</ele><time>2021-12-08T14:47:12Z</time><name>PT6487</name></trkpt>
<trkpt lat="53.090171" lon="04.882961"><ele>-11</ele><time>2021-12-08T14:47:12Z</time><name>PT6488</name></trkpt>
<trkpt lat="53.090167" lon="04.882948"><ele>-11</ele><time>2021-12-08T14:47:13Z</time><name>PT6489</name></trkpt>
<trkpt lat="53.090163" lon="04.882933"><ele>-10.9</ele><time>2021-12-08T14:47:15Z</time><name>PT6490</name></trkpt>
<trkpt lat="53.090159" lon="04.882916"><ele>-10.8</ele><time>2021-12-08T14:47:15Z</time><name>PT6491</name></trkpt>
<trkpt lat="53.090157" lon="04.882896"><ele>-10.5</ele><time>2021-12-08T14:47:16Z</time><name>PT6492</name></trkpt>
<trkpt lat="53.090156" lon="04.882878"><ele>-10.3</ele><time>2021-12-08T14:47:18Z</time><name>PT6493</name></trkpt>
<trkpt lat="53.090152" lon="04.882862"><ele>-10.4</ele><time>2021-12-08T14:47:18Z</time><name>PT6494</name></trkpt>
<trkpt lat="53.090148" lon="04.882847"><ele>-10.2</ele><time>2021-12-08T14:47:19Z</time><name>PT6495</name></trkpt>
<trkpt lat="53.090144" lon="04.882833"><ele>-10.4</ele><time>2021-12-08T14:47:21Z</time><name>PT6496</name></trkpt>
<trkpt lat="53.090142" lon="04.882819"><ele>-10.4</ele><time>2021-12-08T14:47:21Z</time><name>PT6497</name></trkpt>
<trkpt lat="53.090139" lon="04.882804"><ele>-10.7</ele><time>2021-12-08T14:47:22Z</time><name>PT6498</name></trkpt>
<trkpt lat="53.090137" lon="04.882787"><ele>-10.8</ele><time>2021-12-08T14:47:24Z</time><name>PT6499</name></trkpt>
<trkpt lat="53.090134" lon="04.882771"><ele>-10.7</ele><time>2021-12-08T14:47:24Z</time><name>PT6500</name></trkpt>
<trkpt lat="53.090130" lon="04.882757"><ele>-10.5</ele><time>2021-12-08T14:47:25Z</time><name>PT6501</name></trkpt>
<trkpt lat="53.090127" lon="04.882743"><ele>-10.5</ele><time>2021-12-08T14:47:27Z</time><name>PT6502</name></trkpt>
<trkpt lat="53.090124" lon="04.882726"><ele>-10.4</ele><time>2021-12-08T14:47:27Z</time><name>PT6503</name></trkpt>
<trkpt lat="53.090122" lon="04.882707"><ele>-10.4</ele><time>2021-12-08T14:47:28Z</time><name>PT6504</name></trkpt>
<trkpt lat="53.090120" lon="04.882687"><ele>-10.5</ele><time>2021-12-08T14:47:30Z</time><name>PT6505</name></trkpt>
<trkpt lat="53.090117" lon="04.882670"><ele>-10.6</ele><time>2021-12-08T14:47:30Z</time><name>PT6506</name></trkpt>
<trkpt lat="53.090114" lon="04.882655"><ele>-10.8</ele><time>2021-12-08T14:47:31Z</time><name>PT6507</name></trkpt>
<trkpt lat="53.090110" lon="04.882642"><ele>-10.8</ele><time>2021-12-08T14:47:33Z</time><name>PT6508</name></trkpt>
<trkpt lat="53.090107" lon="04.882626"><ele>-10.9</ele><time>2021-12-08T14:47:33Z</time><name>PT6509</name></trkpt>
<trkpt lat="53.090104" lon="04.882609"><ele>-11</ele><time>2021-12-08T14:47:34Z</time><name>PT6510</name></trkpt>
<trkpt lat="53.090102" lon="04.882591"><ele>-11</ele><time>2021-12-08T14:47:36Z</time><name>PT6511</name></trkpt>
<trkpt lat="53.090098" lon="04.882574"><ele>-11</ele><time>2021-12-08T14:47:36Z</time><name>PT6512</name></trkpt>
<trkpt lat="53.090094" lon="04.882561"><ele>-11</ele><time>2021-12-08T14:47:37Z</time><name>PT6513</name></trkpt>
<trkpt lat="53.090088" lon="04.882552"><ele>-10.7</ele><time>2021-12-08T14:47:39Z</time><name>PT6514</name></trkpt>
<trkpt lat="53.090082" lon="04.882543"><ele>-10.8</ele><time>2021-12-08T14:47:39Z</time><name>PT6515</name></trkpt>
<trkpt lat="53.090077" lon="04.882529"><ele>-10.5</ele><time>2021-12-08T14:47:40Z</time><name>PT6516</name></trkpt>
<trkpt lat="53.090070" lon="04.882516"><ele>-10.7</ele><time>2021-12-08T14:47:42Z</time><name>PT6517</name></trkpt>
<trkpt lat="53.090063" lon="04.882507"><ele>-10.8</ele><time>2021-12-08T14:47:42Z</time><name>PT6518</name></trkpt>
<trkpt lat="53.090054" lon="04.882499"><ele>-11</ele><time>2021-12-08T14:47:43Z</time><name>PT6519</name></trkpt>
<trkpt lat="53.090045" lon="04.882495"><ele>-11</ele><time>2021-12-08T14:47:45Z</time><name>PT6520</name></trkpt>
<trkpt lat="53.090037" lon="04.882491"><ele>-11.2</ele><time>2021-12-08T14:47:45Z</time><name>PT6521</name></trkpt>
<trkpt lat="53.090029" lon="04.882487"><ele>-11.2</ele><time>2021-12-08T14:47:46Z</time><name>PT6522</name></trkpt>
<trkpt lat="53.090020" lon="04.882483"><ele>-11.2</ele><time>2021-12-08T14:47:48Z</time><name>PT6523</name></trkpt>
<trkpt lat="53.090010" lon="04.882479"><ele>-11.3</ele><time>2021-12-08T14:47:48Z</time><name>PT6524</name></trkpt>
<trkpt lat="53.089999" lon="04.882480"><ele>-11.2</ele><time>2021-12-08T14:47:49Z</time><name>PT6525</name></trkpt>
<trkpt lat="53.089990" lon="04.882481"><ele>-11.2</ele><time>2021-12-08T14:47:51Z</time><name>PT6526</name></trkpt>
<trkpt lat="53.089981" lon="04.882481"><ele>-11.3</ele><time>2021-12-08T14:47:51Z</time><name>PT6527</name></trkpt>
<trkpt lat="53.089971" lon="04.882480"><ele>-11.3</ele><time>2021-12-08T14:47:52Z</time><name>PT6528</name></trkpt>
<trkpt lat="53.089960" lon="04.882477"><ele>-11.4</ele><time>2021-12-08T14:47:54Z</time><name>PT6529</name></trkpt>
<trkpt lat="53.089950" lon="04.882474"><ele>-11.4</ele><time>2021-12-08T14:47:54Z</time><name>PT6530</name></trkpt>
<trkpt lat="53.089939" lon="04.882474"><ele>-11.4</ele><time>2021-12-08T14:47:55Z</time><name>PT6531</name></trkpt>
<trkpt lat="53.089930" lon="04.882472"><ele>-11.3</ele><time>2021-12-08T14:47:57Z</time><name>PT6532</name></trkpt>
<trkpt lat="53.089922" lon="04.882470"><ele>-11.2</ele><time>2021-12-08T14:47:57Z</time><name>PT6533</name></trkpt>
<trkpt lat="53.089913" lon="04.882467"><ele>-11</ele><time>2021-12-08T14:47:58Z</time><name>PT6534</name></trkpt>
<trkpt lat="53.089902" lon="04.882465"><ele>-11</ele><time>2021-12-08T14:48:00Z</time><name>PT6535</name></trkpt>
<trkpt lat="53.089891" lon="04.882462"><ele>-11</ele><time>2021-12-08T14:48:00Z</time><name>PT6536</name></trkpt>
<trkpt lat="53.089882" lon="04.882464"><ele>-11</ele><time>2021-12-08T14:48:01Z</time><name>PT6537</name></trkpt>
<trkpt lat="53.089874" lon="04.882464"><ele>-11</ele><time>2021-12-08T14:48:03Z</time><name>PT6538</name></trkpt>
<trkpt lat="53.089865" lon="04.882463"><ele>-11</ele><time>2021-12-08T14:48:03Z</time><name>PT6539</name></trkpt>
<trkpt lat="53.089855" lon="04.882458"><ele>-11</ele><time>2021-12-08T14:48:04Z</time><name>PT6540</name></trkpt>
<trkpt lat="53.089846" lon="04.882454"><ele>-11</ele><time>2021-12-08T14:48:06Z</time><name>PT6541</name></trkpt>
<trkpt lat="53.089836" lon="04.882450"><ele>-11.2</ele><time>2021-12-08T14:48:06Z</time><name>PT6542</name></trkpt>
<trkpt lat="53.089827" lon="04.882450"><ele>-11.2</ele><time>2021-12-08T14:48:08Z</time><name>PT6543</name></trkpt>
<trkpt lat="53.089819" lon="04.882450"><ele>-11.1</ele><time>2021-12-08T14:48:09Z</time><name>PT6544</name></trkpt>
<trkpt lat="53.089808" lon="04.882446"><ele>-11.1</ele><time>2021-12-08T14:48:09Z</time><name>PT6545</name></trkpt>
<trkpt lat="53.089799" lon="04.882442"><ele>-10.8</ele><time>2021-12-08T14:48:10Z</time><name>PT6546</name></trkpt>
<trkpt lat="53.089789" lon="04.882440"><ele>-10.7</ele><time>2021-12-08T14:48:12Z</time><name>PT6547</name></trkpt>
<trkpt lat="53.089779" lon="04.882440"><ele>-10.8</ele><time>2021-12-08T14:48:12Z</time><name>PT6548</name></trkpt>
<trkpt lat="53.089771" lon="04.882440"><ele>-10.9</ele><time>2021-12-08T14:48:13Z</time><name>PT6549</name></trkpt>
<trkpt lat="53.089763" lon="04.882437"><ele>-11</ele><time>2021-12-08T14:48:15Z</time><name>PT6550</name></trkpt>
<trkpt lat="53.089751" lon="04.882433"><ele>-11</ele><time>2021-12-08T14:48:15Z</time><name>PT6551</name></trkpt>
<trkpt lat="53.089741" lon="04.882429"><ele>-11</ele><time>2021-12-08T14:48:16Z</time><name>PT6552</name></trkpt>
<trkpt lat="53.089731" lon="04.882430"><ele>-11.1</ele><time>2021-12-08T14:48:18Z</time><name>PT6553</name></trkpt>
<trkpt lat="53.089722" lon="04.882434"><ele>-11.2</ele><time>2021-12-08T14:48:18Z</time><name>PT6554</name></trkpt>
<trkpt lat="53.089713" lon="04.882433"><ele>-11.3</ele><time>2021-12-08T14:48:19Z</time><name>PT6555</name></trkpt>
<trkpt lat="53.089703" lon="04.882430"><ele>-11.3</ele><time>2021-12-08T14:48:21Z</time><name>PT6556</name></trkpt>
<trkpt lat="53.089692" lon="04.882426"><ele>-11.3</ele><time>2021-12-08T14:48:21Z</time><name>PT6557</name></trkpt>
<trkpt lat="53.089682" lon="04.882425"><ele>-11.2</ele><time>2021-12-08T14:48:22Z</time><name>PT6558</name></trkpt>
<trkpt lat="53.089674" lon="04.882427"><ele>-11.3</ele><time>2021-12-08T14:48:24Z</time><name>PT6559</name></trkpt>
<trkpt lat="53.089666" lon="04.882427"><ele>-11.3</ele><time>2021-12-08T14:48:24Z</time><name>PT6560</name></trkpt>
<trkpt lat="53.089656" lon="04.882425"><ele>-11.3</ele><time>2021-12-08T14:48:25Z</time><name>PT6561</name></trkpt>
<trkpt lat="53.089646" lon="04.882424"><ele>-11.4</ele><time>2021-12-08T14:48:27Z</time><name>PT6562</name></trkpt>
<trkpt lat="53.089636" lon="04.882425"><ele>-11.2</ele><time>2021-12-08T14:48:27Z</time><name>PT6563</name></trkpt>
<trkpt lat="53.089627" lon="04.882427"><ele>-11.2</ele><time>2021-12-08T14:48:28Z</time><name>PT6564</name></trkpt>
<trkpt lat="53.089619" lon="04.882428"><ele>-11.1</ele><time>2021-12-08T14:48:30Z</time><name>PT6565</name></trkpt>
<trkpt lat="53.089613" lon="04.882432"><ele>-11.1</ele><time>2021-12-08T14:48:30Z</time><name>PT6566</name></trkpt>
<trkpt lat="53.089604" lon="04.882433"><ele>-11.1</ele><time>2021-12-08T14:48:31Z</time><name>PT6567</name></trkpt>
<trkpt lat="53.089594" lon="04.882432"><ele>-11</ele><time>2021-12-08T14:48:33Z</time><name>PT6568</name></trkpt>
<trkpt lat="53.089584" lon="04.882426"><ele>-11.1</ele><time>2021-12-08T14:48:33Z</time><name>PT6569</name></trkpt>
<trkpt lat="53.089575" lon="04.882423"><ele>-11.3</ele><time>2021-12-08T14:48:34Z</time><name>PT6570</name></trkpt>
<trkpt lat="53.089568" lon="04.882421"><ele>-11.2</ele><time>2021-12-08T14:48:36Z</time><name>PT6571</name></trkpt>
<trkpt lat="53.089560" lon="04.882418"><ele>-11.3</ele><time>2021-12-08T14:48:36Z</time><name>PT6572</name></trkpt>
<trkpt lat="53.089552" lon="04.882413"><ele>-11.3</ele><time>2021-12-08T14:48:37Z</time><name>PT6573</name></trkpt>
<trkpt lat="53.089544" lon="04.882410"><ele>-11</ele><time>2021-12-08T14:48:39Z</time><name>PT6574</name></trkpt>
<trkpt lat="53.089535" lon="04.882406"><ele>-11</ele><time>2021-12-08T14:48:39Z</time><name>PT6575</name></trkpt>
<trkpt lat="53.089526" lon="04.882400"><ele>-10.9</ele><time>2021-12-08T14:48:40Z</time><name>PT6576</name></trkpt>
<trkpt lat="53.089515" lon="04.882396"><ele>-10.7</ele><time>2021-12-08T14:48:42Z</time><name>PT6577</name></trkpt>
<trkpt lat="53.089505" lon="04.882391"><ele>-10.9</ele><time>2021-12-08T14:48:42Z</time><name>PT6578</name></trkpt>
<trkpt lat="53.089495" lon="04.882389"><ele>-11</ele><time>2021-12-08T14:48:43Z</time><name>PT6579</name></trkpt>
<trkpt lat="53.089485" lon="04.882390"><ele>-11</ele><time>2021-12-08T14:48:45Z</time><name>PT6580</name></trkpt>
<trkpt lat="53.089477" lon="04.882390"><ele>-11.1</ele><time>2021-12-08T14:48:45Z</time><name>PT6581</name></trkpt>
<trkpt lat="53.089468" lon="04.882386"><ele>-11.1</ele><time>2021-12-08T14:48:46Z</time><name>PT6582</name></trkpt>
<trkpt lat="53.089459" lon="04.882381"><ele>-11.1</ele><time>2021-12-08T14:48:48Z</time><name>PT6583</name></trkpt>
<trkpt lat="53.089448" lon="04.882375"><ele>-11</ele><time>2021-12-08T14:48:48Z</time><name>PT6584</name></trkpt>
<trkpt lat="53.089437" lon="04.882375"><ele>-11</ele><time>2021-12-08T14:48:49Z</time><name>PT6585</name></trkpt>
<trkpt lat="53.089427" lon="04.882375"><ele>-10.7</ele><time>2021-12-08T14:48:51Z</time><name>PT6586</name></trkpt>
<trkpt lat="53.089419" lon="04.882372"><ele>-10.7</ele><time>2021-12-08T14:48:51Z</time><name>PT6587</name></trkpt>
<trkpt lat="53.089409" lon="04.882367"><ele>-10.6</ele><time>2021-12-08T14:48:52Z</time><name>PT6588</name></trkpt>
<trkpt lat="53.089400" lon="04.882360"><ele>-10.8</ele><time>2021-12-08T14:48:54Z</time><name>PT6589</name></trkpt>
<trkpt lat="53.089391" lon="04.882354"><ele>-10.8</ele><time>2021-12-08T14:48:54Z</time><name>PT6590</name></trkpt>
<trkpt lat="53.089381" lon="04.882351"><ele>-10.7</ele><time>2021-12-08T14:48:55Z</time><name>PT6591</name></trkpt>
<trkpt lat="53.089370" lon="04.882349"><ele>-10.9</ele><time>2021-12-08T14:48:57Z</time><name>PT6592</name></trkpt>
<trkpt lat="53.089360" lon="04.882348"><ele>-10.9</ele><time>2021-12-08T14:48:57Z</time><name>PT6593</name></trkpt>
<trkpt lat="53.089352" lon="04.882345"><ele>-10.9</ele><time>2021-12-08T14:48:58Z</time><name>PT6594</name></trkpt>
<trkpt lat="53.089343" lon="04.882339"><ele>-11</ele><time>2021-12-08T14:49:00Z</time><name>PT6595</name></trkpt>
<trkpt lat="53.089333" lon="04.882332"><ele>-11</ele><time>2021-12-08T14:49:00Z</time><name>PT6596</name></trkpt>
<trkpt lat="53.089323" lon="04.882326"><ele>-11.2</ele><time>2021-12-08T14:49:01Z</time><name>PT6597</name></trkpt>
<trkpt lat="53.089313" lon="04.882323"><ele>-11.2</ele><time>2021-12-08T14:49:03Z</time><name>PT6598</name></trkpt>
<trkpt lat="53.089304" lon="04.882322"><ele>-11</ele><time>2021-12-08T14:49:03Z</time><name>PT6599</name></trkpt>
<trkpt lat="53.089294" lon="04.882318"><ele>-10.8</ele><time>2021-12-08T14:49:04Z</time><name>PT6600</name></trkpt>
<trkpt lat="53.089283" lon="04.882312"><ele>-10.5</ele><time>2021-12-08T14:49:06Z</time><name>PT6601</name></trkpt>
<trkpt lat="53.089272" lon="04.882306"><ele>-10.6</ele><time>2021-12-08T14:49:06Z</time><name>PT6602</name></trkpt>
<trkpt lat="53.089261" lon="04.882302"><ele>-10.6</ele><time>2021-12-08T14:49:07Z</time><name>PT6603</name></trkpt>
<trkpt lat="53.089251" lon="04.882300"><ele>-10.9</ele><time>2021-12-08T14:49:09Z</time><name>PT6604</name></trkpt>
<trkpt lat="53.089241" lon="04.882302"><ele>-11</ele><time>2021-12-08T14:49:09Z</time><name>PT6605</name></trkpt>
<trkpt lat="53.089232" lon="04.882299"><ele>-11.1</ele><time>2021-12-08T14:49:10Z</time><name>PT6606</name></trkpt>
<trkpt lat="53.089223" lon="04.882294"><ele>-11.1</ele><time>2021-12-08T14:49:12Z</time><name>PT6607</name></trkpt>
<trkpt lat="53.089214" lon="04.882287"><ele>-11.2</ele><time>2021-12-08T14:49:12Z</time><name>PT6608</name></trkpt>
<trkpt lat="53.089206" lon="04.882280"><ele>-11.5</ele><time>2021-12-08T14:49:13Z</time><name>PT6609</name></trkpt>
<trkpt lat="53.089197" lon="04.882279"><ele>-11.4</ele><time>2021-12-08T14:49:15Z</time><name>PT6610</name></trkpt>
<trkpt lat="53.089189" lon="04.882279"><ele>-11.3</ele><time>2021-12-08T14:49:15Z</time><name>PT6611</name></trkpt>
<trkpt lat="53.089181" lon="04.882276"><ele>-11.1</ele><time>2021-12-08T14:49:16Z</time><name>PT6612</name></trkpt>
<trkpt lat="53.089173" lon="04.882273"><ele>-10.9</ele><time>2021-12-08T14:49:18Z</time><name>PT6613</name></trkpt>
<trkpt lat="53.089162" lon="04.882270"><ele>-10.8</ele><time>2021-12-08T14:49:18Z</time><name>PT6614</name></trkpt>
<trkpt lat="53.089151" lon="04.882266"><ele>-10.9</ele><time>2021-12-08T14:49:19Z</time><name>PT6615</name></trkpt>
<trkpt lat="53.089140" lon="04.882262"><ele>-10.9</ele><time>2021-12-08T14:49:21Z</time><name>PT6616</name></trkpt>
<trkpt lat="53.089130" lon="04.882263"><ele>-10.9</ele><time>2021-12-08T14:49:21Z</time><name>PT6617</name></trkpt>
<trkpt lat="53.089122" lon="04.882264"><ele>-11</ele><time>2021-12-08T14:49:22Z</time><name>PT6618</name></trkpt>
<trkpt lat="53.089112" lon="04.882261"><ele>-11</ele><time>2021-12-08T14:49:24Z</time><name>PT6619</name></trkpt>
<trkpt lat="53.089102" lon="04.882255"><ele>-11</ele><time>2021-12-08T14:49:24Z</time><name>PT6620</name></trkpt>
<trkpt lat="53.089092" lon="04.882249"><ele>-10.9</ele><time>2021-12-08T14:49:25Z</time><name>PT6621</name></trkpt>
<trkpt lat="53.089082" lon="04.882245"><ele>-10.9</ele><time>2021-12-08T14:49:27Z</time><name>PT6622</name></trkpt>
<trkpt lat="53.089072" lon="04.882244"><ele>-10.7</ele><time>2021-12-08T14:49:27Z</time><name>PT6623</name></trkpt>
<trkpt lat="53.089063" lon="04.882242"><ele>-10.5</ele><time>2021-12-08T14:49:29Z</time><name>PT6624</name></trkpt>
<trkpt lat="53.089053" lon="04.882239"><ele>-10.4</ele><time>2021-12-08T14:49:30Z</time><name>PT6625</name></trkpt>
<trkpt lat="53.089042" lon="04.882235"><ele>-10.4</ele><time>2021-12-08T14:49:30Z</time><name>PT6626</name></trkpt>
<trkpt lat="53.089031" lon="04.882230"><ele>-10.3</ele><time>2021-12-08T14:49:32Z</time><name>PT6627</name></trkpt>
<trkpt lat="53.089020" lon="04.882229"><ele>-10.4</ele><time>2021-12-08T14:49:33Z</time><name>PT6628</name></trkpt>
<trkpt lat="53.089011" lon="04.882228"><ele>-10.6</ele><time>2021-12-08T14:49:33Z</time><name>PT6629</name></trkpt>
<trkpt lat="53.089001" lon="04.882229"><ele>-10.7</ele><time>2021-12-08T14:49:34Z</time><name>PT6630</name></trkpt>
<trkpt lat="53.088991" lon="04.882227"><ele>-10.9</ele><time>2021-12-08T14:49:36Z</time><name>PT6631</name></trkpt>
<trkpt lat="53.088980" lon="04.882219"><ele>-11</ele><time>2021-12-08T14:49:36Z</time><name>PT6632</name></trkpt>
<trkpt lat="53.088970" lon="04.882211"><ele>-11</ele><time>2021-12-08T14:49:37Z</time><name>PT6633</name></trkpt>
<trkpt lat="53.088961" lon="04.882205"><ele>-10.9</ele><time>2021-12-08T14:49:39Z</time><name>PT6634</name></trkpt>
<trkpt lat="53.088952" lon="04.882201"><ele>-11</ele><time>2021-12-08T14:49:39Z</time><name>PT6635</name></trkpt>
<trkpt lat="53.088943" lon="04.882198"><ele>-10.9</ele><time>2021-12-08T14:49:40Z</time><name>PT6636</name></trkpt>
<trkpt lat="53.088934" lon="04.882191"><ele>-10.9</ele><time>2021-12-08T14:49:42Z</time><name>PT6637</name></trkpt>
<trkpt lat="53.088925" lon="04.882184"><ele>-10.8</ele><time>2021-12-08T14:49:42Z</time><name>PT6638</name></trkpt>
<trkpt lat="53.088916" lon="04.882183"><ele>-10.8</ele><time>2021-12-08T14:49:43Z</time><name>PT6639</name></trkpt>
<trkpt lat="53.088908" lon="04.882185"><ele>-10.5</ele><time>2021-12-08T14:49:45Z</time><name>PT6640</name></trkpt>
<trkpt lat="53.088901" lon="04.882186"><ele>-10.5</ele><time>2021-12-08T14:49:45Z</time><name>PT6641</name></trkpt>
<trkpt lat="53.088895" lon="04.882182"><ele>-10.4</ele><time>2021-12-08T14:49:46Z</time><name>PT6642</name></trkpt>
<trkpt lat="53.088886" lon="04.882178"><ele>-10.4</ele><time>2021-12-08T14:49:48Z</time><name>PT6643</name></trkpt>
<trkpt lat="53.088879" lon="04.882176"><ele>-10.5</ele><time>2021-12-08T14:49:48Z</time><name>PT6644</name></trkpt>
<trkpt lat="53.088874" lon="04.882170"><ele>-10.5</ele><time>2021-12-08T14:49:49Z</time><name>PT6645</name></trkpt>
<trkpt lat="53.088869" lon="04.882167"><ele>-10.4</ele><time>2021-12-08T14:49:51Z</time><name>PT6646</name></trkpt>
<trkpt lat="53.088866" lon="04.882160"><ele>-10.4</ele><time>2021-12-08T14:49:51Z</time><name>PT6647</name></trkpt>
<trkpt lat="53.088865" lon="04.882159"><ele>-10</ele><time>2021-12-08T14:49:52Z</time><name>PT6648</name></trkpt>
<trkpt lat="53.088865" lon="04.882160"><ele>-9.7</ele><time>2021-12-08T14:49:54Z</time><name>PT6649</name></trkpt>
<trkpt lat="53.088864" lon="04.882160"><ele>-9.5</ele><time>2021-12-08T14:49:54Z</time><name>PT6650</name></trkpt>
<trkpt lat="53.088864" lon="04.882158"><ele>-9.3</ele><time>2021-12-08T14:50:21Z</time><name>PT6651</name></trkpt>
<trkpt lat="53.088863" lon="04.882163"><ele>-9.3</ele><time>2021-12-08T14:50:21Z</time><name>PT6652</name></trkpt>
<trkpt lat="53.088864" lon="04.882163"><ele>-9.4</ele><time>2021-12-08T14:50:22Z</time><name>PT6653</name></trkpt>
<trkpt lat="53.088863" lon="04.882163"><ele>-9.7</ele><time>2021-12-08T14:50:24Z</time><name>PT6654</name></trkpt>
<trkpt lat="53.088864" lon="04.882160"><ele>-9.7</ele><time>2021-12-08T14:50:25Z</time><name>PT6655</name></trkpt>
<trkpt lat="53.088862" lon="04.882162"><ele>-9.4</ele><time>2021-12-08T14:50:27Z</time><name>PT6656</name></trkpt>
<trkpt lat="53.088862" lon="04.882160"><ele>-9.5</ele><time>2021-12-08T14:50:27Z</time><name>PT6657</name></trkpt>
<trkpt lat="53.088863" lon="04.882161"><ele>-9.1</ele><time>2021-12-08T14:50:28Z</time><name>PT6658</name></trkpt>
<trkpt lat="53.088864" lon="04.882161"><ele>-9.1</ele><time>2021-12-08T14:50:30Z</time><name>PT6659</name></trkpt>
<trkpt lat="53.088860" lon="04.882147"><ele>-9.8</ele><time>2021-12-08T14:50:48Z</time><name>PT6660</name></trkpt>
<trkpt lat="53.088857" lon="04.882142"><ele>-9.7</ele><time>2021-12-08T14:50:48Z</time><name>PT6661</name></trkpt>
<trkpt lat="53.088856" lon="04.882135"><ele>-9.9</ele><time>2021-12-08T14:50:49Z</time><name>PT6662</name></trkpt>
<trkpt lat="53.088855" lon="04.882117"><ele>-9.5</ele><time>2021-12-08T14:50:51Z</time><name>PT6663</name></trkpt>
<trkpt lat="53.088853" lon="04.882100"><ele>-9.4</ele><time>2021-12-08T14:50:51Z</time><name>PT6664</name></trkpt>
<trkpt lat="53.088849" lon="04.882082"><ele>-9.1</ele><time>2021-12-08T14:50:52Z</time><name>PT6665</name></trkpt>
<trkpt lat="53.088843" lon="04.882066"><ele>-9</ele><time>2021-12-08T14:50:54Z</time><name>PT6666</name></trkpt>
<trkpt lat="53.088836" lon="04.882053"><ele>-9.1</ele><time>2021-12-08T14:50:54Z</time><name>PT6667</name></trkpt>
<trkpt lat="53.088829" lon="04.882040"><ele>-9.4</ele><time>2021-12-08T14:50:55Z</time><name>PT6668</name></trkpt>
<trkpt lat="53.088821" lon="04.882026"><ele>-9.8</ele><time>2021-12-08T14:50:57Z</time><name>PT6669</name></trkpt>
<trkpt lat="53.088813" lon="04.882010"><ele>-10</ele><time>2021-12-08T14:50:57Z</time><name>PT6670</name></trkpt>
<trkpt lat="53.088805" lon="04.881998"><ele>-10.3</ele><time>2021-12-08T14:50:58Z</time><name>PT6671</name></trkpt>
<trkpt lat="53.088795" lon="04.881989"><ele>-10.6</ele><time>2021-12-08T14:51:00Z</time><name>PT6672</name></trkpt>
<trkpt lat="53.088785" lon="04.881980"><ele>-11</ele><time>2021-12-08T14:51:00Z</time><name>PT6673</name></trkpt>
<trkpt lat="53.088776" lon="04.881973"><ele>-11.2</ele><time>2021-12-08T14:51:01Z</time><name>PT6674</name></trkpt>
<trkpt lat="53.088767" lon="04.881966"><ele>-11.3</ele><time>2021-12-08T14:51:03Z</time><name>PT6675</name></trkpt>
<trkpt lat="53.088758" lon="04.881958"><ele>-11.5</ele><time>2021-12-08T14:51:03Z</time><name>PT6676</name></trkpt>
<trkpt lat="53.088749" lon="04.881949"><ele>-11.5</ele><time>2021-12-08T14:51:04Z</time><name>PT6677</name></trkpt>
<trkpt lat="53.088740" lon="04.881941"><ele>-11.1</ele><time>2021-12-08T14:51:06Z</time><name>PT6678</name></trkpt>
<trkpt lat="53.088731" lon="04.881933"><ele>-10.9</ele><time>2021-12-08T14:51:06Z</time><name>PT6679</name></trkpt>
<trkpt lat="53.088722" lon="04.881926"><ele>-10.5</ele><time>2021-12-08T14:51:07Z</time><name>PT6680</name></trkpt>
<trkpt lat="53.088713" lon="04.881920"><ele>-10</ele><time>2021-12-08T14:51:09Z</time><name>PT6681</name></trkpt>
<trkpt lat="53.088704" lon="04.881909"><ele>-9.9</ele><time>2021-12-08T14:51:09Z</time><name>PT6682</name></trkpt>
<trkpt lat="53.088694" lon="04.881898"><ele>-9.8</ele><time>2021-12-08T14:51:10Z</time><name>PT6683</name></trkpt>
<trkpt lat="53.088684" lon="04.881889"><ele>-9.6</ele><time>2021-12-08T14:51:12Z</time><name>PT6684</name></trkpt>
<trkpt lat="53.088673" lon="04.881882"><ele>-9.6</ele><time>2021-12-08T14:51:12Z</time><name>PT6685</name></trkpt>
<trkpt lat="53.088663" lon="04.881876"><ele>-9.5</ele><time>2021-12-08T14:51:13Z</time><name>PT6686</name></trkpt>
<trkpt lat="53.088656" lon="04.881872"><ele>-9.6</ele><time>2021-12-08T14:51:15Z</time><name>PT6687</name></trkpt>
<trkpt lat="53.088648" lon="04.881867"><ele>-9.7</ele><time>2021-12-08T14:51:15Z</time><name>PT6688</name></trkpt>
<trkpt lat="53.088639" lon="04.881861"><ele>-9.9</ele><time>2021-12-08T14:51:16Z</time><name>PT6689</name></trkpt>
<trkpt lat="53.088630" lon="04.881854"><ele>-10.2</ele><time>2021-12-08T14:51:18Z</time><name>PT6690</name></trkpt>
<trkpt lat="53.088622" lon="04.881849"><ele>-10.4</ele><time>2021-12-08T14:51:18Z</time><name>PT6691</name></trkpt>
<trkpt lat="53.088617" lon="04.881842"><ele>-10.3</ele><time>2021-12-08T14:51:19Z</time><name>PT6692</name></trkpt>
<trkpt lat="53.088614" lon="04.881840"><ele>-10.4</ele><time>2021-12-08T14:51:21Z</time><name>PT6693</name></trkpt>
<trkpt lat="53.088612" lon="04.881842"><ele>-10.4</ele><time>2021-12-08T14:51:21Z</time><name>PT6694</name></trkpt>
<trkpt lat="53.088610" lon="04.881841"><ele>-10.1</ele><time>2021-12-08T14:51:22Z</time><name>PT6695</name></trkpt>
<trkpt lat="53.088608" lon="04.881842"><ele>-10.1</ele><time>2021-12-08T14:51:24Z</time><name>PT6696</name></trkpt>
<trkpt lat="53.088608" lon="04.881841"><ele>-9.9</ele><time>2021-12-08T14:51:24Z</time><name>PT6697</name></trkpt>
<trkpt lat="53.088607" lon="04.881840"><ele>-9.8</ele><time>2021-12-08T14:51:39Z</time><name>PT6698</name></trkpt>
<trkpt lat="53.088606" lon="04.881838"><ele>-9.9</ele><time>2021-12-08T14:51:39Z</time><name>PT6699</name></trkpt>
<trkpt lat="53.088608" lon="04.881832"><ele>-9.9</ele><time>2021-12-08T14:51:40Z</time><name>PT6700</name></trkpt>
<trkpt lat="53.088609" lon="04.881828"><ele>-10</ele><time>2021-12-08T14:51:42Z</time><name>PT6701</name></trkpt>
<trkpt lat="53.088607" lon="04.881830"><ele>-9.9</ele><time>2021-12-08T14:51:42Z</time><name>PT6702</name></trkpt>
<trkpt lat="53.088606" lon="04.881831"><ele>-9.7</ele><time>2021-12-08T14:51:43Z</time><name>PT6703</name></trkpt>
<trkpt lat="53.088606" lon="04.881828"><ele>-9.6</ele><time>2021-12-08T14:51:45Z</time><name>PT6704</name></trkpt>
<trkpt lat="53.088607" lon="04.881826"><ele>-9.5</ele><time>2021-12-08T14:51:45Z</time><name>PT6705</name></trkpt>
<trkpt lat="53.088607" lon="04.881825"><ele>-9.4</ele><time>2021-12-08T14:52:00Z</time><name>PT6706</name></trkpt>
<trkpt lat="53.088608" lon="04.881824"><ele>-9.1</ele><time>2021-12-08T14:52:00Z</time><name>PT6707</name></trkpt>
<trkpt lat="53.088607" lon="04.881824"><ele>-9</ele><time>2021-12-08T14:52:01Z</time><name>PT6708</name></trkpt>
<trkpt lat="53.088606" lon="04.881821"><ele>-9</ele><time>2021-12-08T14:52:03Z</time><name>PT6709</name></trkpt>
<trkpt lat="53.088605" lon="04.881819"><ele>-8.9</ele><time>2021-12-08T14:52:03Z</time><name>PT6710</name></trkpt>
<trkpt lat="53.088602" lon="04.881814"><ele>-9.7</ele><time>2021-12-08T14:52:15Z</time><name>PT6711</name></trkpt>
<trkpt lat="53.088595" lon="04.881807"><ele>-9.8</ele><time>2021-12-08T14:52:16Z</time><name>PT6712</name></trkpt>
<trkpt lat="53.088587" lon="04.881800"><ele>-9.9</ele><time>2021-12-08T14:52:18Z</time><name>PT6713</name></trkpt>
<trkpt lat="53.088577" lon="04.881789"><ele>-9.9</ele><time>2021-12-08T14:52:18Z</time><name>PT6714</name></trkpt>
<trkpt lat="53.088567" lon="04.881777"><ele>-10.1</ele><time>2021-12-08T14:52:19Z</time><name>PT6715</name></trkpt>
<trkpt lat="53.088556" lon="04.881767"><ele>-10.4</ele><time>2021-12-08T14:52:21Z</time><name>PT6716</name></trkpt>
<trkpt lat="53.088545" lon="04.881759"><ele>-10.5</ele><time>2021-12-08T14:52:21Z</time><name>PT6717</name></trkpt>
<trkpt lat="53.088534" lon="04.881753"><ele>-10.7</ele><time>2021-12-08T14:52:22Z</time><name>PT6718</name></trkpt>
<trkpt lat="53.088523" lon="04.881747"><ele>-10.9</ele><time>2021-12-08T14:52:24Z</time><name>PT6719</name></trkpt>
<trkpt lat="53.088513" lon="04.881742"><ele>-10.9</ele><time>2021-12-08T14:52:24Z</time><name>PT6720</name></trkpt>
<trkpt lat="53.088503" lon="04.881735"><ele>-10.8</ele><time>2021-12-08T14:52:25Z</time><name>PT6721</name></trkpt>
<trkpt lat="53.088492" lon="04.881724"><ele>-10.4</ele><time>2021-12-08T14:52:27Z</time><name>PT6722</name></trkpt>
<trkpt lat="53.088482" lon="04.881715"><ele>-10.4</ele><time>2021-12-08T14:52:27Z</time><name>PT6723</name></trkpt>
<trkpt lat="53.088471" lon="04.881705"><ele>-10.5</ele><time>2021-12-08T14:52:28Z</time><name>PT6724</name></trkpt>
<trkpt lat="53.088459" lon="04.881696"><ele>-10.6</ele><time>2021-12-08T14:52:30Z</time><name>PT6725</name></trkpt>
<trkpt lat="53.088447" lon="04.881690"><ele>-10.6</ele><time>2021-12-08T14:52:30Z</time><name>PT6726</name></trkpt>
<trkpt lat="53.088436" lon="04.881683"><ele>-10.9</ele><time>2021-12-08T14:52:31Z</time><name>PT6727</name></trkpt>
<trkpt lat="53.088426" lon="04.881678"><ele>-11</ele><time>2021-12-08T14:52:33Z</time><name>PT6728</name></trkpt>
<trkpt lat="53.088418" lon="04.881670"><ele>-10.8</ele><time>2021-12-08T14:52:33Z</time><name>PT6729</name></trkpt>
<trkpt lat="53.088409" lon="04.881661"><ele>-10.9</ele><time>2021-12-08T14:52:34Z</time><name>PT6730</name></trkpt>
<trkpt lat="53.088399" lon="04.881654"><ele>-11</ele><time>2021-12-08T14:52:36Z</time><name>PT6731</name></trkpt>
<trkpt lat="53.088389" lon="04.881646"><ele>-11</ele><time>2021-12-08T14:52:36Z</time><name>PT6732</name></trkpt>
<trkpt lat="53.088378" lon="04.881637"><ele>-11.3</ele><time>2021-12-08T14:52:37Z</time><name>PT6733</name></trkpt>
<trkpt lat="53.088367" lon="04.881630"><ele>-11</ele><time>2021-12-08T14:52:39Z</time><name>PT6734</name></trkpt>
<trkpt lat="53.088356" lon="04.881625"><ele>-11</ele><time>2021-12-08T14:52:39Z</time><name>PT6735</name></trkpt>
<trkpt lat="53.088347" lon="04.881619"><ele>-10.6</ele><time>2021-12-08T14:52:40Z</time><name>PT6736</name></trkpt>
<trkpt lat="53.088338" lon="04.881611"><ele>-10.5</ele><time>2021-12-08T14:52:42Z</time><name>PT6737</name></trkpt>
<trkpt lat="53.088329" lon="04.881601"><ele>-10.4</ele><time>2021-12-08T14:52:42Z</time><name>PT6738</name></trkpt>
<trkpt lat="53.088319" lon="04.881590"><ele>-10.4</ele><time>2021-12-08T14:52:43Z</time><name>PT6739</name></trkpt>
<trkpt lat="53.088309" lon="04.881579"><ele>-10.7</ele><time>2021-12-08T14:52:45Z</time><name>PT6740</name></trkpt>
<trkpt lat="53.088297" lon="04.881568"><ele>-10.5</ele><time>2021-12-08T14:52:45Z</time><name>PT6741</name></trkpt>
<trkpt lat="53.088287" lon="04.881556"><ele>-10.3</ele><time>2021-12-08T14:52:46Z</time><name>PT6742</name></trkpt>
<trkpt lat="53.088276" lon="04.881549"><ele>-10.2</ele><time>2021-12-08T14:52:48Z</time><name>PT6743</name></trkpt>
<trkpt lat="53.088267" lon="04.881544"><ele>-10.1</ele><time>2021-12-08T14:52:48Z</time><name>PT6744</name></trkpt>
<trkpt lat="53.088259" lon="04.881536"><ele>-10</ele><time>2021-12-08T14:52:49Z</time><name>PT6745</name></trkpt>
<trkpt lat="53.088248" lon="04.881528"><ele>-9.9</ele><time>2021-12-08T14:52:51Z</time><name>PT6746</name></trkpt>
<trkpt lat="53.088238" lon="04.881516"><ele>-10.1</ele><time>2021-12-08T14:52:51Z</time><name>PT6747</name></trkpt>
<trkpt lat="53.088227" lon="04.881507"><ele>-10</ele><time>2021-12-08T14:52:52Z</time><name>PT6748</name></trkpt>
<trkpt lat="53.088215" lon="04.881498"><ele>-10</ele><time>2021-12-08T14:52:54Z</time><name>PT6749</name></trkpt>
<trkpt lat="53.088202" lon="04.881492"><ele>-10.1</ele><time>2021-12-08T14:52:54Z</time><name>PT6750</name></trkpt>
<trkpt lat="53.088194" lon="04.881486"><ele>-10.3</ele><time>2021-12-08T14:52:55Z</time><name>PT6751</name></trkpt>
<trkpt lat="53.088184" lon="04.881480"><ele>-10.4</ele><time>2021-12-08T14:52:57Z</time><name>PT6752</name></trkpt>
<trkpt lat="53.088174" lon="04.881473"><ele>-10.4</ele><time>2021-12-08T14:52:57Z</time><name>PT6753</name></trkpt>
<trkpt lat="53.088164" lon="04.881463"><ele>-10.4</ele><time>2021-12-08T14:52:58Z</time><name>PT6754</name></trkpt>
<trkpt lat="53.088155" lon="04.881452"><ele>-10.6</ele><time>2021-12-08T14:53:00Z</time><name>PT6755</name></trkpt>
<trkpt lat="53.088144" lon="04.881440"><ele>-10.5</ele><time>2021-12-08T14:53:00Z</time><name>PT6756</name></trkpt>
<trkpt lat="53.088132" lon="04.881431"><ele>-10.6</ele><time>2021-12-08T14:53:01Z</time><name>PT6757</name></trkpt>
<trkpt lat="53.088121" lon="04.881424"><ele>-10.6</ele><time>2021-12-08T14:53:03Z</time><name>PT6758</name></trkpt>
<trkpt lat="53.088110" lon="04.881417"><ele>-11</ele><time>2021-12-08T14:53:03Z</time><name>PT6759</name></trkpt>
<trkpt lat="53.088101" lon="04.881412"><ele>-11.1</ele><time>2021-12-08T14:53:04Z</time><name>PT6760</name></trkpt>
<trkpt lat="53.088093" lon="04.881405"><ele>-11.6</ele><time>2021-12-08T14:53:06Z</time><name>PT6761</name></trkpt>
<trkpt lat="53.088083" lon="04.881399"><ele>-11.7</ele><time>2021-12-08T14:53:06Z</time><name>PT6762</name></trkpt>
<trkpt lat="53.088073" lon="04.881391"><ele>-11.6</ele><time>2021-12-08T14:53:07Z</time><name>PT6763</name></trkpt>
<trkpt lat="53.088062" lon="04.881381"><ele>-11.7</ele><time>2021-12-08T14:53:09Z</time><name>PT6764</name></trkpt>
<trkpt lat="53.088052" lon="04.881374"><ele>-11.7</ele><time>2021-12-08T14:53:09Z</time><name>PT6765</name></trkpt>
<trkpt lat="53.088042" lon="04.881365"><ele>-11.5</ele><time>2021-12-08T14:53:10Z</time><name>PT6766</name></trkpt>
<trkpt lat="53.088032" lon="04.881360"><ele>-12</ele><time>2021-12-08T14:53:12Z</time><name>PT6767</name></trkpt>
<trkpt lat="53.088023" lon="04.881355"><ele>-12</ele><time>2021-12-08T14:53:12Z</time><name>PT6768</name></trkpt>
<trkpt lat="53.088015" lon="04.881347"><ele>-12.3</ele><time>2021-12-08T14:53:13Z</time><name>PT6769</name></trkpt>
<trkpt lat="53.088005" lon="04.881339"><ele>-12.6</ele><time>2021-12-08T14:53:15Z</time><name>PT6770</name></trkpt>
<trkpt lat="53.087994" lon="04.881331"><ele>-12.8</ele><time>2021-12-08T14:53:15Z</time><name>PT6771</name></trkpt>
<trkpt lat="53.087982" lon="04.881322"><ele>-12.6</ele><time>2021-12-08T14:53:16Z</time><name>PT6772</name></trkpt>
<trkpt lat="53.087972" lon="04.881316"><ele>-12.7</ele><time>2021-12-08T14:53:18Z</time><name>PT6773</name></trkpt>
<trkpt lat="53.087963" lon="04.881311"><ele>-12.6</ele><time>2021-12-08T14:53:18Z</time><name>PT6774</name></trkpt>
<trkpt lat="53.087955" lon="04.881304"><ele>-12.2</ele><time>2021-12-08T14:53:19Z</time><name>PT6775</name></trkpt>
<trkpt lat="53.087947" lon="04.881293"><ele>-11.7</ele><time>2021-12-08T14:53:21Z</time><name>PT6776</name></trkpt>
<trkpt lat="53.087938" lon="04.881283"><ele>-11.8</ele><time>2021-12-08T14:53:21Z</time><name>PT6777</name></trkpt>
<trkpt lat="53.087928" lon="04.881273"><ele>-11.5</ele><time>2021-12-08T14:53:22Z</time><name>PT6778</name></trkpt>
<trkpt lat="53.087918" lon="04.881264"><ele>-11.2</ele><time>2021-12-08T14:53:24Z</time><name>PT6779</name></trkpt>
<trkpt lat="53.087908" lon="04.881256"><ele>-11.3</ele><time>2021-12-08T14:53:24Z</time><name>PT6780</name></trkpt>
<trkpt lat="53.087900" lon="04.881248"><ele>-11.3</ele><time>2021-12-08T14:53:25Z</time><name>PT6781</name></trkpt>
<trkpt lat="53.087893" lon="04.881239"><ele>-11.1</ele><time>2021-12-08T14:53:27Z</time><name>PT6782</name></trkpt>
<trkpt lat="53.087890" lon="04.881236"><ele>-11</ele><time>2021-12-08T14:53:27Z</time><name>PT6783</name></trkpt>
<trkpt lat="53.087888" lon="04.881235"><ele>-11.1</ele><time>2021-12-08T14:53:28Z</time><name>PT6784</name></trkpt>
<trkpt lat="53.087883" lon="04.881231"><ele>-11.2</ele><time>2021-12-08T14:53:30Z</time><name>PT6785</name></trkpt>
<trkpt lat="53.087877" lon="04.881220"><ele>-11</ele><time>2021-12-08T14:53:30Z</time><name>PT6786</name></trkpt>
<trkpt lat="53.087869" lon="04.881210"><ele>-10.5</ele><time>2021-12-08T14:53:31Z</time><name>PT6787</name></trkpt>
<trkpt lat="53.087859" lon="04.881200"><ele>-10.3</ele><time>2021-12-08T14:53:33Z</time><name>PT6788</name></trkpt>
<trkpt lat="53.087848" lon="04.881191"><ele>-10.2</ele><time>2021-12-08T14:53:33Z</time><name>PT6789</name></trkpt>
<trkpt lat="53.087838" lon="04.881183"><ele>-10.1</ele><time>2021-12-08T14:53:34Z</time><name>PT6790</name></trkpt>
<trkpt lat="53.087830" lon="04.881174"><ele>-10.3</ele><time>2021-12-08T14:53:36Z</time><name>PT6791</name></trkpt>
<trkpt lat="53.087822" lon="04.881165"><ele>-10.5</ele><time>2021-12-08T14:53:36Z</time><name>PT6792</name></trkpt>
<trkpt lat="53.087818" lon="04.881150"><ele>-10.8</ele><time>2021-12-08T14:53:37Z</time><name>PT6793</name></trkpt>
<trkpt lat="53.087818" lon="04.881137"><ele>-10.8</ele><time>2021-12-08T14:53:39Z</time><name>PT6794</name></trkpt>
<trkpt lat="53.087818" lon="04.881122"><ele>-10.6</ele><time>2021-12-08T14:53:39Z</time><name>PT6795</name></trkpt>
<trkpt lat="53.087816" lon="04.881111"><ele>-10.7</ele><time>2021-12-08T14:53:40Z</time><name>PT6796</name></trkpt>
<trkpt lat="53.087815" lon="04.881105"><ele>-10.8</ele><time>2021-12-08T14:53:42Z</time><name>PT6797</name></trkpt>
<trkpt lat="53.087813" lon="04.881101"><ele>-10.7</ele><time>2021-12-08T14:53:42Z</time><name>PT6798</name></trkpt>
<trkpt lat="53.087810" lon="04.881098"><ele>-10.8</ele><time>2021-12-08T14:53:43Z</time><name>PT6799</name></trkpt>
<trkpt lat="53.087808" lon="04.881097"><ele>-10.7</ele><time>2021-12-08T14:53:45Z</time><name>PT6800</name></trkpt>
<trkpt lat="53.087808" lon="04.881095"><ele>-10.5</ele><time>2021-12-08T14:53:45Z</time><name>PT6801</name></trkpt>
<trkpt lat="53.087807" lon="04.881094"><ele>-10.4</ele><time>2021-12-08T14:53:46Z</time><name>PT6802</name></trkpt>
<trkpt lat="53.087807" lon="04.881094"><ele>-10.5</ele><time>2021-12-08T14:53:48Z</time><name>PT6803</name></trkpt>
<trkpt lat="53.087807" lon="04.881095"><ele>-10.4</ele><time>2021-12-08T14:53:48Z</time><name>PT6804</name></trkpt>
<trkpt lat="53.087805" lon="04.881090"><ele>-10.4</ele><time>2021-12-08T14:53:51Z</time><name>PT6805</name></trkpt>
<trkpt lat="53.087804" lon="04.881090"><ele>-10.6</ele><time>2021-12-08T14:53:51Z</time><name>PT6806</name></trkpt>
<trkpt lat="53.087802" lon="04.881088"><ele>-10.7</ele><time>2021-12-08T14:53:52Z</time><name>PT6807</name></trkpt>
<trkpt lat="53.087801" lon="04.881087"><ele>-10.8</ele><time>2021-12-08T14:53:54Z</time><name>PT6808</name></trkpt>
<trkpt lat="53.087799" lon="04.881084"><ele>-10.8</ele><time>2021-12-08T14:53:57Z</time><name>PT6809</name></trkpt>
<trkpt lat="53.087795" lon="04.881079"><ele>-10.8</ele><time>2021-12-08T14:53:57Z</time><name>PT6810</name></trkpt>
<trkpt lat="53.087790" lon="04.881072"><ele>-10.8</ele><time>2021-12-08T14:53:58Z</time><name>PT6811</name></trkpt>
<trkpt lat="53.087785" lon="04.881065"><ele>-10.8</ele><time>2021-12-08T14:54:00Z</time><name>PT6812</name></trkpt>
<trkpt lat="53.087780" lon="04.881060"><ele>-10.8</ele><time>2021-12-08T14:54:00Z</time><name>PT6813</name></trkpt>
<trkpt lat="53.087775" lon="04.881054"><ele>-10.7</ele><time>2021-12-08T14:54:01Z</time><name>PT6814</name></trkpt>
<trkpt lat="53.087771" lon="04.881049"><ele>-10.4</ele><time>2021-12-08T14:54:03Z</time><name>PT6815</name></trkpt>
<trkpt lat="53.087767" lon="04.881040"><ele>-10.2</ele><time>2021-12-08T14:54:03Z</time><name>PT6816</name></trkpt>
<trkpt lat="53.087766" lon="04.881036"><ele>-10.4</ele><time>2021-12-08T14:54:04Z</time><name>PT6817</name></trkpt>
<trkpt lat="53.087764" lon="04.881032"><ele>-10.4</ele><time>2021-12-08T14:54:06Z</time><name>PT6818</name></trkpt>
<trkpt lat="53.087768" lon="04.881020"><ele>-10.4</ele><time>2021-12-08T14:54:06Z</time><name>PT6819</name></trkpt>
<trkpt lat="53.087771" lon="04.881015"><ele>-10.6</ele><time>2021-12-08T14:54:07Z</time><name>PT6820</name></trkpt>
<trkpt lat="53.087773" lon="04.881010"><ele>-10.6</ele><time>2021-12-08T14:54:09Z</time><name>PT6821</name></trkpt>
<trkpt lat="53.087772" lon="04.881009"><ele>-10.5</ele><time>2021-12-08T14:54:09Z</time><name>PT6822</name></trkpt>
<trkpt lat="53.087770" lon="04.881006"><ele>-10.6</ele><time>2021-12-08T14:54:10Z</time><name>PT6823</name></trkpt>
<trkpt lat="53.087765" lon="04.880997"><ele>-10.4</ele><time>2021-12-08T14:54:12Z</time><name>PT6824</name></trkpt>
<trkpt lat="53.087758" lon="04.880985"><ele>-10.4</ele><time>2021-12-08T14:54:13Z</time><name>PT6825</name></trkpt>
<trkpt lat="53.087751" lon="04.880974"><ele>-10.2</ele><time>2021-12-08T14:54:15Z</time><name>PT6826</name></trkpt>
<trkpt lat="53.087743" lon="04.880962"><ele>-10.3</ele><time>2021-12-08T14:54:15Z</time><name>PT6827</name></trkpt>
<trkpt lat="53.087734" lon="04.880951"><ele>-10.2</ele><time>2021-12-08T14:54:16Z</time><name>PT6828</name></trkpt>
<trkpt lat="53.087724" lon="04.880939"><ele>-10.2</ele><time>2021-12-08T14:54:18Z</time><name>PT6829</name></trkpt>
<trkpt lat="53.087717" lon="04.880929"><ele>-9.9</ele><time>2021-12-08T14:54:18Z</time><name>PT6830</name></trkpt>
<trkpt lat="53.087710" lon="04.880918"><ele>-9.9</ele><time>2021-12-08T14:54:19Z</time><name>PT6831</name></trkpt>
<trkpt lat="53.087702" lon="04.880906"><ele>-9.9</ele><time>2021-12-08T14:54:21Z</time><name>PT6832</name></trkpt>
<trkpt lat="53.087693" lon="04.880893"><ele>-10</ele><time>2021-12-08T14:54:21Z</time><name>PT6833</name></trkpt>
<trkpt lat="53.087683" lon="04.880880"><ele>-10</ele><time>2021-12-08T14:54:22Z</time><name>PT6834</name></trkpt>
<trkpt lat="53.087672" lon="04.880866"><ele>-10.3</ele><time>2021-12-08T14:54:24Z</time><name>PT6835</name></trkpt>
<trkpt lat="53.087663" lon="04.880853"><ele>-10.4</ele><time>2021-12-08T14:54:24Z</time><name>PT6836</name></trkpt>
<trkpt lat="53.087653" lon="04.880843"><ele>-10.6</ele><time>2021-12-08T14:54:25Z</time><name>PT6837</name></trkpt>
<trkpt lat="53.087645" lon="04.880833"><ele>-10.7</ele><time>2021-12-08T14:54:27Z</time><name>PT6838</name></trkpt>
<trkpt lat="53.087636" lon="04.880825"><ele>-11</ele><time>2021-12-08T14:54:27Z</time><name>PT6839</name></trkpt>
<trkpt lat="53.087628" lon="04.880814"><ele>-10.9</ele><time>2021-12-08T14:54:28Z</time><name>PT6840</name></trkpt>
<trkpt lat="53.087619" lon="04.880798"><ele>-11</ele><time>2021-12-08T14:54:30Z</time><name>PT6841</name></trkpt>
<trkpt lat="53.087611" lon="04.880782"><ele>-11</ele><time>2021-12-08T14:54:30Z</time><name>PT6842</name></trkpt>
<trkpt lat="53.087601" lon="04.880770"><ele>-10.9</ele><time>2021-12-08T14:54:31Z</time><name>PT6843</name></trkpt>
<trkpt lat="53.087591" lon="04.880758"><ele>-10.8</ele><time>2021-12-08T14:54:33Z</time><name>PT6844</name></trkpt>
<trkpt lat="53.087582" lon="04.880746"><ele>-11</ele><time>2021-12-08T14:54:33Z</time><name>PT6845</name></trkpt>
<trkpt lat="53.087573" lon="04.880738"><ele>-10.8</ele><time>2021-12-08T14:54:35Z</time><name>PT6846</name></trkpt>
<trkpt lat="53.087564" lon="04.880730"><ele>-10.7</ele><time>2021-12-08T14:54:36Z</time><name>PT6847</name></trkpt>
<trkpt lat="53.087555" lon="04.880722"><ele>-10.8</ele><time>2021-12-08T14:54:36Z</time><name>PT6848</name></trkpt>
<trkpt lat="53.087547" lon="04.880708"><ele>-10.8</ele><time>2021-12-08T14:54:37Z</time><name>PT6849</name></trkpt>
<trkpt lat="53.087538" lon="04.880691"><ele>-11</ele><time>2021-12-08T14:54:39Z</time><name>PT6850</name></trkpt>
<trkpt lat="53.087528" lon="04.880676"><ele>-11</ele><time>2021-12-08T14:54:39Z</time><name>PT6851</name></trkpt>
<trkpt lat="53.087519" lon="04.880664"><ele>-11</ele><time>2021-12-08T14:54:40Z</time><name>PT6852</name></trkpt>
<trkpt lat="53.087510" lon="04.880653"><ele>-10.9</ele><time>2021-12-08T14:54:42Z</time><name>PT6853</name></trkpt>
<trkpt lat="53.087501" lon="04.880643"><ele>-10.9</ele><time>2021-12-08T14:54:42Z</time><name>PT6854</name></trkpt>
<trkpt lat="53.087493" lon="04.880632"><ele>-10.9</ele><time>2021-12-08T14:54:43Z</time><name>PT6855</name></trkpt>
<trkpt lat="53.087484" lon="04.880623"><ele>-10.7</ele><time>2021-12-08T14:54:45Z</time><name>PT6856</name></trkpt>
<trkpt lat="53.087475" lon="04.880613"><ele>-10.7</ele><time>2021-12-08T14:54:45Z</time><name>PT6857</name></trkpt>
<trkpt lat="53.087467" lon="04.880601"><ele>-11</ele><time>2021-12-08T14:54:46Z</time><name>PT6858</name></trkpt>
<trkpt lat="53.087460" lon="04.880589"><ele>-11</ele><time>2021-12-08T14:54:48Z</time><name>PT6859</name></trkpt>
<trkpt lat="53.087451" lon="04.880577"><ele>-11.1</ele><time>2021-12-08T14:54:48Z</time><name>PT6860</name></trkpt>
<trkpt lat="53.087444" lon="04.880566"><ele>-11.1</ele><time>2021-12-08T14:54:49Z</time><name>PT6861</name></trkpt>
<trkpt lat="53.087435" lon="04.880555"><ele>-11</ele><time>2021-12-08T14:54:51Z</time><name>PT6862</name></trkpt>
<trkpt lat="53.087427" lon="04.880543"><ele>-11.1</ele><time>2021-12-08T14:54:51Z</time><name>PT6863</name></trkpt>
<trkpt lat="53.087417" lon="04.880532"><ele>-11.2</ele><time>2021-12-08T14:54:52Z</time><name>PT6864</name></trkpt>
<trkpt lat="53.087408" lon="04.880523"><ele>-11.2</ele><time>2021-12-08T14:54:54Z</time><name>PT6865</name></trkpt>
<trkpt lat="53.087399" lon="04.880514"><ele>-11.4</ele><time>2021-12-08T14:54:54Z</time><name>PT6866</name></trkpt>
<trkpt lat="53.087391" lon="04.880500"><ele>-11.6</ele><time>2021-12-08T14:54:55Z</time><name>PT6867</name></trkpt>
<trkpt lat="53.087385" lon="04.880485"><ele>-11.5</ele><time>2021-12-08T14:54:57Z</time><name>PT6868</name></trkpt>
<trkpt lat="53.087377" lon="04.880469"><ele>-11.5</ele><time>2021-12-08T14:54:57Z</time><name>PT6869</name></trkpt>
<trkpt lat="53.087369" lon="04.880452"><ele>-11.8</ele><time>2021-12-08T14:54:58Z</time><name>PT6870</name></trkpt>
<trkpt lat="53.087361" lon="04.880434"><ele>-11.9</ele><time>2021-12-08T14:55:00Z</time><name>PT6871</name></trkpt>
<trkpt lat="53.087352" lon="04.880417"><ele>-11.8</ele><time>2021-12-08T14:55:00Z</time><name>PT6872</name></trkpt>
<trkpt lat="53.087342" lon="04.880402"><ele>-11.7</ele><time>2021-12-08T14:55:01Z</time><name>PT6873</name></trkpt>
<trkpt lat="53.087333" lon="04.880388"><ele>-11.8</ele><time>2021-12-08T14:55:03Z</time><name>PT6874</name></trkpt>
<trkpt lat="53.087326" lon="04.880375"><ele>-11.8</ele><time>2021-12-08T14:55:03Z</time><name>PT6875</name></trkpt>
<trkpt lat="53.087319" lon="04.880361"><ele>-11.8</ele><time>2021-12-08T14:55:04Z</time><name>PT6876</name></trkpt>
<trkpt lat="53.087313" lon="04.880343"><ele>-12</ele><time>2021-12-08T14:55:06Z</time><name>PT6877</name></trkpt>
<trkpt lat="53.087308" lon="04.880324"><ele>-11.9</ele><time>2021-12-08T14:55:06Z</time><name>PT6878</name></trkpt>
<trkpt lat="53.087301" lon="04.880308"><ele>-11.7</ele><time>2021-12-08T14:55:07Z</time><name>PT6879</name></trkpt>
<trkpt lat="53.087298" lon="04.880289"><ele>-11.4</ele><time>2021-12-08T14:55:09Z</time><name>PT6880</name></trkpt>
<trkpt lat="53.087296" lon="04.880281"><ele>-11</ele><time>2021-12-08T14:55:09Z</time><name>PT6881</name></trkpt>
<trkpt lat="53.087294" lon="04.880274"><ele>-10.7</ele><time>2021-12-08T14:55:10Z</time><name>PT6882</name></trkpt>
<trkpt lat="53.087294" lon="04.880260"><ele>-10.4</ele><time>2021-12-08T14:55:12Z</time><name>PT6883</name></trkpt>
<trkpt lat="53.087293" lon="04.880242"><ele>-10.4</ele><time>2021-12-08T14:55:12Z</time><name>PT6884</name></trkpt>
<trkpt lat="53.087290" lon="04.880224"><ele>-10.6</ele><time>2021-12-08T14:55:13Z</time><name>PT6885</name></trkpt>
<trkpt lat="53.087287" lon="04.880204"><ele>-11.3</ele><time>2021-12-08T14:55:15Z</time><name>PT6886</name></trkpt>
<trkpt lat="53.087284" lon="04.880186"><ele>-11.4</ele><time>2021-12-08T14:55:15Z</time><name>PT6887</name></trkpt>
<trkpt lat="53.087279" lon="04.880170"><ele>-11.3</ele><time>2021-12-08T14:55:16Z</time><name>PT6888</name></trkpt>
<trkpt lat="53.087275" lon="04.880156"><ele>-11.5</ele><time>2021-12-08T14:55:18Z</time><name>PT6889</name></trkpt>
<trkpt lat="53.087271" lon="04.880139"><ele>-11.6</ele><time>2021-12-08T14:55:18Z</time><name>PT6890</name></trkpt>
<trkpt lat="53.087267" lon="04.880122"><ele>-11.5</ele><time>2021-12-08T14:55:19Z</time><name>PT6891</name></trkpt>
<trkpt lat="53.087263" lon="04.880105"><ele>-11.8</ele><time>2021-12-08T14:55:21Z</time><name>PT6892</name></trkpt>
<trkpt lat="53.087257" lon="04.880088"><ele>-12</ele><time>2021-12-08T14:55:21Z</time><name>PT6893</name></trkpt>
<trkpt lat="53.087252" lon="04.880070"><ele>-11.7</ele><time>2021-12-08T14:55:22Z</time><name>PT6894</name></trkpt>
<trkpt lat="53.087247" lon="04.880050"><ele>-11.5</ele><time>2021-12-08T14:55:24Z</time><name>PT6895</name></trkpt>
<trkpt lat="53.087241" lon="04.880033"><ele>-11.5</ele><time>2021-12-08T14:55:24Z</time><name>PT6896</name></trkpt>
<trkpt lat="53.087235" lon="04.880020"><ele>-11.4</ele><time>2021-12-08T14:55:25Z</time><name>PT6897</name></trkpt>
<trkpt lat="53.087230" lon="04.880006"><ele>-11.2</ele><time>2021-12-08T14:55:27Z</time><name>PT6898</name></trkpt>
<trkpt lat="53.087227" lon="04.879991"><ele>-11.2</ele><time>2021-12-08T14:55:27Z</time><name>PT6899</name></trkpt>
<trkpt lat="53.087224" lon="04.879974"><ele>-11.1</ele><time>2021-12-08T14:55:28Z</time><name>PT6900</name></trkpt>
<trkpt lat="53.087221" lon="04.879959"><ele>-11.1</ele><time>2021-12-08T14:55:30Z</time><name>PT6901</name></trkpt>
<trkpt lat="53.087220" lon="04.879943"><ele>-11</ele><time>2021-12-08T14:55:30Z</time><name>PT6902</name></trkpt>
<trkpt lat="53.087221" lon="04.879930"><ele>-11</ele><time>2021-12-08T14:55:31Z</time><name>PT6903</name></trkpt>
<trkpt lat="53.087224" lon="04.879918"><ele>-11</ele><time>2021-12-08T14:55:33Z</time><name>PT6904</name></trkpt>
<trkpt lat="53.087221" lon="04.879911"><ele>-11</ele><time>2021-12-08T14:55:33Z</time><name>PT6905</name></trkpt>
<trkpt lat="53.087219" lon="04.879905"><ele>-11.1</ele><time>2021-12-08T14:55:34Z</time><name>PT6906</name></trkpt>
<trkpt lat="53.087220" lon="04.879893"><ele>-11</ele><time>2021-12-08T14:55:36Z</time><name>PT6907</name></trkpt>
<trkpt lat="53.087218" lon="04.879882"><ele>-11.1</ele><time>2021-12-08T14:55:36Z</time><name>PT6908</name></trkpt>
<trkpt lat="53.087220" lon="04.879877"><ele>-11.1</ele><time>2021-12-08T14:55:37Z</time><name>PT6909</name></trkpt>
<trkpt lat="53.087228" lon="04.879875"><ele>-11.1</ele><time>2021-12-08T14:55:39Z</time><name>PT6910</name></trkpt>
<trkpt lat="53.087235" lon="04.879870"><ele>-11.1</ele><time>2021-12-08T14:55:39Z</time><name>PT6911</name></trkpt>
<trkpt lat="53.087244" lon="04.879863"><ele>-11.3</ele><time>2021-12-08T14:55:40Z</time><name>PT6912</name></trkpt>
<trkpt lat="53.087253" lon="04.879857"><ele>-11.4</ele><time>2021-12-08T14:55:42Z</time><name>PT6913</name></trkpt>
<trkpt lat="53.087261" lon="04.879851"><ele>-11.4</ele><time>2021-12-08T14:55:42Z</time><name>PT6914</name></trkpt>
<trkpt lat="53.087268" lon="04.879844"><ele>-11.4</ele><time>2021-12-08T14:55:43Z</time><name>PT6915</name></trkpt>
<trkpt lat="53.087278" lon="04.879836"><ele>-11.5</ele><time>2021-12-08T14:55:45Z</time><name>PT6916</name></trkpt>
<trkpt lat="53.087286" lon="04.879826"><ele>-11.4</ele><time>2021-12-08T14:55:45Z</time><name>PT6917</name></trkpt>
<trkpt lat="53.087295" lon="04.879816"><ele>-11.4</ele><time>2021-12-08T14:55:46Z</time><name>PT6918</name></trkpt>
<trkpt lat="53.087302" lon="04.879806"><ele>-11.2</ele><time>2021-12-08T14:55:48Z</time><name>PT6919</name></trkpt>
<trkpt lat="53.087310" lon="04.879800"><ele>-11.3</ele><time>2021-12-08T14:55:48Z</time><name>PT6920</name></trkpt>
<trkpt lat="53.087318" lon="04.879794"><ele>-11.3</ele><time>2021-12-08T14:55:49Z</time><name>PT6921</name></trkpt>
<trkpt lat="53.087328" lon="04.879790"><ele>-11.5</ele><time>2021-12-08T14:55:51Z</time><name>PT6922</name></trkpt>
<trkpt lat="53.087341" lon="04.879780"><ele>-11.5</ele><time>2021-12-08T14:55:51Z</time><name>PT6923</name></trkpt>
<trkpt lat="53.087351" lon="04.879770"><ele>-11.7</ele><time>2021-12-08T14:55:52Z</time><name>PT6924</name></trkpt>
<trkpt lat="53.087360" lon="04.879758"><ele>-11.9</ele><time>2021-12-08T14:55:54Z</time><name>PT6925</name></trkpt>
<trkpt lat="53.087363" lon="04.879752"><ele>-11.8</ele><time>2021-12-08T14:55:54Z</time><name>PT6926</name></trkpt>
<trkpt lat="53.087369" lon="04.879747"><ele>-11.8</ele><time>2021-12-08T14:55:55Z</time><name>PT6927</name></trkpt>
<trkpt lat="53.087376" lon="04.879741"><ele>-12</ele><time>2021-12-08T14:55:57Z</time><name>PT6928</name></trkpt>
<trkpt lat="53.087389" lon="04.879734"><ele>-12</ele><time>2021-12-08T14:55:57Z</time><name>PT6929</name></trkpt>
<trkpt lat="53.087399" lon="04.879725"><ele>-12.1</ele><time>2021-12-08T14:55:58Z</time><name>PT6930</name></trkpt>
<trkpt lat="53.087405" lon="04.879715"><ele>-12.3</ele><time>2021-12-08T14:56:00Z</time><name>PT6931</name></trkpt>
<trkpt lat="53.087411" lon="04.879709"><ele>-12.4</ele><time>2021-12-08T14:56:00Z</time><name>PT6932</name></trkpt>
<trkpt lat="53.087417" lon="04.879703"><ele>-12.6</ele><time>2021-12-08T14:56:01Z</time><name>PT6933</name></trkpt>
<trkpt lat="53.087425" lon="04.879693"><ele>-12.6</ele><time>2021-12-08T14:56:03Z</time><name>PT6934</name></trkpt>
<trkpt lat="53.087433" lon="04.879681"><ele>-12.5</ele><time>2021-12-08T14:56:03Z</time><name>PT6935</name></trkpt>
<trkpt lat="53.087441" lon="04.879666"><ele>-12.5</ele><time>2021-12-08T14:56:04Z</time><name>PT6936</name></trkpt>
<trkpt lat="53.087445" lon="04.879653"><ele>-12.2</ele><time>2021-12-08T14:56:06Z</time><name>PT6937</name></trkpt>
<trkpt lat="53.087450" lon="04.879648"><ele>-12</ele><time>2021-12-08T14:56:06Z</time><name>PT6938</name></trkpt>
<trkpt lat="53.087456" lon="04.879641"><ele>-12.1</ele><time>2021-12-08T14:56:07Z</time><name>PT6939</name></trkpt>
<trkpt lat="53.087463" lon="04.879633"><ele>-11.9</ele><time>2021-12-08T14:56:09Z</time><name>PT6940</name></trkpt>
<trkpt lat="53.087472" lon="04.879623"><ele>-11.9</ele><time>2021-12-08T14:56:09Z</time><name>PT6941</name></trkpt>
<trkpt lat="53.087478" lon="04.879614"><ele>-11.9</ele><time>2021-12-08T14:56:10Z</time><name>PT6942</name></trkpt>
<trkpt lat="53.087483" lon="04.879607"><ele>-11.8</ele><time>2021-12-08T14:56:12Z</time><name>PT6943</name></trkpt>
<trkpt lat="53.087489" lon="04.879600"><ele>-11.8</ele><time>2021-12-08T14:56:12Z</time><name>PT6944</name></trkpt>
<trkpt lat="53.087495" lon="04.879592"><ele>-12</ele><time>2021-12-08T14:56:13Z</time><name>PT6945</name></trkpt>
<trkpt lat="53.087504" lon="04.879581"><ele>-12</ele><time>2021-12-08T14:56:15Z</time><name>PT6946</name></trkpt>
<trkpt lat="53.087512" lon="04.879567"><ele>-12</ele><time>2021-12-08T14:56:15Z</time><name>PT6947</name></trkpt>
<trkpt lat="53.087516" lon="04.879556"><ele>-12</ele><time>2021-12-08T14:56:16Z</time><name>PT6948</name></trkpt>
<trkpt lat="53.087520" lon="04.879550"><ele>-12.1</ele><time>2021-12-08T14:56:18Z</time><name>PT6949</name></trkpt>
<trkpt lat="53.087525" lon="04.879544"><ele>-12.1</ele><time>2021-12-08T14:56:18Z</time><name>PT6950</name></trkpt>
<trkpt lat="53.087531" lon="04.879535"><ele>-12.1</ele><time>2021-12-08T14:56:19Z</time><name>PT6951</name></trkpt>
<trkpt lat="53.087535" lon="04.879519"><ele>-12</ele><time>2021-12-08T14:56:21Z</time><name>PT6952</name></trkpt>
<trkpt lat="53.087543" lon="04.879505"><ele>-12</ele><time>2021-12-08T14:56:21Z</time><name>PT6953</name></trkpt>
<trkpt lat="53.087547" lon="04.879495"><ele>-12</ele><time>2021-12-08T14:56:22Z</time><name>PT6954</name></trkpt>
<trkpt lat="53.087550" lon="04.879490"><ele>-11.9</ele><time>2021-12-08T14:56:24Z</time><name>PT6955</name></trkpt>
<trkpt lat="53.087552" lon="04.879487"><ele>-11.8</ele><time>2021-12-08T14:56:24Z</time><name>PT6956</name></trkpt>
<trkpt lat="53.087550" lon="04.879488"><ele>-12</ele><time>2021-12-08T14:56:25Z</time><name>PT6957</name></trkpt>
<trkpt lat="53.087550" lon="04.879488"><ele>-12</ele><time>2021-12-08T14:56:27Z</time><name>PT6958</name></trkpt>
<trkpt lat="53.087551" lon="04.879490"><ele>-12</ele><time>2021-12-08T14:56:27Z</time><name>PT6959</name></trkpt>
<trkpt lat="53.087550" lon="04.879489"><ele>-11.9</ele><time>2021-12-08T14:56:28Z</time><name>PT6960</name></trkpt>
<trkpt lat="53.087550" lon="04.879487"><ele>-11.8</ele><time>2021-12-08T14:56:30Z</time><name>PT6961</name></trkpt>
<trkpt lat="53.087551" lon="04.879486"><ele>-11.7</ele><time>2021-12-08T14:56:30Z</time><name>PT6962</name></trkpt>
<trkpt lat="53.087558" lon="04.879479"><ele>-11.9</ele><time>2021-12-08T14:56:33Z</time><name>PT6963</name></trkpt>
<trkpt lat="53.087564" lon="04.879476"><ele>-12</ele><time>2021-12-08T14:56:33Z</time><name>PT6964</name></trkpt>
<trkpt lat="53.087569" lon="04.879470"><ele>-12</ele><time>2021-12-08T14:56:34Z</time><name>PT6965</name></trkpt>
<trkpt lat="53.087575" lon="04.879468"><ele>-12.4</ele><time>2021-12-08T14:56:36Z</time><name>PT6966</name></trkpt>
<trkpt lat="53.087578" lon="04.879462"><ele>-12.4</ele><time>2021-12-08T14:56:36Z</time><name>PT6967</name></trkpt>
<trkpt lat="53.087583" lon="04.879456"><ele>-12.3</ele><time>2021-12-08T14:56:37Z</time><name>PT6968</name></trkpt>
<trkpt lat="53.087586" lon="04.879450"><ele>-12.3</ele><time>2021-12-08T14:56:39Z</time><name>PT6969</name></trkpt>
<trkpt lat="53.087587" lon="04.879445"><ele>-12.2</ele><time>2021-12-08T14:56:39Z</time><name>PT6970</name></trkpt>
<trkpt lat="53.087592" lon="04.879438"><ele>-12.1</ele><time>2021-12-08T14:56:40Z</time><name>PT6971</name></trkpt>
<trkpt lat="53.087597" lon="04.879430"><ele>-12.2</ele><time>2021-12-08T14:56:42Z</time><name>PT6972</name></trkpt>
<trkpt lat="53.087602" lon="04.879424"><ele>-12.1</ele><time>2021-12-08T14:56:42Z</time><name>PT6973</name></trkpt>
<trkpt lat="53.087605" lon="04.879412"><ele>-12.1</ele><time>2021-12-08T14:56:43Z</time><name>PT6974</name></trkpt>
<trkpt lat="53.087610" lon="04.879402"><ele>-12.2</ele><time>2021-12-08T14:56:45Z</time><name>PT6975</name></trkpt>
<trkpt lat="53.087615" lon="04.879394"><ele>-12.2</ele><time>2021-12-08T14:56:45Z</time><name>PT6976</name></trkpt>
<trkpt lat="53.087619" lon="04.879386"><ele>-12.2</ele><time>2021-12-08T14:56:46Z</time><name>PT6977</name></trkpt>
<trkpt lat="53.087624" lon="04.879374"><ele>-12.3</ele><time>2021-12-08T14:56:48Z</time><name>PT6978</name></trkpt>
<trkpt lat="53.087634" lon="04.879359"><ele>-12.3</ele><time>2021-12-08T14:56:48Z</time><name>PT6979</name></trkpt>
<trkpt lat="53.087644" lon="04.879342"><ele>-12.1</ele><time>2021-12-08T14:56:49Z</time><name>PT6980</name></trkpt>
<trkpt lat="53.087653" lon="04.879326"><ele>-12.1</ele><time>2021-12-08T14:56:51Z</time><name>PT6981</name></trkpt>
<trkpt lat="53.087659" lon="04.879303"><ele>-12.1</ele><time>2021-12-08T14:56:51Z</time><name>PT6982</name></trkpt>
<trkpt lat="53.087664" lon="04.879289"><ele>-12.1</ele><time>2021-12-08T14:56:52Z</time><name>PT6983</name></trkpt>
<trkpt lat="53.087669" lon="04.879282"><ele>-12.1</ele><time>2021-12-08T14:56:54Z</time><name>PT6984</name></trkpt>
<trkpt lat="53.087673" lon="04.879275"><ele>-12.1</ele><time>2021-12-08T14:56:54Z</time><name>PT6985</name></trkpt>
<trkpt lat="53.087680" lon="04.879267"><ele>-12</ele><time>2021-12-08T14:56:55Z</time><name>PT6986</name></trkpt>
<trkpt lat="53.087687" lon="04.879247"><ele>-12</ele><time>2021-12-08T14:56:57Z</time><name>PT6987</name></trkpt>
<trkpt lat="53.087695" lon="04.879228"><ele>-12</ele><time>2021-12-08T14:56:57Z</time><name>PT6988</name></trkpt>
<trkpt lat="53.087701" lon="04.879215"><ele>-11.9</ele><time>2021-12-08T14:56:58Z</time><name>PT6989</name></trkpt>
<trkpt lat="53.087707" lon="04.879203"><ele>-12</ele><time>2021-12-08T14:57:00Z</time><name>PT6990</name></trkpt>
<trkpt lat="53.087712" lon="04.879192"><ele>-12</ele><time>2021-12-08T14:57:00Z</time><name>PT6991</name></trkpt>
<trkpt lat="53.087719" lon="04.879182"><ele>-12.1</ele><time>2021-12-08T14:57:01Z</time><name>PT6992</name></trkpt>
<trkpt lat="53.087726" lon="04.879169"><ele>-12.4</ele><time>2021-12-08T14:57:03Z</time><name>PT6993</name></trkpt>
<trkpt lat="53.087734" lon="04.879153"><ele>-12.5</ele><time>2021-12-08T14:57:03Z</time><name>PT6994</name></trkpt>
<trkpt lat="53.087742" lon="04.879134"><ele>-12.3</ele><time>2021-12-08T14:57:04Z</time><name>PT6995</name></trkpt>
<trkpt lat="53.087751" lon="04.879117"><ele>-12.3</ele><time>2021-12-08T14:57:06Z</time><name>PT6996</name></trkpt>
<trkpt lat="53.087758" lon="04.879101"><ele>-12.2</ele><time>2021-12-08T14:57:06Z</time><name>PT6997</name></trkpt>
<trkpt lat="53.087764" lon="04.879090"><ele>-12.1</ele><time>2021-12-08T14:57:07Z</time><name>PT6998</name></trkpt>
<trkpt lat="53.087770" lon="04.879078"><ele>-12</ele><time>2021-12-08T14:57:09Z</time><name>PT6999</name></trkpt>
<trkpt lat="53.087772" lon="04.879068"><ele>-12.1</ele><time>2021-12-08T14:57:09Z</time><name>PT7000</name></trkpt>
<trkpt lat="53.087778" lon="04.879055"><ele>-12.1</ele><time>2021-12-08T14:57:10Z</time><name>PT7001</name></trkpt>
<trkpt lat="53.087774" lon="04.879021"><ele>-12.2</ele><time>2021-12-08T14:57:12Z</time><name>PT7002</name></trkpt>
<trkpt lat="53.087781" lon="04.878998"><ele>-12.2</ele><time>2021-12-08T14:57:12Z</time><name>PT7003</name></trkpt>
<trkpt lat="53.087790" lon="04.878981"><ele>-12.2</ele><time>2021-12-08T14:57:13Z</time><name>PT7004</name></trkpt>
<trkpt lat="53.087799" lon="04.878972"><ele>-12</ele><time>2021-12-08T14:57:15Z</time><name>PT7005</name></trkpt>
<trkpt lat="53.087802" lon="04.878966"><ele>-12</ele><time>2021-12-08T14:57:15Z</time><name>PT7006</name></trkpt>
<trkpt lat="53.087808" lon="04.878959"><ele>-12</ele><time>2021-12-08T14:57:16Z</time><name>PT7007</name></trkpt>
<trkpt lat="53.087818" lon="04.878946"><ele>-11.8</ele><time>2021-12-08T14:57:18Z</time><name>PT7008</name></trkpt>
<trkpt lat="53.087826" lon="04.878930"><ele>-11.7</ele><time>2021-12-08T14:57:18Z</time><name>PT7009</name></trkpt>
<trkpt lat="53.087833" lon="04.878916"><ele>-11.7</ele><time>2021-12-08T14:57:19Z</time><name>PT7010</name></trkpt>
<trkpt lat="53.087838" lon="04.878907"><ele>-11.7</ele><time>2021-12-08T14:57:21Z</time><name>PT7011</name></trkpt>
<trkpt lat="53.087843" lon="04.878899"><ele>-11.6</ele><time>2021-12-08T14:57:21Z</time><name>PT7012</name></trkpt>
<trkpt lat="53.087846" lon="04.878886"><ele>-11.8</ele><time>2021-12-08T14:57:22Z</time><name>PT7013</name></trkpt>
<trkpt lat="53.087852" lon="04.878873"><ele>-11.7</ele><time>2021-12-08T14:57:24Z</time><name>PT7014</name></trkpt>
<trkpt lat="53.087861" lon="04.878860"><ele>-11.8</ele><time>2021-12-08T14:57:24Z</time><name>PT7015</name></trkpt>
<trkpt lat="53.087867" lon="04.878847"><ele>-11.6</ele><time>2021-12-08T14:57:25Z</time><name>PT7016</name></trkpt>
<trkpt lat="53.087872" lon="04.878838"><ele>-11.8</ele><time>2021-12-08T14:57:27Z</time><name>PT7017</name></trkpt>
<trkpt lat="53.087876" lon="04.878828"><ele>-11.9</ele><time>2021-12-08T14:57:27Z</time><name>PT7018</name></trkpt>
<trkpt lat="53.087883" lon="04.878819"><ele>-11.9</ele><time>2021-12-08T14:57:28Z</time><name>PT7019</name></trkpt>
<trkpt lat="53.087892" lon="04.878809"><ele>-12</ele><time>2021-12-08T14:57:30Z</time><name>PT7020</name></trkpt>
<trkpt lat="53.087903" lon="04.878795"><ele>-12</ele><time>2021-12-08T14:57:30Z</time><name>PT7021</name></trkpt>
<trkpt lat="53.087911" lon="04.878784"><ele>-12</ele><time>2021-12-08T14:57:31Z</time><name>PT7022</name></trkpt>
<trkpt lat="53.087916" lon="04.878771"><ele>-12</ele><time>2021-12-08T14:57:33Z</time><name>PT7023</name></trkpt>
<trkpt lat="53.087921" lon="04.878759"><ele>-12</ele><time>2021-12-08T14:57:33Z</time><name>PT7024</name></trkpt>
<trkpt lat="53.087930" lon="04.878748"><ele>-12</ele><time>2021-12-08T14:57:34Z</time><name>PT7025</name></trkpt>
<trkpt lat="53.087937" lon="04.878734"><ele>-11.7</ele><time>2021-12-08T14:57:36Z</time><name>PT7026</name></trkpt>
<trkpt lat="53.087941" lon="04.878715"><ele>-11.7</ele><time>2021-12-08T14:57:36Z</time><name>PT7027</name></trkpt>
<trkpt lat="53.087949" lon="04.878696"><ele>-11.6</ele><time>2021-12-08T14:57:37Z</time><name>PT7028</name></trkpt>
<trkpt lat="53.087958" lon="04.878681"><ele>-11.6</ele><time>2021-12-08T14:57:39Z</time><name>PT7029</name></trkpt>
<trkpt lat="53.087962" lon="04.878672"><ele>-11.7</ele><time>2021-12-08T14:57:39Z</time><name>PT7030</name></trkpt>
<trkpt lat="53.087963" lon="04.878661"><ele>-11.8</ele><time>2021-12-08T14:57:40Z</time><name>PT7031</name></trkpt>
<trkpt lat="53.087966" lon="04.878650"><ele>-12</ele><time>2021-12-08T14:57:42Z</time><name>PT7032</name></trkpt>
<trkpt lat="53.087975" lon="04.878635"><ele>-11.9</ele><time>2021-12-08T14:57:42Z</time><name>PT7033</name></trkpt>
<trkpt lat="53.087980" lon="04.878613"><ele>-11.7</ele><time>2021-12-08T14:57:43Z</time><name>PT7034</name></trkpt>
<trkpt lat="53.087984" lon="04.878595"><ele>-11.8</ele><time>2021-12-08T14:57:45Z</time><name>PT7035</name></trkpt>
<trkpt lat="53.087987" lon="04.878585"><ele>-11.9</ele><time>2021-12-08T14:57:45Z</time><name>PT7036</name></trkpt>
<trkpt lat="53.087988" lon="04.878573"><ele>-11.7</ele><time>2021-12-08T14:57:46Z</time><name>PT7037</name></trkpt>
<trkpt lat="53.087991" lon="04.878558"><ele>-11.9</ele><time>2021-12-08T14:57:48Z</time><name>PT7038</name></trkpt>
<trkpt lat="53.087996" lon="04.878538"><ele>-11.9</ele><time>2021-12-08T14:57:48Z</time><name>PT7039</name></trkpt>
<trkpt lat="53.088001" lon="04.878516"><ele>-11.8</ele><time>2021-12-08T14:57:49Z</time><name>PT7040</name></trkpt>
<trkpt lat="53.088006" lon="04.878498"><ele>-11.8</ele><time>2021-12-08T14:57:51Z</time><name>PT7041</name></trkpt>
<trkpt lat="53.088011" lon="04.878484"><ele>-11.9</ele><time>2021-12-08T14:57:51Z</time><name>PT7042</name></trkpt>
<trkpt lat="53.088013" lon="04.878473"><ele>-12</ele><time>2021-12-08T14:57:52Z</time><name>PT7043</name></trkpt>
<trkpt lat="53.088019" lon="04.878464"><ele>-11.8</ele><time>2021-12-08T14:57:54Z</time><name>PT7044</name></trkpt>
<trkpt lat="53.088026" lon="04.878452"><ele>-11.8</ele><time>2021-12-08T14:57:54Z</time><name>PT7045</name></trkpt>
<trkpt lat="53.088032" lon="04.878436"><ele>-11.8</ele><time>2021-12-08T14:57:55Z</time><name>PT7046</name></trkpt>
<trkpt lat="53.088038" lon="04.878415"><ele>-11.7</ele><time>2021-12-08T14:57:57Z</time><name>PT7047</name></trkpt>
<trkpt lat="53.088045" lon="04.878397"><ele>-11.6</ele><time>2021-12-08T14:57:57Z</time><name>PT7048</name></trkpt>
<trkpt lat="53.088049" lon="04.878384"><ele>-11.6</ele><time>2021-12-08T14:57:58Z</time><name>PT7049</name></trkpt>
<trkpt lat="53.088052" lon="04.878373"><ele>-11.6</ele><time>2021-12-08T14:58:00Z</time><name>PT7050</name></trkpt>
<trkpt lat="53.088058" lon="04.878363"><ele>-11.6</ele><time>2021-12-08T14:58:00Z</time><name>PT7051</name></trkpt>
<trkpt lat="53.088062" lon="04.878348"><ele>-11.8</ele><time>2021-12-08T14:58:01Z</time><name>PT7052</name></trkpt>
<trkpt lat="53.088066" lon="04.878327"><ele>-11.9</ele><time>2021-12-08T14:58:03Z</time><name>PT7053</name></trkpt>
<trkpt lat="53.088076" lon="04.878312"><ele>-11.8</ele><time>2021-12-08T14:58:03Z</time><name>PT7054</name></trkpt>
<trkpt lat="53.088080" lon="04.878300"><ele>-12</ele><time>2021-12-08T14:58:04Z</time><name>PT7055</name></trkpt>
<trkpt lat="53.088084" lon="04.878288"><ele>-11.9</ele><time>2021-12-08T14:58:06Z</time><name>PT7056</name></trkpt>
<trkpt lat="53.088088" lon="04.878275"><ele>-11.8</ele><time>2021-12-08T14:58:06Z</time><name>PT7057</name></trkpt>
<trkpt lat="53.088095" lon="04.878259"><ele>-11.8</ele><time>2021-12-08T14:58:07Z</time><name>PT7058</name></trkpt>
<trkpt lat="53.088101" lon="04.878240"><ele>-11.9</ele><time>2021-12-08T14:58:09Z</time><name>PT7059</name></trkpt>
<trkpt lat="53.088103" lon="04.878226"><ele>-12</ele><time>2021-12-08T14:58:09Z</time><name>PT7060</name></trkpt>
<trkpt lat="53.088107" lon="04.878211"><ele>-12</ele><time>2021-12-08T14:58:10Z</time><name>PT7061</name></trkpt>
<trkpt lat="53.088112" lon="04.878199"><ele>-12</ele><time>2021-12-08T14:58:12Z</time><name>PT7062</name></trkpt>
<trkpt lat="53.088117" lon="04.878188"><ele>-12</ele><time>2021-12-08T14:58:12Z</time><name>PT7063</name></trkpt>
<trkpt lat="53.088123" lon="04.878172"><ele>-11.7</ele><time>2021-12-08T14:58:13Z</time><name>PT7064</name></trkpt>
<trkpt lat="53.088131" lon="04.878157"><ele>-11.6</ele><time>2021-12-08T14:58:15Z</time><name>PT7065</name></trkpt>
<trkpt lat="53.088135" lon="04.878148"><ele>-11.6</ele><time>2021-12-08T14:58:15Z</time><name>PT7066</name></trkpt>
<trkpt lat="53.088137" lon="04.878137"><ele>-11.5</ele><time>2021-12-08T14:58:16Z</time><name>PT7067</name></trkpt>
<trkpt lat="53.088139" lon="04.878128"><ele>-11.5</ele><time>2021-12-08T14:58:18Z</time><name>PT7068</name></trkpt>
<trkpt lat="53.088142" lon="04.878114"><ele>-11.6</ele><time>2021-12-08T14:58:18Z</time><name>PT7069</name></trkpt>
<trkpt lat="53.088146" lon="04.878098"><ele>-11.5</ele><time>2021-12-08T14:58:19Z</time><name>PT7070</name></trkpt>
<trkpt lat="53.088148" lon="04.878087"><ele>-11.5</ele><time>2021-12-08T14:58:21Z</time><name>PT7071</name></trkpt>
<trkpt lat="53.088153" lon="04.878080"><ele>-11.5</ele><time>2021-12-08T14:58:21Z</time><name>PT7072</name></trkpt>
<trkpt lat="53.088158" lon="04.878072"><ele>-11.4</ele><time>2021-12-08T14:58:22Z</time><name>PT7073</name></trkpt>
<trkpt lat="53.088163" lon="04.878059"><ele>-11.4</ele><time>2021-12-08T14:58:24Z</time><name>PT7074</name></trkpt>
<trkpt lat="53.088173" lon="04.878046"><ele>-11.4</ele><time>2021-12-08T14:58:24Z</time><name>PT7075</name></trkpt>
<trkpt lat="53.088178" lon="04.878030"><ele>-11.3</ele><time>2021-12-08T14:58:25Z</time><name>PT7076</name></trkpt>
<trkpt lat="53.088182" lon="04.878017"><ele>-11.5</ele><time>2021-12-08T14:58:27Z</time><name>PT7077</name></trkpt>
<trkpt lat="53.088187" lon="04.878005"><ele>-11.5</ele><time>2021-12-08T14:58:27Z</time><name>PT7078</name></trkpt>
<trkpt lat="53.088194" lon="04.877988"><ele>-11.5</ele><time>2021-12-08T14:58:28Z</time><name>PT7079</name></trkpt>
<trkpt lat="53.088201" lon="04.877970"><ele>-11.5</ele><time>2021-12-08T14:58:30Z</time><name>PT7080</name></trkpt>
<trkpt lat="53.088207" lon="04.877956"><ele>-11.5</ele><time>2021-12-08T14:58:30Z</time><name>PT7081</name></trkpt>
<trkpt lat="53.088209" lon="04.877946"><ele>-11.5</ele><time>2021-12-08T14:58:31Z</time><name>PT7082</name></trkpt>
<trkpt lat="53.088214" lon="04.877938"><ele>-11.4</ele><time>2021-12-08T14:58:33Z</time><name>PT7083</name></trkpt>
<trkpt lat="53.088220" lon="04.877922"><ele>-11.5</ele><time>2021-12-08T14:58:33Z</time><name>PT7084</name></trkpt>
<trkpt lat="53.088226" lon="04.877903"><ele>-11.6</ele><time>2021-12-08T14:58:34Z</time><name>PT7085</name></trkpt>
<trkpt lat="53.088230" lon="04.877889"><ele>-11.6</ele><time>2021-12-08T14:58:36Z</time><name>PT7086</name></trkpt>
<trkpt lat="53.088236" lon="04.877875"><ele>-11.6</ele><time>2021-12-08T14:58:36Z</time><name>PT7087</name></trkpt>
<trkpt lat="53.088247" lon="04.877868"><ele>-11.8</ele><time>2021-12-08T14:58:37Z</time><name>PT7088</name></trkpt>
<trkpt lat="53.088255" lon="04.877853"><ele>-11.8</ele><time>2021-12-08T14:58:39Z</time><name>PT7089</name></trkpt>
<trkpt lat="53.088261" lon="04.877836"><ele>-11.7</ele><time>2021-12-08T14:58:39Z</time><name>PT7090</name></trkpt>
<trkpt lat="53.088265" lon="04.877822"><ele>-11.8</ele><time>2021-12-08T14:58:40Z</time><name>PT7091</name></trkpt>
<trkpt lat="53.088270" lon="04.877814"><ele>-11.8</ele><time>2021-12-08T14:58:42Z</time><name>PT7092</name></trkpt>
<trkpt lat="53.088278" lon="04.877805"><ele>-11.8</ele><time>2021-12-08T14:58:42Z</time><name>PT7093</name></trkpt>
<trkpt lat="53.088288" lon="04.877789"><ele>-11.7</ele><time>2021-12-08T14:58:43Z</time><name>PT7094</name></trkpt>
<trkpt lat="53.088293" lon="04.877775"><ele>-11.8</ele><time>2021-12-08T14:58:45Z</time><name>PT7095</name></trkpt>
<trkpt lat="53.088297" lon="04.877761"><ele>-11.7</ele><time>2021-12-08T14:58:45Z</time><name>PT7096</name></trkpt>
<trkpt lat="53.088301" lon="04.877754"><ele>-11.5</ele><time>2021-12-08T14:58:46Z</time><name>PT7097</name></trkpt>
<trkpt lat="53.088305" lon="04.877747"><ele>-11.5</ele><time>2021-12-08T14:58:48Z</time><name>PT7098</name></trkpt>
<trkpt lat="53.088307" lon="04.877731"><ele>-11.7</ele><time>2021-12-08T14:58:48Z</time><name>PT7099</name></trkpt>
<trkpt lat="53.088314" lon="04.877716"><ele>-11.9</ele><time>2021-12-08T14:58:49Z</time><name>PT7100</name></trkpt>
<trkpt lat="53.088322" lon="04.877702"><ele>-12</ele><time>2021-12-08T14:58:51Z</time><name>PT7101</name></trkpt>
<trkpt lat="53.088327" lon="04.877688"><ele>-12</ele><time>2021-12-08T14:58:51Z</time><name>PT7102</name></trkpt>
<trkpt lat="53.088335" lon="04.877677"><ele>-12</ele><time>2021-12-08T14:58:52Z</time><name>PT7103</name></trkpt>
<trkpt lat="53.088340" lon="04.877669"><ele>-12.1</ele><time>2021-12-08T14:58:54Z</time><name>PT7104</name></trkpt>
<trkpt lat="53.088348" lon="04.877657"><ele>-12</ele><time>2021-12-08T14:58:54Z</time><name>PT7105</name></trkpt>
<trkpt lat="53.088356" lon="04.877643"><ele>-11.9</ele><time>2021-12-08T14:58:55Z</time><name>PT7106</name></trkpt>
<trkpt lat="53.088363" lon="04.877629"><ele>-11.6</ele><time>2021-12-08T14:58:57Z</time><name>PT7107</name></trkpt>
<trkpt lat="53.088368" lon="04.877616"><ele>-11.5</ele><time>2021-12-08T14:58:57Z</time><name>PT7108</name></trkpt>
<trkpt lat="53.088372" lon="04.877608"><ele>-11.3</ele><time>2021-12-08T14:58:59Z</time><name>PT7109</name></trkpt>
<trkpt lat="53.088374" lon="04.877596"><ele>-11.2</ele><time>2021-12-08T14:59:00Z</time><name>PT7110</name></trkpt>
<trkpt lat="53.088377" lon="04.877583"><ele>-11.2</ele><time>2021-12-08T14:59:00Z</time><name>PT7111</name></trkpt>
<trkpt lat="53.088379" lon="04.877565"><ele>-11.2</ele><time>2021-12-08T14:59:01Z</time><name>PT7112</name></trkpt>
<trkpt lat="53.088382" lon="04.877550"><ele>-11.3</ele><time>2021-12-08T14:59:03Z</time><name>PT7113</name></trkpt>
<trkpt lat="53.088382" lon="04.877534"><ele>-11.3</ele><time>2021-12-08T14:59:03Z</time><name>PT7114</name></trkpt>
<trkpt lat="53.088386" lon="04.877523"><ele>-11.5</ele><time>2021-12-08T14:59:04Z</time><name>PT7115</name></trkpt>
<trkpt lat="53.088387" lon="04.877515"><ele>-11.4</ele><time>2021-12-08T14:59:06Z</time><name>PT7116</name></trkpt>
<trkpt lat="53.088390" lon="04.877508"><ele>-11.4</ele><time>2021-12-08T14:59:06Z</time><name>PT7117</name></trkpt>
<trkpt lat="53.088392" lon="04.877501"><ele>-11.4</ele><time>2021-12-08T14:59:07Z</time><name>PT7118</name></trkpt>
<trkpt lat="53.088399" lon="04.877482"><ele>-11.2</ele><time>2021-12-08T14:59:12Z</time><name>PT7119</name></trkpt>
<trkpt lat="53.088402" lon="04.877473"><ele>-11.3</ele><time>2021-12-08T14:59:12Z</time><name>PT7120</name></trkpt>
<trkpt lat="53.088400" lon="04.877463"><ele>-11.4</ele><time>2021-12-08T14:59:14Z</time><name>PT7121</name></trkpt>
<trkpt lat="53.088402" lon="04.877451"><ele>-11.4</ele><time>2021-12-08T14:59:15Z</time><name>PT7122</name></trkpt>
<trkpt lat="53.088408" lon="04.877431"><ele>-11.4</ele><time>2021-12-08T14:59:15Z</time><name>PT7123</name></trkpt>
<trkpt lat="53.088415" lon="04.877409"><ele>-11.4</ele><time>2021-12-08T14:59:16Z</time><name>PT7124</name></trkpt>
<trkpt lat="53.088424" lon="04.877390"><ele>-11.3</ele><time>2021-12-08T14:59:18Z</time><name>PT7125</name></trkpt>
<trkpt lat="53.088426" lon="04.877377"><ele>-11.5</ele><time>2021-12-08T14:59:18Z</time><name>PT7126</name></trkpt>
<trkpt lat="53.088425" lon="04.877366"><ele>-11.5</ele><time>2021-12-08T14:59:19Z</time><name>PT7127</name></trkpt>
<trkpt lat="53.088426" lon="04.877360"><ele>-11.5</ele><time>2021-12-08T14:59:21Z</time><name>PT7128</name></trkpt>
<trkpt lat="53.088428" lon="04.877346"><ele>-11.5</ele><time>2021-12-08T14:59:21Z</time><name>PT7129</name></trkpt>
<trkpt lat="53.088431" lon="04.877333"><ele>-11.5</ele><time>2021-12-08T14:59:22Z</time><name>PT7130</name></trkpt>
<trkpt lat="53.088435" lon="04.877323"><ele>-11.5</ele><time>2021-12-08T14:59:24Z</time><name>PT7131</name></trkpt>
<trkpt lat="53.088439" lon="04.877311"><ele>-11.4</ele><time>2021-12-08T14:59:24Z</time><name>PT7132</name></trkpt>
<trkpt lat="53.088440" lon="04.877292"><ele>-11.3</ele><time>2021-12-08T14:59:25Z</time><name>PT7133</name></trkpt>
<trkpt lat="53.088445" lon="04.877277"><ele>-11.3</ele><time>2021-12-08T14:59:27Z</time><name>PT7134</name></trkpt>
<trkpt lat="53.088441" lon="04.877266"><ele>-11.2</ele><time>2021-12-08T14:59:27Z</time><name>PT7135</name></trkpt>
<trkpt lat="53.088444" lon="04.877256"><ele>-11.1</ele><time>2021-12-08T14:59:28Z</time><name>PT7136</name></trkpt>
<trkpt lat="53.088448" lon="04.877243"><ele>-11.2</ele><time>2021-12-08T14:59:30Z</time><name>PT7137</name></trkpt>
<trkpt lat="53.088459" lon="04.877227"><ele>-11.2</ele><time>2021-12-08T14:59:30Z</time><name>PT7138</name></trkpt>
<trkpt lat="53.088463" lon="04.877216"><ele>-11.1</ele><time>2021-12-08T14:59:31Z</time><name>PT7139</name></trkpt>
<trkpt lat="53.088470" lon="04.877206"><ele>-11.4</ele><time>2021-12-08T14:59:33Z</time><name>PT7140</name></trkpt>
<trkpt lat="53.088477" lon="04.877196"><ele>-11.5</ele><time>2021-12-08T14:59:33Z</time><name>PT7141</name></trkpt>
<trkpt lat="53.088490" lon="04.877188"><ele>-11.5</ele><time>2021-12-08T14:59:34Z</time><name>PT7142</name></trkpt>
<trkpt lat="53.088496" lon="04.877175"><ele>-11.7</ele><time>2021-12-08T14:59:36Z</time><name>PT7143</name></trkpt>
<trkpt lat="53.088501" lon="04.877164"><ele>-11.8</ele><time>2021-12-08T14:59:36Z</time><name>PT7144</name></trkpt>
<trkpt lat="53.088507" lon="04.877154"><ele>-11.8</ele><time>2021-12-08T14:59:37Z</time><name>PT7145</name></trkpt>
<trkpt lat="53.088514" lon="04.877143"><ele>-11.8</ele><time>2021-12-08T14:59:39Z</time><name>PT7146</name></trkpt>
<trkpt lat="53.088523" lon="04.877129"><ele>-11.7</ele><time>2021-12-08T14:59:39Z</time><name>PT7147</name></trkpt>
<trkpt lat="53.088533" lon="04.877116"><ele>-11.7</ele><time>2021-12-08T14:59:40Z</time><name>PT7148</name></trkpt>
<trkpt lat="53.088540" lon="04.877102"><ele>-11.5</ele><time>2021-12-08T14:59:42Z</time><name>PT7149</name></trkpt>
<trkpt lat="53.088545" lon="04.877093"><ele>-11.5</ele><time>2021-12-08T14:59:42Z</time><name>PT7150</name></trkpt>
<trkpt lat="53.088553" lon="04.877084"><ele>-11.4</ele><time>2021-12-08T14:59:43Z</time><name>PT7151</name></trkpt>
<trkpt lat="53.088559" lon="04.877071"><ele>-11.4</ele><time>2021-12-08T14:59:45Z</time><name>PT7152</name></trkpt>
<trkpt lat="53.088562" lon="04.877061"><ele>-11.5</ele><time>2021-12-08T14:59:45Z</time><name>PT7153</name></trkpt>
<trkpt lat="53.088567" lon="04.877052"><ele>-11.4</ele><time>2021-12-08T14:59:46Z</time><name>PT7154</name></trkpt>
<trkpt lat="53.088576" lon="04.877042"><ele>-11.4</ele><time>2021-12-08T14:59:48Z</time><name>PT7155</name></trkpt>
<trkpt lat="53.088585" lon="04.877029"><ele>-11.4</ele><time>2021-12-08T14:59:48Z</time><name>PT7156</name></trkpt>
<trkpt lat="53.088591" lon="04.877018"><ele>-11.1</ele><time>2021-12-08T14:59:49Z</time><name>PT7157</name></trkpt>
<trkpt lat="53.088601" lon="04.877009"><ele>-11.2</ele><time>2021-12-08T14:59:51Z</time><name>PT7158</name></trkpt>
<trkpt lat="53.088607" lon="04.876998"><ele>-11.3</ele><time>2021-12-08T14:59:51Z</time><name>PT7159</name></trkpt>
<trkpt lat="53.088613" lon="04.876987"><ele>-11.4</ele><time>2021-12-08T14:59:52Z</time><name>PT7160</name></trkpt>
<trkpt lat="53.088621" lon="04.876975"><ele>-11.5</ele><time>2021-12-08T14:59:54Z</time><name>PT7161</name></trkpt>
<trkpt lat="53.088627" lon="04.876962"><ele>-11.5</ele><time>2021-12-08T14:59:54Z</time><name>PT7162</name></trkpt>
<trkpt lat="53.088633" lon="04.876950"><ele>-11.5</ele><time>2021-12-08T14:59:55Z</time><name>PT7163</name></trkpt>
<trkpt lat="53.088639" lon="04.876941"><ele>-11.5</ele><time>2021-12-08T14:59:57Z</time><name>PT7164</name></trkpt>
<trkpt lat="53.088648" lon="04.876930"><ele>-11.5</ele><time>2021-12-08T14:59:57Z</time><name>PT7165</name></trkpt>
<trkpt lat="53.088656" lon="04.876917"><ele>-11.5</ele><time>2021-12-08T14:59:58Z</time><name>PT7166</name></trkpt>
<trkpt lat="53.088660" lon="04.876906"><ele>-11.3</ele><time>2021-12-08T15:00:00Z</time><name>PT7167</name></trkpt>
<trkpt lat="53.088666" lon="04.876896"><ele>-11.4</ele><time>2021-12-08T15:00:00Z</time><name>PT7168</name></trkpt>
<trkpt lat="53.088673" lon="04.876884"><ele>-11.2</ele><time>2021-12-08T15:00:01Z</time><name>PT7169</name></trkpt>
<trkpt lat="53.088676" lon="04.876874"><ele>-11.2</ele><time>2021-12-08T15:00:03Z</time><name>PT7170</name></trkpt>
<trkpt lat="53.088682" lon="04.876860"><ele>-11.1</ele><time>2021-12-08T15:00:03Z</time><name>PT7171</name></trkpt>
<trkpt lat="53.088685" lon="04.876853"><ele>-11.1</ele><time>2021-12-08T15:00:04Z</time><name>PT7172</name></trkpt>
<trkpt lat="53.088690" lon="04.876846"><ele>-11.4</ele><time>2021-12-08T15:00:06Z</time><name>PT7173</name></trkpt>
<trkpt lat="53.088696" lon="04.876835"><ele>-11.5</ele><time>2021-12-08T15:00:06Z</time><name>PT7174</name></trkpt>
<trkpt lat="53.088702" lon="04.876825"><ele>-11.5</ele><time>2021-12-08T15:00:07Z</time><name>PT7175</name></trkpt>
<trkpt lat="53.088708" lon="04.876814"><ele>-11.5</ele><time>2021-12-08T15:00:09Z</time><name>PT7176</name></trkpt>
<trkpt lat="53.088712" lon="04.876805"><ele>-11.6</ele><time>2021-12-08T15:00:09Z</time><name>PT7177</name></trkpt>
<trkpt lat="53.088718" lon="04.876796"><ele>-11.3</ele><time>2021-12-08T15:00:10Z</time><name>PT7178</name></trkpt>
<trkpt lat="53.088725" lon="04.876779"><ele>-11.3</ele><time>2021-12-08T15:00:12Z</time><name>PT7179</name></trkpt>
<trkpt lat="53.088732" lon="04.876767"><ele>-11.5</ele><time>2021-12-08T15:00:12Z</time><name>PT7180</name></trkpt>
<trkpt lat="53.088737" lon="04.876758"><ele>-11.5</ele><time>2021-12-08T15:00:13Z</time><name>PT7181</name></trkpt>
<trkpt lat="53.088740" lon="04.876747"><ele>-11.5</ele><time>2021-12-08T15:00:15Z</time><name>PT7182</name></trkpt>
<trkpt lat="53.088744" lon="04.876732"><ele>-11.5</ele><time>2021-12-08T15:00:15Z</time><name>PT7183</name></trkpt>
<trkpt lat="53.088748" lon="04.876721"><ele>-11.6</ele><time>2021-12-08T15:00:16Z</time><name>PT7184</name></trkpt>
<trkpt lat="53.088753" lon="04.876712"><ele>-11.3</ele><time>2021-12-08T15:00:18Z</time><name>PT7185</name></trkpt>
<trkpt lat="53.088758" lon="04.876704"><ele>-11.2</ele><time>2021-12-08T15:00:18Z</time><name>PT7186</name></trkpt>
<trkpt lat="53.088754" lon="04.876689"><ele>-11.3</ele><time>2021-12-08T15:00:19Z</time><name>PT7187</name></trkpt>
<trkpt lat="53.088748" lon="04.876672"><ele>-11.3</ele><time>2021-12-08T15:00:21Z</time><name>PT7188</name></trkpt>
<trkpt lat="53.088752" lon="04.876659"><ele>-11.4</ele><time>2021-12-08T15:00:21Z</time><name>PT7189</name></trkpt>
<trkpt lat="53.088746" lon="04.876649"><ele>-11.5</ele><time>2021-12-08T15:00:22Z</time><name>PT7190</name></trkpt>
<trkpt lat="53.088739" lon="04.876641"><ele>-11.5</ele><time>2021-12-08T15:00:24Z</time><name>PT7191</name></trkpt>
<trkpt lat="53.088733" lon="04.876632"><ele>-11.5</ele><time>2021-12-08T15:00:24Z</time><name>PT7192</name></trkpt>
<trkpt lat="53.088722" lon="04.876620"><ele>-11.3</ele><time>2021-12-08T15:00:25Z</time><name>PT7193</name></trkpt>
<trkpt lat="53.088711" lon="04.876613"><ele>-11.5</ele><time>2021-12-08T15:00:27Z</time><name>PT7194</name></trkpt>
<trkpt lat="53.088704" lon="04.876607"><ele>-11.5</ele><time>2021-12-08T15:00:27Z</time><name>PT7195</name></trkpt>
<trkpt lat="53.088709" lon="04.876602"><ele>-11.4</ele><time>2021-12-08T15:00:28Z</time><name>PT7196</name></trkpt>
<trkpt lat="53.088707" lon="04.876592"><ele>-11.5</ele><time>2021-12-08T15:00:30Z</time><name>PT7197</name></trkpt>
<trkpt lat="53.088699" lon="04.876580"><ele>-11.5</ele><time>2021-12-08T15:00:30Z</time><name>PT7198</name></trkpt>
<trkpt lat="53.088690" lon="04.876569"><ele>-11.3</ele><time>2021-12-08T15:00:31Z</time><name>PT7199</name></trkpt>
<trkpt lat="53.088681" lon="04.876561"><ele>-11.3</ele><time>2021-12-08T15:00:33Z</time><name>PT7200</name></trkpt>
<trkpt lat="53.088678" lon="04.876555"><ele>-11.4</ele><time>2021-12-08T15:00:33Z</time><name>PT7201</name></trkpt>
<trkpt lat="53.088673" lon="04.876551"><ele>-11.5</ele><time>2021-12-08T15:00:34Z</time><name>PT7202</name></trkpt>
<trkpt lat="53.088669" lon="04.876542"><ele>-11.5</ele><time>2021-12-08T15:00:36Z</time><name>PT7203</name></trkpt>
<trkpt lat="53.088664" lon="04.876534"><ele>-11.5</ele><time>2021-12-08T15:00:36Z</time><name>PT7204</name></trkpt>
<trkpt lat="53.088652" lon="04.876529"><ele>-11.5</ele><time>2021-12-08T15:00:37Z</time><name>PT7205</name></trkpt>
<trkpt lat="53.088642" lon="04.876527"><ele>-11.5</ele><time>2021-12-08T15:00:39Z</time><name>PT7206</name></trkpt>
<trkpt lat="53.088629" lon="04.876521"><ele>-11.5</ele><time>2021-12-08T15:00:39Z</time><name>PT7207</name></trkpt>
<trkpt lat="53.088619" lon="04.876503"><ele>-11.4</ele><time>2021-12-08T15:00:40Z</time><name>PT7208</name></trkpt>
<trkpt lat="53.088617" lon="04.876492"><ele>-11.4</ele><time>2021-12-08T15:00:42Z</time><name>PT7209</name></trkpt>
<trkpt lat="53.088610" lon="04.876482"><ele>-11.5</ele><time>2021-12-08T15:00:42Z</time><name>PT7210</name></trkpt>
<trkpt lat="53.088600" lon="04.876470"><ele>-11.4</ele><time>2021-12-08T15:00:43Z</time><name>PT7211</name></trkpt>
<trkpt lat="53.088590" lon="04.876464"><ele>-11.5</ele><time>2021-12-08T15:00:45Z</time><name>PT7212</name></trkpt>
<trkpt lat="53.088582" lon="04.876456"><ele>-11.5</ele><time>2021-12-08T15:00:45Z</time><name>PT7213</name></trkpt>
<trkpt lat="53.088575" lon="04.876442"><ele>-11.6</ele><time>2021-12-08T15:00:46Z</time><name>PT7214</name></trkpt>
<trkpt lat="53.088566" lon="04.876429"><ele>-11.6</ele><time>2021-12-08T15:00:48Z</time><name>PT7215</name></trkpt>
<trkpt lat="53.088558" lon="04.876416"><ele>-11.6</ele><time>2021-12-08T15:00:48Z</time><name>PT7216</name></trkpt>
<trkpt lat="53.088552" lon="04.876396"><ele>-11.5</ele><time>2021-12-08T15:00:49Z</time><name>PT7217</name></trkpt>
<trkpt lat="53.088540" lon="04.876382"><ele>-11.5</ele><time>2021-12-08T15:00:51Z</time><name>PT7218</name></trkpt>
<trkpt lat="53.088534" lon="04.876378"><ele>-11.5</ele><time>2021-12-08T15:00:51Z</time><name>PT7219</name></trkpt>
<trkpt lat="53.088528" lon="04.876372"><ele>-11.5</ele><time>2021-12-08T15:00:52Z</time><name>PT7220</name></trkpt>
<trkpt lat="53.088520" lon="04.876360"><ele>-11.5</ele><time>2021-12-08T15:00:54Z</time><name>PT7221</name></trkpt>
<trkpt lat="53.088513" lon="04.876345"><ele>-11.7</ele><time>2021-12-08T15:00:54Z</time><name>PT7222</name></trkpt>
<trkpt lat="53.088506" lon="04.876339"><ele>-11.5</ele><time>2021-12-08T15:00:55Z</time><name>PT7223</name></trkpt>
<trkpt lat="53.088503" lon="04.876330"><ele>-11.7</ele><time>2021-12-08T15:00:57Z</time><name>PT7224</name></trkpt>
<trkpt lat="53.088503" lon="04.876323"><ele>-11.8</ele><time>2021-12-08T15:00:57Z</time><name>PT7225</name></trkpt>
<trkpt lat="53.088503" lon="04.876320"><ele>-11.9</ele><time>2021-12-08T15:00:58Z</time><name>PT7226</name></trkpt>
<trkpt lat="53.088501" lon="04.876319"><ele>-11.7</ele><time>2021-12-08T15:01:00Z</time><name>PT7227</name></trkpt>
<trkpt lat="53.088497" lon="04.876317"><ele>-11.8</ele><time>2021-12-08T15:01:00Z</time><name>PT7228</name></trkpt>
<trkpt lat="53.088490" lon="04.876308"><ele>-11.5</ele><time>2021-12-08T15:01:01Z</time><name>PT7229</name></trkpt>
<trkpt lat="53.088477" lon="04.876302"><ele>-11.5</ele><time>2021-12-08T15:01:03Z</time><name>PT7230</name></trkpt>
<trkpt lat="53.088462" lon="04.876297"><ele>-11.4</ele><time>2021-12-08T15:01:03Z</time><name>PT7231</name></trkpt>
<trkpt lat="53.088455" lon="04.876293"><ele>-11.4</ele><time>2021-12-08T15:01:04Z</time><name>PT7232</name></trkpt>
<trkpt lat="53.088448" lon="04.876288"><ele>-11.4</ele><time>2021-12-08T15:01:06Z</time><name>PT7233</name></trkpt>
<trkpt lat="53.088442" lon="04.876283"><ele>-11.5</ele><time>2021-12-08T15:01:06Z</time><name>PT7234</name></trkpt>
<trkpt lat="53.088435" lon="04.876277"><ele>-11.4</ele><time>2021-12-08T15:01:07Z</time><name>PT7235</name></trkpt>
<trkpt lat="53.088426" lon="04.876264"><ele>-11.5</ele><time>2021-12-08T15:01:09Z</time><name>PT7236</name></trkpt>
<trkpt lat="53.088414" lon="04.876253"><ele>-11.6</ele><time>2021-12-08T15:01:09Z</time><name>PT7237</name></trkpt>
<trkpt lat="53.088403" lon="04.876240"><ele>-11.6</ele><time>2021-12-08T15:01:10Z</time><name>PT7238</name></trkpt>
<trkpt lat="53.088395" lon="04.876232"><ele>-11.6</ele><time>2021-12-08T15:01:12Z</time><name>PT7239</name></trkpt>
<trkpt lat="53.088386" lon="04.876225"><ele>-11.6</ele><time>2021-12-08T15:01:12Z</time><name>PT7240</name></trkpt>
<trkpt lat="53.088376" lon="04.876217"><ele>-11.5</ele><time>2021-12-08T15:01:13Z</time><name>PT7241</name></trkpt>
<trkpt lat="53.088367" lon="04.876208"><ele>-11.5</ele><time>2021-12-08T15:01:15Z</time><name>PT7242</name></trkpt>
<trkpt lat="53.088360" lon="04.876199"><ele>-11.4</ele><time>2021-12-08T15:01:15Z</time><name>PT7243</name></trkpt>
<trkpt lat="53.088350" lon="04.876190"><ele>-11.3</ele><time>2021-12-08T15:01:16Z</time><name>PT7244</name></trkpt>
<trkpt lat="53.088341" lon="04.876175"><ele>-11.5</ele><time>2021-12-08T15:01:18Z</time><name>PT7245</name></trkpt>
<trkpt lat="53.088334" lon="04.876164"><ele>-11.5</ele><time>2021-12-08T15:01:18Z</time><name>PT7246</name></trkpt>
<trkpt lat="53.088331" lon="04.876160"><ele>-11.5</ele><time>2021-12-08T15:01:19Z</time><name>PT7247</name></trkpt>
<trkpt lat="53.088327" lon="04.876155"><ele>-11.8</ele><time>2021-12-08T15:01:21Z</time><name>PT7248</name></trkpt>
<trkpt lat="53.088320" lon="04.876145"><ele>-11.7</ele><time>2021-12-08T15:01:21Z</time><name>PT7249</name></trkpt>
<trkpt lat="53.088313" lon="04.876133"><ele>-11.5</ele><time>2021-12-08T15:01:22Z</time><name>PT7250</name></trkpt>
<trkpt lat="53.088302" lon="04.876119"><ele>-11.3</ele><time>2021-12-08T15:01:24Z</time><name>PT7251</name></trkpt>
<trkpt lat="53.088288" lon="04.876102"><ele>-11.3</ele><time>2021-12-08T15:01:24Z</time><name>PT7252</name></trkpt>
<trkpt lat="53.088277" lon="04.876092"><ele>-11.2</ele><time>2021-12-08T15:01:25Z</time><name>PT7253</name></trkpt>
<trkpt lat="53.088268" lon="04.876083"><ele>-11.3</ele><time>2021-12-08T15:01:27Z</time><name>PT7254</name></trkpt>
<trkpt lat="53.088258" lon="04.876075"><ele>-11.4</ele><time>2021-12-08T15:01:27Z</time><name>PT7255</name></trkpt>
<trkpt lat="53.088248" lon="04.876064"><ele>-11.5</ele><time>2021-12-08T15:01:28Z</time><name>PT7256</name></trkpt>
<trkpt lat="53.088238" lon="04.876052"><ele>-11.5</ele><time>2021-12-08T15:01:30Z</time><name>PT7257</name></trkpt>
<trkpt lat="53.088229" lon="04.876039"><ele>-11.5</ele><time>2021-12-08T15:01:30Z</time><name>PT7258</name></trkpt>
<trkpt lat="53.088219" lon="04.876032"><ele>-11.3</ele><time>2021-12-08T15:01:31Z</time><name>PT7259</name></trkpt>
<trkpt lat="53.088211" lon="04.876030"><ele>-11.2</ele><time>2021-12-08T15:01:33Z</time><name>PT7260</name></trkpt>
<trkpt lat="53.088209" lon="04.876030"><ele>-11.1</ele><time>2021-12-08T15:01:33Z</time><name>PT7261</name></trkpt>
<trkpt lat="53.088207" lon="04.876029"><ele>-11.2</ele><time>2021-12-08T15:01:34Z</time><name>PT7262</name></trkpt>
<trkpt lat="53.088206" lon="04.876028"><ele>-11.1</ele><time>2021-12-08T15:01:36Z</time><name>PT7263</name></trkpt>
<trkpt lat="53.088201" lon="04.876024"><ele>-11.4</ele><time>2021-12-08T15:01:42Z</time><name>PT7264</name></trkpt>
<trkpt lat="53.088191" lon="04.876015"><ele>-11.5</ele><time>2021-12-08T15:01:43Z</time><name>PT7265</name></trkpt>
<trkpt lat="53.088181" lon="04.876011"><ele>-11.5</ele><time>2021-12-08T15:01:45Z</time><name>PT7266</name></trkpt>
<trkpt lat="53.088172" lon="04.876008"><ele>-11.5</ele><time>2021-12-08T15:01:45Z</time><name>PT7267</name></trkpt>
<trkpt lat="53.088160" lon="04.876004"><ele>-11.8</ele><time>2021-12-08T15:01:46Z</time><name>PT7268</name></trkpt>
<trkpt lat="53.088150" lon="04.876000"><ele>-12</ele><time>2021-12-08T15:01:48Z</time><name>PT7269</name></trkpt>
<trkpt lat="53.088139" lon="04.875998"><ele>-12.1</ele><time>2021-12-08T15:01:48Z</time><name>PT7270</name></trkpt>
<trkpt lat="53.088127" lon="04.875995"><ele>-12.2</ele><time>2021-12-08T15:01:49Z</time><name>PT7271</name></trkpt>
<trkpt lat="53.088114" lon="04.875992"><ele>-12</ele><time>2021-12-08T15:01:51Z</time><name>PT7272</name></trkpt>
<trkpt lat="53.088101" lon="04.875991"><ele>-12</ele><time>2021-12-08T15:01:51Z</time><name>PT7273</name></trkpt>
<trkpt lat="53.088089" lon="04.875989"><ele>-11.5</ele><time>2021-12-08T15:01:52Z</time><name>PT7274</name></trkpt>
<trkpt lat="53.088077" lon="04.875988"><ele>-11.5</ele><time>2021-12-08T15:01:54Z</time><name>PT7275</name></trkpt>
<trkpt lat="53.088067" lon="04.875987"><ele>-11.3</ele><time>2021-12-08T15:01:54Z</time><name>PT7276</name></trkpt>
<trkpt lat="53.088057" lon="04.875987"><ele>-11.2</ele><time>2021-12-08T15:01:55Z</time><name>PT7277</name></trkpt>
<trkpt lat="53.088045" lon="04.875981"><ele>-11</ele><time>2021-12-08T15:01:57Z</time><name>PT7278</name></trkpt>
<trkpt lat="53.088035" lon="04.875975"><ele>-11</ele><time>2021-12-08T15:01:57Z</time><name>PT7279</name></trkpt>
<trkpt lat="53.088027" lon="04.875972"><ele>-11</ele><time>2021-12-08T15:01:58Z</time><name>PT7280</name></trkpt>
<trkpt lat="53.088017" lon="04.875970"><ele>-11.1</ele><time>2021-12-08T15:02:00Z</time><name>PT7281</name></trkpt>
<trkpt lat="53.088008" lon="04.875968"><ele>-11.2</ele><time>2021-12-08T15:02:00Z</time><name>PT7282</name></trkpt>
<trkpt lat="53.087997" lon="04.875962"><ele>-11.2</ele><time>2021-12-08T15:02:01Z</time><name>PT7283</name></trkpt>
<trkpt lat="53.087988" lon="04.875960"><ele>-11.4</ele><time>2021-12-08T15:02:03Z</time><name>PT7284</name></trkpt>
<trkpt lat="53.087982" lon="04.875955"><ele>-11.5</ele><time>2021-12-08T15:02:03Z</time><name>PT7285</name></trkpt>
<trkpt lat="53.087975" lon="04.875953"><ele>-11.5</ele><time>2021-12-08T15:02:04Z</time><name>PT7286</name></trkpt>
<trkpt lat="53.087967" lon="04.875952"><ele>-11.6</ele><time>2021-12-08T15:02:06Z</time><name>PT7287</name></trkpt>
<trkpt lat="53.087961" lon="04.875950"><ele>-11.8</ele><time>2021-12-08T15:02:06Z</time><name>PT7288</name></trkpt>
<trkpt lat="53.087954" lon="04.875949"><ele>-11.9</ele><time>2021-12-08T15:02:07Z</time><name>PT7289</name></trkpt>
<trkpt lat="53.087946" lon="04.875945"><ele>-11.8</ele><time>2021-12-08T15:02:09Z</time><name>PT7290</name></trkpt>
<trkpt lat="53.087936" lon="04.875943"><ele>-11.8</ele><time>2021-12-08T15:02:09Z</time><name>PT7291</name></trkpt>
<trkpt lat="53.087927" lon="04.875938"><ele>-11.7</ele><time>2021-12-08T15:02:10Z</time><name>PT7292</name></trkpt>
<trkpt lat="53.087915" lon="04.875930"><ele>-11.5</ele><time>2021-12-08T15:02:12Z</time><name>PT7293</name></trkpt>
<trkpt lat="53.087897" lon="04.875924"><ele>-11.5</ele><time>2021-12-08T15:02:12Z</time><name>PT7294</name></trkpt>
<trkpt lat="53.087884" lon="04.875918"><ele>-11.4</ele><time>2021-12-08T15:02:13Z</time><name>PT7295</name></trkpt>
<trkpt lat="53.087874" lon="04.875911"><ele>-11.2</ele><time>2021-12-08T15:02:15Z</time><name>PT7296</name></trkpt>
<trkpt lat="53.087864" lon="04.875898"><ele>-11.4</ele><time>2021-12-08T15:02:15Z</time><name>PT7297</name></trkpt>
<trkpt lat="53.087851" lon="04.875884"><ele>-11.4</ele><time>2021-12-08T15:02:16Z</time><name>PT7298</name></trkpt>
<trkpt lat="53.087840" lon="04.875875"><ele>-11.3</ele><time>2021-12-08T15:02:18Z</time><name>PT7299</name></trkpt>
<trkpt lat="53.087831" lon="04.875865"><ele>-11.3</ele><time>2021-12-08T15:02:18Z</time><name>PT7300</name></trkpt>
<trkpt lat="53.087823" lon="04.875858"><ele>-11.3</ele><time>2021-12-08T15:02:19Z</time><name>PT7301</name></trkpt>
<trkpt lat="53.087812" lon="04.875851"><ele>-11.1</ele><time>2021-12-08T15:02:21Z</time><name>PT7302</name></trkpt>
<trkpt lat="53.087800" lon="04.875847"><ele>-11.2</ele><time>2021-12-08T15:02:21Z</time><name>PT7303</name></trkpt>
<trkpt lat="53.087786" lon="04.875839"><ele>-11.2</ele><time>2021-12-08T15:02:22Z</time><name>PT7304</name></trkpt>
<trkpt lat="53.087776" lon="04.875832"><ele>-11.2</ele><time>2021-12-08T15:02:24Z</time><name>PT7305</name></trkpt>
<trkpt lat="53.087768" lon="04.875829"><ele>-11</ele><time>2021-12-08T15:02:24Z</time><name>PT7306</name></trkpt>
<trkpt lat="53.087766" lon="04.875828"><ele>-11.1</ele><time>2021-12-08T15:02:25Z</time><name>PT7307</name></trkpt>
<trkpt lat="53.087764" lon="04.875829"><ele>-11</ele><time>2021-12-08T15:02:27Z</time><name>PT7308</name></trkpt>
<trkpt lat="53.087762" lon="04.875831"><ele>-11.1</ele><time>2021-12-08T15:02:27Z</time><name>PT7309</name></trkpt>
<trkpt lat="53.087752" lon="04.875837"><ele>-11.2</ele><time>2021-12-08T15:02:30Z</time><name>PT7310</name></trkpt>
<trkpt lat="53.087741" lon="04.875832"><ele>-11.3</ele><time>2021-12-08T15:02:31Z</time><name>PT7311</name></trkpt>
<trkpt lat="53.087731" lon="04.875825"><ele>-11.2</ele><time>2021-12-08T15:02:33Z</time><name>PT7312</name></trkpt>
<trkpt lat="53.087721" lon="04.875813"><ele>-11.2</ele><time>2021-12-08T15:02:33Z</time><name>PT7313</name></trkpt>
<trkpt lat="53.087713" lon="04.875805"><ele>-11.3</ele><time>2021-12-08T15:02:34Z</time><name>PT7314</name></trkpt>
<trkpt lat="53.087703" lon="04.875794"><ele>-11.5</ele><time>2021-12-08T15:02:36Z</time><name>PT7315</name></trkpt>
<trkpt lat="53.087693" lon="04.875787"><ele>-11.5</ele><time>2021-12-08T15:02:36Z</time><name>PT7316</name></trkpt>
<trkpt lat="53.087684" lon="04.875768"><ele>-11.5</ele><time>2021-12-08T15:02:37Z</time><name>PT7317</name></trkpt>
<trkpt lat="53.087676" lon="04.875754"><ele>-11.3</ele><time>2021-12-08T15:02:39Z</time><name>PT7318</name></trkpt>
<trkpt lat="53.087667" lon="04.875740"><ele>-11.2</ele><time>2021-12-08T15:02:39Z</time><name>PT7319</name></trkpt>
<trkpt lat="53.087655" lon="04.875725"><ele>-11.2</ele><time>2021-12-08T15:02:40Z</time><name>PT7320</name></trkpt>
<trkpt lat="53.087648" lon="04.875716"><ele>-11.1</ele><time>2021-12-08T15:02:42Z</time><name>PT7321</name></trkpt>
<trkpt lat="53.087637" lon="04.875701"><ele>-11.2</ele><time>2021-12-08T15:02:42Z</time><name>PT7322</name></trkpt>
<trkpt lat="53.087627" lon="04.875692"><ele>-11.2</ele><time>2021-12-08T15:02:43Z</time><name>PT7323</name></trkpt>
<trkpt lat="53.087618" lon="04.875679"><ele>-11.2</ele><time>2021-12-08T15:02:45Z</time><name>PT7324</name></trkpt>
<trkpt lat="53.087609" lon="04.875665"><ele>-11.1</ele><time>2021-12-08T15:02:45Z</time><name>PT7325</name></trkpt>
<trkpt lat="53.087599" lon="04.875652"><ele>-11.3</ele><time>2021-12-08T15:02:46Z</time><name>PT7326</name></trkpt>
<trkpt lat="53.087588" lon="04.875642"><ele>-11</ele><time>2021-12-08T15:02:48Z</time><name>PT7327</name></trkpt>
<trkpt lat="53.087581" lon="04.875630"><ele>-11</ele><time>2021-12-08T15:02:48Z</time><name>PT7328</name></trkpt>
<trkpt lat="53.087575" lon="04.875616"><ele>-11</ele><time>2021-12-08T15:02:49Z</time><name>PT7329</name></trkpt>
<trkpt lat="53.087568" lon="04.875604"><ele>-11.1</ele><time>2021-12-08T15:02:51Z</time><name>PT7330</name></trkpt>
<trkpt lat="53.087564" lon="04.875588"><ele>-11.2</ele><time>2021-12-08T15:02:51Z</time><name>PT7331</name></trkpt>
<trkpt lat="53.087558" lon="04.875574"><ele>-11.5</ele><time>2021-12-08T15:02:52Z</time><name>PT7332</name></trkpt>
<trkpt lat="53.087551" lon="04.875557"><ele>-11.5</ele><time>2021-12-08T15:02:54Z</time><name>PT7333</name></trkpt>
<trkpt lat="53.087543" lon="04.875542"><ele>-11.5</ele><time>2021-12-08T15:02:54Z</time><name>PT7334</name></trkpt>
<trkpt lat="53.087535" lon="04.875529"><ele>-11.4</ele><time>2021-12-08T15:02:55Z</time><name>PT7335</name></trkpt>
<trkpt lat="53.087528" lon="04.875517"><ele>-11.3</ele><time>2021-12-08T15:02:57Z</time><name>PT7336</name></trkpt>
<trkpt lat="53.087523" lon="04.875504"><ele>-11.2</ele><time>2021-12-08T15:02:57Z</time><name>PT7337</name></trkpt>
<trkpt lat="53.087517" lon="04.875488"><ele>-11.1</ele><time>2021-12-08T15:02:58Z</time><name>PT7338</name></trkpt>
<trkpt lat="53.087512" lon="04.875469"><ele>-11</ele><time>2021-12-08T15:03:00Z</time><name>PT7339</name></trkpt>
<trkpt lat="53.087505" lon="04.875450"><ele>-10.9</ele><time>2021-12-08T15:03:00Z</time><name>PT7340</name></trkpt>
<trkpt lat="53.087499" lon="04.875432"><ele>-11</ele><time>2021-12-08T15:03:01Z</time><name>PT7341</name></trkpt>
<trkpt lat="53.087493" lon="04.875415"><ele>-11</ele><time>2021-12-08T15:03:03Z</time><name>PT7342</name></trkpt>
<trkpt lat="53.087486" lon="04.875401"><ele>-11</ele><time>2021-12-08T15:03:03Z</time><name>PT7343</name></trkpt>
<trkpt lat="53.087478" lon="04.875388"><ele>-11</ele><time>2021-12-08T15:03:04Z</time><name>PT7344</name></trkpt>
<trkpt lat="53.087472" lon="04.875373"><ele>-11.1</ele><time>2021-12-08T15:03:06Z</time><name>PT7345</name></trkpt>
<trkpt lat="53.087466" lon="04.875357"><ele>-11.2</ele><time>2021-12-08T15:03:06Z</time><name>PT7346</name></trkpt>
<trkpt lat="53.087460" lon="04.875339"><ele>-11</ele><time>2021-12-08T15:03:07Z</time><name>PT7347</name></trkpt>
<trkpt lat="53.087452" lon="04.875318"><ele>-11.2</ele><time>2021-12-08T15:03:09Z</time><name>PT7348</name></trkpt>
<trkpt lat="53.087443" lon="04.875299"><ele>-11.3</ele><time>2021-12-08T15:03:09Z</time><name>PT7349</name></trkpt>
<trkpt lat="53.087433" lon="04.875285"><ele>-11.3</ele><time>2021-12-08T15:03:10Z</time><name>PT7350</name></trkpt>
<trkpt lat="53.087426" lon="04.875273"><ele>-11.3</ele><time>2021-12-08T15:03:12Z</time><name>PT7351</name></trkpt>
<trkpt lat="53.087419" lon="04.875264"><ele>-11.3</ele><time>2021-12-08T15:03:12Z</time><name>PT7352</name></trkpt>
<trkpt lat="53.087414" lon="04.875251"><ele>-11.2</ele><time>2021-12-08T15:03:13Z</time><name>PT7353</name></trkpt>
<trkpt lat="53.087410" lon="04.875235"><ele>-11.3</ele><time>2021-12-08T15:03:15Z</time><name>PT7354</name></trkpt>
<trkpt lat="53.087403" lon="04.875219"><ele>-11.2</ele><time>2021-12-08T15:03:15Z</time><name>PT7355</name></trkpt>
<trkpt lat="53.087396" lon="04.875200"><ele>-11.1</ele><time>2021-12-08T15:03:16Z</time><name>PT7356</name></trkpt>
<trkpt lat="53.087388" lon="04.875185"><ele>-11.2</ele><time>2021-12-08T15:03:18Z</time><name>PT7357</name></trkpt>
<trkpt lat="53.087381" lon="04.875172"><ele>-11</ele><time>2021-12-08T15:03:18Z</time><name>PT7358</name></trkpt>
<trkpt lat="53.087374" lon="04.875161"><ele>-11</ele><time>2021-12-08T15:03:19Z</time><name>PT7359</name></trkpt>
<trkpt lat="53.087368" lon="04.875147"><ele>-10.8</ele><time>2021-12-08T15:03:21Z</time><name>PT7360</name></trkpt>
<trkpt lat="53.087361" lon="04.875132"><ele>-10.7</ele><time>2021-12-08T15:03:21Z</time><name>PT7361</name></trkpt>
<trkpt lat="53.087354" lon="04.875114"><ele>-10.7</ele><time>2021-12-08T15:03:22Z</time><name>PT7362</name></trkpt>
<trkpt lat="53.087347" lon="04.875096"><ele>-11</ele><time>2021-12-08T15:03:24Z</time><name>PT7363</name></trkpt>
<trkpt lat="53.087338" lon="04.875079"><ele>-10.9</ele><time>2021-12-08T15:03:24Z</time><name>PT7364</name></trkpt>
<trkpt lat="53.087328" lon="04.875065"><ele>-11</ele><time>2021-12-08T15:03:25Z</time><name>PT7365</name></trkpt>
<trkpt lat="53.087320" lon="04.875054"><ele>-11</ele><time>2021-12-08T15:03:27Z</time><name>PT7366</name></trkpt>
<trkpt lat="53.087313" lon="04.875043"><ele>-11</ele><time>2021-12-08T15:03:27Z</time><name>PT7367</name></trkpt>
<trkpt lat="53.087306" lon="04.875029"><ele>-11</ele><time>2021-12-08T15:03:28Z</time><name>PT7368</name></trkpt>
<trkpt lat="53.087298" lon="04.875017"><ele>-11.1</ele><time>2021-12-08T15:03:30Z</time><name>PT7369</name></trkpt>
<trkpt lat="53.087289" lon="04.875008"><ele>-11.1</ele><time>2021-12-08T15:03:30Z</time><name>PT7370</name></trkpt>
<trkpt lat="53.087281" lon="04.875000"><ele>-11.2</ele><time>2021-12-08T15:03:31Z</time><name>PT7371</name></trkpt>
<trkpt lat="53.087272" lon="04.874996"><ele>-11.3</ele><time>2021-12-08T15:03:33Z</time><name>PT7372</name></trkpt>
<trkpt lat="53.087263" lon="04.874993"><ele>-11.2</ele><time>2021-12-08T15:03:33Z</time><name>PT7373</name></trkpt>
<trkpt lat="53.087255" lon="04.874989"><ele>-11.4</ele><time>2021-12-08T15:03:34Z</time><name>PT7374</name></trkpt>
<trkpt lat="53.087244" lon="04.874985"><ele>-11.3</ele><time>2021-12-08T15:03:36Z</time><name>PT7375</name></trkpt>
<trkpt lat="53.087232" lon="04.874985"><ele>-11.2</ele><time>2021-12-08T15:03:36Z</time><name>PT7376</name></trkpt>
<trkpt lat="53.087221" lon="04.874989"><ele>-11</ele><time>2021-12-08T15:03:37Z</time><name>PT7377</name></trkpt>
<trkpt lat="53.087211" lon="04.874993"><ele>-10.9</ele><time>2021-12-08T15:03:39Z</time><name>PT7378</name></trkpt>
<trkpt lat="53.087201" lon="04.874998"><ele>-10.7</ele><time>2021-12-08T15:03:39Z</time><name>PT7379</name></trkpt>
<trkpt lat="53.087192" lon="04.875007"><ele>-10.6</ele><time>2021-12-08T15:03:40Z</time><name>PT7380</name></trkpt>
<trkpt lat="53.087184" lon="04.875011"><ele>-10.6</ele><time>2021-12-08T15:03:42Z</time><name>PT7381</name></trkpt>
<trkpt lat="53.087174" lon="04.875017"><ele>-10.7</ele><time>2021-12-08T15:03:42Z</time><name>PT7382</name></trkpt>
<trkpt lat="53.087162" lon="04.875023"><ele>-10.7</ele><time>2021-12-08T15:03:43Z</time><name>PT7383</name></trkpt>
<trkpt lat="53.087152" lon="04.875029"><ele>-10.7</ele><time>2021-12-08T15:03:45Z</time><name>PT7384</name></trkpt>
<trkpt lat="53.087139" lon="04.875031"><ele>-10.8</ele><time>2021-12-08T15:03:45Z</time><name>PT7385</name></trkpt>
<trkpt lat="53.087129" lon="04.875035"><ele>-10.8</ele><time>2021-12-08T15:03:46Z</time><name>PT7386</name></trkpt>
<trkpt lat="53.087122" lon="04.875040"><ele>-10.9</ele><time>2021-12-08T15:03:48Z</time><name>PT7387</name></trkpt>
<trkpt lat="53.087114" lon="04.875045"><ele>-11</ele><time>2021-12-08T15:03:48Z</time><name>PT7388</name></trkpt>
<trkpt lat="53.087105" lon="04.875049"><ele>-11</ele><time>2021-12-08T15:03:49Z</time><name>PT7389</name></trkpt>
<trkpt lat="53.087094" lon="04.875056"><ele>-11</ele><time>2021-12-08T15:03:51Z</time><name>PT7390</name></trkpt>
<trkpt lat="53.087084" lon="04.875064"><ele>-11</ele><time>2021-12-08T15:03:51Z</time><name>PT7391</name></trkpt>
<trkpt lat="53.087076" lon="04.875072"><ele>-11</ele><time>2021-12-08T15:03:52Z</time><name>PT7392</name></trkpt>
<trkpt lat="53.087068" lon="04.875082"><ele>-11.1</ele><time>2021-12-08T15:03:54Z</time><name>PT7393</name></trkpt>
<trkpt lat="53.087057" lon="04.875088"><ele>-11.3</ele><time>2021-12-08T15:03:54Z</time><name>PT7394</name></trkpt>
<trkpt lat="53.087046" lon="04.875094"><ele>-11.3</ele><time>2021-12-08T15:03:55Z</time><name>PT7395</name></trkpt>
<trkpt lat="53.087034" lon="04.875103"><ele>-11.2</ele><time>2021-12-08T15:03:57Z</time><name>PT7396</name></trkpt>
<trkpt lat="53.087025" lon="04.875108"><ele>-11.1</ele><time>2021-12-08T15:03:57Z</time><name>PT7397</name></trkpt>
<trkpt lat="53.087015" lon="04.875114"><ele>-11.1</ele><time>2021-12-08T15:03:58Z</time><name>PT7398</name></trkpt>
<trkpt lat="53.087009" lon="04.875121"><ele>-11</ele><time>2021-12-08T15:04:00Z</time><name>PT7399</name></trkpt>
<trkpt lat="53.086999" lon="04.875124"><ele>-10.9</ele><time>2021-12-08T15:04:00Z</time><name>PT7400</name></trkpt>
<trkpt lat="53.086988" lon="04.875125"><ele>-10.8</ele><time>2021-12-08T15:04:01Z</time><name>PT7401</name></trkpt>
<trkpt lat="53.086979" lon="04.875129"><ele>-10.6</ele><time>2021-12-08T15:04:03Z</time><name>PT7402</name></trkpt>
<trkpt lat="53.086970" lon="04.875133"><ele>-10.6</ele><time>2021-12-08T15:04:03Z</time><name>PT7403</name></trkpt>
<trkpt lat="53.086961" lon="04.875136"><ele>-10.7</ele><time>2021-12-08T15:04:04Z</time><name>PT7404</name></trkpt>
<trkpt lat="53.086952" lon="04.875135"><ele>-10.9</ele><time>2021-12-08T15:04:06Z</time><name>PT7405</name></trkpt>
<trkpt lat="53.086942" lon="04.875133"><ele>-11</ele><time>2021-12-08T15:04:06Z</time><name>PT7406</name></trkpt>
<trkpt lat="53.086931" lon="04.875131"><ele>-11.1</ele><time>2021-12-08T15:04:07Z</time><name>PT7407</name></trkpt>
<trkpt lat="53.086919" lon="04.875131"><ele>-11</ele><time>2021-12-08T15:04:09Z</time><name>PT7408</name></trkpt>
<trkpt lat="53.086913" lon="04.875130"><ele>-11</ele><time>2021-12-08T15:04:09Z</time><name>PT7409</name></trkpt>
<trkpt lat="53.086904" lon="04.875131"><ele>-11</ele><time>2021-12-08T15:04:10Z</time><name>PT7410</name></trkpt>
<trkpt lat="53.086896" lon="04.875132"><ele>-11</ele><time>2021-12-08T15:04:12Z</time><name>PT7411</name></trkpt>
<trkpt lat="53.086884" lon="04.875134"><ele>-11</ele><time>2021-12-08T15:04:12Z</time><name>PT7412</name></trkpt>
<trkpt lat="53.086872" lon="04.875135"><ele>-11</ele><time>2021-12-08T15:04:13Z</time><name>PT7413</name></trkpt>
<trkpt lat="53.086859" lon="04.875130"><ele>-11</ele><time>2021-12-08T15:04:15Z</time><name>PT7414</name></trkpt>
<trkpt lat="53.086847" lon="04.875131"><ele>-10.9</ele><time>2021-12-08T15:04:15Z</time><name>PT7415</name></trkpt>
<trkpt lat="53.086836" lon="04.875133"><ele>-10.8</ele><time>2021-12-08T15:04:16Z</time><name>PT7416</name></trkpt>
<trkpt lat="53.086825" lon="04.875138"><ele>-10.9</ele><time>2021-12-08T15:04:18Z</time><name>PT7417</name></trkpt>
<trkpt lat="53.086815" lon="04.875139"><ele>-11</ele><time>2021-12-08T15:04:18Z</time><name>PT7418</name></trkpt>
<trkpt lat="53.086803" lon="04.875139"><ele>-10.9</ele><time>2021-12-08T15:04:19Z</time><name>PT7419</name></trkpt>
<trkpt lat="53.086791" lon="04.875131"><ele>-11</ele><time>2021-12-08T15:04:21Z</time><name>PT7420</name></trkpt>
<trkpt lat="53.086782" lon="04.875125"><ele>-11</ele><time>2021-12-08T15:04:21Z</time><name>PT7421</name></trkpt>
<trkpt lat="53.086772" lon="04.875123"><ele>-11</ele><time>2021-12-08T15:04:22Z</time><name>PT7422</name></trkpt>
<trkpt lat="53.086763" lon="04.875126"><ele>-11</ele><time>2021-12-08T15:04:24Z</time><name>PT7423</name></trkpt>
<trkpt lat="53.086753" lon="04.875129"><ele>-11</ele><time>2021-12-08T15:04:24Z</time><name>PT7424</name></trkpt>
<trkpt lat="53.086744" lon="04.875122"><ele>-11</ele><time>2021-12-08T15:04:25Z</time><name>PT7425</name></trkpt>
<trkpt lat="53.086731" lon="04.875118"><ele>-11</ele><time>2021-12-08T15:04:27Z</time><name>PT7426</name></trkpt>
<trkpt lat="53.086720" lon="04.875114"><ele>-11.1</ele><time>2021-12-08T15:04:27Z</time><name>PT7427</name></trkpt>
<trkpt lat="53.086707" lon="04.875106"><ele>-11</ele><time>2021-12-08T15:04:28Z</time><name>PT7428</name></trkpt>
<trkpt lat="53.086694" lon="04.875101"><ele>-11</ele><time>2021-12-08T15:04:30Z</time><name>PT7429</name></trkpt>
<trkpt lat="53.086683" lon="04.875096"><ele>-10.9</ele><time>2021-12-08T15:04:30Z</time><name>PT7430</name></trkpt>
<trkpt lat="53.086672" lon="04.875093"><ele>-10.8</ele><time>2021-12-08T15:04:31Z</time><name>PT7431</name></trkpt>
<trkpt lat="53.086667" lon="04.875088"><ele>-10.8</ele><time>2021-12-08T15:04:33Z</time><name>PT7432</name></trkpt>
<trkpt lat="53.086659" lon="04.875081"><ele>-10.9</ele><time>2021-12-08T15:04:33Z</time><name>PT7433</name></trkpt>
<trkpt lat="53.086647" lon="04.875075"><ele>-10.9</ele><time>2021-12-08T15:04:34Z</time><name>PT7434</name></trkpt>
<trkpt lat="53.086633" lon="04.875070"><ele>-11</ele><time>2021-12-08T15:04:36Z</time><name>PT7435</name></trkpt>
<trkpt lat="53.086619" lon="04.875067"><ele>-11</ele><time>2021-12-08T15:04:36Z</time><name>PT7436</name></trkpt>
<trkpt lat="53.086609" lon="04.875070"><ele>-11</ele><time>2021-12-08T15:04:37Z</time><name>PT7437</name></trkpt>
<trkpt lat="53.086601" lon="04.875071"><ele>-11</ele><time>2021-12-08T15:04:39Z</time><name>PT7438</name></trkpt>
<trkpt lat="53.086591" lon="04.875066"><ele>-11</ele><time>2021-12-08T15:04:39Z</time><name>PT7439</name></trkpt>
<trkpt lat="53.086579" lon="04.875062"><ele>-10.9</ele><time>2021-12-08T15:04:40Z</time><name>PT7440</name></trkpt>
<trkpt lat="53.086568" lon="04.875058"><ele>-10.9</ele><time>2021-12-08T15:04:42Z</time><name>PT7441</name></trkpt>
<trkpt lat="53.086554" lon="04.875056"><ele>-10.7</ele><time>2021-12-08T15:04:42Z</time><name>PT7442</name></trkpt>
<trkpt lat="53.086541" lon="04.875051"><ele>-10.6</ele><time>2021-12-08T15:04:43Z</time><name>PT7443</name></trkpt>
<trkpt lat="53.086528" lon="04.875050"><ele>-10.5</ele><time>2021-12-08T15:04:45Z</time><name>PT7444</name></trkpt>
<trkpt lat="53.086517" lon="04.875048"><ele>-10.4</ele><time>2021-12-08T15:04:45Z</time><name>PT7445</name></trkpt>
<trkpt lat="53.086509" lon="04.875049"><ele>-10.5</ele><time>2021-12-08T15:04:46Z</time><name>PT7446</name></trkpt>
<trkpt lat="53.086500" lon="04.875044"><ele>-10.6</ele><time>2021-12-08T15:04:48Z</time><name>PT7447</name></trkpt>
<trkpt lat="53.086487" lon="04.875037"><ele>-10.6</ele><time>2021-12-08T15:04:48Z</time><name>PT7448</name></trkpt>
<trkpt lat="53.086473" lon="04.875030"><ele>-10.5</ele><time>2021-12-08T15:04:49Z</time><name>PT7449</name></trkpt>
<trkpt lat="53.086460" lon="04.875027"><ele>-10.5</ele><time>2021-12-08T15:04:51Z</time><name>PT7450</name></trkpt>
<trkpt lat="53.086448" lon="04.875027"><ele>-10.4</ele><time>2021-12-08T15:04:51Z</time><name>PT7451</name></trkpt>
<trkpt lat="53.086436" lon="04.875025"><ele>-10.1</ele><time>2021-12-08T15:04:52Z</time><name>PT7452</name></trkpt>
<trkpt lat="53.086427" lon="04.875024"><ele>-10.3</ele><time>2021-12-08T15:04:54Z</time><name>PT7453</name></trkpt>
<trkpt lat="53.086416" lon="04.875022"><ele>-10.4</ele><time>2021-12-08T15:04:54Z</time><name>PT7454</name></trkpt>
<trkpt lat="53.086406" lon="04.875021"><ele>-10.4</ele><time>2021-12-08T15:04:55Z</time><name>PT7455</name></trkpt>
<trkpt lat="53.086395" lon="04.875019"><ele>-10.6</ele><time>2021-12-08T15:04:57Z</time><name>PT7456</name></trkpt>
<trkpt lat="53.086385" lon="04.875015"><ele>-10.6</ele><time>2021-12-08T15:04:57Z</time><name>PT7457</name></trkpt>
<trkpt lat="53.086371" lon="04.875014"><ele>-10.5</ele><time>2021-12-08T15:04:58Z</time><name>PT7458</name></trkpt>
<trkpt lat="53.086362" lon="04.875012"><ele>-10.5</ele><time>2021-12-08T15:05:00Z</time><name>PT7459</name></trkpt>
<trkpt lat="53.086353" lon="04.875013"><ele>-10.4</ele><time>2021-12-08T15:05:00Z</time><name>PT7460</name></trkpt>
<trkpt lat="53.086344" lon="04.875013"><ele>-10.6</ele><time>2021-12-08T15:05:01Z</time><name>PT7461</name></trkpt>
<trkpt lat="53.086334" lon="04.875014"><ele>-10.7</ele><time>2021-12-08T15:05:03Z</time><name>PT7462</name></trkpt>
<trkpt lat="53.086324" lon="04.875009"><ele>-10.8</ele><time>2021-12-08T15:05:03Z</time><name>PT7463</name></trkpt>
<trkpt lat="53.086312" lon="04.875002"><ele>-10.7</ele><time>2021-12-08T15:05:04Z</time><name>PT7464</name></trkpt>
<trkpt lat="53.086297" lon="04.874992"><ele>-10.7</ele><time>2021-12-08T15:05:06Z</time><name>PT7465</name></trkpt>
<trkpt lat="53.086283" lon="04.874985"><ele>-10.7</ele><time>2021-12-08T15:05:06Z</time><name>PT7466</name></trkpt>
<trkpt lat="53.086273" lon="04.874981"><ele>-10.6</ele><time>2021-12-08T15:05:07Z</time><name>PT7467</name></trkpt>
<trkpt lat="53.086265" lon="04.874977"><ele>-10.4</ele><time>2021-12-08T15:05:09Z</time><name>PT7468</name></trkpt>
<trkpt lat="53.086255" lon="04.874974"><ele>-10.4</ele><time>2021-12-08T15:05:09Z</time><name>PT7469</name></trkpt>
<trkpt lat="53.086246" lon="04.874968"><ele>-10.3</ele><time>2021-12-08T15:05:10Z</time><name>PT7470</name></trkpt>
<trkpt lat="53.086230" lon="04.874964"><ele>-10.3</ele><time>2021-12-08T15:05:12Z</time><name>PT7471</name></trkpt>
<trkpt lat="53.086219" lon="04.874964"><ele>-10.2</ele><time>2021-12-08T15:05:12Z</time><name>PT7472</name></trkpt>
<trkpt lat="53.086215" lon="04.874970"><ele>-10.1</ele><time>2021-12-08T15:05:13Z</time><name>PT7473</name></trkpt>
<trkpt lat="53.086212" lon="04.874973"><ele>-9.9</ele><time>2021-12-08T15:05:15Z</time><name>PT7474</name></trkpt>
<trkpt lat="53.086206" lon="04.874973"><ele>-9.8</ele><time>2021-12-08T15:05:15Z</time><name>PT7475</name></trkpt>
<trkpt lat="53.086200" lon="04.874973"><ele>-9.7</ele><time>2021-12-08T15:05:16Z</time><name>PT7476</name></trkpt>
<trkpt lat="53.086192" lon="04.874972"><ele>-9.9</ele><time>2021-12-08T15:05:18Z</time><name>PT7477</name></trkpt>
<trkpt lat="53.086184" lon="04.874972"><ele>-9.9</ele><time>2021-12-08T15:05:18Z</time><name>PT7478</name></trkpt>
<trkpt lat="53.086175" lon="04.874970"><ele>-10.1</ele><time>2021-12-08T15:05:19Z</time><name>PT7479</name></trkpt>
<trkpt lat="53.086161" lon="04.874976"><ele>-10.2</ele><time>2021-12-08T15:05:21Z</time><name>PT7480</name></trkpt>
<trkpt lat="53.086149" lon="04.874973"><ele>-10.2</ele><time>2021-12-08T15:05:21Z</time><name>PT7481</name></trkpt>
<trkpt lat="53.086142" lon="04.874970"><ele>-10.1</ele><time>2021-12-08T15:05:22Z</time><name>PT7482</name></trkpt>
<trkpt lat="53.086134" lon="04.874966"><ele>-10.3</ele><time>2021-12-08T15:05:24Z</time><name>PT7483</name></trkpt>
<trkpt lat="53.086123" lon="04.874962"><ele>-10.1</ele><time>2021-12-08T15:05:24Z</time><name>PT7484</name></trkpt>
<trkpt lat="53.086115" lon="04.874954"><ele>-10.2</ele><time>2021-12-08T15:05:25Z</time><name>PT7485</name></trkpt>
<trkpt lat="53.086107" lon="04.874951"><ele>-10.4</ele><time>2021-12-08T15:05:27Z</time><name>PT7486</name></trkpt>
<trkpt lat="53.086101" lon="04.874949"><ele>-10.3</ele><time>2021-12-08T15:05:27Z</time><name>PT7487</name></trkpt>
<trkpt lat="53.086095" lon="04.874945"><ele>-10.2</ele><time>2021-12-08T15:05:28Z</time><name>PT7488</name></trkpt>
<trkpt lat="53.086086" lon="04.874938"><ele>-10.4</ele><time>2021-12-08T15:05:30Z</time><name>PT7489</name></trkpt>
<trkpt lat="53.086076" lon="04.874938"><ele>-10.4</ele><time>2021-12-08T15:05:30Z</time><name>PT7490</name></trkpt>
<trkpt lat="53.086068" lon="04.874942"><ele>-9.9</ele><time>2021-12-08T15:05:31Z</time><name>PT7491</name></trkpt>
<trkpt lat="53.086060" lon="04.874943"><ele>-9.9</ele><time>2021-12-08T15:05:33Z</time><name>PT7492</name></trkpt>
<trkpt lat="53.086052" lon="04.874938"><ele>-9.8</ele><time>2021-12-08T15:05:33Z</time><name>PT7493</name></trkpt>
<trkpt lat="53.086040" lon="04.874934"><ele>-9.5</ele><time>2021-12-08T15:05:34Z</time><name>PT7494</name></trkpt>
<trkpt lat="53.086028" lon="04.874928"><ele>-9.7</ele><time>2021-12-08T15:05:36Z</time><name>PT7495</name></trkpt>
<trkpt lat="53.086016" lon="04.874926"><ele>-9.9</ele><time>2021-12-08T15:05:36Z</time><name>PT7496</name></trkpt>
<trkpt lat="53.086005" lon="04.874923"><ele>-10</ele><time>2021-12-08T15:05:37Z</time><name>PT7497</name></trkpt>
<trkpt lat="53.085996" lon="04.874920"><ele>-10.2</ele><time>2021-12-08T15:05:39Z</time><name>PT7498</name></trkpt>
<trkpt lat="53.085986" lon="04.874916"><ele>-10.4</ele><time>2021-12-08T15:05:39Z</time><name>PT7499</name></trkpt>
<trkpt lat="53.085976" lon="04.874911"><ele>-10.3</ele><time>2021-12-08T15:05:40Z</time><name>PT7500</name></trkpt>
<trkpt lat="53.085960" lon="04.874909"><ele>-10.1</ele><time>2021-12-08T15:05:42Z</time><name>PT7501</name></trkpt>
<trkpt lat="53.085947" lon="04.874903"><ele>-10.2</ele><time>2021-12-08T15:05:42Z</time><name>PT7502</name></trkpt>
<trkpt lat="53.085936" lon="04.874898"><ele>-10.2</ele><time>2021-12-08T15:05:43Z</time><name>PT7503</name></trkpt>
<trkpt lat="53.085929" lon="04.874893"><ele>-10.1</ele><time>2021-12-08T15:05:45Z</time><name>PT7504</name></trkpt>
<trkpt lat="53.085921" lon="04.874887"><ele>-10.3</ele><time>2021-12-08T15:05:45Z</time><name>PT7505</name></trkpt>
<trkpt lat="53.085910" lon="04.874886"><ele>-10.3</ele><time>2021-12-08T15:05:46Z</time><name>PT7506</name></trkpt>
<trkpt lat="53.085897" lon="04.874883"><ele>-10.4</ele><time>2021-12-08T15:05:48Z</time><name>PT7507</name></trkpt>
<trkpt lat="53.085887" lon="04.874882"><ele>-10.2</ele><time>2021-12-08T15:05:48Z</time><name>PT7508</name></trkpt>
<trkpt lat="53.085877" lon="04.874880"><ele>-10.2</ele><time>2021-12-08T15:05:49Z</time><name>PT7509</name></trkpt>
<trkpt lat="53.085867" lon="04.874873"><ele>-10</ele><time>2021-12-08T15:05:51Z</time><name>PT7510</name></trkpt>
<trkpt lat="53.085857" lon="04.874866"><ele>-9.9</ele><time>2021-12-08T15:05:51Z</time><name>PT7511</name></trkpt>
<trkpt lat="53.085845" lon="04.874865"><ele>-9.9</ele><time>2021-12-08T15:05:52Z</time><name>PT7512</name></trkpt>
<trkpt lat="53.085835" lon="04.874863"><ele>-9.9</ele><time>2021-12-08T15:05:54Z</time><name>PT7513</name></trkpt>
<trkpt lat="53.085826" lon="04.874863"><ele>-9.9</ele><time>2021-12-08T15:05:54Z</time><name>PT7514</name></trkpt>
<trkpt lat="53.085817" lon="04.874862"><ele>-9.9</ele><time>2021-12-08T15:05:55Z</time><name>PT7515</name></trkpt>
<trkpt lat="53.085807" lon="04.874861"><ele>-10.2</ele><time>2021-12-08T15:05:57Z</time><name>PT7516</name></trkpt>
<trkpt lat="53.085800" lon="04.874862"><ele>-10.1</ele><time>2021-12-08T15:05:57Z</time><name>PT7517</name></trkpt>
<trkpt lat="53.085790" lon="04.874863"><ele>-10.1</ele><time>2021-12-08T15:05:58Z</time><name>PT7518</name></trkpt>
<trkpt lat="53.085777" lon="04.874865"><ele>-10.2</ele><time>2021-12-08T15:06:00Z</time><name>PT7519</name></trkpt>
<trkpt lat="53.085767" lon="04.874861"><ele>-10.2</ele><time>2021-12-08T15:06:00Z</time><name>PT7520</name></trkpt>
<trkpt lat="53.085752" lon="04.874856"><ele>-10</ele><time>2021-12-08T15:06:01Z</time><name>PT7521</name></trkpt>
<trkpt lat="53.085739" lon="04.874847"><ele>-10.1</ele><time>2021-12-08T15:06:03Z</time><name>PT7522</name></trkpt>
<trkpt lat="53.085727" lon="04.874843"><ele>-10</ele><time>2021-12-08T15:06:03Z</time><name>PT7523</name></trkpt>
<trkpt lat="53.085716" lon="04.874844"><ele>-10</ele><time>2021-12-08T15:06:04Z</time><name>PT7524</name></trkpt>
<trkpt lat="53.085709" lon="04.874843"><ele>-10</ele><time>2021-12-08T15:06:06Z</time><name>PT7525</name></trkpt>
<trkpt lat="53.085703" lon="04.874840"><ele>-9.9</ele><time>2021-12-08T15:06:06Z</time><name>PT7526</name></trkpt>
<trkpt lat="53.085697" lon="04.874832"><ele>-9.9</ele><time>2021-12-08T15:06:07Z</time><name>PT7527</name></trkpt>
<trkpt lat="53.085687" lon="04.874827"><ele>-10.1</ele><time>2021-12-08T15:06:09Z</time><name>PT7528</name></trkpt>
<trkpt lat="53.085674" lon="04.874830"><ele>-9.9</ele><time>2021-12-08T15:06:09Z</time><name>PT7529</name></trkpt>
<trkpt lat="53.085663" lon="04.874833"><ele>-9.9</ele><time>2021-12-08T15:06:10Z</time><name>PT7530</name></trkpt>
<trkpt lat="53.085653" lon="04.874836"><ele>-9.9</ele><time>2021-12-08T15:06:12Z</time><name>PT7531</name></trkpt>
<trkpt lat="53.085645" lon="04.874837"><ele>-9.9</ele><time>2021-12-08T15:06:12Z</time><name>PT7532</name></trkpt>
<trkpt lat="53.085635" lon="04.874835"><ele>-10.1</ele><time>2021-12-08T15:06:13Z</time><name>PT7533</name></trkpt>
<trkpt lat="53.085623" lon="04.874831"><ele>-10.3</ele><time>2021-12-08T15:06:15Z</time><name>PT7534</name></trkpt>
<trkpt lat="53.085614" lon="04.874827"><ele>-10.4</ele><time>2021-12-08T15:06:15Z</time><name>PT7535</name></trkpt>
<trkpt lat="53.085606" lon="04.874824"><ele>-10.4</ele><time>2021-12-08T15:06:16Z</time><name>PT7536</name></trkpt>
<trkpt lat="53.085599" lon="04.874821"><ele>-10.4</ele><time>2021-12-08T15:06:18Z</time><name>PT7537</name></trkpt>
<trkpt lat="53.085590" lon="04.874818"><ele>-10.4</ele><time>2021-12-08T15:06:18Z</time><name>PT7538</name></trkpt>
<trkpt lat="53.085582" lon="04.874819"><ele>-10.5</ele><time>2021-12-08T15:06:19Z</time><name>PT7539</name></trkpt>
<trkpt lat="53.085576" lon="04.874817"><ele>-10.4</ele><time>2021-12-08T15:06:21Z</time><name>PT7540</name></trkpt>
<trkpt lat="53.085572" lon="04.874816"><ele>-10.5</ele><time>2021-12-08T15:06:21Z</time><name>PT7541</name></trkpt>
<trkpt lat="53.085569" lon="04.874818"><ele>-10.5</ele><time>2021-12-08T15:06:22Z</time><name>PT7542</name></trkpt>
<trkpt lat="53.085569" lon="04.874817"><ele>-10.6</ele><time>2021-12-08T15:06:24Z</time><name>PT7543</name></trkpt>
<trkpt lat="53.085568" lon="04.874815"><ele>-10.5</ele><time>2021-12-08T15:06:24Z</time><name>PT7544</name></trkpt>
<trkpt lat="53.085567" lon="04.874815"><ele>-10.6</ele><time>2021-12-08T15:06:25Z</time><name>PT7545</name></trkpt>
<trkpt lat="53.085566" lon="04.874814"><ele>-10.6</ele><time>2021-12-08T15:06:27Z</time><name>PT7546</name></trkpt>
<trkpt lat="53.085566" lon="04.874814"><ele>-10.6</ele><time>2021-12-08T15:06:27Z</time><name>PT7547</name></trkpt>
<trkpt lat="53.085563" lon="04.874811"><ele>-10.8</ele><time>2021-12-08T15:06:33Z</time><name>PT7548</name></trkpt>
<trkpt lat="53.085556" lon="04.874802"><ele>-10.8</ele><time>2021-12-08T15:06:33Z</time><name>PT7549</name></trkpt>
<trkpt lat="53.085552" lon="04.874806"><ele>-10.8</ele><time>2021-12-08T15:06:34Z</time><name>PT7550</name></trkpt>
<trkpt lat="53.085545" lon="04.874810"><ele>-10.9</ele><time>2021-12-08T15:06:36Z</time><name>PT7551</name></trkpt>
<trkpt lat="53.085535" lon="04.874811"><ele>-10.7</ele><time>2021-12-08T15:06:36Z</time><name>PT7552</name></trkpt>
<trkpt lat="53.085528" lon="04.874813"><ele>-10.8</ele><time>2021-12-08T15:06:37Z</time><name>PT7553</name></trkpt>
<trkpt lat="53.085519" lon="04.874810"><ele>-10.8</ele><time>2021-12-08T15:06:39Z</time><name>PT7554</name></trkpt>
<trkpt lat="53.085508" lon="04.874810"><ele>-10.7</ele><time>2021-12-08T15:06:39Z</time><name>PT7555</name></trkpt>
<trkpt lat="53.085498" lon="04.874810"><ele>-10.7</ele><time>2021-12-08T15:06:40Z</time><name>PT7556</name></trkpt>
<trkpt lat="53.085490" lon="04.874810"><ele>-10.7</ele><time>2021-12-08T15:06:42Z</time><name>PT7557</name></trkpt>
<trkpt lat="53.085482" lon="04.874806"><ele>-10.7</ele><time>2021-12-08T15:06:42Z</time><name>PT7558</name></trkpt>
<trkpt lat="53.085472" lon="04.874803"><ele>-10.8</ele><time>2021-12-08T15:06:43Z</time><name>PT7559</name></trkpt>
<trkpt lat="53.085464" lon="04.874801"><ele>-10.7</ele><time>2021-12-08T15:06:45Z</time><name>PT7560</name></trkpt>
<trkpt lat="53.085456" lon="04.874798"><ele>-10.7</ele><time>2021-12-08T15:06:45Z</time><name>PT7561</name></trkpt>
<trkpt lat="53.085447" lon="04.874793"><ele>-10.5</ele><time>2021-12-08T15:06:46Z</time><name>PT7562</name></trkpt>
<trkpt lat="53.085438" lon="04.874785"><ele>-10.5</ele><time>2021-12-08T15:06:48Z</time><name>PT7563</name></trkpt>
<trkpt lat="53.085430" lon="04.874777"><ele>-10.7</ele><time>2021-12-08T15:06:48Z</time><name>PT7564</name></trkpt>
<trkpt lat="53.085425" lon="04.874765"><ele>-10.6</ele><time>2021-12-08T15:06:49Z</time><name>PT7565</name></trkpt>
<trkpt lat="53.085419" lon="04.874756"><ele>-10.6</ele><time>2021-12-08T15:06:51Z</time><name>PT7566</name></trkpt>
<trkpt lat="53.085411" lon="04.874744"><ele>-10.7</ele><time>2021-12-08T15:06:51Z</time><name>PT7567</name></trkpt>
<trkpt lat="53.085401" lon="04.874730"><ele>-10.5</ele><time>2021-12-08T15:06:52Z</time><name>PT7568</name></trkpt>
<trkpt lat="53.085390" lon="04.874719"><ele>-10.4</ele><time>2021-12-08T15:06:54Z</time><name>PT7569</name></trkpt>
<trkpt lat="53.085380" lon="04.874713"><ele>-10.5</ele><time>2021-12-08T15:06:54Z</time><name>PT7570</name></trkpt>
<trkpt lat="53.085371" lon="04.874707"><ele>-10.5</ele><time>2021-12-08T15:06:55Z</time><name>PT7571</name></trkpt>
<trkpt lat="53.085364" lon="04.874701"><ele>-10.8</ele><time>2021-12-08T15:06:57Z</time><name>PT7572</name></trkpt>
<trkpt lat="53.085356" lon="04.874692"><ele>-10.8</ele><time>2021-12-08T15:06:57Z</time><name>PT7573</name></trkpt>
<trkpt lat="53.085344" lon="04.874684"><ele>-10.6</ele><time>2021-12-08T15:06:58Z</time><name>PT7574</name></trkpt>
<trkpt lat="53.085334" lon="04.874676"><ele>-10.6</ele><time>2021-12-08T15:07:00Z</time><name>PT7575</name></trkpt>
<trkpt lat="53.085324" lon="04.874670"><ele>-10.6</ele><time>2021-12-08T15:07:00Z</time><name>PT7576</name></trkpt>
<trkpt lat="53.085317" lon="04.874663"><ele>-10.4</ele><time>2021-12-08T15:07:01Z</time><name>PT7577</name></trkpt>
<trkpt lat="53.085310" lon="04.874652"><ele>-10.4</ele><time>2021-12-08T15:07:03Z</time><name>PT7578</name></trkpt>
<trkpt lat="53.085302" lon="04.874642"><ele>-10.4</ele><time>2021-12-08T15:07:03Z</time><name>PT7579</name></trkpt>
<trkpt lat="53.085291" lon="04.874630"><ele>-10.7</ele><time>2021-12-08T15:07:04Z</time><name>PT7580</name></trkpt>
<trkpt lat="53.085281" lon="04.874625"><ele>-10.6</ele><time>2021-12-08T15:07:06Z</time><name>PT7581</name></trkpt>
<trkpt lat="53.085272" lon="04.874616"><ele>-10.7</ele><time>2021-12-08T15:07:06Z</time><name>PT7582</name></trkpt>
<trkpt lat="53.085262" lon="04.874607"><ele>-10.6</ele><time>2021-12-08T15:07:07Z</time><name>PT7583</name></trkpt>
<trkpt lat="53.085252" lon="04.874599"><ele>-10.6</ele><time>2021-12-08T15:07:09Z</time><name>PT7584</name></trkpt>
<trkpt lat="53.085241" lon="04.874587"><ele>-10.5</ele><time>2021-12-08T15:07:09Z</time><name>PT7585</name></trkpt>
<trkpt lat="53.085228" lon="04.874580"><ele>-10.6</ele><time>2021-12-08T15:07:10Z</time><name>PT7586</name></trkpt>
<trkpt lat="53.085217" lon="04.874578"><ele>-10.6</ele><time>2021-12-08T15:07:12Z</time><name>PT7587</name></trkpt>
<trkpt lat="53.085211" lon="04.874581"><ele>-10.5</ele><time>2021-12-08T15:07:12Z</time><name>PT7588</name></trkpt>
<trkpt lat="53.085202" lon="04.874583"><ele>-10.4</ele><time>2021-12-08T15:07:13Z</time><name>PT7589</name></trkpt>
<trkpt lat="53.085191" lon="04.874588"><ele>-10.7</ele><time>2021-12-08T15:07:15Z</time><name>PT7590</name></trkpt>
<trkpt lat="53.085186" lon="04.874597"><ele>-10.7</ele><time>2021-12-08T15:07:15Z</time><name>PT7591</name></trkpt>
<trkpt lat="53.085182" lon="04.874603"><ele>-11</ele><time>2021-12-08T15:07:16Z</time><name>PT7592</name></trkpt>
<trkpt lat="53.085172" lon="04.874610"><ele>-11</ele><time>2021-12-08T15:07:18Z</time><name>PT7593</name></trkpt>
<trkpt lat="53.085168" lon="04.874619"><ele>-11</ele><time>2021-12-08T15:07:18Z</time><name>PT7594</name></trkpt>
<trkpt lat="53.085165" lon="04.874626"><ele>-11</ele><time>2021-12-08T15:07:19Z</time><name>PT7595</name></trkpt>
<trkpt lat="53.085163" lon="04.874634"><ele>-11</ele><time>2021-12-08T15:07:21Z</time><name>PT7596</name></trkpt>
<trkpt lat="53.085156" lon="04.874642"><ele>-10.8</ele><time>2021-12-08T15:07:21Z</time><name>PT7597</name></trkpt>
<trkpt lat="53.085147" lon="04.874649"><ele>-10.8</ele><time>2021-12-08T15:07:22Z</time><name>PT7598</name></trkpt>
<trkpt lat="53.085141" lon="04.874656"><ele>-10.9</ele><time>2021-12-08T15:07:24Z</time><name>PT7599</name></trkpt>
<trkpt lat="53.085141" lon="04.874661"><ele>-11</ele><time>2021-12-08T15:07:24Z</time><name>PT7600</name></trkpt>
<trkpt lat="53.085142" lon="04.874669"><ele>-11</ele><time>2021-12-08T15:07:25Z</time><name>PT7601</name></trkpt>
<trkpt lat="53.085147" lon="04.874685"><ele>-11.2</ele><time>2021-12-08T15:07:27Z</time><name>PT7602</name></trkpt>
<trkpt lat="53.085152" lon="04.874693"><ele>-11.2</ele><time>2021-12-08T15:07:27Z</time><name>PT7603</name></trkpt>
<trkpt lat="53.085153" lon="04.874700"><ele>-11.1</ele><time>2021-12-08T15:07:28Z</time><name>PT7604</name></trkpt>
<trkpt lat="53.085150" lon="04.874704"><ele>-11</ele><time>2021-12-08T15:07:30Z</time><name>PT7605</name></trkpt>
<trkpt lat="53.085149" lon="04.874707"><ele>-11</ele><time>2021-12-08T15:07:30Z</time><name>PT7606</name></trkpt>
<trkpt lat="53.085148" lon="04.874708"><ele>-10.9</ele><time>2021-12-08T15:07:31Z</time><name>PT7607</name></trkpt>
<trkpt lat="53.085148" lon="04.874709"><ele>-11</ele><time>2021-12-08T15:07:33Z</time><name>PT7608</name></trkpt>
<trkpt lat="53.085148" lon="04.874709"><ele>-11</ele><time>2021-12-08T15:07:33Z</time><name>PT7609</name></trkpt>
<trkpt lat="53.085146" lon="04.874708"><ele>-11</ele><time>2021-12-08T15:07:46Z</time><name>PT7610</name></trkpt>
<trkpt lat="53.085143" lon="04.874712"><ele>-11</ele><time>2021-12-08T15:07:48Z</time><name>PT7611</name></trkpt>
<trkpt lat="53.085140" lon="04.874720"><ele>-11</ele><time>2021-12-08T15:07:48Z</time><name>PT7612</name></trkpt>
<trkpt lat="53.085133" lon="04.874724"><ele>-10.9</ele><time>2021-12-08T15:07:49Z</time><name>PT7613</name></trkpt>
<trkpt lat="53.085129" lon="04.874725"><ele>-10.8</ele><time>2021-12-08T15:07:51Z</time><name>PT7614</name></trkpt>
<trkpt lat="53.085131" lon="04.874721"><ele>-11</ele><time>2021-12-08T15:07:51Z</time><name>PT7615</name></trkpt>
<trkpt lat="53.085134" lon="04.874718"><ele>-10.7</ele><time>2021-12-08T15:07:52Z</time><name>PT7616</name></trkpt>
<trkpt lat="53.085137" lon="04.874714"><ele>-10.4</ele><time>2021-12-08T15:07:54Z</time><name>PT7617</name></trkpt>
<trkpt lat="53.085140" lon="04.874714"><ele>-10.5</ele><time>2021-12-08T15:07:54Z</time><name>PT7618</name></trkpt>
<trkpt lat="53.085142" lon="04.874710"><ele>-10.6</ele><time>2021-12-08T15:07:55Z</time><name>PT7619</name></trkpt>
<trkpt lat="53.085143" lon="04.874710"><ele>-10.5</ele><time>2021-12-08T15:07:57Z</time><name>PT7620</name></trkpt>
<trkpt lat="53.085144" lon="04.874709"><ele>-10.9</ele><time>2021-12-08T15:07:57Z</time><name>PT7621</name></trkpt>
<trkpt lat="53.085144" lon="04.874708"><ele>-11</ele><time>2021-12-08T15:07:58Z</time><name>PT7622</name></trkpt>
<trkpt lat="53.085144" lon="04.874717"><ele>-10.4</ele><time>2021-12-08T15:08:11Z</time><name>PT7623</name></trkpt>
<trkpt lat="53.085138" lon="04.874722"><ele>-10.5</ele><time>2021-12-08T15:08:12Z</time><name>PT7624</name></trkpt>
<trkpt lat="53.085133" lon="04.874727"><ele>-10.6</ele><time>2021-12-08T15:08:12Z</time><name>PT7625</name></trkpt>
<trkpt lat="53.085130" lon="04.874733"><ele>-10.7</ele><time>2021-12-08T15:08:13Z</time><name>PT7626</name></trkpt>
<trkpt lat="53.085126" lon="04.874741"><ele>-10.7</ele><time>2021-12-08T15:08:15Z</time><name>PT7627</name></trkpt>
<trkpt lat="53.085125" lon="04.874749"><ele>-10.7</ele><time>2021-12-08T15:08:15Z</time><name>PT7628</name></trkpt>
<trkpt lat="53.085123" lon="04.874752"><ele>-10.7</ele><time>2021-12-08T15:08:16Z</time><name>PT7629</name></trkpt>
<trkpt lat="53.085120" lon="04.874755"><ele>-10.7</ele><time>2021-12-08T15:08:18Z</time><name>PT7630</name></trkpt>
<trkpt lat="53.085119" lon="04.874752"><ele>-10.7</ele><time>2021-12-08T15:08:18Z</time><name>PT7631</name></trkpt>
<trkpt lat="53.085119" lon="04.874749"><ele>-10.6</ele><time>2021-12-08T15:08:19Z</time><name>PT7632</name></trkpt>
<trkpt lat="53.085116" lon="04.874751"><ele>-10.7</ele><time>2021-12-08T15:08:21Z</time><name>PT7633</name></trkpt>
<trkpt lat="53.085114" lon="04.874740"><ele>-10.7</ele><time>2021-12-08T15:08:21Z</time><name>PT7634</name></trkpt>
<trkpt lat="53.085107" lon="04.874726"><ele>-10.6</ele><time>2021-12-08T15:08:23Z</time><name>PT7635</name></trkpt>
<trkpt lat="53.085098" lon="04.874714"><ele>-10.7</ele><time>2021-12-08T15:08:24Z</time><name>PT7636</name></trkpt>
<trkpt lat="53.085088" lon="04.874704"><ele>-10.6</ele><time>2021-12-08T15:08:24Z</time><name>PT7637</name></trkpt>
<trkpt lat="53.085082" lon="04.874696"><ele>-10.6</ele><time>2021-12-08T15:08:25Z</time><name>PT7638</name></trkpt>
<trkpt lat="53.085078" lon="04.874695"><ele>-10.8</ele><time>2021-12-08T15:08:27Z</time><name>PT7639</name></trkpt>
<trkpt lat="53.085076" lon="04.874699"><ele>-10.9</ele><time>2021-12-08T15:08:27Z</time><name>PT7640</name></trkpt>
<trkpt lat="53.085080" lon="04.874701"><ele>-11</ele><time>2021-12-08T15:08:28Z</time><name>PT7641</name></trkpt>
<trkpt lat="53.085083" lon="04.874705"><ele>-11.1</ele><time>2021-12-08T15:08:30Z</time><name>PT7642</name></trkpt>
<trkpt lat="53.085084" lon="04.874710"><ele>-11.2</ele><time>2021-12-08T15:08:30Z</time><name>PT7643</name></trkpt>
<trkpt lat="53.085084" lon="04.874711"><ele>-11.2</ele><time>2021-12-08T15:08:31Z</time><name>PT7644</name></trkpt>
<trkpt lat="53.085084" lon="04.874709"><ele>-11</ele><time>2021-12-08T15:08:33Z</time><name>PT7645</name></trkpt>
<trkpt lat="53.085082" lon="04.874706"><ele>-10.9</ele><time>2021-12-08T15:08:33Z</time><name>PT7646</name></trkpt>
<trkpt lat="53.085085" lon="04.874703"><ele>-10.5</ele><time>2021-12-08T15:08:39Z</time><name>PT7647</name></trkpt>
<trkpt lat="53.085090" lon="04.874706"><ele>-10.5</ele><time>2021-12-08T15:08:39Z</time><name>PT7648</name></trkpt>
<trkpt lat="53.085094" lon="04.874709"><ele>-10.4</ele><time>2021-12-08T15:08:40Z</time><name>PT7649</name></trkpt>
<trkpt lat="53.085095" lon="04.874712"><ele>-10.3</ele><time>2021-12-08T15:08:42Z</time><name>PT7650</name></trkpt>
<trkpt lat="53.085094" lon="04.874715"><ele>-10.2</ele><time>2021-12-08T15:08:42Z</time><name>PT7651</name></trkpt>
<trkpt lat="53.085094" lon="04.874715"><ele>-10.2</ele><time>2021-12-08T15:08:43Z</time><name>PT7652</name></trkpt>
<trkpt lat="53.085093" lon="04.874724"><ele>-10.4</ele><time>2021-12-08T15:08:49Z</time><name>PT7653</name></trkpt>
<trkpt lat="53.085090" lon="04.874727"><ele>-10.4</ele><time>2021-12-08T15:08:51Z</time><name>PT7654</name></trkpt>
<trkpt lat="53.085090" lon="04.874728"><ele>-10.4</ele><time>2021-12-08T15:08:51Z</time><name>PT7655</name></trkpt>
<trkpt lat="53.085094" lon="04.874723"><ele>-10.7</ele><time>2021-12-08T15:08:52Z</time><name>PT7656</name></trkpt>
<trkpt lat="53.085097" lon="04.874719"><ele>-10.7</ele><time>2021-12-08T15:08:54Z</time><name>PT7657</name></trkpt>
<trkpt lat="53.085098" lon="04.874719"><ele>-10.6</ele><time>2021-12-08T15:08:54Z</time><name>PT7658</name></trkpt>
<trkpt lat="53.085095" lon="04.874718"><ele>-10.6</ele><time>2021-12-08T15:08:55Z</time><name>PT7659</name></trkpt>
<trkpt lat="53.085094" lon="04.874719"><ele>-10.5</ele><time>2021-12-08T15:08:57Z</time><name>PT7660</name></trkpt>
<trkpt lat="53.085090" lon="04.874719"><ele>-10.6</ele><time>2021-12-08T15:09:03Z</time><name>PT7661</name></trkpt>
<trkpt lat="53.085082" lon="04.874714"><ele>-11</ele><time>2021-12-08T15:09:04Z</time><name>PT7662</name></trkpt>
<trkpt lat="53.085075" lon="04.874711"><ele>-10.8</ele><time>2021-12-08T15:09:06Z</time><name>PT7663</name></trkpt>
<trkpt lat="53.085067" lon="04.874705"><ele>-10.8</ele><time>2021-12-08T15:09:06Z</time><name>PT7664</name></trkpt>
<trkpt lat="53.085059" lon="04.874704"><ele>-10.9</ele><time>2021-12-08T15:09:07Z</time><name>PT7665</name></trkpt>
<trkpt lat="53.085050" lon="04.874702"><ele>-10.8</ele><time>2021-12-08T15:09:09Z</time><name>PT7666</name></trkpt>
<trkpt lat="53.085044" lon="04.874702"><ele>-10.8</ele><time>2021-12-08T15:09:09Z</time><name>PT7667</name></trkpt>
<trkpt lat="53.085037" lon="04.874703"><ele>-10.9</ele><time>2021-12-08T15:09:10Z</time><name>PT7668</name></trkpt>
<trkpt lat="53.085032" lon="04.874704"><ele>-10.9</ele><time>2021-12-08T15:09:12Z</time><name>PT7669</name></trkpt>
<trkpt lat="53.085026" lon="04.874706"><ele>-10.9</ele><time>2021-12-08T15:09:12Z</time><name>PT7670</name></trkpt>
<trkpt lat="53.085020" lon="04.874704"><ele>-10.9</ele><time>2021-12-08T15:09:13Z</time><name>PT7671</name></trkpt>
<trkpt lat="53.085017" lon="04.874699"><ele>-10.7</ele><time>2021-12-08T15:09:15Z</time><name>PT7672</name></trkpt>
<trkpt lat="53.085012" lon="04.874695"><ele>-10.7</ele><time>2021-12-08T15:09:15Z</time><name>PT7673</name></trkpt>
<trkpt lat="53.085006" lon="04.874691"><ele>-10.7</ele><time>2021-12-08T15:09:16Z</time><name>PT7674</name></trkpt>
<trkpt lat="53.085001" lon="04.874684"><ele>-10.6</ele><time>2021-12-08T15:09:18Z</time><name>PT7675</name></trkpt>
<trkpt lat="53.084995" lon="04.874681"><ele>-10.7</ele><time>2021-12-08T15:09:18Z</time><name>PT7676</name></trkpt>
<trkpt lat="53.084990" lon="04.874675"><ele>-10.6</ele><time>2021-12-08T15:09:19Z</time><name>PT7677</name></trkpt>
<trkpt lat="53.084985" lon="04.874666"><ele>-10.9</ele><time>2021-12-08T15:09:21Z</time><name>PT7678</name></trkpt>
<trkpt lat="53.084980" lon="04.874654"><ele>-10.6</ele><time>2021-12-08T15:09:21Z</time><name>PT7679</name></trkpt>
<trkpt lat="53.084974" lon="04.874643"><ele>-10.7</ele><time>2021-12-08T15:09:22Z</time><name>PT7680</name></trkpt>
<trkpt lat="53.084969" lon="04.874635"><ele>-10.7</ele><time>2021-12-08T15:09:24Z</time><name>PT7681</name></trkpt>
<trkpt lat="53.084965" lon="04.874622"><ele>-10.9</ele><time>2021-12-08T15:09:24Z</time><name>PT7682</name></trkpt>
<trkpt lat="53.084960" lon="04.874610"><ele>-10.7</ele><time>2021-12-08T15:09:25Z</time><name>PT7683</name></trkpt>
<trkpt lat="53.084954" lon="04.874595"><ele>-10.9</ele><time>2021-12-08T15:09:27Z</time><name>PT7684</name></trkpt>
<trkpt lat="53.084947" lon="04.874581"><ele>-10.9</ele><time>2021-12-08T15:09:27Z</time><name>PT7685</name></trkpt>
<trkpt lat="53.084940" lon="04.874570"><ele>-10.9</ele><time>2021-12-08T15:09:28Z</time><name>PT7686</name></trkpt>
<trkpt lat="53.084935" lon="04.874557"><ele>-10.9</ele><time>2021-12-08T15:09:30Z</time><name>PT7687</name></trkpt>
<trkpt lat="53.084929" lon="04.874544"><ele>-11</ele><time>2021-12-08T15:09:30Z</time><name>PT7688</name></trkpt>
<trkpt lat="53.084924" lon="04.874532"><ele>-11</ele><time>2021-12-08T15:09:31Z</time><name>PT7689</name></trkpt>
<trkpt lat="53.084919" lon="04.874522"><ele>-11</ele><time>2021-12-08T15:09:33Z</time><name>PT7690</name></trkpt>
<trkpt lat="53.084914" lon="04.874512"><ele>-11.1</ele><time>2021-12-08T15:09:33Z</time><name>PT7691</name></trkpt>
<trkpt lat="53.084909" lon="04.874504"><ele>-11.1</ele><time>2021-12-08T15:09:34Z</time><name>PT7692</name></trkpt>
<trkpt lat="53.084904" lon="04.874493"><ele>-11.3</ele><time>2021-12-08T15:09:36Z</time><name>PT7693</name></trkpt>
<trkpt lat="53.084901" lon="04.874481"><ele>-11.4</ele><time>2021-12-08T15:09:36Z</time><name>PT7694</name></trkpt>
<trkpt lat="53.084896" lon="04.874467"><ele>-11.2</ele><time>2021-12-08T15:09:37Z</time><name>PT7695</name></trkpt>
<trkpt lat="53.084891" lon="04.874453"><ele>-11.1</ele><time>2021-12-08T15:09:39Z</time><name>PT7696</name></trkpt>
<trkpt lat="53.084886" lon="04.874439"><ele>-11.1</ele><time>2021-12-08T15:09:39Z</time><name>PT7697</name></trkpt>
<trkpt lat="53.084881" lon="04.874425"><ele>-11</ele><time>2021-12-08T15:09:40Z</time><name>PT7698</name></trkpt>
<trkpt lat="53.084879" lon="04.874414"><ele>-10.8</ele><time>2021-12-08T15:09:42Z</time><name>PT7699</name></trkpt>
<trkpt lat="53.084876" lon="04.874399"><ele>-10.7</ele><time>2021-12-08T15:09:42Z</time><name>PT7700</name></trkpt>
<trkpt lat="53.084870" lon="04.874387"><ele>-10.5</ele><time>2021-12-08T15:09:43Z</time><name>PT7701</name></trkpt>
<trkpt lat="53.084862" lon="04.874376"><ele>-10.4</ele><time>2021-12-08T15:09:45Z</time><name>PT7702</name></trkpt>
<trkpt lat="53.084856" lon="04.874365"><ele>-10.4</ele><time>2021-12-08T15:09:45Z</time><name>PT7703</name></trkpt>
<trkpt lat="53.084851" lon="04.874350"><ele>-10.6</ele><time>2021-12-08T15:09:46Z</time><name>PT7704</name></trkpt>
<trkpt lat="53.084846" lon="04.874336"><ele>-10.7</ele><time>2021-12-08T15:09:48Z</time><name>PT7705</name></trkpt>
<trkpt lat="53.084841" lon="04.874322"><ele>-10.8</ele><time>2021-12-08T15:09:48Z</time><name>PT7706</name></trkpt>
<trkpt lat="53.084837" lon="04.874309"><ele>-10.9</ele><time>2021-12-08T15:09:49Z</time><name>PT7707</name></trkpt>
<trkpt lat="53.084833" lon="04.874296"><ele>-10.6</ele><time>2021-12-08T15:09:51Z</time><name>PT7708</name></trkpt>
<trkpt lat="53.084828" lon="04.874284"><ele>-10.6</ele><time>2021-12-08T15:09:51Z</time><name>PT7709</name></trkpt>
<trkpt lat="53.084825" lon="04.874269"><ele>-10.8</ele><time>2021-12-08T15:09:52Z</time><name>PT7710</name></trkpt>
<trkpt lat="53.084823" lon="04.874255"><ele>-10.8</ele><time>2021-12-08T15:09:54Z</time><name>PT7711</name></trkpt>
<trkpt lat="53.084817" lon="04.874238"><ele>-10.9</ele><time>2021-12-08T15:09:54Z</time><name>PT7712</name></trkpt>
<trkpt lat="53.084811" lon="04.874223"><ele>-11</ele><time>2021-12-08T15:09:55Z</time><name>PT7713</name></trkpt>
<trkpt lat="53.084804" lon="04.874207"><ele>-11</ele><time>2021-12-08T15:09:57Z</time><name>PT7714</name></trkpt>
<trkpt lat="53.084799" lon="04.874193"><ele>-10.9</ele><time>2021-12-08T15:09:57Z</time><name>PT7715</name></trkpt>
<trkpt lat="53.084795" lon="04.874179"><ele>-10.8</ele><time>2021-12-08T15:09:58Z</time><name>PT7716</name></trkpt>
<trkpt lat="53.084793" lon="04.874164"><ele>-10.8</ele><time>2021-12-08T15:10:00Z</time><name>PT7717</name></trkpt>
<trkpt lat="53.084788" lon="04.874147"><ele>-10.8</ele><time>2021-12-08T15:10:00Z</time><name>PT7718</name></trkpt>
<trkpt lat="53.084784" lon="04.874131"><ele>-10.8</ele><time>2021-12-08T15:10:01Z</time><name>PT7719</name></trkpt>
<trkpt lat="53.084780" lon="04.874117"><ele>-10.7</ele><time>2021-12-08T15:10:03Z</time><name>PT7720</name></trkpt>
<trkpt lat="53.084774" lon="04.874104"><ele>-10.6</ele><time>2021-12-08T15:10:03Z</time><name>PT7721</name></trkpt>
<trkpt lat="53.084771" lon="04.874089"><ele>-10.6</ele><time>2021-12-08T15:10:04Z</time><name>PT7722</name></trkpt>
<trkpt lat="53.084767" lon="04.874075"><ele>-10.6</ele><time>2021-12-08T15:10:06Z</time><name>PT7723</name></trkpt>
<trkpt lat="53.084763" lon="04.874062"><ele>-10.4</ele><time>2021-12-08T15:10:06Z</time><name>PT7724</name></trkpt>
<trkpt lat="53.084757" lon="04.874049"><ele>-10.5</ele><time>2021-12-08T15:10:07Z</time><name>PT7725</name></trkpt>
<trkpt lat="53.084752" lon="04.874035"><ele>-10.8</ele><time>2021-12-08T15:10:09Z</time><name>PT7726</name></trkpt>
<trkpt lat="53.084748" lon="04.874021"><ele>-10.8</ele><time>2021-12-08T15:10:09Z</time><name>PT7727</name></trkpt>
<trkpt lat="53.084744" lon="04.874006"><ele>-11</ele><time>2021-12-08T15:10:10Z</time><name>PT7728</name></trkpt>
<trkpt lat="53.084742" lon="04.873993"><ele>-11</ele><time>2021-12-08T15:10:12Z</time><name>PT7729</name></trkpt>
<trkpt lat="53.084739" lon="04.873979"><ele>-11</ele><time>2021-12-08T15:10:12Z</time><name>PT7730</name></trkpt>
<trkpt lat="53.084737" lon="04.873967"><ele>-10.9</ele><time>2021-12-08T15:10:13Z</time><name>PT7731</name></trkpt>
<trkpt lat="53.084737" lon="04.873956"><ele>-10.9</ele><time>2021-12-08T15:10:15Z</time><name>PT7732</name></trkpt>
<trkpt lat="53.084737" lon="04.873946"><ele>-10.9</ele><time>2021-12-08T15:10:15Z</time><name>PT7733</name></trkpt>
<trkpt lat="53.084736" lon="04.873939"><ele>-11</ele><time>2021-12-08T15:10:16Z</time><name>PT7734</name></trkpt>
<trkpt lat="53.084735" lon="04.873932"><ele>-11</ele><time>2021-12-08T15:10:18Z</time><name>PT7735</name></trkpt>
<trkpt lat="53.084733" lon="04.873921"><ele>-11</ele><time>2021-12-08T15:10:18Z</time><name>PT7736</name></trkpt>
<trkpt lat="53.084730" lon="04.873913"><ele>-10.9</ele><time>2021-12-08T15:10:19Z</time><name>PT7737</name></trkpt>
<trkpt lat="53.084729" lon="04.873906"><ele>-10.9</ele><time>2021-12-08T15:10:21Z</time><name>PT7738</name></trkpt>
<trkpt lat="53.084728" lon="04.873902"><ele>-11</ele><time>2021-12-08T15:10:21Z</time><name>PT7739</name></trkpt>
<trkpt lat="53.084726" lon="04.873900"><ele>-11</ele><time>2021-12-08T15:10:22Z</time><name>PT7740</name></trkpt>
<trkpt lat="53.084722" lon="04.873895"><ele>-11.2</ele><time>2021-12-08T15:10:24Z</time><name>PT7741</name></trkpt>
<trkpt lat="53.084712" lon="04.873881"><ele>-11.2</ele><time>2021-12-08T15:10:24Z</time><name>PT7742</name></trkpt>
<trkpt lat="53.084705" lon="04.873871"><ele>-11.1</ele><time>2021-12-08T15:10:25Z</time><name>PT7743</name></trkpt>
<trkpt lat="53.084701" lon="04.873861"><ele>-11.3</ele><time>2021-12-08T15:10:27Z</time><name>PT7744</name></trkpt>
<trkpt lat="53.084698" lon="04.873850"><ele>-11.3</ele><time>2021-12-08T15:10:27Z</time><name>PT7745</name></trkpt>
<trkpt lat="53.084693" lon="04.873838"><ele>-11.2</ele><time>2021-12-08T15:10:28Z</time><name>PT7746</name></trkpt>
<trkpt lat="53.084691" lon="04.873826"><ele>-11.2</ele><time>2021-12-08T15:10:30Z</time><name>PT7747</name></trkpt>
<trkpt lat="53.084689" lon="04.873816"><ele>-11.3</ele><time>2021-12-08T15:10:30Z</time><name>PT7748</name></trkpt>
<trkpt lat="53.084686" lon="04.873802"><ele>-11</ele><time>2021-12-08T15:10:31Z</time><name>PT7749</name></trkpt>
<trkpt lat="53.084682" lon="04.873788"><ele>-10.9</ele><time>2021-12-08T15:10:33Z</time><name>PT7750</name></trkpt>
<trkpt lat="53.084679" lon="04.873775"><ele>-10.8</ele><time>2021-12-08T15:10:33Z</time><name>PT7751</name></trkpt>
<trkpt lat="53.084676" lon="04.873764"><ele>-10.7</ele><time>2021-12-08T15:10:34Z</time><name>PT7752</name></trkpt>
<trkpt lat="53.084674" lon="04.873754"><ele>-10.4</ele><time>2021-12-08T15:10:36Z</time><name>PT7753</name></trkpt>
<trkpt lat="53.084673" lon="04.873751"><ele>-10.5</ele><time>2021-12-08T15:10:36Z</time><name>PT7754</name></trkpt>
<trkpt lat="53.084673" lon="04.873751"><ele>-10.4</ele><time>2021-12-08T15:10:37Z</time><name>PT7755</name></trkpt>
<trkpt lat="53.084673" lon="04.873746"><ele>-10.6</ele><time>2021-12-08T15:10:39Z</time><name>PT7756</name></trkpt>
<trkpt lat="53.084672" lon="04.873739"><ele>-10.7</ele><time>2021-12-08T15:10:42Z</time><name>PT7757</name></trkpt>
<trkpt lat="53.084671" lon="04.873728"><ele>-10.6</ele><time>2021-12-08T15:10:42Z</time><name>PT7758</name></trkpt>
<trkpt lat="53.084667" lon="04.873719"><ele>-10.9</ele><time>2021-12-08T15:10:43Z</time><name>PT7759</name></trkpt>
<trkpt lat="53.084667" lon="04.873701"><ele>-11</ele><time>2021-12-08T15:10:45Z</time><name>PT7760</name></trkpt>
<trkpt lat="53.084663" lon="04.873686"><ele>-11</ele><time>2021-12-08T15:10:45Z</time><name>PT7761</name></trkpt>
<trkpt lat="53.084658" lon="04.873673"><ele>-11.1</ele><time>2021-12-08T15:10:46Z</time><name>PT7762</name></trkpt>
<trkpt lat="53.084656" lon="04.873659"><ele>-10.9</ele><time>2021-12-08T15:10:48Z</time><name>PT7763</name></trkpt>
<trkpt lat="53.084652" lon="04.873647"><ele>-10.7</ele><time>2021-12-08T15:10:48Z</time><name>PT7764</name></trkpt>
<trkpt lat="53.084646" lon="04.873635"><ele>-10.5</ele><time>2021-12-08T15:10:49Z</time><name>PT7765</name></trkpt>
<trkpt lat="53.084642" lon="04.873622"><ele>-10.4</ele><time>2021-12-08T15:10:51Z</time><name>PT7766</name></trkpt>
<trkpt lat="53.084638" lon="04.873607"><ele>-10.5</ele><time>2021-12-08T15:10:51Z</time><name>PT7767</name></trkpt>
<trkpt lat="53.084633" lon="04.873595"><ele>-10.8</ele><time>2021-12-08T15:10:52Z</time><name>PT7768</name></trkpt>
<trkpt lat="53.084629" lon="04.873584"><ele>-11</ele><time>2021-12-08T15:10:54Z</time><name>PT7769</name></trkpt>
<trkpt lat="53.084627" lon="04.873572"><ele>-11</ele><time>2021-12-08T15:10:54Z</time><name>PT7770</name></trkpt>
<trkpt lat="53.084624" lon="04.873560"><ele>-11</ele><time>2021-12-08T15:10:55Z</time><name>PT7771</name></trkpt>
<trkpt lat="53.084622" lon="04.873553"><ele>-10.9</ele><time>2021-12-08T15:10:57Z</time><name>PT7772</name></trkpt>
<trkpt lat="53.084621" lon="04.873542"><ele>-11</ele><time>2021-12-08T15:10:57Z</time><name>PT7773</name></trkpt>
<trkpt lat="53.084617" lon="04.873532"><ele>-10.9</ele><time>2021-12-08T15:10:58Z</time><name>PT7774</name></trkpt>
<trkpt lat="53.084613" lon="04.873520"><ele>-10.6</ele><time>2021-12-08T15:11:00Z</time><name>PT7775</name></trkpt>
<trkpt lat="53.084609" lon="04.873507"><ele>-10.5</ele><time>2021-12-08T15:11:00Z</time><name>PT7776</name></trkpt>
<trkpt lat="53.084607" lon="04.873494"><ele>-10.5</ele><time>2021-12-08T15:11:01Z</time><name>PT7777</name></trkpt>
<trkpt lat="53.084602" lon="04.873483"><ele>-10.5</ele><time>2021-12-08T15:11:03Z</time><name>PT7778</name></trkpt>
<trkpt lat="53.084596" lon="04.873476"><ele>-10.6</ele><time>2021-12-08T15:11:03Z</time><name>PT7779</name></trkpt>
<trkpt lat="53.084588" lon="04.873471"><ele>-10.7</ele><time>2021-12-08T15:11:04Z</time><name>PT7780</name></trkpt>
<trkpt lat="53.084579" lon="04.873469"><ele>-10.7</ele><time>2021-12-08T15:11:06Z</time><name>PT7781</name></trkpt>
<trkpt lat="53.084569" lon="04.873471"><ele>-10.6</ele><time>2021-12-08T15:11:06Z</time><name>PT7782</name></trkpt>
<trkpt lat="53.084559" lon="04.873473"><ele>-10.6</ele><time>2021-12-08T15:11:07Z</time><name>PT7783</name></trkpt>
<trkpt lat="53.084550" lon="04.873478"><ele>-10.5</ele><time>2021-12-08T15:11:09Z</time><name>PT7784</name></trkpt>
<trkpt lat="53.084541" lon="04.873482"><ele>-10.4</ele><time>2021-12-08T15:11:09Z</time><name>PT7785</name></trkpt>
<trkpt lat="53.084531" lon="04.873484"><ele>-10.5</ele><time>2021-12-08T15:11:10Z</time><name>PT7786</name></trkpt>
<trkpt lat="53.084522" lon="04.873491"><ele>-10.5</ele><time>2021-12-08T15:11:12Z</time><name>PT7787</name></trkpt>
<trkpt lat="53.084515" lon="04.873498"><ele>-10.5</ele><time>2021-12-08T15:11:12Z</time><name>PT7788</name></trkpt>
<trkpt lat="53.084507" lon="04.873504"><ele>-10.7</ele><time>2021-12-08T15:11:13Z</time><name>PT7789</name></trkpt>
<trkpt lat="53.084500" lon="04.873511"><ele>-10.5</ele><time>2021-12-08T15:11:15Z</time><name>PT7790</name></trkpt>
<trkpt lat="53.084490" lon="04.873520"><ele>-10.4</ele><time>2021-12-08T15:11:15Z</time><name>PT7791</name></trkpt>
<trkpt lat="53.084478" lon="04.873525"><ele>-10.4</ele><time>2021-12-08T15:11:16Z</time><name>PT7792</name></trkpt>
<trkpt lat="53.084470" lon="04.873531"><ele>-10.4</ele><time>2021-12-08T15:11:18Z</time><name>PT7793</name></trkpt>
<trkpt lat="53.084463" lon="04.873532"><ele>-10.4</ele><time>2021-12-08T15:11:18Z</time><name>PT7794</name></trkpt>
<trkpt lat="53.084456" lon="04.873538"><ele>-10.6</ele><time>2021-12-08T15:11:19Z</time><name>PT7795</name></trkpt>
<trkpt lat="53.084451" lon="04.873540"><ele>-11</ele><time>2021-12-08T15:11:21Z</time><name>PT7796</name></trkpt>
<trkpt lat="53.084443" lon="04.873542"><ele>-11</ele><time>2021-12-08T15:11:21Z</time><name>PT7797</name></trkpt>
<trkpt lat="53.084437" lon="04.873553"><ele>-11.1</ele><time>2021-12-08T15:11:22Z</time><name>PT7798</name></trkpt>
<trkpt lat="53.084425" lon="04.873561"><ele>-11.2</ele><time>2021-12-08T15:11:24Z</time><name>PT7799</name></trkpt>
<trkpt lat="53.084422" lon="04.873577"><ele>-11.1</ele><time>2021-12-08T15:11:24Z</time><name>PT7800</name></trkpt>
<trkpt lat="53.084415" lon="04.873587"><ele>-11</ele><time>2021-12-08T15:11:25Z</time><name>PT7801</name></trkpt>
<trkpt lat="53.084411" lon="04.873594"><ele>-11.2</ele><time>2021-12-08T15:11:27Z</time><name>PT7802</name></trkpt>
<trkpt lat="53.084409" lon="04.873603"><ele>-11.2</ele><time>2021-12-08T15:11:27Z</time><name>PT7803</name></trkpt>
<trkpt lat="53.084405" lon="04.873618"><ele>-11</ele><time>2021-12-08T15:11:28Z</time><name>PT7804</name></trkpt>
<trkpt lat="53.084398" lon="04.873630"><ele>-11</ele><time>2021-12-08T15:11:30Z</time><name>PT7805</name></trkpt>
<trkpt lat="53.084386" lon="04.873648"><ele>-11</ele><time>2021-12-08T15:11:30Z</time><name>PT7806</name></trkpt>
<trkpt lat="53.084373" lon="04.873649"><ele>-10.9</ele><time>2021-12-08T15:11:31Z</time><name>PT7807</name></trkpt>
<trkpt lat="53.084363" lon="04.873656"><ele>-10.7</ele><time>2021-12-08T15:11:33Z</time><name>PT7808</name></trkpt>
<trkpt lat="53.084349" lon="04.873660"><ele>-10.7</ele><time>2021-12-08T15:11:33Z</time><name>PT7809</name></trkpt>
<trkpt lat="53.084338" lon="04.873665"><ele>-10.8</ele><time>2021-12-08T15:11:34Z</time><name>PT7810</name></trkpt>
<trkpt lat="53.084329" lon="04.873676"><ele>-10.4</ele><time>2021-12-08T15:11:36Z</time><name>PT7811</name></trkpt>
<trkpt lat="53.084319" lon="04.873685"><ele>-10.4</ele><time>2021-12-08T15:11:36Z</time><name>PT7812</name></trkpt>
<trkpt lat="53.084311" lon="04.873692"><ele>-10.5</ele><time>2021-12-08T15:11:37Z</time><name>PT7813</name></trkpt>
<trkpt lat="53.084304" lon="04.873698"><ele>-10.6</ele><time>2021-12-08T15:11:39Z</time><name>PT7814</name></trkpt>
<trkpt lat="53.084301" lon="04.873703"><ele>-10.6</ele><time>2021-12-08T15:11:39Z</time><name>PT7815</name></trkpt>
<trkpt lat="53.084301" lon="04.873704"><ele>-10.7</ele><time>2021-12-08T15:11:40Z</time><name>PT7816</name></trkpt>
<trkpt lat="53.084299" lon="04.873705"><ele>-10.6</ele><time>2021-12-08T15:11:42Z</time><name>PT7817</name></trkpt>
<trkpt lat="53.084300" lon="04.873708"><ele>-10.4</ele><time>2021-12-08T15:11:42Z</time><name>PT7818</name></trkpt>
<trkpt lat="53.084299" lon="04.873710"><ele>-10.4</ele><time>2021-12-08T15:11:43Z</time><name>PT7819</name></trkpt>
<trkpt lat="53.084299" lon="04.873711"><ele>-10.4</ele><time>2021-12-08T15:11:45Z</time><name>PT7820</name></trkpt>
<trkpt lat="53.084296" lon="04.873709"><ele>-10.2</ele><time>2021-12-08T15:11:45Z</time><name>PT7821</name></trkpt>
<trkpt lat="53.084290" lon="04.873710"><ele>-10.3</ele><time>2021-12-08T15:11:47Z</time><name>PT7822</name></trkpt>
<trkpt lat="53.084281" lon="04.873714"><ele>-10.4</ele><time>2021-12-08T15:11:48Z</time><name>PT7823</name></trkpt>
<trkpt lat="53.084272" lon="04.873720"><ele>-10.3</ele><time>2021-12-08T15:11:48Z</time><name>PT7824</name></trkpt>
<trkpt lat="53.084264" lon="04.873724"><ele>-10.3</ele><time>2021-12-08T15:11:49Z</time><name>PT7825</name></trkpt>
<trkpt lat="53.084254" lon="04.873726"><ele>-10.4</ele><time>2021-12-08T15:11:51Z</time><name>PT7826</name></trkpt>
<trkpt lat="53.084243" lon="04.873729"><ele>-10.4</ele><time>2021-12-08T15:11:51Z</time><name>PT7827</name></trkpt>
<trkpt lat="53.084234" lon="04.873733"><ele>-10.5</ele><time>2021-12-08T15:11:52Z</time><name>PT7828</name></trkpt>
<trkpt lat="53.084229" lon="04.873736"><ele>-10.9</ele><time>2021-12-08T15:11:54Z</time><name>PT7829</name></trkpt>
<trkpt lat="53.084221" lon="04.873743"><ele>-11</ele><time>2021-12-08T15:11:54Z</time><name>PT7830</name></trkpt>
<trkpt lat="53.084214" lon="04.873746"><ele>-11</ele><time>2021-12-08T15:11:55Z</time><name>PT7831</name></trkpt>
<trkpt lat="53.084208" lon="04.873750"><ele>-10.8</ele><time>2021-12-08T15:11:57Z</time><name>PT7832</name></trkpt>
<trkpt lat="53.084203" lon="04.873753"><ele>-10.7</ele><time>2021-12-08T15:11:57Z</time><name>PT7833</name></trkpt></trkseg></trk></gpx>